<?xml version="1.0" encoding="UTF-8" standalone="no" ?>
<gpx xmlns="http://www.topografix.com/GPX/1/1" xmlns:xsi="http://www.w3.org/2001/XMLSchema-instance" xsi:schemaLocation="http://www.topografix.com/GPX/1/1 http://www.topografix.com/GPX/1/1/gpx.xsd" version="1.1" creator="VisuGPX - https://www.visugpx.com">
  <metadata>
    <name>Sortie en semaine</name>
    <desc><![CDATA[sortie en semaine]]></desc>
  </metadata>
  <wpt lat="47.53416" lon="6.77252">
    <ele>365</ele>
    <name><![CDATA[Point de cheminement 1]]></name>
    <desc><![CDATA[]]></desc>
  </wpt>
  <wpt lat="47.55189" lon="6.76027">
    <ele>410</ele>
    <name><![CDATA[Point de cheminement 2]]></name>
    <desc><![CDATA[]]></desc>
  </wpt>
  <wpt lat="47.54304" lon="6.74828">
    <ele>462</ele>
    <name><![CDATA[Point de cheminement 3]]></name>
    <desc><![CDATA[]]></desc>
  </wpt>
  <wpt lat="47.55072" lon="6.71477">
    <ele>381</ele>
    <name><![CDATA[Point de cheminement 4]]></name>
    <desc><![CDATA[]]></desc>
  </wpt>
  <wpt lat="47.52731" lon="6.70862">
    <ele>360</ele>
    <name><![CDATA[Point de cheminement 5]]></name>
    <desc><![CDATA[]]></desc>
  </wpt>
  <wpt lat="47.51378" lon="6.72323">
    <ele>422</ele>
    <name><![CDATA[Point de cheminement 6]]></name>
    <desc><![CDATA[]]></desc>
  </wpt>
  <wpt lat="47.50216" lon="6.75991">
    <ele>368</ele>
    <name><![CDATA[Point de cheminement 7]]></name>
    <desc><![CDATA[]]></desc>
  </wpt>
  <wpt lat="47.51801" lon="6.77474">
    <ele>388</ele>
    <name><![CDATA[Point de cheminement 8]]></name>
    <desc><![CDATA[]]></desc>
  </wpt>
  <trk>
    <name><![CDATA[Rue Antoine Coysevox]]></name>
    <desc><![CDATA[]]></desc>
    <trkseg>
      <trkpt lat="47.51709" lon="6.77424">
        <ele>388</ele>
        <time>2016-08-24T14:50:42.000Z</time>
      </trkpt>
      <trkpt lat="47.51712" lon="6.77425">
        <ele>388</ele>
        <time>2016-08-24T14:50:44.000Z</time>
      </trkpt>
      <trkpt lat="47.51713" lon="6.77426">
        <ele>388</ele>
        <time>2016-08-24T14:50:45.000Z</time>
      </trkpt>
      <trkpt lat="47.51717" lon="6.77428">
        <ele>388</ele>
        <time>2016-08-24T14:50:47.000Z</time>
      </trkpt>
      <trkpt lat="47.51719" lon="6.77429">
        <ele>388</ele>
        <time>2016-08-24T14:50:48.000Z</time>
      </trkpt>
      <trkpt lat="47.51722" lon="6.77431">
        <ele>388</ele>
        <time>2016-08-24T14:50:51.000Z</time>
      </trkpt>
      <trkpt lat="47.51726" lon="6.77435">
        <ele>388</ele>
        <time>2016-08-24T14:50:52.000Z</time>
      </trkpt>
      <trkpt lat="47.5173" lon="6.77438">
        <ele>388</ele>
        <time>2016-08-24T14:50:53.000Z</time>
      </trkpt>
      <trkpt lat="47.51734" lon="6.77442">
        <ele>388</ele>
        <time>2016-08-24T14:50:54.000Z</time>
      </trkpt>
      <trkpt lat="47.51738" lon="6.77446">
        <ele>388</ele>
        <time>2016-08-24T14:50:55.000Z</time>
      </trkpt>
      <trkpt lat="47.51741" lon="6.77449">
        <ele>388</ele>
        <time>2016-08-24T14:50:59.000Z</time>
      </trkpt>
      <trkpt lat="47.51742" lon="6.7745">
        <ele>388</ele>
        <time>2016-08-24T14:51:00.000Z</time>
      </trkpt>
      <trkpt lat="47.51742" lon="6.7745">
        <ele>388</ele>
        <time>2016-08-24T14:51:02.000Z</time>
      </trkpt>
      <trkpt lat="47.51772" lon="6.77467">
        <ele>388</ele>
        <time>2016-08-24T14:51:03.000Z</time>
      </trkpt>
      <trkpt lat="47.51777" lon="6.77471">
        <ele>388</ele>
        <time>2016-08-24T14:51:04.000Z</time>
      </trkpt>
      <trkpt lat="47.5178" lon="6.77472">
        <ele>388</ele>
        <time>2016-08-24T14:51:05.000Z</time>
      </trkpt>
      <trkpt lat="47.51784" lon="6.77474">
        <ele>388</ele>
        <time>2016-08-24T14:51:06.000Z</time>
      </trkpt>
      <trkpt lat="47.51787" lon="6.77477">
        <ele>388</ele>
        <time>2016-08-24T14:51:07.000Z</time>
      </trkpt>
      <trkpt lat="47.51789" lon="6.77478">
        <ele>388</ele>
        <time>2016-08-24T14:51:08.000Z</time>
      </trkpt>
      <trkpt lat="47.51793" lon="6.7748">
        <ele>388</ele>
        <time>2016-08-24T14:51:11.000Z</time>
      </trkpt>
      <trkpt lat="47.51793" lon="6.77481">
        <ele>388</ele>
        <time>2016-08-24T14:51:12.000Z</time>
      </trkpt>
      <trkpt lat="47.51797" lon="6.7748">
        <ele>388</ele>
        <time>2016-08-24T14:51:27.000Z</time>
      </trkpt>
      <trkpt lat="47.51798" lon="6.77479">
        <ele>388</ele>
        <time>2016-08-24T14:51:28.000Z</time>
      </trkpt>
      <trkpt lat="47.51801" lon="6.77477">
        <ele>388</ele>
        <time>2016-08-24T14:51:31.000Z</time>
      </trkpt>
      <trkpt lat="47.51802" lon="6.77477">
        <ele>388</ele>
        <time>2016-08-24T14:51:32.000Z</time>
      </trkpt>
      <trkpt lat="47.51804" lon="6.77481">
        <ele>388</ele>
        <time>2016-08-24T14:52:52.000Z</time>
      </trkpt>
      <trkpt lat="47.51805" lon="6.77483">
        <ele>388</ele>
        <time>2016-08-24T14:52:53.000Z</time>
      </trkpt>
      <trkpt lat="47.51807" lon="6.77487">
        <ele>388</ele>
        <time>2016-08-24T14:52:55.000Z</time>
      </trkpt>
      <trkpt lat="47.51807" lon="6.77489">
        <ele>388</ele>
        <time>2016-08-24T14:52:56.000Z</time>
      </trkpt>
      <trkpt lat="47.51804" lon="6.77486">
        <ele>388</ele>
        <time>2016-08-24T14:53:21.000Z</time>
      </trkpt>
      <trkpt lat="47.51804" lon="6.77484">
        <ele>388</ele>
        <time>2016-08-24T14:53:22.000Z</time>
      </trkpt>
      <trkpt lat="47.51802" lon="6.77478">
        <ele>388</ele>
        <time>2016-08-24T14:53:25.000Z</time>
      </trkpt>
      <trkpt lat="47.51802" lon="6.77476">
        <ele>388</ele>
        <time>2016-08-24T14:53:26.000Z</time>
      </trkpt>
      <trkpt lat="47.518" lon="6.77471">
        <ele>388</ele>
        <time>2016-08-24T14:53:32.000Z</time>
      </trkpt>
      <trkpt lat="47.518" lon="6.7747">
        <ele>388</ele>
        <time>2016-08-24T14:53:33.000Z</time>
      </trkpt>
      <trkpt lat="47.51797" lon="6.77468">
        <ele>388</ele>
        <time>2016-08-24T14:53:55.000Z</time>
      </trkpt>
      <trkpt lat="47.51796" lon="6.77467">
        <ele>388</ele>
        <time>2016-08-24T14:53:56.000Z</time>
      </trkpt>
      <trkpt lat="47.51791" lon="6.77467">
        <ele>388</ele>
        <time>2016-08-24T14:54:32.000Z</time>
      </trkpt>
      <trkpt lat="47.51791" lon="6.77467">
        <ele>388</ele>
        <time>2016-08-24T14:54:33.000Z</time>
      </trkpt>
      <trkpt lat="47.51792" lon="6.77473">
        <ele>388</ele>
        <time>2016-08-24T14:54:57.000Z</time>
      </trkpt>
      <trkpt lat="47.51792" lon="6.77473">
        <ele>388</ele>
        <time>2016-08-24T14:54:58.000Z</time>
      </trkpt>
      <trkpt lat="47.51794" lon="6.77479">
        <ele>388</ele>
        <time>2016-08-24T14:55:37.000Z</time>
      </trkpt>
      <trkpt lat="47.51795" lon="6.77479">
        <ele>388</ele>
        <time>2016-08-24T14:55:38.000Z</time>
      </trkpt>
      <trkpt lat="47.51798" lon="6.7748">
        <ele>388</ele>
        <time>2016-08-24T14:56:18.000Z</time>
      </trkpt>
      <trkpt lat="47.51799" lon="6.77481">
        <ele>388</ele>
        <time>2016-08-24T14:56:19.000Z</time>
      </trkpt>
      <trkpt lat="47.51803" lon="6.77481">
        <ele>388</ele>
        <time>2016-08-24T14:56:32.000Z</time>
      </trkpt>
      <trkpt lat="47.51804" lon="6.77481">
        <ele>388</ele>
        <time>2016-08-24T14:56:33.000Z</time>
      </trkpt>
      <trkpt lat="47.51799" lon="6.7748">
        <ele>388</ele>
        <time>2016-08-24T14:56:52.000Z</time>
      </trkpt>
      <trkpt lat="47.51799" lon="6.77479">
        <ele>388</ele>
        <time>2016-08-24T14:56:53.000Z</time>
      </trkpt>
      <trkpt lat="47.51801" lon="6.77485">
        <ele>388</ele>
        <time>2016-08-24T14:57:07.000Z</time>
      </trkpt>
      <trkpt lat="47.51801" lon="6.77486">
        <ele>388</ele>
        <time>2016-08-24T14:57:08.000Z</time>
      </trkpt>
      <trkpt lat="47.51804" lon="6.77488">
        <ele>388</ele>
        <time>2016-08-24T14:57:10.000Z</time>
      </trkpt>
      <trkpt lat="47.51805" lon="6.7749">
        <ele>388</ele>
        <time>2016-08-24T14:57:11.000Z</time>
      </trkpt>
      <trkpt lat="47.51805" lon="6.77495">
        <ele>388</ele>
        <time>2016-08-24T14:57:21.000Z</time>
      </trkpt>
      <trkpt lat="47.51806" lon="6.77497">
        <ele>388</ele>
        <time>2016-08-24T14:57:22.000Z</time>
      </trkpt>
      <trkpt lat="47.51808" lon="6.77498">
        <ele>388</ele>
        <time>2016-08-24T14:57:24.000Z</time>
      </trkpt>
      <trkpt lat="47.51811" lon="6.77498">
        <ele>388</ele>
        <time>2016-08-24T14:57:25.000Z</time>
      </trkpt>
      <trkpt lat="47.51814" lon="6.77497">
        <ele>388</ele>
        <time>2016-08-24T14:57:26.000Z</time>
      </trkpt>
      <trkpt lat="47.51817" lon="6.77497">
        <ele>387</ele>
        <time>2016-08-24T14:57:27.000Z</time>
      </trkpt>
      <trkpt lat="47.51821" lon="6.77498">
        <ele>387</ele>
        <time>2016-08-24T14:57:28.000Z</time>
      </trkpt>
      <trkpt lat="47.51825" lon="6.77499">
        <ele>387</ele>
        <time>2016-08-24T14:57:29.000Z</time>
      </trkpt>
      <trkpt lat="47.51829" lon="6.775">
        <ele>387</ele>
        <time>2016-08-24T14:57:30.000Z</time>
      </trkpt>
      <trkpt lat="47.51834" lon="6.775">
        <ele>387</ele>
        <time>2016-08-24T14:57:31.000Z</time>
      </trkpt>
      <trkpt lat="47.51838" lon="6.77501">
        <ele>387</ele>
        <time>2016-08-24T14:57:32.000Z</time>
      </trkpt>
      <trkpt lat="47.51842" lon="6.77501">
        <ele>387</ele>
        <time>2016-08-24T14:57:33.000Z</time>
      </trkpt>
      <trkpt lat="47.51846" lon="6.77501">
        <ele>388</ele>
        <time>2016-08-24T14:57:34.000Z</time>
      </trkpt>
      <trkpt lat="47.51851" lon="6.77501">
        <ele>388</ele>
        <time>2016-08-24T14:57:35.000Z</time>
      </trkpt>
      <trkpt lat="47.51855" lon="6.77501">
        <ele>388</ele>
        <time>2016-08-24T14:57:36.000Z</time>
      </trkpt>
      <trkpt lat="47.51861" lon="6.77501">
        <ele>388</ele>
        <time>2016-08-24T14:57:37.000Z</time>
      </trkpt>
      <trkpt lat="47.51866" lon="6.77502">
        <ele>388</ele>
        <time>2016-08-24T14:57:38.000Z</time>
      </trkpt>
      <trkpt lat="47.5187" lon="6.77503">
        <ele>388</ele>
        <time>2016-08-24T14:57:39.000Z</time>
      </trkpt>
      <trkpt lat="47.51875" lon="6.77505">
        <ele>388</ele>
        <time>2016-08-24T14:57:40.000Z</time>
      </trkpt>
      <trkpt lat="47.51879" lon="6.77506">
        <ele>388</ele>
        <time>2016-08-24T14:57:41.000Z</time>
      </trkpt>
      <trkpt lat="47.51883" lon="6.77508">
        <ele>388</ele>
        <time>2016-08-24T14:57:42.000Z</time>
      </trkpt>
      <trkpt lat="47.51887" lon="6.77509">
        <ele>388</ele>
        <time>2016-08-24T14:57:43.000Z</time>
      </trkpt>
      <trkpt lat="47.51892" lon="6.77509">
        <ele>388</ele>
        <time>2016-08-24T14:57:44.000Z</time>
      </trkpt>
      <trkpt lat="47.51896" lon="6.7751">
        <ele>388</ele>
        <time>2016-08-24T14:57:45.000Z</time>
      </trkpt>
      <trkpt lat="47.519" lon="6.77512">
        <ele>388</ele>
        <time>2016-08-24T14:57:46.000Z</time>
      </trkpt>
      <trkpt lat="47.51904" lon="6.77514">
        <ele>388</ele>
        <time>2016-08-24T14:57:47.000Z</time>
      </trkpt>
      <trkpt lat="47.51908" lon="6.77516">
        <ele>388</ele>
        <time>2016-08-24T14:57:48.000Z</time>
      </trkpt>
      <trkpt lat="47.51912" lon="6.77516">
        <ele>388</ele>
        <time>2016-08-24T14:57:49.000Z</time>
      </trkpt>
      <trkpt lat="47.51915" lon="6.77518">
        <ele>388</ele>
        <time>2016-08-24T14:57:50.000Z</time>
      </trkpt>
      <trkpt lat="47.51919" lon="6.77519">
        <ele>389</ele>
        <time>2016-08-24T14:57:51.000Z</time>
      </trkpt>
      <trkpt lat="47.51923" lon="6.7752">
        <ele>389</ele>
        <time>2016-08-24T14:57:52.000Z</time>
      </trkpt>
      <trkpt lat="47.51927" lon="6.7752">
        <ele>389</ele>
        <time>2016-08-24T14:57:53.000Z</time>
      </trkpt>
      <trkpt lat="47.51932" lon="6.7752">
        <ele>389</ele>
        <time>2016-08-24T14:57:54.000Z</time>
      </trkpt>
      <trkpt lat="47.51936" lon="6.7752">
        <ele>389</ele>
        <time>2016-08-24T14:57:55.000Z</time>
      </trkpt>
      <trkpt lat="47.51941" lon="6.77521">
        <ele>389</ele>
        <time>2016-08-24T14:57:56.000Z</time>
      </trkpt>
      <trkpt lat="47.51945" lon="6.77522">
        <ele>390</ele>
        <time>2016-08-24T14:57:57.000Z</time>
      </trkpt>
      <trkpt lat="47.5195" lon="6.77524">
        <ele>390</ele>
        <time>2016-08-24T14:57:58.000Z</time>
      </trkpt>
      <trkpt lat="47.51955" lon="6.77524">
        <ele>390</ele>
        <time>2016-08-24T14:57:59.000Z</time>
      </trkpt>
      <trkpt lat="47.51959" lon="6.77526">
        <ele>390</ele>
        <time>2016-08-24T14:58:00.000Z</time>
      </trkpt>
      <trkpt lat="47.51964" lon="6.77527">
        <ele>390</ele>
        <time>2016-08-24T14:58:01.000Z</time>
      </trkpt>
      <trkpt lat="47.51968" lon="6.77529">
        <ele>390</ele>
        <time>2016-08-24T14:58:02.000Z</time>
      </trkpt>
      <trkpt lat="47.51972" lon="6.77529">
        <ele>390</ele>
        <time>2016-08-24T14:58:03.000Z</time>
      </trkpt>
      <trkpt lat="47.51976" lon="6.7753">
        <ele>390</ele>
        <time>2016-08-24T14:58:04.000Z</time>
      </trkpt>
      <trkpt lat="47.5198" lon="6.77531">
        <ele>390</ele>
        <time>2016-08-24T14:58:05.000Z</time>
      </trkpt>
      <trkpt lat="47.51984" lon="6.7753">
        <ele>390</ele>
        <time>2016-08-24T14:58:06.000Z</time>
      </trkpt>
      <trkpt lat="47.51988" lon="6.77532">
        <ele>390</ele>
        <time>2016-08-24T14:58:07.000Z</time>
      </trkpt>
      <trkpt lat="47.51992" lon="6.77532">
        <ele>390</ele>
        <time>2016-08-24T14:58:08.000Z</time>
      </trkpt>
      <trkpt lat="47.51996" lon="6.77533">
        <ele>390</ele>
        <time>2016-08-24T14:58:09.000Z</time>
      </trkpt>
      <trkpt lat="47.51999" lon="6.77534">
        <ele>390</ele>
        <time>2016-08-24T14:58:10.000Z</time>
      </trkpt>
      <trkpt lat="47.52003" lon="6.77535">
        <ele>390</ele>
        <time>2016-08-24T14:58:11.000Z</time>
      </trkpt>
      <trkpt lat="47.52007" lon="6.77535">
        <ele>390</ele>
        <time>2016-08-24T14:58:12.000Z</time>
      </trkpt>
      <trkpt lat="47.52011" lon="6.77536">
        <ele>390</ele>
        <time>2016-08-24T14:58:13.000Z</time>
      </trkpt>
      <trkpt lat="47.52014" lon="6.77536">
        <ele>390</ele>
        <time>2016-08-24T14:58:14.000Z</time>
      </trkpt>
      <trkpt lat="47.52018" lon="6.77537">
        <ele>390</ele>
        <time>2016-08-24T14:58:15.000Z</time>
      </trkpt>
      <trkpt lat="47.52022" lon="6.77538">
        <ele>390</ele>
        <time>2016-08-24T14:58:16.000Z</time>
      </trkpt>
      <trkpt lat="47.52025" lon="6.77539">
        <ele>390</ele>
        <time>2016-08-24T14:58:17.000Z</time>
      </trkpt>
      <trkpt lat="47.52028" lon="6.7754">
        <ele>390</ele>
        <time>2016-08-24T14:58:18.000Z</time>
      </trkpt>
      <trkpt lat="47.52032" lon="6.77541">
        <ele>390</ele>
        <time>2016-08-24T14:58:19.000Z</time>
      </trkpt>
      <trkpt lat="47.52035" lon="6.77542">
        <ele>391</ele>
        <time>2016-08-24T14:58:20.000Z</time>
      </trkpt>
      <trkpt lat="47.52038" lon="6.77544">
        <ele>391</ele>
        <time>2016-08-24T14:58:21.000Z</time>
      </trkpt>
      <trkpt lat="47.52042" lon="6.77546">
        <ele>391</ele>
        <time>2016-08-24T14:58:22.000Z</time>
      </trkpt>
      <trkpt lat="47.52046" lon="6.77546">
        <ele>391</ele>
        <time>2016-08-24T14:58:23.000Z</time>
      </trkpt>
      <trkpt lat="47.5205" lon="6.77547">
        <ele>391</ele>
        <time>2016-08-24T14:58:24.000Z</time>
      </trkpt>
      <trkpt lat="47.52054" lon="6.77547">
        <ele>391</ele>
        <time>2016-08-24T14:58:25.000Z</time>
      </trkpt>
      <trkpt lat="47.52058" lon="6.77548">
        <ele>391</ele>
        <time>2016-08-24T14:58:26.000Z</time>
      </trkpt>
      <trkpt lat="47.52062" lon="6.7755">
        <ele>391</ele>
        <time>2016-08-24T14:58:27.000Z</time>
      </trkpt>
      <trkpt lat="47.52068" lon="6.77552">
        <ele>391</ele>
        <time>2016-08-24T14:58:28.000Z</time>
      </trkpt>
      <trkpt lat="47.52072" lon="6.77554">
        <ele>391</ele>
        <time>2016-08-24T14:58:29.000Z</time>
      </trkpt>
      <trkpt lat="47.52076" lon="6.77555">
        <ele>391</ele>
        <time>2016-08-24T14:58:30.000Z</time>
      </trkpt>
      <trkpt lat="47.52081" lon="6.77556">
        <ele>391</ele>
        <time>2016-08-24T14:58:31.000Z</time>
      </trkpt>
      <trkpt lat="47.52085" lon="6.77557">
        <ele>390</ele>
        <time>2016-08-24T14:58:32.000Z</time>
      </trkpt>
      <trkpt lat="47.52089" lon="6.77562">
        <ele>390</ele>
        <time>2016-08-24T14:58:33.000Z</time>
      </trkpt>
      <trkpt lat="47.52093" lon="6.77566">
        <ele>390</ele>
        <time>2016-08-24T14:58:34.000Z</time>
      </trkpt>
      <trkpt lat="47.52095" lon="6.77574">
        <ele>391</ele>
        <time>2016-08-24T14:58:35.000Z</time>
      </trkpt>
      <trkpt lat="47.52095" lon="6.77582">
        <ele>391</ele>
        <time>2016-08-24T14:58:36.000Z</time>
      </trkpt>
      <trkpt lat="47.52096" lon="6.7759">
        <ele>391</ele>
        <time>2016-08-24T14:58:37.000Z</time>
      </trkpt>
      <trkpt lat="47.52095" lon="6.77597">
        <ele>391</ele>
        <time>2016-08-24T14:58:38.000Z</time>
      </trkpt>
      <trkpt lat="47.52094" lon="6.77605">
        <ele>391</ele>
        <time>2016-08-24T14:58:39.000Z</time>
      </trkpt>
      <trkpt lat="47.52094" lon="6.77612">
        <ele>391</ele>
        <time>2016-08-24T14:58:40.000Z</time>
      </trkpt>
      <trkpt lat="47.52094" lon="6.77619">
        <ele>391</ele>
        <time>2016-08-24T14:58:41.000Z</time>
      </trkpt>
      <trkpt lat="47.52094" lon="6.77626">
        <ele>391</ele>
        <time>2016-08-24T14:58:42.000Z</time>
      </trkpt>
      <trkpt lat="47.52095" lon="6.77634">
        <ele>391</ele>
        <time>2016-08-24T14:58:43.000Z</time>
      </trkpt>
      <trkpt lat="47.52095" lon="6.77641">
        <ele>391</ele>
        <time>2016-08-24T14:58:44.000Z</time>
      </trkpt>
      <trkpt lat="47.52095" lon="6.77648">
        <ele>392</ele>
        <time>2016-08-24T14:58:45.000Z</time>
      </trkpt>
      <trkpt lat="47.52095" lon="6.77653">
        <ele>392</ele>
        <time>2016-08-24T14:58:46.000Z</time>
      </trkpt>
      <trkpt lat="47.52095" lon="6.77659">
        <ele>392</ele>
        <time>2016-08-24T14:58:47.000Z</time>
      </trkpt>
      <trkpt lat="47.52095" lon="6.77665">
        <ele>392</ele>
        <time>2016-08-24T14:58:48.000Z</time>
      </trkpt>
      <trkpt lat="47.52095" lon="6.77671">
        <ele>392</ele>
        <time>2016-08-24T14:58:49.000Z</time>
      </trkpt>
      <trkpt lat="47.52096" lon="6.77675">
        <ele>392</ele>
        <time>2016-08-24T14:58:50.000Z</time>
      </trkpt>
      <trkpt lat="47.52098" lon="6.77679">
        <ele>392</ele>
        <time>2016-08-24T14:58:51.000Z</time>
      </trkpt>
      <trkpt lat="47.52103" lon="6.77677">
        <ele>391</ele>
        <time>2016-08-24T14:58:52.000Z</time>
      </trkpt>
      <trkpt lat="47.52108" lon="6.77673">
        <ele>391</ele>
        <time>2016-08-24T14:58:53.000Z</time>
      </trkpt>
      <trkpt lat="47.52113" lon="6.77669">
        <ele>391</ele>
        <time>2016-08-24T14:58:54.000Z</time>
      </trkpt>
      <trkpt lat="47.52119" lon="6.77667">
        <ele>391</ele>
        <time>2016-08-24T14:58:55.000Z</time>
      </trkpt>
      <trkpt lat="47.52125" lon="6.77663">
        <ele>391</ele>
        <time>2016-08-24T14:58:56.000Z</time>
      </trkpt>
      <trkpt lat="47.52131" lon="6.77659">
        <ele>390</ele>
        <time>2016-08-24T14:58:57.000Z</time>
      </trkpt>
      <trkpt lat="47.52137" lon="6.77656">
        <ele>390</ele>
        <time>2016-08-24T14:58:58.000Z</time>
      </trkpt>
      <trkpt lat="47.52144" lon="6.77651">
        <ele>390</ele>
        <time>2016-08-24T14:58:59.000Z</time>
      </trkpt>
      <trkpt lat="47.52151" lon="6.77647">
        <ele>390</ele>
        <time>2016-08-24T14:59:00.000Z</time>
      </trkpt>
      <trkpt lat="47.52158" lon="6.77643">
        <ele>390</ele>
        <time>2016-08-24T14:59:01.000Z</time>
      </trkpt>
      <trkpt lat="47.52165" lon="6.77639">
        <ele>390</ele>
        <time>2016-08-24T14:59:02.000Z</time>
      </trkpt>
      <trkpt lat="47.52172" lon="6.77634">
        <ele>387</ele>
        <time>2016-08-24T14:59:03.000Z</time>
      </trkpt>
      <trkpt lat="47.52178" lon="6.7763">
        <ele>387</ele>
        <time>2016-08-24T14:59:04.000Z</time>
      </trkpt>
      <trkpt lat="47.52185" lon="6.77626">
        <ele>387</ele>
        <time>2016-08-24T14:59:05.000Z</time>
      </trkpt>
      <trkpt lat="47.52191" lon="6.77621">
        <ele>387</ele>
        <time>2016-08-24T14:59:06.000Z</time>
      </trkpt>
      <trkpt lat="47.52197" lon="6.77618">
        <ele>387</ele>
        <time>2016-08-24T14:59:07.000Z</time>
      </trkpt>
      <trkpt lat="47.52203" lon="6.77611">
        <ele>387</ele>
        <time>2016-08-24T14:59:08.000Z</time>
      </trkpt>
      <trkpt lat="47.52209" lon="6.77607">
        <ele>387</ele>
        <time>2016-08-24T14:59:09.000Z</time>
      </trkpt>
      <trkpt lat="47.52215" lon="6.77604">
        <ele>386</ele>
        <time>2016-08-24T14:59:10.000Z</time>
      </trkpt>
      <trkpt lat="47.52221" lon="6.77599">
        <ele>386</ele>
        <time>2016-08-24T14:59:11.000Z</time>
      </trkpt>
      <trkpt lat="47.52227" lon="6.77595">
        <ele>386</ele>
        <time>2016-08-24T14:59:12.000Z</time>
      </trkpt>
      <trkpt lat="47.52231" lon="6.77591">
        <ele>386</ele>
        <time>2016-08-24T14:59:13.000Z</time>
      </trkpt>
      <trkpt lat="47.52237" lon="6.77589">
        <ele>386</ele>
        <time>2016-08-24T14:59:14.000Z</time>
      </trkpt>
      <trkpt lat="47.52243" lon="6.77585">
        <ele>386</ele>
        <time>2016-08-24T14:59:15.000Z</time>
      </trkpt>
      <trkpt lat="47.5225" lon="6.77581">
        <ele>386</ele>
        <time>2016-08-24T14:59:16.000Z</time>
      </trkpt>
      <trkpt lat="47.52256" lon="6.77579">
        <ele>386</ele>
        <time>2016-08-24T14:59:17.000Z</time>
      </trkpt>
      <trkpt lat="47.52261" lon="6.77576">
        <ele>386</ele>
        <time>2016-08-24T14:59:18.000Z</time>
      </trkpt>
      <trkpt lat="47.52265" lon="6.77572">
        <ele>387</ele>
        <time>2016-08-24T14:59:19.000Z</time>
      </trkpt>
      <trkpt lat="47.5227" lon="6.77569">
        <ele>387</ele>
        <time>2016-08-24T14:59:20.000Z</time>
      </trkpt>
      <trkpt lat="47.52275" lon="6.77565">
        <ele>387</ele>
        <time>2016-08-24T14:59:21.000Z</time>
      </trkpt>
      <trkpt lat="47.52281" lon="6.77562">
        <ele>387</ele>
        <time>2016-08-24T14:59:22.000Z</time>
      </trkpt>
      <trkpt lat="47.52286" lon="6.77558">
        <ele>387</ele>
        <time>2016-08-24T14:59:23.000Z</time>
      </trkpt>
      <trkpt lat="47.52292" lon="6.77554">
        <ele>387</ele>
        <time>2016-08-24T14:59:24.000Z</time>
      </trkpt>
      <trkpt lat="47.52297" lon="6.7755">
        <ele>387</ele>
        <time>2016-08-24T14:59:25.000Z</time>
      </trkpt>
      <trkpt lat="47.52302" lon="6.77546">
        <ele>387</ele>
        <time>2016-08-24T14:59:26.000Z</time>
      </trkpt>
      <trkpt lat="47.52307" lon="6.77544">
        <ele>387</ele>
        <time>2016-08-24T14:59:27.000Z</time>
      </trkpt>
      <trkpt lat="47.52312" lon="6.77541">
        <ele>387</ele>
        <time>2016-08-24T14:59:28.000Z</time>
      </trkpt>
      <trkpt lat="47.52316" lon="6.77538">
        <ele>387</ele>
        <time>2016-08-24T14:59:29.000Z</time>
      </trkpt>
      <trkpt lat="47.5232" lon="6.77534">
        <ele>388</ele>
        <time>2016-08-24T14:59:30.000Z</time>
      </trkpt>
      <trkpt lat="47.52324" lon="6.77531">
        <ele>388</ele>
        <time>2016-08-24T14:59:31.000Z</time>
      </trkpt>
      <trkpt lat="47.52327" lon="6.7753">
        <ele>388</ele>
        <time>2016-08-24T14:59:32.000Z</time>
      </trkpt>
      <trkpt lat="47.52331" lon="6.77526">
        <ele>388</ele>
        <time>2016-08-24T14:59:33.000Z</time>
      </trkpt>
      <trkpt lat="47.52334" lon="6.77525">
        <ele>389</ele>
        <time>2016-08-24T14:59:34.000Z</time>
      </trkpt>
      <trkpt lat="47.52337" lon="6.77524">
        <ele>389</ele>
        <time>2016-08-24T14:59:35.000Z</time>
      </trkpt>
      <trkpt lat="47.52342" lon="6.7752">
        <ele>389</ele>
        <time>2016-08-24T14:59:36.000Z</time>
      </trkpt>
      <trkpt lat="47.52346" lon="6.77517">
        <ele>389</ele>
        <time>2016-08-24T14:59:37.000Z</time>
      </trkpt>
      <trkpt lat="47.5235" lon="6.77515">
        <ele>389</ele>
        <time>2016-08-24T14:59:38.000Z</time>
      </trkpt>
      <trkpt lat="47.52354" lon="6.77514">
        <ele>389</ele>
        <time>2016-08-24T14:59:39.000Z</time>
      </trkpt>
      <trkpt lat="47.52358" lon="6.77511">
        <ele>389</ele>
        <time>2016-08-24T14:59:40.000Z</time>
      </trkpt>
      <trkpt lat="47.52362" lon="6.77507">
        <ele>389</ele>
        <time>2016-08-24T14:59:41.000Z</time>
      </trkpt>
      <trkpt lat="47.52366" lon="6.77504">
        <ele>389</ele>
        <time>2016-08-24T14:59:42.000Z</time>
      </trkpt>
      <trkpt lat="47.5237" lon="6.775">
        <ele>389</ele>
        <time>2016-08-24T14:59:43.000Z</time>
      </trkpt>
      <trkpt lat="47.52375" lon="6.77498">
        <ele>391</ele>
        <time>2016-08-24T14:59:44.000Z</time>
      </trkpt>
      <trkpt lat="47.5238" lon="6.77495">
        <ele>391</ele>
        <time>2016-08-24T14:59:45.000Z</time>
      </trkpt>
      <trkpt lat="47.52384" lon="6.77493">
        <ele>391</ele>
        <time>2016-08-24T14:59:46.000Z</time>
      </trkpt>
      <trkpt lat="47.52391" lon="6.77489">
        <ele>391</ele>
        <time>2016-08-24T14:59:47.000Z</time>
      </trkpt>
      <trkpt lat="47.52395" lon="6.77485">
        <ele>391</ele>
        <time>2016-08-24T14:59:48.000Z</time>
      </trkpt>
      <trkpt lat="47.52399" lon="6.77483">
        <ele>391</ele>
        <time>2016-08-24T14:59:49.000Z</time>
      </trkpt>
      <trkpt lat="47.52404" lon="6.77478">
        <ele>391</ele>
        <time>2016-08-24T14:59:50.000Z</time>
      </trkpt>
      <trkpt lat="47.5241" lon="6.7747">
        <ele>391</ele>
        <time>2016-08-24T14:59:51.000Z</time>
      </trkpt>
      <trkpt lat="47.52415" lon="6.77466">
        <ele>391</ele>
        <time>2016-08-24T14:59:52.000Z</time>
      </trkpt>
      <trkpt lat="47.52421" lon="6.77466">
        <ele>392</ele>
        <time>2016-08-24T14:59:53.000Z</time>
      </trkpt>
      <trkpt lat="47.52426" lon="6.77468">
        <ele>392</ele>
        <time>2016-08-24T14:59:54.000Z</time>
      </trkpt>
      <trkpt lat="47.5243" lon="6.77471">
        <ele>392</ele>
        <time>2016-08-24T14:59:55.000Z</time>
      </trkpt>
      <trkpt lat="47.52436" lon="6.77476">
        <ele>392</ele>
        <time>2016-08-24T14:59:56.000Z</time>
      </trkpt>
      <trkpt lat="47.52441" lon="6.7748">
        <ele>392</ele>
        <time>2016-08-24T14:59:57.000Z</time>
      </trkpt>
      <trkpt lat="47.52445" lon="6.77482">
        <ele>393</ele>
        <time>2016-08-24T14:59:58.000Z</time>
      </trkpt>
      <trkpt lat="47.52449" lon="6.77485">
        <ele>393</ele>
        <time>2016-08-24T14:59:59.000Z</time>
      </trkpt>
      <trkpt lat="47.52453" lon="6.77486">
        <ele>393</ele>
        <time>2016-08-24T15:00:00.000Z</time>
      </trkpt>
      <trkpt lat="47.52457" lon="6.77487">
        <ele>393</ele>
        <time>2016-08-24T15:00:01.000Z</time>
      </trkpt>
      <trkpt lat="47.52462" lon="6.77488">
        <ele>393</ele>
        <time>2016-08-24T15:00:02.000Z</time>
      </trkpt>
      <trkpt lat="47.52467" lon="6.77488">
        <ele>393</ele>
        <time>2016-08-24T15:00:03.000Z</time>
      </trkpt>
      <trkpt lat="47.52471" lon="6.77485">
        <ele>393</ele>
        <time>2016-08-24T15:00:04.000Z</time>
      </trkpt>
      <trkpt lat="47.52476" lon="6.77484">
        <ele>393</ele>
        <time>2016-08-24T15:00:05.000Z</time>
      </trkpt>
      <trkpt lat="47.52481" lon="6.77483">
        <ele>393</ele>
        <time>2016-08-24T15:00:06.000Z</time>
      </trkpt>
      <trkpt lat="47.52485" lon="6.77481">
        <ele>393</ele>
        <time>2016-08-24T15:00:07.000Z</time>
      </trkpt>
      <trkpt lat="47.5249" lon="6.77481">
        <ele>394</ele>
        <time>2016-08-24T15:00:08.000Z</time>
      </trkpt>
      <trkpt lat="47.52494" lon="6.77482">
        <ele>394</ele>
        <time>2016-08-24T15:00:09.000Z</time>
      </trkpt>
      <trkpt lat="47.52497" lon="6.77483">
        <ele>394</ele>
        <time>2016-08-24T15:00:10.000Z</time>
      </trkpt>
      <trkpt lat="47.52501" lon="6.77485">
        <ele>394</ele>
        <time>2016-08-24T15:00:11.000Z</time>
      </trkpt>
      <trkpt lat="47.52504" lon="6.77486">
        <ele>394</ele>
        <time>2016-08-24T15:00:12.000Z</time>
      </trkpt>
      <trkpt lat="47.52507" lon="6.77486">
        <ele>394</ele>
        <time>2016-08-24T15:00:13.000Z</time>
      </trkpt>
      <trkpt lat="47.5251" lon="6.77486">
        <ele>394</ele>
        <time>2016-08-24T15:00:14.000Z</time>
      </trkpt>
      <trkpt lat="47.52513" lon="6.77486">
        <ele>394</ele>
        <time>2016-08-24T15:00:15.000Z</time>
      </trkpt>
      <trkpt lat="47.52516" lon="6.77486">
        <ele>394</ele>
        <time>2016-08-24T15:00:16.000Z</time>
      </trkpt>
      <trkpt lat="47.52519" lon="6.77486">
        <ele>394</ele>
        <time>2016-08-24T15:00:17.000Z</time>
      </trkpt>
      <trkpt lat="47.52522" lon="6.77485">
        <ele>394</ele>
        <time>2016-08-24T15:00:18.000Z</time>
      </trkpt>
      <trkpt lat="47.52526" lon="6.77482">
        <ele>394</ele>
        <time>2016-08-24T15:00:19.000Z</time>
      </trkpt>
      <trkpt lat="47.5253" lon="6.7748">
        <ele>394</ele>
        <time>2016-08-24T15:00:20.000Z</time>
      </trkpt>
      <trkpt lat="47.52534" lon="6.77477">
        <ele>394</ele>
        <time>2016-08-24T15:00:21.000Z</time>
      </trkpt>
      <trkpt lat="47.52538" lon="6.77476">
        <ele>394</ele>
        <time>2016-08-24T15:00:22.000Z</time>
      </trkpt>
      <trkpt lat="47.52543" lon="6.77475">
        <ele>394</ele>
        <time>2016-08-24T15:00:23.000Z</time>
      </trkpt>
      <trkpt lat="47.52546" lon="6.77477">
        <ele>394</ele>
        <time>2016-08-24T15:00:24.000Z</time>
      </trkpt>
      <trkpt lat="47.52549" lon="6.7748">
        <ele>394</ele>
        <time>2016-08-24T15:00:25.000Z</time>
      </trkpt>
      <trkpt lat="47.52552" lon="6.77483">
        <ele>395</ele>
        <time>2016-08-24T15:00:26.000Z</time>
      </trkpt>
      <trkpt lat="47.52554" lon="6.77486">
        <ele>395</ele>
        <time>2016-08-24T15:00:27.000Z</time>
      </trkpt>
      <trkpt lat="47.52556" lon="6.77488">
        <ele>395</ele>
        <time>2016-08-24T15:00:28.000Z</time>
      </trkpt>
      <trkpt lat="47.52559" lon="6.77489">
        <ele>395</ele>
        <time>2016-08-24T15:00:29.000Z</time>
      </trkpt>
      <trkpt lat="47.52562" lon="6.77489">
        <ele>395</ele>
        <time>2016-08-24T15:00:30.000Z</time>
      </trkpt>
      <trkpt lat="47.52566" lon="6.7749">
        <ele>395</ele>
        <time>2016-08-24T15:00:31.000Z</time>
      </trkpt>
      <trkpt lat="47.52569" lon="6.77491">
        <ele>395</ele>
        <time>2016-08-24T15:00:32.000Z</time>
      </trkpt>
      <trkpt lat="47.52572" lon="6.77492">
        <ele>396</ele>
        <time>2016-08-24T15:00:33.000Z</time>
      </trkpt>
      <trkpt lat="47.52576" lon="6.77493">
        <ele>396</ele>
        <time>2016-08-24T15:00:34.000Z</time>
      </trkpt>
      <trkpt lat="47.5258" lon="6.77494">
        <ele>396</ele>
        <time>2016-08-24T15:00:35.000Z</time>
      </trkpt>
      <trkpt lat="47.52584" lon="6.77494">
        <ele>397</ele>
        <time>2016-08-24T15:00:36.000Z</time>
      </trkpt>
      <trkpt lat="47.52587" lon="6.77495">
        <ele>397</ele>
        <time>2016-08-24T15:00:37.000Z</time>
      </trkpt>
      <trkpt lat="47.5259" lon="6.77496">
        <ele>397</ele>
        <time>2016-08-24T15:00:38.000Z</time>
      </trkpt>
      <trkpt lat="47.52594" lon="6.77498">
        <ele>397</ele>
        <time>2016-08-24T15:00:39.000Z</time>
      </trkpt>
      <trkpt lat="47.52597" lon="6.775">
        <ele>397</ele>
        <time>2016-08-24T15:00:40.000Z</time>
      </trkpt>
      <trkpt lat="47.526" lon="6.77502">
        <ele>397</ele>
        <time>2016-08-24T15:00:41.000Z</time>
      </trkpt>
      <trkpt lat="47.52604" lon="6.77502">
        <ele>397</ele>
        <time>2016-08-24T15:00:42.000Z</time>
      </trkpt>
      <trkpt lat="47.52608" lon="6.775">
        <ele>397</ele>
        <time>2016-08-24T15:00:43.000Z</time>
      </trkpt>
      <trkpt lat="47.52611" lon="6.77497">
        <ele>397</ele>
        <time>2016-08-24T15:00:44.000Z</time>
      </trkpt>
      <trkpt lat="47.52614" lon="6.77494">
        <ele>397</ele>
        <time>2016-08-24T15:00:45.000Z</time>
      </trkpt>
      <trkpt lat="47.52617" lon="6.7749">
        <ele>397</ele>
        <time>2016-08-24T15:00:46.000Z</time>
      </trkpt>
      <trkpt lat="47.52619" lon="6.77487">
        <ele>397</ele>
        <time>2016-08-24T15:00:47.000Z</time>
      </trkpt>
      <trkpt lat="47.52621" lon="6.77483">
        <ele>397</ele>
        <time>2016-08-24T15:00:48.000Z</time>
      </trkpt>
      <trkpt lat="47.52623" lon="6.77479">
        <ele>397</ele>
        <time>2016-08-24T15:00:49.000Z</time>
      </trkpt>
      <trkpt lat="47.52625" lon="6.77475">
        <ele>397</ele>
        <time>2016-08-24T15:00:50.000Z</time>
      </trkpt>
      <trkpt lat="47.52627" lon="6.77471">
        <ele>397</ele>
        <time>2016-08-24T15:00:51.000Z</time>
      </trkpt>
      <trkpt lat="47.52629" lon="6.77466">
        <ele>397</ele>
        <time>2016-08-24T15:00:52.000Z</time>
      </trkpt>
      <trkpt lat="47.52631" lon="6.77462">
        <ele>397</ele>
        <time>2016-08-24T15:00:53.000Z</time>
      </trkpt>
      <trkpt lat="47.52633" lon="6.77459">
        <ele>397</ele>
        <time>2016-08-24T15:00:54.000Z</time>
      </trkpt>
      <trkpt lat="47.52637" lon="6.77457">
        <ele>397</ele>
        <time>2016-08-24T15:00:55.000Z</time>
      </trkpt>
      <trkpt lat="47.52641" lon="6.77455">
        <ele>397</ele>
        <time>2016-08-24T15:00:56.000Z</time>
      </trkpt>
      <trkpt lat="47.52645" lon="6.77454">
        <ele>398</ele>
        <time>2016-08-24T15:00:57.000Z</time>
      </trkpt>
      <trkpt lat="47.52649" lon="6.77452">
        <ele>398</ele>
        <time>2016-08-24T15:00:58.000Z</time>
      </trkpt>
      <trkpt lat="47.52652" lon="6.77452">
        <ele>398</ele>
        <time>2016-08-24T15:00:59.000Z</time>
      </trkpt>
      <trkpt lat="47.52655" lon="6.77452">
        <ele>398</ele>
        <time>2016-08-24T15:01:00.000Z</time>
      </trkpt>
      <trkpt lat="47.52657" lon="6.77452">
        <ele>398</ele>
        <time>2016-08-24T15:01:01.000Z</time>
      </trkpt>
      <trkpt lat="47.52661" lon="6.77453">
        <ele>398</ele>
        <time>2016-08-24T15:01:03.000Z</time>
      </trkpt>
      <trkpt lat="47.52663" lon="6.77453">
        <ele>398</ele>
        <time>2016-08-24T15:01:04.000Z</time>
      </trkpt>
      <trkpt lat="47.52667" lon="6.77456">
        <ele>400</ele>
        <time>2016-08-24T15:01:06.000Z</time>
      </trkpt>
      <trkpt lat="47.52669" lon="6.77459">
        <ele>400</ele>
        <time>2016-08-24T15:01:07.000Z</time>
      </trkpt>
      <trkpt lat="47.52672" lon="6.77462">
        <ele>400</ele>
        <time>2016-08-24T15:01:08.000Z</time>
      </trkpt>
      <trkpt lat="47.52674" lon="6.77465">
        <ele>400</ele>
        <time>2016-08-24T15:01:09.000Z</time>
      </trkpt>
      <trkpt lat="47.52676" lon="6.77467">
        <ele>400</ele>
        <time>2016-08-24T15:01:10.000Z</time>
      </trkpt>
      <trkpt lat="47.52678" lon="6.77468">
        <ele>400</ele>
        <time>2016-08-24T15:01:11.000Z</time>
      </trkpt>
      <trkpt lat="47.5268" lon="6.7747">
        <ele>400</ele>
        <time>2016-08-24T15:01:12.000Z</time>
      </trkpt>
      <trkpt lat="47.52682" lon="6.77471">
        <ele>400</ele>
        <time>2016-08-24T15:01:13.000Z</time>
      </trkpt>
      <trkpt lat="47.52684" lon="6.77472">
        <ele>400</ele>
        <time>2016-08-24T15:01:14.000Z</time>
      </trkpt>
      <trkpt lat="47.52687" lon="6.77474">
        <ele>400</ele>
        <time>2016-08-24T15:01:15.000Z</time>
      </trkpt>
      <trkpt lat="47.52689" lon="6.77477">
        <ele>400</ele>
        <time>2016-08-24T15:01:16.000Z</time>
      </trkpt>
      <trkpt lat="47.52692" lon="6.7748">
        <ele>400</ele>
        <time>2016-08-24T15:01:17.000Z</time>
      </trkpt>
      <trkpt lat="47.52695" lon="6.77484">
        <ele>400</ele>
        <time>2016-08-24T15:01:18.000Z</time>
      </trkpt>
      <trkpt lat="47.52698" lon="6.77487">
        <ele>400</ele>
        <time>2016-08-24T15:01:19.000Z</time>
      </trkpt>
      <trkpt lat="47.52702" lon="6.77489">
        <ele>400</ele>
        <time>2016-08-24T15:01:20.000Z</time>
      </trkpt>
      <trkpt lat="47.52705" lon="6.77491">
        <ele>400</ele>
        <time>2016-08-24T15:01:21.000Z</time>
      </trkpt>
      <trkpt lat="47.52709" lon="6.77492">
        <ele>400</ele>
        <time>2016-08-24T15:01:22.000Z</time>
      </trkpt>
      <trkpt lat="47.52713" lon="6.77494">
        <ele>400</ele>
        <time>2016-08-24T15:01:23.000Z</time>
      </trkpt>
      <trkpt lat="47.52716" lon="6.77497">
        <ele>400</ele>
        <time>2016-08-24T15:01:24.000Z</time>
      </trkpt>
      <trkpt lat="47.5272" lon="6.77499">
        <ele>400</ele>
        <time>2016-08-24T15:01:25.000Z</time>
      </trkpt>
      <trkpt lat="47.52722" lon="6.77501">
        <ele>399</ele>
        <time>2016-08-24T15:01:26.000Z</time>
      </trkpt>
      <trkpt lat="47.52725" lon="6.77503">
        <ele>399</ele>
        <time>2016-08-24T15:01:27.000Z</time>
      </trkpt>
      <trkpt lat="47.52728" lon="6.77505">
        <ele>399</ele>
        <time>2016-08-24T15:01:28.000Z</time>
      </trkpt>
      <trkpt lat="47.52731" lon="6.77507">
        <ele>399</ele>
        <time>2016-08-24T15:01:29.000Z</time>
      </trkpt>
      <trkpt lat="47.52734" lon="6.77507">
        <ele>399</ele>
        <time>2016-08-24T15:01:30.000Z</time>
      </trkpt>
      <trkpt lat="47.52737" lon="6.77508">
        <ele>399</ele>
        <time>2016-08-24T15:01:31.000Z</time>
      </trkpt>
      <trkpt lat="47.52741" lon="6.77509">
        <ele>399</ele>
        <time>2016-08-24T15:01:32.000Z</time>
      </trkpt>
      <trkpt lat="47.52744" lon="6.7751">
        <ele>399</ele>
        <time>2016-08-24T15:01:33.000Z</time>
      </trkpt>
      <trkpt lat="47.52746" lon="6.77511">
        <ele>399</ele>
        <time>2016-08-24T15:01:34.000Z</time>
      </trkpt>
      <trkpt lat="47.52749" lon="6.77514">
        <ele>399</ele>
        <time>2016-08-24T15:01:35.000Z</time>
      </trkpt>
      <trkpt lat="47.52752" lon="6.77517">
        <ele>400</ele>
        <time>2016-08-24T15:01:36.000Z</time>
      </trkpt>
      <trkpt lat="47.52755" lon="6.7752">
        <ele>400</ele>
        <time>2016-08-24T15:01:37.000Z</time>
      </trkpt>
      <trkpt lat="47.52757" lon="6.77524">
        <ele>400</ele>
        <time>2016-08-24T15:01:38.000Z</time>
      </trkpt>
      <trkpt lat="47.5276" lon="6.77527">
        <ele>400</ele>
        <time>2016-08-24T15:01:39.000Z</time>
      </trkpt>
      <trkpt lat="47.52762" lon="6.77529">
        <ele>400</ele>
        <time>2016-08-24T15:01:40.000Z</time>
      </trkpt>
      <trkpt lat="47.52766" lon="6.7753">
        <ele>400</ele>
        <time>2016-08-24T15:01:41.000Z</time>
      </trkpt>
      <trkpt lat="47.52769" lon="6.7753">
        <ele>400</ele>
        <time>2016-08-24T15:01:42.000Z</time>
      </trkpt>
      <trkpt lat="47.52773" lon="6.77531">
        <ele>400</ele>
        <time>2016-08-24T15:01:43.000Z</time>
      </trkpt>
      <trkpt lat="47.52778" lon="6.77531">
        <ele>400</ele>
        <time>2016-08-24T15:01:44.000Z</time>
      </trkpt>
      <trkpt lat="47.52782" lon="6.77532">
        <ele>400</ele>
        <time>2016-08-24T15:01:45.000Z</time>
      </trkpt>
      <trkpt lat="47.52786" lon="6.77533">
        <ele>400</ele>
        <time>2016-08-24T15:01:46.000Z</time>
      </trkpt>
      <trkpt lat="47.5279" lon="6.77535">
        <ele>400</ele>
        <time>2016-08-24T15:01:47.000Z</time>
      </trkpt>
      <trkpt lat="47.52793" lon="6.77537">
        <ele>400</ele>
        <time>2016-08-24T15:01:48.000Z</time>
      </trkpt>
      <trkpt lat="47.52796" lon="6.7754">
        <ele>400</ele>
        <time>2016-08-24T15:01:49.000Z</time>
      </trkpt>
      <trkpt lat="47.528" lon="6.77543">
        <ele>400</ele>
        <time>2016-08-24T15:01:50.000Z</time>
      </trkpt>
      <trkpt lat="47.52803" lon="6.77547">
        <ele>400</ele>
        <time>2016-08-24T15:01:51.000Z</time>
      </trkpt>
      <trkpt lat="47.52807" lon="6.77552">
        <ele>400</ele>
        <time>2016-08-24T15:01:52.000Z</time>
      </trkpt>
      <trkpt lat="47.52811" lon="6.77556">
        <ele>400</ele>
        <time>2016-08-24T15:01:53.000Z</time>
      </trkpt>
      <trkpt lat="47.52815" lon="6.77559">
        <ele>400</ele>
        <time>2016-08-24T15:01:54.000Z</time>
      </trkpt>
      <trkpt lat="47.52819" lon="6.77562">
        <ele>400</ele>
        <time>2016-08-24T15:01:55.000Z</time>
      </trkpt>
      <trkpt lat="47.52823" lon="6.77563">
        <ele>400</ele>
        <time>2016-08-24T15:01:56.000Z</time>
      </trkpt>
      <trkpt lat="47.52826" lon="6.77564">
        <ele>400</ele>
        <time>2016-08-24T15:01:57.000Z</time>
      </trkpt>
      <trkpt lat="47.5283" lon="6.77566">
        <ele>400</ele>
        <time>2016-08-24T15:01:58.000Z</time>
      </trkpt>
      <trkpt lat="47.52833" lon="6.77567">
        <ele>401</ele>
        <time>2016-08-24T15:01:59.000Z</time>
      </trkpt>
      <trkpt lat="47.52836" lon="6.77569">
        <ele>401</ele>
        <time>2016-08-24T15:02:00.000Z</time>
      </trkpt>
      <trkpt lat="47.5284" lon="6.7757">
        <ele>401</ele>
        <time>2016-08-24T15:02:01.000Z</time>
      </trkpt>
      <trkpt lat="47.52843" lon="6.7757">
        <ele>401</ele>
        <time>2016-08-24T15:02:02.000Z</time>
      </trkpt>
      <trkpt lat="47.52847" lon="6.77571">
        <ele>401</ele>
        <time>2016-08-24T15:02:03.000Z</time>
      </trkpt>
      <trkpt lat="47.52852" lon="6.77571">
        <ele>401</ele>
        <time>2016-08-24T15:02:04.000Z</time>
      </trkpt>
      <trkpt lat="47.52856" lon="6.77571">
        <ele>401</ele>
        <time>2016-08-24T15:02:05.000Z</time>
      </trkpt>
      <trkpt lat="47.5286" lon="6.77572">
        <ele>401</ele>
        <time>2016-08-24T15:02:06.000Z</time>
      </trkpt>
      <trkpt lat="47.52864" lon="6.77573">
        <ele>401</ele>
        <time>2016-08-24T15:02:07.000Z</time>
      </trkpt>
      <trkpt lat="47.52868" lon="6.77574">
        <ele>401</ele>
        <time>2016-08-24T15:02:08.000Z</time>
      </trkpt>
      <trkpt lat="47.52872" lon="6.77576">
        <ele>401</ele>
        <time>2016-08-24T15:02:09.000Z</time>
      </trkpt>
      <trkpt lat="47.52875" lon="6.77577">
        <ele>402</ele>
        <time>2016-08-24T15:02:10.000Z</time>
      </trkpt>
      <trkpt lat="47.52879" lon="6.77577">
        <ele>402</ele>
        <time>2016-08-24T15:02:11.000Z</time>
      </trkpt>
      <trkpt lat="47.52882" lon="6.77576">
        <ele>402</ele>
        <time>2016-08-24T15:02:12.000Z</time>
      </trkpt>
      <trkpt lat="47.52886" lon="6.77575">
        <ele>402</ele>
        <time>2016-08-24T15:02:13.000Z</time>
      </trkpt>
      <trkpt lat="47.5289" lon="6.77575">
        <ele>402</ele>
        <time>2016-08-24T15:02:14.000Z</time>
      </trkpt>
      <trkpt lat="47.52894" lon="6.77574">
        <ele>402</ele>
        <time>2016-08-24T15:02:15.000Z</time>
      </trkpt>
      <trkpt lat="47.52898" lon="6.77574">
        <ele>402</ele>
        <time>2016-08-24T15:02:16.000Z</time>
      </trkpt>
      <trkpt lat="47.52902" lon="6.77574">
        <ele>402</ele>
        <time>2016-08-24T15:02:17.000Z</time>
      </trkpt>
      <trkpt lat="47.52906" lon="6.77574">
        <ele>402</ele>
        <time>2016-08-24T15:02:18.000Z</time>
      </trkpt>
      <trkpt lat="47.5291" lon="6.77573">
        <ele>402</ele>
        <time>2016-08-24T15:02:19.000Z</time>
      </trkpt>
      <trkpt lat="47.52914" lon="6.77571">
        <ele>402</ele>
        <time>2016-08-24T15:02:20.000Z</time>
      </trkpt>
      <trkpt lat="47.52918" lon="6.77571">
        <ele>402</ele>
        <time>2016-08-24T15:02:21.000Z</time>
      </trkpt>
      <trkpt lat="47.52922" lon="6.77571">
        <ele>403</ele>
        <time>2016-08-24T15:02:22.000Z</time>
      </trkpt>
      <trkpt lat="47.52927" lon="6.77572">
        <ele>403</ele>
        <time>2016-08-24T15:02:23.000Z</time>
      </trkpt>
      <trkpt lat="47.52931" lon="6.77574">
        <ele>403</ele>
        <time>2016-08-24T15:02:24.000Z</time>
      </trkpt>
      <trkpt lat="47.52936" lon="6.77575">
        <ele>403</ele>
        <time>2016-08-24T15:02:25.000Z</time>
      </trkpt>
      <trkpt lat="47.52945" lon="6.77579">
        <ele>403</ele>
        <time>2016-08-24T15:02:26.000Z</time>
      </trkpt>
      <trkpt lat="47.52948" lon="6.7758">
        <ele>403</ele>
        <time>2016-08-24T15:02:27.000Z</time>
      </trkpt>
      <trkpt lat="47.52951" lon="6.77581">
        <ele>403</ele>
        <time>2016-08-24T15:02:28.000Z</time>
      </trkpt>
      <trkpt lat="47.52953" lon="6.77582">
        <ele>403</ele>
        <time>2016-08-24T15:02:29.000Z</time>
      </trkpt>
      <trkpt lat="47.52956" lon="6.77585">
        <ele>402</ele>
        <time>2016-08-24T15:02:30.000Z</time>
      </trkpt>
      <trkpt lat="47.52959" lon="6.77588">
        <ele>402</ele>
        <time>2016-08-24T15:02:31.000Z</time>
      </trkpt>
      <trkpt lat="47.52962" lon="6.7759">
        <ele>402</ele>
        <time>2016-08-24T15:02:32.000Z</time>
      </trkpt>
      <trkpt lat="47.52965" lon="6.77592">
        <ele>402</ele>
        <time>2016-08-24T15:02:33.000Z</time>
      </trkpt>
      <trkpt lat="47.52969" lon="6.77591">
        <ele>402</ele>
        <time>2016-08-24T15:02:34.000Z</time>
      </trkpt>
      <trkpt lat="47.52973" lon="6.77592">
        <ele>403</ele>
        <time>2016-08-24T15:02:35.000Z</time>
      </trkpt>
      <trkpt lat="47.52975" lon="6.77593">
        <ele>403</ele>
        <time>2016-08-24T15:02:36.000Z</time>
      </trkpt>
      <trkpt lat="47.5298" lon="6.77594">
        <ele>403</ele>
        <time>2016-08-24T15:02:37.000Z</time>
      </trkpt>
      <trkpt lat="47.52984" lon="6.77595">
        <ele>403</ele>
        <time>2016-08-24T15:02:38.000Z</time>
      </trkpt>
      <trkpt lat="47.52989" lon="6.77596">
        <ele>403</ele>
        <time>2016-08-24T15:02:39.000Z</time>
      </trkpt>
      <trkpt lat="47.52994" lon="6.77597">
        <ele>403</ele>
        <time>2016-08-24T15:02:40.000Z</time>
      </trkpt>
      <trkpt lat="47.52997" lon="6.77598">
        <ele>403</ele>
        <time>2016-08-24T15:02:41.000Z</time>
      </trkpt>
      <trkpt lat="47.53" lon="6.77598">
        <ele>404</ele>
        <time>2016-08-24T15:02:42.000Z</time>
      </trkpt>
      <trkpt lat="47.53004" lon="6.77599">
        <ele>404</ele>
        <time>2016-08-24T15:02:43.000Z</time>
      </trkpt>
      <trkpt lat="47.53007" lon="6.77599">
        <ele>404</ele>
        <time>2016-08-24T15:02:44.000Z</time>
      </trkpt>
      <trkpt lat="47.53012" lon="6.77599">
        <ele>404</ele>
        <time>2016-08-24T15:02:45.000Z</time>
      </trkpt>
      <trkpt lat="47.53016" lon="6.77599">
        <ele>404</ele>
        <time>2016-08-24T15:02:46.000Z</time>
      </trkpt>
      <trkpt lat="47.53025" lon="6.77599">
        <ele>404</ele>
        <time>2016-08-24T15:02:47.000Z</time>
      </trkpt>
      <trkpt lat="47.5303" lon="6.77601">
        <ele>404</ele>
        <time>2016-08-24T15:02:48.000Z</time>
      </trkpt>
      <trkpt lat="47.53034" lon="6.77602">
        <ele>404</ele>
        <time>2016-08-24T15:02:49.000Z</time>
      </trkpt>
      <trkpt lat="47.5304" lon="6.77604">
        <ele>404</ele>
        <time>2016-08-24T15:02:50.000Z</time>
      </trkpt>
      <trkpt lat="47.53045" lon="6.77604">
        <ele>404</ele>
        <time>2016-08-24T15:02:51.000Z</time>
      </trkpt>
      <trkpt lat="47.5305" lon="6.77605">
        <ele>404</ele>
        <time>2016-08-24T15:02:52.000Z</time>
      </trkpt>
      <trkpt lat="47.53055" lon="6.77606">
        <ele>404</ele>
        <time>2016-08-24T15:02:53.000Z</time>
      </trkpt>
      <trkpt lat="47.53059" lon="6.77606">
        <ele>404</ele>
        <time>2016-08-24T15:02:54.000Z</time>
      </trkpt>
      <trkpt lat="47.53064" lon="6.77607">
        <ele>404</ele>
        <time>2016-08-24T15:02:55.000Z</time>
      </trkpt>
      <trkpt lat="47.5307" lon="6.7761">
        <ele>404</ele>
        <time>2016-08-24T15:02:56.000Z</time>
      </trkpt>
      <trkpt lat="47.53075" lon="6.7761">
        <ele>404</ele>
        <time>2016-08-24T15:02:57.000Z</time>
      </trkpt>
      <trkpt lat="47.53079" lon="6.77612">
        <ele>404</ele>
        <time>2016-08-24T15:02:58.000Z</time>
      </trkpt>
      <trkpt lat="47.53083" lon="6.77613">
        <ele>404</ele>
        <time>2016-08-24T15:02:59.000Z</time>
      </trkpt>
      <trkpt lat="47.53086" lon="6.77611">
        <ele>405</ele>
        <time>2016-08-24T15:03:02.000Z</time>
      </trkpt>
      <trkpt lat="47.53088" lon="6.77611">
        <ele>405</ele>
        <time>2016-08-24T15:03:03.000Z</time>
      </trkpt>
      <trkpt lat="47.5309" lon="6.77612">
        <ele>405</ele>
        <time>2016-08-24T15:03:04.000Z</time>
      </trkpt>
      <trkpt lat="47.53093" lon="6.77613">
        <ele>405</ele>
        <time>2016-08-24T15:03:05.000Z</time>
      </trkpt>
      <trkpt lat="47.53096" lon="6.77615">
        <ele>405</ele>
        <time>2016-08-24T15:03:07.000Z</time>
      </trkpt>
      <trkpt lat="47.53099" lon="6.77616">
        <ele>405</ele>
        <time>2016-08-24T15:03:08.000Z</time>
      </trkpt>
      <trkpt lat="47.53103" lon="6.77617">
        <ele>405</ele>
        <time>2016-08-24T15:03:09.000Z</time>
      </trkpt>
      <trkpt lat="47.53107" lon="6.77617">
        <ele>405</ele>
        <time>2016-08-24T15:03:10.000Z</time>
      </trkpt>
      <trkpt lat="47.53112" lon="6.77615">
        <ele>405</ele>
        <time>2016-08-24T15:03:11.000Z</time>
      </trkpt>
      <trkpt lat="47.53117" lon="6.77612">
        <ele>405</ele>
        <time>2016-08-24T15:03:12.000Z</time>
      </trkpt>
      <trkpt lat="47.53121" lon="6.7761">
        <ele>405</ele>
        <time>2016-08-24T15:03:13.000Z</time>
      </trkpt>
      <trkpt lat="47.53125" lon="6.77608">
        <ele>405</ele>
        <time>2016-08-24T15:03:14.000Z</time>
      </trkpt>
      <trkpt lat="47.53136" lon="6.77605">
        <ele>405</ele>
        <time>2016-08-24T15:03:15.000Z</time>
      </trkpt>
      <trkpt lat="47.53141" lon="6.77602">
        <ele>404</ele>
        <time>2016-08-24T15:03:16.000Z</time>
      </trkpt>
      <trkpt lat="47.53144" lon="6.77596">
        <ele>404</ele>
        <time>2016-08-24T15:03:17.000Z</time>
      </trkpt>
      <trkpt lat="47.53148" lon="6.77589">
        <ele>404</ele>
        <time>2016-08-24T15:03:18.000Z</time>
      </trkpt>
      <trkpt lat="47.53151" lon="6.77581">
        <ele>402</ele>
        <time>2016-08-24T15:03:19.000Z</time>
      </trkpt>
      <trkpt lat="47.53154" lon="6.77576">
        <ele>402</ele>
        <time>2016-08-24T15:03:20.000Z</time>
      </trkpt>
      <trkpt lat="47.53159" lon="6.77572">
        <ele>402</ele>
        <time>2016-08-24T15:03:21.000Z</time>
      </trkpt>
      <trkpt lat="47.53165" lon="6.77568">
        <ele>402</ele>
        <time>2016-08-24T15:03:22.000Z</time>
      </trkpt>
      <trkpt lat="47.53171" lon="6.77565">
        <ele>399</ele>
        <time>2016-08-24T15:03:23.000Z</time>
      </trkpt>
      <trkpt lat="47.53178" lon="6.77561">
        <ele>398</ele>
        <time>2016-08-24T15:03:24.000Z</time>
      </trkpt>
      <trkpt lat="47.53184" lon="6.77556">
        <ele>397</ele>
        <time>2016-08-24T15:03:25.000Z</time>
      </trkpt>
      <trkpt lat="47.5319" lon="6.77548">
        <ele>397</ele>
        <time>2016-08-24T15:03:26.000Z</time>
      </trkpt>
      <trkpt lat="47.53195" lon="6.7754">
        <ele>396</ele>
        <time>2016-08-24T15:03:27.000Z</time>
      </trkpt>
      <trkpt lat="47.53201" lon="6.77532">
        <ele>395</ele>
        <time>2016-08-24T15:03:28.000Z</time>
      </trkpt>
      <trkpt lat="47.53203" lon="6.77529">
        <ele>395</ele>
        <time>2016-08-24T15:03:29.000Z</time>
      </trkpt>
      <trkpt lat="47.53207" lon="6.77524">
        <ele>395</ele>
        <time>2016-08-24T15:03:30.000Z</time>
      </trkpt>
      <trkpt lat="47.53211" lon="6.77513">
        <ele>395</ele>
        <time>2016-08-24T15:03:31.000Z</time>
      </trkpt>
      <trkpt lat="47.53215" lon="6.775">
        <ele>394</ele>
        <time>2016-08-24T15:03:32.000Z</time>
      </trkpt>
      <trkpt lat="47.53219" lon="6.77489">
        <ele>390</ele>
        <time>2016-08-24T15:03:33.000Z</time>
      </trkpt>
      <trkpt lat="47.53225" lon="6.77477">
        <ele>389</ele>
        <time>2016-08-24T15:03:34.000Z</time>
      </trkpt>
      <trkpt lat="47.53231" lon="6.77463">
        <ele>389</ele>
        <time>2016-08-24T15:03:35.000Z</time>
      </trkpt>
      <trkpt lat="47.53237" lon="6.77452">
        <ele>389</ele>
        <time>2016-08-24T15:03:36.000Z</time>
      </trkpt>
      <trkpt lat="47.53243" lon="6.77443">
        <ele>388</ele>
        <time>2016-08-24T15:03:37.000Z</time>
      </trkpt>
      <trkpt lat="47.53247" lon="6.77432">
        <ele>388</ele>
        <time>2016-08-24T15:03:38.000Z</time>
      </trkpt>
      <trkpt lat="47.53252" lon="6.77423">
        <ele>387</ele>
        <time>2016-08-24T15:03:39.000Z</time>
      </trkpt>
      <trkpt lat="47.53257" lon="6.77417">
        <ele>387</ele>
        <time>2016-08-24T15:03:40.000Z</time>
      </trkpt>
      <trkpt lat="47.53263" lon="6.77411">
        <ele>384</ele>
        <time>2016-08-24T15:03:40.998Z</time>
      </trkpt>
      <trkpt lat="47.53271" lon="6.77402">
        <ele>382</ele>
        <time>2016-08-24T15:03:42.000Z</time>
      </trkpt>
      <trkpt lat="47.53278" lon="6.77394">
        <ele>381</ele>
        <time>2016-08-24T15:03:43.000Z</time>
      </trkpt>
      <trkpt lat="47.53285" lon="6.77384">
        <ele>380</ele>
        <time>2016-08-24T15:03:44.000Z</time>
      </trkpt>
      <trkpt lat="47.53288" lon="6.77375">
        <ele>379</ele>
        <time>2016-08-24T15:03:45.000Z</time>
      </trkpt>
      <trkpt lat="47.53293" lon="6.77365">
        <ele>379</ele>
        <time>2016-08-24T15:03:46.000Z</time>
      </trkpt>
      <trkpt lat="47.533" lon="6.77356">
        <ele>378</ele>
        <time>2016-08-24T15:03:47.000Z</time>
      </trkpt>
      <trkpt lat="47.53307" lon="6.77348">
        <ele>377</ele>
        <time>2016-08-24T15:03:48.000Z</time>
      </trkpt>
      <trkpt lat="47.53314" lon="6.77339">
        <ele>375</ele>
        <time>2016-08-24T15:03:49.000Z</time>
      </trkpt>
      <trkpt lat="47.53322" lon="6.77333">
        <ele>371</ele>
        <time>2016-08-24T15:03:50.000Z</time>
      </trkpt>
      <trkpt lat="47.53327" lon="6.77326">
        <ele>371</ele>
        <time>2016-08-24T15:03:51.000Z</time>
      </trkpt>
      <trkpt lat="47.53334" lon="6.77322">
        <ele>369</ele>
        <time>2016-08-24T15:03:52.000Z</time>
      </trkpt>
      <trkpt lat="47.5334" lon="6.77317">
        <ele>369</ele>
        <time>2016-08-24T15:03:53.000Z</time>
      </trkpt>
      <trkpt lat="47.53345" lon="6.77312">
        <ele>368</ele>
        <time>2016-08-24T15:03:54.000Z</time>
      </trkpt>
      <trkpt lat="47.5335" lon="6.77305">
        <ele>368</ele>
        <time>2016-08-24T15:03:55.000Z</time>
      </trkpt>
      <trkpt lat="47.53353" lon="6.77299">
        <ele>367</ele>
        <time>2016-08-24T15:03:56.000Z</time>
      </trkpt>
      <trkpt lat="47.53357" lon="6.77292">
        <ele>367</ele>
        <time>2016-08-24T15:03:57.000Z</time>
      </trkpt>
      <trkpt lat="47.53359" lon="6.77287">
        <ele>367</ele>
        <time>2016-08-24T15:03:58.000Z</time>
      </trkpt>
      <trkpt lat="47.53363" lon="6.77282">
        <ele>367</ele>
        <time>2016-08-24T15:03:59.000Z</time>
      </trkpt>
      <trkpt lat="47.53367" lon="6.77278">
        <ele>366</ele>
        <time>2016-08-24T15:04:00.000Z</time>
      </trkpt>
      <trkpt lat="47.53371" lon="6.77273">
        <ele>366</ele>
        <time>2016-08-24T15:04:01.000Z</time>
      </trkpt>
      <trkpt lat="47.53374" lon="6.77269">
        <ele>366</ele>
        <time>2016-08-24T15:04:03.000Z</time>
      </trkpt>
      <trkpt lat="47.53378" lon="6.77261">
        <ele>366</ele>
        <time>2016-08-24T15:04:04.000Z</time>
      </trkpt>
      <trkpt lat="47.53378" lon="6.77257">
        <ele>366</ele>
        <time>2016-08-24T15:04:05.000Z</time>
      </trkpt>
      <trkpt lat="47.53382" lon="6.77253">
        <ele>366</ele>
        <time>2016-08-24T15:04:06.000Z</time>
      </trkpt>
      <trkpt lat="47.53384" lon="6.7725">
        <ele>365</ele>
        <time>2016-08-24T15:04:08.000Z</time>
      </trkpt>
      <trkpt lat="47.53384" lon="6.77247">
        <ele>365</ele>
        <time>2016-08-24T15:04:09.000Z</time>
      </trkpt>
      <trkpt lat="47.53388" lon="6.77249">
        <ele>365</ele>
        <time>2016-08-24T15:04:14.000Z</time>
      </trkpt>
      <trkpt lat="47.53389" lon="6.77249">
        <ele>365</ele>
        <time>2016-08-24T15:04:15.000Z</time>
      </trkpt>
      <trkpt lat="47.53391" lon="6.77246">
        <ele>365</ele>
        <time>2016-08-24T15:04:19.000Z</time>
      </trkpt>
      <trkpt lat="47.53393" lon="6.77244">
        <ele>365</ele>
        <time>2016-08-24T15:04:20.000Z</time>
      </trkpt>
      <trkpt lat="47.53396" lon="6.77243">
        <ele>365</ele>
        <time>2016-08-24T15:04:23.000Z</time>
      </trkpt>
      <trkpt lat="47.53398" lon="6.77244">
        <ele>365</ele>
        <time>2016-08-24T15:04:24.000Z</time>
      </trkpt>
      <trkpt lat="47.53401" lon="6.77245">
        <ele>365</ele>
        <time>2016-08-24T15:04:27.000Z</time>
      </trkpt>
      <trkpt lat="47.53403" lon="6.77245">
        <ele>365</ele>
        <time>2016-08-24T15:04:28.000Z</time>
      </trkpt>
      <trkpt lat="47.53406" lon="6.77247">
        <ele>365</ele>
        <time>2016-08-24T15:04:30.000Z</time>
      </trkpt>
      <trkpt lat="47.53407" lon="6.77249">
        <ele>365</ele>
        <time>2016-08-24T15:04:31.000Z</time>
      </trkpt>
      <trkpt lat="47.5341" lon="6.77253">
        <ele>365</ele>
        <time>2016-08-24T15:04:34.000Z</time>
      </trkpt>
      <trkpt lat="47.53411" lon="6.77253">
        <ele>365</ele>
        <time>2016-08-24T15:04:35.000Z</time>
      </trkpt>
      <trkpt lat="47.53415" lon="6.77253">
        <ele>365</ele>
        <time>2016-08-24T15:04:39.000Z</time>
      </trkpt>
      <trkpt lat="47.53416" lon="6.77252">
        <ele>365</ele>
        <time>2016-08-24T15:04:40.000Z</time>
      </trkpt>
      <trkpt lat="47.5342" lon="6.7725">
        <ele>365</ele>
        <time>2016-08-24T15:04:44.000Z</time>
      </trkpt>
      <trkpt lat="47.53421" lon="6.7725">
        <ele>366</ele>
        <time>2016-08-24T15:04:45.000Z</time>
      </trkpt>
      <trkpt lat="47.53425" lon="6.77251">
        <ele>366</ele>
        <time>2016-08-24T15:04:48.000Z</time>
      </trkpt>
      <trkpt lat="47.53427" lon="6.77252">
        <ele>366</ele>
        <time>2016-08-24T15:04:49.000Z</time>
      </trkpt>
      <trkpt lat="47.53431" lon="6.77254">
        <ele>367</ele>
        <time>2016-08-24T15:04:51.000Z</time>
      </trkpt>
      <trkpt lat="47.53432" lon="6.77255">
        <ele>367</ele>
        <time>2016-08-24T15:04:52.000Z</time>
      </trkpt>
      <trkpt lat="47.53436" lon="6.77257">
        <ele>367</ele>
        <time>2016-08-24T15:04:55.000Z</time>
      </trkpt>
      <trkpt lat="47.53438" lon="6.77258">
        <ele>367</ele>
        <time>2016-08-24T15:04:56.000Z</time>
      </trkpt>
      <trkpt lat="47.53441" lon="6.77259">
        <ele>367</ele>
        <time>2016-08-24T15:04:58.000Z</time>
      </trkpt>
      <trkpt lat="47.53443" lon="6.7726">
        <ele>367</ele>
        <time>2016-08-24T15:04:59.000Z</time>
      </trkpt>
      <trkpt lat="47.53447" lon="6.77262">
        <ele>368</ele>
        <time>2016-08-24T15:05:02.000Z</time>
      </trkpt>
      <trkpt lat="47.53448" lon="6.77262">
        <ele>368</ele>
        <time>2016-08-24T15:05:03.000Z</time>
      </trkpt>
      <trkpt lat="47.5345" lon="6.77266">
        <ele>368</ele>
        <time>2016-08-24T15:05:06.000Z</time>
      </trkpt>
      <trkpt lat="47.53451" lon="6.77267">
        <ele>368</ele>
        <time>2016-08-24T15:05:07.000Z</time>
      </trkpt>
      <trkpt lat="47.53455" lon="6.77269">
        <ele>368</ele>
        <time>2016-08-24T15:05:09.000Z</time>
      </trkpt>
      <trkpt lat="47.53456" lon="6.7727">
        <ele>368</ele>
        <time>2016-08-24T15:05:10.000Z</time>
      </trkpt>
      <trkpt lat="47.5346" lon="6.77272">
        <ele>368</ele>
        <time>2016-08-24T15:05:12.000Z</time>
      </trkpt>
      <trkpt lat="47.53462" lon="6.77273">
        <ele>368</ele>
        <time>2016-08-24T15:05:13.000Z</time>
      </trkpt>
      <trkpt lat="47.53465" lon="6.77275">
        <ele>369</ele>
        <time>2016-08-24T15:05:15.000Z</time>
      </trkpt>
      <trkpt lat="47.53467" lon="6.77276">
        <ele>369</ele>
        <time>2016-08-24T15:05:16.000Z</time>
      </trkpt>
      <trkpt lat="47.53471" lon="6.77277">
        <ele>369</ele>
        <time>2016-08-24T15:05:18.000Z</time>
      </trkpt>
      <trkpt lat="47.53472" lon="6.77277">
        <ele>369</ele>
        <time>2016-08-24T15:05:19.000Z</time>
      </trkpt>
      <trkpt lat="47.53475" lon="6.77281">
        <ele>369</ele>
        <time>2016-08-24T15:05:23.000Z</time>
      </trkpt>
      <trkpt lat="47.53476" lon="6.77282">
        <ele>369</ele>
        <time>2016-08-24T15:05:24.000Z</time>
      </trkpt>
      <trkpt lat="47.53478" lon="6.77286">
        <ele>369</ele>
        <time>2016-08-24T15:05:27.000Z</time>
      </trkpt>
      <trkpt lat="47.53479" lon="6.77288">
        <ele>369</ele>
        <time>2016-08-24T15:05:28.000Z</time>
      </trkpt>
      <trkpt lat="47.53481" lon="6.77293">
        <ele>369</ele>
        <time>2016-08-24T15:05:31.000Z</time>
      </trkpt>
      <trkpt lat="47.53483" lon="6.77295">
        <ele>369</ele>
        <time>2016-08-24T15:05:32.000Z</time>
      </trkpt>
      <trkpt lat="47.53485" lon="6.77297">
        <ele>369</ele>
        <time>2016-08-24T15:05:33.000Z</time>
      </trkpt>
      <trkpt lat="47.53486" lon="6.77299">
        <ele>369</ele>
        <time>2016-08-24T15:05:34.000Z</time>
      </trkpt>
      <trkpt lat="47.53488" lon="6.77302">
        <ele>369</ele>
        <time>2016-08-24T15:05:35.000Z</time>
      </trkpt>
      <trkpt lat="47.5349" lon="6.77304">
        <ele>369</ele>
        <time>2016-08-24T15:05:36.000Z</time>
      </trkpt>
      <trkpt lat="47.53492" lon="6.77307">
        <ele>369</ele>
        <time>2016-08-24T15:05:37.000Z</time>
      </trkpt>
      <trkpt lat="47.53494" lon="6.77309">
        <ele>369</ele>
        <time>2016-08-24T15:05:38.000Z</time>
      </trkpt>
      <trkpt lat="47.53495" lon="6.77315">
        <ele>369</ele>
        <time>2016-08-24T15:05:40.000Z</time>
      </trkpt>
      <trkpt lat="47.53496" lon="6.77318">
        <ele>369</ele>
        <time>2016-08-24T15:05:41.000Z</time>
      </trkpt>
      <trkpt lat="47.53498" lon="6.77324">
        <ele>369</ele>
        <time>2016-08-24T15:05:43.000Z</time>
      </trkpt>
      <trkpt lat="47.53499" lon="6.77327">
        <ele>369</ele>
        <time>2016-08-24T15:05:44.000Z</time>
      </trkpt>
      <trkpt lat="47.53501" lon="6.7733">
        <ele>370</ele>
        <time>2016-08-24T15:05:45.000Z</time>
      </trkpt>
      <trkpt lat="47.53504" lon="6.77334">
        <ele>370</ele>
        <time>2016-08-24T15:05:46.000Z</time>
      </trkpt>
      <trkpt lat="47.53506" lon="6.77337">
        <ele>370</ele>
        <time>2016-08-24T15:05:47.000Z</time>
      </trkpt>
      <trkpt lat="47.53509" lon="6.7734">
        <ele>371</ele>
        <time>2016-08-24T15:05:48.000Z</time>
      </trkpt>
      <trkpt lat="47.53511" lon="6.77344">
        <ele>371</ele>
        <time>2016-08-24T15:05:49.000Z</time>
      </trkpt>
      <trkpt lat="47.53512" lon="6.77347">
        <ele>371</ele>
        <time>2016-08-24T15:05:50.000Z</time>
      </trkpt>
      <trkpt lat="47.53514" lon="6.77351">
        <ele>371</ele>
        <time>2016-08-24T15:05:51.000Z</time>
      </trkpt>
      <trkpt lat="47.53515" lon="6.77354">
        <ele>372</ele>
        <time>2016-08-24T15:05:52.000Z</time>
      </trkpt>
      <trkpt lat="47.53517" lon="6.77357">
        <ele>372</ele>
        <time>2016-08-24T15:05:53.000Z</time>
      </trkpt>
      <trkpt lat="47.53519" lon="6.77361">
        <ele>372</ele>
        <time>2016-08-24T15:05:54.000Z</time>
      </trkpt>
      <trkpt lat="47.53521" lon="6.77364">
        <ele>372</ele>
        <time>2016-08-24T15:05:55.000Z</time>
      </trkpt>
      <trkpt lat="47.53523" lon="6.77367">
        <ele>372</ele>
        <time>2016-08-24T15:05:56.000Z</time>
      </trkpt>
      <trkpt lat="47.53525" lon="6.7737">
        <ele>372</ele>
        <time>2016-08-24T15:05:57.000Z</time>
      </trkpt>
      <trkpt lat="47.53528" lon="6.77373">
        <ele>372</ele>
        <time>2016-08-24T15:05:58.000Z</time>
      </trkpt>
      <trkpt lat="47.53531" lon="6.77377">
        <ele>372</ele>
        <time>2016-08-24T15:05:59.000Z</time>
      </trkpt>
      <trkpt lat="47.53534" lon="6.7738">
        <ele>372</ele>
        <time>2016-08-24T15:06:00.000Z</time>
      </trkpt>
      <trkpt lat="47.53537" lon="6.77383">
        <ele>373</ele>
        <time>2016-08-24T15:06:01.000Z</time>
      </trkpt>
      <trkpt lat="47.53541" lon="6.77386">
        <ele>373</ele>
        <time>2016-08-24T15:06:02.000Z</time>
      </trkpt>
      <trkpt lat="47.53544" lon="6.77388">
        <ele>373</ele>
        <time>2016-08-24T15:06:03.000Z</time>
      </trkpt>
      <trkpt lat="47.53547" lon="6.77391">
        <ele>373</ele>
        <time>2016-08-24T15:06:04.000Z</time>
      </trkpt>
      <trkpt lat="47.53551" lon="6.77394">
        <ele>373</ele>
        <time>2016-08-24T15:06:05.000Z</time>
      </trkpt>
      <trkpt lat="47.53554" lon="6.77396">
        <ele>373</ele>
        <time>2016-08-24T15:06:06.000Z</time>
      </trkpt>
      <trkpt lat="47.53557" lon="6.774">
        <ele>373</ele>
        <time>2016-08-24T15:06:07.000Z</time>
      </trkpt>
      <trkpt lat="47.53559" lon="6.77403">
        <ele>373</ele>
        <time>2016-08-24T15:06:08.000Z</time>
      </trkpt>
      <trkpt lat="47.53562" lon="6.77406">
        <ele>374</ele>
        <time>2016-08-24T15:06:09.000Z</time>
      </trkpt>
      <trkpt lat="47.53564" lon="6.77409">
        <ele>374</ele>
        <time>2016-08-24T15:06:10.000Z</time>
      </trkpt>
      <trkpt lat="47.53568" lon="6.77412">
        <ele>374</ele>
        <time>2016-08-24T15:06:11.000Z</time>
      </trkpt>
      <trkpt lat="47.53571" lon="6.77416">
        <ele>374</ele>
        <time>2016-08-24T15:06:12.000Z</time>
      </trkpt>
      <trkpt lat="47.53574" lon="6.77419">
        <ele>373</ele>
        <time>2016-08-24T15:06:13.000Z</time>
      </trkpt>
      <trkpt lat="47.53578" lon="6.77423">
        <ele>373</ele>
        <time>2016-08-24T15:06:14.000Z</time>
      </trkpt>
      <trkpt lat="47.53581" lon="6.77426">
        <ele>373</ele>
        <time>2016-08-24T15:06:15.000Z</time>
      </trkpt>
      <trkpt lat="47.53585" lon="6.77431">
        <ele>375</ele>
        <time>2016-08-24T15:06:16.000Z</time>
      </trkpt>
      <trkpt lat="47.53588" lon="6.77435">
        <ele>376</ele>
        <time>2016-08-24T15:06:17.000Z</time>
      </trkpt>
      <trkpt lat="47.53592" lon="6.77438">
        <ele>376</ele>
        <time>2016-08-24T15:06:18.000Z</time>
      </trkpt>
      <trkpt lat="47.53595" lon="6.77442">
        <ele>376</ele>
        <time>2016-08-24T15:06:19.000Z</time>
      </trkpt>
      <trkpt lat="47.53597" lon="6.77445">
        <ele>376</ele>
        <time>2016-08-24T15:06:20.000Z</time>
      </trkpt>
      <trkpt lat="47.536" lon="6.77449">
        <ele>376</ele>
        <time>2016-08-24T15:06:21.000Z</time>
      </trkpt>
      <trkpt lat="47.53603" lon="6.77452">
        <ele>376</ele>
        <time>2016-08-24T15:06:22.000Z</time>
      </trkpt>
      <trkpt lat="47.53606" lon="6.77456">
        <ele>376</ele>
        <time>2016-08-24T15:06:23.000Z</time>
      </trkpt>
      <trkpt lat="47.53609" lon="6.7746">
        <ele>376</ele>
        <time>2016-08-24T15:06:24.000Z</time>
      </trkpt>
      <trkpt lat="47.53612" lon="6.77465">
        <ele>376</ele>
        <time>2016-08-24T15:06:25.000Z</time>
      </trkpt>
      <trkpt lat="47.53615" lon="6.77469">
        <ele>376</ele>
        <time>2016-08-24T15:06:26.000Z</time>
      </trkpt>
      <trkpt lat="47.53618" lon="6.77473">
        <ele>376</ele>
        <time>2016-08-24T15:06:27.000Z</time>
      </trkpt>
      <trkpt lat="47.53621" lon="6.77476">
        <ele>376</ele>
        <time>2016-08-24T15:06:28.000Z</time>
      </trkpt>
      <trkpt lat="47.53624" lon="6.7748">
        <ele>376</ele>
        <time>2016-08-24T15:06:29.000Z</time>
      </trkpt>
      <trkpt lat="47.53626" lon="6.77484">
        <ele>376</ele>
        <time>2016-08-24T15:06:30.000Z</time>
      </trkpt>
      <trkpt lat="47.53629" lon="6.77489">
        <ele>376</ele>
        <time>2016-08-24T15:06:31.000Z</time>
      </trkpt>
      <trkpt lat="47.53631" lon="6.77494">
        <ele>376</ele>
        <time>2016-08-24T15:06:32.000Z</time>
      </trkpt>
      <trkpt lat="47.53633" lon="6.77498">
        <ele>376</ele>
        <time>2016-08-24T15:06:33.000Z</time>
      </trkpt>
      <trkpt lat="47.53636" lon="6.77502">
        <ele>372</ele>
        <time>2016-08-24T15:06:34.000Z</time>
      </trkpt>
      <trkpt lat="47.53639" lon="6.77506">
        <ele>373</ele>
        <time>2016-08-24T15:06:35.000Z</time>
      </trkpt>
      <trkpt lat="47.53641" lon="6.7751">
        <ele>373</ele>
        <time>2016-08-24T15:06:36.000Z</time>
      </trkpt>
      <trkpt lat="47.53644" lon="6.77515">
        <ele>373</ele>
        <time>2016-08-24T15:06:37.000Z</time>
      </trkpt>
      <trkpt lat="47.53647" lon="6.7752">
        <ele>372</ele>
        <time>2016-08-24T15:06:38.000Z</time>
      </trkpt>
      <trkpt lat="47.53653" lon="6.77534">
        <ele>371</ele>
        <time>2016-08-24T15:06:39.000Z</time>
      </trkpt>
      <trkpt lat="47.53661" lon="6.77542">
        <ele>371</ele>
        <time>2016-08-24T15:06:40.000Z</time>
      </trkpt>
      <trkpt lat="47.53664" lon="6.7755">
        <ele>371</ele>
        <time>2016-08-24T15:06:41.000Z</time>
      </trkpt>
      <trkpt lat="47.53668" lon="6.77558">
        <ele>375</ele>
        <time>2016-08-24T15:06:42.000Z</time>
      </trkpt>
      <trkpt lat="47.53669" lon="6.77563">
        <ele>374</ele>
        <time>2016-08-24T15:06:43.000Z</time>
      </trkpt>
      <trkpt lat="47.53674" lon="6.7757">
        <ele>373</ele>
        <time>2016-08-24T15:06:44.000Z</time>
      </trkpt>
      <trkpt lat="47.53678" lon="6.77579">
        <ele>372</ele>
        <time>2016-08-24T15:06:45.000Z</time>
      </trkpt>
      <trkpt lat="47.53683" lon="6.77585">
        <ele>369</ele>
        <time>2016-08-24T15:06:46.000Z</time>
      </trkpt>
      <trkpt lat="47.53699" lon="6.77597">
        <ele>369</ele>
        <time>2016-08-24T15:06:47.000Z</time>
      </trkpt>
      <trkpt lat="47.53705" lon="6.77607">
        <ele>368</ele>
        <time>2016-08-24T15:06:48.000Z</time>
      </trkpt>
      <trkpt lat="47.53709" lon="6.77623">
        <ele>368</ele>
        <time>2016-08-24T15:06:49.000Z</time>
      </trkpt>
      <trkpt lat="47.53711" lon="6.77632">
        <ele>367</ele>
        <time>2016-08-24T15:06:50.000Z</time>
      </trkpt>
      <trkpt lat="47.53713" lon="6.77643">
        <ele>367</ele>
        <time>2016-08-24T15:06:51.000Z</time>
      </trkpt>
      <trkpt lat="47.53717" lon="6.77653">
        <ele>366</ele>
        <time>2016-08-24T15:06:52.000Z</time>
      </trkpt>
      <trkpt lat="47.5372" lon="6.77663">
        <ele>366</ele>
        <time>2016-08-24T15:06:53.000Z</time>
      </trkpt>
      <trkpt lat="47.53724" lon="6.77675">
        <ele>361</ele>
        <time>2016-08-24T15:06:54.000Z</time>
      </trkpt>
      <trkpt lat="47.53729" lon="6.77689">
        <ele>361</ele>
        <time>2016-08-24T15:06:55.000Z</time>
      </trkpt>
      <trkpt lat="47.53734" lon="6.77702">
        <ele>360</ele>
        <time>2016-08-24T15:06:56.000Z</time>
      </trkpt>
      <trkpt lat="47.5374" lon="6.77713">
        <ele>360</ele>
        <time>2016-08-24T15:06:57.000Z</time>
      </trkpt>
      <trkpt lat="47.53744" lon="6.7772">
        <ele>359</ele>
        <time>2016-08-24T15:06:58.000Z</time>
      </trkpt>
      <trkpt lat="47.53753" lon="6.77729">
        <ele>359</ele>
        <time>2016-08-24T15:06:59.000Z</time>
      </trkpt>
      <trkpt lat="47.53763" lon="6.77728">
        <ele>359</ele>
        <time>2016-08-24T15:07:00.000Z</time>
      </trkpt>
      <trkpt lat="47.53769" lon="6.77727">
        <ele>359</ele>
        <time>2016-08-24T15:07:01.000Z</time>
      </trkpt>
      <trkpt lat="47.53774" lon="6.77727">
        <ele>358</ele>
        <time>2016-08-24T15:07:02.000Z</time>
      </trkpt>
      <trkpt lat="47.53776" lon="6.77728">
        <ele>358</ele>
        <time>2016-08-24T15:07:03.000Z</time>
      </trkpt>
      <trkpt lat="47.53782" lon="6.77726">
        <ele>358</ele>
        <time>2016-08-24T15:07:04.000Z</time>
      </trkpt>
      <trkpt lat="47.53785" lon="6.77724">
        <ele>358</ele>
        <time>2016-08-24T15:07:05.000Z</time>
      </trkpt>
      <trkpt lat="47.53789" lon="6.77721">
        <ele>358</ele>
        <time>2016-08-24T15:07:06.000Z</time>
      </trkpt>
      <trkpt lat="47.53795" lon="6.77718">
        <ele>358</ele>
        <time>2016-08-24T15:07:07.000Z</time>
      </trkpt>
      <trkpt lat="47.538" lon="6.77715">
        <ele>358</ele>
        <time>2016-08-24T15:07:08.000Z</time>
      </trkpt>
      <trkpt lat="47.53805" lon="6.77711">
        <ele>358</ele>
        <time>2016-08-24T15:07:09.000Z</time>
      </trkpt>
      <trkpt lat="47.53809" lon="6.77707">
        <ele>358</ele>
        <time>2016-08-24T15:07:10.000Z</time>
      </trkpt>
      <trkpt lat="47.53813" lon="6.77703">
        <ele>358</ele>
        <time>2016-08-24T15:07:11.000Z</time>
      </trkpt>
      <trkpt lat="47.53818" lon="6.777">
        <ele>359</ele>
        <time>2016-08-24T15:07:12.000Z</time>
      </trkpt>
      <trkpt lat="47.5382" lon="6.77702">
        <ele>358</ele>
        <time>2016-08-24T15:07:13.000Z</time>
      </trkpt>
      <trkpt lat="47.53823" lon="6.7771">
        <ele>358</ele>
        <time>2016-08-24T15:07:14.000Z</time>
      </trkpt>
      <trkpt lat="47.53828" lon="6.77707">
        <ele>358</ele>
        <time>2016-08-24T15:07:15.000Z</time>
      </trkpt>
      <trkpt lat="47.53831" lon="6.77704">
        <ele>358</ele>
        <time>2016-08-24T15:07:16.000Z</time>
      </trkpt>
      <trkpt lat="47.53835" lon="6.77702">
        <ele>355</ele>
        <time>2016-08-24T15:07:17.000Z</time>
      </trkpt>
      <trkpt lat="47.53838" lon="6.77699">
        <ele>355</ele>
        <time>2016-08-24T15:07:18.000Z</time>
      </trkpt>
      <trkpt lat="47.53841" lon="6.77693">
        <ele>356</ele>
        <time>2016-08-24T15:07:19.000Z</time>
      </trkpt>
      <trkpt lat="47.53844" lon="6.77691">
        <ele>356</ele>
        <time>2016-08-24T15:07:20.000Z</time>
      </trkpt>
      <trkpt lat="47.53849" lon="6.7769">
        <ele>356</ele>
        <time>2016-08-24T15:07:21.000Z</time>
      </trkpt>
      <trkpt lat="47.53852" lon="6.77689">
        <ele>356</ele>
        <time>2016-08-24T15:07:22.000Z</time>
      </trkpt>
      <trkpt lat="47.53856" lon="6.77687">
        <ele>356</ele>
        <time>2016-08-24T15:07:23.000Z</time>
      </trkpt>
      <trkpt lat="47.5386" lon="6.77685">
        <ele>356</ele>
        <time>2016-08-24T15:07:24.000Z</time>
      </trkpt>
      <trkpt lat="47.53863" lon="6.77683">
        <ele>355</ele>
        <time>2016-08-24T15:07:25.000Z</time>
      </trkpt>
      <trkpt lat="47.53867" lon="6.77681">
        <ele>355</ele>
        <time>2016-08-24T15:07:26.000Z</time>
      </trkpt>
      <trkpt lat="47.5387" lon="6.77678">
        <ele>355</ele>
        <time>2016-08-24T15:07:27.000Z</time>
      </trkpt>
      <trkpt lat="47.53874" lon="6.77675">
        <ele>355</ele>
        <time>2016-08-24T15:07:28.000Z</time>
      </trkpt>
      <trkpt lat="47.53878" lon="6.77673">
        <ele>355</ele>
        <time>2016-08-24T15:07:29.000Z</time>
      </trkpt>
      <trkpt lat="47.53882" lon="6.77672">
        <ele>355</ele>
        <time>2016-08-24T15:07:30.000Z</time>
      </trkpt>
      <trkpt lat="47.53885" lon="6.77671">
        <ele>355</ele>
        <time>2016-08-24T15:07:31.000Z</time>
      </trkpt>
      <trkpt lat="47.53888" lon="6.7767">
        <ele>354</ele>
        <time>2016-08-24T15:07:32.000Z</time>
      </trkpt>
      <trkpt lat="47.53892" lon="6.77668">
        <ele>354</ele>
        <time>2016-08-24T15:07:33.000Z</time>
      </trkpt>
      <trkpt lat="47.53895" lon="6.77667">
        <ele>354</ele>
        <time>2016-08-24T15:07:34.000Z</time>
      </trkpt>
      <trkpt lat="47.53899" lon="6.77665">
        <ele>359</ele>
        <time>2016-08-24T15:07:35.000Z</time>
      </trkpt>
      <trkpt lat="47.53903" lon="6.77663">
        <ele>358</ele>
        <time>2016-08-24T15:07:36.000Z</time>
      </trkpt>
      <trkpt lat="47.53907" lon="6.7766">
        <ele>358</ele>
        <time>2016-08-24T15:07:37.000Z</time>
      </trkpt>
      <trkpt lat="47.53911" lon="6.77656">
        <ele>358</ele>
        <time>2016-08-24T15:07:38.000Z</time>
      </trkpt>
      <trkpt lat="47.53914" lon="6.77655">
        <ele>358</ele>
        <time>2016-08-24T15:07:39.000Z</time>
      </trkpt>
      <trkpt lat="47.53917" lon="6.77653">
        <ele>355</ele>
        <time>2016-08-24T15:07:40.000Z</time>
      </trkpt>
      <trkpt lat="47.5392" lon="6.7765">
        <ele>355</ele>
        <time>2016-08-24T15:07:41.000Z</time>
      </trkpt>
      <trkpt lat="47.53924" lon="6.77647">
        <ele>356</ele>
        <time>2016-08-24T15:07:43.000Z</time>
      </trkpt>
      <trkpt lat="47.53926" lon="6.77645">
        <ele>356</ele>
        <time>2016-08-24T15:07:44.000Z</time>
      </trkpt>
      <trkpt lat="47.53929" lon="6.77642">
        <ele>356</ele>
        <time>2016-08-24T15:07:45.000Z</time>
      </trkpt>
      <trkpt lat="47.53932" lon="6.77638">
        <ele>356</ele>
        <time>2016-08-24T15:07:46.000Z</time>
      </trkpt>
      <trkpt lat="47.53935" lon="6.77634">
        <ele>356</ele>
        <time>2016-08-24T15:07:47.000Z</time>
      </trkpt>
      <trkpt lat="47.53938" lon="6.77631">
        <ele>357</ele>
        <time>2016-08-24T15:07:48.000Z</time>
      </trkpt>
      <trkpt lat="47.5394" lon="6.77627">
        <ele>357</ele>
        <time>2016-08-24T15:07:49.000Z</time>
      </trkpt>
      <trkpt lat="47.53942" lon="6.77623">
        <ele>357</ele>
        <time>2016-08-24T15:07:50.000Z</time>
      </trkpt>
      <trkpt lat="47.53945" lon="6.7762">
        <ele>357</ele>
        <time>2016-08-24T15:07:51.000Z</time>
      </trkpt>
      <trkpt lat="47.53947" lon="6.77616">
        <ele>357</ele>
        <time>2016-08-24T15:07:52.000Z</time>
      </trkpt>
      <trkpt lat="47.5395" lon="6.77612">
        <ele>357</ele>
        <time>2016-08-24T15:07:53.000Z</time>
      </trkpt>
      <trkpt lat="47.53953" lon="6.77608">
        <ele>357</ele>
        <time>2016-08-24T15:07:54.000Z</time>
      </trkpt>
      <trkpt lat="47.53955" lon="6.77605">
        <ele>358</ele>
        <time>2016-08-24T15:07:55.000Z</time>
      </trkpt>
      <trkpt lat="47.53957" lon="6.77603">
        <ele>358</ele>
        <time>2016-08-24T15:07:56.000Z</time>
      </trkpt>
      <trkpt lat="47.5396" lon="6.776">
        <ele>358</ele>
        <time>2016-08-24T15:07:58.000Z</time>
      </trkpt>
      <trkpt lat="47.53962" lon="6.77599">
        <ele>358</ele>
        <time>2016-08-24T15:07:59.000Z</time>
      </trkpt>
      <trkpt lat="47.53966" lon="6.77597">
        <ele>357</ele>
        <time>2016-08-24T15:08:01.000Z</time>
      </trkpt>
      <trkpt lat="47.53968" lon="6.77596">
        <ele>357</ele>
        <time>2016-08-24T15:08:02.000Z</time>
      </trkpt>
      <trkpt lat="47.53972" lon="6.77594">
        <ele>357</ele>
        <time>2016-08-24T15:08:04.000Z</time>
      </trkpt>
      <trkpt lat="47.53974" lon="6.77593">
        <ele>357</ele>
        <time>2016-08-24T15:08:05.000Z</time>
      </trkpt>
      <trkpt lat="47.53976" lon="6.77591">
        <ele>357</ele>
        <time>2016-08-24T15:08:06.000Z</time>
      </trkpt>
      <trkpt lat="47.53979" lon="6.77589">
        <ele>357</ele>
        <time>2016-08-24T15:08:07.000Z</time>
      </trkpt>
      <trkpt lat="47.53981" lon="6.77588">
        <ele>357</ele>
        <time>2016-08-24T15:08:08.000Z</time>
      </trkpt>
      <trkpt lat="47.53984" lon="6.77586">
        <ele>358</ele>
        <time>2016-08-24T15:08:09.000Z</time>
      </trkpt>
      <trkpt lat="47.53988" lon="6.77584">
        <ele>358</ele>
        <time>2016-08-24T15:08:10.000Z</time>
      </trkpt>
      <trkpt lat="47.53991" lon="6.77583">
        <ele>361</ele>
        <time>2016-08-24T15:08:11.000Z</time>
      </trkpt>
      <trkpt lat="47.53995" lon="6.77581">
        <ele>360</ele>
        <time>2016-08-24T15:08:12.000Z</time>
      </trkpt>
      <trkpt lat="47.53999" lon="6.7758">
        <ele>359</ele>
        <time>2016-08-24T15:08:13.000Z</time>
      </trkpt>
      <trkpt lat="47.54003" lon="6.77577">
        <ele>359</ele>
        <time>2016-08-24T15:08:14.000Z</time>
      </trkpt>
      <trkpt lat="47.54006" lon="6.77573">
        <ele>359</ele>
        <time>2016-08-24T15:08:15.000Z</time>
      </trkpt>
      <trkpt lat="47.5401" lon="6.7757">
        <ele>360</ele>
        <time>2016-08-24T15:08:16.000Z</time>
      </trkpt>
      <trkpt lat="47.54014" lon="6.77566">
        <ele>360</ele>
        <time>2016-08-24T15:08:17.000Z</time>
      </trkpt>
      <trkpt lat="47.54017" lon="6.77562">
        <ele>361</ele>
        <time>2016-08-24T15:08:18.000Z</time>
      </trkpt>
      <trkpt lat="47.5402" lon="6.77559">
        <ele>361</ele>
        <time>2016-08-24T15:08:19.000Z</time>
      </trkpt>
      <trkpt lat="47.54023" lon="6.77555">
        <ele>361</ele>
        <time>2016-08-24T15:08:20.000Z</time>
      </trkpt>
      <trkpt lat="47.54026" lon="6.77553">
        <ele>361</ele>
        <time>2016-08-24T15:08:21.000Z</time>
      </trkpt>
      <trkpt lat="47.54028" lon="6.7755">
        <ele>361</ele>
        <time>2016-08-24T15:08:22.000Z</time>
      </trkpt>
      <trkpt lat="47.54032" lon="6.77548">
        <ele>361</ele>
        <time>2016-08-24T15:08:23.000Z</time>
      </trkpt>
      <trkpt lat="47.54035" lon="6.77546">
        <ele>361</ele>
        <time>2016-08-24T15:08:24.000Z</time>
      </trkpt>
      <trkpt lat="47.5404" lon="6.77544">
        <ele>361</ele>
        <time>2016-08-24T15:08:25.000Z</time>
      </trkpt>
      <trkpt lat="47.54045" lon="6.77542">
        <ele>361</ele>
        <time>2016-08-24T15:08:26.000Z</time>
      </trkpt>
      <trkpt lat="47.54051" lon="6.7754">
        <ele>361</ele>
        <time>2016-08-24T15:08:27.000Z</time>
      </trkpt>
      <trkpt lat="47.54058" lon="6.77539">
        <ele>361</ele>
        <time>2016-08-24T15:08:28.000Z</time>
      </trkpt>
      <trkpt lat="47.54064" lon="6.77537">
        <ele>361</ele>
        <time>2016-08-24T15:08:29.000Z</time>
      </trkpt>
      <trkpt lat="47.5407" lon="6.77535">
        <ele>361</ele>
        <time>2016-08-24T15:08:30.000Z</time>
      </trkpt>
      <trkpt lat="47.54083" lon="6.7753">
        <ele>361</ele>
        <time>2016-08-24T15:08:31.000Z</time>
      </trkpt>
      <trkpt lat="47.54089" lon="6.77527">
        <ele>358</ele>
        <time>2016-08-24T15:08:32.000Z</time>
      </trkpt>
      <trkpt lat="47.54094" lon="6.77524">
        <ele>358</ele>
        <time>2016-08-24T15:08:33.000Z</time>
      </trkpt>
      <trkpt lat="47.541" lon="6.77523">
        <ele>358</ele>
        <time>2016-08-24T15:08:34.000Z</time>
      </trkpt>
      <trkpt lat="47.54106" lon="6.77522">
        <ele>358</ele>
        <time>2016-08-24T15:08:35.000Z</time>
      </trkpt>
      <trkpt lat="47.54112" lon="6.77521">
        <ele>358</ele>
        <time>2016-08-24T15:08:36.000Z</time>
      </trkpt>
      <trkpt lat="47.54117" lon="6.77519">
        <ele>357</ele>
        <time>2016-08-24T15:08:37.000Z</time>
      </trkpt>
      <trkpt lat="47.54123" lon="6.77518">
        <ele>357</ele>
        <time>2016-08-24T15:08:38.000Z</time>
      </trkpt>
      <trkpt lat="47.54129" lon="6.77516">
        <ele>357</ele>
        <time>2016-08-24T15:08:39.000Z</time>
      </trkpt>
      <trkpt lat="47.54135" lon="6.77515">
        <ele>357</ele>
        <time>2016-08-24T15:08:40.000Z</time>
      </trkpt>
      <trkpt lat="47.54141" lon="6.77514">
        <ele>357</ele>
        <time>2016-08-24T15:08:41.000Z</time>
      </trkpt>
      <trkpt lat="47.54147" lon="6.77513">
        <ele>357</ele>
        <time>2016-08-24T15:08:42.000Z</time>
      </trkpt>
      <trkpt lat="47.54153" lon="6.77513">
        <ele>357</ele>
        <time>2016-08-24T15:08:43.000Z</time>
      </trkpt>
      <trkpt lat="47.54159" lon="6.77513">
        <ele>357</ele>
        <time>2016-08-24T15:08:44.000Z</time>
      </trkpt>
      <trkpt lat="47.54165" lon="6.77512">
        <ele>357</ele>
        <time>2016-08-24T15:08:45.000Z</time>
      </trkpt>
      <trkpt lat="47.54172" lon="6.77509">
        <ele>357</ele>
        <time>2016-08-24T15:08:46.000Z</time>
      </trkpt>
      <trkpt lat="47.54178" lon="6.77509">
        <ele>356</ele>
        <time>2016-08-24T15:08:47.000Z</time>
      </trkpt>
      <trkpt lat="47.54184" lon="6.77509">
        <ele>356</ele>
        <time>2016-08-24T15:08:48.000Z</time>
      </trkpt>
      <trkpt lat="47.5419" lon="6.77508">
        <ele>356</ele>
        <time>2016-08-24T15:08:49.000Z</time>
      </trkpt>
      <trkpt lat="47.54194" lon="6.77505">
        <ele>356</ele>
        <time>2016-08-24T15:08:50.000Z</time>
      </trkpt>
      <trkpt lat="47.54199" lon="6.77504">
        <ele>356</ele>
        <time>2016-08-24T15:08:51.000Z</time>
      </trkpt>
      <trkpt lat="47.54204" lon="6.77503">
        <ele>356</ele>
        <time>2016-08-24T15:08:52.000Z</time>
      </trkpt>
      <trkpt lat="47.54208" lon="6.77501">
        <ele>356</ele>
        <time>2016-08-24T15:08:53.000Z</time>
      </trkpt>
      <trkpt lat="47.54212" lon="6.77498">
        <ele>361</ele>
        <time>2016-08-24T15:08:54.000Z</time>
      </trkpt>
      <trkpt lat="47.54217" lon="6.77496">
        <ele>361</ele>
        <time>2016-08-24T15:08:55.000Z</time>
      </trkpt>
      <trkpt lat="47.54222" lon="6.77493">
        <ele>361</ele>
        <time>2016-08-24T15:08:56.000Z</time>
      </trkpt>
      <trkpt lat="47.54227" lon="6.77489">
        <ele>361</ele>
        <time>2016-08-24T15:08:57.000Z</time>
      </trkpt>
      <trkpt lat="47.5423" lon="6.77485">
        <ele>361</ele>
        <time>2016-08-24T15:08:58.000Z</time>
      </trkpt>
      <trkpt lat="47.54235" lon="6.77481">
        <ele>361</ele>
        <time>2016-08-24T15:08:59.000Z</time>
      </trkpt>
      <trkpt lat="47.54239" lon="6.77478">
        <ele>361</ele>
        <time>2016-08-24T15:09:00.000Z</time>
      </trkpt>
      <trkpt lat="47.54243" lon="6.77473">
        <ele>361</ele>
        <time>2016-08-24T15:09:01.000Z</time>
      </trkpt>
      <trkpt lat="47.54246" lon="6.77468">
        <ele>362</ele>
        <time>2016-08-24T15:09:02.000Z</time>
      </trkpt>
      <trkpt lat="47.54248" lon="6.77462">
        <ele>362</ele>
        <time>2016-08-24T15:09:03.000Z</time>
      </trkpt>
      <trkpt lat="47.5425" lon="6.77455">
        <ele>358</ele>
        <time>2016-08-24T15:09:04.000Z</time>
      </trkpt>
      <trkpt lat="47.54251" lon="6.77451">
        <ele>358</ele>
        <time>2016-08-24T15:09:05.000Z</time>
      </trkpt>
      <trkpt lat="47.54247" lon="6.77445">
        <ele>363</ele>
        <time>2016-08-24T15:09:06.000Z</time>
      </trkpt>
      <trkpt lat="47.54246" lon="6.7744">
        <ele>363</ele>
        <time>2016-08-24T15:09:07.000Z</time>
      </trkpt>
      <trkpt lat="47.54245" lon="6.77435">
        <ele>363</ele>
        <time>2016-08-24T15:09:08.000Z</time>
      </trkpt>
      <trkpt lat="47.54245" lon="6.77429">
        <ele>363</ele>
        <time>2016-08-24T15:09:10.000Z</time>
      </trkpt>
      <trkpt lat="47.54243" lon="6.77425">
        <ele>363</ele>
        <time>2016-08-24T15:09:11.000Z</time>
      </trkpt>
      <trkpt lat="47.5424" lon="6.7742">
        <ele>363</ele>
        <time>2016-08-24T15:09:13.000Z</time>
      </trkpt>
      <trkpt lat="47.54239" lon="6.77418">
        <ele>363</ele>
        <time>2016-08-24T15:09:14.000Z</time>
      </trkpt>
      <trkpt lat="47.54236" lon="6.77414">
        <ele>365</ele>
        <time>2016-08-24T15:09:16.000Z</time>
      </trkpt>
      <trkpt lat="47.54236" lon="6.77412">
        <ele>366</ele>
        <time>2016-08-24T15:09:17.000Z</time>
      </trkpt>
      <trkpt lat="47.54237" lon="6.77406">
        <ele>366</ele>
        <time>2016-08-24T15:09:19.000Z</time>
      </trkpt>
      <trkpt lat="47.54238" lon="6.77403">
        <ele>366</ele>
        <time>2016-08-24T15:09:20.000Z</time>
      </trkpt>
      <trkpt lat="47.54238" lon="6.77399">
        <ele>366</ele>
        <time>2016-08-24T15:09:21.000Z</time>
      </trkpt>
      <trkpt lat="47.54237" lon="6.77396">
        <ele>367</ele>
        <time>2016-08-24T15:09:22.000Z</time>
      </trkpt>
      <trkpt lat="47.54237" lon="6.77392">
        <ele>367</ele>
        <time>2016-08-24T15:09:23.000Z</time>
      </trkpt>
      <trkpt lat="47.54237" lon="6.77389">
        <ele>367</ele>
        <time>2016-08-24T15:09:24.000Z</time>
      </trkpt>
      <trkpt lat="47.54236" lon="6.77383">
        <ele>367</ele>
        <time>2016-08-24T15:09:26.000Z</time>
      </trkpt>
      <trkpt lat="47.54235" lon="6.7738">
        <ele>368</ele>
        <time>2016-08-24T15:09:27.000Z</time>
      </trkpt>
      <trkpt lat="47.54234" lon="6.77376">
        <ele>368</ele>
        <time>2016-08-24T15:09:28.000Z</time>
      </trkpt>
      <trkpt lat="47.54233" lon="6.77372">
        <ele>368</ele>
        <time>2016-08-24T15:09:29.000Z</time>
      </trkpt>
      <trkpt lat="47.54232" lon="6.77368">
        <ele>368</ele>
        <time>2016-08-24T15:09:30.000Z</time>
      </trkpt>
      <trkpt lat="47.5423" lon="6.77364">
        <ele>368</ele>
        <time>2016-08-24T15:09:31.000Z</time>
      </trkpt>
      <trkpt lat="47.54229" lon="6.77359">
        <ele>368</ele>
        <time>2016-08-24T15:09:32.000Z</time>
      </trkpt>
      <trkpt lat="47.54228" lon="6.77355">
        <ele>368</ele>
        <time>2016-08-24T15:09:33.000Z</time>
      </trkpt>
      <trkpt lat="47.54227" lon="6.77351">
        <ele>368</ele>
        <time>2016-08-24T15:09:34.000Z</time>
      </trkpt>
      <trkpt lat="47.54225" lon="6.77346">
        <ele>368</ele>
        <time>2016-08-24T15:09:35.000Z</time>
      </trkpt>
      <trkpt lat="47.54224" lon="6.77342">
        <ele>368</ele>
        <time>2016-08-24T15:09:36.000Z</time>
      </trkpt>
      <trkpt lat="47.54223" lon="6.77338">
        <ele>368</ele>
        <time>2016-08-24T15:09:37.000Z</time>
      </trkpt>
      <trkpt lat="47.54222" lon="6.77334">
        <ele>368</ele>
        <time>2016-08-24T15:09:38.000Z</time>
      </trkpt>
      <trkpt lat="47.54221" lon="6.7733">
        <ele>369</ele>
        <time>2016-08-24T15:09:39.000Z</time>
      </trkpt>
      <trkpt lat="47.5422" lon="6.77326">
        <ele>369</ele>
        <time>2016-08-24T15:09:40.000Z</time>
      </trkpt>
      <trkpt lat="47.54219" lon="6.77322">
        <ele>370</ele>
        <time>2016-08-24T15:09:41.000Z</time>
      </trkpt>
      <trkpt lat="47.54219" lon="6.77318">
        <ele>370</ele>
        <time>2016-08-24T15:09:42.000Z</time>
      </trkpt>
      <trkpt lat="47.54218" lon="6.77313">
        <ele>370</ele>
        <time>2016-08-24T15:09:43.000Z</time>
      </trkpt>
      <trkpt lat="47.54218" lon="6.77309">
        <ele>370</ele>
        <time>2016-08-24T15:09:44.000Z</time>
      </trkpt>
      <trkpt lat="47.54217" lon="6.77305">
        <ele>370</ele>
        <time>2016-08-24T15:09:45.000Z</time>
      </trkpt>
      <trkpt lat="47.54217" lon="6.77301">
        <ele>370</ele>
        <time>2016-08-24T15:09:46.000Z</time>
      </trkpt>
      <trkpt lat="47.54217" lon="6.77297">
        <ele>370</ele>
        <time>2016-08-24T15:09:47.000Z</time>
      </trkpt>
      <trkpt lat="47.54218" lon="6.77294">
        <ele>370</ele>
        <time>2016-08-24T15:09:48.000Z</time>
      </trkpt>
      <trkpt lat="47.54218" lon="6.7729">
        <ele>370</ele>
        <time>2016-08-24T15:09:49.000Z</time>
      </trkpt>
      <trkpt lat="47.54219" lon="6.77286">
        <ele>370</ele>
        <time>2016-08-24T15:09:50.000Z</time>
      </trkpt>
      <trkpt lat="47.54219" lon="6.77282">
        <ele>370</ele>
        <time>2016-08-24T15:09:51.000Z</time>
      </trkpt>
      <trkpt lat="47.54218" lon="6.77278">
        <ele>370</ele>
        <time>2016-08-24T15:09:52.000Z</time>
      </trkpt>
      <trkpt lat="47.54218" lon="6.77273">
        <ele>370</ele>
        <time>2016-08-24T15:09:53.000Z</time>
      </trkpt>
      <trkpt lat="47.54217" lon="6.77268">
        <ele>370</ele>
        <time>2016-08-24T15:09:54.000Z</time>
      </trkpt>
      <trkpt lat="47.54216" lon="6.77263">
        <ele>370</ele>
        <time>2016-08-24T15:09:55.000Z</time>
      </trkpt>
      <trkpt lat="47.54215" lon="6.77258">
        <ele>370</ele>
        <time>2016-08-24T15:09:56.000Z</time>
      </trkpt>
      <trkpt lat="47.54214" lon="6.77253">
        <ele>370</ele>
        <time>2016-08-24T15:09:57.000Z</time>
      </trkpt>
      <trkpt lat="47.54213" lon="6.77249">
        <ele>371</ele>
        <time>2016-08-24T15:09:58.000Z</time>
      </trkpt>
      <trkpt lat="47.54212" lon="6.77246">
        <ele>371</ele>
        <time>2016-08-24T15:09:59.000Z</time>
      </trkpt>
      <trkpt lat="47.54211" lon="6.7724">
        <ele>372</ele>
        <time>2016-08-24T15:10:01.000Z</time>
      </trkpt>
      <trkpt lat="47.5421" lon="6.77238">
        <ele>372</ele>
        <time>2016-08-24T15:10:02.000Z</time>
      </trkpt>
      <trkpt lat="47.54209" lon="6.77232">
        <ele>372</ele>
        <time>2016-08-24T15:10:04.000Z</time>
      </trkpt>
      <trkpt lat="47.54208" lon="6.77229">
        <ele>372</ele>
        <time>2016-08-24T15:10:05.000Z</time>
      </trkpt>
      <trkpt lat="47.54207" lon="6.77225">
        <ele>372</ele>
        <time>2016-08-24T15:10:06.000Z</time>
      </trkpt>
      <trkpt lat="47.54207" lon="6.7722">
        <ele>373</ele>
        <time>2016-08-24T15:10:07.000Z</time>
      </trkpt>
      <trkpt lat="47.54206" lon="6.77216">
        <ele>373</ele>
        <time>2016-08-24T15:10:08.000Z</time>
      </trkpt>
      <trkpt lat="47.54204" lon="6.77212">
        <ele>373</ele>
        <time>2016-08-24T15:10:09.000Z</time>
      </trkpt>
      <trkpt lat="47.54204" lon="6.77208">
        <ele>373</ele>
        <time>2016-08-24T15:10:10.000Z</time>
      </trkpt>
      <trkpt lat="47.54204" lon="6.77204">
        <ele>373</ele>
        <time>2016-08-24T15:10:11.000Z</time>
      </trkpt>
      <trkpt lat="47.54204" lon="6.772">
        <ele>373</ele>
        <time>2016-08-24T15:10:12.000Z</time>
      </trkpt>
      <trkpt lat="47.54204" lon="6.77195">
        <ele>373</ele>
        <time>2016-08-24T15:10:13.000Z</time>
      </trkpt>
      <trkpt lat="47.54203" lon="6.77192">
        <ele>374</ele>
        <time>2016-08-24T15:10:14.000Z</time>
      </trkpt>
      <trkpt lat="47.54201" lon="6.77188">
        <ele>374</ele>
        <time>2016-08-24T15:10:15.000Z</time>
      </trkpt>
      <trkpt lat="47.54199" lon="6.77185">
        <ele>374</ele>
        <time>2016-08-24T15:10:16.000Z</time>
      </trkpt>
      <trkpt lat="47.54197" lon="6.77182">
        <ele>375</ele>
        <time>2016-08-24T15:10:17.000Z</time>
      </trkpt>
      <trkpt lat="47.54196" lon="6.77179">
        <ele>375</ele>
        <time>2016-08-24T15:10:18.000Z</time>
      </trkpt>
      <trkpt lat="47.54195" lon="6.77175">
        <ele>375</ele>
        <time>2016-08-24T15:10:19.000Z</time>
      </trkpt>
      <trkpt lat="47.54195" lon="6.77172">
        <ele>376</ele>
        <time>2016-08-24T15:10:20.000Z</time>
      </trkpt>
      <trkpt lat="47.54194" lon="6.77168">
        <ele>376</ele>
        <time>2016-08-24T15:10:21.000Z</time>
      </trkpt>
      <trkpt lat="47.54193" lon="6.77165">
        <ele>377</ele>
        <time>2016-08-24T15:10:22.000Z</time>
      </trkpt>
      <trkpt lat="47.54192" lon="6.77161">
        <ele>377</ele>
        <time>2016-08-24T15:10:23.000Z</time>
      </trkpt>
      <trkpt lat="47.5419" lon="6.77158">
        <ele>377</ele>
        <time>2016-08-24T15:10:24.000Z</time>
      </trkpt>
      <trkpt lat="47.54189" lon="6.77155">
        <ele>377</ele>
        <time>2016-08-24T15:10:25.000Z</time>
      </trkpt>
      <trkpt lat="47.54187" lon="6.77149">
        <ele>377</ele>
        <time>2016-08-24T15:10:27.000Z</time>
      </trkpt>
      <trkpt lat="47.54187" lon="6.77146">
        <ele>377</ele>
        <time>2016-08-24T15:10:28.000Z</time>
      </trkpt>
      <trkpt lat="47.54186" lon="6.77142">
        <ele>377</ele>
        <time>2016-08-24T15:10:29.000Z</time>
      </trkpt>
      <trkpt lat="47.54185" lon="6.77139">
        <ele>377</ele>
        <time>2016-08-24T15:10:30.000Z</time>
      </trkpt>
      <trkpt lat="47.54185" lon="6.77134">
        <ele>377</ele>
        <time>2016-08-24T15:10:31.000Z</time>
      </trkpt>
      <trkpt lat="47.54184" lon="6.7713">
        <ele>377</ele>
        <time>2016-08-24T15:10:32.000Z</time>
      </trkpt>
      <trkpt lat="47.54184" lon="6.77125">
        <ele>377</ele>
        <time>2016-08-24T15:10:33.000Z</time>
      </trkpt>
      <trkpt lat="47.54183" lon="6.77119">
        <ele>377</ele>
        <time>2016-08-24T15:10:34.000Z</time>
      </trkpt>
      <trkpt lat="47.54182" lon="6.77113">
        <ele>377</ele>
        <time>2016-08-24T15:10:35.000Z</time>
      </trkpt>
      <trkpt lat="47.54182" lon="6.77107">
        <ele>377</ele>
        <time>2016-08-24T15:10:36.000Z</time>
      </trkpt>
      <trkpt lat="47.54181" lon="6.77102">
        <ele>378</ele>
        <time>2016-08-24T15:10:37.000Z</time>
      </trkpt>
      <trkpt lat="47.54181" lon="6.77097">
        <ele>378</ele>
        <time>2016-08-24T15:10:38.000Z</time>
      </trkpt>
      <trkpt lat="47.54181" lon="6.77092">
        <ele>379</ele>
        <time>2016-08-24T15:10:39.000Z</time>
      </trkpt>
      <trkpt lat="47.5418" lon="6.77087">
        <ele>380</ele>
        <time>2016-08-24T15:10:40.000Z</time>
      </trkpt>
      <trkpt lat="47.54179" lon="6.77082">
        <ele>381</ele>
        <time>2016-08-24T15:10:41.000Z</time>
      </trkpt>
      <trkpt lat="47.54177" lon="6.77078">
        <ele>381</ele>
        <time>2016-08-24T15:10:42.000Z</time>
      </trkpt>
      <trkpt lat="47.54175" lon="6.77074">
        <ele>381</ele>
        <time>2016-08-24T15:10:43.000Z</time>
      </trkpt>
      <trkpt lat="47.54173" lon="6.77069">
        <ele>381</ele>
        <time>2016-08-24T15:10:44.000Z</time>
      </trkpt>
      <trkpt lat="47.54172" lon="6.77064">
        <ele>380</ele>
        <time>2016-08-24T15:10:45.000Z</time>
      </trkpt>
      <trkpt lat="47.54171" lon="6.77059">
        <ele>380</ele>
        <time>2016-08-24T15:10:46.000Z</time>
      </trkpt>
      <trkpt lat="47.54171" lon="6.77055">
        <ele>380</ele>
        <time>2016-08-24T15:10:47.000Z</time>
      </trkpt>
      <trkpt lat="47.54171" lon="6.77052">
        <ele>380</ele>
        <time>2016-08-24T15:10:48.000Z</time>
      </trkpt>
      <trkpt lat="47.5417" lon="6.77048">
        <ele>380</ele>
        <time>2016-08-24T15:10:49.000Z</time>
      </trkpt>
      <trkpt lat="47.54169" lon="6.77043">
        <ele>380</ele>
        <time>2016-08-24T15:10:50.000Z</time>
      </trkpt>
      <trkpt lat="47.54169" lon="6.77038">
        <ele>380</ele>
        <time>2016-08-24T15:10:51.000Z</time>
      </trkpt>
      <trkpt lat="47.54168" lon="6.77033">
        <ele>380</ele>
        <time>2016-08-24T15:10:52.000Z</time>
      </trkpt>
      <trkpt lat="47.54169" lon="6.77029">
        <ele>380</ele>
        <time>2016-08-24T15:10:53.000Z</time>
      </trkpt>
      <trkpt lat="47.5417" lon="6.77024">
        <ele>380</ele>
        <time>2016-08-24T15:10:54.000Z</time>
      </trkpt>
      <trkpt lat="47.54171" lon="6.77019">
        <ele>381</ele>
        <time>2016-08-24T15:10:55.000Z</time>
      </trkpt>
      <trkpt lat="47.54173" lon="6.77014">
        <ele>381</ele>
        <time>2016-08-24T15:10:56.000Z</time>
      </trkpt>
      <trkpt lat="47.54174" lon="6.77009">
        <ele>382</ele>
        <time>2016-08-24T15:10:57.000Z</time>
      </trkpt>
      <trkpt lat="47.54176" lon="6.77006">
        <ele>382</ele>
        <time>2016-08-24T15:10:58.000Z</time>
      </trkpt>
      <trkpt lat="47.54184" lon="6.77007">
        <ele>380</ele>
        <time>2016-08-24T15:10:59.000Z</time>
      </trkpt>
      <trkpt lat="47.54187" lon="6.77004">
        <ele>380</ele>
        <time>2016-08-24T15:11:00.000Z</time>
      </trkpt>
      <trkpt lat="47.54191" lon="6.77003">
        <ele>380</ele>
        <time>2016-08-24T15:11:01.000Z</time>
      </trkpt>
      <trkpt lat="47.54194" lon="6.77004">
        <ele>379</ele>
        <time>2016-08-24T15:11:02.000Z</time>
      </trkpt>
      <trkpt lat="47.54196" lon="6.77003">
        <ele>379</ele>
        <time>2016-08-24T15:11:03.000Z</time>
      </trkpt>
      <trkpt lat="47.54199" lon="6.77007">
        <ele>379</ele>
        <time>2016-08-24T15:11:06.000Z</time>
      </trkpt>
      <trkpt lat="47.542" lon="6.77008">
        <ele>379</ele>
        <time>2016-08-24T15:11:07.000Z</time>
      </trkpt>
      <trkpt lat="47.54203" lon="6.7701">
        <ele>378</ele>
        <time>2016-08-24T15:11:10.000Z</time>
      </trkpt>
      <trkpt lat="47.54205" lon="6.77013">
        <ele>378</ele>
        <time>2016-08-24T15:11:11.000Z</time>
      </trkpt>
      <trkpt lat="47.54207" lon="6.77016">
        <ele>378</ele>
        <time>2016-08-24T15:11:12.000Z</time>
      </trkpt>
      <trkpt lat="47.5421" lon="6.77019">
        <ele>378</ele>
        <time>2016-08-24T15:11:13.000Z</time>
      </trkpt>
      <trkpt lat="47.54213" lon="6.77023">
        <ele>377</ele>
        <time>2016-08-24T15:11:14.000Z</time>
      </trkpt>
      <trkpt lat="47.54218" lon="6.77028">
        <ele>377</ele>
        <time>2016-08-24T15:11:15.000Z</time>
      </trkpt>
      <trkpt lat="47.54222" lon="6.77032">
        <ele>376</ele>
        <time>2016-08-24T15:11:16.000Z</time>
      </trkpt>
      <trkpt lat="47.54227" lon="6.77036">
        <ele>376</ele>
        <time>2016-08-24T15:11:17.000Z</time>
      </trkpt>
      <trkpt lat="47.54246" lon="6.77045">
        <ele>374</ele>
        <time>2016-08-24T15:11:18.000Z</time>
      </trkpt>
      <trkpt lat="47.54257" lon="6.77048">
        <ele>368</ele>
        <time>2016-08-24T15:11:19.000Z</time>
      </trkpt>
      <trkpt lat="47.54269" lon="6.7705">
        <ele>367</ele>
        <time>2016-08-24T15:11:20.000Z</time>
      </trkpt>
      <trkpt lat="47.54283" lon="6.77051">
        <ele>367</ele>
        <time>2016-08-24T15:11:21.000Z</time>
      </trkpt>
      <trkpt lat="47.54293" lon="6.77048">
        <ele>367</ele>
        <time>2016-08-24T15:11:22.000Z</time>
      </trkpt>
      <trkpt lat="47.54305" lon="6.77045">
        <ele>367</ele>
        <time>2016-08-24T15:11:23.000Z</time>
      </trkpt>
      <trkpt lat="47.54312" lon="6.77042">
        <ele>367</ele>
        <time>2016-08-24T15:11:24.000Z</time>
      </trkpt>
      <trkpt lat="47.54321" lon="6.77042">
        <ele>366</ele>
        <time>2016-08-24T15:11:25.000Z</time>
      </trkpt>
      <trkpt lat="47.54333" lon="6.77039">
        <ele>367</ele>
        <time>2016-08-24T15:11:26.000Z</time>
      </trkpt>
      <trkpt lat="47.54341" lon="6.77033">
        <ele>364</ele>
        <time>2016-08-24T15:11:27.000Z</time>
      </trkpt>
      <trkpt lat="47.5435" lon="6.7703">
        <ele>364</ele>
        <time>2016-08-24T15:11:28.000Z</time>
      </trkpt>
      <trkpt lat="47.54357" lon="6.77024">
        <ele>364</ele>
        <time>2016-08-24T15:11:29.000Z</time>
      </trkpt>
      <trkpt lat="47.54363" lon="6.77022">
        <ele>364</ele>
        <time>2016-08-24T15:11:30.000Z</time>
      </trkpt>
      <trkpt lat="47.54369" lon="6.7702">
        <ele>363</ele>
        <time>2016-08-24T15:11:31.000Z</time>
      </trkpt>
      <trkpt lat="47.54375" lon="6.77017">
        <ele>363</ele>
        <time>2016-08-24T15:11:32.000Z</time>
      </trkpt>
      <trkpt lat="47.54381" lon="6.77013">
        <ele>363</ele>
        <time>2016-08-24T15:11:33.000Z</time>
      </trkpt>
      <trkpt lat="47.54387" lon="6.77007">
        <ele>363</ele>
        <time>2016-08-24T15:11:34.000Z</time>
      </trkpt>
      <trkpt lat="47.54392" lon="6.77003">
        <ele>363</ele>
        <time>2016-08-24T15:11:35.000Z</time>
      </trkpt>
      <trkpt lat="47.54397" lon="6.77">
        <ele>371</ele>
        <time>2016-08-24T15:11:36.000Z</time>
      </trkpt>
      <trkpt lat="47.54402" lon="6.76995">
        <ele>370</ele>
        <time>2016-08-24T15:11:37.000Z</time>
      </trkpt>
      <trkpt lat="47.54406" lon="6.76994">
        <ele>369</ele>
        <time>2016-08-24T15:11:38.000Z</time>
      </trkpt>
      <trkpt lat="47.54411" lon="6.76991">
        <ele>369</ele>
        <time>2016-08-24T15:11:39.000Z</time>
      </trkpt>
      <trkpt lat="47.54416" lon="6.76986">
        <ele>369</ele>
        <time>2016-08-24T15:11:40.000Z</time>
      </trkpt>
      <trkpt lat="47.54421" lon="6.76982">
        <ele>365</ele>
        <time>2016-08-24T15:11:41.000Z</time>
      </trkpt>
      <trkpt lat="47.54426" lon="6.7698">
        <ele>365</ele>
        <time>2016-08-24T15:11:42.000Z</time>
      </trkpt>
      <trkpt lat="47.54431" lon="6.76977">
        <ele>366</ele>
        <time>2016-08-24T15:11:43.000Z</time>
      </trkpt>
      <trkpt lat="47.54435" lon="6.76972">
        <ele>366</ele>
        <time>2016-08-24T15:11:44.000Z</time>
      </trkpt>
      <trkpt lat="47.5444" lon="6.76967">
        <ele>366</ele>
        <time>2016-08-24T15:11:45.000Z</time>
      </trkpt>
      <trkpt lat="47.54444" lon="6.76963">
        <ele>366</ele>
        <time>2016-08-24T15:11:46.000Z</time>
      </trkpt>
      <trkpt lat="47.54448" lon="6.76959">
        <ele>366</ele>
        <time>2016-08-24T15:11:47.000Z</time>
      </trkpt>
      <trkpt lat="47.54453" lon="6.76953">
        <ele>366</ele>
        <time>2016-08-24T15:11:48.000Z</time>
      </trkpt>
      <trkpt lat="47.54457" lon="6.76949">
        <ele>366</ele>
        <time>2016-08-24T15:11:49.000Z</time>
      </trkpt>
      <trkpt lat="47.54461" lon="6.76946">
        <ele>366</ele>
        <time>2016-08-24T15:11:50.000Z</time>
      </trkpt>
      <trkpt lat="47.54465" lon="6.76942">
        <ele>366</ele>
        <time>2016-08-24T15:11:51.000Z</time>
      </trkpt>
      <trkpt lat="47.5447" lon="6.76939">
        <ele>366</ele>
        <time>2016-08-24T15:11:52.000Z</time>
      </trkpt>
      <trkpt lat="47.54474" lon="6.76936">
        <ele>366</ele>
        <time>2016-08-24T15:11:53.000Z</time>
      </trkpt>
      <trkpt lat="47.54478" lon="6.76933">
        <ele>365</ele>
        <time>2016-08-24T15:11:54.000Z</time>
      </trkpt>
      <trkpt lat="47.54482" lon="6.7693">
        <ele>365</ele>
        <time>2016-08-24T15:11:55.000Z</time>
      </trkpt>
      <trkpt lat="47.54488" lon="6.76927">
        <ele>365</ele>
        <time>2016-08-24T15:11:56.000Z</time>
      </trkpt>
      <trkpt lat="47.54492" lon="6.76923">
        <ele>365</ele>
        <time>2016-08-24T15:11:57.000Z</time>
      </trkpt>
      <trkpt lat="47.54497" lon="6.7692">
        <ele>364</ele>
        <time>2016-08-24T15:11:58.000Z</time>
      </trkpt>
      <trkpt lat="47.54501" lon="6.76917">
        <ele>364</ele>
        <time>2016-08-24T15:11:59.000Z</time>
      </trkpt>
      <trkpt lat="47.54506" lon="6.76916">
        <ele>364</ele>
        <time>2016-08-24T15:12:00.000Z</time>
      </trkpt>
      <trkpt lat="47.5451" lon="6.76912">
        <ele>365</ele>
        <time>2016-08-24T15:12:01.000Z</time>
      </trkpt>
      <trkpt lat="47.54515" lon="6.76905">
        <ele>365</ele>
        <time>2016-08-24T15:12:02.000Z</time>
      </trkpt>
      <trkpt lat="47.5452" lon="6.76898">
        <ele>365</ele>
        <time>2016-08-24T15:12:03.000Z</time>
      </trkpt>
      <trkpt lat="47.54524" lon="6.76894">
        <ele>365</ele>
        <time>2016-08-24T15:12:04.000Z</time>
      </trkpt>
      <trkpt lat="47.54529" lon="6.76889">
        <ele>366</ele>
        <time>2016-08-24T15:12:05.000Z</time>
      </trkpt>
      <trkpt lat="47.54533" lon="6.76885">
        <ele>366</ele>
        <time>2016-08-24T15:12:06.000Z</time>
      </trkpt>
      <trkpt lat="47.54537" lon="6.76881">
        <ele>366</ele>
        <time>2016-08-24T15:12:07.000Z</time>
      </trkpt>
      <trkpt lat="47.54541" lon="6.76876">
        <ele>366</ele>
        <time>2016-08-24T15:12:08.000Z</time>
      </trkpt>
      <trkpt lat="47.54545" lon="6.76872">
        <ele>366</ele>
        <time>2016-08-24T15:12:09.000Z</time>
      </trkpt>
      <trkpt lat="47.54548" lon="6.76869">
        <ele>366</ele>
        <time>2016-08-24T15:12:10.000Z</time>
      </trkpt>
      <trkpt lat="47.54551" lon="6.7687">
        <ele>365</ele>
        <time>2016-08-24T15:12:11.000Z</time>
      </trkpt>
      <trkpt lat="47.54554" lon="6.76867">
        <ele>365</ele>
        <time>2016-08-24T15:12:12.000Z</time>
      </trkpt>
      <trkpt lat="47.54557" lon="6.76865">
        <ele>365</ele>
        <time>2016-08-24T15:12:13.000Z</time>
      </trkpt>
      <trkpt lat="47.5456" lon="6.76863">
        <ele>365</ele>
        <time>2016-08-24T15:12:14.000Z</time>
      </trkpt>
      <trkpt lat="47.54563" lon="6.76861">
        <ele>365</ele>
        <time>2016-08-24T15:12:15.000Z</time>
      </trkpt>
      <trkpt lat="47.54567" lon="6.76859">
        <ele>365</ele>
        <time>2016-08-24T15:12:16.000Z</time>
      </trkpt>
      <trkpt lat="47.5457" lon="6.76858">
        <ele>365</ele>
        <time>2016-08-24T15:12:17.000Z</time>
      </trkpt>
      <trkpt lat="47.54572" lon="6.76854">
        <ele>365</ele>
        <time>2016-08-24T15:12:18.000Z</time>
      </trkpt>
      <trkpt lat="47.54576" lon="6.76852">
        <ele>365</ele>
        <time>2016-08-24T15:12:19.000Z</time>
      </trkpt>
      <trkpt lat="47.54579" lon="6.7685">
        <ele>365</ele>
        <time>2016-08-24T15:12:20.000Z</time>
      </trkpt>
      <trkpt lat="47.54582" lon="6.76848">
        <ele>365</ele>
        <time>2016-08-24T15:12:21.000Z</time>
      </trkpt>
      <trkpt lat="47.54585" lon="6.76846">
        <ele>363</ele>
        <time>2016-08-24T15:12:22.000Z</time>
      </trkpt>
      <trkpt lat="47.54588" lon="6.76844">
        <ele>363</ele>
        <time>2016-08-24T15:12:23.000Z</time>
      </trkpt>
      <trkpt lat="47.54592" lon="6.7684">
        <ele>363</ele>
        <time>2016-08-24T15:12:24.000Z</time>
      </trkpt>
      <trkpt lat="47.54595" lon="6.76836">
        <ele>363</ele>
        <time>2016-08-24T15:12:25.000Z</time>
      </trkpt>
      <trkpt lat="47.54597" lon="6.76832">
        <ele>364</ele>
        <time>2016-08-24T15:12:26.000Z</time>
      </trkpt>
      <trkpt lat="47.54599" lon="6.76827">
        <ele>364</ele>
        <time>2016-08-24T15:12:27.000Z</time>
      </trkpt>
      <trkpt lat="47.54601" lon="6.76823">
        <ele>365</ele>
        <time>2016-08-24T15:12:28.000Z</time>
      </trkpt>
      <trkpt lat="47.54601" lon="6.7682">
        <ele>365</ele>
        <time>2016-08-24T15:12:29.000Z</time>
      </trkpt>
      <trkpt lat="47.54601" lon="6.76816">
        <ele>365</ele>
        <time>2016-08-24T15:12:30.000Z</time>
      </trkpt>
      <trkpt lat="47.54601" lon="6.76811">
        <ele>365</ele>
        <time>2016-08-24T15:12:31.000Z</time>
      </trkpt>
      <trkpt lat="47.54601" lon="6.76807">
        <ele>365</ele>
        <time>2016-08-24T15:12:32.000Z</time>
      </trkpt>
      <trkpt lat="47.54601" lon="6.76802">
        <ele>365</ele>
        <time>2016-08-24T15:12:33.000Z</time>
      </trkpt>
      <trkpt lat="47.546" lon="6.76798">
        <ele>365</ele>
        <time>2016-08-24T15:12:34.000Z</time>
      </trkpt>
      <trkpt lat="47.54599" lon="6.76793">
        <ele>366</ele>
        <time>2016-08-24T15:12:35.000Z</time>
      </trkpt>
      <trkpt lat="47.54597" lon="6.76789">
        <ele>366</ele>
        <time>2016-08-24T15:12:36.000Z</time>
      </trkpt>
      <trkpt lat="47.54596" lon="6.76785">
        <ele>366</ele>
        <time>2016-08-24T15:12:37.000Z</time>
      </trkpt>
      <trkpt lat="47.54596" lon="6.76779">
        <ele>366</ele>
        <time>2016-08-24T15:12:39.000Z</time>
      </trkpt>
      <trkpt lat="47.54596" lon="6.76776">
        <ele>366</ele>
        <time>2016-08-24T15:12:40.000Z</time>
      </trkpt>
      <trkpt lat="47.54596" lon="6.76772">
        <ele>367</ele>
        <time>2016-08-24T15:12:41.000Z</time>
      </trkpt>
      <trkpt lat="47.54596" lon="6.76768">
        <ele>367</ele>
        <time>2016-08-24T15:12:42.000Z</time>
      </trkpt>
      <trkpt lat="47.54595" lon="6.76763">
        <ele>367</ele>
        <time>2016-08-24T15:12:43.000Z</time>
      </trkpt>
      <trkpt lat="47.54594" lon="6.76758">
        <ele>368</ele>
        <time>2016-08-24T15:12:44.000Z</time>
      </trkpt>
      <trkpt lat="47.54593" lon="6.76753">
        <ele>368</ele>
        <time>2016-08-24T15:12:45.000Z</time>
      </trkpt>
      <trkpt lat="47.54591" lon="6.76748">
        <ele>369</ele>
        <time>2016-08-24T15:12:46.000Z</time>
      </trkpt>
      <trkpt lat="47.5459" lon="6.76744">
        <ele>369</ele>
        <time>2016-08-24T15:12:47.000Z</time>
      </trkpt>
      <trkpt lat="47.54589" lon="6.7674">
        <ele>369</ele>
        <time>2016-08-24T15:12:48.000Z</time>
      </trkpt>
      <trkpt lat="47.54588" lon="6.76737">
        <ele>369</ele>
        <time>2016-08-24T15:12:49.000Z</time>
      </trkpt>
      <trkpt lat="47.54587" lon="6.76733">
        <ele>369</ele>
        <time>2016-08-24T15:12:50.000Z</time>
      </trkpt>
      <trkpt lat="47.54586" lon="6.76729">
        <ele>369</ele>
        <time>2016-08-24T15:12:51.000Z</time>
      </trkpt>
      <trkpt lat="47.54586" lon="6.76726">
        <ele>369</ele>
        <time>2016-08-24T15:12:52.000Z</time>
      </trkpt>
      <trkpt lat="47.54585" lon="6.76722">
        <ele>368</ele>
        <time>2016-08-24T15:12:53.000Z</time>
      </trkpt>
      <trkpt lat="47.54585" lon="6.76719">
        <ele>368</ele>
        <time>2016-08-24T15:12:54.000Z</time>
      </trkpt>
      <trkpt lat="47.54585" lon="6.76715">
        <ele>368</ele>
        <time>2016-08-24T15:12:55.000Z</time>
      </trkpt>
      <trkpt lat="47.54584" lon="6.76712">
        <ele>368</ele>
        <time>2016-08-24T15:12:56.000Z</time>
      </trkpt>
      <trkpt lat="47.54585" lon="6.76707">
        <ele>368</ele>
        <time>2016-08-24T15:12:58.000Z</time>
      </trkpt>
      <trkpt lat="47.54587" lon="6.76706">
        <ele>368</ele>
        <time>2016-08-24T15:12:59.000Z</time>
      </trkpt>
      <trkpt lat="47.54591" lon="6.76705">
        <ele>368</ele>
        <time>2016-08-24T15:13:00.000Z</time>
      </trkpt>
      <trkpt lat="47.54595" lon="6.76706">
        <ele>368</ele>
        <time>2016-08-24T15:13:01.000Z</time>
      </trkpt>
      <trkpt lat="47.54599" lon="6.76708">
        <ele>368</ele>
        <time>2016-08-24T15:13:02.000Z</time>
      </trkpt>
      <trkpt lat="47.54603" lon="6.76709">
        <ele>368</ele>
        <time>2016-08-24T15:13:03.000Z</time>
      </trkpt>
      <trkpt lat="47.54607" lon="6.76711">
        <ele>368</ele>
        <time>2016-08-24T15:13:04.000Z</time>
      </trkpt>
      <trkpt lat="47.54611" lon="6.76713">
        <ele>368</ele>
        <time>2016-08-24T15:13:05.000Z</time>
      </trkpt>
      <trkpt lat="47.54614" lon="6.76715">
        <ele>368</ele>
        <time>2016-08-24T15:13:06.000Z</time>
      </trkpt>
      <trkpt lat="47.54618" lon="6.76718">
        <ele>368</ele>
        <time>2016-08-24T15:13:07.000Z</time>
      </trkpt>
      <trkpt lat="47.54622" lon="6.7672">
        <ele>368</ele>
        <time>2016-08-24T15:13:08.000Z</time>
      </trkpt>
      <trkpt lat="47.54625" lon="6.76722">
        <ele>368</ele>
        <time>2016-08-24T15:13:09.000Z</time>
      </trkpt>
      <trkpt lat="47.54629" lon="6.76724">
        <ele>368</ele>
        <time>2016-08-24T15:13:10.000Z</time>
      </trkpt>
      <trkpt lat="47.54635" lon="6.76723">
        <ele>367</ele>
        <time>2016-08-24T15:13:11.000Z</time>
      </trkpt>
      <trkpt lat="47.54639" lon="6.76725">
        <ele>367</ele>
        <time>2016-08-24T15:13:12.000Z</time>
      </trkpt>
      <trkpt lat="47.54644" lon="6.76726">
        <ele>367</ele>
        <time>2016-08-24T15:13:13.000Z</time>
      </trkpt>
      <trkpt lat="47.54648" lon="6.76727">
        <ele>367</ele>
        <time>2016-08-24T15:13:14.000Z</time>
      </trkpt>
      <trkpt lat="47.54652" lon="6.76728">
        <ele>367</ele>
        <time>2016-08-24T15:13:15.000Z</time>
      </trkpt>
      <trkpt lat="47.54657" lon="6.76731">
        <ele>366</ele>
        <time>2016-08-24T15:13:16.000Z</time>
      </trkpt>
      <trkpt lat="47.54661" lon="6.76732">
        <ele>366</ele>
        <time>2016-08-24T15:13:17.000Z</time>
      </trkpt>
      <trkpt lat="47.54665" lon="6.76734">
        <ele>366</ele>
        <time>2016-08-24T15:13:18.000Z</time>
      </trkpt>
      <trkpt lat="47.5467" lon="6.76735">
        <ele>365</ele>
        <time>2016-08-24T15:13:19.000Z</time>
      </trkpt>
      <trkpt lat="47.54674" lon="6.76735">
        <ele>365</ele>
        <time>2016-08-24T15:13:20.000Z</time>
      </trkpt>
      <trkpt lat="47.54678" lon="6.76737">
        <ele>365</ele>
        <time>2016-08-24T15:13:21.000Z</time>
      </trkpt>
      <trkpt lat="47.54681" lon="6.76737">
        <ele>365</ele>
        <time>2016-08-24T15:13:22.000Z</time>
      </trkpt>
      <trkpt lat="47.54685" lon="6.76738">
        <ele>366</ele>
        <time>2016-08-24T15:13:23.000Z</time>
      </trkpt>
      <trkpt lat="47.54688" lon="6.76739">
        <ele>366</ele>
        <time>2016-08-24T15:13:24.000Z</time>
      </trkpt>
      <trkpt lat="47.54692" lon="6.76739">
        <ele>366</ele>
        <time>2016-08-24T15:13:25.000Z</time>
      </trkpt>
      <trkpt lat="47.54696" lon="6.76739">
        <ele>366</ele>
        <time>2016-08-24T15:13:26.000Z</time>
      </trkpt>
      <trkpt lat="47.547" lon="6.7674">
        <ele>366</ele>
        <time>2016-08-24T15:13:27.000Z</time>
      </trkpt>
      <trkpt lat="47.54703" lon="6.7674">
        <ele>366</ele>
        <time>2016-08-24T15:13:28.000Z</time>
      </trkpt>
      <trkpt lat="47.54706" lon="6.7674">
        <ele>366</ele>
        <time>2016-08-24T15:13:29.000Z</time>
      </trkpt>
      <trkpt lat="47.54709" lon="6.76741">
        <ele>366</ele>
        <time>2016-08-24T15:13:30.000Z</time>
      </trkpt>
      <trkpt lat="47.54712" lon="6.76741">
        <ele>366</ele>
        <time>2016-08-24T15:13:31.000Z</time>
      </trkpt>
      <trkpt lat="47.54716" lon="6.76742">
        <ele>366</ele>
        <time>2016-08-24T15:13:32.000Z</time>
      </trkpt>
      <trkpt lat="47.54719" lon="6.76742">
        <ele>366</ele>
        <time>2016-08-24T15:13:33.000Z</time>
      </trkpt>
      <trkpt lat="47.54722" lon="6.76742">
        <ele>366</ele>
        <time>2016-08-24T15:13:34.000Z</time>
      </trkpt>
      <trkpt lat="47.54726" lon="6.76741">
        <ele>366</ele>
        <time>2016-08-24T15:13:35.000Z</time>
      </trkpt>
      <trkpt lat="47.54729" lon="6.76741">
        <ele>366</ele>
        <time>2016-08-24T15:13:36.000Z</time>
      </trkpt>
      <trkpt lat="47.54732" lon="6.76741">
        <ele>366</ele>
        <time>2016-08-24T15:13:37.000Z</time>
      </trkpt>
      <trkpt lat="47.54736" lon="6.7674">
        <ele>366</ele>
        <time>2016-08-24T15:13:38.000Z</time>
      </trkpt>
      <trkpt lat="47.5474" lon="6.7674">
        <ele>366</ele>
        <time>2016-08-24T15:13:39.000Z</time>
      </trkpt>
      <trkpt lat="47.54744" lon="6.76739">
        <ele>366</ele>
        <time>2016-08-24T15:13:40.000Z</time>
      </trkpt>
      <trkpt lat="47.54748" lon="6.76738">
        <ele>366</ele>
        <time>2016-08-24T15:13:41.000Z</time>
      </trkpt>
      <trkpt lat="47.54755" lon="6.76736">
        <ele>364</ele>
        <time>2016-08-24T15:13:42.000Z</time>
      </trkpt>
      <trkpt lat="47.54759" lon="6.76736">
        <ele>364</ele>
        <time>2016-08-24T15:13:43.000Z</time>
      </trkpt>
      <trkpt lat="47.54764" lon="6.76734">
        <ele>364</ele>
        <time>2016-08-24T15:13:44.000Z</time>
      </trkpt>
      <trkpt lat="47.5477" lon="6.76732">
        <ele>364</ele>
        <time>2016-08-24T15:13:45.000Z</time>
      </trkpt>
      <trkpt lat="47.54775" lon="6.76732">
        <ele>363</ele>
        <time>2016-08-24T15:13:46.000Z</time>
      </trkpt>
      <trkpt lat="47.54781" lon="6.76731">
        <ele>363</ele>
        <time>2016-08-24T15:13:47.000Z</time>
      </trkpt>
      <trkpt lat="47.54786" lon="6.76731">
        <ele>363</ele>
        <time>2016-08-24T15:13:48.000Z</time>
      </trkpt>
      <trkpt lat="47.54792" lon="6.7673">
        <ele>362</ele>
        <time>2016-08-24T15:13:49.000Z</time>
      </trkpt>
      <trkpt lat="47.54798" lon="6.76728">
        <ele>362</ele>
        <time>2016-08-24T15:13:50.000Z</time>
      </trkpt>
      <trkpt lat="47.54805" lon="6.76727">
        <ele>362</ele>
        <time>2016-08-24T15:13:51.000Z</time>
      </trkpt>
      <trkpt lat="47.54811" lon="6.76726">
        <ele>361</ele>
        <time>2016-08-24T15:13:52.000Z</time>
      </trkpt>
      <trkpt lat="47.54817" lon="6.76726">
        <ele>361</ele>
        <time>2016-08-24T15:13:53.000Z</time>
      </trkpt>
      <trkpt lat="47.54822" lon="6.76722">
        <ele>361</ele>
        <time>2016-08-24T15:13:54.000Z</time>
      </trkpt>
      <trkpt lat="47.54828" lon="6.76716">
        <ele>361</ele>
        <time>2016-08-24T15:13:55.000Z</time>
      </trkpt>
      <trkpt lat="47.54831" lon="6.76708">
        <ele>361</ele>
        <time>2016-08-24T15:13:56.000Z</time>
      </trkpt>
      <trkpt lat="47.54834" lon="6.767">
        <ele>356</ele>
        <time>2016-08-24T15:13:57.000Z</time>
      </trkpt>
      <trkpt lat="47.54837" lon="6.76691">
        <ele>357</ele>
        <time>2016-08-24T15:13:58.000Z</time>
      </trkpt>
      <trkpt lat="47.54839" lon="6.76682">
        <ele>357</ele>
        <time>2016-08-24T15:13:59.000Z</time>
      </trkpt>
      <trkpt lat="47.54842" lon="6.76674">
        <ele>358</ele>
        <time>2016-08-24T15:14:00.000Z</time>
      </trkpt>
      <trkpt lat="47.54846" lon="6.76667">
        <ele>357</ele>
        <time>2016-08-24T15:14:01.000Z</time>
      </trkpt>
      <trkpt lat="47.54851" lon="6.76663">
        <ele>359</ele>
        <time>2016-08-24T15:14:02.000Z</time>
      </trkpt>
      <trkpt lat="47.54859" lon="6.76659">
        <ele>359</ele>
        <time>2016-08-24T15:14:03.000Z</time>
      </trkpt>
      <trkpt lat="47.54866" lon="6.76656">
        <ele>359</ele>
        <time>2016-08-24T15:14:04.000Z</time>
      </trkpt>
      <trkpt lat="47.54872" lon="6.76652">
        <ele>359</ele>
        <time>2016-08-24T15:14:05.000Z</time>
      </trkpt>
      <trkpt lat="47.54878" lon="6.7665">
        <ele>358</ele>
        <time>2016-08-24T15:14:06.000Z</time>
      </trkpt>
      <trkpt lat="47.54884" lon="6.76647">
        <ele>358</ele>
        <time>2016-08-24T15:14:06.998Z</time>
      </trkpt>
      <trkpt lat="47.54891" lon="6.76642">
        <ele>358</ele>
        <time>2016-08-24T15:14:08.000Z</time>
      </trkpt>
      <trkpt lat="47.54898" lon="6.76637">
        <ele>358</ele>
        <time>2016-08-24T15:14:09.000Z</time>
      </trkpt>
      <trkpt lat="47.54904" lon="6.76633">
        <ele>358</ele>
        <time>2016-08-24T15:14:10.000Z</time>
      </trkpt>
      <trkpt lat="47.5491" lon="6.7663">
        <ele>358</ele>
        <time>2016-08-24T15:14:11.000Z</time>
      </trkpt>
      <trkpt lat="47.54917" lon="6.76629">
        <ele>357</ele>
        <time>2016-08-24T15:14:12.000Z</time>
      </trkpt>
      <trkpt lat="47.54923" lon="6.76627">
        <ele>355</ele>
        <time>2016-08-24T15:14:13.000Z</time>
      </trkpt>
      <trkpt lat="47.54929" lon="6.76627">
        <ele>355</ele>
        <time>2016-08-24T15:14:14.000Z</time>
      </trkpt>
      <trkpt lat="47.54936" lon="6.76627">
        <ele>355</ele>
        <time>2016-08-24T15:14:15.000Z</time>
      </trkpt>
      <trkpt lat="47.54941" lon="6.76628">
        <ele>355</ele>
        <time>2016-08-24T15:14:16.000Z</time>
      </trkpt>
      <trkpt lat="47.54947" lon="6.76631">
        <ele>355</ele>
        <time>2016-08-24T15:14:17.000Z</time>
      </trkpt>
      <trkpt lat="47.54951" lon="6.76634">
        <ele>355</ele>
        <time>2016-08-24T15:14:18.000Z</time>
      </trkpt>
      <trkpt lat="47.54957" lon="6.76637">
        <ele>355</ele>
        <time>2016-08-24T15:14:19.000Z</time>
      </trkpt>
      <trkpt lat="47.54958" lon="6.76639">
        <ele>355</ele>
        <time>2016-08-24T15:14:20.000Z</time>
      </trkpt>
      <trkpt lat="47.54964" lon="6.76642">
        <ele>355</ele>
        <time>2016-08-24T15:14:21.000Z</time>
      </trkpt>
      <trkpt lat="47.54968" lon="6.76645">
        <ele>355</ele>
        <time>2016-08-24T15:14:22.000Z</time>
      </trkpt>
      <trkpt lat="47.54972" lon="6.76649">
        <ele>355</ele>
        <time>2016-08-24T15:14:23.000Z</time>
      </trkpt>
      <trkpt lat="47.54975" lon="6.76653">
        <ele>355</ele>
        <time>2016-08-24T15:14:24.000Z</time>
      </trkpt>
      <trkpt lat="47.54979" lon="6.76654">
        <ele>355</ele>
        <time>2016-08-24T15:14:25.000Z</time>
      </trkpt>
      <trkpt lat="47.54983" lon="6.76654">
        <ele>355</ele>
        <time>2016-08-24T15:14:26.000Z</time>
      </trkpt>
      <trkpt lat="47.54986" lon="6.76654">
        <ele>355</ele>
        <time>2016-08-24T15:14:27.000Z</time>
      </trkpt>
      <trkpt lat="47.5499" lon="6.76652">
        <ele>355</ele>
        <time>2016-08-24T15:14:28.000Z</time>
      </trkpt>
      <trkpt lat="47.54993" lon="6.76651">
        <ele>355</ele>
        <time>2016-08-24T15:14:29.000Z</time>
      </trkpt>
      <trkpt lat="47.54997" lon="6.76651">
        <ele>355</ele>
        <time>2016-08-24T15:14:30.000Z</time>
      </trkpt>
      <trkpt lat="47.55002" lon="6.76652">
        <ele>357</ele>
        <time>2016-08-24T15:14:31.000Z</time>
      </trkpt>
      <trkpt lat="47.55005" lon="6.7665">
        <ele>358</ele>
        <time>2016-08-24T15:14:32.000Z</time>
      </trkpt>
      <trkpt lat="47.55008" lon="6.76649">
        <ele>358</ele>
        <time>2016-08-24T15:14:33.000Z</time>
      </trkpt>
      <trkpt lat="47.55011" lon="6.76647">
        <ele>358</ele>
        <time>2016-08-24T15:14:34.000Z</time>
      </trkpt>
      <trkpt lat="47.55013" lon="6.76644">
        <ele>359</ele>
        <time>2016-08-24T15:14:35.000Z</time>
      </trkpt>
      <trkpt lat="47.55014" lon="6.7664">
        <ele>359</ele>
        <time>2016-08-24T15:14:36.000Z</time>
      </trkpt>
      <trkpt lat="47.55014" lon="6.76635">
        <ele>359</ele>
        <time>2016-08-24T15:14:37.000Z</time>
      </trkpt>
      <trkpt lat="47.55013" lon="6.7663">
        <ele>359</ele>
        <time>2016-08-24T15:14:38.000Z</time>
      </trkpt>
      <trkpt lat="47.55012" lon="6.76625">
        <ele>359</ele>
        <time>2016-08-24T15:14:39.000Z</time>
      </trkpt>
      <trkpt lat="47.5501" lon="6.7662">
        <ele>359</ele>
        <time>2016-08-24T15:14:40.000Z</time>
      </trkpt>
      <trkpt lat="47.55009" lon="6.76615">
        <ele>359</ele>
        <time>2016-08-24T15:14:41.000Z</time>
      </trkpt>
      <trkpt lat="47.55008" lon="6.7661">
        <ele>359</ele>
        <time>2016-08-24T15:14:42.000Z</time>
      </trkpt>
      <trkpt lat="47.55007" lon="6.76606">
        <ele>359</ele>
        <time>2016-08-24T15:14:43.000Z</time>
      </trkpt>
      <trkpt lat="47.55005" lon="6.76602">
        <ele>359</ele>
        <time>2016-08-24T15:14:44.000Z</time>
      </trkpt>
      <trkpt lat="47.55004" lon="6.76598">
        <ele>359</ele>
        <time>2016-08-24T15:14:45.000Z</time>
      </trkpt>
      <trkpt lat="47.55002" lon="6.76594">
        <ele>359</ele>
        <time>2016-08-24T15:14:46.000Z</time>
      </trkpt>
      <trkpt lat="47.55001" lon="6.7659">
        <ele>359</ele>
        <time>2016-08-24T15:14:47.000Z</time>
      </trkpt>
      <trkpt lat="47.55" lon="6.76586">
        <ele>358</ele>
        <time>2016-08-24T15:14:48.000Z</time>
      </trkpt>
      <trkpt lat="47.54998" lon="6.76583">
        <ele>358</ele>
        <time>2016-08-24T15:14:49.000Z</time>
      </trkpt>
      <trkpt lat="47.54997" lon="6.7658">
        <ele>359</ele>
        <time>2016-08-24T15:14:50.000Z</time>
      </trkpt>
      <trkpt lat="47.54995" lon="6.76576">
        <ele>359</ele>
        <time>2016-08-24T15:14:51.000Z</time>
      </trkpt>
      <trkpt lat="47.54993" lon="6.76572">
        <ele>359</ele>
        <time>2016-08-24T15:14:52.000Z</time>
      </trkpt>
      <trkpt lat="47.54992" lon="6.76568">
        <ele>359</ele>
        <time>2016-08-24T15:14:53.000Z</time>
      </trkpt>
      <trkpt lat="47.54991" lon="6.76564">
        <ele>360</ele>
        <time>2016-08-24T15:14:54.000Z</time>
      </trkpt>
      <trkpt lat="47.5499" lon="6.76561">
        <ele>360</ele>
        <time>2016-08-24T15:14:55.000Z</time>
      </trkpt>
      <trkpt lat="47.54988" lon="6.76555">
        <ele>360</ele>
        <time>2016-08-24T15:14:57.000Z</time>
      </trkpt>
      <trkpt lat="47.54988" lon="6.76552">
        <ele>360</ele>
        <time>2016-08-24T15:14:58.000Z</time>
      </trkpt>
      <trkpt lat="47.54988" lon="6.76548">
        <ele>360</ele>
        <time>2016-08-24T15:14:59.000Z</time>
      </trkpt>
      <trkpt lat="47.54988" lon="6.76543">
        <ele>360</ele>
        <time>2016-08-24T15:15:00.000Z</time>
      </trkpt>
      <trkpt lat="47.54988" lon="6.76539">
        <ele>361</ele>
        <time>2016-08-24T15:15:01.000Z</time>
      </trkpt>
      <trkpt lat="47.54989" lon="6.76535">
        <ele>361</ele>
        <time>2016-08-24T15:15:02.000Z</time>
      </trkpt>
      <trkpt lat="47.54988" lon="6.7653">
        <ele>361</ele>
        <time>2016-08-24T15:15:03.000Z</time>
      </trkpt>
      <trkpt lat="47.54988" lon="6.76526">
        <ele>361</ele>
        <time>2016-08-24T15:15:04.000Z</time>
      </trkpt>
      <trkpt lat="47.54987" lon="6.76522">
        <ele>361</ele>
        <time>2016-08-24T15:15:05.000Z</time>
      </trkpt>
      <trkpt lat="47.54986" lon="6.76518">
        <ele>361</ele>
        <time>2016-08-24T15:15:06.000Z</time>
      </trkpt>
      <trkpt lat="47.54986" lon="6.76513">
        <ele>361</ele>
        <time>2016-08-24T15:15:07.000Z</time>
      </trkpt>
      <trkpt lat="47.54985" lon="6.76508">
        <ele>361</ele>
        <time>2016-08-24T15:15:08.000Z</time>
      </trkpt>
      <trkpt lat="47.54985" lon="6.76503">
        <ele>361</ele>
        <time>2016-08-24T15:15:09.000Z</time>
      </trkpt>
      <trkpt lat="47.54985" lon="6.76498">
        <ele>362</ele>
        <time>2016-08-24T15:15:10.000Z</time>
      </trkpt>
      <trkpt lat="47.54985" lon="6.76494">
        <ele>362</ele>
        <time>2016-08-24T15:15:11.000Z</time>
      </trkpt>
      <trkpt lat="47.54985" lon="6.76489">
        <ele>363</ele>
        <time>2016-08-24T15:15:12.000Z</time>
      </trkpt>
      <trkpt lat="47.54986" lon="6.76484">
        <ele>363</ele>
        <time>2016-08-24T15:15:13.000Z</time>
      </trkpt>
      <trkpt lat="47.54987" lon="6.76479">
        <ele>363</ele>
        <time>2016-08-24T15:15:14.000Z</time>
      </trkpt>
      <trkpt lat="47.54988" lon="6.76473">
        <ele>363</ele>
        <time>2016-08-24T15:15:15.000Z</time>
      </trkpt>
      <trkpt lat="47.54991" lon="6.76463">
        <ele>363</ele>
        <time>2016-08-24T15:15:17.000Z</time>
      </trkpt>
      <trkpt lat="47.54992" lon="6.76458">
        <ele>363</ele>
        <time>2016-08-24T15:15:18.000Z</time>
      </trkpt>
      <trkpt lat="47.54994" lon="6.76453">
        <ele>363</ele>
        <time>2016-08-24T15:15:19.000Z</time>
      </trkpt>
      <trkpt lat="47.54996" lon="6.76448">
        <ele>363</ele>
        <time>2016-08-24T15:15:20.000Z</time>
      </trkpt>
      <trkpt lat="47.54998" lon="6.76444">
        <ele>363</ele>
        <time>2016-08-24T15:15:21.000Z</time>
      </trkpt>
      <trkpt lat="47.55001" lon="6.7644">
        <ele>363</ele>
        <time>2016-08-24T15:15:22.000Z</time>
      </trkpt>
      <trkpt lat="47.55003" lon="6.76436">
        <ele>363</ele>
        <time>2016-08-24T15:15:23.000Z</time>
      </trkpt>
      <trkpt lat="47.55006" lon="6.76433">
        <ele>363</ele>
        <time>2016-08-24T15:15:24.000Z</time>
      </trkpt>
      <trkpt lat="47.55009" lon="6.7643">
        <ele>363</ele>
        <time>2016-08-24T15:15:25.000Z</time>
      </trkpt>
      <trkpt lat="47.55011" lon="6.76427">
        <ele>363</ele>
        <time>2016-08-24T15:15:26.000Z</time>
      </trkpt>
      <trkpt lat="47.55014" lon="6.76424">
        <ele>363</ele>
        <time>2016-08-24T15:15:27.000Z</time>
      </trkpt>
      <trkpt lat="47.55016" lon="6.76421">
        <ele>363</ele>
        <time>2016-08-24T15:15:28.000Z</time>
      </trkpt>
      <trkpt lat="47.55019" lon="6.76417">
        <ele>363</ele>
        <time>2016-08-24T15:15:29.000Z</time>
      </trkpt>
      <trkpt lat="47.55021" lon="6.76414">
        <ele>365</ele>
        <time>2016-08-24T15:15:30.000Z</time>
      </trkpt>
      <trkpt lat="47.55022" lon="6.7641">
        <ele>365</ele>
        <time>2016-08-24T15:15:31.000Z</time>
      </trkpt>
      <trkpt lat="47.55024" lon="6.76407">
        <ele>366</ele>
        <time>2016-08-24T15:15:32.000Z</time>
      </trkpt>
      <trkpt lat="47.55026" lon="6.76404">
        <ele>366</ele>
        <time>2016-08-24T15:15:33.000Z</time>
      </trkpt>
      <trkpt lat="47.55028" lon="6.76401">
        <ele>366</ele>
        <time>2016-08-24T15:15:34.000Z</time>
      </trkpt>
      <trkpt lat="47.5503" lon="6.76398">
        <ele>367</ele>
        <time>2016-08-24T15:15:35.000Z</time>
      </trkpt>
      <trkpt lat="47.55032" lon="6.76395">
        <ele>367</ele>
        <time>2016-08-24T15:15:36.000Z</time>
      </trkpt>
      <trkpt lat="47.55034" lon="6.76392">
        <ele>367</ele>
        <time>2016-08-24T15:15:37.000Z</time>
      </trkpt>
      <trkpt lat="47.55035" lon="6.76389">
        <ele>367</ele>
        <time>2016-08-24T15:15:38.000Z</time>
      </trkpt>
      <trkpt lat="47.55037" lon="6.76385">
        <ele>368</ele>
        <time>2016-08-24T15:15:39.000Z</time>
      </trkpt>
      <trkpt lat="47.55039" lon="6.76381">
        <ele>368</ele>
        <time>2016-08-24T15:15:40.000Z</time>
      </trkpt>
      <trkpt lat="47.55041" lon="6.76377">
        <ele>368</ele>
        <time>2016-08-24T15:15:41.000Z</time>
      </trkpt>
      <trkpt lat="47.55043" lon="6.76373">
        <ele>368</ele>
        <time>2016-08-24T15:15:42.000Z</time>
      </trkpt>
      <trkpt lat="47.55045" lon="6.7637">
        <ele>368</ele>
        <time>2016-08-24T15:15:43.000Z</time>
      </trkpt>
      <trkpt lat="47.55046" lon="6.76367">
        <ele>368</ele>
        <time>2016-08-24T15:15:44.000Z</time>
      </trkpt>
      <trkpt lat="47.55048" lon="6.76364">
        <ele>368</ele>
        <time>2016-08-24T15:15:45.000Z</time>
      </trkpt>
      <trkpt lat="47.55049" lon="6.76361">
        <ele>369</ele>
        <time>2016-08-24T15:15:46.000Z</time>
      </trkpt>
      <trkpt lat="47.55051" lon="6.76358">
        <ele>369</ele>
        <time>2016-08-24T15:15:47.000Z</time>
      </trkpt>
      <trkpt lat="47.55053" lon="6.76354">
        <ele>369</ele>
        <time>2016-08-24T15:15:48.000Z</time>
      </trkpt>
      <trkpt lat="47.55054" lon="6.76351">
        <ele>369</ele>
        <time>2016-08-24T15:15:49.000Z</time>
      </trkpt>
      <trkpt lat="47.55056" lon="6.76348">
        <ele>369</ele>
        <time>2016-08-24T15:15:50.000Z</time>
      </trkpt>
      <trkpt lat="47.55057" lon="6.76344">
        <ele>369</ele>
        <time>2016-08-24T15:15:51.000Z</time>
      </trkpt>
      <trkpt lat="47.55059" lon="6.7634">
        <ele>369</ele>
        <time>2016-08-24T15:15:52.000Z</time>
      </trkpt>
      <trkpt lat="47.55061" lon="6.76336">
        <ele>369</ele>
        <time>2016-08-24T15:15:53.000Z</time>
      </trkpt>
      <trkpt lat="47.55062" lon="6.76332">
        <ele>373</ele>
        <time>2016-08-24T15:15:54.000Z</time>
      </trkpt>
      <trkpt lat="47.55064" lon="6.76327">
        <ele>374</ele>
        <time>2016-08-24T15:15:55.000Z</time>
      </trkpt>
      <trkpt lat="47.55065" lon="6.76322">
        <ele>374</ele>
        <time>2016-08-24T15:15:56.000Z</time>
      </trkpt>
      <trkpt lat="47.55066" lon="6.76319">
        <ele>374</ele>
        <time>2016-08-24T15:15:57.000Z</time>
      </trkpt>
      <trkpt lat="47.55067" lon="6.76316">
        <ele>374</ele>
        <time>2016-08-24T15:15:58.000Z</time>
      </trkpt>
      <trkpt lat="47.55069" lon="6.76313">
        <ele>374</ele>
        <time>2016-08-24T15:15:59.000Z</time>
      </trkpt>
      <trkpt lat="47.5507" lon="6.7631">
        <ele>374</ele>
        <time>2016-08-24T15:16:00.000Z</time>
      </trkpt>
      <trkpt lat="47.55072" lon="6.76307">
        <ele>374</ele>
        <time>2016-08-24T15:16:01.000Z</time>
      </trkpt>
      <trkpt lat="47.55074" lon="6.76302">
        <ele>375</ele>
        <time>2016-08-24T15:16:03.000Z</time>
      </trkpt>
      <trkpt lat="47.55076" lon="6.76299">
        <ele>375</ele>
        <time>2016-08-24T15:16:04.000Z</time>
      </trkpt>
      <trkpt lat="47.55077" lon="6.76296">
        <ele>375</ele>
        <time>2016-08-24T15:16:05.000Z</time>
      </trkpt>
      <trkpt lat="47.55079" lon="6.76294">
        <ele>375</ele>
        <time>2016-08-24T15:16:06.000Z</time>
      </trkpt>
      <trkpt lat="47.55081" lon="6.76291">
        <ele>375</ele>
        <time>2016-08-24T15:16:07.000Z</time>
      </trkpt>
      <trkpt lat="47.55083" lon="6.76288">
        <ele>375</ele>
        <time>2016-08-24T15:16:08.000Z</time>
      </trkpt>
      <trkpt lat="47.55085" lon="6.76284">
        <ele>377</ele>
        <time>2016-08-24T15:16:09.000Z</time>
      </trkpt>
      <trkpt lat="47.55087" lon="6.76281">
        <ele>377</ele>
        <time>2016-08-24T15:16:10.000Z</time>
      </trkpt>
      <trkpt lat="47.55089" lon="6.76277">
        <ele>377</ele>
        <time>2016-08-24T15:16:11.000Z</time>
      </trkpt>
      <trkpt lat="47.55091" lon="6.76274">
        <ele>377</ele>
        <time>2016-08-24T15:16:12.000Z</time>
      </trkpt>
      <trkpt lat="47.55094" lon="6.76272">
        <ele>377</ele>
        <time>2016-08-24T15:16:13.000Z</time>
      </trkpt>
      <trkpt lat="47.55096" lon="6.76269">
        <ele>377</ele>
        <time>2016-08-24T15:16:14.000Z</time>
      </trkpt>
      <trkpt lat="47.55098" lon="6.76267">
        <ele>377</ele>
        <time>2016-08-24T15:16:15.000Z</time>
      </trkpt>
      <trkpt lat="47.551" lon="6.76264">
        <ele>377</ele>
        <time>2016-08-24T15:16:16.000Z</time>
      </trkpt>
      <trkpt lat="47.55104" lon="6.76261">
        <ele>377</ele>
        <time>2016-08-24T15:16:18.000Z</time>
      </trkpt>
      <trkpt lat="47.55105" lon="6.7626">
        <ele>377</ele>
        <time>2016-08-24T15:16:19.000Z</time>
      </trkpt>
      <trkpt lat="47.55107" lon="6.76258">
        <ele>378</ele>
        <time>2016-08-24T15:16:20.000Z</time>
      </trkpt>
      <trkpt lat="47.55109" lon="6.76256">
        <ele>378</ele>
        <time>2016-08-24T15:16:21.000Z</time>
      </trkpt>
      <trkpt lat="47.55111" lon="6.76253">
        <ele>378</ele>
        <time>2016-08-24T15:16:22.000Z</time>
      </trkpt>
      <trkpt lat="47.55113" lon="6.7625">
        <ele>378</ele>
        <time>2016-08-24T15:16:23.000Z</time>
      </trkpt>
      <trkpt lat="47.55115" lon="6.76248">
        <ele>383</ele>
        <time>2016-08-24T15:16:24.000Z</time>
      </trkpt>
      <trkpt lat="47.55118" lon="6.76246">
        <ele>383</ele>
        <time>2016-08-24T15:16:25.000Z</time>
      </trkpt>
      <trkpt lat="47.5512" lon="6.76244">
        <ele>383</ele>
        <time>2016-08-24T15:16:26.000Z</time>
      </trkpt>
      <trkpt lat="47.55122" lon="6.76242">
        <ele>383</ele>
        <time>2016-08-24T15:16:27.000Z</time>
      </trkpt>
      <trkpt lat="47.55124" lon="6.76239">
        <ele>383</ele>
        <time>2016-08-24T15:16:28.000Z</time>
      </trkpt>
      <trkpt lat="47.55125" lon="6.76237">
        <ele>384</ele>
        <time>2016-08-24T15:16:29.000Z</time>
      </trkpt>
      <trkpt lat="47.55127" lon="6.76235">
        <ele>384</ele>
        <time>2016-08-24T15:16:30.000Z</time>
      </trkpt>
      <trkpt lat="47.55129" lon="6.76233">
        <ele>384</ele>
        <time>2016-08-24T15:16:31.000Z</time>
      </trkpt>
      <trkpt lat="47.55133" lon="6.7623">
        <ele>384</ele>
        <time>2016-08-24T15:16:33.000Z</time>
      </trkpt>
      <trkpt lat="47.55135" lon="6.76229">
        <ele>384</ele>
        <time>2016-08-24T15:16:34.000Z</time>
      </trkpt>
      <trkpt lat="47.55139" lon="6.76227">
        <ele>385</ele>
        <time>2016-08-24T15:16:36.000Z</time>
      </trkpt>
      <trkpt lat="47.55141" lon="6.76226">
        <ele>385</ele>
        <time>2016-08-24T15:16:37.000Z</time>
      </trkpt>
      <trkpt lat="47.55143" lon="6.76224">
        <ele>385</ele>
        <time>2016-08-24T15:16:38.000Z</time>
      </trkpt>
      <trkpt lat="47.55145" lon="6.76222">
        <ele>385</ele>
        <time>2016-08-24T15:16:39.000Z</time>
      </trkpt>
      <trkpt lat="47.55148" lon="6.76219">
        <ele>385</ele>
        <time>2016-08-24T15:16:41.000Z</time>
      </trkpt>
      <trkpt lat="47.5515" lon="6.76219">
        <ele>385</ele>
        <time>2016-08-24T15:16:42.000Z</time>
      </trkpt>
      <trkpt lat="47.55153" lon="6.76217">
        <ele>385</ele>
        <time>2016-08-24T15:16:44.000Z</time>
      </trkpt>
      <trkpt lat="47.55154" lon="6.76215">
        <ele>386</ele>
        <time>2016-08-24T15:16:45.000Z</time>
      </trkpt>
      <trkpt lat="47.55157" lon="6.76213">
        <ele>386</ele>
        <time>2016-08-24T15:16:47.000Z</time>
      </trkpt>
      <trkpt lat="47.55159" lon="6.76212">
        <ele>386</ele>
        <time>2016-08-24T15:16:48.000Z</time>
      </trkpt>
      <trkpt lat="47.55161" lon="6.7621">
        <ele>386</ele>
        <time>2016-08-24T15:16:50.000Z</time>
      </trkpt>
      <trkpt lat="47.55163" lon="6.76208">
        <ele>386</ele>
        <time>2016-08-24T15:16:51.000Z</time>
      </trkpt>
      <trkpt lat="47.55165" lon="6.76203">
        <ele>387</ele>
        <time>2016-08-24T15:16:53.000Z</time>
      </trkpt>
      <trkpt lat="47.55167" lon="6.76201">
        <ele>387</ele>
        <time>2016-08-24T15:16:54.000Z</time>
      </trkpt>
      <trkpt lat="47.55169" lon="6.76196">
        <ele>392</ele>
        <time>2016-08-24T15:16:56.000Z</time>
      </trkpt>
      <trkpt lat="47.5517" lon="6.76194">
        <ele>392</ele>
        <time>2016-08-24T15:16:57.000Z</time>
      </trkpt>
      <trkpt lat="47.55171" lon="6.76189">
        <ele>392</ele>
        <time>2016-08-24T15:16:59.000Z</time>
      </trkpt>
      <trkpt lat="47.55172" lon="6.76187">
        <ele>392</ele>
        <time>2016-08-24T15:17:00.000Z</time>
      </trkpt>
      <trkpt lat="47.55173" lon="6.76182">
        <ele>392</ele>
        <time>2016-08-24T15:17:02.000Z</time>
      </trkpt>
      <trkpt lat="47.55174" lon="6.7618">
        <ele>392</ele>
        <time>2016-08-24T15:17:03.000Z</time>
      </trkpt>
      <trkpt lat="47.55176" lon="6.76176">
        <ele>392</ele>
        <time>2016-08-24T15:17:05.000Z</time>
      </trkpt>
      <trkpt lat="47.55177" lon="6.76174">
        <ele>392</ele>
        <time>2016-08-24T15:17:06.000Z</time>
      </trkpt>
      <trkpt lat="47.55178" lon="6.76168">
        <ele>392</ele>
        <time>2016-08-24T15:17:09.000Z</time>
      </trkpt>
      <trkpt lat="47.55178" lon="6.76166">
        <ele>395</ele>
        <time>2016-08-24T15:17:10.000Z</time>
      </trkpt>
      <trkpt lat="47.55177" lon="6.76161">
        <ele>396</ele>
        <time>2016-08-24T15:17:12.000Z</time>
      </trkpt>
      <trkpt lat="47.55177" lon="6.76158">
        <ele>396</ele>
        <time>2016-08-24T15:17:13.000Z</time>
      </trkpt>
      <trkpt lat="47.55176" lon="6.76153">
        <ele>397</ele>
        <time>2016-08-24T15:17:16.000Z</time>
      </trkpt>
      <trkpt lat="47.55175" lon="6.76152">
        <ele>397</ele>
        <time>2016-08-24T15:17:17.000Z</time>
      </trkpt>
      <trkpt lat="47.55174" lon="6.76147">
        <ele>398</ele>
        <time>2016-08-24T15:17:21.000Z</time>
      </trkpt>
      <trkpt lat="47.55173" lon="6.76145">
        <ele>398</ele>
        <time>2016-08-24T15:17:22.000Z</time>
      </trkpt>
      <trkpt lat="47.55171" lon="6.76141">
        <ele>399</ele>
        <time>2016-08-24T15:17:24.000Z</time>
      </trkpt>
      <trkpt lat="47.5517" lon="6.7614">
        <ele>399</ele>
        <time>2016-08-24T15:17:25.000Z</time>
      </trkpt>
      <trkpt lat="47.55174" lon="6.76139">
        <ele>399</ele>
        <time>2016-08-24T15:17:34.000Z</time>
      </trkpt>
      <trkpt lat="47.55176" lon="6.76139">
        <ele>399</ele>
        <time>2016-08-24T15:17:35.000Z</time>
      </trkpt>
      <trkpt lat="47.55179" lon="6.76136">
        <ele>400</ele>
        <time>2016-08-24T15:17:37.000Z</time>
      </trkpt>
      <trkpt lat="47.55179" lon="6.76134">
        <ele>400</ele>
        <time>2016-08-24T15:17:38.000Z</time>
      </trkpt>
      <trkpt lat="47.55178" lon="6.76129">
        <ele>400</ele>
        <time>2016-08-24T15:17:40.000Z</time>
      </trkpt>
      <trkpt lat="47.55178" lon="6.76127">
        <ele>401</ele>
        <time>2016-08-24T15:17:41.000Z</time>
      </trkpt>
      <trkpt lat="47.55178" lon="6.76121">
        <ele>401</ele>
        <time>2016-08-24T15:17:48.000Z</time>
      </trkpt>
      <trkpt lat="47.55178" lon="6.7612">
        <ele>401</ele>
        <time>2016-08-24T15:17:49.000Z</time>
      </trkpt>
      <trkpt lat="47.55177" lon="6.76117">
        <ele>402</ele>
        <time>2016-08-24T15:17:54.000Z</time>
      </trkpt>
      <trkpt lat="47.55177" lon="6.76114">
        <ele>402</ele>
        <time>2016-08-24T15:17:55.000Z</time>
      </trkpt>
      <trkpt lat="47.55177" lon="6.76109">
        <ele>403</ele>
        <time>2016-08-24T15:17:56.000Z</time>
      </trkpt>
      <trkpt lat="47.55178" lon="6.76104">
        <ele>403</ele>
        <time>2016-08-24T15:17:57.000Z</time>
      </trkpt>
      <trkpt lat="47.55178" lon="6.761">
        <ele>404</ele>
        <time>2016-08-24T15:17:58.000Z</time>
      </trkpt>
      <trkpt lat="47.55178" lon="6.76097">
        <ele>404</ele>
        <time>2016-08-24T15:17:59.000Z</time>
      </trkpt>
      <trkpt lat="47.55177" lon="6.76092">
        <ele>405</ele>
        <time>2016-08-24T15:18:05.000Z</time>
      </trkpt>
      <trkpt lat="47.55177" lon="6.7609">
        <ele>405</ele>
        <time>2016-08-24T15:18:06.000Z</time>
      </trkpt>
      <trkpt lat="47.55176" lon="6.76083">
        <ele>408</ele>
        <time>2016-08-24T15:18:10.000Z</time>
      </trkpt>
      <trkpt lat="47.55177" lon="6.76082">
        <ele>408</ele>
        <time>2016-08-24T15:18:11.000Z</time>
      </trkpt>
      <trkpt lat="47.55177" lon="6.76076">
        <ele>408</ele>
        <time>2016-08-24T15:18:14.000Z</time>
      </trkpt>
      <trkpt lat="47.55178" lon="6.76074">
        <ele>408</ele>
        <time>2016-08-24T15:18:15.000Z</time>
      </trkpt>
      <trkpt lat="47.55179" lon="6.76068">
        <ele>408</ele>
        <time>2016-08-24T15:18:19.000Z</time>
      </trkpt>
      <trkpt lat="47.55179" lon="6.76067">
        <ele>408</ele>
        <time>2016-08-24T15:18:20.000Z</time>
      </trkpt>
      <trkpt lat="47.55178" lon="6.76061">
        <ele>408</ele>
        <time>2016-08-24T15:18:23.000Z</time>
      </trkpt>
      <trkpt lat="47.55178" lon="6.7606">
        <ele>408</ele>
        <time>2016-08-24T15:18:24.000Z</time>
      </trkpt>
      <trkpt lat="47.55176" lon="6.76054">
        <ele>409</ele>
        <time>2016-08-24T15:18:29.000Z</time>
      </trkpt>
      <trkpt lat="47.55176" lon="6.76053">
        <ele>409</ele>
        <time>2016-08-24T15:18:30.000Z</time>
      </trkpt>
      <trkpt lat="47.55176" lon="6.76048">
        <ele>409</ele>
        <time>2016-08-24T15:18:32.000Z</time>
      </trkpt>
      <trkpt lat="47.55176" lon="6.76046">
        <ele>409</ele>
        <time>2016-08-24T15:18:33.000Z</time>
      </trkpt>
      <trkpt lat="47.55174" lon="6.7604">
        <ele>409</ele>
        <time>2016-08-24T15:18:39.000Z</time>
      </trkpt>
      <trkpt lat="47.55174" lon="6.7604">
        <ele>409</ele>
        <time>2016-08-24T15:18:40.000Z</time>
      </trkpt>
      <trkpt lat="47.55177" lon="6.76037">
        <ele>409</ele>
        <time>2016-08-24T15:18:47.000Z</time>
      </trkpt>
      <trkpt lat="47.55178" lon="6.76037">
        <ele>409</ele>
        <time>2016-08-24T15:18:48.000Z</time>
      </trkpt>
      <trkpt lat="47.55182" lon="6.76035">
        <ele>409</ele>
        <time>2016-08-24T15:19:03.000Z</time>
      </trkpt>
      <trkpt lat="47.55182" lon="6.76035">
        <ele>409</ele>
        <time>2016-08-24T15:19:04.000Z</time>
      </trkpt>
      <trkpt lat="47.55183" lon="6.76041">
        <ele>409</ele>
        <time>2016-08-24T15:19:12.000Z</time>
      </trkpt>
      <trkpt lat="47.55183" lon="6.76042">
        <ele>409</ele>
        <time>2016-08-24T15:19:13.000Z</time>
      </trkpt>
      <trkpt lat="47.55187" lon="6.76043">
        <ele>409</ele>
        <time>2016-08-24T15:19:28.000Z</time>
      </trkpt>
      <trkpt lat="47.55188" lon="6.76042">
        <ele>409</ele>
        <time>2016-08-24T15:19:29.000Z</time>
      </trkpt>
      <trkpt lat="47.55187" lon="6.76036">
        <ele>409</ele>
        <time>2016-08-24T15:19:36.000Z</time>
      </trkpt>
      <trkpt lat="47.55187" lon="6.76035">
        <ele>409</ele>
        <time>2016-08-24T15:19:37.000Z</time>
      </trkpt>
      <trkpt lat="47.55188" lon="6.76029">
        <ele>410</ele>
        <time>2016-08-24T15:19:41.000Z</time>
      </trkpt>
      <trkpt lat="47.55189" lon="6.76027">
        <ele>410</ele>
        <time>2016-08-24T15:19:42.000Z</time>
      </trkpt>
      <trkpt lat="47.55188" lon="6.7602">
        <ele>410</ele>
        <time>2016-08-24T15:19:45.000Z</time>
      </trkpt>
      <trkpt lat="47.55185" lon="6.76019">
        <ele>410</ele>
        <time>2016-08-24T15:19:46.000Z</time>
      </trkpt>
      <trkpt lat="47.55181" lon="6.76018">
        <ele>410</ele>
        <time>2016-08-24T15:19:47.000Z</time>
      </trkpt>
      <trkpt lat="47.55177" lon="6.76016">
        <ele>410</ele>
        <time>2016-08-24T15:19:48.000Z</time>
      </trkpt>
      <trkpt lat="47.55173" lon="6.76015">
        <ele>411</ele>
        <time>2016-08-24T15:19:49.000Z</time>
      </trkpt>
      <trkpt lat="47.55168" lon="6.76016">
        <ele>411</ele>
        <time>2016-08-24T15:19:50.000Z</time>
      </trkpt>
      <trkpt lat="47.55164" lon="6.76018">
        <ele>410</ele>
        <time>2016-08-24T15:19:51.000Z</time>
      </trkpt>
      <trkpt lat="47.5516" lon="6.7602">
        <ele>410</ele>
        <time>2016-08-24T15:19:52.000Z</time>
      </trkpt>
      <trkpt lat="47.55156" lon="6.76022">
        <ele>410</ele>
        <time>2016-08-24T15:19:53.000Z</time>
      </trkpt>
      <trkpt lat="47.55152" lon="6.76023">
        <ele>410</ele>
        <time>2016-08-24T15:19:54.000Z</time>
      </trkpt>
      <trkpt lat="47.55149" lon="6.76024">
        <ele>410</ele>
        <time>2016-08-24T15:19:55.000Z</time>
      </trkpt>
      <trkpt lat="47.55146" lon="6.76025">
        <ele>409</ele>
        <time>2016-08-24T15:19:56.000Z</time>
      </trkpt>
      <trkpt lat="47.55143" lon="6.76027">
        <ele>409</ele>
        <time>2016-08-24T15:19:57.000Z</time>
      </trkpt>
      <trkpt lat="47.5514" lon="6.76028">
        <ele>409</ele>
        <time>2016-08-24T15:19:58.000Z</time>
      </trkpt>
      <trkpt lat="47.55137" lon="6.76028">
        <ele>409</ele>
        <time>2016-08-24T15:19:59.000Z</time>
      </trkpt>
      <trkpt lat="47.55134" lon="6.76028">
        <ele>409</ele>
        <time>2016-08-24T15:20:00.000Z</time>
      </trkpt>
      <trkpt lat="47.55131" lon="6.76028">
        <ele>409</ele>
        <time>2016-08-24T15:20:01.000Z</time>
      </trkpt>
      <trkpt lat="47.55129" lon="6.76028">
        <ele>409</ele>
        <time>2016-08-24T15:20:02.000Z</time>
      </trkpt>
      <trkpt lat="47.55126" lon="6.76028">
        <ele>409</ele>
        <time>2016-08-24T15:20:03.000Z</time>
      </trkpt>
      <trkpt lat="47.55123" lon="6.76028">
        <ele>409</ele>
        <time>2016-08-24T15:20:04.000Z</time>
      </trkpt>
      <trkpt lat="47.55121" lon="6.76028">
        <ele>409</ele>
        <time>2016-08-24T15:20:05.000Z</time>
      </trkpt>
      <trkpt lat="47.55119" lon="6.76027">
        <ele>409</ele>
        <time>2016-08-24T15:20:06.000Z</time>
      </trkpt>
      <trkpt lat="47.55116" lon="6.76024">
        <ele>409</ele>
        <time>2016-08-24T15:20:07.000Z</time>
      </trkpt>
      <trkpt lat="47.55114" lon="6.76021">
        <ele>409</ele>
        <time>2016-08-24T15:20:08.000Z</time>
      </trkpt>
      <trkpt lat="47.55112" lon="6.76018">
        <ele>409</ele>
        <time>2016-08-24T15:20:09.000Z</time>
      </trkpt>
      <trkpt lat="47.55111" lon="6.76014">
        <ele>409</ele>
        <time>2016-08-24T15:20:10.000Z</time>
      </trkpt>
      <trkpt lat="47.55109" lon="6.7601">
        <ele>409</ele>
        <time>2016-08-24T15:20:11.000Z</time>
      </trkpt>
      <trkpt lat="47.55107" lon="6.76006">
        <ele>409</ele>
        <time>2016-08-24T15:20:12.000Z</time>
      </trkpt>
      <trkpt lat="47.55107" lon="6.76001">
        <ele>409</ele>
        <time>2016-08-24T15:20:13.000Z</time>
      </trkpt>
      <trkpt lat="47.55106" lon="6.75997">
        <ele>411</ele>
        <time>2016-08-24T15:20:14.000Z</time>
      </trkpt>
      <trkpt lat="47.55105" lon="6.75992">
        <ele>411</ele>
        <time>2016-08-24T15:20:15.000Z</time>
      </trkpt>
      <trkpt lat="47.55105" lon="6.75988">
        <ele>411</ele>
        <time>2016-08-24T15:20:16.000Z</time>
      </trkpt>
      <trkpt lat="47.55104" lon="6.75984">
        <ele>411</ele>
        <time>2016-08-24T15:20:17.000Z</time>
      </trkpt>
      <trkpt lat="47.55104" lon="6.7598">
        <ele>411</ele>
        <time>2016-08-24T15:20:18.000Z</time>
      </trkpt>
      <trkpt lat="47.55104" lon="6.75977">
        <ele>411</ele>
        <time>2016-08-24T15:20:19.000Z</time>
      </trkpt>
      <trkpt lat="47.55103" lon="6.75973">
        <ele>411</ele>
        <time>2016-08-24T15:20:20.000Z</time>
      </trkpt>
      <trkpt lat="47.55103" lon="6.7597">
        <ele>411</ele>
        <time>2016-08-24T15:20:21.000Z</time>
      </trkpt>
      <trkpt lat="47.55101" lon="6.75964">
        <ele>411</ele>
        <time>2016-08-24T15:20:23.000Z</time>
      </trkpt>
      <trkpt lat="47.55101" lon="6.75961">
        <ele>411</ele>
        <time>2016-08-24T15:20:24.000Z</time>
      </trkpt>
      <trkpt lat="47.55099" lon="6.75958">
        <ele>412</ele>
        <time>2016-08-24T15:20:25.000Z</time>
      </trkpt>
      <trkpt lat="47.55098" lon="6.75955">
        <ele>412</ele>
        <time>2016-08-24T15:20:26.000Z</time>
      </trkpt>
      <trkpt lat="47.55098" lon="6.75951">
        <ele>412</ele>
        <time>2016-08-24T15:20:27.000Z</time>
      </trkpt>
      <trkpt lat="47.55097" lon="6.75948">
        <ele>412</ele>
        <time>2016-08-24T15:20:28.000Z</time>
      </trkpt>
      <trkpt lat="47.55097" lon="6.75945">
        <ele>412</ele>
        <time>2016-08-24T15:20:29.000Z</time>
      </trkpt>
      <trkpt lat="47.55096" lon="6.75941">
        <ele>412</ele>
        <time>2016-08-24T15:20:30.000Z</time>
      </trkpt>
      <trkpt lat="47.55094" lon="6.75938">
        <ele>412</ele>
        <time>2016-08-24T15:20:31.000Z</time>
      </trkpt>
      <trkpt lat="47.55094" lon="6.75935">
        <ele>412</ele>
        <time>2016-08-24T15:20:32.000Z</time>
      </trkpt>
      <trkpt lat="47.55094" lon="6.75929">
        <ele>412</ele>
        <time>2016-08-24T15:20:34.000Z</time>
      </trkpt>
      <trkpt lat="47.55094" lon="6.75926">
        <ele>412</ele>
        <time>2016-08-24T15:20:35.000Z</time>
      </trkpt>
      <trkpt lat="47.55094" lon="6.75922">
        <ele>412</ele>
        <time>2016-08-24T15:20:36.000Z</time>
      </trkpt>
      <trkpt lat="47.55093" lon="6.75919">
        <ele>412</ele>
        <time>2016-08-24T15:20:37.000Z</time>
      </trkpt>
      <trkpt lat="47.55093" lon="6.75915">
        <ele>413</ele>
        <time>2016-08-24T15:20:38.000Z</time>
      </trkpt>
      <trkpt lat="47.55092" lon="6.75911">
        <ele>413</ele>
        <time>2016-08-24T15:20:39.000Z</time>
      </trkpt>
      <trkpt lat="47.55091" lon="6.75908">
        <ele>413</ele>
        <time>2016-08-24T15:20:40.000Z</time>
      </trkpt>
      <trkpt lat="47.5509" lon="6.75905">
        <ele>413</ele>
        <time>2016-08-24T15:20:41.000Z</time>
      </trkpt>
      <trkpt lat="47.55089" lon="6.75902">
        <ele>413</ele>
        <time>2016-08-24T15:20:42.000Z</time>
      </trkpt>
      <trkpt lat="47.55087" lon="6.75899">
        <ele>413</ele>
        <time>2016-08-24T15:20:43.000Z</time>
      </trkpt>
      <trkpt lat="47.55085" lon="6.75894">
        <ele>413</ele>
        <time>2016-08-24T15:20:45.000Z</time>
      </trkpt>
      <trkpt lat="47.55084" lon="6.75891">
        <ele>413</ele>
        <time>2016-08-24T15:20:46.000Z</time>
      </trkpt>
      <trkpt lat="47.55083" lon="6.75888">
        <ele>415</ele>
        <time>2016-08-24T15:20:47.000Z</time>
      </trkpt>
      <trkpt lat="47.55082" lon="6.75885">
        <ele>415</ele>
        <time>2016-08-24T15:20:48.000Z</time>
      </trkpt>
      <trkpt lat="47.5508" lon="6.75882">
        <ele>415</ele>
        <time>2016-08-24T15:20:49.000Z</time>
      </trkpt>
      <trkpt lat="47.55079" lon="6.7588">
        <ele>415</ele>
        <time>2016-08-24T15:20:50.000Z</time>
      </trkpt>
      <trkpt lat="47.55077" lon="6.75876">
        <ele>415</ele>
        <time>2016-08-24T15:20:51.000Z</time>
      </trkpt>
      <trkpt lat="47.55076" lon="6.75873">
        <ele>415</ele>
        <time>2016-08-24T15:20:52.000Z</time>
      </trkpt>
      <trkpt lat="47.55075" lon="6.75869">
        <ele>416</ele>
        <time>2016-08-24T15:20:53.000Z</time>
      </trkpt>
      <trkpt lat="47.55074" lon="6.75866">
        <ele>416</ele>
        <time>2016-08-24T15:20:54.000Z</time>
      </trkpt>
      <trkpt lat="47.55073" lon="6.75862">
        <ele>416</ele>
        <time>2016-08-24T15:20:55.000Z</time>
      </trkpt>
      <trkpt lat="47.55072" lon="6.75858">
        <ele>416</ele>
        <time>2016-08-24T15:20:56.000Z</time>
      </trkpt>
      <trkpt lat="47.5507" lon="6.75855">
        <ele>415</ele>
        <time>2016-08-24T15:20:57.000Z</time>
      </trkpt>
      <trkpt lat="47.55069" lon="6.75852">
        <ele>415</ele>
        <time>2016-08-24T15:20:58.000Z</time>
      </trkpt>
      <trkpt lat="47.55066" lon="6.75849">
        <ele>416</ele>
        <time>2016-08-24T15:20:59.000Z</time>
      </trkpt>
      <trkpt lat="47.55064" lon="6.75847">
        <ele>416</ele>
        <time>2016-08-24T15:21:00.000Z</time>
      </trkpt>
      <trkpt lat="47.55061" lon="6.75847">
        <ele>416</ele>
        <time>2016-08-24T15:21:01.000Z</time>
      </trkpt>
      <trkpt lat="47.55058" lon="6.75847">
        <ele>416</ele>
        <time>2016-08-24T15:21:02.000Z</time>
      </trkpt>
      <trkpt lat="47.55056" lon="6.75848">
        <ele>416</ele>
        <time>2016-08-24T15:21:03.000Z</time>
      </trkpt>
      <trkpt lat="47.55053" lon="6.75848">
        <ele>416</ele>
        <time>2016-08-24T15:21:04.000Z</time>
      </trkpt>
      <trkpt lat="47.5505" lon="6.75848">
        <ele>416</ele>
        <time>2016-08-24T15:21:05.000Z</time>
      </trkpt>
      <trkpt lat="47.55048" lon="6.75847">
        <ele>416</ele>
        <time>2016-08-24T15:21:06.000Z</time>
      </trkpt>
      <trkpt lat="47.55044" lon="6.75847">
        <ele>417</ele>
        <time>2016-08-24T15:21:07.000Z</time>
      </trkpt>
      <trkpt lat="47.55041" lon="6.75846">
        <ele>417</ele>
        <time>2016-08-24T15:21:08.000Z</time>
      </trkpt>
      <trkpt lat="47.55038" lon="6.75846">
        <ele>417</ele>
        <time>2016-08-24T15:21:09.000Z</time>
      </trkpt>
      <trkpt lat="47.55036" lon="6.75845">
        <ele>417</ele>
        <time>2016-08-24T15:21:10.000Z</time>
      </trkpt>
      <trkpt lat="47.55033" lon="6.75844">
        <ele>417</ele>
        <time>2016-08-24T15:21:11.000Z</time>
      </trkpt>
      <trkpt lat="47.5503" lon="6.75843">
        <ele>417</ele>
        <time>2016-08-24T15:21:12.000Z</time>
      </trkpt>
      <trkpt lat="47.55026" lon="6.75842">
        <ele>418</ele>
        <time>2016-08-24T15:21:14.000Z</time>
      </trkpt>
      <trkpt lat="47.55024" lon="6.75841">
        <ele>418</ele>
        <time>2016-08-24T15:21:15.000Z</time>
      </trkpt>
      <trkpt lat="47.5502" lon="6.75839">
        <ele>418</ele>
        <time>2016-08-24T15:21:17.000Z</time>
      </trkpt>
      <trkpt lat="47.55018" lon="6.75838">
        <ele>418</ele>
        <time>2016-08-24T15:21:18.000Z</time>
      </trkpt>
      <trkpt lat="47.55016" lon="6.75837">
        <ele>418</ele>
        <time>2016-08-24T15:21:19.000Z</time>
      </trkpt>
      <trkpt lat="47.55014" lon="6.75835">
        <ele>419</ele>
        <time>2016-08-24T15:21:20.000Z</time>
      </trkpt>
      <trkpt lat="47.55011" lon="6.75832">
        <ele>419</ele>
        <time>2016-08-24T15:21:21.000Z</time>
      </trkpt>
      <trkpt lat="47.55009" lon="6.7583">
        <ele>419</ele>
        <time>2016-08-24T15:21:22.000Z</time>
      </trkpt>
      <trkpt lat="47.55007" lon="6.75826">
        <ele>419</ele>
        <time>2016-08-24T15:21:23.000Z</time>
      </trkpt>
      <trkpt lat="47.55006" lon="6.75822">
        <ele>418</ele>
        <time>2016-08-24T15:21:24.000Z</time>
      </trkpt>
      <trkpt lat="47.55005" lon="6.75817">
        <ele>418</ele>
        <time>2016-08-24T15:21:25.000Z</time>
      </trkpt>
      <trkpt lat="47.55004" lon="6.75813">
        <ele>418</ele>
        <time>2016-08-24T15:21:26.000Z</time>
      </trkpt>
      <trkpt lat="47.55003" lon="6.75809">
        <ele>418</ele>
        <time>2016-08-24T15:21:27.000Z</time>
      </trkpt>
      <trkpt lat="47.55001" lon="6.75804">
        <ele>418</ele>
        <time>2016-08-24T15:21:28.000Z</time>
      </trkpt>
      <trkpt lat="47.54998" lon="6.758">
        <ele>418</ele>
        <time>2016-08-24T15:21:29.000Z</time>
      </trkpt>
      <trkpt lat="47.54996" lon="6.75797">
        <ele>418</ele>
        <time>2016-08-24T15:21:30.000Z</time>
      </trkpt>
      <trkpt lat="47.54993" lon="6.75793">
        <ele>418</ele>
        <time>2016-08-24T15:21:31.000Z</time>
      </trkpt>
      <trkpt lat="47.5499" lon="6.75789">
        <ele>418</ele>
        <time>2016-08-24T15:21:32.000Z</time>
      </trkpt>
      <trkpt lat="47.54988" lon="6.75783">
        <ele>418</ele>
        <time>2016-08-24T15:21:33.000Z</time>
      </trkpt>
      <trkpt lat="47.54987" lon="6.75778">
        <ele>418</ele>
        <time>2016-08-24T15:21:34.000Z</time>
      </trkpt>
      <trkpt lat="47.54985" lon="6.75771">
        <ele>418</ele>
        <time>2016-08-24T15:21:35.000Z</time>
      </trkpt>
      <trkpt lat="47.54984" lon="6.75764">
        <ele>418</ele>
        <time>2016-08-24T15:21:36.000Z</time>
      </trkpt>
      <trkpt lat="47.54982" lon="6.75757">
        <ele>417</ele>
        <time>2016-08-24T15:21:37.000Z</time>
      </trkpt>
      <trkpt lat="47.5498" lon="6.75751">
        <ele>417</ele>
        <time>2016-08-24T15:21:38.000Z</time>
      </trkpt>
      <trkpt lat="47.54978" lon="6.75746">
        <ele>417</ele>
        <time>2016-08-24T15:21:39.000Z</time>
      </trkpt>
      <trkpt lat="47.54975" lon="6.7574">
        <ele>417</ele>
        <time>2016-08-24T15:21:40.000Z</time>
      </trkpt>
      <trkpt lat="47.54972" lon="6.75735">
        <ele>417</ele>
        <time>2016-08-24T15:21:41.000Z</time>
      </trkpt>
      <trkpt lat="47.54969" lon="6.75731">
        <ele>418</ele>
        <time>2016-08-24T15:21:42.000Z</time>
      </trkpt>
      <trkpt lat="47.54966" lon="6.75726">
        <ele>418</ele>
        <time>2016-08-24T15:21:43.000Z</time>
      </trkpt>
      <trkpt lat="47.54963" lon="6.75722">
        <ele>418</ele>
        <time>2016-08-24T15:21:44.000Z</time>
      </trkpt>
      <trkpt lat="47.54961" lon="6.75718">
        <ele>418</ele>
        <time>2016-08-24T15:21:45.000Z</time>
      </trkpt>
      <trkpt lat="47.54959" lon="6.75715">
        <ele>418</ele>
        <time>2016-08-24T15:21:46.000Z</time>
      </trkpt>
      <trkpt lat="47.54957" lon="6.75711">
        <ele>418</ele>
        <time>2016-08-24T15:21:47.000Z</time>
      </trkpt>
      <trkpt lat="47.54955" lon="6.75708">
        <ele>418</ele>
        <time>2016-08-24T15:21:48.000Z</time>
      </trkpt>
      <trkpt lat="47.54952" lon="6.75705">
        <ele>418</ele>
        <time>2016-08-24T15:21:49.000Z</time>
      </trkpt>
      <trkpt lat="47.54949" lon="6.75703">
        <ele>418</ele>
        <time>2016-08-24T15:21:50.000Z</time>
      </trkpt>
      <trkpt lat="47.54945" lon="6.75701">
        <ele>418</ele>
        <time>2016-08-24T15:21:51.000Z</time>
      </trkpt>
      <trkpt lat="47.54942" lon="6.757">
        <ele>418</ele>
        <time>2016-08-24T15:21:52.000Z</time>
      </trkpt>
      <trkpt lat="47.54938" lon="6.757">
        <ele>418</ele>
        <time>2016-08-24T15:21:53.000Z</time>
      </trkpt>
      <trkpt lat="47.54935" lon="6.757">
        <ele>419</ele>
        <time>2016-08-24T15:21:54.000Z</time>
      </trkpt>
      <trkpt lat="47.54931" lon="6.757">
        <ele>419</ele>
        <time>2016-08-24T15:21:55.000Z</time>
      </trkpt>
      <trkpt lat="47.54927" lon="6.757">
        <ele>419</ele>
        <time>2016-08-24T15:21:56.000Z</time>
      </trkpt>
      <trkpt lat="47.54924" lon="6.75699">
        <ele>419</ele>
        <time>2016-08-24T15:21:57.000Z</time>
      </trkpt>
      <trkpt lat="47.54921" lon="6.75698">
        <ele>419</ele>
        <time>2016-08-24T15:21:58.000Z</time>
      </trkpt>
      <trkpt lat="47.54919" lon="6.75695">
        <ele>419</ele>
        <time>2016-08-24T15:21:59.000Z</time>
      </trkpt>
      <trkpt lat="47.54917" lon="6.75693">
        <ele>419</ele>
        <time>2016-08-24T15:22:00.000Z</time>
      </trkpt>
      <trkpt lat="47.54915" lon="6.75689">
        <ele>424</ele>
        <time>2016-08-24T15:22:01.000Z</time>
      </trkpt>
      <trkpt lat="47.54913" lon="6.75686">
        <ele>424</ele>
        <time>2016-08-24T15:22:02.000Z</time>
      </trkpt>
      <trkpt lat="47.54911" lon="6.75683">
        <ele>424</ele>
        <time>2016-08-24T15:22:03.000Z</time>
      </trkpt>
      <trkpt lat="47.54909" lon="6.7568">
        <ele>424</ele>
        <time>2016-08-24T15:22:04.000Z</time>
      </trkpt>
      <trkpt lat="47.54906" lon="6.75677">
        <ele>424</ele>
        <time>2016-08-24T15:22:05.000Z</time>
      </trkpt>
      <trkpt lat="47.54904" lon="6.75674">
        <ele>424</ele>
        <time>2016-08-24T15:22:06.000Z</time>
      </trkpt>
      <trkpt lat="47.54902" lon="6.75671">
        <ele>424</ele>
        <time>2016-08-24T15:22:07.000Z</time>
      </trkpt>
      <trkpt lat="47.54899" lon="6.75669">
        <ele>425</ele>
        <time>2016-08-24T15:22:08.000Z</time>
      </trkpt>
      <trkpt lat="47.54896" lon="6.75666">
        <ele>427</ele>
        <time>2016-08-24T15:22:09.000Z</time>
      </trkpt>
      <trkpt lat="47.54893" lon="6.75664">
        <ele>428</ele>
        <time>2016-08-24T15:22:10.000Z</time>
      </trkpt>
      <trkpt lat="47.5489" lon="6.75661">
        <ele>429</ele>
        <time>2016-08-24T15:22:11.000Z</time>
      </trkpt>
      <trkpt lat="47.54888" lon="6.75659">
        <ele>429</ele>
        <time>2016-08-24T15:22:12.000Z</time>
      </trkpt>
      <trkpt lat="47.54886" lon="6.75658">
        <ele>430</ele>
        <time>2016-08-24T15:22:13.000Z</time>
      </trkpt>
      <trkpt lat="47.54882" lon="6.75655">
        <ele>430</ele>
        <time>2016-08-24T15:22:15.000Z</time>
      </trkpt>
      <trkpt lat="47.5488" lon="6.75653">
        <ele>430</ele>
        <time>2016-08-24T15:22:16.000Z</time>
      </trkpt>
      <trkpt lat="47.54877" lon="6.7565">
        <ele>431</ele>
        <time>2016-08-24T15:22:18.000Z</time>
      </trkpt>
      <trkpt lat="47.54876" lon="6.75649">
        <ele>431</ele>
        <time>2016-08-24T15:22:19.000Z</time>
      </trkpt>
      <trkpt lat="47.54873" lon="6.75645">
        <ele>431</ele>
        <time>2016-08-24T15:22:21.000Z</time>
      </trkpt>
      <trkpt lat="47.54871" lon="6.75643">
        <ele>432</ele>
        <time>2016-08-24T15:22:22.000Z</time>
      </trkpt>
      <trkpt lat="47.54869" lon="6.75638">
        <ele>432</ele>
        <time>2016-08-24T15:22:26.000Z</time>
      </trkpt>
      <trkpt lat="47.54868" lon="6.75636">
        <ele>432</ele>
        <time>2016-08-24T15:22:27.000Z</time>
      </trkpt>
      <trkpt lat="47.54866" lon="6.75631">
        <ele>432</ele>
        <time>2016-08-24T15:22:29.000Z</time>
      </trkpt>
      <trkpt lat="47.54865" lon="6.7563">
        <ele>432</ele>
        <time>2016-08-24T15:22:30.000Z</time>
      </trkpt>
      <trkpt lat="47.54863" lon="6.75627">
        <ele>433</ele>
        <time>2016-08-24T15:22:32.000Z</time>
      </trkpt>
      <trkpt lat="47.54861" lon="6.75625">
        <ele>433</ele>
        <time>2016-08-24T15:22:33.000Z</time>
      </trkpt>
      <trkpt lat="47.5486" lon="6.75621">
        <ele>433</ele>
        <time>2016-08-24T15:22:35.000Z</time>
      </trkpt>
      <trkpt lat="47.54859" lon="6.7562">
        <ele>433</ele>
        <time>2016-08-24T15:22:36.000Z</time>
      </trkpt>
      <trkpt lat="47.54855" lon="6.75616">
        <ele>433</ele>
        <time>2016-08-24T15:22:39.000Z</time>
      </trkpt>
      <trkpt lat="47.54855" lon="6.75615">
        <ele>433</ele>
        <time>2016-08-24T15:22:40.000Z</time>
      </trkpt>
      <trkpt lat="47.54851" lon="6.75612">
        <ele>434</ele>
        <time>2016-08-24T15:22:46.000Z</time>
      </trkpt>
      <trkpt lat="47.5485" lon="6.75611">
        <ele>434</ele>
        <time>2016-08-24T15:22:47.000Z</time>
      </trkpt>
      <trkpt lat="47.54846" lon="6.75612">
        <ele>434</ele>
        <time>2016-08-24T15:22:49.000Z</time>
      </trkpt>
      <trkpt lat="47.54845" lon="6.75612">
        <ele>434</ele>
        <time>2016-08-24T15:22:50.000Z</time>
      </trkpt>
      <trkpt lat="47.54841" lon="6.75613">
        <ele>435</ele>
        <time>2016-08-24T15:22:53.000Z</time>
      </trkpt>
      <trkpt lat="47.54839" lon="6.75613">
        <ele>435</ele>
        <time>2016-08-24T15:22:54.000Z</time>
      </trkpt>
      <trkpt lat="47.54835" lon="6.75612">
        <ele>435</ele>
        <time>2016-08-24T15:22:56.000Z</time>
      </trkpt>
      <trkpt lat="47.54833" lon="6.75612">
        <ele>441</ele>
        <time>2016-08-24T15:22:57.000Z</time>
      </trkpt>
      <trkpt lat="47.5483" lon="6.75611">
        <ele>441</ele>
        <time>2016-08-24T15:23:00.000Z</time>
      </trkpt>
      <trkpt lat="47.54828" lon="6.7561">
        <ele>441</ele>
        <time>2016-08-24T15:23:01.000Z</time>
      </trkpt>
      <trkpt lat="47.54823" lon="6.7561">
        <ele>441</ele>
        <time>2016-08-24T15:23:04.000Z</time>
      </trkpt>
      <trkpt lat="47.54822" lon="6.75609">
        <ele>441</ele>
        <time>2016-08-24T15:23:05.000Z</time>
      </trkpt>
      <trkpt lat="47.54819" lon="6.75609">
        <ele>442</ele>
        <time>2016-08-24T15:23:07.000Z</time>
      </trkpt>
      <trkpt lat="47.54817" lon="6.75609">
        <ele>442</ele>
        <time>2016-08-24T15:23:08.000Z</time>
      </trkpt>
      <trkpt lat="47.54813" lon="6.7561">
        <ele>442</ele>
        <time>2016-08-24T15:23:10.000Z</time>
      </trkpt>
      <trkpt lat="47.54811" lon="6.75611">
        <ele>442</ele>
        <time>2016-08-24T15:23:11.000Z</time>
      </trkpt>
      <trkpt lat="47.54808" lon="6.75612">
        <ele>442</ele>
        <time>2016-08-24T15:23:13.000Z</time>
      </trkpt>
      <trkpt lat="47.54806" lon="6.75612">
        <ele>442</ele>
        <time>2016-08-24T15:23:14.000Z</time>
      </trkpt>
      <trkpt lat="47.54802" lon="6.75613">
        <ele>442</ele>
        <time>2016-08-24T15:23:16.000Z</time>
      </trkpt>
      <trkpt lat="47.548" lon="6.75613">
        <ele>442</ele>
        <time>2016-08-24T15:23:17.000Z</time>
      </trkpt>
      <trkpt lat="47.54796" lon="6.75615">
        <ele>443</ele>
        <time>2016-08-24T15:23:19.000Z</time>
      </trkpt>
      <trkpt lat="47.54794" lon="6.75616">
        <ele>443</ele>
        <time>2016-08-24T15:23:20.000Z</time>
      </trkpt>
      <trkpt lat="47.5479" lon="6.75617">
        <ele>443</ele>
        <time>2016-08-24T15:23:22.000Z</time>
      </trkpt>
      <trkpt lat="47.54789" lon="6.75618">
        <ele>443</ele>
        <time>2016-08-24T15:23:23.000Z</time>
      </trkpt>
      <trkpt lat="47.54786" lon="6.7562">
        <ele>443</ele>
        <time>2016-08-24T15:23:26.000Z</time>
      </trkpt>
      <trkpt lat="47.54785" lon="6.75621">
        <ele>443</ele>
        <time>2016-08-24T15:23:27.000Z</time>
      </trkpt>
      <trkpt lat="47.54781" lon="6.75622">
        <ele>443</ele>
        <time>2016-08-24T15:23:29.000Z</time>
      </trkpt>
      <trkpt lat="47.54779" lon="6.75622">
        <ele>443</ele>
        <time>2016-08-24T15:23:30.000Z</time>
      </trkpt>
      <trkpt lat="47.54776" lon="6.75624">
        <ele>443</ele>
        <time>2016-08-24T15:23:32.000Z</time>
      </trkpt>
      <trkpt lat="47.54775" lon="6.75625">
        <ele>443</ele>
        <time>2016-08-24T15:23:33.000Z</time>
      </trkpt>
      <trkpt lat="47.54771" lon="6.75626">
        <ele>443</ele>
        <time>2016-08-24T15:23:38.000Z</time>
      </trkpt>
      <trkpt lat="47.5477" lon="6.75626">
        <ele>443</ele>
        <time>2016-08-24T15:23:39.000Z</time>
      </trkpt>
      <trkpt lat="47.54766" lon="6.75625">
        <ele>443</ele>
        <time>2016-08-24T15:23:44.000Z</time>
      </trkpt>
      <trkpt lat="47.54765" lon="6.75625">
        <ele>444</ele>
        <time>2016-08-24T15:23:45.000Z</time>
      </trkpt>
      <trkpt lat="47.54762" lon="6.75624">
        <ele>444</ele>
        <time>2016-08-24T15:23:47.000Z</time>
      </trkpt>
      <trkpt lat="47.54761" lon="6.75624">
        <ele>444</ele>
        <time>2016-08-24T15:23:48.000Z</time>
      </trkpt>
      <trkpt lat="47.54757" lon="6.75622">
        <ele>444</ele>
        <time>2016-08-24T15:23:50.000Z</time>
      </trkpt>
      <trkpt lat="47.54755" lon="6.75621">
        <ele>444</ele>
        <time>2016-08-24T15:23:51.000Z</time>
      </trkpt>
      <trkpt lat="47.54752" lon="6.75621">
        <ele>444</ele>
        <time>2016-08-24T15:23:53.000Z</time>
      </trkpt>
      <trkpt lat="47.5475" lon="6.75621">
        <ele>444</ele>
        <time>2016-08-24T15:23:54.000Z</time>
      </trkpt>
      <trkpt lat="47.54747" lon="6.75621">
        <ele>449</ele>
        <time>2016-08-24T15:23:56.000Z</time>
      </trkpt>
      <trkpt lat="47.54745" lon="6.7562">
        <ele>449</ele>
        <time>2016-08-24T15:23:57.000Z</time>
      </trkpt>
      <trkpt lat="47.54742" lon="6.7562">
        <ele>449</ele>
        <time>2016-08-24T15:23:59.000Z</time>
      </trkpt>
      <trkpt lat="47.5474" lon="6.7562">
        <ele>450</ele>
        <time>2016-08-24T15:24:00.000Z</time>
      </trkpt>
      <trkpt lat="47.54735" lon="6.7562">
        <ele>450</ele>
        <time>2016-08-24T15:24:02.000Z</time>
      </trkpt>
      <trkpt lat="47.54734" lon="6.7562">
        <ele>450</ele>
        <time>2016-08-24T15:24:03.000Z</time>
      </trkpt>
      <trkpt lat="47.54729" lon="6.75619">
        <ele>450</ele>
        <time>2016-08-24T15:24:05.000Z</time>
      </trkpt>
      <trkpt lat="47.54727" lon="6.75619">
        <ele>450</ele>
        <time>2016-08-24T15:24:06.000Z</time>
      </trkpt>
      <trkpt lat="47.54723" lon="6.75617">
        <ele>450</ele>
        <time>2016-08-24T15:24:08.000Z</time>
      </trkpt>
      <trkpt lat="47.54722" lon="6.75616">
        <ele>450</ele>
        <time>2016-08-24T15:24:09.000Z</time>
      </trkpt>
      <trkpt lat="47.54718" lon="6.75611">
        <ele>451</ele>
        <time>2016-08-24T15:24:12.000Z</time>
      </trkpt>
      <trkpt lat="47.54717" lon="6.7561">
        <ele>451</ele>
        <time>2016-08-24T15:24:13.000Z</time>
      </trkpt>
      <trkpt lat="47.54714" lon="6.75606">
        <ele>451</ele>
        <time>2016-08-24T15:24:16.000Z</time>
      </trkpt>
      <trkpt lat="47.54713" lon="6.75605">
        <ele>451</ele>
        <time>2016-08-24T15:24:17.000Z</time>
      </trkpt>
      <trkpt lat="47.5471" lon="6.75602">
        <ele>451</ele>
        <time>2016-08-24T15:24:20.000Z</time>
      </trkpt>
      <trkpt lat="47.54709" lon="6.756">
        <ele>452</ele>
        <time>2016-08-24T15:24:21.000Z</time>
      </trkpt>
      <trkpt lat="47.54708" lon="6.75595">
        <ele>452</ele>
        <time>2016-08-24T15:24:23.000Z</time>
      </trkpt>
      <trkpt lat="47.54708" lon="6.75592">
        <ele>452</ele>
        <time>2016-08-24T15:24:24.000Z</time>
      </trkpt>
      <trkpt lat="47.54707" lon="6.75588">
        <ele>452</ele>
        <time>2016-08-24T15:24:26.000Z</time>
      </trkpt>
      <trkpt lat="47.54707" lon="6.75586">
        <ele>452</ele>
        <time>2016-08-24T15:24:27.000Z</time>
      </trkpt>
      <trkpt lat="47.54706" lon="6.75582">
        <ele>455</ele>
        <time>2016-08-24T15:24:29.000Z</time>
      </trkpt>
      <trkpt lat="47.54705" lon="6.75579">
        <ele>455</ele>
        <time>2016-08-24T15:24:30.000Z</time>
      </trkpt>
      <trkpt lat="47.54704" lon="6.75576">
        <ele>455</ele>
        <time>2016-08-24T15:24:31.000Z</time>
      </trkpt>
      <trkpt lat="47.54704" lon="6.75573">
        <ele>455</ele>
        <time>2016-08-24T15:24:32.000Z</time>
      </trkpt>
      <trkpt lat="47.54704" lon="6.75569">
        <ele>455</ele>
        <time>2016-08-24T15:24:33.000Z</time>
      </trkpt>
      <trkpt lat="47.54704" lon="6.75566">
        <ele>455</ele>
        <time>2016-08-24T15:24:34.000Z</time>
      </trkpt>
      <trkpt lat="47.54704" lon="6.75559">
        <ele>455</ele>
        <time>2016-08-24T15:24:36.000Z</time>
      </trkpt>
      <trkpt lat="47.54704" lon="6.75556">
        <ele>455</ele>
        <time>2016-08-24T15:24:37.000Z</time>
      </trkpt>
      <trkpt lat="47.54703" lon="6.75552">
        <ele>456</ele>
        <time>2016-08-24T15:24:39.000Z</time>
      </trkpt>
      <trkpt lat="47.54702" lon="6.75549">
        <ele>456</ele>
        <time>2016-08-24T15:24:40.000Z</time>
      </trkpt>
      <trkpt lat="47.547" lon="6.75543">
        <ele>456</ele>
        <time>2016-08-24T15:24:42.000Z</time>
      </trkpt>
      <trkpt lat="47.54699" lon="6.75541">
        <ele>456</ele>
        <time>2016-08-24T15:24:43.000Z</time>
      </trkpt>
      <trkpt lat="47.54699" lon="6.75536">
        <ele>456</ele>
        <time>2016-08-24T15:24:45.000Z</time>
      </trkpt>
      <trkpt lat="47.54699" lon="6.75533">
        <ele>456</ele>
        <time>2016-08-24T15:24:46.000Z</time>
      </trkpt>
      <trkpt lat="47.54698" lon="6.75528">
        <ele>457</ele>
        <time>2016-08-24T15:24:48.000Z</time>
      </trkpt>
      <trkpt lat="47.54698" lon="6.75525">
        <ele>457</ele>
        <time>2016-08-24T15:24:49.000Z</time>
      </trkpt>
      <trkpt lat="47.54697" lon="6.75522">
        <ele>457</ele>
        <time>2016-08-24T15:24:50.000Z</time>
      </trkpt>
      <trkpt lat="47.54696" lon="6.75518">
        <ele>457</ele>
        <time>2016-08-24T15:24:51.000Z</time>
      </trkpt>
      <trkpt lat="47.54695" lon="6.75514">
        <ele>458</ele>
        <time>2016-08-24T15:24:52.000Z</time>
      </trkpt>
      <trkpt lat="47.54696" lon="6.7551">
        <ele>458</ele>
        <time>2016-08-24T15:24:53.000Z</time>
      </trkpt>
      <trkpt lat="47.54697" lon="6.75505">
        <ele>458</ele>
        <time>2016-08-24T15:24:54.000Z</time>
      </trkpt>
      <trkpt lat="47.54699" lon="6.755">
        <ele>460</ele>
        <time>2016-08-24T15:24:55.000Z</time>
      </trkpt>
      <trkpt lat="47.54701" lon="6.75494">
        <ele>460</ele>
        <time>2016-08-24T15:24:56.000Z</time>
      </trkpt>
      <trkpt lat="47.54701" lon="6.75489">
        <ele>460</ele>
        <time>2016-08-24T15:24:57.000Z</time>
      </trkpt>
      <trkpt lat="47.54701" lon="6.75485">
        <ele>460</ele>
        <time>2016-08-24T15:24:58.000Z</time>
      </trkpt>
      <trkpt lat="47.54701" lon="6.75481">
        <ele>460</ele>
        <time>2016-08-24T15:24:59.000Z</time>
      </trkpt>
      <trkpt lat="47.547" lon="6.75477">
        <ele>460</ele>
        <time>2016-08-24T15:25:00.000Z</time>
      </trkpt>
      <trkpt lat="47.54699" lon="6.75474">
        <ele>460</ele>
        <time>2016-08-24T15:25:01.000Z</time>
      </trkpt>
      <trkpt lat="47.54699" lon="6.7547">
        <ele>460</ele>
        <time>2016-08-24T15:25:02.000Z</time>
      </trkpt>
      <trkpt lat="47.54699" lon="6.75467">
        <ele>460</ele>
        <time>2016-08-24T15:25:03.000Z</time>
      </trkpt>
      <trkpt lat="47.54698" lon="6.75462">
        <ele>460</ele>
        <time>2016-08-24T15:25:04.000Z</time>
      </trkpt>
      <trkpt lat="47.54698" lon="6.75457">
        <ele>461</ele>
        <time>2016-08-24T15:25:05.000Z</time>
      </trkpt>
      <trkpt lat="47.54698" lon="6.75452">
        <ele>461</ele>
        <time>2016-08-24T15:25:06.000Z</time>
      </trkpt>
      <trkpt lat="47.54698" lon="6.75447">
        <ele>461</ele>
        <time>2016-08-24T15:25:07.000Z</time>
      </trkpt>
      <trkpt lat="47.54698" lon="6.75442">
        <ele>461</ele>
        <time>2016-08-24T15:25:08.000Z</time>
      </trkpt>
      <trkpt lat="47.54698" lon="6.75438">
        <ele>461</ele>
        <time>2016-08-24T15:25:09.000Z</time>
      </trkpt>
      <trkpt lat="47.54698" lon="6.75434">
        <ele>462</ele>
        <time>2016-08-24T15:25:10.000Z</time>
      </trkpt>
      <trkpt lat="47.54697" lon="6.7543">
        <ele>462</ele>
        <time>2016-08-24T15:25:11.000Z</time>
      </trkpt>
      <trkpt lat="47.54697" lon="6.75426">
        <ele>462</ele>
        <time>2016-08-24T15:25:12.000Z</time>
      </trkpt>
      <trkpt lat="47.54696" lon="6.75422">
        <ele>462</ele>
        <time>2016-08-24T15:25:13.000Z</time>
      </trkpt>
      <trkpt lat="47.54695" lon="6.75417">
        <ele>462</ele>
        <time>2016-08-24T15:25:14.000Z</time>
      </trkpt>
      <trkpt lat="47.54695" lon="6.75412">
        <ele>463</ele>
        <time>2016-08-24T15:25:15.000Z</time>
      </trkpt>
      <trkpt lat="47.54694" lon="6.75408">
        <ele>463</ele>
        <time>2016-08-24T15:25:16.000Z</time>
      </trkpt>
      <trkpt lat="47.54694" lon="6.75404">
        <ele>463</ele>
        <time>2016-08-24T15:25:17.000Z</time>
      </trkpt>
      <trkpt lat="47.54693" lon="6.754">
        <ele>463</ele>
        <time>2016-08-24T15:25:18.000Z</time>
      </trkpt>
      <trkpt lat="47.54692" lon="6.75397">
        <ele>463</ele>
        <time>2016-08-24T15:25:19.000Z</time>
      </trkpt>
      <trkpt lat="47.54691" lon="6.75393">
        <ele>463</ele>
        <time>2016-08-24T15:25:20.000Z</time>
      </trkpt>
      <trkpt lat="47.5469" lon="6.75388">
        <ele>463</ele>
        <time>2016-08-24T15:25:21.000Z</time>
      </trkpt>
      <trkpt lat="47.5469" lon="6.75384">
        <ele>463</ele>
        <time>2016-08-24T15:25:22.000Z</time>
      </trkpt>
      <trkpt lat="47.54689" lon="6.75378">
        <ele>463</ele>
        <time>2016-08-24T15:25:23.000Z</time>
      </trkpt>
      <trkpt lat="47.54688" lon="6.75373">
        <ele>463</ele>
        <time>2016-08-24T15:25:24.000Z</time>
      </trkpt>
      <trkpt lat="47.54686" lon="6.75369">
        <ele>463</ele>
        <time>2016-08-24T15:25:25.000Z</time>
      </trkpt>
      <trkpt lat="47.54685" lon="6.75364">
        <ele>463</ele>
        <time>2016-08-24T15:25:26.000Z</time>
      </trkpt>
      <trkpt lat="47.54683" lon="6.7536">
        <ele>463</ele>
        <time>2016-08-24T15:25:27.000Z</time>
      </trkpt>
      <trkpt lat="47.54682" lon="6.75356">
        <ele>464</ele>
        <time>2016-08-24T15:25:28.000Z</time>
      </trkpt>
      <trkpt lat="47.54681" lon="6.75352">
        <ele>464</ele>
        <time>2016-08-24T15:25:29.000Z</time>
      </trkpt>
      <trkpt lat="47.5468" lon="6.75348">
        <ele>464</ele>
        <time>2016-08-24T15:25:30.000Z</time>
      </trkpt>
      <trkpt lat="47.5468" lon="6.75343">
        <ele>464</ele>
        <time>2016-08-24T15:25:31.000Z</time>
      </trkpt>
      <trkpt lat="47.5468" lon="6.75338">
        <ele>465</ele>
        <time>2016-08-24T15:25:32.000Z</time>
      </trkpt>
      <trkpt lat="47.5468" lon="6.75333">
        <ele>464</ele>
        <time>2016-08-24T15:25:33.000Z</time>
      </trkpt>
      <trkpt lat="47.5468" lon="6.75328">
        <ele>464</ele>
        <time>2016-08-24T15:25:34.000Z</time>
      </trkpt>
      <trkpt lat="47.5468" lon="6.75322">
        <ele>464</ele>
        <time>2016-08-24T15:25:35.000Z</time>
      </trkpt>
      <trkpt lat="47.5468" lon="6.75317">
        <ele>463</ele>
        <time>2016-08-24T15:25:36.000Z</time>
      </trkpt>
      <trkpt lat="47.5468" lon="6.75312">
        <ele>463</ele>
        <time>2016-08-24T15:25:37.000Z</time>
      </trkpt>
      <trkpt lat="47.54679" lon="6.75307">
        <ele>463</ele>
        <time>2016-08-24T15:25:38.000Z</time>
      </trkpt>
      <trkpt lat="47.54678" lon="6.75302">
        <ele>462</ele>
        <time>2016-08-24T15:25:39.000Z</time>
      </trkpt>
      <trkpt lat="47.54676" lon="6.75297">
        <ele>462</ele>
        <time>2016-08-24T15:25:40.000Z</time>
      </trkpt>
      <trkpt lat="47.54675" lon="6.75292">
        <ele>462</ele>
        <time>2016-08-24T15:25:41.000Z</time>
      </trkpt>
      <trkpt lat="47.54673" lon="6.75288">
        <ele>462</ele>
        <time>2016-08-24T15:25:42.000Z</time>
      </trkpt>
      <trkpt lat="47.54673" lon="6.75285">
        <ele>462</ele>
        <time>2016-08-24T15:25:43.000Z</time>
      </trkpt>
      <trkpt lat="47.54672" lon="6.7528">
        <ele>463</ele>
        <time>2016-08-24T15:25:45.000Z</time>
      </trkpt>
      <trkpt lat="47.54673" lon="6.75277">
        <ele>463</ele>
        <time>2016-08-24T15:25:46.000Z</time>
      </trkpt>
      <trkpt lat="47.54673" lon="6.75273">
        <ele>463</ele>
        <time>2016-08-24T15:25:47.000Z</time>
      </trkpt>
      <trkpt lat="47.54674" lon="6.75268">
        <ele>463</ele>
        <time>2016-08-24T15:25:48.000Z</time>
      </trkpt>
      <trkpt lat="47.54675" lon="6.75263">
        <ele>463</ele>
        <time>2016-08-24T15:25:49.000Z</time>
      </trkpt>
      <trkpt lat="47.54675" lon="6.75258">
        <ele>464</ele>
        <time>2016-08-24T15:25:50.000Z</time>
      </trkpt>
      <trkpt lat="47.54676" lon="6.75253">
        <ele>464</ele>
        <time>2016-08-24T15:25:51.000Z</time>
      </trkpt>
      <trkpt lat="47.54676" lon="6.75249">
        <ele>464</ele>
        <time>2016-08-24T15:25:52.000Z</time>
      </trkpt>
      <trkpt lat="47.54676" lon="6.75245">
        <ele>463</ele>
        <time>2016-08-24T15:25:53.000Z</time>
      </trkpt>
      <trkpt lat="47.54676" lon="6.75241">
        <ele>463</ele>
        <time>2016-08-24T15:25:54.000Z</time>
      </trkpt>
      <trkpt lat="47.54677" lon="6.75237">
        <ele>462</ele>
        <time>2016-08-24T15:25:55.000Z</time>
      </trkpt>
      <trkpt lat="47.54678" lon="6.75233">
        <ele>462</ele>
        <time>2016-08-24T15:25:56.000Z</time>
      </trkpt>
      <trkpt lat="47.5468" lon="6.75228">
        <ele>461</ele>
        <time>2016-08-24T15:25:58.000Z</time>
      </trkpt>
      <trkpt lat="47.54682" lon="6.75225">
        <ele>461</ele>
        <time>2016-08-24T15:25:59.000Z</time>
      </trkpt>
      <trkpt lat="47.54685" lon="6.7522">
        <ele>461</ele>
        <time>2016-08-24T15:26:01.000Z</time>
      </trkpt>
      <trkpt lat="47.54686" lon="6.75216">
        <ele>460</ele>
        <time>2016-08-24T15:26:02.000Z</time>
      </trkpt>
      <trkpt lat="47.54688" lon="6.75212">
        <ele>460</ele>
        <time>2016-08-24T15:26:03.000Z</time>
      </trkpt>
      <trkpt lat="47.54691" lon="6.75206">
        <ele>460</ele>
        <time>2016-08-24T15:26:04.000Z</time>
      </trkpt>
      <trkpt lat="47.54692" lon="6.75203">
        <ele>460</ele>
        <time>2016-08-24T15:26:05.000Z</time>
      </trkpt>
      <trkpt lat="47.54692" lon="6.75194">
        <ele>460</ele>
        <time>2016-08-24T15:26:06.000Z</time>
      </trkpt>
      <trkpt lat="47.54694" lon="6.75189">
        <ele>460</ele>
        <time>2016-08-24T15:26:07.000Z</time>
      </trkpt>
      <trkpt lat="47.54696" lon="6.75182">
        <ele>460</ele>
        <time>2016-08-24T15:26:08.000Z</time>
      </trkpt>
      <trkpt lat="47.54696" lon="6.75174">
        <ele>460</ele>
        <time>2016-08-24T15:26:09.000Z</time>
      </trkpt>
      <trkpt lat="47.54695" lon="6.7516">
        <ele>458</ele>
        <time>2016-08-24T15:26:10.000Z</time>
      </trkpt>
      <trkpt lat="47.54694" lon="6.75152">
        <ele>458</ele>
        <time>2016-08-24T15:26:11.000Z</time>
      </trkpt>
      <trkpt lat="47.54693" lon="6.75147">
        <ele>458</ele>
        <time>2016-08-24T15:26:12.000Z</time>
      </trkpt>
      <trkpt lat="47.54692" lon="6.75144">
        <ele>458</ele>
        <time>2016-08-24T15:26:13.000Z</time>
      </trkpt>
      <trkpt lat="47.54691" lon="6.75138">
        <ele>457</ele>
        <time>2016-08-24T15:26:15.000Z</time>
      </trkpt>
      <trkpt lat="47.54691" lon="6.75136">
        <ele>457</ele>
        <time>2016-08-24T15:26:16.000Z</time>
      </trkpt>
      <trkpt lat="47.5469" lon="6.75131">
        <ele>457</ele>
        <time>2016-08-24T15:26:18.000Z</time>
      </trkpt>
      <trkpt lat="47.5469" lon="6.75129">
        <ele>457</ele>
        <time>2016-08-24T15:26:19.000Z</time>
      </trkpt>
      <trkpt lat="47.54689" lon="6.75123">
        <ele>457</ele>
        <time>2016-08-24T15:26:22.000Z</time>
      </trkpt>
      <trkpt lat="47.54689" lon="6.75121">
        <ele>457</ele>
        <time>2016-08-24T15:26:23.000Z</time>
      </trkpt>
      <trkpt lat="47.54687" lon="6.75115">
        <ele>457</ele>
        <time>2016-08-24T15:26:26.000Z</time>
      </trkpt>
      <trkpt lat="47.54687" lon="6.75114">
        <ele>457</ele>
        <time>2016-08-24T15:26:27.000Z</time>
      </trkpt>
      <trkpt lat="47.54686" lon="6.75108">
        <ele>457</ele>
        <time>2016-08-24T15:26:39.000Z</time>
      </trkpt>
      <trkpt lat="47.54685" lon="6.75107">
        <ele>457</ele>
        <time>2016-08-24T15:26:40.000Z</time>
      </trkpt>
      <trkpt lat="47.54683" lon="6.75103">
        <ele>457</ele>
        <time>2016-08-24T15:26:43.000Z</time>
      </trkpt>
      <trkpt lat="47.54682" lon="6.75102">
        <ele>457</ele>
        <time>2016-08-24T15:26:44.000Z</time>
      </trkpt>
      <trkpt lat="47.5468" lon="6.75097">
        <ele>457</ele>
        <time>2016-08-24T15:26:46.000Z</time>
      </trkpt>
      <trkpt lat="47.54679" lon="6.75095">
        <ele>457</ele>
        <time>2016-08-24T15:26:47.000Z</time>
      </trkpt>
      <trkpt lat="47.54678" lon="6.75089">
        <ele>457</ele>
        <time>2016-08-24T15:26:49.000Z</time>
      </trkpt>
      <trkpt lat="47.54677" lon="6.75086">
        <ele>457</ele>
        <time>2016-08-24T15:26:50.000Z</time>
      </trkpt>
      <trkpt lat="47.54677" lon="6.7508">
        <ele>456</ele>
        <time>2016-08-24T15:26:52.000Z</time>
      </trkpt>
      <trkpt lat="47.54678" lon="6.75076">
        <ele>456</ele>
        <time>2016-08-24T15:26:53.000Z</time>
      </trkpt>
      <trkpt lat="47.54678" lon="6.75071">
        <ele>455</ele>
        <time>2016-08-24T15:26:54.000Z</time>
      </trkpt>
      <trkpt lat="47.54678" lon="6.75067">
        <ele>455</ele>
        <time>2016-08-24T15:26:55.000Z</time>
      </trkpt>
      <trkpt lat="47.54677" lon="6.75063">
        <ele>455</ele>
        <time>2016-08-24T15:26:56.000Z</time>
      </trkpt>
      <trkpt lat="47.54676" lon="6.7506">
        <ele>454</ele>
        <time>2016-08-24T15:26:57.000Z</time>
      </trkpt>
      <trkpt lat="47.54675" lon="6.75056">
        <ele>454</ele>
        <time>2016-08-24T15:26:59.000Z</time>
      </trkpt>
      <trkpt lat="47.54675" lon="6.75054">
        <ele>454</ele>
        <time>2016-08-24T15:27:00.000Z</time>
      </trkpt>
      <trkpt lat="47.54673" lon="6.75048">
        <ele>454</ele>
        <time>2016-08-24T15:27:02.000Z</time>
      </trkpt>
      <trkpt lat="47.54671" lon="6.75045">
        <ele>454</ele>
        <time>2016-08-24T15:27:03.000Z</time>
      </trkpt>
      <trkpt lat="47.54669" lon="6.75043">
        <ele>454</ele>
        <time>2016-08-24T15:27:04.000Z</time>
      </trkpt>
      <trkpt lat="47.54667" lon="6.75042">
        <ele>458</ele>
        <time>2016-08-24T15:27:05.000Z</time>
      </trkpt>
      <trkpt lat="47.54664" lon="6.75041">
        <ele>458</ele>
        <time>2016-08-24T15:27:06.000Z</time>
      </trkpt>
      <trkpt lat="47.54662" lon="6.75041">
        <ele>458</ele>
        <time>2016-08-24T15:27:07.000Z</time>
      </trkpt>
      <trkpt lat="47.54659" lon="6.75042">
        <ele>458</ele>
        <time>2016-08-24T15:27:08.000Z</time>
      </trkpt>
      <trkpt lat="47.54657" lon="6.75043">
        <ele>458</ele>
        <time>2016-08-24T15:27:09.000Z</time>
      </trkpt>
      <trkpt lat="47.54653" lon="6.75044">
        <ele>458</ele>
        <time>2016-08-24T15:27:11.000Z</time>
      </trkpt>
      <trkpt lat="47.54651" lon="6.75045">
        <ele>458</ele>
        <time>2016-08-24T15:27:12.000Z</time>
      </trkpt>
      <trkpt lat="47.54648" lon="6.75044">
        <ele>458</ele>
        <time>2016-08-24T15:27:14.000Z</time>
      </trkpt>
      <trkpt lat="47.54646" lon="6.75043">
        <ele>458</ele>
        <time>2016-08-24T15:27:15.000Z</time>
      </trkpt>
      <trkpt lat="47.54642" lon="6.75041">
        <ele>459</ele>
        <time>2016-08-24T15:27:17.000Z</time>
      </trkpt>
      <trkpt lat="47.5464" lon="6.75041">
        <ele>459</ele>
        <time>2016-08-24T15:27:18.000Z</time>
      </trkpt>
      <trkpt lat="47.54636" lon="6.75041">
        <ele>459</ele>
        <time>2016-08-24T15:27:20.000Z</time>
      </trkpt>
      <trkpt lat="47.54634" lon="6.75042">
        <ele>459</ele>
        <time>2016-08-24T15:27:21.000Z</time>
      </trkpt>
      <trkpt lat="47.5463" lon="6.75044">
        <ele>459</ele>
        <time>2016-08-24T15:27:23.000Z</time>
      </trkpt>
      <trkpt lat="47.54628" lon="6.75044">
        <ele>459</ele>
        <time>2016-08-24T15:27:24.000Z</time>
      </trkpt>
      <trkpt lat="47.54626" lon="6.75045">
        <ele>459</ele>
        <time>2016-08-24T15:27:25.000Z</time>
      </trkpt>
      <trkpt lat="47.54623" lon="6.75046">
        <ele>459</ele>
        <time>2016-08-24T15:27:26.000Z</time>
      </trkpt>
      <trkpt lat="47.54621" lon="6.75047">
        <ele>460</ele>
        <time>2016-08-24T15:27:27.000Z</time>
      </trkpt>
      <trkpt lat="47.54618" lon="6.75049">
        <ele>460</ele>
        <time>2016-08-24T15:27:28.000Z</time>
      </trkpt>
      <trkpt lat="47.54616" lon="6.7505">
        <ele>460</ele>
        <time>2016-08-24T15:27:29.000Z</time>
      </trkpt>
      <trkpt lat="47.54613" lon="6.75052">
        <ele>460</ele>
        <time>2016-08-24T15:27:30.000Z</time>
      </trkpt>
      <trkpt lat="47.5461" lon="6.75054">
        <ele>460</ele>
        <time>2016-08-24T15:27:31.000Z</time>
      </trkpt>
      <trkpt lat="47.54607" lon="6.75058">
        <ele>460</ele>
        <time>2016-08-24T15:27:32.000Z</time>
      </trkpt>
      <trkpt lat="47.54604" lon="6.75061">
        <ele>460</ele>
        <time>2016-08-24T15:27:33.000Z</time>
      </trkpt>
      <trkpt lat="47.54601" lon="6.75065">
        <ele>461</ele>
        <time>2016-08-24T15:27:34.000Z</time>
      </trkpt>
      <trkpt lat="47.54598" lon="6.75068">
        <ele>461</ele>
        <time>2016-08-24T15:27:35.000Z</time>
      </trkpt>
      <trkpt lat="47.54595" lon="6.7507">
        <ele>461</ele>
        <time>2016-08-24T15:27:36.000Z</time>
      </trkpt>
      <trkpt lat="47.54592" lon="6.75071">
        <ele>461</ele>
        <time>2016-08-24T15:27:37.000Z</time>
      </trkpt>
      <trkpt lat="47.5459" lon="6.75071">
        <ele>462</ele>
        <time>2016-08-24T15:27:38.000Z</time>
      </trkpt>
      <trkpt lat="47.54586" lon="6.75071">
        <ele>462</ele>
        <time>2016-08-24T15:27:39.000Z</time>
      </trkpt>
      <trkpt lat="47.54584" lon="6.7507">
        <ele>462</ele>
        <time>2016-08-24T15:27:40.000Z</time>
      </trkpt>
      <trkpt lat="47.54581" lon="6.75071">
        <ele>464</ele>
        <time>2016-08-24T15:27:41.000Z</time>
      </trkpt>
      <trkpt lat="47.54578" lon="6.75071">
        <ele>464</ele>
        <time>2016-08-24T15:27:42.000Z</time>
      </trkpt>
      <trkpt lat="47.54574" lon="6.75073">
        <ele>464</ele>
        <time>2016-08-24T15:27:44.000Z</time>
      </trkpt>
      <trkpt lat="47.54572" lon="6.75074">
        <ele>465</ele>
        <time>2016-08-24T15:27:45.000Z</time>
      </trkpt>
      <trkpt lat="47.54569" lon="6.75077">
        <ele>465</ele>
        <time>2016-08-24T15:27:47.000Z</time>
      </trkpt>
      <trkpt lat="47.54568" lon="6.75078">
        <ele>465</ele>
        <time>2016-08-24T15:27:48.000Z</time>
      </trkpt>
      <trkpt lat="47.54564" lon="6.7508">
        <ele>465</ele>
        <time>2016-08-24T15:27:50.000Z</time>
      </trkpt>
      <trkpt lat="47.54561" lon="6.75081">
        <ele>465</ele>
        <time>2016-08-24T15:27:51.000Z</time>
      </trkpt>
      <trkpt lat="47.54559" lon="6.75083">
        <ele>465</ele>
        <time>2016-08-24T15:27:52.000Z</time>
      </trkpt>
      <trkpt lat="47.54557" lon="6.75085">
        <ele>466</ele>
        <time>2016-08-24T15:27:53.000Z</time>
      </trkpt>
      <trkpt lat="47.54554" lon="6.75087">
        <ele>466</ele>
        <time>2016-08-24T15:27:54.000Z</time>
      </trkpt>
      <trkpt lat="47.54552" lon="6.75089">
        <ele>467</ele>
        <time>2016-08-24T15:27:55.000Z</time>
      </trkpt>
      <trkpt lat="47.5455" lon="6.75091">
        <ele>467</ele>
        <time>2016-08-24T15:27:56.000Z</time>
      </trkpt>
      <trkpt lat="47.54548" lon="6.75094">
        <ele>467</ele>
        <time>2016-08-24T15:27:57.000Z</time>
      </trkpt>
      <trkpt lat="47.54545" lon="6.75096">
        <ele>467</ele>
        <time>2016-08-24T15:27:58.000Z</time>
      </trkpt>
      <trkpt lat="47.54543" lon="6.75097">
        <ele>467</ele>
        <time>2016-08-24T15:27:59.000Z</time>
      </trkpt>
      <trkpt lat="47.54541" lon="6.75099">
        <ele>467</ele>
        <time>2016-08-24T15:28:00.000Z</time>
      </trkpt>
      <trkpt lat="47.54539" lon="6.75101">
        <ele>467</ele>
        <time>2016-08-24T15:28:01.000Z</time>
      </trkpt>
      <trkpt lat="47.54535" lon="6.75105">
        <ele>468</ele>
        <time>2016-08-24T15:28:03.000Z</time>
      </trkpt>
      <trkpt lat="47.54534" lon="6.75107">
        <ele>468</ele>
        <time>2016-08-24T15:28:04.000Z</time>
      </trkpt>
      <trkpt lat="47.5453" lon="6.75108">
        <ele>468</ele>
        <time>2016-08-24T15:28:06.000Z</time>
      </trkpt>
      <trkpt lat="47.54528" lon="6.75109">
        <ele>468</ele>
        <time>2016-08-24T15:28:07.000Z</time>
      </trkpt>
      <trkpt lat="47.54524" lon="6.75109">
        <ele>468</ele>
        <time>2016-08-24T15:28:09.000Z</time>
      </trkpt>
      <trkpt lat="47.54522" lon="6.75109">
        <ele>468</ele>
        <time>2016-08-24T15:28:10.000Z</time>
      </trkpt>
      <trkpt lat="47.54518" lon="6.7511">
        <ele>468</ele>
        <time>2016-08-24T15:28:12.000Z</time>
      </trkpt>
      <trkpt lat="47.54516" lon="6.75111">
        <ele>468</ele>
        <time>2016-08-24T15:28:13.000Z</time>
      </trkpt>
      <trkpt lat="47.54512" lon="6.75113">
        <ele>468</ele>
        <time>2016-08-24T15:28:15.000Z</time>
      </trkpt>
      <trkpt lat="47.5451" lon="6.75113">
        <ele>468</ele>
        <time>2016-08-24T15:28:16.000Z</time>
      </trkpt>
      <trkpt lat="47.54508" lon="6.75114">
        <ele>468</ele>
        <time>2016-08-24T15:28:17.000Z</time>
      </trkpt>
      <trkpt lat="47.54505" lon="6.75114">
        <ele>468</ele>
        <time>2016-08-24T15:28:18.000Z</time>
      </trkpt>
      <trkpt lat="47.54502" lon="6.75115">
        <ele>468</ele>
        <time>2016-08-24T15:28:19.000Z</time>
      </trkpt>
      <trkpt lat="47.54499" lon="6.75116">
        <ele>470</ele>
        <time>2016-08-24T15:28:20.000Z</time>
      </trkpt>
      <trkpt lat="47.54496" lon="6.75118">
        <ele>470</ele>
        <time>2016-08-24T15:28:21.000Z</time>
      </trkpt>
      <trkpt lat="47.54494" lon="6.75122">
        <ele>470</ele>
        <time>2016-08-24T15:28:22.000Z</time>
      </trkpt>
      <trkpt lat="47.54492" lon="6.75126">
        <ele>470</ele>
        <time>2016-08-24T15:28:23.000Z</time>
      </trkpt>
      <trkpt lat="47.54491" lon="6.7513">
        <ele>470</ele>
        <time>2016-08-24T15:28:24.000Z</time>
      </trkpt>
      <trkpt lat="47.5449" lon="6.75135">
        <ele>470</ele>
        <time>2016-08-24T15:28:25.000Z</time>
      </trkpt>
      <trkpt lat="47.54489" lon="6.75139">
        <ele>470</ele>
        <time>2016-08-24T15:28:26.000Z</time>
      </trkpt>
      <trkpt lat="47.54487" lon="6.75142">
        <ele>470</ele>
        <time>2016-08-24T15:28:27.000Z</time>
      </trkpt>
      <trkpt lat="47.54485" lon="6.75144">
        <ele>470</ele>
        <time>2016-08-24T15:28:28.000Z</time>
      </trkpt>
      <trkpt lat="47.54481" lon="6.75147">
        <ele>470</ele>
        <time>2016-08-24T15:28:30.000Z</time>
      </trkpt>
      <trkpt lat="47.5448" lon="6.75147">
        <ele>470</ele>
        <time>2016-08-24T15:28:31.000Z</time>
      </trkpt>
      <trkpt lat="47.54476" lon="6.75146">
        <ele>471</ele>
        <time>2016-08-24T15:28:33.000Z</time>
      </trkpt>
      <trkpt lat="47.54474" lon="6.75146">
        <ele>471</ele>
        <time>2016-08-24T15:28:34.000Z</time>
      </trkpt>
      <trkpt lat="47.54472" lon="6.75146">
        <ele>471</ele>
        <time>2016-08-24T15:28:35.000Z</time>
      </trkpt>
      <trkpt lat="47.54469" lon="6.75147">
        <ele>471</ele>
        <time>2016-08-24T15:28:36.000Z</time>
      </trkpt>
      <trkpt lat="47.54467" lon="6.75148">
        <ele>471</ele>
        <time>2016-08-24T15:28:37.000Z</time>
      </trkpt>
      <trkpt lat="47.54464" lon="6.75148">
        <ele>471</ele>
        <time>2016-08-24T15:28:38.000Z</time>
      </trkpt>
      <trkpt lat="47.54462" lon="6.75149">
        <ele>471</ele>
        <time>2016-08-24T15:28:39.000Z</time>
      </trkpt>
      <trkpt lat="47.54459" lon="6.75151">
        <ele>471</ele>
        <time>2016-08-24T15:28:40.000Z</time>
      </trkpt>
      <trkpt lat="47.54457" lon="6.75153">
        <ele>471</ele>
        <time>2016-08-24T15:28:41.000Z</time>
      </trkpt>
      <trkpt lat="47.54454" lon="6.75155">
        <ele>471</ele>
        <time>2016-08-24T15:28:42.000Z</time>
      </trkpt>
      <trkpt lat="47.54452" lon="6.75157">
        <ele>471</ele>
        <time>2016-08-24T15:28:43.000Z</time>
      </trkpt>
      <trkpt lat="47.54449" lon="6.75158">
        <ele>471</ele>
        <time>2016-08-24T15:28:44.000Z</time>
      </trkpt>
      <trkpt lat="47.54446" lon="6.7516">
        <ele>471</ele>
        <time>2016-08-24T15:28:45.000Z</time>
      </trkpt>
      <trkpt lat="47.54443" lon="6.75161">
        <ele>471</ele>
        <time>2016-08-24T15:28:46.000Z</time>
      </trkpt>
      <trkpt lat="47.54439" lon="6.75162">
        <ele>471</ele>
        <time>2016-08-24T15:28:47.000Z</time>
      </trkpt>
      <trkpt lat="47.54435" lon="6.75163">
        <ele>471</ele>
        <time>2016-08-24T15:28:48.000Z</time>
      </trkpt>
      <trkpt lat="47.54431" lon="6.75164">
        <ele>471</ele>
        <time>2016-08-24T15:28:49.000Z</time>
      </trkpt>
      <trkpt lat="47.54427" lon="6.75166">
        <ele>471</ele>
        <time>2016-08-24T15:28:50.000Z</time>
      </trkpt>
      <trkpt lat="47.54423" lon="6.75168">
        <ele>471</ele>
        <time>2016-08-24T15:28:51.000Z</time>
      </trkpt>
      <trkpt lat="47.54419" lon="6.75171">
        <ele>471</ele>
        <time>2016-08-24T15:28:52.000Z</time>
      </trkpt>
      <trkpt lat="47.54412" lon="6.75173">
        <ele>470</ele>
        <time>2016-08-24T15:28:53.000Z</time>
      </trkpt>
      <trkpt lat="47.54408" lon="6.75174">
        <ele>470</ele>
        <time>2016-08-24T15:28:54.000Z</time>
      </trkpt>
      <trkpt lat="47.54405" lon="6.75178">
        <ele>470</ele>
        <time>2016-08-24T15:28:55.000Z</time>
      </trkpt>
      <trkpt lat="47.544" lon="6.75183">
        <ele>469</ele>
        <time>2016-08-24T15:28:56.000Z</time>
      </trkpt>
      <trkpt lat="47.54397" lon="6.75186">
        <ele>469</ele>
        <time>2016-08-24T15:28:57.000Z</time>
      </trkpt>
      <trkpt lat="47.54394" lon="6.75189">
        <ele>469</ele>
        <time>2016-08-24T15:28:58.000Z</time>
      </trkpt>
      <trkpt lat="47.54389" lon="6.75193">
        <ele>469</ele>
        <time>2016-08-24T15:28:59.000Z</time>
      </trkpt>
      <trkpt lat="47.54384" lon="6.75199">
        <ele>469</ele>
        <time>2016-08-24T15:29:00.000Z</time>
      </trkpt>
      <trkpt lat="47.5438" lon="6.75203">
        <ele>469</ele>
        <time>2016-08-24T15:29:01.000Z</time>
      </trkpt>
      <trkpt lat="47.54376" lon="6.75212">
        <ele>469</ele>
        <time>2016-08-24T15:29:02.000Z</time>
      </trkpt>
      <trkpt lat="47.54373" lon="6.75219">
        <ele>468</ele>
        <time>2016-08-24T15:29:03.000Z</time>
      </trkpt>
      <trkpt lat="47.54369" lon="6.75225">
        <ele>468</ele>
        <time>2016-08-24T15:29:04.000Z</time>
      </trkpt>
      <trkpt lat="47.54366" lon="6.75232">
        <ele>468</ele>
        <time>2016-08-24T15:29:05.000Z</time>
      </trkpt>
      <trkpt lat="47.54363" lon="6.75239">
        <ele>468</ele>
        <time>2016-08-24T15:29:06.000Z</time>
      </trkpt>
      <trkpt lat="47.54359" lon="6.75244">
        <ele>468</ele>
        <time>2016-08-24T15:29:07.000Z</time>
      </trkpt>
      <trkpt lat="47.54356" lon="6.75248">
        <ele>468</ele>
        <time>2016-08-24T15:29:08.000Z</time>
      </trkpt>
      <trkpt lat="47.54354" lon="6.75244">
        <ele>468</ele>
        <time>2016-08-24T15:29:09.000Z</time>
      </trkpt>
      <trkpt lat="47.54352" lon="6.75254">
        <ele>468</ele>
        <time>2016-08-24T15:29:10.000Z</time>
      </trkpt>
      <trkpt lat="47.54349" lon="6.75258">
        <ele>468</ele>
        <time>2016-08-24T15:29:11.000Z</time>
      </trkpt>
      <trkpt lat="47.54345" lon="6.75264">
        <ele>468</ele>
        <time>2016-08-24T15:29:12.000Z</time>
      </trkpt>
      <trkpt lat="47.54343" lon="6.7527">
        <ele>468</ele>
        <time>2016-08-24T15:29:13.000Z</time>
      </trkpt>
      <trkpt lat="47.5434" lon="6.75272">
        <ele>468</ele>
        <time>2016-08-24T15:29:14.000Z</time>
      </trkpt>
      <trkpt lat="47.54337" lon="6.75277">
        <ele>468</ele>
        <time>2016-08-24T15:29:15.000Z</time>
      </trkpt>
      <trkpt lat="47.54334" lon="6.75279">
        <ele>467</ele>
        <time>2016-08-24T15:29:16.000Z</time>
      </trkpt>
      <trkpt lat="47.54333" lon="6.75281">
        <ele>465</ele>
        <time>2016-08-24T15:29:17.000Z</time>
      </trkpt>
      <trkpt lat="47.54329" lon="6.75283">
        <ele>465</ele>
        <time>2016-08-24T15:29:20.000Z</time>
      </trkpt>
      <trkpt lat="47.54328" lon="6.75283">
        <ele>465</ele>
        <time>2016-08-24T15:29:21.000Z</time>
      </trkpt>
      <trkpt lat="47.54325" lon="6.75288">
        <ele>465</ele>
        <time>2016-08-24T15:29:23.000Z</time>
      </trkpt>
      <trkpt lat="47.54324" lon="6.75293">
        <ele>465</ele>
        <time>2016-08-24T15:29:24.000Z</time>
      </trkpt>
      <trkpt lat="47.54322" lon="6.75298">
        <ele>465</ele>
        <time>2016-08-24T15:29:25.000Z</time>
      </trkpt>
      <trkpt lat="47.5432" lon="6.75303">
        <ele>465</ele>
        <time>2016-08-24T15:29:26.000Z</time>
      </trkpt>
      <trkpt lat="47.54317" lon="6.75307">
        <ele>465</ele>
        <time>2016-08-24T15:29:27.000Z</time>
      </trkpt>
      <trkpt lat="47.5431" lon="6.75321">
        <ele>464</ele>
        <time>2016-08-24T15:29:28.000Z</time>
      </trkpt>
      <trkpt lat="47.54306" lon="6.75325">
        <ele>464</ele>
        <time>2016-08-24T15:29:29.000Z</time>
      </trkpt>
      <trkpt lat="47.54303" lon="6.75328">
        <ele>464</ele>
        <time>2016-08-24T15:29:30.000Z</time>
      </trkpt>
      <trkpt lat="47.54301" lon="6.75329">
        <ele>464</ele>
        <time>2016-08-24T15:29:31.000Z</time>
      </trkpt>
      <trkpt lat="47.54297" lon="6.75334">
        <ele>463</ele>
        <time>2016-08-24T15:29:32.000Z</time>
      </trkpt>
      <trkpt lat="47.54293" lon="6.75343">
        <ele>463</ele>
        <time>2016-08-24T15:29:33.000Z</time>
      </trkpt>
      <trkpt lat="47.54289" lon="6.75346">
        <ele>463</ele>
        <time>2016-08-24T15:29:35.000Z</time>
      </trkpt>
      <trkpt lat="47.54289" lon="6.75349">
        <ele>463</ele>
        <time>2016-08-24T15:29:36.000Z</time>
      </trkpt>
      <trkpt lat="47.54287" lon="6.75352">
        <ele>463</ele>
        <time>2016-08-24T15:29:37.000Z</time>
      </trkpt>
      <trkpt lat="47.54285" lon="6.75353">
        <ele>463</ele>
        <time>2016-08-24T15:29:38.000Z</time>
      </trkpt>
      <trkpt lat="47.54284" lon="6.75365">
        <ele>462</ele>
        <time>2016-08-24T15:29:39.000Z</time>
      </trkpt>
      <trkpt lat="47.54283" lon="6.75376">
        <ele>462</ele>
        <time>2016-08-24T15:29:40.000Z</time>
      </trkpt>
      <trkpt lat="47.54281" lon="6.7538">
        <ele>462</ele>
        <time>2016-08-24T15:29:41.000Z</time>
      </trkpt>
      <trkpt lat="47.54278" lon="6.75386">
        <ele>462</ele>
        <time>2016-08-24T15:29:42.000Z</time>
      </trkpt>
      <trkpt lat="47.54272" lon="6.75396">
        <ele>462</ele>
        <time>2016-08-24T15:29:43.000Z</time>
      </trkpt>
      <trkpt lat="47.54269" lon="6.754">
        <ele>462</ele>
        <time>2016-08-24T15:29:44.000Z</time>
      </trkpt>
      <trkpt lat="47.54268" lon="6.75408">
        <ele>461</ele>
        <time>2016-08-24T15:29:45.000Z</time>
      </trkpt>
      <trkpt lat="47.54265" lon="6.75414">
        <ele>461</ele>
        <time>2016-08-24T15:29:46.000Z</time>
      </trkpt>
      <trkpt lat="47.54263" lon="6.75418">
        <ele>460</ele>
        <time>2016-08-24T15:29:47.000Z</time>
      </trkpt>
      <trkpt lat="47.54259" lon="6.75425">
        <ele>460</ele>
        <time>2016-08-24T15:29:48.000Z</time>
      </trkpt>
      <trkpt lat="47.54255" lon="6.7543">
        <ele>460</ele>
        <time>2016-08-24T15:29:49.000Z</time>
      </trkpt>
      <trkpt lat="47.54249" lon="6.75436">
        <ele>458</ele>
        <time>2016-08-24T15:29:50.000Z</time>
      </trkpt>
      <trkpt lat="47.54245" lon="6.7544">
        <ele>458</ele>
        <time>2016-08-24T15:29:51.000Z</time>
      </trkpt>
      <trkpt lat="47.54241" lon="6.75444">
        <ele>458</ele>
        <time>2016-08-24T15:29:52.000Z</time>
      </trkpt>
      <trkpt lat="47.54238" lon="6.75451">
        <ele>458</ele>
        <time>2016-08-24T15:29:53.000Z</time>
      </trkpt>
      <trkpt lat="47.54235" lon="6.75461">
        <ele>457</ele>
        <time>2016-08-24T15:29:54.000Z</time>
      </trkpt>
      <trkpt lat="47.54231" lon="6.75467">
        <ele>457</ele>
        <time>2016-08-24T15:29:55.000Z</time>
      </trkpt>
      <trkpt lat="47.54228" lon="6.75476">
        <ele>457</ele>
        <time>2016-08-24T15:29:56.000Z</time>
      </trkpt>
      <trkpt lat="47.54226" lon="6.75482">
        <ele>457</ele>
        <time>2016-08-24T15:29:57.000Z</time>
      </trkpt>
      <trkpt lat="47.54224" lon="6.75486">
        <ele>457</ele>
        <time>2016-08-24T15:29:58.000Z</time>
      </trkpt>
      <trkpt lat="47.54222" lon="6.755">
        <ele>457</ele>
        <time>2016-08-24T15:29:59.000Z</time>
      </trkpt>
      <trkpt lat="47.54221" lon="6.75505">
        <ele>456</ele>
        <time>2016-08-24T15:30:00.000Z</time>
      </trkpt>
      <trkpt lat="47.54217" lon="6.75512">
        <ele>456</ele>
        <time>2016-08-24T15:30:01.000Z</time>
      </trkpt>
      <trkpt lat="47.54214" lon="6.75521">
        <ele>456</ele>
        <time>2016-08-24T15:30:02.000Z</time>
      </trkpt>
      <trkpt lat="47.54211" lon="6.75522">
        <ele>455</ele>
        <time>2016-08-24T15:30:04.000Z</time>
      </trkpt>
      <trkpt lat="47.54208" lon="6.75526">
        <ele>455</ele>
        <time>2016-08-24T15:30:05.000Z</time>
      </trkpt>
      <trkpt lat="47.54206" lon="6.75534">
        <ele>455</ele>
        <time>2016-08-24T15:30:06.000Z</time>
      </trkpt>
      <trkpt lat="47.54204" lon="6.75567">
        <ele>455</ele>
        <time>2016-08-24T15:30:07.000Z</time>
      </trkpt>
      <trkpt lat="47.54202" lon="6.75578">
        <ele>455</ele>
        <time>2016-08-24T15:30:08.000Z</time>
      </trkpt>
      <trkpt lat="47.54198" lon="6.75583">
        <ele>455</ele>
        <time>2016-08-24T15:30:09.000Z</time>
      </trkpt>
      <trkpt lat="47.54196" lon="6.75588">
        <ele>453</ele>
        <time>2016-08-24T15:30:10.000Z</time>
      </trkpt>
      <trkpt lat="47.54194" lon="6.7559">
        <ele>453</ele>
        <time>2016-08-24T15:30:11.000Z</time>
      </trkpt>
      <trkpt lat="47.54191" lon="6.75594">
        <ele>453</ele>
        <time>2016-08-24T15:30:13.000Z</time>
      </trkpt>
      <trkpt lat="47.54186" lon="6.75596">
        <ele>453</ele>
        <time>2016-08-24T15:30:14.000Z</time>
      </trkpt>
      <trkpt lat="47.54184" lon="6.75609">
        <ele>453</ele>
        <time>2016-08-24T15:30:15.000Z</time>
      </trkpt>
      <trkpt lat="47.54181" lon="6.75618">
        <ele>453</ele>
        <time>2016-08-24T15:30:16.000Z</time>
      </trkpt>
      <trkpt lat="47.54177" lon="6.75637">
        <ele>452</ele>
        <time>2016-08-24T15:30:17.000Z</time>
      </trkpt>
      <trkpt lat="47.54175" lon="6.75644">
        <ele>452</ele>
        <time>2016-08-24T15:30:18.000Z</time>
      </trkpt>
      <trkpt lat="47.54174" lon="6.75651">
        <ele>452</ele>
        <time>2016-08-24T15:30:19.000Z</time>
      </trkpt>
      <trkpt lat="47.54173" lon="6.7566">
        <ele>452</ele>
        <time>2016-08-24T15:30:20.000Z</time>
      </trkpt>
      <trkpt lat="47.54171" lon="6.75668">
        <ele>451</ele>
        <time>2016-08-24T15:30:21.000Z</time>
      </trkpt>
      <trkpt lat="47.54169" lon="6.75674">
        <ele>451</ele>
        <time>2016-08-24T15:30:22.000Z</time>
      </trkpt>
      <trkpt lat="47.54168" lon="6.75678">
        <ele>451</ele>
        <time>2016-08-24T15:30:23.000Z</time>
      </trkpt>
      <trkpt lat="47.54165" lon="6.75684">
        <ele>449</ele>
        <time>2016-08-24T15:30:24.000Z</time>
      </trkpt>
      <trkpt lat="47.54161" lon="6.7569">
        <ele>448</ele>
        <time>2016-08-24T15:30:25.000Z</time>
      </trkpt>
      <trkpt lat="47.54158" lon="6.75697">
        <ele>448</ele>
        <time>2016-08-24T15:30:26.000Z</time>
      </trkpt>
      <trkpt lat="47.54155" lon="6.75716">
        <ele>447</ele>
        <time>2016-08-24T15:30:27.000Z</time>
      </trkpt>
      <trkpt lat="47.54152" lon="6.75729">
        <ele>447</ele>
        <time>2016-08-24T15:30:28.000Z</time>
      </trkpt>
      <trkpt lat="47.5415" lon="6.75737">
        <ele>447</ele>
        <time>2016-08-24T15:30:29.000Z</time>
      </trkpt>
      <trkpt lat="47.54149" lon="6.7575">
        <ele>447</ele>
        <time>2016-08-24T15:30:30.000Z</time>
      </trkpt>
      <trkpt lat="47.54148" lon="6.75758">
        <ele>445</ele>
        <time>2016-08-24T15:30:31.000Z</time>
      </trkpt>
      <trkpt lat="47.54147" lon="6.75763">
        <ele>445</ele>
        <time>2016-08-24T15:30:34.000Z</time>
      </trkpt>
      <trkpt lat="47.54148" lon="6.75768">
        <ele>445</ele>
        <time>2016-08-24T15:30:35.000Z</time>
      </trkpt>
      <trkpt lat="47.54144" lon="6.75769">
        <ele>444</ele>
        <time>2016-08-24T15:30:42.000Z</time>
      </trkpt>
      <trkpt lat="47.54143" lon="6.75767">
        <ele>444</ele>
        <time>2016-08-24T15:30:43.000Z</time>
      </trkpt>
      <trkpt lat="47.54141" lon="6.75763">
        <ele>444</ele>
        <time>2016-08-24T15:30:45.000Z</time>
      </trkpt>
      <trkpt lat="47.5414" lon="6.75761">
        <ele>444</ele>
        <time>2016-08-24T15:30:46.000Z</time>
      </trkpt>
      <trkpt lat="47.54138" lon="6.75758">
        <ele>444</ele>
        <time>2016-08-24T15:30:48.000Z</time>
      </trkpt>
      <trkpt lat="47.54136" lon="6.75755">
        <ele>444</ele>
        <time>2016-08-24T15:30:49.000Z</time>
      </trkpt>
      <trkpt lat="47.54134" lon="6.7575">
        <ele>446</ele>
        <time>2016-08-24T15:30:51.000Z</time>
      </trkpt>
      <trkpt lat="47.54133" lon="6.75746">
        <ele>446</ele>
        <time>2016-08-24T15:30:52.000Z</time>
      </trkpt>
      <trkpt lat="47.54131" lon="6.75742">
        <ele>446</ele>
        <time>2016-08-24T15:30:53.000Z</time>
      </trkpt>
      <trkpt lat="47.5413" lon="6.75738">
        <ele>446</ele>
        <time>2016-08-24T15:30:54.000Z</time>
      </trkpt>
      <trkpt lat="47.54129" lon="6.75735">
        <ele>446</ele>
        <time>2016-08-24T15:30:55.000Z</time>
      </trkpt>
      <trkpt lat="47.54128" lon="6.75732">
        <ele>446</ele>
        <time>2016-08-24T15:30:56.000Z</time>
      </trkpt>
      <trkpt lat="47.54126" lon="6.75728">
        <ele>446</ele>
        <time>2016-08-24T15:30:58.000Z</time>
      </trkpt>
      <trkpt lat="47.54125" lon="6.75726">
        <ele>446</ele>
        <time>2016-08-24T15:30:59.000Z</time>
      </trkpt>
      <trkpt lat="47.54126" lon="6.7572">
        <ele>446</ele>
        <time>2016-08-24T15:31:13.000Z</time>
      </trkpt>
      <trkpt lat="47.54125" lon="6.75719">
        <ele>446</ele>
        <time>2016-08-24T15:31:14.000Z</time>
      </trkpt>
      <trkpt lat="47.54124" lon="6.75715">
        <ele>446</ele>
        <time>2016-08-24T15:31:16.000Z</time>
      </trkpt>
      <trkpt lat="47.54124" lon="6.75712">
        <ele>446</ele>
        <time>2016-08-24T15:31:17.000Z</time>
      </trkpt>
      <trkpt lat="47.54123" lon="6.75706">
        <ele>446</ele>
        <time>2016-08-24T15:31:19.000Z</time>
      </trkpt>
      <trkpt lat="47.54123" lon="6.75704">
        <ele>446</ele>
        <time>2016-08-24T15:31:20.000Z</time>
      </trkpt>
      <trkpt lat="47.54124" lon="6.75699">
        <ele>446</ele>
        <time>2016-08-24T15:31:22.000Z</time>
      </trkpt>
      <trkpt lat="47.54124" lon="6.75696">
        <ele>446</ele>
        <time>2016-08-24T15:31:23.000Z</time>
      </trkpt>
      <trkpt lat="47.54125" lon="6.75691">
        <ele>447</ele>
        <time>2016-08-24T15:31:25.000Z</time>
      </trkpt>
      <trkpt lat="47.54126" lon="6.75688">
        <ele>447</ele>
        <time>2016-08-24T15:31:26.000Z</time>
      </trkpt>
      <trkpt lat="47.54126" lon="6.75684">
        <ele>447</ele>
        <time>2016-08-24T15:31:27.000Z</time>
      </trkpt>
      <trkpt lat="47.54127" lon="6.7568">
        <ele>447</ele>
        <time>2016-08-24T15:31:28.000Z</time>
      </trkpt>
      <trkpt lat="47.54127" lon="6.75677">
        <ele>447</ele>
        <time>2016-08-24T15:31:29.000Z</time>
      </trkpt>
      <trkpt lat="47.54128" lon="6.75674">
        <ele>447</ele>
        <time>2016-08-24T15:31:30.000Z</time>
      </trkpt>
      <trkpt lat="47.54129" lon="6.7567">
        <ele>447</ele>
        <time>2016-08-24T15:31:31.000Z</time>
      </trkpt>
      <trkpt lat="47.5413" lon="6.75667">
        <ele>447</ele>
        <time>2016-08-24T15:31:32.000Z</time>
      </trkpt>
      <trkpt lat="47.54132" lon="6.75661">
        <ele>449</ele>
        <time>2016-08-24T15:31:34.000Z</time>
      </trkpt>
      <trkpt lat="47.54133" lon="6.75658">
        <ele>449</ele>
        <time>2016-08-24T15:31:35.000Z</time>
      </trkpt>
      <trkpt lat="47.54134" lon="6.75654">
        <ele>449</ele>
        <time>2016-08-24T15:31:36.000Z</time>
      </trkpt>
      <trkpt lat="47.54136" lon="6.7565">
        <ele>449</ele>
        <time>2016-08-24T15:31:37.000Z</time>
      </trkpt>
      <trkpt lat="47.54137" lon="6.75646">
        <ele>449</ele>
        <time>2016-08-24T15:31:38.000Z</time>
      </trkpt>
      <trkpt lat="47.54137" lon="6.75641">
        <ele>449</ele>
        <time>2016-08-24T15:31:39.000Z</time>
      </trkpt>
      <trkpt lat="47.54138" lon="6.75637">
        <ele>449</ele>
        <time>2016-08-24T15:31:40.000Z</time>
      </trkpt>
      <trkpt lat="47.54138" lon="6.75634">
        <ele>449</ele>
        <time>2016-08-24T15:31:41.000Z</time>
      </trkpt>
      <trkpt lat="47.54138" lon="6.7563">
        <ele>449</ele>
        <time>2016-08-24T15:31:42.000Z</time>
      </trkpt>
      <trkpt lat="47.54139" lon="6.75625">
        <ele>449</ele>
        <time>2016-08-24T15:31:43.000Z</time>
      </trkpt>
      <trkpt lat="47.54138" lon="6.7562">
        <ele>449</ele>
        <time>2016-08-24T15:31:44.000Z</time>
      </trkpt>
      <trkpt lat="47.54138" lon="6.75615">
        <ele>449</ele>
        <time>2016-08-24T15:31:45.000Z</time>
      </trkpt>
      <trkpt lat="47.54138" lon="6.7561">
        <ele>449</ele>
        <time>2016-08-24T15:31:46.000Z</time>
      </trkpt>
      <trkpt lat="47.54138" lon="6.75605">
        <ele>449</ele>
        <time>2016-08-24T15:31:47.000Z</time>
      </trkpt>
      <trkpt lat="47.54138" lon="6.756">
        <ele>449</ele>
        <time>2016-08-24T15:31:48.000Z</time>
      </trkpt>
      <trkpt lat="47.54138" lon="6.75596">
        <ele>450</ele>
        <time>2016-08-24T15:31:49.000Z</time>
      </trkpt>
      <trkpt lat="47.54138" lon="6.75593">
        <ele>450</ele>
        <time>2016-08-24T15:31:50.000Z</time>
      </trkpt>
      <trkpt lat="47.54139" lon="6.75589">
        <ele>450</ele>
        <time>2016-08-24T15:31:51.000Z</time>
      </trkpt>
      <trkpt lat="47.54139" lon="6.75585">
        <ele>450</ele>
        <time>2016-08-24T15:31:52.000Z</time>
      </trkpt>
      <trkpt lat="47.5414" lon="6.75581">
        <ele>450</ele>
        <time>2016-08-24T15:31:53.000Z</time>
      </trkpt>
      <trkpt lat="47.5414" lon="6.75578">
        <ele>451</ele>
        <time>2016-08-24T15:31:54.000Z</time>
      </trkpt>
      <trkpt lat="47.54141" lon="6.75575">
        <ele>451</ele>
        <time>2016-08-24T15:31:55.000Z</time>
      </trkpt>
      <trkpt lat="47.54142" lon="6.75572">
        <ele>451</ele>
        <time>2016-08-24T15:31:56.000Z</time>
      </trkpt>
      <trkpt lat="47.54144" lon="6.75568">
        <ele>451</ele>
        <time>2016-08-24T15:31:57.000Z</time>
      </trkpt>
      <trkpt lat="47.54145" lon="6.75564">
        <ele>451</ele>
        <time>2016-08-24T15:31:58.000Z</time>
      </trkpt>
      <trkpt lat="47.54147" lon="6.75561">
        <ele>451</ele>
        <time>2016-08-24T15:31:59.000Z</time>
      </trkpt>
      <trkpt lat="47.54148" lon="6.75558">
        <ele>451</ele>
        <time>2016-08-24T15:32:00.000Z</time>
      </trkpt>
      <trkpt lat="47.5415" lon="6.75555">
        <ele>451</ele>
        <time>2016-08-24T15:32:01.000Z</time>
      </trkpt>
      <trkpt lat="47.54152" lon="6.75552">
        <ele>451</ele>
        <time>2016-08-24T15:32:02.000Z</time>
      </trkpt>
      <trkpt lat="47.54153" lon="6.75549">
        <ele>451</ele>
        <time>2016-08-24T15:32:03.000Z</time>
      </trkpt>
      <trkpt lat="47.54154" lon="6.75545">
        <ele>451</ele>
        <time>2016-08-24T15:32:04.000Z</time>
      </trkpt>
      <trkpt lat="47.54155" lon="6.7554">
        <ele>451</ele>
        <time>2016-08-24T15:32:05.000Z</time>
      </trkpt>
      <trkpt lat="47.54157" lon="6.75536">
        <ele>451</ele>
        <time>2016-08-24T15:32:06.000Z</time>
      </trkpt>
      <trkpt lat="47.54158" lon="6.75532">
        <ele>451</ele>
        <time>2016-08-24T15:32:07.000Z</time>
      </trkpt>
      <trkpt lat="47.54158" lon="6.75527">
        <ele>451</ele>
        <time>2016-08-24T15:32:08.000Z</time>
      </trkpt>
      <trkpt lat="47.54157" lon="6.75522">
        <ele>452</ele>
        <time>2016-08-24T15:32:09.000Z</time>
      </trkpt>
      <trkpt lat="47.54157" lon="6.75517">
        <ele>452</ele>
        <time>2016-08-24T15:32:10.000Z</time>
      </trkpt>
      <trkpt lat="47.54157" lon="6.75512">
        <ele>452</ele>
        <time>2016-08-24T15:32:11.000Z</time>
      </trkpt>
      <trkpt lat="47.54158" lon="6.75508">
        <ele>452</ele>
        <time>2016-08-24T15:32:12.000Z</time>
      </trkpt>
      <trkpt lat="47.54159" lon="6.75505">
        <ele>453</ele>
        <time>2016-08-24T15:32:13.000Z</time>
      </trkpt>
      <trkpt lat="47.54161" lon="6.755">
        <ele>453</ele>
        <time>2016-08-24T15:32:15.000Z</time>
      </trkpt>
      <trkpt lat="47.54161" lon="6.75497">
        <ele>453</ele>
        <time>2016-08-24T15:32:16.000Z</time>
      </trkpt>
      <trkpt lat="47.54162" lon="6.75493">
        <ele>453</ele>
        <time>2016-08-24T15:32:17.000Z</time>
      </trkpt>
      <trkpt lat="47.54163" lon="6.7549">
        <ele>453</ele>
        <time>2016-08-24T15:32:18.000Z</time>
      </trkpt>
      <trkpt lat="47.54164" lon="6.75486">
        <ele>453</ele>
        <time>2016-08-24T15:32:19.000Z</time>
      </trkpt>
      <trkpt lat="47.54165" lon="6.75482">
        <ele>453</ele>
        <time>2016-08-24T15:32:20.000Z</time>
      </trkpt>
      <trkpt lat="47.54165" lon="6.75477">
        <ele>453</ele>
        <time>2016-08-24T15:32:21.000Z</time>
      </trkpt>
      <trkpt lat="47.54167" lon="6.75473">
        <ele>453</ele>
        <time>2016-08-24T15:32:22.000Z</time>
      </trkpt>
      <trkpt lat="47.54168" lon="6.75468">
        <ele>456</ele>
        <time>2016-08-24T15:32:23.000Z</time>
      </trkpt>
      <trkpt lat="47.54169" lon="6.75463">
        <ele>456</ele>
        <time>2016-08-24T15:32:24.000Z</time>
      </trkpt>
      <trkpt lat="47.54171" lon="6.75459">
        <ele>456</ele>
        <time>2016-08-24T15:32:25.000Z</time>
      </trkpt>
      <trkpt lat="47.54172" lon="6.75454">
        <ele>456</ele>
        <time>2016-08-24T15:32:26.000Z</time>
      </trkpt>
      <trkpt lat="47.54174" lon="6.7545">
        <ele>456</ele>
        <time>2016-08-24T15:32:27.000Z</time>
      </trkpt>
      <trkpt lat="47.54175" lon="6.75446">
        <ele>456</ele>
        <time>2016-08-24T15:32:28.000Z</time>
      </trkpt>
      <trkpt lat="47.54177" lon="6.75442">
        <ele>456</ele>
        <time>2016-08-24T15:32:29.000Z</time>
      </trkpt>
      <trkpt lat="47.54178" lon="6.75439">
        <ele>456</ele>
        <time>2016-08-24T15:32:30.000Z</time>
      </trkpt>
      <trkpt lat="47.5418" lon="6.75435">
        <ele>456</ele>
        <time>2016-08-24T15:32:32.000Z</time>
      </trkpt>
      <trkpt lat="47.54181" lon="6.75432">
        <ele>456</ele>
        <time>2016-08-24T15:32:33.000Z</time>
      </trkpt>
      <trkpt lat="47.54182" lon="6.75426">
        <ele>456</ele>
        <time>2016-08-24T15:32:35.000Z</time>
      </trkpt>
      <trkpt lat="47.54182" lon="6.75422">
        <ele>456</ele>
        <time>2016-08-24T15:32:36.000Z</time>
      </trkpt>
      <trkpt lat="47.54184" lon="6.75416">
        <ele>456</ele>
        <time>2016-08-24T15:32:38.000Z</time>
      </trkpt>
      <trkpt lat="47.54184" lon="6.75413">
        <ele>456</ele>
        <time>2016-08-24T15:32:39.000Z</time>
      </trkpt>
      <trkpt lat="47.54185" lon="6.75408">
        <ele>457</ele>
        <time>2016-08-24T15:32:40.000Z</time>
      </trkpt>
      <trkpt lat="47.54185" lon="6.75403">
        <ele>457</ele>
        <time>2016-08-24T15:32:41.000Z</time>
      </trkpt>
      <trkpt lat="47.54185" lon="6.75398">
        <ele>457</ele>
        <time>2016-08-24T15:32:42.000Z</time>
      </trkpt>
      <trkpt lat="47.54185" lon="6.75394">
        <ele>457</ele>
        <time>2016-08-24T15:32:43.000Z</time>
      </trkpt>
      <trkpt lat="47.54186" lon="6.7539">
        <ele>457</ele>
        <time>2016-08-24T15:32:44.000Z</time>
      </trkpt>
      <trkpt lat="47.54187" lon="6.75387">
        <ele>457</ele>
        <time>2016-08-24T15:32:45.000Z</time>
      </trkpt>
      <trkpt lat="47.54188" lon="6.75383">
        <ele>457</ele>
        <time>2016-08-24T15:32:46.000Z</time>
      </trkpt>
      <trkpt lat="47.54189" lon="6.75378">
        <ele>457</ele>
        <time>2016-08-24T15:32:47.000Z</time>
      </trkpt>
      <trkpt lat="47.5419" lon="6.75373">
        <ele>457</ele>
        <time>2016-08-24T15:32:48.000Z</time>
      </trkpt>
      <trkpt lat="47.54191" lon="6.75369">
        <ele>457</ele>
        <time>2016-08-24T15:32:49.000Z</time>
      </trkpt>
      <trkpt lat="47.54191" lon="6.75366">
        <ele>457</ele>
        <time>2016-08-24T15:32:50.000Z</time>
      </trkpt>
      <trkpt lat="47.54192" lon="6.75363">
        <ele>457</ele>
        <time>2016-08-24T15:32:51.000Z</time>
      </trkpt>
      <trkpt lat="47.54194" lon="6.7536">
        <ele>457</ele>
        <time>2016-08-24T15:32:52.000Z</time>
      </trkpt>
      <trkpt lat="47.54195" lon="6.75357">
        <ele>457</ele>
        <time>2016-08-24T15:32:53.000Z</time>
      </trkpt>
      <trkpt lat="47.54197" lon="6.75353">
        <ele>457</ele>
        <time>2016-08-24T15:32:54.000Z</time>
      </trkpt>
      <trkpt lat="47.54198" lon="6.7535">
        <ele>457</ele>
        <time>2016-08-24T15:32:55.000Z</time>
      </trkpt>
      <trkpt lat="47.542" lon="6.75346">
        <ele>457</ele>
        <time>2016-08-24T15:32:56.000Z</time>
      </trkpt>
      <trkpt lat="47.54203" lon="6.75341">
        <ele>458</ele>
        <time>2016-08-24T15:32:57.000Z</time>
      </trkpt>
      <trkpt lat="47.54205" lon="6.75337">
        <ele>458</ele>
        <time>2016-08-24T15:32:58.000Z</time>
      </trkpt>
      <trkpt lat="47.54208" lon="6.75332">
        <ele>458</ele>
        <time>2016-08-24T15:32:59.000Z</time>
      </trkpt>
      <trkpt lat="47.54211" lon="6.75328">
        <ele>458</ele>
        <time>2016-08-24T15:33:00.000Z</time>
      </trkpt>
      <trkpt lat="47.54213" lon="6.75324">
        <ele>458</ele>
        <time>2016-08-24T15:33:01.000Z</time>
      </trkpt>
      <trkpt lat="47.54215" lon="6.7532">
        <ele>458</ele>
        <time>2016-08-24T15:33:02.000Z</time>
      </trkpt>
      <trkpt lat="47.54217" lon="6.75316">
        <ele>458</ele>
        <time>2016-08-24T15:33:03.000Z</time>
      </trkpt>
      <trkpt lat="47.54218" lon="6.75311">
        <ele>458</ele>
        <time>2016-08-24T15:33:04.000Z</time>
      </trkpt>
      <trkpt lat="47.54219" lon="6.75307">
        <ele>458</ele>
        <time>2016-08-24T15:33:05.000Z</time>
      </trkpt>
      <trkpt lat="47.54219" lon="6.75302">
        <ele>458</ele>
        <time>2016-08-24T15:33:06.000Z</time>
      </trkpt>
      <trkpt lat="47.5422" lon="6.75296">
        <ele>458</ele>
        <time>2016-08-24T15:33:07.000Z</time>
      </trkpt>
      <trkpt lat="47.54221" lon="6.75291">
        <ele>458</ele>
        <time>2016-08-24T15:33:08.000Z</time>
      </trkpt>
      <trkpt lat="47.54222" lon="6.75285">
        <ele>458</ele>
        <time>2016-08-24T15:33:09.000Z</time>
      </trkpt>
      <trkpt lat="47.54224" lon="6.75278">
        <ele>458</ele>
        <time>2016-08-24T15:33:10.000Z</time>
      </trkpt>
      <trkpt lat="47.54226" lon="6.75272">
        <ele>459</ele>
        <time>2016-08-24T15:33:11.000Z</time>
      </trkpt>
      <trkpt lat="47.54228" lon="6.75266">
        <ele>459</ele>
        <time>2016-08-24T15:33:12.000Z</time>
      </trkpt>
      <trkpt lat="47.54229" lon="6.75261">
        <ele>459</ele>
        <time>2016-08-24T15:33:13.000Z</time>
      </trkpt>
      <trkpt lat="47.5423" lon="6.75255">
        <ele>459</ele>
        <time>2016-08-24T15:33:14.000Z</time>
      </trkpt>
      <trkpt lat="47.54231" lon="6.75249">
        <ele>459</ele>
        <time>2016-08-24T15:33:15.000Z</time>
      </trkpt>
      <trkpt lat="47.54232" lon="6.75244">
        <ele>459</ele>
        <time>2016-08-24T15:33:16.000Z</time>
      </trkpt>
      <trkpt lat="47.54233" lon="6.75238">
        <ele>458</ele>
        <time>2016-08-24T15:33:17.000Z</time>
      </trkpt>
      <trkpt lat="47.54235" lon="6.75232">
        <ele>458</ele>
        <time>2016-08-24T15:33:18.000Z</time>
      </trkpt>
      <trkpt lat="47.54236" lon="6.75225">
        <ele>458</ele>
        <time>2016-08-24T15:33:19.000Z</time>
      </trkpt>
      <trkpt lat="47.54238" lon="6.75219">
        <ele>458</ele>
        <time>2016-08-24T15:33:20.000Z</time>
      </trkpt>
      <trkpt lat="47.5424" lon="6.75213">
        <ele>458</ele>
        <time>2016-08-24T15:33:21.000Z</time>
      </trkpt>
      <trkpt lat="47.54242" lon="6.75207">
        <ele>458</ele>
        <time>2016-08-24T15:33:22.000Z</time>
      </trkpt>
      <trkpt lat="47.54244" lon="6.752">
        <ele>458</ele>
        <time>2016-08-24T15:33:23.000Z</time>
      </trkpt>
      <trkpt lat="47.54248" lon="6.75175">
        <ele>458</ele>
        <time>2016-08-24T15:33:24.000Z</time>
      </trkpt>
      <trkpt lat="47.54251" lon="6.75155">
        <ele>460</ele>
        <time>2016-08-24T15:33:25.000Z</time>
      </trkpt>
      <trkpt lat="47.54253" lon="6.75147">
        <ele>460</ele>
        <time>2016-08-24T15:33:26.000Z</time>
      </trkpt>
      <trkpt lat="47.54254" lon="6.75141">
        <ele>461</ele>
        <time>2016-08-24T15:33:27.000Z</time>
      </trkpt>
      <trkpt lat="47.54253" lon="6.75135">
        <ele>461</ele>
        <time>2016-08-24T15:33:28.000Z</time>
      </trkpt>
      <trkpt lat="47.54258" lon="6.75128">
        <ele>461</ele>
        <time>2016-08-24T15:33:29.000Z</time>
      </trkpt>
      <trkpt lat="47.54261" lon="6.75122">
        <ele>461</ele>
        <time>2016-08-24T15:33:30.000Z</time>
      </trkpt>
      <trkpt lat="47.54263" lon="6.75118">
        <ele>461</ele>
        <time>2016-08-24T15:33:31.000Z</time>
      </trkpt>
      <trkpt lat="47.54265" lon="6.75109">
        <ele>460</ele>
        <time>2016-08-24T15:33:32.000Z</time>
      </trkpt>
      <trkpt lat="47.54266" lon="6.75104">
        <ele>460</ele>
        <time>2016-08-24T15:33:33.000Z</time>
      </trkpt>
      <trkpt lat="47.54267" lon="6.75099">
        <ele>460</ele>
        <time>2016-08-24T15:33:34.000Z</time>
      </trkpt>
      <trkpt lat="47.54268" lon="6.75095">
        <ele>460</ele>
        <time>2016-08-24T15:33:35.000Z</time>
      </trkpt>
      <trkpt lat="47.54271" lon="6.75091">
        <ele>460</ele>
        <time>2016-08-24T15:33:36.000Z</time>
      </trkpt>
      <trkpt lat="47.54273" lon="6.75086">
        <ele>460</ele>
        <time>2016-08-24T15:33:37.000Z</time>
      </trkpt>
      <trkpt lat="47.54275" lon="6.75082">
        <ele>461</ele>
        <time>2016-08-24T15:33:38.000Z</time>
      </trkpt>
      <trkpt lat="47.54277" lon="6.75077">
        <ele>461</ele>
        <time>2016-08-24T15:33:39.000Z</time>
      </trkpt>
      <trkpt lat="47.54277" lon="6.75074">
        <ele>461</ele>
        <time>2016-08-24T15:33:40.000Z</time>
      </trkpt>
      <trkpt lat="47.54278" lon="6.75067">
        <ele>461</ele>
        <time>2016-08-24T15:33:42.000Z</time>
      </trkpt>
      <trkpt lat="47.54279" lon="6.75064">
        <ele>461</ele>
        <time>2016-08-24T15:33:43.000Z</time>
      </trkpt>
      <trkpt lat="47.54281" lon="6.75059">
        <ele>462</ele>
        <time>2016-08-24T15:33:45.000Z</time>
      </trkpt>
      <trkpt lat="47.54282" lon="6.75057">
        <ele>462</ele>
        <time>2016-08-24T15:33:46.000Z</time>
      </trkpt>
      <trkpt lat="47.54282" lon="6.75054">
        <ele>462</ele>
        <time>2016-08-24T15:33:47.000Z</time>
      </trkpt>
      <trkpt lat="47.54282" lon="6.75048">
        <ele>462</ele>
        <time>2016-08-24T15:33:48.000Z</time>
      </trkpt>
      <trkpt lat="47.54282" lon="6.7504">
        <ele>462</ele>
        <time>2016-08-24T15:33:49.000Z</time>
      </trkpt>
      <trkpt lat="47.54281" lon="6.75033">
        <ele>462</ele>
        <time>2016-08-24T15:33:50.000Z</time>
      </trkpt>
      <trkpt lat="47.54282" lon="6.75028">
        <ele>462</ele>
        <time>2016-08-24T15:33:51.000Z</time>
      </trkpt>
      <trkpt lat="47.54282" lon="6.75024">
        <ele>462</ele>
        <time>2016-08-24T15:33:52.000Z</time>
      </trkpt>
      <trkpt lat="47.54284" lon="6.7502">
        <ele>462</ele>
        <time>2016-08-24T15:33:54.000Z</time>
      </trkpt>
      <trkpt lat="47.54285" lon="6.75019">
        <ele>462</ele>
        <time>2016-08-24T15:33:55.000Z</time>
      </trkpt>
      <trkpt lat="47.54288" lon="6.75014">
        <ele>463</ele>
        <time>2016-08-24T15:33:57.000Z</time>
      </trkpt>
      <trkpt lat="47.54289" lon="6.75012">
        <ele>463</ele>
        <time>2016-08-24T15:33:58.000Z</time>
      </trkpt>
      <trkpt lat="47.54291" lon="6.75007">
        <ele>463</ele>
        <time>2016-08-24T15:34:01.000Z</time>
      </trkpt>
      <trkpt lat="47.54292" lon="6.75004">
        <ele>463</ele>
        <time>2016-08-24T15:34:02.000Z</time>
      </trkpt>
      <trkpt lat="47.54292" lon="6.75001">
        <ele>463</ele>
        <time>2016-08-24T15:34:03.000Z</time>
      </trkpt>
      <trkpt lat="47.54292" lon="6.74997">
        <ele>463</ele>
        <time>2016-08-24T15:34:04.000Z</time>
      </trkpt>
      <trkpt lat="47.54292" lon="6.74991">
        <ele>463</ele>
        <time>2016-08-24T15:34:06.000Z</time>
      </trkpt>
      <trkpt lat="47.54292" lon="6.74989">
        <ele>463</ele>
        <time>2016-08-24T15:34:07.000Z</time>
      </trkpt>
      <trkpt lat="47.54293" lon="6.74985">
        <ele>463</ele>
        <time>2016-08-24T15:34:08.000Z</time>
      </trkpt>
      <trkpt lat="47.54293" lon="6.74981">
        <ele>463</ele>
        <time>2016-08-24T15:34:09.000Z</time>
      </trkpt>
      <trkpt lat="47.54292" lon="6.74977">
        <ele>463</ele>
        <time>2016-08-24T15:34:10.000Z</time>
      </trkpt>
      <trkpt lat="47.54292" lon="6.74973">
        <ele>463</ele>
        <time>2016-08-24T15:34:11.000Z</time>
      </trkpt>
      <trkpt lat="47.54292" lon="6.74969">
        <ele>463</ele>
        <time>2016-08-24T15:34:12.000Z</time>
      </trkpt>
      <trkpt lat="47.54292" lon="6.74965">
        <ele>463</ele>
        <time>2016-08-24T15:34:13.000Z</time>
      </trkpt>
      <trkpt lat="47.54292" lon="6.74961">
        <ele>463</ele>
        <time>2016-08-24T15:34:14.000Z</time>
      </trkpt>
      <trkpt lat="47.54292" lon="6.74956">
        <ele>463</ele>
        <time>2016-08-24T15:34:15.000Z</time>
      </trkpt>
      <trkpt lat="47.54292" lon="6.74952">
        <ele>463</ele>
        <time>2016-08-24T15:34:16.000Z</time>
      </trkpt>
      <trkpt lat="47.54292" lon="6.74947">
        <ele>463</ele>
        <time>2016-08-24T15:34:17.000Z</time>
      </trkpt>
      <trkpt lat="47.54292" lon="6.74942">
        <ele>463</ele>
        <time>2016-08-24T15:34:18.000Z</time>
      </trkpt>
      <trkpt lat="47.54293" lon="6.74937">
        <ele>463</ele>
        <time>2016-08-24T15:34:19.000Z</time>
      </trkpt>
      <trkpt lat="47.54293" lon="6.74933">
        <ele>463</ele>
        <time>2016-08-24T15:34:20.000Z</time>
      </trkpt>
      <trkpt lat="47.54293" lon="6.74929">
        <ele>463</ele>
        <time>2016-08-24T15:34:21.000Z</time>
      </trkpt>
      <trkpt lat="47.54294" lon="6.74924">
        <ele>463</ele>
        <time>2016-08-24T15:34:22.000Z</time>
      </trkpt>
      <trkpt lat="47.54294" lon="6.74919">
        <ele>463</ele>
        <time>2016-08-24T15:34:23.000Z</time>
      </trkpt>
      <trkpt lat="47.54294" lon="6.74914">
        <ele>463</ele>
        <time>2016-08-24T15:34:24.000Z</time>
      </trkpt>
      <trkpt lat="47.54295" lon="6.7491">
        <ele>463</ele>
        <time>2016-08-24T15:34:25.000Z</time>
      </trkpt>
      <trkpt lat="47.54295" lon="6.74905">
        <ele>463</ele>
        <time>2016-08-24T15:34:26.000Z</time>
      </trkpt>
      <trkpt lat="47.54296" lon="6.74901">
        <ele>463</ele>
        <time>2016-08-24T15:34:27.000Z</time>
      </trkpt>
      <trkpt lat="47.54297" lon="6.74896">
        <ele>463</ele>
        <time>2016-08-24T15:34:28.000Z</time>
      </trkpt>
      <trkpt lat="47.54297" lon="6.74892">
        <ele>463</ele>
        <time>2016-08-24T15:34:29.000Z</time>
      </trkpt>
      <trkpt lat="47.54298" lon="6.74888">
        <ele>463</ele>
        <time>2016-08-24T15:34:30.000Z</time>
      </trkpt>
      <trkpt lat="47.54299" lon="6.74883">
        <ele>463</ele>
        <time>2016-08-24T15:34:31.000Z</time>
      </trkpt>
      <trkpt lat="47.54301" lon="6.74879">
        <ele>463</ele>
        <time>2016-08-24T15:34:32.000Z</time>
      </trkpt>
      <trkpt lat="47.54301" lon="6.74874">
        <ele>463</ele>
        <time>2016-08-24T15:34:33.000Z</time>
      </trkpt>
      <trkpt lat="47.54302" lon="6.74869">
        <ele>463</ele>
        <time>2016-08-24T15:34:34.000Z</time>
      </trkpt>
      <trkpt lat="47.54302" lon="6.74864">
        <ele>463</ele>
        <time>2016-08-24T15:34:35.000Z</time>
      </trkpt>
      <trkpt lat="47.54302" lon="6.74859">
        <ele>463</ele>
        <time>2016-08-24T15:34:36.000Z</time>
      </trkpt>
      <trkpt lat="47.54302" lon="6.74855">
        <ele>463</ele>
        <time>2016-08-24T15:34:37.000Z</time>
      </trkpt>
      <trkpt lat="47.54302" lon="6.74851">
        <ele>463</ele>
        <time>2016-08-24T15:34:38.000Z</time>
      </trkpt>
      <trkpt lat="47.54302" lon="6.74846">
        <ele>463</ele>
        <time>2016-08-24T15:34:39.000Z</time>
      </trkpt>
      <trkpt lat="47.54302" lon="6.74841">
        <ele>463</ele>
        <time>2016-08-24T15:34:40.000Z</time>
      </trkpt>
      <trkpt lat="47.54303" lon="6.74836">
        <ele>463</ele>
        <time>2016-08-24T15:34:41.000Z</time>
      </trkpt>
      <trkpt lat="47.54303" lon="6.74831">
        <ele>462</ele>
        <time>2016-08-24T15:34:42.000Z</time>
      </trkpt>
      <trkpt lat="47.54304" lon="6.74828">
        <ele>462</ele>
        <time>2016-08-24T15:34:43.000Z</time>
      </trkpt>
      <trkpt lat="47.54305" lon="6.74823">
        <ele>462</ele>
        <time>2016-08-24T15:34:45.000Z</time>
      </trkpt>
      <trkpt lat="47.54306" lon="6.74822">
        <ele>462</ele>
        <time>2016-08-24T15:34:46.000Z</time>
      </trkpt>
      <trkpt lat="47.54309" lon="6.74816">
        <ele>462</ele>
        <time>2016-08-24T15:34:52.000Z</time>
      </trkpt>
      <trkpt lat="47.54309" lon="6.74815">
        <ele>462</ele>
        <time>2016-08-24T15:34:53.000Z</time>
      </trkpt>
      <trkpt lat="47.54311" lon="6.7481">
        <ele>462</ele>
        <time>2016-08-24T15:35:12.000Z</time>
      </trkpt>
      <trkpt lat="47.54311" lon="6.74809">
        <ele>462</ele>
        <time>2016-08-24T15:35:13.000Z</time>
      </trkpt>
      <trkpt lat="47.54315" lon="6.74806">
        <ele>462</ele>
        <time>2016-08-24T15:35:23.000Z</time>
      </trkpt>
      <trkpt lat="47.54315" lon="6.74806">
        <ele>462</ele>
        <time>2016-08-24T15:35:24.000Z</time>
      </trkpt>
      <trkpt lat="47.54315" lon="6.74801">
        <ele>462</ele>
        <time>2016-08-24T15:35:34.000Z</time>
      </trkpt>
      <trkpt lat="47.54315" lon="6.74798">
        <ele>462</ele>
        <time>2016-08-24T15:35:35.000Z</time>
      </trkpt>
      <trkpt lat="47.54315" lon="6.74794">
        <ele>462</ele>
        <time>2016-08-24T15:35:36.000Z</time>
      </trkpt>
      <trkpt lat="47.54315" lon="6.74791">
        <ele>462</ele>
        <time>2016-08-24T15:35:37.000Z</time>
      </trkpt>
      <trkpt lat="47.54315" lon="6.74787">
        <ele>462</ele>
        <time>2016-08-24T15:35:38.000Z</time>
      </trkpt>
      <trkpt lat="47.54315" lon="6.74783">
        <ele>462</ele>
        <time>2016-08-24T15:35:39.000Z</time>
      </trkpt>
      <trkpt lat="47.54314" lon="6.7478">
        <ele>462</ele>
        <time>2016-08-24T15:35:40.000Z</time>
      </trkpt>
      <trkpt lat="47.54314" lon="6.74775">
        <ele>462</ele>
        <time>2016-08-24T15:35:41.000Z</time>
      </trkpt>
      <trkpt lat="47.54314" lon="6.7477">
        <ele>462</ele>
        <time>2016-08-24T15:35:42.000Z</time>
      </trkpt>
      <trkpt lat="47.54314" lon="6.74765">
        <ele>462</ele>
        <time>2016-08-24T15:35:43.000Z</time>
      </trkpt>
      <trkpt lat="47.54315" lon="6.74759">
        <ele>462</ele>
        <time>2016-08-24T15:35:44.000Z</time>
      </trkpt>
      <trkpt lat="47.54315" lon="6.74754">
        <ele>462</ele>
        <time>2016-08-24T15:35:45.000Z</time>
      </trkpt>
      <trkpt lat="47.54316" lon="6.74748">
        <ele>460</ele>
        <time>2016-08-24T15:35:46.000Z</time>
      </trkpt>
      <trkpt lat="47.54317" lon="6.74742">
        <ele>460</ele>
        <time>2016-08-24T15:35:47.000Z</time>
      </trkpt>
      <trkpt lat="47.54317" lon="6.74736">
        <ele>460</ele>
        <time>2016-08-24T15:35:48.000Z</time>
      </trkpt>
      <trkpt lat="47.54317" lon="6.74729">
        <ele>460</ele>
        <time>2016-08-24T15:35:49.000Z</time>
      </trkpt>
      <trkpt lat="47.54317" lon="6.74723">
        <ele>460</ele>
        <time>2016-08-24T15:35:50.000Z</time>
      </trkpt>
      <trkpt lat="47.54317" lon="6.74716">
        <ele>459</ele>
        <time>2016-08-24T15:35:51.000Z</time>
      </trkpt>
      <trkpt lat="47.54318" lon="6.7471">
        <ele>459</ele>
        <time>2016-08-24T15:35:52.000Z</time>
      </trkpt>
      <trkpt lat="47.54318" lon="6.74702">
        <ele>459</ele>
        <time>2016-08-24T15:35:53.000Z</time>
      </trkpt>
      <trkpt lat="47.54319" lon="6.74695">
        <ele>458</ele>
        <time>2016-08-24T15:35:54.000Z</time>
      </trkpt>
      <trkpt lat="47.54319" lon="6.74686">
        <ele>458</ele>
        <time>2016-08-24T15:35:55.000Z</time>
      </trkpt>
      <trkpt lat="47.5432" lon="6.74664">
        <ele>456</ele>
        <time>2016-08-24T15:35:56.000Z</time>
      </trkpt>
      <trkpt lat="47.54321" lon="6.74656">
        <ele>456</ele>
        <time>2016-08-24T15:35:57.000Z</time>
      </trkpt>
      <trkpt lat="47.54323" lon="6.74648">
        <ele>456</ele>
        <time>2016-08-24T15:35:58.000Z</time>
      </trkpt>
      <trkpt lat="47.54323" lon="6.74639">
        <ele>455</ele>
        <time>2016-08-24T15:35:59.000Z</time>
      </trkpt>
      <trkpt lat="47.54323" lon="6.74629">
        <ele>455</ele>
        <time>2016-08-24T15:36:00.000Z</time>
      </trkpt>
      <trkpt lat="47.54323" lon="6.74617">
        <ele>455</ele>
        <time>2016-08-24T15:36:01.000Z</time>
      </trkpt>
      <trkpt lat="47.54323" lon="6.74603">
        <ele>454</ele>
        <time>2016-08-24T15:36:02.000Z</time>
      </trkpt>
      <trkpt lat="47.54323" lon="6.74589">
        <ele>454</ele>
        <time>2016-08-24T15:36:03.000Z</time>
      </trkpt>
      <trkpt lat="47.54322" lon="6.74576">
        <ele>453</ele>
        <time>2016-08-24T15:36:04.000Z</time>
      </trkpt>
      <trkpt lat="47.54321" lon="6.74567">
        <ele>453</ele>
        <time>2016-08-24T15:36:05.000Z</time>
      </trkpt>
      <trkpt lat="47.54321" lon="6.7456">
        <ele>453</ele>
        <time>2016-08-24T15:36:05.998Z</time>
      </trkpt>
      <trkpt lat="47.54323" lon="6.74552">
        <ele>453</ele>
        <time>2016-08-24T15:36:07.000Z</time>
      </trkpt>
      <trkpt lat="47.54321" lon="6.74543">
        <ele>453</ele>
        <time>2016-08-24T15:36:08.000Z</time>
      </trkpt>
      <trkpt lat="47.54322" lon="6.74533">
        <ele>453</ele>
        <time>2016-08-24T15:36:09.000Z</time>
      </trkpt>
      <trkpt lat="47.54322" lon="6.74522">
        <ele>453</ele>
        <time>2016-08-24T15:36:10.000Z</time>
      </trkpt>
      <trkpt lat="47.54323" lon="6.7451">
        <ele>453</ele>
        <time>2016-08-24T15:36:11.000Z</time>
      </trkpt>
      <trkpt lat="47.54325" lon="6.74504">
        <ele>454</ele>
        <time>2016-08-24T15:36:12.000Z</time>
      </trkpt>
      <trkpt lat="47.54326" lon="6.74495">
        <ele>453</ele>
        <time>2016-08-24T15:36:13.000Z</time>
      </trkpt>
      <trkpt lat="47.54327" lon="6.74487">
        <ele>452</ele>
        <time>2016-08-24T15:36:14.000Z</time>
      </trkpt>
      <trkpt lat="47.54328" lon="6.74481">
        <ele>452</ele>
        <time>2016-08-24T15:36:15.000Z</time>
      </trkpt>
      <trkpt lat="47.54328" lon="6.74474">
        <ele>451</ele>
        <time>2016-08-24T15:36:16.000Z</time>
      </trkpt>
      <trkpt lat="47.54328" lon="6.74472">
        <ele>451</ele>
        <time>2016-08-24T15:36:17.000Z</time>
      </trkpt>
      <trkpt lat="47.5433" lon="6.74466">
        <ele>451</ele>
        <time>2016-08-24T15:36:18.000Z</time>
      </trkpt>
      <trkpt lat="47.54331" lon="6.7446">
        <ele>450</ele>
        <time>2016-08-24T15:36:20.000Z</time>
      </trkpt>
      <trkpt lat="47.54331" lon="6.74459">
        <ele>450</ele>
        <time>2016-08-24T15:36:21.000Z</time>
      </trkpt>
      <trkpt lat="47.5433" lon="6.74453">
        <ele>450</ele>
        <time>2016-08-24T15:36:27.000Z</time>
      </trkpt>
      <trkpt lat="47.54331" lon="6.74451">
        <ele>450</ele>
        <time>2016-08-24T15:36:28.000Z</time>
      </trkpt>
      <trkpt lat="47.5433" lon="6.74444">
        <ele>450</ele>
        <time>2016-08-24T15:36:36.000Z</time>
      </trkpt>
      <trkpt lat="47.5433" lon="6.74444">
        <ele>450</ele>
        <time>2016-08-24T15:36:37.000Z</time>
      </trkpt>
      <trkpt lat="47.54326" lon="6.74443">
        <ele>450</ele>
        <time>2016-08-24T15:36:40.000Z</time>
      </trkpt>
      <trkpt lat="47.54325" lon="6.74442">
        <ele>450</ele>
        <time>2016-08-24T15:36:41.000Z</time>
      </trkpt>
      <trkpt lat="47.54322" lon="6.74439">
        <ele>450</ele>
        <time>2016-08-24T15:36:43.000Z</time>
      </trkpt>
      <trkpt lat="47.54321" lon="6.74437">
        <ele>450</ele>
        <time>2016-08-24T15:36:44.000Z</time>
      </trkpt>
      <trkpt lat="47.54318" lon="6.74431">
        <ele>450</ele>
        <time>2016-08-24T15:36:46.000Z</time>
      </trkpt>
      <trkpt lat="47.54317" lon="6.74428">
        <ele>450</ele>
        <time>2016-08-24T15:36:47.000Z</time>
      </trkpt>
      <trkpt lat="47.54317" lon="6.74424">
        <ele>450</ele>
        <time>2016-08-24T15:36:48.000Z</time>
      </trkpt>
      <trkpt lat="47.54317" lon="6.7442">
        <ele>450</ele>
        <time>2016-08-24T15:36:49.000Z</time>
      </trkpt>
      <trkpt lat="47.54318" lon="6.74417">
        <ele>448</ele>
        <time>2016-08-24T15:36:50.000Z</time>
      </trkpt>
      <trkpt lat="47.54318" lon="6.74413">
        <ele>448</ele>
        <time>2016-08-24T15:36:51.000Z</time>
      </trkpt>
      <trkpt lat="47.54319" lon="6.74409">
        <ele>448</ele>
        <time>2016-08-24T15:36:52.000Z</time>
      </trkpt>
      <trkpt lat="47.5432" lon="6.74406">
        <ele>448</ele>
        <time>2016-08-24T15:36:53.000Z</time>
      </trkpt>
      <trkpt lat="47.54321" lon="6.74402">
        <ele>448</ele>
        <time>2016-08-24T15:36:54.000Z</time>
      </trkpt>
      <trkpt lat="47.54322" lon="6.74398">
        <ele>447</ele>
        <time>2016-08-24T15:36:55.000Z</time>
      </trkpt>
      <trkpt lat="47.54323" lon="6.74393">
        <ele>447</ele>
        <time>2016-08-24T15:36:56.000Z</time>
      </trkpt>
      <trkpt lat="47.54324" lon="6.74389">
        <ele>447</ele>
        <time>2016-08-24T15:36:57.000Z</time>
      </trkpt>
      <trkpt lat="47.54325" lon="6.74384">
        <ele>447</ele>
        <time>2016-08-24T15:36:58.000Z</time>
      </trkpt>
      <trkpt lat="47.54326" lon="6.74378">
        <ele>446</ele>
        <time>2016-08-24T15:36:59.000Z</time>
      </trkpt>
      <trkpt lat="47.54327" lon="6.74372">
        <ele>446</ele>
        <time>2016-08-24T15:37:00.000Z</time>
      </trkpt>
      <trkpt lat="47.54328" lon="6.74366">
        <ele>446</ele>
        <time>2016-08-24T15:37:01.000Z</time>
      </trkpt>
      <trkpt lat="47.5433" lon="6.74359">
        <ele>446</ele>
        <time>2016-08-24T15:37:02.000Z</time>
      </trkpt>
      <trkpt lat="47.54331" lon="6.74352">
        <ele>446</ele>
        <time>2016-08-24T15:37:03.000Z</time>
      </trkpt>
      <trkpt lat="47.54332" lon="6.74346">
        <ele>447</ele>
        <time>2016-08-24T15:37:04.000Z</time>
      </trkpt>
      <trkpt lat="47.54332" lon="6.74339">
        <ele>447</ele>
        <time>2016-08-24T15:37:05.000Z</time>
      </trkpt>
      <trkpt lat="47.54333" lon="6.74332">
        <ele>447</ele>
        <time>2016-08-24T15:37:06.000Z</time>
      </trkpt>
      <trkpt lat="47.54332" lon="6.74324">
        <ele>446</ele>
        <time>2016-08-24T15:37:07.000Z</time>
      </trkpt>
      <trkpt lat="47.54332" lon="6.74316">
        <ele>445</ele>
        <time>2016-08-24T15:37:08.000Z</time>
      </trkpt>
      <trkpt lat="47.54331" lon="6.74308">
        <ele>444</ele>
        <time>2016-08-24T15:37:09.000Z</time>
      </trkpt>
      <trkpt lat="47.54331" lon="6.74301">
        <ele>443</ele>
        <time>2016-08-24T15:37:10.000Z</time>
      </trkpt>
      <trkpt lat="47.54331" lon="6.74293">
        <ele>443</ele>
        <time>2016-08-24T15:37:11.000Z</time>
      </trkpt>
      <trkpt lat="47.5433" lon="6.74285">
        <ele>443</ele>
        <time>2016-08-24T15:37:12.000Z</time>
      </trkpt>
      <trkpt lat="47.54327" lon="6.74267">
        <ele>442</ele>
        <time>2016-08-24T15:37:13.000Z</time>
      </trkpt>
      <trkpt lat="47.54325" lon="6.74257">
        <ele>442</ele>
        <time>2016-08-24T15:37:14.000Z</time>
      </trkpt>
      <trkpt lat="47.54325" lon="6.74249">
        <ele>442</ele>
        <time>2016-08-24T15:37:15.000Z</time>
      </trkpt>
      <trkpt lat="47.54324" lon="6.74243">
        <ele>441</ele>
        <time>2016-08-24T15:37:16.000Z</time>
      </trkpt>
      <trkpt lat="47.54326" lon="6.74237">
        <ele>441</ele>
        <time>2016-08-24T15:37:17.000Z</time>
      </trkpt>
      <trkpt lat="47.54323" lon="6.74228">
        <ele>440</ele>
        <time>2016-08-24T15:37:18.000Z</time>
      </trkpt>
      <trkpt lat="47.54319" lon="6.74219">
        <ele>439</ele>
        <time>2016-08-24T15:37:19.000Z</time>
      </trkpt>
      <trkpt lat="47.54317" lon="6.74212">
        <ele>439</ele>
        <time>2016-08-24T15:37:20.000Z</time>
      </trkpt>
      <trkpt lat="47.54316" lon="6.74205">
        <ele>439</ele>
        <time>2016-08-24T15:37:21.000Z</time>
      </trkpt>
      <trkpt lat="47.54316" lon="6.74199">
        <ele>439</ele>
        <time>2016-08-24T15:37:22.000Z</time>
      </trkpt>
      <trkpt lat="47.54316" lon="6.74193">
        <ele>438</ele>
        <time>2016-08-24T15:37:23.000Z</time>
      </trkpt>
      <trkpt lat="47.54315" lon="6.74188">
        <ele>438</ele>
        <time>2016-08-24T15:37:24.000Z</time>
      </trkpt>
      <trkpt lat="47.54316" lon="6.74184">
        <ele>438</ele>
        <time>2016-08-24T15:37:25.000Z</time>
      </trkpt>
      <trkpt lat="47.54316" lon="6.74181">
        <ele>438</ele>
        <time>2016-08-24T15:37:26.000Z</time>
      </trkpt>
      <trkpt lat="47.54317" lon="6.74178">
        <ele>438</ele>
        <time>2016-08-24T15:37:27.000Z</time>
      </trkpt>
      <trkpt lat="47.54318" lon="6.74175">
        <ele>438</ele>
        <time>2016-08-24T15:37:28.000Z</time>
      </trkpt>
      <trkpt lat="47.54319" lon="6.74171">
        <ele>438</ele>
        <time>2016-08-24T15:37:29.000Z</time>
      </trkpt>
      <trkpt lat="47.54321" lon="6.74168">
        <ele>438</ele>
        <time>2016-08-24T15:37:30.000Z</time>
      </trkpt>
      <trkpt lat="47.54323" lon="6.74164">
        <ele>436</ele>
        <time>2016-08-24T15:37:31.000Z</time>
      </trkpt>
      <trkpt lat="47.54324" lon="6.7416">
        <ele>436</ele>
        <time>2016-08-24T15:37:32.000Z</time>
      </trkpt>
      <trkpt lat="47.54326" lon="6.74156">
        <ele>436</ele>
        <time>2016-08-24T15:37:33.000Z</time>
      </trkpt>
      <trkpt lat="47.54328" lon="6.74152">
        <ele>436</ele>
        <time>2016-08-24T15:37:34.000Z</time>
      </trkpt>
      <trkpt lat="47.54335" lon="6.74141">
        <ele>435</ele>
        <time>2016-08-24T15:37:35.000Z</time>
      </trkpt>
      <trkpt lat="47.54339" lon="6.74134">
        <ele>435</ele>
        <time>2016-08-24T15:37:36.000Z</time>
      </trkpt>
      <trkpt lat="47.54343" lon="6.74128">
        <ele>434</ele>
        <time>2016-08-24T15:37:37.000Z</time>
      </trkpt>
      <trkpt lat="47.54346" lon="6.74122">
        <ele>434</ele>
        <time>2016-08-24T15:37:38.000Z</time>
      </trkpt>
      <trkpt lat="47.5435" lon="6.74111">
        <ele>434</ele>
        <time>2016-08-24T15:37:39.000Z</time>
      </trkpt>
      <trkpt lat="47.54353" lon="6.74101">
        <ele>433</ele>
        <time>2016-08-24T15:37:40.000Z</time>
      </trkpt>
      <trkpt lat="47.54356" lon="6.74096">
        <ele>433</ele>
        <time>2016-08-24T15:37:41.000Z</time>
      </trkpt>
      <trkpt lat="47.54358" lon="6.7409">
        <ele>433</ele>
        <time>2016-08-24T15:37:42.000Z</time>
      </trkpt>
      <trkpt lat="47.54359" lon="6.74084">
        <ele>433</ele>
        <time>2016-08-24T15:37:43.000Z</time>
      </trkpt>
      <trkpt lat="47.5436" lon="6.74082">
        <ele>430</ele>
        <time>2016-08-24T15:37:44.000Z</time>
      </trkpt>
      <trkpt lat="47.54362" lon="6.74077">
        <ele>430</ele>
        <time>2016-08-24T15:37:45.000Z</time>
      </trkpt>
      <trkpt lat="47.54365" lon="6.74071">
        <ele>430</ele>
        <time>2016-08-24T15:37:46.000Z</time>
      </trkpt>
      <trkpt lat="47.54368" lon="6.74066">
        <ele>429</ele>
        <time>2016-08-24T15:37:47.000Z</time>
      </trkpt>
      <trkpt lat="47.54371" lon="6.74057">
        <ele>429</ele>
        <time>2016-08-24T15:37:48.000Z</time>
      </trkpt>
      <trkpt lat="47.54375" lon="6.74048">
        <ele>429</ele>
        <time>2016-08-24T15:37:49.000Z</time>
      </trkpt>
      <trkpt lat="47.54379" lon="6.74038">
        <ele>428</ele>
        <time>2016-08-24T15:37:50.000Z</time>
      </trkpt>
      <trkpt lat="47.54382" lon="6.74029">
        <ele>428</ele>
        <time>2016-08-24T15:37:51.000Z</time>
      </trkpt>
      <trkpt lat="47.54386" lon="6.7402">
        <ele>427</ele>
        <time>2016-08-24T15:37:52.000Z</time>
      </trkpt>
      <trkpt lat="47.54387" lon="6.74011">
        <ele>427</ele>
        <time>2016-08-24T15:37:53.000Z</time>
      </trkpt>
      <trkpt lat="47.54389" lon="6.74002">
        <ele>427</ele>
        <time>2016-08-24T15:37:54.000Z</time>
      </trkpt>
      <trkpt lat="47.5439" lon="6.73995">
        <ele>423</ele>
        <time>2016-08-24T15:37:55.000Z</time>
      </trkpt>
      <trkpt lat="47.5439" lon="6.7399">
        <ele>423</ele>
        <time>2016-08-24T15:37:56.000Z</time>
      </trkpt>
      <trkpt lat="47.5439" lon="6.73981">
        <ele>423</ele>
        <time>2016-08-24T15:37:57.000Z</time>
      </trkpt>
      <trkpt lat="47.5439" lon="6.73974">
        <ele>423</ele>
        <time>2016-08-24T15:37:58.000Z</time>
      </trkpt>
      <trkpt lat="47.5439" lon="6.73966">
        <ele>422</ele>
        <time>2016-08-24T15:37:59.000Z</time>
      </trkpt>
      <trkpt lat="47.54391" lon="6.7396">
        <ele>422</ele>
        <time>2016-08-24T15:38:00.000Z</time>
      </trkpt>
      <trkpt lat="47.54391" lon="6.73956">
        <ele>422</ele>
        <time>2016-08-24T15:38:01.000Z</time>
      </trkpt>
      <trkpt lat="47.54392" lon="6.7395">
        <ele>421</ele>
        <time>2016-08-24T15:38:02.000Z</time>
      </trkpt>
      <trkpt lat="47.54392" lon="6.73943">
        <ele>421</ele>
        <time>2016-08-24T15:38:03.000Z</time>
      </trkpt>
      <trkpt lat="47.54394" lon="6.73935">
        <ele>420</ele>
        <time>2016-08-24T15:38:04.000Z</time>
      </trkpt>
      <trkpt lat="47.54394" lon="6.73928">
        <ele>420</ele>
        <time>2016-08-24T15:38:05.000Z</time>
      </trkpt>
      <trkpt lat="47.54394" lon="6.73921">
        <ele>420</ele>
        <time>2016-08-24T15:38:06.000Z</time>
      </trkpt>
      <trkpt lat="47.54394" lon="6.73914">
        <ele>416</ele>
        <time>2016-08-24T15:38:07.000Z</time>
      </trkpt>
      <trkpt lat="47.54395" lon="6.73907">
        <ele>416</ele>
        <time>2016-08-24T15:38:08.000Z</time>
      </trkpt>
      <trkpt lat="47.54398" lon="6.73896">
        <ele>415</ele>
        <time>2016-08-24T15:38:09.000Z</time>
      </trkpt>
      <trkpt lat="47.54397" lon="6.73886">
        <ele>415</ele>
        <time>2016-08-24T15:38:10.000Z</time>
      </trkpt>
      <trkpt lat="47.54398" lon="6.73879">
        <ele>415</ele>
        <time>2016-08-24T15:38:11.000Z</time>
      </trkpt>
      <trkpt lat="47.54399" lon="6.7387">
        <ele>415</ele>
        <time>2016-08-24T15:38:12.000Z</time>
      </trkpt>
      <trkpt lat="47.54399" lon="6.73861">
        <ele>414</ele>
        <time>2016-08-24T15:38:13.000Z</time>
      </trkpt>
      <trkpt lat="47.54401" lon="6.73851">
        <ele>413</ele>
        <time>2016-08-24T15:38:14.000Z</time>
      </trkpt>
      <trkpt lat="47.54401" lon="6.73837">
        <ele>412</ele>
        <time>2016-08-24T15:38:15.000Z</time>
      </trkpt>
      <trkpt lat="47.54403" lon="6.73826">
        <ele>410</ele>
        <time>2016-08-24T15:38:16.000Z</time>
      </trkpt>
      <trkpt lat="47.54404" lon="6.73815">
        <ele>410</ele>
        <time>2016-08-24T15:38:17.000Z</time>
      </trkpt>
      <trkpt lat="47.54404" lon="6.73807">
        <ele>410</ele>
        <time>2016-08-24T15:38:18.000Z</time>
      </trkpt>
      <trkpt lat="47.54407" lon="6.73796">
        <ele>409</ele>
        <time>2016-08-24T15:38:19.000Z</time>
      </trkpt>
      <trkpt lat="47.54406" lon="6.73783">
        <ele>409</ele>
        <time>2016-08-24T15:38:20.000Z</time>
      </trkpt>
      <trkpt lat="47.54405" lon="6.73775">
        <ele>408</ele>
        <time>2016-08-24T15:38:21.000Z</time>
      </trkpt>
      <trkpt lat="47.54404" lon="6.73764">
        <ele>408</ele>
        <time>2016-08-24T15:38:22.000Z</time>
      </trkpt>
      <trkpt lat="47.54403" lon="6.73755">
        <ele>407</ele>
        <time>2016-08-24T15:38:23.000Z</time>
      </trkpt>
      <trkpt lat="47.54404" lon="6.73744">
        <ele>406</ele>
        <time>2016-08-24T15:38:24.000Z</time>
      </trkpt>
      <trkpt lat="47.54406" lon="6.7373">
        <ele>406</ele>
        <time>2016-08-24T15:38:25.000Z</time>
      </trkpt>
      <trkpt lat="47.54407" lon="6.73719">
        <ele>406</ele>
        <time>2016-08-24T15:38:26.000Z</time>
      </trkpt>
      <trkpt lat="47.54407" lon="6.73708">
        <ele>406</ele>
        <time>2016-08-24T15:38:27.000Z</time>
      </trkpt>
      <trkpt lat="47.54408" lon="6.73696">
        <ele>406</ele>
        <time>2016-08-24T15:38:28.000Z</time>
      </trkpt>
      <trkpt lat="47.54407" lon="6.73684">
        <ele>406</ele>
        <time>2016-08-24T15:38:29.000Z</time>
      </trkpt>
      <trkpt lat="47.54407" lon="6.73674">
        <ele>405</ele>
        <time>2016-08-24T15:38:30.000Z</time>
      </trkpt>
      <trkpt lat="47.54409" lon="6.7366">
        <ele>404</ele>
        <time>2016-08-24T15:38:31.000Z</time>
      </trkpt>
      <trkpt lat="47.54409" lon="6.7365">
        <ele>403</ele>
        <time>2016-08-24T15:38:32.000Z</time>
      </trkpt>
      <trkpt lat="47.54413" lon="6.7364">
        <ele>403</ele>
        <time>2016-08-24T15:38:33.000Z</time>
      </trkpt>
      <trkpt lat="47.54415" lon="6.73629">
        <ele>403</ele>
        <time>2016-08-24T15:38:34.000Z</time>
      </trkpt>
      <trkpt lat="47.54416" lon="6.73618">
        <ele>402</ele>
        <time>2016-08-24T15:38:35.000Z</time>
      </trkpt>
      <trkpt lat="47.54418" lon="6.73607">
        <ele>405</ele>
        <time>2016-08-24T15:38:36.000Z</time>
      </trkpt>
      <trkpt lat="47.5442" lon="6.73598">
        <ele>404</ele>
        <time>2016-08-24T15:38:37.000Z</time>
      </trkpt>
      <trkpt lat="47.5442" lon="6.73589">
        <ele>403</ele>
        <time>2016-08-24T15:38:38.000Z</time>
      </trkpt>
      <trkpt lat="47.5442" lon="6.73578">
        <ele>402</ele>
        <time>2016-08-24T15:38:39.000Z</time>
      </trkpt>
      <trkpt lat="47.54421" lon="6.73571">
        <ele>403</ele>
        <time>2016-08-24T15:38:40.000Z</time>
      </trkpt>
      <trkpt lat="47.54422" lon="6.73563">
        <ele>404</ele>
        <time>2016-08-24T15:38:41.000Z</time>
      </trkpt>
      <trkpt lat="47.54424" lon="6.73556">
        <ele>404</ele>
        <time>2016-08-24T15:38:42.000Z</time>
      </trkpt>
      <trkpt lat="47.54424" lon="6.73551">
        <ele>404</ele>
        <time>2016-08-24T15:38:43.000Z</time>
      </trkpt>
      <trkpt lat="47.54425" lon="6.73547">
        <ele>404</ele>
        <time>2016-08-24T15:38:44.000Z</time>
      </trkpt>
      <trkpt lat="47.54425" lon="6.7354">
        <ele>404</ele>
        <time>2016-08-24T15:38:45.000Z</time>
      </trkpt>
      <trkpt lat="47.54423" lon="6.73533">
        <ele>404</ele>
        <time>2016-08-24T15:38:46.000Z</time>
      </trkpt>
      <trkpt lat="47.54421" lon="6.73526">
        <ele>404</ele>
        <time>2016-08-24T15:38:47.000Z</time>
      </trkpt>
      <trkpt lat="47.54423" lon="6.73518">
        <ele>403</ele>
        <time>2016-08-24T15:38:48.000Z</time>
      </trkpt>
      <trkpt lat="47.54424" lon="6.73514">
        <ele>403</ele>
        <time>2016-08-24T15:38:49.000Z</time>
      </trkpt>
      <trkpt lat="47.54425" lon="6.7351">
        <ele>403</ele>
        <time>2016-08-24T15:38:50.000Z</time>
      </trkpt>
      <trkpt lat="47.54427" lon="6.73504">
        <ele>402</ele>
        <time>2016-08-24T15:38:52.000Z</time>
      </trkpt>
      <trkpt lat="47.54427" lon="6.73503">
        <ele>402</ele>
        <time>2016-08-24T15:38:53.000Z</time>
      </trkpt>
      <trkpt lat="47.54427" lon="6.735">
        <ele>402</ele>
        <time>2016-08-24T15:39:19.000Z</time>
      </trkpt>
      <trkpt lat="47.54429" lon="6.73496">
        <ele>402</ele>
        <time>2016-08-24T15:39:20.000Z</time>
      </trkpt>
      <trkpt lat="47.5443" lon="6.73493">
        <ele>402</ele>
        <time>2016-08-24T15:39:21.000Z</time>
      </trkpt>
      <trkpt lat="47.54431" lon="6.7349">
        <ele>402</ele>
        <time>2016-08-24T15:39:22.000Z</time>
      </trkpt>
      <trkpt lat="47.54432" lon="6.73484">
        <ele>403</ele>
        <time>2016-08-24T15:39:26.000Z</time>
      </trkpt>
      <trkpt lat="47.54432" lon="6.73481">
        <ele>403</ele>
        <time>2016-08-24T15:39:27.000Z</time>
      </trkpt>
      <trkpt lat="47.54432" lon="6.73478">
        <ele>403</ele>
        <time>2016-08-24T15:39:28.000Z</time>
      </trkpt>
      <trkpt lat="47.54432" lon="6.73474">
        <ele>403</ele>
        <time>2016-08-24T15:39:29.000Z</time>
      </trkpt>
      <trkpt lat="47.54433" lon="6.73469">
        <ele>403</ele>
        <time>2016-08-24T15:39:30.000Z</time>
      </trkpt>
      <trkpt lat="47.54434" lon="6.73464">
        <ele>403</ele>
        <time>2016-08-24T15:39:31.000Z</time>
      </trkpt>
      <trkpt lat="47.54435" lon="6.7346">
        <ele>403</ele>
        <time>2016-08-24T15:39:32.000Z</time>
      </trkpt>
      <trkpt lat="47.54436" lon="6.73455">
        <ele>403</ele>
        <time>2016-08-24T15:39:33.000Z</time>
      </trkpt>
      <trkpt lat="47.54437" lon="6.73451">
        <ele>403</ele>
        <time>2016-08-24T15:39:34.000Z</time>
      </trkpt>
      <trkpt lat="47.54438" lon="6.73446">
        <ele>403</ele>
        <time>2016-08-24T15:39:35.000Z</time>
      </trkpt>
      <trkpt lat="47.54438" lon="6.73441">
        <ele>403</ele>
        <time>2016-08-24T15:39:36.000Z</time>
      </trkpt>
      <trkpt lat="47.5444" lon="6.73436">
        <ele>403</ele>
        <time>2016-08-24T15:39:37.000Z</time>
      </trkpt>
      <trkpt lat="47.54441" lon="6.73431">
        <ele>403</ele>
        <time>2016-08-24T15:39:38.000Z</time>
      </trkpt>
      <trkpt lat="47.54442" lon="6.73426">
        <ele>403</ele>
        <time>2016-08-24T15:39:39.000Z</time>
      </trkpt>
      <trkpt lat="47.54443" lon="6.73422">
        <ele>403</ele>
        <time>2016-08-24T15:39:40.000Z</time>
      </trkpt>
      <trkpt lat="47.54444" lon="6.73417">
        <ele>403</ele>
        <time>2016-08-24T15:39:41.000Z</time>
      </trkpt>
      <trkpt lat="47.54445" lon="6.73413">
        <ele>402</ele>
        <time>2016-08-24T15:39:42.000Z</time>
      </trkpt>
      <trkpt lat="47.54447" lon="6.73407">
        <ele>402</ele>
        <time>2016-08-24T15:39:43.000Z</time>
      </trkpt>
      <trkpt lat="47.54448" lon="6.734">
        <ele>402</ele>
        <time>2016-08-24T15:39:44.000Z</time>
      </trkpt>
      <trkpt lat="47.54449" lon="6.73393">
        <ele>402</ele>
        <time>2016-08-24T15:39:45.000Z</time>
      </trkpt>
      <trkpt lat="47.5445" lon="6.73385">
        <ele>402</ele>
        <time>2016-08-24T15:39:46.000Z</time>
      </trkpt>
      <trkpt lat="47.54451" lon="6.73377">
        <ele>402</ele>
        <time>2016-08-24T15:39:47.000Z</time>
      </trkpt>
      <trkpt lat="47.54453" lon="6.73369">
        <ele>402</ele>
        <time>2016-08-24T15:39:48.000Z</time>
      </trkpt>
      <trkpt lat="47.54454" lon="6.73361">
        <ele>402</ele>
        <time>2016-08-24T15:39:49.000Z</time>
      </trkpt>
      <trkpt lat="47.54454" lon="6.73343">
        <ele>402</ele>
        <time>2016-08-24T15:39:50.000Z</time>
      </trkpt>
      <trkpt lat="47.54454" lon="6.73332">
        <ele>402</ele>
        <time>2016-08-24T15:39:51.000Z</time>
      </trkpt>
      <trkpt lat="47.54456" lon="6.73324">
        <ele>402</ele>
        <time>2016-08-24T15:39:52.000Z</time>
      </trkpt>
      <trkpt lat="47.54458" lon="6.73317">
        <ele>403</ele>
        <time>2016-08-24T15:39:53.000Z</time>
      </trkpt>
      <trkpt lat="47.54455" lon="6.73313">
        <ele>403</ele>
        <time>2016-08-24T15:39:54.000Z</time>
      </trkpt>
      <trkpt lat="47.54455" lon="6.73309">
        <ele>403</ele>
        <time>2016-08-24T15:39:55.000Z</time>
      </trkpt>
      <trkpt lat="47.54455" lon="6.73305">
        <ele>403</ele>
        <time>2016-08-24T15:39:56.000Z</time>
      </trkpt>
      <trkpt lat="47.54456" lon="6.733">
        <ele>403</ele>
        <time>2016-08-24T15:39:57.000Z</time>
      </trkpt>
      <trkpt lat="47.54457" lon="6.73295">
        <ele>403</ele>
        <time>2016-08-24T15:39:58.000Z</time>
      </trkpt>
      <trkpt lat="47.54457" lon="6.7329">
        <ele>403</ele>
        <time>2016-08-24T15:39:59.000Z</time>
      </trkpt>
      <trkpt lat="47.54457" lon="6.73286">
        <ele>403</ele>
        <time>2016-08-24T15:40:00.000Z</time>
      </trkpt>
      <trkpt lat="47.54457" lon="6.73283">
        <ele>403</ele>
        <time>2016-08-24T15:40:01.000Z</time>
      </trkpt>
      <trkpt lat="47.54459" lon="6.73279">
        <ele>404</ele>
        <time>2016-08-24T15:40:03.000Z</time>
      </trkpt>
      <trkpt lat="47.5446" lon="6.73277">
        <ele>404</ele>
        <time>2016-08-24T15:40:04.000Z</time>
      </trkpt>
      <trkpt lat="47.54461" lon="6.73273">
        <ele>404</ele>
        <time>2016-08-24T15:40:06.000Z</time>
      </trkpt>
      <trkpt lat="47.54461" lon="6.73271">
        <ele>404</ele>
        <time>2016-08-24T15:40:07.000Z</time>
      </trkpt>
      <trkpt lat="47.54461" lon="6.73264">
        <ele>404</ele>
        <time>2016-08-24T15:40:11.000Z</time>
      </trkpt>
      <trkpt lat="47.54461" lon="6.73263">
        <ele>404</ele>
        <time>2016-08-24T15:40:12.000Z</time>
      </trkpt>
      <trkpt lat="47.54462" lon="6.73258">
        <ele>404</ele>
        <time>2016-08-24T15:40:14.000Z</time>
      </trkpt>
      <trkpt lat="47.54463" lon="6.73255">
        <ele>404</ele>
        <time>2016-08-24T15:40:15.000Z</time>
      </trkpt>
      <trkpt lat="47.54463" lon="6.73252">
        <ele>404</ele>
        <time>2016-08-24T15:40:16.000Z</time>
      </trkpt>
      <trkpt lat="47.54463" lon="6.73248">
        <ele>408</ele>
        <time>2016-08-24T15:40:17.000Z</time>
      </trkpt>
      <trkpt lat="47.54464" lon="6.73244">
        <ele>408</ele>
        <time>2016-08-24T15:40:19.000Z</time>
      </trkpt>
      <trkpt lat="47.54464" lon="6.73241">
        <ele>408</ele>
        <time>2016-08-24T15:40:20.000Z</time>
      </trkpt>
      <trkpt lat="47.54464" lon="6.73236">
        <ele>408</ele>
        <time>2016-08-24T15:40:22.000Z</time>
      </trkpt>
      <trkpt lat="47.54463" lon="6.73233">
        <ele>408</ele>
        <time>2016-08-24T15:40:23.000Z</time>
      </trkpt>
      <trkpt lat="47.54463" lon="6.73228">
        <ele>408</ele>
        <time>2016-08-24T15:40:25.000Z</time>
      </trkpt>
      <trkpt lat="47.54462" lon="6.73225">
        <ele>409</ele>
        <time>2016-08-24T15:40:26.000Z</time>
      </trkpt>
      <trkpt lat="47.54461" lon="6.73222">
        <ele>409</ele>
        <time>2016-08-24T15:40:27.000Z</time>
      </trkpt>
      <trkpt lat="47.54461" lon="6.73218">
        <ele>409</ele>
        <time>2016-08-24T15:40:28.000Z</time>
      </trkpt>
      <trkpt lat="47.5446" lon="6.73212">
        <ele>409</ele>
        <time>2016-08-24T15:40:30.000Z</time>
      </trkpt>
      <trkpt lat="47.5446" lon="6.73209">
        <ele>409</ele>
        <time>2016-08-24T15:40:31.000Z</time>
      </trkpt>
      <trkpt lat="47.5446" lon="6.73204">
        <ele>409</ele>
        <time>2016-08-24T15:40:32.999Z</time>
      </trkpt>
      <trkpt lat="47.54461" lon="6.732">
        <ele>409</ele>
        <time>2016-08-24T15:40:34.000Z</time>
      </trkpt>
      <trkpt lat="47.54462" lon="6.73197">
        <ele>410</ele>
        <time>2016-08-24T15:40:35.000Z</time>
      </trkpt>
      <trkpt lat="47.54462" lon="6.73193">
        <ele>410</ele>
        <time>2016-08-24T15:40:36.000Z</time>
      </trkpt>
      <trkpt lat="47.54463" lon="6.73189">
        <ele>410</ele>
        <time>2016-08-24T15:40:37.000Z</time>
      </trkpt>
      <trkpt lat="47.54463" lon="6.73185">
        <ele>410</ele>
        <time>2016-08-24T15:40:38.000Z</time>
      </trkpt>
      <trkpt lat="47.54463" lon="6.7318">
        <ele>410</ele>
        <time>2016-08-24T15:40:39.000Z</time>
      </trkpt>
      <trkpt lat="47.54463" lon="6.73175">
        <ele>411</ele>
        <time>2016-08-24T15:40:40.000Z</time>
      </trkpt>
      <trkpt lat="47.54463" lon="6.73171">
        <ele>411</ele>
        <time>2016-08-24T15:40:41.000Z</time>
      </trkpt>
      <trkpt lat="47.54463" lon="6.73167">
        <ele>411</ele>
        <time>2016-08-24T15:40:42.000Z</time>
      </trkpt>
      <trkpt lat="47.54464" lon="6.73163">
        <ele>413</ele>
        <time>2016-08-24T15:40:43.000Z</time>
      </trkpt>
      <trkpt lat="47.54464" lon="6.73159">
        <ele>413</ele>
        <time>2016-08-24T15:40:44.000Z</time>
      </trkpt>
      <trkpt lat="47.54464" lon="6.73153">
        <ele>413</ele>
        <time>2016-08-24T15:40:46.000Z</time>
      </trkpt>
      <trkpt lat="47.54464" lon="6.73149">
        <ele>413</ele>
        <time>2016-08-24T15:40:47.000Z</time>
      </trkpt>
      <trkpt lat="47.54464" lon="6.73146">
        <ele>413</ele>
        <time>2016-08-24T15:40:48.000Z</time>
      </trkpt>
      <trkpt lat="47.54463" lon="6.73142">
        <ele>413</ele>
        <time>2016-08-24T15:40:49.000Z</time>
      </trkpt>
      <trkpt lat="47.54462" lon="6.73136">
        <ele>413</ele>
        <time>2016-08-24T15:40:50.000Z</time>
      </trkpt>
      <trkpt lat="47.54461" lon="6.73131">
        <ele>413</ele>
        <time>2016-08-24T15:40:51.000Z</time>
      </trkpt>
      <trkpt lat="47.54461" lon="6.73127">
        <ele>413</ele>
        <time>2016-08-24T15:40:52.000Z</time>
      </trkpt>
      <trkpt lat="47.5446" lon="6.73125">
        <ele>413</ele>
        <time>2016-08-24T15:40:53.000Z</time>
      </trkpt>
      <trkpt lat="47.54464" lon="6.73122">
        <ele>413</ele>
        <time>2016-08-24T15:41:02.000Z</time>
      </trkpt>
      <trkpt lat="47.54465" lon="6.73123">
        <ele>413</ele>
        <time>2016-08-24T15:41:03.000Z</time>
      </trkpt>
      <trkpt lat="47.54469" lon="6.73121">
        <ele>414</ele>
        <time>2016-08-24T15:41:09.000Z</time>
      </trkpt>
      <trkpt lat="47.5447" lon="6.73121">
        <ele>414</ele>
        <time>2016-08-24T15:41:10.000Z</time>
      </trkpt>
      <trkpt lat="47.54474" lon="6.73122">
        <ele>414</ele>
        <time>2016-08-24T15:41:14.000Z</time>
      </trkpt>
      <trkpt lat="47.54475" lon="6.73122">
        <ele>414</ele>
        <time>2016-08-24T15:41:15.000Z</time>
      </trkpt>
      <trkpt lat="47.54479" lon="6.73124">
        <ele>414</ele>
        <time>2016-08-24T15:41:18.000Z</time>
      </trkpt>
      <trkpt lat="47.5448" lon="6.73124">
        <ele>414</ele>
        <time>2016-08-24T15:41:19.000Z</time>
      </trkpt>
      <trkpt lat="47.54483" lon="6.73125">
        <ele>414</ele>
        <time>2016-08-24T15:41:22.000Z</time>
      </trkpt>
      <trkpt lat="47.54485" lon="6.73124">
        <ele>414</ele>
        <time>2016-08-24T15:41:23.000Z</time>
      </trkpt>
      <trkpt lat="47.54488" lon="6.73122">
        <ele>414</ele>
        <time>2016-08-24T15:41:26.000Z</time>
      </trkpt>
      <trkpt lat="47.5449" lon="6.73122">
        <ele>414</ele>
        <time>2016-08-24T15:41:27.000Z</time>
      </trkpt>
      <trkpt lat="47.54493" lon="6.73122">
        <ele>414</ele>
        <time>2016-08-24T15:41:29.000Z</time>
      </trkpt>
      <trkpt lat="47.54495" lon="6.73122">
        <ele>414</ele>
        <time>2016-08-24T15:41:30.000Z</time>
      </trkpt>
      <trkpt lat="47.54499" lon="6.73122">
        <ele>415</ele>
        <time>2016-08-24T15:41:32.000Z</time>
      </trkpt>
      <trkpt lat="47.545" lon="6.73122">
        <ele>417</ele>
        <time>2016-08-24T15:41:33.000Z</time>
      </trkpt>
      <trkpt lat="47.54504" lon="6.7312">
        <ele>417</ele>
        <time>2016-08-24T15:41:36.000Z</time>
      </trkpt>
      <trkpt lat="47.54506" lon="6.7312">
        <ele>417</ele>
        <time>2016-08-24T15:41:37.000Z</time>
      </trkpt>
      <trkpt lat="47.54509" lon="6.73119">
        <ele>417</ele>
        <time>2016-08-24T15:41:39.000Z</time>
      </trkpt>
      <trkpt lat="47.54511" lon="6.73119">
        <ele>417</ele>
        <time>2016-08-24T15:41:40.000Z</time>
      </trkpt>
      <trkpt lat="47.54513" lon="6.7312">
        <ele>417</ele>
        <time>2016-08-24T15:41:41.000Z</time>
      </trkpt>
      <trkpt lat="47.54516" lon="6.73119">
        <ele>417</ele>
        <time>2016-08-24T15:41:42.000Z</time>
      </trkpt>
      <trkpt lat="47.54518" lon="6.73119">
        <ele>417</ele>
        <time>2016-08-24T15:41:43.000Z</time>
      </trkpt>
      <trkpt lat="47.54521" lon="6.73119">
        <ele>417</ele>
        <time>2016-08-24T15:41:44.000Z</time>
      </trkpt>
      <trkpt lat="47.54523" lon="6.73119">
        <ele>417</ele>
        <time>2016-08-24T15:41:45.000Z</time>
      </trkpt>
      <trkpt lat="47.54526" lon="6.73118">
        <ele>417</ele>
        <time>2016-08-24T15:41:46.000Z</time>
      </trkpt>
      <trkpt lat="47.54529" lon="6.73118">
        <ele>417</ele>
        <time>2016-08-24T15:41:47.000Z</time>
      </trkpt>
      <trkpt lat="47.54532" lon="6.73118">
        <ele>417</ele>
        <time>2016-08-24T15:41:48.000Z</time>
      </trkpt>
      <trkpt lat="47.54534" lon="6.73118">
        <ele>417</ele>
        <time>2016-08-24T15:41:49.000Z</time>
      </trkpt>
      <trkpt lat="47.54536" lon="6.73117">
        <ele>417</ele>
        <time>2016-08-24T15:41:50.000Z</time>
      </trkpt>
      <trkpt lat="47.5454" lon="6.73117">
        <ele>417</ele>
        <time>2016-08-24T15:41:52.000Z</time>
      </trkpt>
      <trkpt lat="47.54542" lon="6.73116">
        <ele>418</ele>
        <time>2016-08-24T15:41:53.000Z</time>
      </trkpt>
      <trkpt lat="47.54544" lon="6.73115">
        <ele>418</ele>
        <time>2016-08-24T15:41:54.000Z</time>
      </trkpt>
      <trkpt lat="47.54547" lon="6.73114">
        <ele>418</ele>
        <time>2016-08-24T15:41:55.000Z</time>
      </trkpt>
      <trkpt lat="47.54549" lon="6.73113">
        <ele>418</ele>
        <time>2016-08-24T15:41:56.000Z</time>
      </trkpt>
      <trkpt lat="47.54552" lon="6.73112">
        <ele>418</ele>
        <time>2016-08-24T15:41:57.000Z</time>
      </trkpt>
      <trkpt lat="47.54554" lon="6.7311">
        <ele>418</ele>
        <time>2016-08-24T15:41:58.000Z</time>
      </trkpt>
      <trkpt lat="47.54556" lon="6.73108">
        <ele>418</ele>
        <time>2016-08-24T15:41:59.000Z</time>
      </trkpt>
      <trkpt lat="47.54558" lon="6.73106">
        <ele>418</ele>
        <time>2016-08-24T15:42:00.000Z</time>
      </trkpt>
      <trkpt lat="47.54561" lon="6.73105">
        <ele>418</ele>
        <time>2016-08-24T15:42:01.000Z</time>
      </trkpt>
      <trkpt lat="47.54563" lon="6.73103">
        <ele>418</ele>
        <time>2016-08-24T15:42:02.000Z</time>
      </trkpt>
      <trkpt lat="47.54567" lon="6.73102">
        <ele>418</ele>
        <time>2016-08-24T15:42:03.000Z</time>
      </trkpt>
      <trkpt lat="47.54569" lon="6.731">
        <ele>418</ele>
        <time>2016-08-24T15:42:04.000Z</time>
      </trkpt>
      <trkpt lat="47.54571" lon="6.73098">
        <ele>418</ele>
        <time>2016-08-24T15:42:05.000Z</time>
      </trkpt>
      <trkpt lat="47.54574" lon="6.73095">
        <ele>418</ele>
        <time>2016-08-24T15:42:07.000Z</time>
      </trkpt>
      <trkpt lat="47.54576" lon="6.73093">
        <ele>418</ele>
        <time>2016-08-24T15:42:08.000Z</time>
      </trkpt>
      <trkpt lat="47.54578" lon="6.73091">
        <ele>418</ele>
        <time>2016-08-24T15:42:09.000Z</time>
      </trkpt>
      <trkpt lat="47.5458" lon="6.73089">
        <ele>418</ele>
        <time>2016-08-24T15:42:10.000Z</time>
      </trkpt>
      <trkpt lat="47.54582" lon="6.73087">
        <ele>418</ele>
        <time>2016-08-24T15:42:11.000Z</time>
      </trkpt>
      <trkpt lat="47.54584" lon="6.73084">
        <ele>418</ele>
        <time>2016-08-24T15:42:12.000Z</time>
      </trkpt>
      <trkpt lat="47.54585" lon="6.73082">
        <ele>418</ele>
        <time>2016-08-24T15:42:13.000Z</time>
      </trkpt>
      <trkpt lat="47.54587" lon="6.73081">
        <ele>417</ele>
        <time>2016-08-24T15:42:14.000Z</time>
      </trkpt>
      <trkpt lat="47.5459" lon="6.73079">
        <ele>417</ele>
        <time>2016-08-24T15:42:15.000Z</time>
      </trkpt>
      <trkpt lat="47.54592" lon="6.73078">
        <ele>416</ele>
        <time>2016-08-24T15:42:16.000Z</time>
      </trkpt>
      <trkpt lat="47.54595" lon="6.73077">
        <ele>416</ele>
        <time>2016-08-24T15:42:17.000Z</time>
      </trkpt>
      <trkpt lat="47.54599" lon="6.73077">
        <ele>416</ele>
        <time>2016-08-24T15:42:18.000Z</time>
      </trkpt>
      <trkpt lat="47.54602" lon="6.73077">
        <ele>416</ele>
        <time>2016-08-24T15:42:19.000Z</time>
      </trkpt>
      <trkpt lat="47.54605" lon="6.73076">
        <ele>415</ele>
        <time>2016-08-24T15:42:20.000Z</time>
      </trkpt>
      <trkpt lat="47.54607" lon="6.73076">
        <ele>415</ele>
        <time>2016-08-24T15:42:21.000Z</time>
      </trkpt>
      <trkpt lat="47.5461" lon="6.73076">
        <ele>415</ele>
        <time>2016-08-24T15:42:22.000Z</time>
      </trkpt>
      <trkpt lat="47.54612" lon="6.73075">
        <ele>415</ele>
        <time>2016-08-24T15:42:23.000Z</time>
      </trkpt>
      <trkpt lat="47.54614" lon="6.73075">
        <ele>415</ele>
        <time>2016-08-24T15:42:24.000Z</time>
      </trkpt>
      <trkpt lat="47.54618" lon="6.73075">
        <ele>414</ele>
        <time>2016-08-24T15:42:26.000Z</time>
      </trkpt>
      <trkpt lat="47.5462" lon="6.73075">
        <ele>414</ele>
        <time>2016-08-24T15:42:27.000Z</time>
      </trkpt>
      <trkpt lat="47.54624" lon="6.73076">
        <ele>414</ele>
        <time>2016-08-24T15:42:29.000Z</time>
      </trkpt>
      <trkpt lat="47.54627" lon="6.73077">
        <ele>414</ele>
        <time>2016-08-24T15:42:30.000Z</time>
      </trkpt>
      <trkpt lat="47.54629" lon="6.73078">
        <ele>414</ele>
        <time>2016-08-24T15:42:31.000Z</time>
      </trkpt>
      <trkpt lat="47.54631" lon="6.7308">
        <ele>414</ele>
        <time>2016-08-24T15:42:32.000Z</time>
      </trkpt>
      <trkpt lat="47.54634" lon="6.73081">
        <ele>414</ele>
        <time>2016-08-24T15:42:33.000Z</time>
      </trkpt>
      <trkpt lat="47.54636" lon="6.73082">
        <ele>414</ele>
        <time>2016-08-24T15:42:34.000Z</time>
      </trkpt>
      <trkpt lat="47.54639" lon="6.73083">
        <ele>413</ele>
        <time>2016-08-24T15:42:35.000Z</time>
      </trkpt>
      <trkpt lat="47.54641" lon="6.73085">
        <ele>415</ele>
        <time>2016-08-24T15:42:36.000Z</time>
      </trkpt>
      <trkpt lat="47.54644" lon="6.73086">
        <ele>414</ele>
        <time>2016-08-24T15:42:37.000Z</time>
      </trkpt>
      <trkpt lat="47.54648" lon="6.73087">
        <ele>414</ele>
        <time>2016-08-24T15:42:38.000Z</time>
      </trkpt>
      <trkpt lat="47.54651" lon="6.73087">
        <ele>414</ele>
        <time>2016-08-24T15:42:39.000Z</time>
      </trkpt>
      <trkpt lat="47.54654" lon="6.73088">
        <ele>414</ele>
        <time>2016-08-24T15:42:40.000Z</time>
      </trkpt>
      <trkpt lat="47.54657" lon="6.73089">
        <ele>413</ele>
        <time>2016-08-24T15:42:41.000Z</time>
      </trkpt>
      <trkpt lat="47.5466" lon="6.73089">
        <ele>413</ele>
        <time>2016-08-24T15:42:42.000Z</time>
      </trkpt>
      <trkpt lat="47.54663" lon="6.7309">
        <ele>413</ele>
        <time>2016-08-24T15:42:43.000Z</time>
      </trkpt>
      <trkpt lat="47.54666" lon="6.73092">
        <ele>413</ele>
        <time>2016-08-24T15:42:44.000Z</time>
      </trkpt>
      <trkpt lat="47.54669" lon="6.73095">
        <ele>411</ele>
        <time>2016-08-24T15:42:45.000Z</time>
      </trkpt>
      <trkpt lat="47.54673" lon="6.73098">
        <ele>411</ele>
        <time>2016-08-24T15:42:46.000Z</time>
      </trkpt>
      <trkpt lat="47.54677" lon="6.73101">
        <ele>411</ele>
        <time>2016-08-24T15:42:47.000Z</time>
      </trkpt>
      <trkpt lat="47.54681" lon="6.73103">
        <ele>411</ele>
        <time>2016-08-24T15:42:48.000Z</time>
      </trkpt>
      <trkpt lat="47.54685" lon="6.73105">
        <ele>411</ele>
        <time>2016-08-24T15:42:49.000Z</time>
      </trkpt>
      <trkpt lat="47.54689" lon="6.73106">
        <ele>411</ele>
        <time>2016-08-24T15:42:50.000Z</time>
      </trkpt>
      <trkpt lat="47.54694" lon="6.73107">
        <ele>410</ele>
        <time>2016-08-24T15:42:51.000Z</time>
      </trkpt>
      <trkpt lat="47.54698" lon="6.73108">
        <ele>410</ele>
        <time>2016-08-24T15:42:52.000Z</time>
      </trkpt>
      <trkpt lat="47.54703" lon="6.73109">
        <ele>410</ele>
        <time>2016-08-24T15:42:53.000Z</time>
      </trkpt>
      <trkpt lat="47.54708" lon="6.7311">
        <ele>410</ele>
        <time>2016-08-24T15:42:54.000Z</time>
      </trkpt>
      <trkpt lat="47.54713" lon="6.73111">
        <ele>410</ele>
        <time>2016-08-24T15:42:55.000Z</time>
      </trkpt>
      <trkpt lat="47.54718" lon="6.73113">
        <ele>409</ele>
        <time>2016-08-24T15:42:56.000Z</time>
      </trkpt>
      <trkpt lat="47.54722" lon="6.73114">
        <ele>409</ele>
        <time>2016-08-24T15:42:57.000Z</time>
      </trkpt>
      <trkpt lat="47.54727" lon="6.73115">
        <ele>409</ele>
        <time>2016-08-24T15:42:58.000Z</time>
      </trkpt>
      <trkpt lat="47.54731" lon="6.73117">
        <ele>409</ele>
        <time>2016-08-24T15:42:59.000Z</time>
      </trkpt>
      <trkpt lat="47.54736" lon="6.73119">
        <ele>409</ele>
        <time>2016-08-24T15:43:00.000Z</time>
      </trkpt>
      <trkpt lat="47.5474" lon="6.73121">
        <ele>409</ele>
        <time>2016-08-24T15:43:01.000Z</time>
      </trkpt>
      <trkpt lat="47.54744" lon="6.73123">
        <ele>409</ele>
        <time>2016-08-24T15:43:02.000Z</time>
      </trkpt>
      <trkpt lat="47.54749" lon="6.73125">
        <ele>409</ele>
        <time>2016-08-24T15:43:03.000Z</time>
      </trkpt>
      <trkpt lat="47.54753" lon="6.73127">
        <ele>403</ele>
        <time>2016-08-24T15:43:04.000Z</time>
      </trkpt>
      <trkpt lat="47.54757" lon="6.73129">
        <ele>403</ele>
        <time>2016-08-24T15:43:05.000Z</time>
      </trkpt>
      <trkpt lat="47.54761" lon="6.73132">
        <ele>403</ele>
        <time>2016-08-24T15:43:06.000Z</time>
      </trkpt>
      <trkpt lat="47.54765" lon="6.73134">
        <ele>403</ele>
        <time>2016-08-24T15:43:07.000Z</time>
      </trkpt>
      <trkpt lat="47.5477" lon="6.73137">
        <ele>403</ele>
        <time>2016-08-24T15:43:08.000Z</time>
      </trkpt>
      <trkpt lat="47.54774" lon="6.73139">
        <ele>403</ele>
        <time>2016-08-24T15:43:09.000Z</time>
      </trkpt>
      <trkpt lat="47.54778" lon="6.73141">
        <ele>403</ele>
        <time>2016-08-24T15:43:10.000Z</time>
      </trkpt>
      <trkpt lat="47.54782" lon="6.73143">
        <ele>402</ele>
        <time>2016-08-24T15:43:11.000Z</time>
      </trkpt>
      <trkpt lat="47.54787" lon="6.73144">
        <ele>402</ele>
        <time>2016-08-24T15:43:12.000Z</time>
      </trkpt>
      <trkpt lat="47.54794" lon="6.73143">
        <ele>401</ele>
        <time>2016-08-24T15:43:13.000Z</time>
      </trkpt>
      <trkpt lat="47.54799" lon="6.73145">
        <ele>401</ele>
        <time>2016-08-24T15:43:14.000Z</time>
      </trkpt>
      <trkpt lat="47.54804" lon="6.73146">
        <ele>401</ele>
        <time>2016-08-24T15:43:15.000Z</time>
      </trkpt>
      <trkpt lat="47.54809" lon="6.73148">
        <ele>400</ele>
        <time>2016-08-24T15:43:16.000Z</time>
      </trkpt>
      <trkpt lat="47.54814" lon="6.73149">
        <ele>400</ele>
        <time>2016-08-24T15:43:17.000Z</time>
      </trkpt>
      <trkpt lat="47.54819" lon="6.7315">
        <ele>399</ele>
        <time>2016-08-24T15:43:18.000Z</time>
      </trkpt>
      <trkpt lat="47.54825" lon="6.73151">
        <ele>399</ele>
        <time>2016-08-24T15:43:19.000Z</time>
      </trkpt>
      <trkpt lat="47.54831" lon="6.73151">
        <ele>399</ele>
        <time>2016-08-24T15:43:20.000Z</time>
      </trkpt>
      <trkpt lat="47.54836" lon="6.73152">
        <ele>394</ele>
        <time>2016-08-24T15:43:21.000Z</time>
      </trkpt>
      <trkpt lat="47.54841" lon="6.73152">
        <ele>394</ele>
        <time>2016-08-24T15:43:22.000Z</time>
      </trkpt>
      <trkpt lat="47.54847" lon="6.73152">
        <ele>393</ele>
        <time>2016-08-24T15:43:23.000Z</time>
      </trkpt>
      <trkpt lat="47.54852" lon="6.73153">
        <ele>393</ele>
        <time>2016-08-24T15:43:24.000Z</time>
      </trkpt>
      <trkpt lat="47.54857" lon="6.73153">
        <ele>392</ele>
        <time>2016-08-24T15:43:25.000Z</time>
      </trkpt>
      <trkpt lat="47.54862" lon="6.73153">
        <ele>392</ele>
        <time>2016-08-24T15:43:26.000Z</time>
      </trkpt>
      <trkpt lat="47.54868" lon="6.73153">
        <ele>391</ele>
        <time>2016-08-24T15:43:27.000Z</time>
      </trkpt>
      <trkpt lat="47.54873" lon="6.73154">
        <ele>391</ele>
        <time>2016-08-24T15:43:28.000Z</time>
      </trkpt>
      <trkpt lat="47.54879" lon="6.73156">
        <ele>390</ele>
        <time>2016-08-24T15:43:29.000Z</time>
      </trkpt>
      <trkpt lat="47.54885" lon="6.73157">
        <ele>390</ele>
        <time>2016-08-24T15:43:30.000Z</time>
      </trkpt>
      <trkpt lat="47.5489" lon="6.73158">
        <ele>390</ele>
        <time>2016-08-24T15:43:31.000Z</time>
      </trkpt>
      <trkpt lat="47.54896" lon="6.73159">
        <ele>389</ele>
        <time>2016-08-24T15:43:32.000Z</time>
      </trkpt>
      <trkpt lat="47.54901" lon="6.7316">
        <ele>389</ele>
        <time>2016-08-24T15:43:33.000Z</time>
      </trkpt>
      <trkpt lat="47.54905" lon="6.73162">
        <ele>388</ele>
        <time>2016-08-24T15:43:34.000Z</time>
      </trkpt>
      <trkpt lat="47.54911" lon="6.73165">
        <ele>388</ele>
        <time>2016-08-24T15:43:35.000Z</time>
      </trkpt>
      <trkpt lat="47.54916" lon="6.73169">
        <ele>388</ele>
        <time>2016-08-24T15:43:36.000Z</time>
      </trkpt>
      <trkpt lat="47.5492" lon="6.73174">
        <ele>386</ele>
        <time>2016-08-24T15:43:37.000Z</time>
      </trkpt>
      <trkpt lat="47.54924" lon="6.73178">
        <ele>385</ele>
        <time>2016-08-24T15:43:38.000Z</time>
      </trkpt>
      <trkpt lat="47.54929" lon="6.73182">
        <ele>384</ele>
        <time>2016-08-24T15:43:39.000Z</time>
      </trkpt>
      <trkpt lat="47.54934" lon="6.73187">
        <ele>384</ele>
        <time>2016-08-24T15:43:40.000Z</time>
      </trkpt>
      <trkpt lat="47.54938" lon="6.73192">
        <ele>383</ele>
        <time>2016-08-24T15:43:41.000Z</time>
      </trkpt>
      <trkpt lat="47.54944" lon="6.73196">
        <ele>383</ele>
        <time>2016-08-24T15:43:42.000Z</time>
      </trkpt>
      <trkpt lat="47.54949" lon="6.732">
        <ele>383</ele>
        <time>2016-08-24T15:43:43.000Z</time>
      </trkpt>
      <trkpt lat="47.54954" lon="6.73204">
        <ele>382</ele>
        <time>2016-08-24T15:43:44.000Z</time>
      </trkpt>
      <trkpt lat="47.54959" lon="6.7321">
        <ele>382</ele>
        <time>2016-08-24T15:43:45.000Z</time>
      </trkpt>
      <trkpt lat="47.54963" lon="6.73216">
        <ele>382</ele>
        <time>2016-08-24T15:43:46.000Z</time>
      </trkpt>
      <trkpt lat="47.54967" lon="6.73223">
        <ele>382</ele>
        <time>2016-08-24T15:43:47.000Z</time>
      </trkpt>
      <trkpt lat="47.54969" lon="6.73231">
        <ele>381</ele>
        <time>2016-08-24T15:43:48.000Z</time>
      </trkpt>
      <trkpt lat="47.54972" lon="6.73238">
        <ele>381</ele>
        <time>2016-08-24T15:43:49.000Z</time>
      </trkpt>
      <trkpt lat="47.54973" lon="6.73246">
        <ele>381</ele>
        <time>2016-08-24T15:43:50.000Z</time>
      </trkpt>
      <trkpt lat="47.54976" lon="6.73252">
        <ele>382</ele>
        <time>2016-08-24T15:43:51.000Z</time>
      </trkpt>
      <trkpt lat="47.54979" lon="6.73257">
        <ele>381</ele>
        <time>2016-08-24T15:43:52.000Z</time>
      </trkpt>
      <trkpt lat="47.54982" lon="6.7326">
        <ele>381</ele>
        <time>2016-08-24T15:43:53.000Z</time>
      </trkpt>
      <trkpt lat="47.54986" lon="6.73261">
        <ele>381</ele>
        <time>2016-08-24T15:43:54.000Z</time>
      </trkpt>
      <trkpt lat="47.54991" lon="6.7326">
        <ele>380</ele>
        <time>2016-08-24T15:43:55.000Z</time>
      </trkpt>
      <trkpt lat="47.54996" lon="6.73256">
        <ele>379</ele>
        <time>2016-08-24T15:43:56.000Z</time>
      </trkpt>
      <trkpt lat="47.54999" lon="6.73251">
        <ele>378</ele>
        <time>2016-08-24T15:43:57.000Z</time>
      </trkpt>
      <trkpt lat="47.55003" lon="6.73245">
        <ele>378</ele>
        <time>2016-08-24T15:43:58.000Z</time>
      </trkpt>
      <trkpt lat="47.55008" lon="6.7324">
        <ele>377</ele>
        <time>2016-08-24T15:43:59.000Z</time>
      </trkpt>
      <trkpt lat="47.55012" lon="6.73235">
        <ele>377</ele>
        <time>2016-08-24T15:44:00.000Z</time>
      </trkpt>
      <trkpt lat="47.55017" lon="6.73231">
        <ele>377</ele>
        <time>2016-08-24T15:44:01.000Z</time>
      </trkpt>
      <trkpt lat="47.55022" lon="6.73228">
        <ele>377</ele>
        <time>2016-08-24T15:44:02.000Z</time>
      </trkpt>
      <trkpt lat="47.55028" lon="6.73226">
        <ele>376</ele>
        <time>2016-08-24T15:44:03.000Z</time>
      </trkpt>
      <trkpt lat="47.55034" lon="6.73225">
        <ele>376</ele>
        <time>2016-08-24T15:44:04.000Z</time>
      </trkpt>
      <trkpt lat="47.55039" lon="6.73223">
        <ele>376</ele>
        <time>2016-08-24T15:44:05.000Z</time>
      </trkpt>
      <trkpt lat="47.55043" lon="6.73221">
        <ele>376</ele>
        <time>2016-08-24T15:44:06.000Z</time>
      </trkpt>
      <trkpt lat="47.55047" lon="6.73216">
        <ele>376</ele>
        <time>2016-08-24T15:44:07.000Z</time>
      </trkpt>
      <trkpt lat="47.55048" lon="6.73208">
        <ele>376</ele>
        <time>2016-08-24T15:44:08.000Z</time>
      </trkpt>
      <trkpt lat="47.55048" lon="6.73198">
        <ele>376</ele>
        <time>2016-08-24T15:44:09.000Z</time>
      </trkpt>
      <trkpt lat="47.55049" lon="6.73189">
        <ele>376</ele>
        <time>2016-08-24T15:44:10.000Z</time>
      </trkpt>
      <trkpt lat="47.55049" lon="6.7318">
        <ele>375</ele>
        <time>2016-08-24T15:44:11.000Z</time>
      </trkpt>
      <trkpt lat="47.55049" lon="6.73171">
        <ele>375</ele>
        <time>2016-08-24T15:44:12.000Z</time>
      </trkpt>
      <trkpt lat="47.55048" lon="6.73162">
        <ele>374</ele>
        <time>2016-08-24T15:44:13.000Z</time>
      </trkpt>
      <trkpt lat="47.55048" lon="6.73154">
        <ele>373</ele>
        <time>2016-08-24T15:44:14.000Z</time>
      </trkpt>
      <trkpt lat="47.55048" lon="6.73144">
        <ele>373</ele>
        <time>2016-08-24T15:44:15.000Z</time>
      </trkpt>
      <trkpt lat="47.55047" lon="6.73135">
        <ele>373</ele>
        <time>2016-08-24T15:44:16.000Z</time>
      </trkpt>
      <trkpt lat="47.55047" lon="6.73126">
        <ele>373</ele>
        <time>2016-08-24T15:44:17.000Z</time>
      </trkpt>
      <trkpt lat="47.55047" lon="6.73117">
        <ele>373</ele>
        <time>2016-08-24T15:44:18.000Z</time>
      </trkpt>
      <trkpt lat="47.55046" lon="6.73108">
        <ele>373</ele>
        <time>2016-08-24T15:44:19.000Z</time>
      </trkpt>
      <trkpt lat="47.55045" lon="6.731">
        <ele>373</ele>
        <time>2016-08-24T15:44:20.000Z</time>
      </trkpt>
      <trkpt lat="47.55044" lon="6.7309">
        <ele>373</ele>
        <time>2016-08-24T15:44:21.000Z</time>
      </trkpt>
      <trkpt lat="47.55043" lon="6.73081">
        <ele>371</ele>
        <time>2016-08-24T15:44:22.000Z</time>
      </trkpt>
      <trkpt lat="47.55041" lon="6.73072">
        <ele>371</ele>
        <time>2016-08-24T15:44:23.000Z</time>
      </trkpt>
      <trkpt lat="47.55039" lon="6.73064">
        <ele>371</ele>
        <time>2016-08-24T15:44:24.000Z</time>
      </trkpt>
      <trkpt lat="47.55036" lon="6.73056">
        <ele>371</ele>
        <time>2016-08-24T15:44:25.000Z</time>
      </trkpt>
      <trkpt lat="47.55035" lon="6.73047">
        <ele>371</ele>
        <time>2016-08-24T15:44:26.000Z</time>
      </trkpt>
      <trkpt lat="47.55032" lon="6.73039">
        <ele>371</ele>
        <time>2016-08-24T15:44:27.000Z</time>
      </trkpt>
      <trkpt lat="47.55031" lon="6.7303">
        <ele>371</ele>
        <time>2016-08-24T15:44:28.000Z</time>
      </trkpt>
      <trkpt lat="47.55028" lon="6.73022">
        <ele>371</ele>
        <time>2016-08-24T15:44:29.000Z</time>
      </trkpt>
      <trkpt lat="47.55026" lon="6.73015">
        <ele>371</ele>
        <time>2016-08-24T15:44:30.000Z</time>
      </trkpt>
      <trkpt lat="47.55024" lon="6.73007">
        <ele>371</ele>
        <time>2016-08-24T15:44:31.000Z</time>
      </trkpt>
      <trkpt lat="47.55022" lon="6.73">
        <ele>370</ele>
        <time>2016-08-24T15:44:32.000Z</time>
      </trkpt>
      <trkpt lat="47.55019" lon="6.72992">
        <ele>370</ele>
        <time>2016-08-24T15:44:33.000Z</time>
      </trkpt>
      <trkpt lat="47.55018" lon="6.72984">
        <ele>370</ele>
        <time>2016-08-24T15:44:34.000Z</time>
      </trkpt>
      <trkpt lat="47.55015" lon="6.72976">
        <ele>370</ele>
        <time>2016-08-24T15:44:35.000Z</time>
      </trkpt>
      <trkpt lat="47.55013" lon="6.72968">
        <ele>369</ele>
        <time>2016-08-24T15:44:36.000Z</time>
      </trkpt>
      <trkpt lat="47.5501" lon="6.7296">
        <ele>369</ele>
        <time>2016-08-24T15:44:37.000Z</time>
      </trkpt>
      <trkpt lat="47.55008" lon="6.72953">
        <ele>369</ele>
        <time>2016-08-24T15:44:38.000Z</time>
      </trkpt>
      <trkpt lat="47.55005" lon="6.72945">
        <ele>369</ele>
        <time>2016-08-24T15:44:39.000Z</time>
      </trkpt>
      <trkpt lat="47.55005" lon="6.72936">
        <ele>368</ele>
        <time>2016-08-24T15:44:40.000Z</time>
      </trkpt>
      <trkpt lat="47.55006" lon="6.72928">
        <ele>368</ele>
        <time>2016-08-24T15:44:41.000Z</time>
      </trkpt>
      <trkpt lat="47.55008" lon="6.72921">
        <ele>368</ele>
        <time>2016-08-24T15:44:42.000Z</time>
      </trkpt>
      <trkpt lat="47.55011" lon="6.72912">
        <ele>367</ele>
        <time>2016-08-24T15:44:43.000Z</time>
      </trkpt>
      <trkpt lat="47.55013" lon="6.72903">
        <ele>367</ele>
        <time>2016-08-24T15:44:44.000Z</time>
      </trkpt>
      <trkpt lat="47.55015" lon="6.72894">
        <ele>367</ele>
        <time>2016-08-24T15:44:45.000Z</time>
      </trkpt>
      <trkpt lat="47.55016" lon="6.72884">
        <ele>366</ele>
        <time>2016-08-24T15:44:46.000Z</time>
      </trkpt>
      <trkpt lat="47.55017" lon="6.72875">
        <ele>366</ele>
        <time>2016-08-24T15:44:47.000Z</time>
      </trkpt>
      <trkpt lat="47.55017" lon="6.72865">
        <ele>366</ele>
        <time>2016-08-24T15:44:48.000Z</time>
      </trkpt>
      <trkpt lat="47.55016" lon="6.72855">
        <ele>366</ele>
        <time>2016-08-24T15:44:49.000Z</time>
      </trkpt>
      <trkpt lat="47.55015" lon="6.72845">
        <ele>366</ele>
        <time>2016-08-24T15:44:50.000Z</time>
      </trkpt>
      <trkpt lat="47.55013" lon="6.72835">
        <ele>365</ele>
        <time>2016-08-24T15:44:51.000Z</time>
      </trkpt>
      <trkpt lat="47.55009" lon="6.72826">
        <ele>365</ele>
        <time>2016-08-24T15:44:52.000Z</time>
      </trkpt>
      <trkpt lat="47.55006" lon="6.72816">
        <ele>365</ele>
        <time>2016-08-24T15:44:53.000Z</time>
      </trkpt>
      <trkpt lat="47.55003" lon="6.72807">
        <ele>364</ele>
        <time>2016-08-24T15:44:54.000Z</time>
      </trkpt>
      <trkpt lat="47.55" lon="6.72797">
        <ele>365</ele>
        <time>2016-08-24T15:44:55.000Z</time>
      </trkpt>
      <trkpt lat="47.54997" lon="6.72787">
        <ele>364</ele>
        <time>2016-08-24T15:44:56.000Z</time>
      </trkpt>
      <trkpt lat="47.54995" lon="6.72777">
        <ele>364</ele>
        <time>2016-08-24T15:44:57.000Z</time>
      </trkpt>
      <trkpt lat="47.54994" lon="6.72767">
        <ele>364</ele>
        <time>2016-08-24T15:44:58.000Z</time>
      </trkpt>
      <trkpt lat="47.54993" lon="6.72757">
        <ele>364</ele>
        <time>2016-08-24T15:44:59.000Z</time>
      </trkpt>
      <trkpt lat="47.54993" lon="6.72747">
        <ele>363</ele>
        <time>2016-08-24T15:45:00.000Z</time>
      </trkpt>
      <trkpt lat="47.54992" lon="6.72738">
        <ele>363</ele>
        <time>2016-08-24T15:45:01.000Z</time>
      </trkpt>
      <trkpt lat="47.54991" lon="6.72729">
        <ele>363</ele>
        <time>2016-08-24T15:45:02.000Z</time>
      </trkpt>
      <trkpt lat="47.54986" lon="6.72721">
        <ele>363</ele>
        <time>2016-08-24T15:45:03.000Z</time>
      </trkpt>
      <trkpt lat="47.54983" lon="6.72714">
        <ele>363</ele>
        <time>2016-08-24T15:45:04.000Z</time>
      </trkpt>
      <trkpt lat="47.5498" lon="6.72707">
        <ele>363</ele>
        <time>2016-08-24T15:45:05.000Z</time>
      </trkpt>
      <trkpt lat="47.54977" lon="6.72701">
        <ele>363</ele>
        <time>2016-08-24T15:45:06.000Z</time>
      </trkpt>
      <trkpt lat="47.54974" lon="6.72695">
        <ele>363</ele>
        <time>2016-08-24T15:45:07.000Z</time>
      </trkpt>
      <trkpt lat="47.54971" lon="6.7269">
        <ele>363</ele>
        <time>2016-08-24T15:45:08.000Z</time>
      </trkpt>
      <trkpt lat="47.54967" lon="6.72686">
        <ele>363</ele>
        <time>2016-08-24T15:45:09.000Z</time>
      </trkpt>
      <trkpt lat="47.54965" lon="6.72682">
        <ele>363</ele>
        <time>2016-08-24T15:45:10.000Z</time>
      </trkpt>
      <trkpt lat="47.54963" lon="6.72677">
        <ele>363</ele>
        <time>2016-08-24T15:45:11.000Z</time>
      </trkpt>
      <trkpt lat="47.5496" lon="6.72673">
        <ele>363</ele>
        <time>2016-08-24T15:45:12.000Z</time>
      </trkpt>
      <trkpt lat="47.54958" lon="6.72669">
        <ele>363</ele>
        <time>2016-08-24T15:45:13.000Z</time>
      </trkpt>
      <trkpt lat="47.54956" lon="6.72664">
        <ele>363</ele>
        <time>2016-08-24T15:45:14.000Z</time>
      </trkpt>
      <trkpt lat="47.54954" lon="6.7266">
        <ele>363</ele>
        <time>2016-08-24T15:45:15.000Z</time>
      </trkpt>
      <trkpt lat="47.54952" lon="6.72657">
        <ele>363</ele>
        <time>2016-08-24T15:45:16.000Z</time>
      </trkpt>
      <trkpt lat="47.5495" lon="6.72654">
        <ele>363</ele>
        <time>2016-08-24T15:45:17.000Z</time>
      </trkpt>
      <trkpt lat="47.54948" lon="6.72649">
        <ele>363</ele>
        <time>2016-08-24T15:45:18.000Z</time>
      </trkpt>
      <trkpt lat="47.54946" lon="6.72645">
        <ele>363</ele>
        <time>2016-08-24T15:45:19.000Z</time>
      </trkpt>
      <trkpt lat="47.54944" lon="6.72641">
        <ele>364</ele>
        <time>2016-08-24T15:45:20.000Z</time>
      </trkpt>
      <trkpt lat="47.54941" lon="6.72637">
        <ele>364</ele>
        <time>2016-08-24T15:45:21.000Z</time>
      </trkpt>
      <trkpt lat="47.54939" lon="6.72633">
        <ele>364</ele>
        <time>2016-08-24T15:45:22.000Z</time>
      </trkpt>
      <trkpt lat="47.54937" lon="6.72629">
        <ele>364</ele>
        <time>2016-08-24T15:45:23.000Z</time>
      </trkpt>
      <trkpt lat="47.54935" lon="6.72625">
        <ele>364</ele>
        <time>2016-08-24T15:45:24.000Z</time>
      </trkpt>
      <trkpt lat="47.54933" lon="6.72621">
        <ele>364</ele>
        <time>2016-08-24T15:45:25.000Z</time>
      </trkpt>
      <trkpt lat="47.54931" lon="6.72618">
        <ele>364</ele>
        <time>2016-08-24T15:45:26.000Z</time>
      </trkpt>
      <trkpt lat="47.54928" lon="6.72614">
        <ele>364</ele>
        <time>2016-08-24T15:45:27.000Z</time>
      </trkpt>
      <trkpt lat="47.54926" lon="6.7261">
        <ele>364</ele>
        <time>2016-08-24T15:45:28.000Z</time>
      </trkpt>
      <trkpt lat="47.54924" lon="6.72606">
        <ele>364</ele>
        <time>2016-08-24T15:45:29.000Z</time>
      </trkpt>
      <trkpt lat="47.54922" lon="6.72602">
        <ele>364</ele>
        <time>2016-08-24T15:45:30.000Z</time>
      </trkpt>
      <trkpt lat="47.5492" lon="6.72599">
        <ele>364</ele>
        <time>2016-08-24T15:45:31.000Z</time>
      </trkpt>
      <trkpt lat="47.54918" lon="6.72595">
        <ele>364</ele>
        <time>2016-08-24T15:45:32.000Z</time>
      </trkpt>
      <trkpt lat="47.54917" lon="6.72591">
        <ele>364</ele>
        <time>2016-08-24T15:45:33.000Z</time>
      </trkpt>
      <trkpt lat="47.54916" lon="6.72588">
        <ele>364</ele>
        <time>2016-08-24T15:45:34.000Z</time>
      </trkpt>
      <trkpt lat="47.54915" lon="6.72584">
        <ele>364</ele>
        <time>2016-08-24T15:45:35.000Z</time>
      </trkpt>
      <trkpt lat="47.54915" lon="6.72579">
        <ele>364</ele>
        <time>2016-08-24T15:45:36.000Z</time>
      </trkpt>
      <trkpt lat="47.54916" lon="6.72575">
        <ele>364</ele>
        <time>2016-08-24T15:45:37.000Z</time>
      </trkpt>
      <trkpt lat="47.54917" lon="6.72571">
        <ele>365</ele>
        <time>2016-08-24T15:45:38.000Z</time>
      </trkpt>
      <trkpt lat="47.54919" lon="6.72566">
        <ele>365</ele>
        <time>2016-08-24T15:45:39.000Z</time>
      </trkpt>
      <trkpt lat="47.54921" lon="6.72563">
        <ele>365</ele>
        <time>2016-08-24T15:45:40.000Z</time>
      </trkpt>
      <trkpt lat="47.54923" lon="6.7256">
        <ele>366</ele>
        <time>2016-08-24T15:45:41.000Z</time>
      </trkpt>
      <trkpt lat="47.54925" lon="6.72558">
        <ele>366</ele>
        <time>2016-08-24T15:45:42.000Z</time>
      </trkpt>
      <trkpt lat="47.54928" lon="6.72555">
        <ele>366</ele>
        <time>2016-08-24T15:45:43.000Z</time>
      </trkpt>
      <trkpt lat="47.5493" lon="6.72552">
        <ele>366</ele>
        <time>2016-08-24T15:45:44.000Z</time>
      </trkpt>
      <trkpt lat="47.54932" lon="6.7255">
        <ele>366</ele>
        <time>2016-08-24T15:45:45.000Z</time>
      </trkpt>
      <trkpt lat="47.54934" lon="6.72547">
        <ele>366</ele>
        <time>2016-08-24T15:45:46.000Z</time>
      </trkpt>
      <trkpt lat="47.54937" lon="6.72545">
        <ele>366</ele>
        <time>2016-08-24T15:45:47.000Z</time>
      </trkpt>
      <trkpt lat="47.54938" lon="6.72542">
        <ele>366</ele>
        <time>2016-08-24T15:45:48.000Z</time>
      </trkpt>
      <trkpt lat="47.5494" lon="6.7254">
        <ele>366</ele>
        <time>2016-08-24T15:45:49.000Z</time>
      </trkpt>
      <trkpt lat="47.54942" lon="6.72537">
        <ele>366</ele>
        <time>2016-08-24T15:45:50.000Z</time>
      </trkpt>
      <trkpt lat="47.54944" lon="6.72535">
        <ele>366</ele>
        <time>2016-08-24T15:45:51.000Z</time>
      </trkpt>
      <trkpt lat="47.54946" lon="6.72532">
        <ele>366</ele>
        <time>2016-08-24T15:45:52.000Z</time>
      </trkpt>
      <trkpt lat="47.54948" lon="6.72531">
        <ele>366</ele>
        <time>2016-08-24T15:45:53.000Z</time>
      </trkpt>
      <trkpt lat="47.54952" lon="6.72527">
        <ele>367</ele>
        <time>2016-08-24T15:45:55.000Z</time>
      </trkpt>
      <trkpt lat="47.54954" lon="6.72525">
        <ele>367</ele>
        <time>2016-08-24T15:45:56.000Z</time>
      </trkpt>
      <trkpt lat="47.54957" lon="6.72521">
        <ele>367</ele>
        <time>2016-08-24T15:45:58.000Z</time>
      </trkpt>
      <trkpt lat="47.54958" lon="6.72518">
        <ele>367</ele>
        <time>2016-08-24T15:45:59.000Z</time>
      </trkpt>
      <trkpt lat="47.5496" lon="6.72515">
        <ele>367</ele>
        <time>2016-08-24T15:46:00.000Z</time>
      </trkpt>
      <trkpt lat="47.54962" lon="6.72512">
        <ele>367</ele>
        <time>2016-08-24T15:46:01.000Z</time>
      </trkpt>
      <trkpt lat="47.54964" lon="6.7251">
        <ele>367</ele>
        <time>2016-08-24T15:46:02.000Z</time>
      </trkpt>
      <trkpt lat="47.54965" lon="6.72507">
        <ele>367</ele>
        <time>2016-08-24T15:46:03.000Z</time>
      </trkpt>
      <trkpt lat="47.54967" lon="6.72505">
        <ele>367</ele>
        <time>2016-08-24T15:46:04.000Z</time>
      </trkpt>
      <trkpt lat="47.54969" lon="6.72503">
        <ele>367</ele>
        <time>2016-08-24T15:46:05.000Z</time>
      </trkpt>
      <trkpt lat="47.54972" lon="6.72498">
        <ele>368</ele>
        <time>2016-08-24T15:46:07.000Z</time>
      </trkpt>
      <trkpt lat="47.54973" lon="6.72496">
        <ele>368</ele>
        <time>2016-08-24T15:46:08.000Z</time>
      </trkpt>
      <trkpt lat="47.54977" lon="6.72492">
        <ele>368</ele>
        <time>2016-08-24T15:46:10.000Z</time>
      </trkpt>
      <trkpt lat="47.54978" lon="6.72489">
        <ele>368</ele>
        <time>2016-08-24T15:46:11.000Z</time>
      </trkpt>
      <trkpt lat="47.54982" lon="6.72486">
        <ele>369</ele>
        <time>2016-08-24T15:46:13.000Z</time>
      </trkpt>
      <trkpt lat="47.54983" lon="6.72483">
        <ele>369</ele>
        <time>2016-08-24T15:46:14.000Z</time>
      </trkpt>
      <trkpt lat="47.54985" lon="6.72481">
        <ele>369</ele>
        <time>2016-08-24T15:46:15.000Z</time>
      </trkpt>
      <trkpt lat="47.54987" lon="6.72478">
        <ele>369</ele>
        <time>2016-08-24T15:46:16.000Z</time>
      </trkpt>
      <trkpt lat="47.54989" lon="6.72475">
        <ele>369</ele>
        <time>2016-08-24T15:46:17.000Z</time>
      </trkpt>
      <trkpt lat="47.5499" lon="6.72473">
        <ele>369</ele>
        <time>2016-08-24T15:46:18.000Z</time>
      </trkpt>
      <trkpt lat="47.54992" lon="6.7247">
        <ele>369</ele>
        <time>2016-08-24T15:46:19.000Z</time>
      </trkpt>
      <trkpt lat="47.54994" lon="6.72468">
        <ele>369</ele>
        <time>2016-08-24T15:46:20.000Z</time>
      </trkpt>
      <trkpt lat="47.54995" lon="6.72465">
        <ele>369</ele>
        <time>2016-08-24T15:46:21.000Z</time>
      </trkpt>
      <trkpt lat="47.54996" lon="6.72462">
        <ele>369</ele>
        <time>2016-08-24T15:46:22.000Z</time>
      </trkpt>
      <trkpt lat="47.54998" lon="6.72459">
        <ele>369</ele>
        <time>2016-08-24T15:46:23.000Z</time>
      </trkpt>
      <trkpt lat="47.55" lon="6.72456">
        <ele>369</ele>
        <time>2016-08-24T15:46:24.000Z</time>
      </trkpt>
      <trkpt lat="47.55001" lon="6.72454">
        <ele>371</ele>
        <time>2016-08-24T15:46:25.000Z</time>
      </trkpt>
      <trkpt lat="47.55003" lon="6.72451">
        <ele>371</ele>
        <time>2016-08-24T15:46:26.000Z</time>
      </trkpt>
      <trkpt lat="47.55006" lon="6.72447">
        <ele>371</ele>
        <time>2016-08-24T15:46:28.000Z</time>
      </trkpt>
      <trkpt lat="47.55007" lon="6.72444">
        <ele>371</ele>
        <time>2016-08-24T15:46:29.000Z</time>
      </trkpt>
      <trkpt lat="47.55011" lon="6.7244">
        <ele>371</ele>
        <time>2016-08-24T15:46:31.000Z</time>
      </trkpt>
      <trkpt lat="47.55013" lon="6.72438">
        <ele>371</ele>
        <time>2016-08-24T15:46:32.000Z</time>
      </trkpt>
      <trkpt lat="47.55015" lon="6.72436">
        <ele>371</ele>
        <time>2016-08-24T15:46:33.000Z</time>
      </trkpt>
      <trkpt lat="47.55017" lon="6.72434">
        <ele>371</ele>
        <time>2016-08-24T15:46:34.000Z</time>
      </trkpt>
      <trkpt lat="47.55019" lon="6.72431">
        <ele>371</ele>
        <time>2016-08-24T15:46:35.000Z</time>
      </trkpt>
      <trkpt lat="47.55021" lon="6.72428">
        <ele>371</ele>
        <time>2016-08-24T15:46:36.000Z</time>
      </trkpt>
      <trkpt lat="47.55023" lon="6.72426">
        <ele>371</ele>
        <time>2016-08-24T15:46:37.000Z</time>
      </trkpt>
      <trkpt lat="47.55024" lon="6.72423">
        <ele>371</ele>
        <time>2016-08-24T15:46:38.000Z</time>
      </trkpt>
      <trkpt lat="47.55026" lon="6.7242">
        <ele>371</ele>
        <time>2016-08-24T15:46:39.000Z</time>
      </trkpt>
      <trkpt lat="47.55028" lon="6.72418">
        <ele>371</ele>
        <time>2016-08-24T15:46:40.000Z</time>
      </trkpt>
      <trkpt lat="47.5503" lon="6.72415">
        <ele>371</ele>
        <time>2016-08-24T15:46:41.000Z</time>
      </trkpt>
      <trkpt lat="47.55031" lon="6.72413">
        <ele>371</ele>
        <time>2016-08-24T15:46:42.000Z</time>
      </trkpt>
      <trkpt lat="47.55033" lon="6.72411">
        <ele>371</ele>
        <time>2016-08-24T15:46:43.000Z</time>
      </trkpt>
      <trkpt lat="47.55035" lon="6.72409">
        <ele>371</ele>
        <time>2016-08-24T15:46:44.000Z</time>
      </trkpt>
      <trkpt lat="47.55038" lon="6.72405">
        <ele>371</ele>
        <time>2016-08-24T15:46:46.000Z</time>
      </trkpt>
      <trkpt lat="47.55039" lon="6.72404">
        <ele>371</ele>
        <time>2016-08-24T15:46:47.000Z</time>
      </trkpt>
      <trkpt lat="47.55043" lon="6.724">
        <ele>371</ele>
        <time>2016-08-24T15:46:49.000Z</time>
      </trkpt>
      <trkpt lat="47.55044" lon="6.72397">
        <ele>371</ele>
        <time>2016-08-24T15:46:50.000Z</time>
      </trkpt>
      <trkpt lat="47.55046" lon="6.72394">
        <ele>371</ele>
        <time>2016-08-24T15:46:51.000Z</time>
      </trkpt>
      <trkpt lat="47.55048" lon="6.72392">
        <ele>371</ele>
        <time>2016-08-24T15:46:52.000Z</time>
      </trkpt>
      <trkpt lat="47.5505" lon="6.7239">
        <ele>371</ele>
        <time>2016-08-24T15:46:53.000Z</time>
      </trkpt>
      <trkpt lat="47.55051" lon="6.72387">
        <ele>371</ele>
        <time>2016-08-24T15:46:54.000Z</time>
      </trkpt>
      <trkpt lat="47.55053" lon="6.72384">
        <ele>371</ele>
        <time>2016-08-24T15:46:55.000Z</time>
      </trkpt>
      <trkpt lat="47.55055" lon="6.72381">
        <ele>371</ele>
        <time>2016-08-24T15:46:56.000Z</time>
      </trkpt>
      <trkpt lat="47.55057" lon="6.72378">
        <ele>371</ele>
        <time>2016-08-24T15:46:57.000Z</time>
      </trkpt>
      <trkpt lat="47.55059" lon="6.72376">
        <ele>371</ele>
        <time>2016-08-24T15:46:58.000Z</time>
      </trkpt>
      <trkpt lat="47.55061" lon="6.72373">
        <ele>371</ele>
        <time>2016-08-24T15:46:59.000Z</time>
      </trkpt>
      <trkpt lat="47.55063" lon="6.7237">
        <ele>371</ele>
        <time>2016-08-24T15:47:00.000Z</time>
      </trkpt>
      <trkpt lat="47.55065" lon="6.72367">
        <ele>371</ele>
        <time>2016-08-24T15:47:01.000Z</time>
      </trkpt>
      <trkpt lat="47.55067" lon="6.72363">
        <ele>370</ele>
        <time>2016-08-24T15:47:02.000Z</time>
      </trkpt>
      <trkpt lat="47.5507" lon="6.7236">
        <ele>370</ele>
        <time>2016-08-24T15:47:03.000Z</time>
      </trkpt>
      <trkpt lat="47.55072" lon="6.72357">
        <ele>370</ele>
        <time>2016-08-24T15:47:04.000Z</time>
      </trkpt>
      <trkpt lat="47.55075" lon="6.72354">
        <ele>370</ele>
        <time>2016-08-24T15:47:05.000Z</time>
      </trkpt>
      <trkpt lat="47.55077" lon="6.72352">
        <ele>370</ele>
        <time>2016-08-24T15:47:06.000Z</time>
      </trkpt>
      <trkpt lat="47.55079" lon="6.7235">
        <ele>370</ele>
        <time>2016-08-24T15:47:07.000Z</time>
      </trkpt>
      <trkpt lat="47.55082" lon="6.72348">
        <ele>370</ele>
        <time>2016-08-24T15:47:08.000Z</time>
      </trkpt>
      <trkpt lat="47.55084" lon="6.72346">
        <ele>370</ele>
        <time>2016-08-24T15:47:09.000Z</time>
      </trkpt>
      <trkpt lat="47.55087" lon="6.72343">
        <ele>370</ele>
        <time>2016-08-24T15:47:10.000Z</time>
      </trkpt>
      <trkpt lat="47.5509" lon="6.72341">
        <ele>370</ele>
        <time>2016-08-24T15:47:11.000Z</time>
      </trkpt>
      <trkpt lat="47.55093" lon="6.72338">
        <ele>370</ele>
        <time>2016-08-24T15:47:12.000Z</time>
      </trkpt>
      <trkpt lat="47.55096" lon="6.72335">
        <ele>370</ele>
        <time>2016-08-24T15:47:13.000Z</time>
      </trkpt>
      <trkpt lat="47.55099" lon="6.72333">
        <ele>369</ele>
        <time>2016-08-24T15:47:14.000Z</time>
      </trkpt>
      <trkpt lat="47.55102" lon="6.7233">
        <ele>369</ele>
        <time>2016-08-24T15:47:15.000Z</time>
      </trkpt>
      <trkpt lat="47.55108" lon="6.72325">
        <ele>369</ele>
        <time>2016-08-24T15:47:16.000Z</time>
      </trkpt>
      <trkpt lat="47.55111" lon="6.72321">
        <ele>368</ele>
        <time>2016-08-24T15:47:17.000Z</time>
      </trkpt>
      <trkpt lat="47.55116" lon="6.72317">
        <ele>368</ele>
        <time>2016-08-24T15:47:18.000Z</time>
      </trkpt>
      <trkpt lat="47.55121" lon="6.72313">
        <ele>368</ele>
        <time>2016-08-24T15:47:19.000Z</time>
      </trkpt>
      <trkpt lat="47.55126" lon="6.72309">
        <ele>368</ele>
        <time>2016-08-24T15:47:20.000Z</time>
      </trkpt>
      <trkpt lat="47.5513" lon="6.72305">
        <ele>368</ele>
        <time>2016-08-24T15:47:21.000Z</time>
      </trkpt>
      <trkpt lat="47.55135" lon="6.72301">
        <ele>368</ele>
        <time>2016-08-24T15:47:22.000Z</time>
      </trkpt>
      <trkpt lat="47.55142" lon="6.72296">
        <ele>368</ele>
        <time>2016-08-24T15:47:23.000Z</time>
      </trkpt>
      <trkpt lat="47.55147" lon="6.72292">
        <ele>367</ele>
        <time>2016-08-24T15:47:24.000Z</time>
      </trkpt>
      <trkpt lat="47.55153" lon="6.72288">
        <ele>367</ele>
        <time>2016-08-24T15:47:25.000Z</time>
      </trkpt>
      <trkpt lat="47.55158" lon="6.72284">
        <ele>367</ele>
        <time>2016-08-24T15:47:26.000Z</time>
      </trkpt>
      <trkpt lat="47.55162" lon="6.72281">
        <ele>367</ele>
        <time>2016-08-24T15:47:27.000Z</time>
      </trkpt>
      <trkpt lat="47.55166" lon="6.72279">
        <ele>367</ele>
        <time>2016-08-24T15:47:28.000Z</time>
      </trkpt>
      <trkpt lat="47.55169" lon="6.72274">
        <ele>367</ele>
        <time>2016-08-24T15:47:29.000Z</time>
      </trkpt>
      <trkpt lat="47.5517" lon="6.72269">
        <ele>367</ele>
        <time>2016-08-24T15:47:30.000Z</time>
      </trkpt>
      <trkpt lat="47.55171" lon="6.72264">
        <ele>367</ele>
        <time>2016-08-24T15:47:31.000Z</time>
      </trkpt>
      <trkpt lat="47.5517" lon="6.72258">
        <ele>367</ele>
        <time>2016-08-24T15:47:32.000Z</time>
      </trkpt>
      <trkpt lat="47.55168" lon="6.72254">
        <ele>366</ele>
        <time>2016-08-24T15:47:33.000Z</time>
      </trkpt>
      <trkpt lat="47.55166" lon="6.72249">
        <ele>366</ele>
        <time>2016-08-24T15:47:34.000Z</time>
      </trkpt>
      <trkpt lat="47.55164" lon="6.72244">
        <ele>366</ele>
        <time>2016-08-24T15:47:35.000Z</time>
      </trkpt>
      <trkpt lat="47.55162" lon="6.7224">
        <ele>366</ele>
        <time>2016-08-24T15:47:36.000Z</time>
      </trkpt>
      <trkpt lat="47.5516" lon="6.72235">
        <ele>366</ele>
        <time>2016-08-24T15:47:37.000Z</time>
      </trkpt>
      <trkpt lat="47.55158" lon="6.7223">
        <ele>366</ele>
        <time>2016-08-24T15:47:38.000Z</time>
      </trkpt>
      <trkpt lat="47.55155" lon="6.72225">
        <ele>366</ele>
        <time>2016-08-24T15:47:39.000Z</time>
      </trkpt>
      <trkpt lat="47.55153" lon="6.72219">
        <ele>365</ele>
        <time>2016-08-24T15:47:40.000Z</time>
      </trkpt>
      <trkpt lat="47.55149" lon="6.72212">
        <ele>365</ele>
        <time>2016-08-24T15:47:41.000Z</time>
      </trkpt>
      <trkpt lat="47.55147" lon="6.72207">
        <ele>365</ele>
        <time>2016-08-24T15:47:42.000Z</time>
      </trkpt>
      <trkpt lat="47.55143" lon="6.722">
        <ele>365</ele>
        <time>2016-08-24T15:47:43.000Z</time>
      </trkpt>
      <trkpt lat="47.5514" lon="6.72192">
        <ele>365</ele>
        <time>2016-08-24T15:47:44.000Z</time>
      </trkpt>
      <trkpt lat="47.55135" lon="6.72185">
        <ele>365</ele>
        <time>2016-08-24T15:47:45.000Z</time>
      </trkpt>
      <trkpt lat="47.55132" lon="6.72176">
        <ele>365</ele>
        <time>2016-08-24T15:47:46.000Z</time>
      </trkpt>
      <trkpt lat="47.55128" lon="6.72168">
        <ele>365</ele>
        <time>2016-08-24T15:47:47.000Z</time>
      </trkpt>
      <trkpt lat="47.55124" lon="6.7216">
        <ele>363</ele>
        <time>2016-08-24T15:47:48.000Z</time>
      </trkpt>
      <trkpt lat="47.55121" lon="6.72152">
        <ele>363</ele>
        <time>2016-08-24T15:47:49.000Z</time>
      </trkpt>
      <trkpt lat="47.55116" lon="6.72144">
        <ele>363</ele>
        <time>2016-08-24T15:47:50.000Z</time>
      </trkpt>
      <trkpt lat="47.55113" lon="6.72136">
        <ele>363</ele>
        <time>2016-08-24T15:47:51.000Z</time>
      </trkpt>
      <trkpt lat="47.5511" lon="6.72128">
        <ele>363</ele>
        <time>2016-08-24T15:47:52.000Z</time>
      </trkpt>
      <trkpt lat="47.55108" lon="6.72119">
        <ele>363</ele>
        <time>2016-08-24T15:47:53.000Z</time>
      </trkpt>
      <trkpt lat="47.55108" lon="6.72111">
        <ele>363</ele>
        <time>2016-08-24T15:47:54.000Z</time>
      </trkpt>
      <trkpt lat="47.55106" lon="6.72101">
        <ele>364</ele>
        <time>2016-08-24T15:47:55.000Z</time>
      </trkpt>
      <trkpt lat="47.55105" lon="6.72092">
        <ele>364</ele>
        <time>2016-08-24T15:47:56.000Z</time>
      </trkpt>
      <trkpt lat="47.55103" lon="6.72085">
        <ele>364</ele>
        <time>2016-08-24T15:47:57.000Z</time>
      </trkpt>
      <trkpt lat="47.55101" lon="6.72076">
        <ele>364</ele>
        <time>2016-08-24T15:47:58.000Z</time>
      </trkpt>
      <trkpt lat="47.551" lon="6.72069">
        <ele>364</ele>
        <time>2016-08-24T15:47:59.000Z</time>
      </trkpt>
      <trkpt lat="47.55098" lon="6.72062">
        <ele>365</ele>
        <time>2016-08-24T15:48:00.000Z</time>
      </trkpt>
      <trkpt lat="47.55097" lon="6.72055">
        <ele>365</ele>
        <time>2016-08-24T15:48:01.000Z</time>
      </trkpt>
      <trkpt lat="47.55096" lon="6.72051">
        <ele>365</ele>
        <time>2016-08-24T15:48:02.000Z</time>
      </trkpt>
      <trkpt lat="47.55095" lon="6.72045">
        <ele>365</ele>
        <time>2016-08-24T15:48:03.000Z</time>
      </trkpt>
      <trkpt lat="47.55094" lon="6.7204">
        <ele>365</ele>
        <time>2016-08-24T15:48:04.000Z</time>
      </trkpt>
      <trkpt lat="47.55094" lon="6.72035">
        <ele>365</ele>
        <time>2016-08-24T15:48:05.000Z</time>
      </trkpt>
      <trkpt lat="47.55094" lon="6.7203">
        <ele>365</ele>
        <time>2016-08-24T15:48:06.000Z</time>
      </trkpt>
      <trkpt lat="47.55093" lon="6.72026">
        <ele>365</ele>
        <time>2016-08-24T15:48:07.000Z</time>
      </trkpt>
      <trkpt lat="47.55093" lon="6.72021">
        <ele>366</ele>
        <time>2016-08-24T15:48:08.000Z</time>
      </trkpt>
      <trkpt lat="47.55091" lon="6.72017">
        <ele>366</ele>
        <time>2016-08-24T15:48:09.000Z</time>
      </trkpt>
      <trkpt lat="47.55089" lon="6.72013">
        <ele>366</ele>
        <time>2016-08-24T15:48:10.000Z</time>
      </trkpt>
      <trkpt lat="47.55087" lon="6.72008">
        <ele>366</ele>
        <time>2016-08-24T15:48:11.000Z</time>
      </trkpt>
      <trkpt lat="47.55086" lon="6.72004">
        <ele>367</ele>
        <time>2016-08-24T15:48:12.000Z</time>
      </trkpt>
      <trkpt lat="47.55084" lon="6.72">
        <ele>367</ele>
        <time>2016-08-24T15:48:13.000Z</time>
      </trkpt>
      <trkpt lat="47.55083" lon="6.71995">
        <ele>368</ele>
        <time>2016-08-24T15:48:14.000Z</time>
      </trkpt>
      <trkpt lat="47.55082" lon="6.71991">
        <ele>368</ele>
        <time>2016-08-24T15:48:15.000Z</time>
      </trkpt>
      <trkpt lat="47.55081" lon="6.71986">
        <ele>368</ele>
        <time>2016-08-24T15:48:16.000Z</time>
      </trkpt>
      <trkpt lat="47.5508" lon="6.71981">
        <ele>369</ele>
        <time>2016-08-24T15:48:17.000Z</time>
      </trkpt>
      <trkpt lat="47.55079" lon="6.71976">
        <ele>369</ele>
        <time>2016-08-24T15:48:18.000Z</time>
      </trkpt>
      <trkpt lat="47.55078" lon="6.71971">
        <ele>369</ele>
        <time>2016-08-24T15:48:19.000Z</time>
      </trkpt>
      <trkpt lat="47.55077" lon="6.71966">
        <ele>370</ele>
        <time>2016-08-24T15:48:20.000Z</time>
      </trkpt>
      <trkpt lat="47.55076" lon="6.7196">
        <ele>370</ele>
        <time>2016-08-24T15:48:21.000Z</time>
      </trkpt>
      <trkpt lat="47.55075" lon="6.71954">
        <ele>370</ele>
        <time>2016-08-24T15:48:22.000Z</time>
      </trkpt>
      <trkpt lat="47.55074" lon="6.71948">
        <ele>370</ele>
        <time>2016-08-24T15:48:23.000Z</time>
      </trkpt>
      <trkpt lat="47.55074" lon="6.71942">
        <ele>370</ele>
        <time>2016-08-24T15:48:24.000Z</time>
      </trkpt>
      <trkpt lat="47.55073" lon="6.71936">
        <ele>370</ele>
        <time>2016-08-24T15:48:25.000Z</time>
      </trkpt>
      <trkpt lat="47.55072" lon="6.7193">
        <ele>370</ele>
        <time>2016-08-24T15:48:26.000Z</time>
      </trkpt>
      <trkpt lat="47.55072" lon="6.71925">
        <ele>370</ele>
        <time>2016-08-24T15:48:27.000Z</time>
      </trkpt>
      <trkpt lat="47.55071" lon="6.71919">
        <ele>370</ele>
        <time>2016-08-24T15:48:28.000Z</time>
      </trkpt>
      <trkpt lat="47.55071" lon="6.71914">
        <ele>371</ele>
        <time>2016-08-24T15:48:29.000Z</time>
      </trkpt>
      <trkpt lat="47.55071" lon="6.71909">
        <ele>371</ele>
        <time>2016-08-24T15:48:30.000Z</time>
      </trkpt>
      <trkpt lat="47.5507" lon="6.71904">
        <ele>371</ele>
        <time>2016-08-24T15:48:31.000Z</time>
      </trkpt>
      <trkpt lat="47.5507" lon="6.71899">
        <ele>371</ele>
        <time>2016-08-24T15:48:32.000Z</time>
      </trkpt>
      <trkpt lat="47.55069" lon="6.71894">
        <ele>371</ele>
        <time>2016-08-24T15:48:33.000Z</time>
      </trkpt>
      <trkpt lat="47.55067" lon="6.71889">
        <ele>372</ele>
        <time>2016-08-24T15:48:34.000Z</time>
      </trkpt>
      <trkpt lat="47.55066" lon="6.71883">
        <ele>372</ele>
        <time>2016-08-24T15:48:35.000Z</time>
      </trkpt>
      <trkpt lat="47.55065" lon="6.71878">
        <ele>372</ele>
        <time>2016-08-24T15:48:36.000Z</time>
      </trkpt>
      <trkpt lat="47.55064" lon="6.71873">
        <ele>372</ele>
        <time>2016-08-24T15:48:37.000Z</time>
      </trkpt>
      <trkpt lat="47.55062" lon="6.71868">
        <ele>372</ele>
        <time>2016-08-24T15:48:38.000Z</time>
      </trkpt>
      <trkpt lat="47.55061" lon="6.71863">
        <ele>372</ele>
        <time>2016-08-24T15:48:39.000Z</time>
      </trkpt>
      <trkpt lat="47.55059" lon="6.71859">
        <ele>372</ele>
        <time>2016-08-24T15:48:40.000Z</time>
      </trkpt>
      <trkpt lat="47.55057" lon="6.71854">
        <ele>372</ele>
        <time>2016-08-24T15:48:41.000Z</time>
      </trkpt>
      <trkpt lat="47.55056" lon="6.71849">
        <ele>372</ele>
        <time>2016-08-24T15:48:42.000Z</time>
      </trkpt>
      <trkpt lat="47.55054" lon="6.71843">
        <ele>372</ele>
        <time>2016-08-24T15:48:43.000Z</time>
      </trkpt>
      <trkpt lat="47.55052" lon="6.71838">
        <ele>372</ele>
        <time>2016-08-24T15:48:44.000Z</time>
      </trkpt>
      <trkpt lat="47.5505" lon="6.71832">
        <ele>372</ele>
        <time>2016-08-24T15:48:45.000Z</time>
      </trkpt>
      <trkpt lat="47.55049" lon="6.71826">
        <ele>372</ele>
        <time>2016-08-24T15:48:46.000Z</time>
      </trkpt>
      <trkpt lat="47.55047" lon="6.7182">
        <ele>372</ele>
        <time>2016-08-24T15:48:47.000Z</time>
      </trkpt>
      <trkpt lat="47.55046" lon="6.71812">
        <ele>372</ele>
        <time>2016-08-24T15:48:48.000Z</time>
      </trkpt>
      <trkpt lat="47.55045" lon="6.71805">
        <ele>372</ele>
        <time>2016-08-24T15:48:49.000Z</time>
      </trkpt>
      <trkpt lat="47.55045" lon="6.71798">
        <ele>372</ele>
        <time>2016-08-24T15:48:50.000Z</time>
      </trkpt>
      <trkpt lat="47.55045" lon="6.7179">
        <ele>372</ele>
        <time>2016-08-24T15:48:51.000Z</time>
      </trkpt>
      <trkpt lat="47.55045" lon="6.71782">
        <ele>372</ele>
        <time>2016-08-24T15:48:52.000Z</time>
      </trkpt>
      <trkpt lat="47.55045" lon="6.71774">
        <ele>372</ele>
        <time>2016-08-24T15:48:53.000Z</time>
      </trkpt>
      <trkpt lat="47.55046" lon="6.71766">
        <ele>372</ele>
        <time>2016-08-24T15:48:54.000Z</time>
      </trkpt>
      <trkpt lat="47.55046" lon="6.71757">
        <ele>372</ele>
        <time>2016-08-24T15:48:55.000Z</time>
      </trkpt>
      <trkpt lat="47.55046" lon="6.71749">
        <ele>372</ele>
        <time>2016-08-24T15:48:56.000Z</time>
      </trkpt>
      <trkpt lat="47.55047" lon="6.71741">
        <ele>372</ele>
        <time>2016-08-24T15:48:57.000Z</time>
      </trkpt>
      <trkpt lat="47.55047" lon="6.71733">
        <ele>372</ele>
        <time>2016-08-24T15:48:58.000Z</time>
      </trkpt>
      <trkpt lat="47.55047" lon="6.71724">
        <ele>372</ele>
        <time>2016-08-24T15:48:59.000Z</time>
      </trkpt>
      <trkpt lat="47.55047" lon="6.71716">
        <ele>372</ele>
        <time>2016-08-24T15:49:00.000Z</time>
      </trkpt>
      <trkpt lat="47.55047" lon="6.71707">
        <ele>372</ele>
        <time>2016-08-24T15:49:01.000Z</time>
      </trkpt>
      <trkpt lat="47.55047" lon="6.71699">
        <ele>372</ele>
        <time>2016-08-24T15:49:02.000Z</time>
      </trkpt>
      <trkpt lat="47.55048" lon="6.71692">
        <ele>372</ele>
        <time>2016-08-24T15:49:03.000Z</time>
      </trkpt>
      <trkpt lat="47.55048" lon="6.71683">
        <ele>372</ele>
        <time>2016-08-24T15:49:04.000Z</time>
      </trkpt>
      <trkpt lat="47.55048" lon="6.71676">
        <ele>372</ele>
        <time>2016-08-24T15:49:05.000Z</time>
      </trkpt>
      <trkpt lat="47.55049" lon="6.71668">
        <ele>372</ele>
        <time>2016-08-24T15:49:06.000Z</time>
      </trkpt>
      <trkpt lat="47.55049" lon="6.7166">
        <ele>373</ele>
        <time>2016-08-24T15:49:07.000Z</time>
      </trkpt>
      <trkpt lat="47.55049" lon="6.71652">
        <ele>373</ele>
        <time>2016-08-24T15:49:08.000Z</time>
      </trkpt>
      <trkpt lat="47.5505" lon="6.71645">
        <ele>373</ele>
        <time>2016-08-24T15:49:09.000Z</time>
      </trkpt>
      <trkpt lat="47.5505" lon="6.71638">
        <ele>373</ele>
        <time>2016-08-24T15:49:10.000Z</time>
      </trkpt>
      <trkpt lat="47.5505" lon="6.71631">
        <ele>373</ele>
        <time>2016-08-24T15:49:11.000Z</time>
      </trkpt>
      <trkpt lat="47.55051" lon="6.71624">
        <ele>373</ele>
        <time>2016-08-24T15:49:12.000Z</time>
      </trkpt>
      <trkpt lat="47.55051" lon="6.71617">
        <ele>373</ele>
        <time>2016-08-24T15:49:13.000Z</time>
      </trkpt>
      <trkpt lat="47.55052" lon="6.71611">
        <ele>373</ele>
        <time>2016-08-24T15:49:14.000Z</time>
      </trkpt>
      <trkpt lat="47.55052" lon="6.71605">
        <ele>374</ele>
        <time>2016-08-24T15:49:15.000Z</time>
      </trkpt>
      <trkpt lat="47.55053" lon="6.71599">
        <ele>374</ele>
        <time>2016-08-24T15:49:16.000Z</time>
      </trkpt>
      <trkpt lat="47.55053" lon="6.71593">
        <ele>374</ele>
        <time>2016-08-24T15:49:17.000Z</time>
      </trkpt>
      <trkpt lat="47.55054" lon="6.71588">
        <ele>374</ele>
        <time>2016-08-24T15:49:18.000Z</time>
      </trkpt>
      <trkpt lat="47.55055" lon="6.71583">
        <ele>376</ele>
        <time>2016-08-24T15:49:19.000Z</time>
      </trkpt>
      <trkpt lat="47.55055" lon="6.71577">
        <ele>376</ele>
        <time>2016-08-24T15:49:20.000Z</time>
      </trkpt>
      <trkpt lat="47.55056" lon="6.71571">
        <ele>376</ele>
        <time>2016-08-24T15:49:21.000Z</time>
      </trkpt>
      <trkpt lat="47.55057" lon="6.71566">
        <ele>376</ele>
        <time>2016-08-24T15:49:22.000Z</time>
      </trkpt>
      <trkpt lat="47.55058" lon="6.71561">
        <ele>376</ele>
        <time>2016-08-24T15:49:23.000Z</time>
      </trkpt>
      <trkpt lat="47.55059" lon="6.71556">
        <ele>376</ele>
        <time>2016-08-24T15:49:24.000Z</time>
      </trkpt>
      <trkpt lat="47.55059" lon="6.71551">
        <ele>377</ele>
        <time>2016-08-24T15:49:25.000Z</time>
      </trkpt>
      <trkpt lat="47.5506" lon="6.71546">
        <ele>377</ele>
        <time>2016-08-24T15:49:26.000Z</time>
      </trkpt>
      <trkpt lat="47.5506" lon="6.71541">
        <ele>377</ele>
        <time>2016-08-24T15:49:27.000Z</time>
      </trkpt>
      <trkpt lat="47.55061" lon="6.71536">
        <ele>377</ele>
        <time>2016-08-24T15:49:28.000Z</time>
      </trkpt>
      <trkpt lat="47.55061" lon="6.71531">
        <ele>377</ele>
        <time>2016-08-24T15:49:29.000Z</time>
      </trkpt>
      <trkpt lat="47.55062" lon="6.71527">
        <ele>378</ele>
        <time>2016-08-24T15:49:30.000Z</time>
      </trkpt>
      <trkpt lat="47.55062" lon="6.71523">
        <ele>378</ele>
        <time>2016-08-24T15:49:31.000Z</time>
      </trkpt>
      <trkpt lat="47.55063" lon="6.7152">
        <ele>378</ele>
        <time>2016-08-24T15:49:32.000Z</time>
      </trkpt>
      <trkpt lat="47.55064" lon="6.71516">
        <ele>378</ele>
        <time>2016-08-24T15:49:33.000Z</time>
      </trkpt>
      <trkpt lat="47.55064" lon="6.71512">
        <ele>378</ele>
        <time>2016-08-24T15:49:34.000Z</time>
      </trkpt>
      <trkpt lat="47.55065" lon="6.71508">
        <ele>379</ele>
        <time>2016-08-24T15:49:35.000Z</time>
      </trkpt>
      <trkpt lat="47.55066" lon="6.71504">
        <ele>379</ele>
        <time>2016-08-24T15:49:36.000Z</time>
      </trkpt>
      <trkpt lat="47.55067" lon="6.71501">
        <ele>379</ele>
        <time>2016-08-24T15:49:37.000Z</time>
      </trkpt>
      <trkpt lat="47.55068" lon="6.71497">
        <ele>381</ele>
        <time>2016-08-24T15:49:38.000Z</time>
      </trkpt>
      <trkpt lat="47.55069" lon="6.71493">
        <ele>381</ele>
        <time>2016-08-24T15:49:39.000Z</time>
      </trkpt>
      <trkpt lat="47.5507" lon="6.71489">
        <ele>381</ele>
        <time>2016-08-24T15:49:40.000Z</time>
      </trkpt>
      <trkpt lat="47.5507" lon="6.71485">
        <ele>381</ele>
        <time>2016-08-24T15:49:41.000Z</time>
      </trkpt>
      <trkpt lat="47.55071" lon="6.71482">
        <ele>381</ele>
        <time>2016-08-24T15:49:42.000Z</time>
      </trkpt>
      <trkpt lat="47.55072" lon="6.71477">
        <ele>381</ele>
        <time>2016-08-24T15:49:43.000Z</time>
      </trkpt>
      <trkpt lat="47.55073" lon="6.71474">
        <ele>381</ele>
        <time>2016-08-24T15:49:44.000Z</time>
      </trkpt>
      <trkpt lat="47.55074" lon="6.7147">
        <ele>381</ele>
        <time>2016-08-24T15:49:45.000Z</time>
      </trkpt>
      <trkpt lat="47.55075" lon="6.71466">
        <ele>381</ele>
        <time>2016-08-24T15:49:46.000Z</time>
      </trkpt>
      <trkpt lat="47.55076" lon="6.71463">
        <ele>381</ele>
        <time>2016-08-24T15:49:47.000Z</time>
      </trkpt>
      <trkpt lat="47.55078" lon="6.71459">
        <ele>381</ele>
        <time>2016-08-24T15:49:48.000Z</time>
      </trkpt>
      <trkpt lat="47.55079" lon="6.71456">
        <ele>381</ele>
        <time>2016-08-24T15:49:49.000Z</time>
      </trkpt>
      <trkpt lat="47.5508" lon="6.71452">
        <ele>381</ele>
        <time>2016-08-24T15:49:50.000Z</time>
      </trkpt>
      <trkpt lat="47.55081" lon="6.71449">
        <ele>382</ele>
        <time>2016-08-24T15:49:51.000Z</time>
      </trkpt>
      <trkpt lat="47.55082" lon="6.71446">
        <ele>382</ele>
        <time>2016-08-24T15:49:52.000Z</time>
      </trkpt>
      <trkpt lat="47.55083" lon="6.71443">
        <ele>382</ele>
        <time>2016-08-24T15:49:53.000Z</time>
      </trkpt>
      <trkpt lat="47.55084" lon="6.7144">
        <ele>384</ele>
        <time>2016-08-24T15:49:54.000Z</time>
      </trkpt>
      <trkpt lat="47.55085" lon="6.71437">
        <ele>384</ele>
        <time>2016-08-24T15:49:55.000Z</time>
      </trkpt>
      <trkpt lat="47.55086" lon="6.71434">
        <ele>384</ele>
        <time>2016-08-24T15:49:56.000Z</time>
      </trkpt>
      <trkpt lat="47.55088" lon="6.7143">
        <ele>384</ele>
        <time>2016-08-24T15:49:57.000Z</time>
      </trkpt>
      <trkpt lat="47.55089" lon="6.71427">
        <ele>384</ele>
        <time>2016-08-24T15:49:58.000Z</time>
      </trkpt>
      <trkpt lat="47.5509" lon="6.71424">
        <ele>384</ele>
        <time>2016-08-24T15:49:59.000Z</time>
      </trkpt>
      <trkpt lat="47.55091" lon="6.71421">
        <ele>384</ele>
        <time>2016-08-24T15:50:00.000Z</time>
      </trkpt>
      <trkpt lat="47.55093" lon="6.71418">
        <ele>384</ele>
        <time>2016-08-24T15:50:01.000Z</time>
      </trkpt>
      <trkpt lat="47.55094" lon="6.71415">
        <ele>386</ele>
        <time>2016-08-24T15:50:02.000Z</time>
      </trkpt>
      <trkpt lat="47.55096" lon="6.71412">
        <ele>386</ele>
        <time>2016-08-24T15:50:03.000Z</time>
      </trkpt>
      <trkpt lat="47.55097" lon="6.71409">
        <ele>387</ele>
        <time>2016-08-24T15:50:04.000Z</time>
      </trkpt>
      <trkpt lat="47.55099" lon="6.71406">
        <ele>387</ele>
        <time>2016-08-24T15:50:05.000Z</time>
      </trkpt>
      <trkpt lat="47.55101" lon="6.71402">
        <ele>387</ele>
        <time>2016-08-24T15:50:06.000Z</time>
      </trkpt>
      <trkpt lat="47.55102" lon="6.71399">
        <ele>388</ele>
        <time>2016-08-24T15:50:07.000Z</time>
      </trkpt>
      <trkpt lat="47.55104" lon="6.71396">
        <ele>388</ele>
        <time>2016-08-24T15:50:08.000Z</time>
      </trkpt>
      <trkpt lat="47.55105" lon="6.71393">
        <ele>388</ele>
        <time>2016-08-24T15:50:09.000Z</time>
      </trkpt>
      <trkpt lat="47.55107" lon="6.7139">
        <ele>388</ele>
        <time>2016-08-24T15:50:10.000Z</time>
      </trkpt>
      <trkpt lat="47.55108" lon="6.71387">
        <ele>389</ele>
        <time>2016-08-24T15:50:11.000Z</time>
      </trkpt>
      <trkpt lat="47.5511" lon="6.71384">
        <ele>389</ele>
        <time>2016-08-24T15:50:12.000Z</time>
      </trkpt>
      <trkpt lat="47.55112" lon="6.7138">
        <ele>389</ele>
        <time>2016-08-24T15:50:13.000Z</time>
      </trkpt>
      <trkpt lat="47.55113" lon="6.71377">
        <ele>389</ele>
        <time>2016-08-24T15:50:14.000Z</time>
      </trkpt>
      <trkpt lat="47.55115" lon="6.71374">
        <ele>389</ele>
        <time>2016-08-24T15:50:15.000Z</time>
      </trkpt>
      <trkpt lat="47.55116" lon="6.71371">
        <ele>389</ele>
        <time>2016-08-24T15:50:16.000Z</time>
      </trkpt>
      <trkpt lat="47.55118" lon="6.71368">
        <ele>390</ele>
        <time>2016-08-24T15:50:17.000Z</time>
      </trkpt>
      <trkpt lat="47.55119" lon="6.71365">
        <ele>390</ele>
        <time>2016-08-24T15:50:18.000Z</time>
      </trkpt>
      <trkpt lat="47.55121" lon="6.71362">
        <ele>390</ele>
        <time>2016-08-24T15:50:19.000Z</time>
      </trkpt>
      <trkpt lat="47.55122" lon="6.71359">
        <ele>390</ele>
        <time>2016-08-24T15:50:20.000Z</time>
      </trkpt>
      <trkpt lat="47.55123" lon="6.71356">
        <ele>390</ele>
        <time>2016-08-24T15:50:21.000Z</time>
      </trkpt>
      <trkpt lat="47.55125" lon="6.71354">
        <ele>390</ele>
        <time>2016-08-24T15:50:22.000Z</time>
      </trkpt>
      <trkpt lat="47.55126" lon="6.7135">
        <ele>390</ele>
        <time>2016-08-24T15:50:23.000Z</time>
      </trkpt>
      <trkpt lat="47.55128" lon="6.71345">
        <ele>391</ele>
        <time>2016-08-24T15:50:25.000Z</time>
      </trkpt>
      <trkpt lat="47.55129" lon="6.71342">
        <ele>391</ele>
        <time>2016-08-24T15:50:26.000Z</time>
      </trkpt>
      <trkpt lat="47.5513" lon="6.71339">
        <ele>391</ele>
        <time>2016-08-24T15:50:27.000Z</time>
      </trkpt>
      <trkpt lat="47.55131" lon="6.71336">
        <ele>391</ele>
        <time>2016-08-24T15:50:28.000Z</time>
      </trkpt>
      <trkpt lat="47.55131" lon="6.71332">
        <ele>393</ele>
        <time>2016-08-24T15:50:29.000Z</time>
      </trkpt>
      <trkpt lat="47.55131" lon="6.71328">
        <ele>393</ele>
        <time>2016-08-24T15:50:30.000Z</time>
      </trkpt>
      <trkpt lat="47.55131" lon="6.71325">
        <ele>393</ele>
        <time>2016-08-24T15:50:31.000Z</time>
      </trkpt>
      <trkpt lat="47.55131" lon="6.71321">
        <ele>393</ele>
        <time>2016-08-24T15:50:32.000Z</time>
      </trkpt>
      <trkpt lat="47.55131" lon="6.71317">
        <ele>393</ele>
        <time>2016-08-24T15:50:33.000Z</time>
      </trkpt>
      <trkpt lat="47.55131" lon="6.71313">
        <ele>393</ele>
        <time>2016-08-24T15:50:34.000Z</time>
      </trkpt>
      <trkpt lat="47.5513" lon="6.71309">
        <ele>393</ele>
        <time>2016-08-24T15:50:35.000Z</time>
      </trkpt>
      <trkpt lat="47.5513" lon="6.71304">
        <ele>393</ele>
        <time>2016-08-24T15:50:36.000Z</time>
      </trkpt>
      <trkpt lat="47.5513" lon="6.713">
        <ele>393</ele>
        <time>2016-08-24T15:50:37.000Z</time>
      </trkpt>
      <trkpt lat="47.5513" lon="6.71297">
        <ele>393</ele>
        <time>2016-08-24T15:50:38.000Z</time>
      </trkpt>
      <trkpt lat="47.5513" lon="6.71292">
        <ele>393</ele>
        <time>2016-08-24T15:50:39.000Z</time>
      </trkpt>
      <trkpt lat="47.5513" lon="6.71288">
        <ele>393</ele>
        <time>2016-08-24T15:50:40.000Z</time>
      </trkpt>
      <trkpt lat="47.55129" lon="6.71284">
        <ele>393</ele>
        <time>2016-08-24T15:50:41.000Z</time>
      </trkpt>
      <trkpt lat="47.55128" lon="6.7128">
        <ele>393</ele>
        <time>2016-08-24T15:50:42.000Z</time>
      </trkpt>
      <trkpt lat="47.55126" lon="6.71276">
        <ele>393</ele>
        <time>2016-08-24T15:50:43.000Z</time>
      </trkpt>
      <trkpt lat="47.55123" lon="6.71273">
        <ele>393</ele>
        <time>2016-08-24T15:50:44.000Z</time>
      </trkpt>
      <trkpt lat="47.5512" lon="6.7127">
        <ele>393</ele>
        <time>2016-08-24T15:50:45.000Z</time>
      </trkpt>
      <trkpt lat="47.55117" lon="6.71267">
        <ele>393</ele>
        <time>2016-08-24T15:50:46.000Z</time>
      </trkpt>
      <trkpt lat="47.55114" lon="6.71265">
        <ele>393</ele>
        <time>2016-08-24T15:50:47.000Z</time>
      </trkpt>
      <trkpt lat="47.55111" lon="6.71262">
        <ele>393</ele>
        <time>2016-08-24T15:50:48.000Z</time>
      </trkpt>
      <trkpt lat="47.55108" lon="6.7126">
        <ele>393</ele>
        <time>2016-08-24T15:50:49.000Z</time>
      </trkpt>
      <trkpt lat="47.55105" lon="6.71258">
        <ele>393</ele>
        <time>2016-08-24T15:50:50.000Z</time>
      </trkpt>
      <trkpt lat="47.55103" lon="6.71256">
        <ele>393</ele>
        <time>2016-08-24T15:50:51.000Z</time>
      </trkpt>
      <trkpt lat="47.551" lon="6.71254">
        <ele>393</ele>
        <time>2016-08-24T15:50:52.000Z</time>
      </trkpt>
      <trkpt lat="47.55097" lon="6.71252">
        <ele>392</ele>
        <time>2016-08-24T15:50:53.000Z</time>
      </trkpt>
      <trkpt lat="47.55095" lon="6.7125">
        <ele>392</ele>
        <time>2016-08-24T15:50:54.000Z</time>
      </trkpt>
      <trkpt lat="47.55092" lon="6.71248">
        <ele>393</ele>
        <time>2016-08-24T15:50:55.000Z</time>
      </trkpt>
      <trkpt lat="47.5509" lon="6.71246">
        <ele>393</ele>
        <time>2016-08-24T15:50:56.000Z</time>
      </trkpt>
      <trkpt lat="47.55087" lon="6.71243">
        <ele>393</ele>
        <time>2016-08-24T15:50:57.000Z</time>
      </trkpt>
      <trkpt lat="47.55084" lon="6.71241">
        <ele>393</ele>
        <time>2016-08-24T15:50:58.000Z</time>
      </trkpt>
      <trkpt lat="47.55081" lon="6.71238">
        <ele>392</ele>
        <time>2016-08-24T15:50:59.000Z</time>
      </trkpt>
      <trkpt lat="47.55078" lon="6.71235">
        <ele>391</ele>
        <time>2016-08-24T15:51:00.000Z</time>
      </trkpt>
      <trkpt lat="47.55075" lon="6.71232">
        <ele>391</ele>
        <time>2016-08-24T15:51:01.000Z</time>
      </trkpt>
      <trkpt lat="47.55072" lon="6.71229">
        <ele>391</ele>
        <time>2016-08-24T15:51:02.000Z</time>
      </trkpt>
      <trkpt lat="47.55069" lon="6.71226">
        <ele>391</ele>
        <time>2016-08-24T15:51:03.000Z</time>
      </trkpt>
      <trkpt lat="47.55065" lon="6.71223">
        <ele>391</ele>
        <time>2016-08-24T15:51:04.000Z</time>
      </trkpt>
      <trkpt lat="47.55062" lon="6.71221">
        <ele>391</ele>
        <time>2016-08-24T15:51:05.000Z</time>
      </trkpt>
      <trkpt lat="47.5506" lon="6.71218">
        <ele>391</ele>
        <time>2016-08-24T15:51:06.000Z</time>
      </trkpt>
      <trkpt lat="47.55057" lon="6.71215">
        <ele>391</ele>
        <time>2016-08-24T15:51:07.000Z</time>
      </trkpt>
      <trkpt lat="47.55054" lon="6.71212">
        <ele>391</ele>
        <time>2016-08-24T15:51:08.000Z</time>
      </trkpt>
      <trkpt lat="47.55051" lon="6.71209">
        <ele>391</ele>
        <time>2016-08-24T15:51:09.000Z</time>
      </trkpt>
      <trkpt lat="47.55048" lon="6.71206">
        <ele>391</ele>
        <time>2016-08-24T15:51:10.000Z</time>
      </trkpt>
      <trkpt lat="47.55045" lon="6.71203">
        <ele>391</ele>
        <time>2016-08-24T15:51:11.000Z</time>
      </trkpt>
      <trkpt lat="47.55042" lon="6.71201">
        <ele>391</ele>
        <time>2016-08-24T15:51:12.000Z</time>
      </trkpt>
      <trkpt lat="47.5504" lon="6.71198">
        <ele>391</ele>
        <time>2016-08-24T15:51:13.000Z</time>
      </trkpt>
      <trkpt lat="47.55037" lon="6.71195">
        <ele>391</ele>
        <time>2016-08-24T15:51:14.000Z</time>
      </trkpt>
      <trkpt lat="47.55034" lon="6.71191">
        <ele>391</ele>
        <time>2016-08-24T15:51:15.000Z</time>
      </trkpt>
      <trkpt lat="47.55032" lon="6.71188">
        <ele>391</ele>
        <time>2016-08-24T15:51:16.000Z</time>
      </trkpt>
      <trkpt lat="47.55029" lon="6.71185">
        <ele>391</ele>
        <time>2016-08-24T15:51:17.000Z</time>
      </trkpt>
      <trkpt lat="47.55026" lon="6.71182">
        <ele>391</ele>
        <time>2016-08-24T15:51:18.000Z</time>
      </trkpt>
      <trkpt lat="47.55023" lon="6.71178">
        <ele>391</ele>
        <time>2016-08-24T15:51:19.000Z</time>
      </trkpt>
      <trkpt lat="47.55021" lon="6.71175">
        <ele>391</ele>
        <time>2016-08-24T15:51:20.000Z</time>
      </trkpt>
      <trkpt lat="47.55018" lon="6.71171">
        <ele>390</ele>
        <time>2016-08-24T15:51:21.000Z</time>
      </trkpt>
      <trkpt lat="47.55016" lon="6.71168">
        <ele>390</ele>
        <time>2016-08-24T15:51:22.000Z</time>
      </trkpt>
      <trkpt lat="47.55013" lon="6.71164">
        <ele>391</ele>
        <time>2016-08-24T15:51:23.000Z</time>
      </trkpt>
      <trkpt lat="47.5501" lon="6.7116">
        <ele>391</ele>
        <time>2016-08-24T15:51:24.000Z</time>
      </trkpt>
      <trkpt lat="47.55006" lon="6.71154">
        <ele>391</ele>
        <time>2016-08-24T15:51:25.000Z</time>
      </trkpt>
      <trkpt lat="47.55003" lon="6.71149">
        <ele>391</ele>
        <time>2016-08-24T15:51:26.000Z</time>
      </trkpt>
      <trkpt lat="47.54999" lon="6.71144">
        <ele>391</ele>
        <time>2016-08-24T15:51:27.000Z</time>
      </trkpt>
      <trkpt lat="47.54996" lon="6.71138">
        <ele>391</ele>
        <time>2016-08-24T15:51:28.000Z</time>
      </trkpt>
      <trkpt lat="47.54993" lon="6.71132">
        <ele>392</ele>
        <time>2016-08-24T15:51:29.000Z</time>
      </trkpt>
      <trkpt lat="47.54989" lon="6.71127">
        <ele>392</ele>
        <time>2016-08-24T15:51:30.000Z</time>
      </trkpt>
      <trkpt lat="47.54986" lon="6.71122">
        <ele>392</ele>
        <time>2016-08-24T15:51:31.000Z</time>
      </trkpt>
      <trkpt lat="47.54982" lon="6.71117">
        <ele>392</ele>
        <time>2016-08-24T15:51:32.000Z</time>
      </trkpt>
      <trkpt lat="47.54978" lon="6.71112">
        <ele>392</ele>
        <time>2016-08-24T15:51:33.000Z</time>
      </trkpt>
      <trkpt lat="47.54975" lon="6.71106">
        <ele>392</ele>
        <time>2016-08-24T15:51:34.000Z</time>
      </trkpt>
      <trkpt lat="47.54971" lon="6.711">
        <ele>392</ele>
        <time>2016-08-24T15:51:35.000Z</time>
      </trkpt>
      <trkpt lat="47.54968" lon="6.71095">
        <ele>392</ele>
        <time>2016-08-24T15:51:36.000Z</time>
      </trkpt>
      <trkpt lat="47.54964" lon="6.7109">
        <ele>392</ele>
        <time>2016-08-24T15:51:37.000Z</time>
      </trkpt>
      <trkpt lat="47.5496" lon="6.71085">
        <ele>393</ele>
        <time>2016-08-24T15:51:38.000Z</time>
      </trkpt>
      <trkpt lat="47.54957" lon="6.71078">
        <ele>393</ele>
        <time>2016-08-24T15:51:39.000Z</time>
      </trkpt>
      <trkpt lat="47.54953" lon="6.71073">
        <ele>393</ele>
        <time>2016-08-24T15:51:40.000Z</time>
      </trkpt>
      <trkpt lat="47.54949" lon="6.71067">
        <ele>393</ele>
        <time>2016-08-24T15:51:41.000Z</time>
      </trkpt>
      <trkpt lat="47.54946" lon="6.71062">
        <ele>393</ele>
        <time>2016-08-24T15:51:42.000Z</time>
      </trkpt>
      <trkpt lat="47.54942" lon="6.71056">
        <ele>393</ele>
        <time>2016-08-24T15:51:43.000Z</time>
      </trkpt>
      <trkpt lat="47.54938" lon="6.71051">
        <ele>393</ele>
        <time>2016-08-24T15:51:44.000Z</time>
      </trkpt>
      <trkpt lat="47.54934" lon="6.71046">
        <ele>393</ele>
        <time>2016-08-24T15:51:45.000Z</time>
      </trkpt>
      <trkpt lat="47.5493" lon="6.71041">
        <ele>393</ele>
        <time>2016-08-24T15:51:46.000Z</time>
      </trkpt>
      <trkpt lat="47.54927" lon="6.71035">
        <ele>393</ele>
        <time>2016-08-24T15:51:47.000Z</time>
      </trkpt>
      <trkpt lat="47.54923" lon="6.7103">
        <ele>393</ele>
        <time>2016-08-24T15:51:48.000Z</time>
      </trkpt>
      <trkpt lat="47.54921" lon="6.71022">
        <ele>394</ele>
        <time>2016-08-24T15:51:49.000Z</time>
      </trkpt>
      <trkpt lat="47.54923" lon="6.71012">
        <ele>394</ele>
        <time>2016-08-24T15:51:50.000Z</time>
      </trkpt>
      <trkpt lat="47.54924" lon="6.71003">
        <ele>394</ele>
        <time>2016-08-24T15:51:51.000Z</time>
      </trkpt>
      <trkpt lat="47.54924" lon="6.70996">
        <ele>394</ele>
        <time>2016-08-24T15:51:52.000Z</time>
      </trkpt>
      <trkpt lat="47.54927" lon="6.70986">
        <ele>393</ele>
        <time>2016-08-24T15:51:53.000Z</time>
      </trkpt>
      <trkpt lat="47.5493" lon="6.70978">
        <ele>392</ele>
        <time>2016-08-24T15:51:54.000Z</time>
      </trkpt>
      <trkpt lat="47.5493" lon="6.70969">
        <ele>392</ele>
        <time>2016-08-24T15:51:55.000Z</time>
      </trkpt>
      <trkpt lat="47.54932" lon="6.7096">
        <ele>392</ele>
        <time>2016-08-24T15:51:56.000Z</time>
      </trkpt>
      <trkpt lat="47.54929" lon="6.7095">
        <ele>391</ele>
        <time>2016-08-24T15:51:57.000Z</time>
      </trkpt>
      <trkpt lat="47.54926" lon="6.70941">
        <ele>391</ele>
        <time>2016-08-24T15:51:58.000Z</time>
      </trkpt>
      <trkpt lat="47.5492" lon="6.70931">
        <ele>392</ele>
        <time>2016-08-24T15:51:59.000Z</time>
      </trkpt>
      <trkpt lat="47.54915" lon="6.70921">
        <ele>392</ele>
        <time>2016-08-24T15:52:00.000Z</time>
      </trkpt>
      <trkpt lat="47.5491" lon="6.70913">
        <ele>392</ele>
        <time>2016-08-24T15:52:01.000Z</time>
      </trkpt>
      <trkpt lat="47.54904" lon="6.70905">
        <ele>392</ele>
        <time>2016-08-24T15:52:02.000Z</time>
      </trkpt>
      <trkpt lat="47.549" lon="6.70894">
        <ele>393</ele>
        <time>2016-08-24T15:52:03.000Z</time>
      </trkpt>
      <trkpt lat="47.54895" lon="6.70886">
        <ele>393</ele>
        <time>2016-08-24T15:52:04.000Z</time>
      </trkpt>
      <trkpt lat="47.54891" lon="6.70878">
        <ele>393</ele>
        <time>2016-08-24T15:52:05.000Z</time>
      </trkpt>
      <trkpt lat="47.54888" lon="6.7087">
        <ele>393</ele>
        <time>2016-08-24T15:52:06.000Z</time>
      </trkpt>
      <trkpt lat="47.54883" lon="6.70863">
        <ele>393</ele>
        <time>2016-08-24T15:52:07.000Z</time>
      </trkpt>
      <trkpt lat="47.54876" lon="6.70858">
        <ele>393</ele>
        <time>2016-08-24T15:52:08.000Z</time>
      </trkpt>
      <trkpt lat="47.54869" lon="6.70853">
        <ele>393</ele>
        <time>2016-08-24T15:52:09.000Z</time>
      </trkpt>
      <trkpt lat="47.54863" lon="6.70848">
        <ele>393</ele>
        <time>2016-08-24T15:52:10.000Z</time>
      </trkpt>
      <trkpt lat="47.54857" lon="6.70845">
        <ele>393</ele>
        <time>2016-08-24T15:52:11.000Z</time>
      </trkpt>
      <trkpt lat="47.54851" lon="6.70843">
        <ele>393</ele>
        <time>2016-08-24T15:52:12.000Z</time>
      </trkpt>
      <trkpt lat="47.54845" lon="6.70842">
        <ele>393</ele>
        <time>2016-08-24T15:52:13.000Z</time>
      </trkpt>
      <trkpt lat="47.54839" lon="6.7084">
        <ele>394</ele>
        <time>2016-08-24T15:52:14.000Z</time>
      </trkpt>
      <trkpt lat="47.54834" lon="6.70837">
        <ele>394</ele>
        <time>2016-08-24T15:52:15.000Z</time>
      </trkpt>
      <trkpt lat="47.54828" lon="6.70833">
        <ele>395</ele>
        <time>2016-08-24T15:52:16.000Z</time>
      </trkpt>
      <trkpt lat="47.54822" lon="6.7083">
        <ele>395</ele>
        <time>2016-08-24T15:52:17.000Z</time>
      </trkpt>
      <trkpt lat="47.54817" lon="6.70827">
        <ele>395</ele>
        <time>2016-08-24T15:52:18.000Z</time>
      </trkpt>
      <trkpt lat="47.54811" lon="6.70823">
        <ele>395</ele>
        <time>2016-08-24T15:52:19.000Z</time>
      </trkpt>
      <trkpt lat="47.54806" lon="6.7082">
        <ele>396</ele>
        <time>2016-08-24T15:52:20.000Z</time>
      </trkpt>
      <trkpt lat="47.54801" lon="6.70816">
        <ele>396</ele>
        <time>2016-08-24T15:52:21.000Z</time>
      </trkpt>
      <trkpt lat="47.54796" lon="6.70812">
        <ele>396</ele>
        <time>2016-08-24T15:52:22.000Z</time>
      </trkpt>
      <trkpt lat="47.5479" lon="6.70808">
        <ele>396</ele>
        <time>2016-08-24T15:52:23.000Z</time>
      </trkpt>
      <trkpt lat="47.54784" lon="6.70804">
        <ele>396</ele>
        <time>2016-08-24T15:52:24.000Z</time>
      </trkpt>
      <trkpt lat="47.54777" lon="6.70801">
        <ele>396</ele>
        <time>2016-08-24T15:52:25.000Z</time>
      </trkpt>
      <trkpt lat="47.54772" lon="6.70798">
        <ele>396</ele>
        <time>2016-08-24T15:52:26.000Z</time>
      </trkpt>
      <trkpt lat="47.54768" lon="6.70791">
        <ele>396</ele>
        <time>2016-08-24T15:52:27.000Z</time>
      </trkpt>
      <trkpt lat="47.54762" lon="6.70786">
        <ele>396</ele>
        <time>2016-08-24T15:52:28.000Z</time>
      </trkpt>
      <trkpt lat="47.54757" lon="6.70783">
        <ele>396</ele>
        <time>2016-08-24T15:52:29.000Z</time>
      </trkpt>
      <trkpt lat="47.54751" lon="6.70779">
        <ele>396</ele>
        <time>2016-08-24T15:52:30.000Z</time>
      </trkpt>
      <trkpt lat="47.54745" lon="6.70776">
        <ele>394</ele>
        <time>2016-08-24T15:52:31.000Z</time>
      </trkpt>
      <trkpt lat="47.5474" lon="6.70771">
        <ele>394</ele>
        <time>2016-08-24T15:52:32.000Z</time>
      </trkpt>
      <trkpt lat="47.54735" lon="6.70767">
        <ele>394</ele>
        <time>2016-08-24T15:52:33.000Z</time>
      </trkpt>
      <trkpt lat="47.54732" lon="6.70759">
        <ele>395</ele>
        <time>2016-08-24T15:52:34.000Z</time>
      </trkpt>
      <trkpt lat="47.54726" lon="6.70753">
        <ele>394</ele>
        <time>2016-08-24T15:52:35.000Z</time>
      </trkpt>
      <trkpt lat="47.54722" lon="6.70745">
        <ele>393</ele>
        <time>2016-08-24T15:52:36.000Z</time>
      </trkpt>
      <trkpt lat="47.54722" lon="6.70738">
        <ele>392</ele>
        <time>2016-08-24T15:52:37.000Z</time>
      </trkpt>
      <trkpt lat="47.54722" lon="6.7073">
        <ele>392</ele>
        <time>2016-08-24T15:52:38.000Z</time>
      </trkpt>
      <trkpt lat="47.54722" lon="6.70723">
        <ele>392</ele>
        <time>2016-08-24T15:52:39.000Z</time>
      </trkpt>
      <trkpt lat="47.54722" lon="6.70715">
        <ele>392</ele>
        <time>2016-08-24T15:52:40.000Z</time>
      </trkpt>
      <trkpt lat="47.54724" lon="6.70709">
        <ele>392</ele>
        <time>2016-08-24T15:52:41.000Z</time>
      </trkpt>
      <trkpt lat="47.54724" lon="6.70701">
        <ele>391</ele>
        <time>2016-08-24T15:52:42.000Z</time>
      </trkpt>
      <trkpt lat="47.54725" lon="6.70692">
        <ele>391</ele>
        <time>2016-08-24T15:52:43.000Z</time>
      </trkpt>
      <trkpt lat="47.54727" lon="6.70685">
        <ele>391</ele>
        <time>2016-08-24T15:52:44.000Z</time>
      </trkpt>
      <trkpt lat="47.54729" lon="6.70676">
        <ele>391</ele>
        <time>2016-08-24T15:52:45.000Z</time>
      </trkpt>
      <trkpt lat="47.54729" lon="6.70667">
        <ele>392</ele>
        <time>2016-08-24T15:52:46.000Z</time>
      </trkpt>
      <trkpt lat="47.54732" lon="6.70659">
        <ele>388</ele>
        <time>2016-08-24T15:52:47.000Z</time>
      </trkpt>
      <trkpt lat="47.54734" lon="6.70649">
        <ele>388</ele>
        <time>2016-08-24T15:52:48.000Z</time>
      </trkpt>
      <trkpt lat="47.54738" lon="6.70637">
        <ele>387</ele>
        <time>2016-08-24T15:52:49.000Z</time>
      </trkpt>
      <trkpt lat="47.54742" lon="6.70628">
        <ele>386</ele>
        <time>2016-08-24T15:52:50.000Z</time>
      </trkpt>
      <trkpt lat="47.54744" lon="6.70618">
        <ele>386</ele>
        <time>2016-08-24T15:52:51.000Z</time>
      </trkpt>
      <trkpt lat="47.54745" lon="6.70609">
        <ele>385</ele>
        <time>2016-08-24T15:52:52.000Z</time>
      </trkpt>
      <trkpt lat="47.54748" lon="6.706">
        <ele>385</ele>
        <time>2016-08-24T15:52:53.000Z</time>
      </trkpt>
      <trkpt lat="47.54749" lon="6.7059">
        <ele>385</ele>
        <time>2016-08-24T15:52:54.000Z</time>
      </trkpt>
      <trkpt lat="47.54752" lon="6.70582">
        <ele>385</ele>
        <time>2016-08-24T15:52:55.000Z</time>
      </trkpt>
      <trkpt lat="47.54755" lon="6.70572">
        <ele>384</ele>
        <time>2016-08-24T15:52:56.000Z</time>
      </trkpt>
      <trkpt lat="47.54756" lon="6.70562">
        <ele>383</ele>
        <time>2016-08-24T15:52:57.000Z</time>
      </trkpt>
      <trkpt lat="47.54757" lon="6.70555">
        <ele>383</ele>
        <time>2016-08-24T15:52:58.000Z</time>
      </trkpt>
      <trkpt lat="47.54757" lon="6.70549">
        <ele>382</ele>
        <time>2016-08-24T15:52:59.000Z</time>
      </trkpt>
      <trkpt lat="47.54757" lon="6.70543">
        <ele>382</ele>
        <time>2016-08-24T15:53:00.000Z</time>
      </trkpt>
      <trkpt lat="47.54756" lon="6.70539">
        <ele>381</ele>
        <time>2016-08-24T15:53:01.000Z</time>
      </trkpt>
      <trkpt lat="47.54756" lon="6.70535">
        <ele>381</ele>
        <time>2016-08-24T15:53:02.000Z</time>
      </trkpt>
      <trkpt lat="47.54756" lon="6.70529">
        <ele>380</ele>
        <time>2016-08-24T15:53:03.000Z</time>
      </trkpt>
      <trkpt lat="47.54756" lon="6.70523">
        <ele>379</ele>
        <time>2016-08-24T15:53:04.000Z</time>
      </trkpt>
      <trkpt lat="47.54754" lon="6.70517">
        <ele>378</ele>
        <time>2016-08-24T15:53:05.000Z</time>
      </trkpt>
      <trkpt lat="47.54752" lon="6.70511">
        <ele>377</ele>
        <time>2016-08-24T15:53:06.000Z</time>
      </trkpt>
      <trkpt lat="47.54751" lon="6.70503">
        <ele>375</ele>
        <time>2016-08-24T15:53:07.000Z</time>
      </trkpt>
      <trkpt lat="47.54747" lon="6.70495">
        <ele>373</ele>
        <time>2016-08-24T15:53:08.000Z</time>
      </trkpt>
      <trkpt lat="47.54745" lon="6.70488">
        <ele>371</ele>
        <time>2016-08-24T15:53:09.000Z</time>
      </trkpt>
      <trkpt lat="47.54744" lon="6.70482">
        <ele>371</ele>
        <time>2016-08-24T15:53:10.000Z</time>
      </trkpt>
      <trkpt lat="47.54738" lon="6.70476">
        <ele>370</ele>
        <time>2016-08-24T15:53:11.000Z</time>
      </trkpt>
      <trkpt lat="47.54732" lon="6.70477">
        <ele>370</ele>
        <time>2016-08-24T15:53:12.000Z</time>
      </trkpt>
      <trkpt lat="47.54727" lon="6.70481">
        <ele>370</ele>
        <time>2016-08-24T15:53:13.000Z</time>
      </trkpt>
      <trkpt lat="47.54721" lon="6.70485">
        <ele>370</ele>
        <time>2016-08-24T15:53:14.000Z</time>
      </trkpt>
      <trkpt lat="47.54716" lon="6.70489">
        <ele>370</ele>
        <time>2016-08-24T15:53:15.000Z</time>
      </trkpt>
      <trkpt lat="47.5471" lon="6.70491">
        <ele>369</ele>
        <time>2016-08-24T15:53:16.000Z</time>
      </trkpt>
      <trkpt lat="47.54705" lon="6.70497">
        <ele>369</ele>
        <time>2016-08-24T15:53:17.000Z</time>
      </trkpt>
      <trkpt lat="47.54699" lon="6.70501">
        <ele>374</ele>
        <time>2016-08-24T15:53:18.000Z</time>
      </trkpt>
      <trkpt lat="47.54694" lon="6.70504">
        <ele>374</ele>
        <time>2016-08-24T15:53:19.000Z</time>
      </trkpt>
      <trkpt lat="47.54688" lon="6.70509">
        <ele>374</ele>
        <time>2016-08-24T15:53:20.000Z</time>
      </trkpt>
      <trkpt lat="47.54683" lon="6.70512">
        <ele>373</ele>
        <time>2016-08-24T15:53:21.000Z</time>
      </trkpt>
      <trkpt lat="47.54676" lon="6.70515">
        <ele>373</ele>
        <time>2016-08-24T15:53:22.000Z</time>
      </trkpt>
      <trkpt lat="47.54671" lon="6.70519">
        <ele>373</ele>
        <time>2016-08-24T15:53:23.000Z</time>
      </trkpt>
      <trkpt lat="47.54666" lon="6.70523">
        <ele>371</ele>
        <time>2016-08-24T15:53:24.000Z</time>
      </trkpt>
      <trkpt lat="47.54661" lon="6.70526">
        <ele>372</ele>
        <time>2016-08-24T15:53:25.000Z</time>
      </trkpt>
      <trkpt lat="47.54655" lon="6.70527">
        <ele>372</ele>
        <time>2016-08-24T15:53:26.000Z</time>
      </trkpt>
      <trkpt lat="47.54649" lon="6.7053">
        <ele>372</ele>
        <time>2016-08-24T15:53:27.000Z</time>
      </trkpt>
      <trkpt lat="47.54643" lon="6.70531">
        <ele>372</ele>
        <time>2016-08-24T15:53:28.000Z</time>
      </trkpt>
      <trkpt lat="47.54636" lon="6.70532">
        <ele>372</ele>
        <time>2016-08-24T15:53:29.000Z</time>
      </trkpt>
      <trkpt lat="47.5463" lon="6.70534">
        <ele>372</ele>
        <time>2016-08-24T15:53:30.000Z</time>
      </trkpt>
      <trkpt lat="47.54625" lon="6.70532">
        <ele>372</ele>
        <time>2016-08-24T15:53:31.000Z</time>
      </trkpt>
      <trkpt lat="47.5462" lon="6.70532">
        <ele>372</ele>
        <time>2016-08-24T15:53:32.000Z</time>
      </trkpt>
      <trkpt lat="47.54615" lon="6.70534">
        <ele>372</ele>
        <time>2016-08-24T15:53:33.000Z</time>
      </trkpt>
      <trkpt lat="47.54611" lon="6.70534">
        <ele>372</ele>
        <time>2016-08-24T15:53:34.000Z</time>
      </trkpt>
      <trkpt lat="47.54605" lon="6.70535">
        <ele>372</ele>
        <time>2016-08-24T15:53:35.000Z</time>
      </trkpt>
      <trkpt lat="47.54599" lon="6.70533">
        <ele>372</ele>
        <time>2016-08-24T15:53:36.000Z</time>
      </trkpt>
      <trkpt lat="47.54594" lon="6.70534">
        <ele>372</ele>
        <time>2016-08-24T15:53:37.000Z</time>
      </trkpt>
      <trkpt lat="47.54587" lon="6.70533">
        <ele>371</ele>
        <time>2016-08-24T15:53:38.000Z</time>
      </trkpt>
      <trkpt lat="47.54582" lon="6.70537">
        <ele>371</ele>
        <time>2016-08-24T15:53:39.000Z</time>
      </trkpt>
      <trkpt lat="47.54575" lon="6.70537">
        <ele>371</ele>
        <time>2016-08-24T15:53:40.000Z</time>
      </trkpt>
      <trkpt lat="47.5457" lon="6.70537">
        <ele>371</ele>
        <time>2016-08-24T15:53:41.000Z</time>
      </trkpt>
      <trkpt lat="47.54564" lon="6.70538">
        <ele>372</ele>
        <time>2016-08-24T15:53:42.000Z</time>
      </trkpt>
      <trkpt lat="47.54556" lon="6.7054">
        <ele>372</ele>
        <time>2016-08-24T15:53:43.000Z</time>
      </trkpt>
      <trkpt lat="47.5455" lon="6.70538">
        <ele>372</ele>
        <time>2016-08-24T15:53:44.000Z</time>
      </trkpt>
      <trkpt lat="47.54542" lon="6.70538">
        <ele>372</ele>
        <time>2016-08-24T15:53:45.000Z</time>
      </trkpt>
      <trkpt lat="47.54538" lon="6.70538">
        <ele>372</ele>
        <time>2016-08-24T15:53:46.000Z</time>
      </trkpt>
      <trkpt lat="47.54533" lon="6.70538">
        <ele>372</ele>
        <time>2016-08-24T15:53:47.000Z</time>
      </trkpt>
      <trkpt lat="47.54527" lon="6.70539">
        <ele>372</ele>
        <time>2016-08-24T15:53:48.000Z</time>
      </trkpt>
      <trkpt lat="47.54518" lon="6.70546">
        <ele>372</ele>
        <time>2016-08-24T15:53:49.000Z</time>
      </trkpt>
      <trkpt lat="47.54513" lon="6.7055">
        <ele>372</ele>
        <time>2016-08-24T15:53:50.000Z</time>
      </trkpt>
      <trkpt lat="47.54508" lon="6.70552">
        <ele>372</ele>
        <time>2016-08-24T15:53:51.000Z</time>
      </trkpt>
      <trkpt lat="47.54501" lon="6.70555">
        <ele>372</ele>
        <time>2016-08-24T15:53:52.000Z</time>
      </trkpt>
      <trkpt lat="47.54496" lon="6.70554">
        <ele>373</ele>
        <time>2016-08-24T15:53:53.000Z</time>
      </trkpt>
      <trkpt lat="47.5449" lon="6.70556">
        <ele>373</ele>
        <time>2016-08-24T15:53:54.000Z</time>
      </trkpt>
      <trkpt lat="47.54485" lon="6.7056">
        <ele>373</ele>
        <time>2016-08-24T15:53:55.000Z</time>
      </trkpt>
      <trkpt lat="47.5448" lon="6.70564">
        <ele>373</ele>
        <time>2016-08-24T15:53:56.000Z</time>
      </trkpt>
      <trkpt lat="47.54476" lon="6.70567">
        <ele>373</ele>
        <time>2016-08-24T15:53:57.000Z</time>
      </trkpt>
      <trkpt lat="47.54471" lon="6.7057">
        <ele>373</ele>
        <time>2016-08-24T15:53:58.000Z</time>
      </trkpt>
      <trkpt lat="47.54467" lon="6.70574">
        <ele>373</ele>
        <time>2016-08-24T15:53:59.000Z</time>
      </trkpt>
      <trkpt lat="47.54463" lon="6.70576">
        <ele>373</ele>
        <time>2016-08-24T15:54:00.000Z</time>
      </trkpt>
      <trkpt lat="47.5446" lon="6.70579">
        <ele>373</ele>
        <time>2016-08-24T15:54:01.000Z</time>
      </trkpt>
      <trkpt lat="47.54456" lon="6.70573">
        <ele>373</ele>
        <time>2016-08-24T15:54:02.000Z</time>
      </trkpt>
      <trkpt lat="47.54451" lon="6.70575">
        <ele>373</ele>
        <time>2016-08-24T15:54:03.000Z</time>
      </trkpt>
      <trkpt lat="47.54447" lon="6.70579">
        <ele>373</ele>
        <time>2016-08-24T15:54:04.000Z</time>
      </trkpt>
      <trkpt lat="47.54442" lon="6.70583">
        <ele>373</ele>
        <time>2016-08-24T15:54:05.000Z</time>
      </trkpt>
      <trkpt lat="47.54439" lon="6.7059">
        <ele>374</ele>
        <time>2016-08-24T15:54:06.000Z</time>
      </trkpt>
      <trkpt lat="47.54436" lon="6.7059">
        <ele>374</ele>
        <time>2016-08-24T15:54:07.000Z</time>
      </trkpt>
      <trkpt lat="47.54431" lon="6.70592">
        <ele>373</ele>
        <time>2016-08-24T15:54:08.000Z</time>
      </trkpt>
      <trkpt lat="47.54428" lon="6.70594">
        <ele>373</ele>
        <time>2016-08-24T15:54:09.000Z</time>
      </trkpt>
      <trkpt lat="47.54424" lon="6.70596">
        <ele>373</ele>
        <time>2016-08-24T15:54:10.000Z</time>
      </trkpt>
      <trkpt lat="47.54421" lon="6.706">
        <ele>373</ele>
        <time>2016-08-24T15:54:11.000Z</time>
      </trkpt>
      <trkpt lat="47.54419" lon="6.70604">
        <ele>373</ele>
        <time>2016-08-24T15:54:12.000Z</time>
      </trkpt>
      <trkpt lat="47.54416" lon="6.70608">
        <ele>374</ele>
        <time>2016-08-24T15:54:13.000Z</time>
      </trkpt>
      <trkpt lat="47.54414" lon="6.70611">
        <ele>374</ele>
        <time>2016-08-24T15:54:14.000Z</time>
      </trkpt>
      <trkpt lat="47.54411" lon="6.70614">
        <ele>374</ele>
        <time>2016-08-24T15:54:15.000Z</time>
      </trkpt>
      <trkpt lat="47.54408" lon="6.70617">
        <ele>374</ele>
        <time>2016-08-24T15:54:16.000Z</time>
      </trkpt>
      <trkpt lat="47.54406" lon="6.7062">
        <ele>374</ele>
        <time>2016-08-24T15:54:17.000Z</time>
      </trkpt>
      <trkpt lat="47.54404" lon="6.70622">
        <ele>374</ele>
        <time>2016-08-24T15:54:18.000Z</time>
      </trkpt>
      <trkpt lat="47.54401" lon="6.70624">
        <ele>374</ele>
        <time>2016-08-24T15:54:19.000Z</time>
      </trkpt>
      <trkpt lat="47.54399" lon="6.70626">
        <ele>374</ele>
        <time>2016-08-24T15:54:20.000Z</time>
      </trkpt>
      <trkpt lat="47.54396" lon="6.70627">
        <ele>375</ele>
        <time>2016-08-24T15:54:21.000Z</time>
      </trkpt>
      <trkpt lat="47.54393" lon="6.70628">
        <ele>375</ele>
        <time>2016-08-24T15:54:22.000Z</time>
      </trkpt>
      <trkpt lat="47.5439" lon="6.70631">
        <ele>375</ele>
        <time>2016-08-24T15:54:23.000Z</time>
      </trkpt>
      <trkpt lat="47.54387" lon="6.70634">
        <ele>375</ele>
        <time>2016-08-24T15:54:24.000Z</time>
      </trkpt>
      <trkpt lat="47.54384" lon="6.70639">
        <ele>375</ele>
        <time>2016-08-24T15:54:25.000Z</time>
      </trkpt>
      <trkpt lat="47.54381" lon="6.70644">
        <ele>375</ele>
        <time>2016-08-24T15:54:26.000Z</time>
      </trkpt>
      <trkpt lat="47.54379" lon="6.70652">
        <ele>375</ele>
        <time>2016-08-24T15:54:27.000Z</time>
      </trkpt>
      <trkpt lat="47.54378" lon="6.70659">
        <ele>375</ele>
        <time>2016-08-24T15:54:28.000Z</time>
      </trkpt>
      <trkpt lat="47.54377" lon="6.70667">
        <ele>375</ele>
        <time>2016-08-24T15:54:29.000Z</time>
      </trkpt>
      <trkpt lat="47.54376" lon="6.70673">
        <ele>375</ele>
        <time>2016-08-24T15:54:30.000Z</time>
      </trkpt>
      <trkpt lat="47.54375" lon="6.70679">
        <ele>375</ele>
        <time>2016-08-24T15:54:31.000Z</time>
      </trkpt>
      <trkpt lat="47.54374" lon="6.70684">
        <ele>375</ele>
        <time>2016-08-24T15:54:32.000Z</time>
      </trkpt>
      <trkpt lat="47.54373" lon="6.70689">
        <ele>375</ele>
        <time>2016-08-24T15:54:33.000Z</time>
      </trkpt>
      <trkpt lat="47.54372" lon="6.70694">
        <ele>375</ele>
        <time>2016-08-24T15:54:34.000Z</time>
      </trkpt>
      <trkpt lat="47.5437" lon="6.70699">
        <ele>375</ele>
        <time>2016-08-24T15:54:35.000Z</time>
      </trkpt>
      <trkpt lat="47.54369" lon="6.70702">
        <ele>375</ele>
        <time>2016-08-24T15:54:35.999Z</time>
      </trkpt>
      <trkpt lat="47.54368" lon="6.70709">
        <ele>376</ele>
        <time>2016-08-24T15:54:37.000Z</time>
      </trkpt>
      <trkpt lat="47.54367" lon="6.70714">
        <ele>376</ele>
        <time>2016-08-24T15:54:38.000Z</time>
      </trkpt>
      <trkpt lat="47.54366" lon="6.70719">
        <ele>376</ele>
        <time>2016-08-24T15:54:39.000Z</time>
      </trkpt>
      <trkpt lat="47.54365" lon="6.70724">
        <ele>376</ele>
        <time>2016-08-24T15:54:40.000Z</time>
      </trkpt>
      <trkpt lat="47.54363" lon="6.70729">
        <ele>376</ele>
        <time>2016-08-24T15:54:41.000Z</time>
      </trkpt>
      <trkpt lat="47.54361" lon="6.70733">
        <ele>376</ele>
        <time>2016-08-24T15:54:42.000Z</time>
      </trkpt>
      <trkpt lat="47.54359" lon="6.70736">
        <ele>376</ele>
        <time>2016-08-24T15:54:43.000Z</time>
      </trkpt>
      <trkpt lat="47.54357" lon="6.70739">
        <ele>376</ele>
        <time>2016-08-24T15:54:44.000Z</time>
      </trkpt>
      <trkpt lat="47.54354" lon="6.70742">
        <ele>376</ele>
        <time>2016-08-24T15:54:45.000Z</time>
      </trkpt>
      <trkpt lat="47.54351" lon="6.70743">
        <ele>376</ele>
        <time>2016-08-24T15:54:46.000Z</time>
      </trkpt>
      <trkpt lat="47.54349" lon="6.70743">
        <ele>376</ele>
        <time>2016-08-24T15:54:47.000Z</time>
      </trkpt>
      <trkpt lat="47.54347" lon="6.70737">
        <ele>376</ele>
        <time>2016-08-24T15:54:50.000Z</time>
      </trkpt>
      <trkpt lat="47.54347" lon="6.70734">
        <ele>376</ele>
        <time>2016-08-24T15:54:51.000Z</time>
      </trkpt>
      <trkpt lat="47.54346" lon="6.70729">
        <ele>376</ele>
        <time>2016-08-24T15:54:52.000Z</time>
      </trkpt>
      <trkpt lat="47.54347" lon="6.70717">
        <ele>376</ele>
        <time>2016-08-24T15:54:53.000Z</time>
      </trkpt>
      <trkpt lat="47.54346" lon="6.70712">
        <ele>376</ele>
        <time>2016-08-24T15:54:54.000Z</time>
      </trkpt>
      <trkpt lat="47.54345" lon="6.70707">
        <ele>376</ele>
        <time>2016-08-24T15:54:55.000Z</time>
      </trkpt>
      <trkpt lat="47.54343" lon="6.707">
        <ele>376</ele>
        <time>2016-08-24T15:54:56.000Z</time>
      </trkpt>
      <trkpt lat="47.54341" lon="6.70694">
        <ele>376</ele>
        <time>2016-08-24T15:54:57.000Z</time>
      </trkpt>
      <trkpt lat="47.54339" lon="6.70688">
        <ele>376</ele>
        <time>2016-08-24T15:54:58.000Z</time>
      </trkpt>
      <trkpt lat="47.54335" lon="6.70685">
        <ele>376</ele>
        <time>2016-08-24T15:54:59.000Z</time>
      </trkpt>
      <trkpt lat="47.54332" lon="6.70683">
        <ele>377</ele>
        <time>2016-08-24T15:55:00.000Z</time>
      </trkpt>
      <trkpt lat="47.54327" lon="6.70681">
        <ele>377</ele>
        <time>2016-08-24T15:55:01.000Z</time>
      </trkpt>
      <trkpt lat="47.54323" lon="6.70686">
        <ele>377</ele>
        <time>2016-08-24T15:55:02.000Z</time>
      </trkpt>
      <trkpt lat="47.5432" lon="6.70685">
        <ele>378</ele>
        <time>2016-08-24T15:55:03.000Z</time>
      </trkpt>
      <trkpt lat="47.54317" lon="6.70686">
        <ele>378</ele>
        <time>2016-08-24T15:55:04.000Z</time>
      </trkpt>
      <trkpt lat="47.54315" lon="6.70688">
        <ele>378</ele>
        <time>2016-08-24T15:55:05.000Z</time>
      </trkpt>
      <trkpt lat="47.54312" lon="6.70689">
        <ele>378</ele>
        <time>2016-08-24T15:55:06.000Z</time>
      </trkpt>
      <trkpt lat="47.54309" lon="6.70692">
        <ele>378</ele>
        <time>2016-08-24T15:55:07.000Z</time>
      </trkpt>
      <trkpt lat="47.54305" lon="6.70694">
        <ele>378</ele>
        <time>2016-08-24T15:55:08.000Z</time>
      </trkpt>
      <trkpt lat="47.54303" lon="6.70697">
        <ele>378</ele>
        <time>2016-08-24T15:55:09.000Z</time>
      </trkpt>
      <trkpt lat="47.543" lon="6.70699">
        <ele>378</ele>
        <time>2016-08-24T15:55:10.000Z</time>
      </trkpt>
      <trkpt lat="47.54298" lon="6.70701">
        <ele>378</ele>
        <time>2016-08-24T15:55:11.000Z</time>
      </trkpt>
      <trkpt lat="47.54296" lon="6.70702">
        <ele>378</ele>
        <time>2016-08-24T15:55:12.000Z</time>
      </trkpt>
      <trkpt lat="47.54293" lon="6.70704">
        <ele>379</ele>
        <time>2016-08-24T15:55:13.000Z</time>
      </trkpt>
      <trkpt lat="47.5429" lon="6.70706">
        <ele>379</ele>
        <time>2016-08-24T15:55:14.000Z</time>
      </trkpt>
      <trkpt lat="47.54287" lon="6.70707">
        <ele>379</ele>
        <time>2016-08-24T15:55:15.000Z</time>
      </trkpt>
      <trkpt lat="47.54284" lon="6.70709">
        <ele>379</ele>
        <time>2016-08-24T15:55:16.000Z</time>
      </trkpt>
      <trkpt lat="47.5428" lon="6.70711">
        <ele>379</ele>
        <time>2016-08-24T15:55:17.000Z</time>
      </trkpt>
      <trkpt lat="47.54277" lon="6.70713">
        <ele>379</ele>
        <time>2016-08-24T15:55:18.000Z</time>
      </trkpt>
      <trkpt lat="47.54273" lon="6.70715">
        <ele>379</ele>
        <time>2016-08-24T15:55:19.000Z</time>
      </trkpt>
      <trkpt lat="47.54269" lon="6.70717">
        <ele>379</ele>
        <time>2016-08-24T15:55:20.000Z</time>
      </trkpt>
      <trkpt lat="47.54263" lon="6.70718">
        <ele>379</ele>
        <time>2016-08-24T15:55:21.000Z</time>
      </trkpt>
      <trkpt lat="47.5426" lon="6.7072">
        <ele>379</ele>
        <time>2016-08-24T15:55:22.000Z</time>
      </trkpt>
      <trkpt lat="47.54257" lon="6.70723">
        <ele>379</ele>
        <time>2016-08-24T15:55:23.000Z</time>
      </trkpt>
      <trkpt lat="47.54252" lon="6.70723">
        <ele>379</ele>
        <time>2016-08-24T15:55:24.000Z</time>
      </trkpt>
      <trkpt lat="47.54248" lon="6.70724">
        <ele>381</ele>
        <time>2016-08-24T15:55:25.000Z</time>
      </trkpt>
      <trkpt lat="47.54245" lon="6.70727">
        <ele>381</ele>
        <time>2016-08-24T15:55:26.000Z</time>
      </trkpt>
      <trkpt lat="47.54241" lon="6.70729">
        <ele>381</ele>
        <time>2016-08-24T15:55:27.000Z</time>
      </trkpt>
      <trkpt lat="47.54238" lon="6.70732">
        <ele>381</ele>
        <time>2016-08-24T15:55:28.000Z</time>
      </trkpt>
      <trkpt lat="47.54233" lon="6.70734">
        <ele>381</ele>
        <time>2016-08-24T15:55:29.000Z</time>
      </trkpt>
      <trkpt lat="47.54229" lon="6.70736">
        <ele>381</ele>
        <time>2016-08-24T15:55:30.000Z</time>
      </trkpt>
      <trkpt lat="47.54225" lon="6.70738">
        <ele>381</ele>
        <time>2016-08-24T15:55:31.000Z</time>
      </trkpt>
      <trkpt lat="47.54221" lon="6.70741">
        <ele>381</ele>
        <time>2016-08-24T15:55:32.000Z</time>
      </trkpt>
      <trkpt lat="47.54217" lon="6.70744">
        <ele>381</ele>
        <time>2016-08-24T15:55:33.000Z</time>
      </trkpt>
      <trkpt lat="47.54212" lon="6.70748">
        <ele>381</ele>
        <time>2016-08-24T15:55:34.000Z</time>
      </trkpt>
      <trkpt lat="47.54208" lon="6.7075">
        <ele>381</ele>
        <time>2016-08-24T15:55:35.000Z</time>
      </trkpt>
      <trkpt lat="47.54205" lon="6.70751">
        <ele>378</ele>
        <time>2016-08-24T15:55:36.000Z</time>
      </trkpt>
      <trkpt lat="47.54201" lon="6.70752">
        <ele>378</ele>
        <time>2016-08-24T15:55:37.000Z</time>
      </trkpt>
      <trkpt lat="47.54197" lon="6.70754">
        <ele>378</ele>
        <time>2016-08-24T15:55:38.000Z</time>
      </trkpt>
      <trkpt lat="47.54193" lon="6.70754">
        <ele>378</ele>
        <time>2016-08-24T15:55:39.000Z</time>
      </trkpt>
      <trkpt lat="47.54191" lon="6.70755">
        <ele>378</ele>
        <time>2016-08-24T15:55:40.000Z</time>
      </trkpt>
      <trkpt lat="47.54187" lon="6.70756">
        <ele>378</ele>
        <time>2016-08-24T15:55:41.000Z</time>
      </trkpt>
      <trkpt lat="47.54184" lon="6.70756">
        <ele>378</ele>
        <time>2016-08-24T15:55:42.000Z</time>
      </trkpt>
      <trkpt lat="47.54181" lon="6.70761">
        <ele>378</ele>
        <time>2016-08-24T15:55:43.000Z</time>
      </trkpt>
      <trkpt lat="47.54177" lon="6.70757">
        <ele>378</ele>
        <time>2016-08-24T15:55:44.000Z</time>
      </trkpt>
      <trkpt lat="47.54173" lon="6.70758">
        <ele>378</ele>
        <time>2016-08-24T15:55:45.000Z</time>
      </trkpt>
      <trkpt lat="47.54169" lon="6.70759">
        <ele>378</ele>
        <time>2016-08-24T15:55:46.000Z</time>
      </trkpt>
      <trkpt lat="47.54166" lon="6.7076">
        <ele>378</ele>
        <time>2016-08-24T15:55:47.000Z</time>
      </trkpt>
      <trkpt lat="47.54164" lon="6.70761">
        <ele>378</ele>
        <time>2016-08-24T15:55:48.000Z</time>
      </trkpt>
      <trkpt lat="47.54161" lon="6.70762">
        <ele>378</ele>
        <time>2016-08-24T15:55:49.000Z</time>
      </trkpt>
      <trkpt lat="47.54158" lon="6.70763">
        <ele>378</ele>
        <time>2016-08-24T15:55:51.000Z</time>
      </trkpt>
      <trkpt lat="47.54157" lon="6.70763">
        <ele>378</ele>
        <time>2016-08-24T15:55:52.000Z</time>
      </trkpt>
      <trkpt lat="47.54154" lon="6.70764">
        <ele>378</ele>
        <time>2016-08-24T15:55:53.000Z</time>
      </trkpt>
      <trkpt lat="47.54152" lon="6.70764">
        <ele>378</ele>
        <time>2016-08-24T15:55:54.000Z</time>
      </trkpt>
      <trkpt lat="47.54149" lon="6.70764">
        <ele>378</ele>
        <time>2016-08-24T15:55:55.000Z</time>
      </trkpt>
      <trkpt lat="47.54146" lon="6.70764">
        <ele>378</ele>
        <time>2016-08-24T15:55:56.000Z</time>
      </trkpt>
      <trkpt lat="47.54143" lon="6.70764">
        <ele>378</ele>
        <time>2016-08-24T15:55:57.000Z</time>
      </trkpt>
      <trkpt lat="47.54141" lon="6.70764">
        <ele>378</ele>
        <time>2016-08-24T15:55:58.000Z</time>
      </trkpt>
      <trkpt lat="47.54138" lon="6.70766">
        <ele>378</ele>
        <time>2016-08-24T15:55:59.000Z</time>
      </trkpt>
      <trkpt lat="47.54135" lon="6.70768">
        <ele>378</ele>
        <time>2016-08-24T15:56:00.000Z</time>
      </trkpt>
      <trkpt lat="47.54131" lon="6.70772">
        <ele>378</ele>
        <time>2016-08-24T15:56:01.000Z</time>
      </trkpt>
      <trkpt lat="47.54127" lon="6.70776">
        <ele>378</ele>
        <time>2016-08-24T15:56:02.000Z</time>
      </trkpt>
      <trkpt lat="47.54123" lon="6.7078">
        <ele>378</ele>
        <time>2016-08-24T15:56:03.000Z</time>
      </trkpt>
      <trkpt lat="47.54119" lon="6.70785">
        <ele>378</ele>
        <time>2016-08-24T15:56:04.000Z</time>
      </trkpt>
      <trkpt lat="47.54116" lon="6.70788">
        <ele>378</ele>
        <time>2016-08-24T15:56:05.000Z</time>
      </trkpt>
      <trkpt lat="47.54113" lon="6.70791">
        <ele>378</ele>
        <time>2016-08-24T15:56:06.000Z</time>
      </trkpt>
      <trkpt lat="47.54111" lon="6.70794">
        <ele>378</ele>
        <time>2016-08-24T15:56:07.000Z</time>
      </trkpt>
      <trkpt lat="47.54108" lon="6.70796">
        <ele>378</ele>
        <time>2016-08-24T15:56:08.000Z</time>
      </trkpt>
      <trkpt lat="47.54104" lon="6.70796">
        <ele>378</ele>
        <time>2016-08-24T15:56:12.000Z</time>
      </trkpt>
      <trkpt lat="47.54103" lon="6.70796">
        <ele>378</ele>
        <time>2016-08-24T15:56:13.000Z</time>
      </trkpt>
      <trkpt lat="47.54099" lon="6.70798">
        <ele>378</ele>
        <time>2016-08-24T15:56:15.000Z</time>
      </trkpt>
      <trkpt lat="47.54097" lon="6.70798">
        <ele>378</ele>
        <time>2016-08-24T15:56:16.000Z</time>
      </trkpt>
      <trkpt lat="47.54094" lon="6.70799">
        <ele>378</ele>
        <time>2016-08-24T15:56:17.000Z</time>
      </trkpt>
      <trkpt lat="47.54092" lon="6.708">
        <ele>379</ele>
        <time>2016-08-24T15:56:18.000Z</time>
      </trkpt>
      <trkpt lat="47.54088" lon="6.708">
        <ele>379</ele>
        <time>2016-08-24T15:56:20.000Z</time>
      </trkpt>
      <trkpt lat="47.54086" lon="6.708">
        <ele>379</ele>
        <time>2016-08-24T15:56:21.000Z</time>
      </trkpt>
      <trkpt lat="47.54082" lon="6.70798">
        <ele>383</ele>
        <time>2016-08-24T15:56:23.000Z</time>
      </trkpt>
      <trkpt lat="47.5408" lon="6.70798">
        <ele>384</ele>
        <time>2016-08-24T15:56:24.000Z</time>
      </trkpt>
      <trkpt lat="47.54077" lon="6.70798">
        <ele>384</ele>
        <time>2016-08-24T15:56:26.000Z</time>
      </trkpt>
      <trkpt lat="47.54074" lon="6.70798">
        <ele>384</ele>
        <time>2016-08-24T15:56:27.000Z</time>
      </trkpt>
      <trkpt lat="47.5407" lon="6.70798">
        <ele>384</ele>
        <time>2016-08-24T15:56:29.000Z</time>
      </trkpt>
      <trkpt lat="47.54069" lon="6.70799">
        <ele>384</ele>
        <time>2016-08-24T15:56:30.000Z</time>
      </trkpt>
      <trkpt lat="47.54064" lon="6.708">
        <ele>384</ele>
        <time>2016-08-24T15:56:33.000Z</time>
      </trkpt>
      <trkpt lat="47.54063" lon="6.70801">
        <ele>384</ele>
        <time>2016-08-24T15:56:34.000Z</time>
      </trkpt>
      <trkpt lat="47.54059" lon="6.708">
        <ele>385</ele>
        <time>2016-08-24T15:56:37.000Z</time>
      </trkpt>
      <trkpt lat="47.54057" lon="6.708">
        <ele>385</ele>
        <time>2016-08-24T15:56:38.000Z</time>
      </trkpt>
      <trkpt lat="47.54054" lon="6.708">
        <ele>385</ele>
        <time>2016-08-24T15:56:40.000Z</time>
      </trkpt>
      <trkpt lat="47.54052" lon="6.70801">
        <ele>385</ele>
        <time>2016-08-24T15:56:41.000Z</time>
      </trkpt>
      <trkpt lat="47.54048" lon="6.70803">
        <ele>386</ele>
        <time>2016-08-24T15:56:43.000Z</time>
      </trkpt>
      <trkpt lat="47.54045" lon="6.70805">
        <ele>386</ele>
        <time>2016-08-24T15:56:44.000Z</time>
      </trkpt>
      <trkpt lat="47.54042" lon="6.70807">
        <ele>386</ele>
        <time>2016-08-24T15:56:46.000Z</time>
      </trkpt>
      <trkpt lat="47.5404" lon="6.70808">
        <ele>386</ele>
        <time>2016-08-24T15:56:47.000Z</time>
      </trkpt>
      <trkpt lat="47.54036" lon="6.70811">
        <ele>387</ele>
        <time>2016-08-24T15:56:50.000Z</time>
      </trkpt>
      <trkpt lat="47.54035" lon="6.70812">
        <ele>387</ele>
        <time>2016-08-24T15:56:51.000Z</time>
      </trkpt>
      <trkpt lat="47.54033" lon="6.70815">
        <ele>387</ele>
        <time>2016-08-24T15:56:54.000Z</time>
      </trkpt>
      <trkpt lat="47.54032" lon="6.70816">
        <ele>387</ele>
        <time>2016-08-24T15:56:55.000Z</time>
      </trkpt>
      <trkpt lat="47.54029" lon="6.7082">
        <ele>388</ele>
        <time>2016-08-24T15:56:57.000Z</time>
      </trkpt>
      <trkpt lat="47.54027" lon="6.70822">
        <ele>388</ele>
        <time>2016-08-24T15:56:58.000Z</time>
      </trkpt>
      <trkpt lat="47.54025" lon="6.70824">
        <ele>388</ele>
        <time>2016-08-24T15:56:59.000Z</time>
      </trkpt>
      <trkpt lat="47.54023" lon="6.70826">
        <ele>389</ele>
        <time>2016-08-24T15:57:00.000Z</time>
      </trkpt>
      <trkpt lat="47.54019" lon="6.7083">
        <ele>389</ele>
        <time>2016-08-24T15:57:01.999Z</time>
      </trkpt>
      <trkpt lat="47.54017" lon="6.70831">
        <ele>389</ele>
        <time>2016-08-24T15:57:03.000Z</time>
      </trkpt>
      <trkpt lat="47.54014" lon="6.70834">
        <ele>390</ele>
        <time>2016-08-24T15:57:06.000Z</time>
      </trkpt>
      <trkpt lat="47.54013" lon="6.70835">
        <ele>390</ele>
        <time>2016-08-24T15:57:07.000Z</time>
      </trkpt>
      <trkpt lat="47.5401" lon="6.70838">
        <ele>391</ele>
        <time>2016-08-24T15:57:09.000Z</time>
      </trkpt>
      <trkpt lat="47.54009" lon="6.7084">
        <ele>391</ele>
        <time>2016-08-24T15:57:10.000Z</time>
      </trkpt>
      <trkpt lat="47.54005" lon="6.70843">
        <ele>391</ele>
        <time>2016-08-24T15:57:13.000Z</time>
      </trkpt>
      <trkpt lat="47.54004" lon="6.70844">
        <ele>391</ele>
        <time>2016-08-24T15:57:14.000Z</time>
      </trkpt>
      <trkpt lat="47.54" lon="6.70846">
        <ele>391</ele>
        <time>2016-08-24T15:57:16.000Z</time>
      </trkpt>
      <trkpt lat="47.53999" lon="6.70847">
        <ele>396</ele>
        <time>2016-08-24T15:57:17.000Z</time>
      </trkpt>
      <trkpt lat="47.53995" lon="6.70849">
        <ele>397</ele>
        <time>2016-08-24T15:57:19.000Z</time>
      </trkpt>
      <trkpt lat="47.53994" lon="6.70851">
        <ele>397</ele>
        <time>2016-08-24T15:57:20.000Z</time>
      </trkpt>
      <trkpt lat="47.5399" lon="6.70855">
        <ele>398</ele>
        <time>2016-08-24T15:57:22.000Z</time>
      </trkpt>
      <trkpt lat="47.53988" lon="6.70857">
        <ele>398</ele>
        <time>2016-08-24T15:57:23.000Z</time>
      </trkpt>
      <trkpt lat="47.53986" lon="6.7086">
        <ele>399</ele>
        <time>2016-08-24T15:57:25.000Z</time>
      </trkpt>
      <trkpt lat="47.53985" lon="6.70861">
        <ele>399</ele>
        <time>2016-08-24T15:57:26.000Z</time>
      </trkpt>
      <trkpt lat="47.53982" lon="6.70864">
        <ele>399</ele>
        <time>2016-08-24T15:57:28.000Z</time>
      </trkpt>
      <trkpt lat="47.53981" lon="6.70865">
        <ele>399</ele>
        <time>2016-08-24T15:57:29.000Z</time>
      </trkpt>
      <trkpt lat="47.53977" lon="6.70867">
        <ele>400</ele>
        <time>2016-08-24T15:57:32.000Z</time>
      </trkpt>
      <trkpt lat="47.53976" lon="6.70868">
        <ele>400</ele>
        <time>2016-08-24T15:57:33.000Z</time>
      </trkpt>
      <trkpt lat="47.53973" lon="6.70872">
        <ele>400</ele>
        <time>2016-08-24T15:57:35.000Z</time>
      </trkpt>
      <trkpt lat="47.53971" lon="6.70873">
        <ele>400</ele>
        <time>2016-08-24T15:57:36.000Z</time>
      </trkpt>
      <trkpt lat="47.53968" lon="6.70876">
        <ele>401</ele>
        <time>2016-08-24T15:57:38.000Z</time>
      </trkpt>
      <trkpt lat="47.53967" lon="6.70876">
        <ele>401</ele>
        <time>2016-08-24T15:57:39.000Z</time>
      </trkpt>
      <trkpt lat="47.53962" lon="6.70876">
        <ele>401</ele>
        <time>2016-08-24T15:57:42.000Z</time>
      </trkpt>
      <trkpt lat="47.53961" lon="6.70877">
        <ele>402</ele>
        <time>2016-08-24T15:57:43.000Z</time>
      </trkpt>
      <trkpt lat="47.53959" lon="6.70878">
        <ele>402</ele>
        <time>2016-08-24T15:57:44.000Z</time>
      </trkpt>
      <trkpt lat="47.53957" lon="6.7088">
        <ele>402</ele>
        <time>2016-08-24T15:57:45.000Z</time>
      </trkpt>
      <trkpt lat="47.53954" lon="6.70882">
        <ele>402</ele>
        <time>2016-08-24T15:57:46.000Z</time>
      </trkpt>
      <trkpt lat="47.53952" lon="6.70883">
        <ele>402</ele>
        <time>2016-08-24T15:57:47.000Z</time>
      </trkpt>
      <trkpt lat="47.53948" lon="6.70884">
        <ele>403</ele>
        <time>2016-08-24T15:57:49.000Z</time>
      </trkpt>
      <trkpt lat="47.53947" lon="6.70885">
        <ele>403</ele>
        <time>2016-08-24T15:57:50.000Z</time>
      </trkpt>
      <trkpt lat="47.53943" lon="6.70887">
        <ele>404</ele>
        <time>2016-08-24T15:57:53.000Z</time>
      </trkpt>
      <trkpt lat="47.53942" lon="6.70888">
        <ele>404</ele>
        <time>2016-08-24T15:57:54.000Z</time>
      </trkpt>
      <trkpt lat="47.53938" lon="6.70889">
        <ele>404</ele>
        <time>2016-08-24T15:57:57.000Z</time>
      </trkpt>
      <trkpt lat="47.53936" lon="6.7089">
        <ele>404</ele>
        <time>2016-08-24T15:57:58.000Z</time>
      </trkpt>
      <trkpt lat="47.53933" lon="6.7089">
        <ele>405</ele>
        <time>2016-08-24T15:58:00.000Z</time>
      </trkpt>
      <trkpt lat="47.53931" lon="6.7089">
        <ele>405</ele>
        <time>2016-08-24T15:58:01.000Z</time>
      </trkpt>
      <trkpt lat="47.53927" lon="6.7089">
        <ele>405</ele>
        <time>2016-08-24T15:58:03.000Z</time>
      </trkpt>
      <trkpt lat="47.53925" lon="6.7089">
        <ele>405</ele>
        <time>2016-08-24T15:58:04.000Z</time>
      </trkpt>
      <trkpt lat="47.5392" lon="6.7089">
        <ele>405</ele>
        <time>2016-08-24T15:58:06.000Z</time>
      </trkpt>
      <trkpt lat="47.53919" lon="6.70889">
        <ele>406</ele>
        <time>2016-08-24T15:58:07.000Z</time>
      </trkpt>
      <trkpt lat="47.53915" lon="6.70889">
        <ele>411</ele>
        <time>2016-08-24T15:58:09.000Z</time>
      </trkpt>
      <trkpt lat="47.53913" lon="6.70889">
        <ele>411</ele>
        <time>2016-08-24T15:58:10.000Z</time>
      </trkpt>
      <trkpt lat="47.53909" lon="6.70889">
        <ele>411</ele>
        <time>2016-08-24T15:58:12.000Z</time>
      </trkpt>
      <trkpt lat="47.53908" lon="6.70889">
        <ele>411</ele>
        <time>2016-08-24T15:58:13.000Z</time>
      </trkpt>
      <trkpt lat="47.53904" lon="6.70889">
        <ele>411</ele>
        <time>2016-08-24T15:58:16.000Z</time>
      </trkpt>
      <trkpt lat="47.53902" lon="6.70888">
        <ele>411</ele>
        <time>2016-08-24T15:58:17.000Z</time>
      </trkpt>
      <trkpt lat="47.53897" lon="6.70888">
        <ele>411</ele>
        <time>2016-08-24T15:58:19.000Z</time>
      </trkpt>
      <trkpt lat="47.53895" lon="6.70888">
        <ele>411</ele>
        <time>2016-08-24T15:58:20.000Z</time>
      </trkpt>
      <trkpt lat="47.53893" lon="6.70888">
        <ele>411</ele>
        <time>2016-08-24T15:58:21.000Z</time>
      </trkpt>
      <trkpt lat="47.5389" lon="6.70888">
        <ele>411</ele>
        <time>2016-08-24T15:58:22.000Z</time>
      </trkpt>
      <trkpt lat="47.53888" lon="6.70889">
        <ele>412</ele>
        <time>2016-08-24T15:58:23.000Z</time>
      </trkpt>
      <trkpt lat="47.53885" lon="6.70889">
        <ele>412</ele>
        <time>2016-08-24T15:58:24.000Z</time>
      </trkpt>
      <trkpt lat="47.53883" lon="6.7089">
        <ele>412</ele>
        <time>2016-08-24T15:58:25.000Z</time>
      </trkpt>
      <trkpt lat="47.5388" lon="6.7089">
        <ele>412</ele>
        <time>2016-08-24T15:58:26.000Z</time>
      </trkpt>
      <trkpt lat="47.53877" lon="6.70891">
        <ele>412</ele>
        <time>2016-08-24T15:58:27.000Z</time>
      </trkpt>
      <trkpt lat="47.53874" lon="6.70891">
        <ele>412</ele>
        <time>2016-08-24T15:58:28.000Z</time>
      </trkpt>
      <trkpt lat="47.5387" lon="6.70891">
        <ele>412</ele>
        <time>2016-08-24T15:58:29.000Z</time>
      </trkpt>
      <trkpt lat="47.53868" lon="6.70891">
        <ele>412</ele>
        <time>2016-08-24T15:58:29.999Z</time>
      </trkpt>
      <trkpt lat="47.53863" lon="6.7089">
        <ele>412</ele>
        <time>2016-08-24T15:58:31.000Z</time>
      </trkpt>
      <trkpt lat="47.5386" lon="6.70889">
        <ele>412</ele>
        <time>2016-08-24T15:58:32.000Z</time>
      </trkpt>
      <trkpt lat="47.53857" lon="6.70888">
        <ele>412</ele>
        <time>2016-08-24T15:58:33.000Z</time>
      </trkpt>
      <trkpt lat="47.53854" lon="6.70887">
        <ele>412</ele>
        <time>2016-08-24T15:58:34.000Z</time>
      </trkpt>
      <trkpt lat="47.53851" lon="6.70885">
        <ele>412</ele>
        <time>2016-08-24T15:58:35.000Z</time>
      </trkpt>
      <trkpt lat="47.53844" lon="6.70875">
        <ele>412</ele>
        <time>2016-08-24T15:58:36.000Z</time>
      </trkpt>
      <trkpt lat="47.53841" lon="6.70873">
        <ele>412</ele>
        <time>2016-08-24T15:58:37.000Z</time>
      </trkpt>
      <trkpt lat="47.53836" lon="6.70869">
        <ele>413</ele>
        <time>2016-08-24T15:58:38.000Z</time>
      </trkpt>
      <trkpt lat="47.53832" lon="6.70866">
        <ele>412</ele>
        <time>2016-08-24T15:58:39.000Z</time>
      </trkpt>
      <trkpt lat="47.53828" lon="6.7086">
        <ele>412</ele>
        <time>2016-08-24T15:58:40.000Z</time>
      </trkpt>
      <trkpt lat="47.53825" lon="6.7086">
        <ele>412</ele>
        <time>2016-08-24T15:58:41.000Z</time>
      </trkpt>
      <trkpt lat="47.5382" lon="6.70857">
        <ele>412</ele>
        <time>2016-08-24T15:58:42.000Z</time>
      </trkpt>
      <trkpt lat="47.53815" lon="6.70854">
        <ele>412</ele>
        <time>2016-08-24T15:58:43.000Z</time>
      </trkpt>
      <trkpt lat="47.53811" lon="6.70852">
        <ele>412</ele>
        <time>2016-08-24T15:58:44.000Z</time>
      </trkpt>
      <trkpt lat="47.53807" lon="6.70851">
        <ele>412</ele>
        <time>2016-08-24T15:58:45.000Z</time>
      </trkpt>
      <trkpt lat="47.53802" lon="6.70848">
        <ele>412</ele>
        <time>2016-08-24T15:58:46.000Z</time>
      </trkpt>
      <trkpt lat="47.53796" lon="6.70848">
        <ele>411</ele>
        <time>2016-08-24T15:58:47.000Z</time>
      </trkpt>
      <trkpt lat="47.53791" lon="6.70846">
        <ele>411</ele>
        <time>2016-08-24T15:58:48.000Z</time>
      </trkpt>
      <trkpt lat="47.53785" lon="6.70842">
        <ele>411</ele>
        <time>2016-08-24T15:58:49.000Z</time>
      </trkpt>
      <trkpt lat="47.53781" lon="6.70838">
        <ele>411</ele>
        <time>2016-08-24T15:58:50.000Z</time>
      </trkpt>
      <trkpt lat="47.53776" lon="6.70835">
        <ele>411</ele>
        <time>2016-08-24T15:58:51.000Z</time>
      </trkpt>
      <trkpt lat="47.53771" lon="6.70832">
        <ele>412</ele>
        <time>2016-08-24T15:58:52.000Z</time>
      </trkpt>
      <trkpt lat="47.53764" lon="6.70828">
        <ele>411</ele>
        <time>2016-08-24T15:58:53.000Z</time>
      </trkpt>
      <trkpt lat="47.53758" lon="6.70827">
        <ele>411</ele>
        <time>2016-08-24T15:58:54.000Z</time>
      </trkpt>
      <trkpt lat="47.53754" lon="6.70823">
        <ele>411</ele>
        <time>2016-08-24T15:58:55.000Z</time>
      </trkpt>
      <trkpt lat="47.53749" lon="6.70819">
        <ele>408</ele>
        <time>2016-08-24T15:58:56.000Z</time>
      </trkpt>
      <trkpt lat="47.53745" lon="6.70815">
        <ele>408</ele>
        <time>2016-08-24T15:58:57.000Z</time>
      </trkpt>
      <trkpt lat="47.5374" lon="6.70809">
        <ele>408</ele>
        <time>2016-08-24T15:58:58.000Z</time>
      </trkpt>
      <trkpt lat="47.53738" lon="6.70806">
        <ele>407</ele>
        <time>2016-08-24T15:58:59.000Z</time>
      </trkpt>
      <trkpt lat="47.53735" lon="6.70804">
        <ele>407</ele>
        <time>2016-08-24T15:59:00.000Z</time>
      </trkpt>
      <trkpt lat="47.53729" lon="6.70804">
        <ele>407</ele>
        <time>2016-08-24T15:59:01.000Z</time>
      </trkpt>
      <trkpt lat="47.53724" lon="6.70803">
        <ele>407</ele>
        <time>2016-08-24T15:59:02.000Z</time>
      </trkpt>
      <trkpt lat="47.5372" lon="6.708">
        <ele>407</ele>
        <time>2016-08-24T15:59:03.000Z</time>
      </trkpt>
      <trkpt lat="47.53716" lon="6.70796">
        <ele>406</ele>
        <time>2016-08-24T15:59:04.000Z</time>
      </trkpt>
      <trkpt lat="47.5371" lon="6.70789">
        <ele>406</ele>
        <time>2016-08-24T15:59:05.000Z</time>
      </trkpt>
      <trkpt lat="47.53704" lon="6.70784">
        <ele>406</ele>
        <time>2016-08-24T15:59:06.000Z</time>
      </trkpt>
      <trkpt lat="47.53698" lon="6.70782">
        <ele>405</ele>
        <time>2016-08-24T15:59:07.000Z</time>
      </trkpt>
      <trkpt lat="47.53692" lon="6.70779">
        <ele>405</ele>
        <time>2016-08-24T15:59:08.000Z</time>
      </trkpt>
      <trkpt lat="47.53689" lon="6.70773">
        <ele>405</ele>
        <time>2016-08-24T15:59:09.000Z</time>
      </trkpt>
      <trkpt lat="47.53684" lon="6.70768">
        <ele>405</ele>
        <time>2016-08-24T15:59:10.000Z</time>
      </trkpt>
      <trkpt lat="47.53678" lon="6.70764">
        <ele>404</ele>
        <time>2016-08-24T15:59:11.000Z</time>
      </trkpt>
      <trkpt lat="47.53672" lon="6.70753">
        <ele>403</ele>
        <time>2016-08-24T15:59:12.000Z</time>
      </trkpt>
      <trkpt lat="47.53664" lon="6.70747">
        <ele>402</ele>
        <time>2016-08-24T15:59:13.000Z</time>
      </trkpt>
      <trkpt lat="47.53657" lon="6.70739">
        <ele>403</ele>
        <time>2016-08-24T15:59:14.000Z</time>
      </trkpt>
      <trkpt lat="47.53652" lon="6.7073">
        <ele>404</ele>
        <time>2016-08-24T15:59:15.000Z</time>
      </trkpt>
      <trkpt lat="47.53642" lon="6.70724">
        <ele>404</ele>
        <time>2016-08-24T15:59:16.000Z</time>
      </trkpt>
      <trkpt lat="47.53634" lon="6.70718">
        <ele>404</ele>
        <time>2016-08-24T15:59:17.000Z</time>
      </trkpt>
      <trkpt lat="47.53628" lon="6.70712">
        <ele>405</ele>
        <time>2016-08-24T15:59:18.000Z</time>
      </trkpt>
      <trkpt lat="47.53622" lon="6.70706">
        <ele>405</ele>
        <time>2016-08-24T15:59:19.000Z</time>
      </trkpt>
      <trkpt lat="47.53622" lon="6.70701">
        <ele>405</ele>
        <time>2016-08-24T15:59:21.000Z</time>
      </trkpt>
      <trkpt lat="47.53621" lon="6.70699">
        <ele>405</ele>
        <time>2016-08-24T15:59:22.000Z</time>
      </trkpt>
      <trkpt lat="47.53617" lon="6.70696">
        <ele>405</ele>
        <time>2016-08-24T15:59:24.000Z</time>
      </trkpt>
      <trkpt lat="47.53614" lon="6.70693">
        <ele>405</ele>
        <time>2016-08-24T15:59:25.000Z</time>
      </trkpt>
      <trkpt lat="47.53616" lon="6.70688">
        <ele>405</ele>
        <time>2016-08-24T15:59:32.000Z</time>
      </trkpt>
      <trkpt lat="47.53617" lon="6.70686">
        <ele>406</ele>
        <time>2016-08-24T15:59:33.000Z</time>
      </trkpt>
      <trkpt lat="47.53615" lon="6.70681">
        <ele>406</ele>
        <time>2016-08-24T15:59:36.000Z</time>
      </trkpt>
      <trkpt lat="47.53613" lon="6.70679">
        <ele>406</ele>
        <time>2016-08-24T15:59:37.000Z</time>
      </trkpt>
      <trkpt lat="47.5361" lon="6.70677">
        <ele>406</ele>
        <time>2016-08-24T15:59:38.000Z</time>
      </trkpt>
      <trkpt lat="47.53608" lon="6.70675">
        <ele>406</ele>
        <time>2016-08-24T15:59:39.000Z</time>
      </trkpt>
      <trkpt lat="47.53605" lon="6.70673">
        <ele>406</ele>
        <time>2016-08-24T15:59:40.000Z</time>
      </trkpt>
      <trkpt lat="47.53603" lon="6.7067">
        <ele>406</ele>
        <time>2016-08-24T15:59:41.000Z</time>
      </trkpt>
      <trkpt lat="47.53601" lon="6.70668">
        <ele>406</ele>
        <time>2016-08-24T15:59:42.000Z</time>
      </trkpt>
      <trkpt lat="47.53599" lon="6.70666">
        <ele>409</ele>
        <time>2016-08-24T15:59:43.000Z</time>
      </trkpt>
      <trkpt lat="47.53596" lon="6.70665">
        <ele>409</ele>
        <time>2016-08-24T15:59:44.000Z</time>
      </trkpt>
      <trkpt lat="47.53594" lon="6.70663">
        <ele>409</ele>
        <time>2016-08-24T15:59:45.000Z</time>
      </trkpt>
      <trkpt lat="47.53592" lon="6.70661">
        <ele>409</ele>
        <time>2016-08-24T15:59:46.000Z</time>
      </trkpt>
      <trkpt lat="47.5359" lon="6.70658">
        <ele>409</ele>
        <time>2016-08-24T15:59:47.000Z</time>
      </trkpt>
      <trkpt lat="47.53587" lon="6.70656">
        <ele>409</ele>
        <time>2016-08-24T15:59:48.000Z</time>
      </trkpt>
      <trkpt lat="47.53584" lon="6.70653">
        <ele>409</ele>
        <time>2016-08-24T15:59:49.000Z</time>
      </trkpt>
      <trkpt lat="47.53581" lon="6.70649">
        <ele>409</ele>
        <time>2016-08-24T15:59:50.000Z</time>
      </trkpt>
      <trkpt lat="47.53577" lon="6.70646">
        <ele>410</ele>
        <time>2016-08-24T15:59:51.000Z</time>
      </trkpt>
      <trkpt lat="47.53574" lon="6.70642">
        <ele>410</ele>
        <time>2016-08-24T15:59:52.000Z</time>
      </trkpt>
      <trkpt lat="47.53573" lon="6.70639">
        <ele>410</ele>
        <time>2016-08-24T15:59:52.998Z</time>
      </trkpt>
      <trkpt lat="47.53569" lon="6.70636">
        <ele>410</ele>
        <time>2016-08-24T15:59:54.000Z</time>
      </trkpt>
      <trkpt lat="47.53566" lon="6.70634">
        <ele>410</ele>
        <time>2016-08-24T15:59:55.000Z</time>
      </trkpt>
      <trkpt lat="47.53563" lon="6.70633">
        <ele>410</ele>
        <time>2016-08-24T15:59:56.000Z</time>
      </trkpt>
      <trkpt lat="47.53561" lon="6.70632">
        <ele>410</ele>
        <time>2016-08-24T15:59:57.000Z</time>
      </trkpt>
      <trkpt lat="47.53558" lon="6.7063">
        <ele>411</ele>
        <time>2016-08-24T15:59:59.000Z</time>
      </trkpt>
      <trkpt lat="47.53556" lon="6.70628">
        <ele>411</ele>
        <time>2016-08-24T16:00:00.000Z</time>
      </trkpt>
      <trkpt lat="47.53552" lon="6.70626">
        <ele>411</ele>
        <time>2016-08-24T16:00:01.000Z</time>
      </trkpt>
      <trkpt lat="47.53549" lon="6.70625">
        <ele>411</ele>
        <time>2016-08-24T16:00:02.000Z</time>
      </trkpt>
      <trkpt lat="47.53545" lon="6.70625">
        <ele>411</ele>
        <time>2016-08-24T16:00:03.000Z</time>
      </trkpt>
      <trkpt lat="47.53541" lon="6.70625">
        <ele>411</ele>
        <time>2016-08-24T16:00:04.000Z</time>
      </trkpt>
      <trkpt lat="47.53537" lon="6.70624">
        <ele>411</ele>
        <time>2016-08-24T16:00:05.000Z</time>
      </trkpt>
      <trkpt lat="47.53533" lon="6.70623">
        <ele>411</ele>
        <time>2016-08-24T16:00:06.000Z</time>
      </trkpt>
      <trkpt lat="47.53529" lon="6.70621">
        <ele>411</ele>
        <time>2016-08-24T16:00:07.000Z</time>
      </trkpt>
      <trkpt lat="47.53525" lon="6.7062">
        <ele>411</ele>
        <time>2016-08-24T16:00:08.000Z</time>
      </trkpt>
      <trkpt lat="47.53522" lon="6.70618">
        <ele>411</ele>
        <time>2016-08-24T16:00:09.000Z</time>
      </trkpt>
      <trkpt lat="47.53519" lon="6.70616">
        <ele>411</ele>
        <time>2016-08-24T16:00:10.000Z</time>
      </trkpt>
      <trkpt lat="47.53516" lon="6.70613">
        <ele>411</ele>
        <time>2016-08-24T16:00:11.000Z</time>
      </trkpt>
      <trkpt lat="47.53514" lon="6.70611">
        <ele>412</ele>
        <time>2016-08-24T16:00:12.000Z</time>
      </trkpt>
      <trkpt lat="47.53512" lon="6.70608">
        <ele>412</ele>
        <time>2016-08-24T16:00:13.000Z</time>
      </trkpt>
      <trkpt lat="47.5351" lon="6.70606">
        <ele>412</ele>
        <time>2016-08-24T16:00:14.000Z</time>
      </trkpt>
      <trkpt lat="47.53507" lon="6.70603">
        <ele>412</ele>
        <time>2016-08-24T16:00:15.000Z</time>
      </trkpt>
      <trkpt lat="47.53504" lon="6.706">
        <ele>412</ele>
        <time>2016-08-24T16:00:16.000Z</time>
      </trkpt>
      <trkpt lat="47.535" lon="6.70597">
        <ele>413</ele>
        <time>2016-08-24T16:00:17.000Z</time>
      </trkpt>
      <trkpt lat="47.53497" lon="6.70594">
        <ele>412</ele>
        <time>2016-08-24T16:00:18.000Z</time>
      </trkpt>
      <trkpt lat="47.53493" lon="6.70591">
        <ele>412</ele>
        <time>2016-08-24T16:00:19.000Z</time>
      </trkpt>
      <trkpt lat="47.53489" lon="6.70588">
        <ele>412</ele>
        <time>2016-08-24T16:00:20.000Z</time>
      </trkpt>
      <trkpt lat="47.53485" lon="6.70585">
        <ele>412</ele>
        <time>2016-08-24T16:00:21.000Z</time>
      </trkpt>
      <trkpt lat="47.53481" lon="6.70582">
        <ele>414</ele>
        <time>2016-08-24T16:00:22.000Z</time>
      </trkpt>
      <trkpt lat="47.53477" lon="6.70578">
        <ele>414</ele>
        <time>2016-08-24T16:00:23.000Z</time>
      </trkpt>
      <trkpt lat="47.53473" lon="6.70574">
        <ele>414</ele>
        <time>2016-08-24T16:00:24.000Z</time>
      </trkpt>
      <trkpt lat="47.53469" lon="6.70569">
        <ele>414</ele>
        <time>2016-08-24T16:00:25.000Z</time>
      </trkpt>
      <trkpt lat="47.53466" lon="6.70565">
        <ele>414</ele>
        <time>2016-08-24T16:00:26.000Z</time>
      </trkpt>
      <trkpt lat="47.53463" lon="6.70561">
        <ele>414</ele>
        <time>2016-08-24T16:00:27.000Z</time>
      </trkpt>
      <trkpt lat="47.53459" lon="6.70558">
        <ele>414</ele>
        <time>2016-08-24T16:00:28.000Z</time>
      </trkpt>
      <trkpt lat="47.53455" lon="6.70555">
        <ele>414</ele>
        <time>2016-08-24T16:00:29.000Z</time>
      </trkpt>
      <trkpt lat="47.53451" lon="6.70552">
        <ele>414</ele>
        <time>2016-08-24T16:00:30.000Z</time>
      </trkpt>
      <trkpt lat="47.53446" lon="6.70549">
        <ele>414</ele>
        <time>2016-08-24T16:00:31.000Z</time>
      </trkpt>
      <trkpt lat="47.53442" lon="6.70547">
        <ele>413</ele>
        <time>2016-08-24T16:00:32.000Z</time>
      </trkpt>
      <trkpt lat="47.53438" lon="6.70545">
        <ele>413</ele>
        <time>2016-08-24T16:00:33.000Z</time>
      </trkpt>
      <trkpt lat="47.53435" lon="6.70544">
        <ele>413</ele>
        <time>2016-08-24T16:00:34.000Z</time>
      </trkpt>
      <trkpt lat="47.53432" lon="6.70542">
        <ele>413</ele>
        <time>2016-08-24T16:00:35.000Z</time>
      </trkpt>
      <trkpt lat="47.5343" lon="6.7054">
        <ele>413</ele>
        <time>2016-08-24T16:00:36.000Z</time>
      </trkpt>
      <trkpt lat="47.53428" lon="6.70538">
        <ele>413</ele>
        <time>2016-08-24T16:00:37.000Z</time>
      </trkpt>
      <trkpt lat="47.53424" lon="6.70537">
        <ele>413</ele>
        <time>2016-08-24T16:00:38.000Z</time>
      </trkpt>
      <trkpt lat="47.53421" lon="6.70536">
        <ele>413</ele>
        <time>2016-08-24T16:00:39.000Z</time>
      </trkpt>
      <trkpt lat="47.53417" lon="6.70535">
        <ele>413</ele>
        <time>2016-08-24T16:00:40.000Z</time>
      </trkpt>
      <trkpt lat="47.53414" lon="6.70533">
        <ele>412</ele>
        <time>2016-08-24T16:00:41.000Z</time>
      </trkpt>
      <trkpt lat="47.53411" lon="6.70533">
        <ele>412</ele>
        <time>2016-08-24T16:00:41.999Z</time>
      </trkpt>
      <trkpt lat="47.53408" lon="6.7053">
        <ele>412</ele>
        <time>2016-08-24T16:00:43.000Z</time>
      </trkpt>
      <trkpt lat="47.53405" lon="6.70529">
        <ele>412</ele>
        <time>2016-08-24T16:00:44.000Z</time>
      </trkpt>
      <trkpt lat="47.53402" lon="6.70528">
        <ele>412</ele>
        <time>2016-08-24T16:00:45.000Z</time>
      </trkpt>
      <trkpt lat="47.53399" lon="6.70526">
        <ele>412</ele>
        <time>2016-08-24T16:00:46.000Z</time>
      </trkpt>
      <trkpt lat="47.53397" lon="6.70524">
        <ele>412</ele>
        <time>2016-08-24T16:00:47.000Z</time>
      </trkpt>
      <trkpt lat="47.53395" lon="6.70522">
        <ele>412</ele>
        <time>2016-08-24T16:00:48.000Z</time>
      </trkpt>
      <trkpt lat="47.53393" lon="6.70519">
        <ele>412</ele>
        <time>2016-08-24T16:00:49.000Z</time>
      </trkpt>
      <trkpt lat="47.53391" lon="6.70515">
        <ele>412</ele>
        <time>2016-08-24T16:00:51.000Z</time>
      </trkpt>
      <trkpt lat="47.5339" lon="6.70514">
        <ele>412</ele>
        <time>2016-08-24T16:00:52.000Z</time>
      </trkpt>
      <trkpt lat="47.53388" lon="6.70511">
        <ele>412</ele>
        <time>2016-08-24T16:00:54.000Z</time>
      </trkpt>
      <trkpt lat="47.53386" lon="6.70509">
        <ele>412</ele>
        <time>2016-08-24T16:00:55.000Z</time>
      </trkpt>
      <trkpt lat="47.53383" lon="6.70507">
        <ele>412</ele>
        <time>2016-08-24T16:00:57.000Z</time>
      </trkpt>
      <trkpt lat="47.53381" lon="6.70507">
        <ele>412</ele>
        <time>2016-08-24T16:00:58.000Z</time>
      </trkpt>
      <trkpt lat="47.53377" lon="6.70504">
        <ele>412</ele>
        <time>2016-08-24T16:01:00.000Z</time>
      </trkpt>
      <trkpt lat="47.53375" lon="6.70502">
        <ele>412</ele>
        <time>2016-08-24T16:01:01.000Z</time>
      </trkpt>
      <trkpt lat="47.53371" lon="6.705">
        <ele>412</ele>
        <time>2016-08-24T16:01:02.000Z</time>
      </trkpt>
      <trkpt lat="47.53366" lon="6.70497">
        <ele>412</ele>
        <time>2016-08-24T16:01:03.000Z</time>
      </trkpt>
      <trkpt lat="47.53362" lon="6.70495">
        <ele>412</ele>
        <time>2016-08-24T16:01:04.000Z</time>
      </trkpt>
      <trkpt lat="47.53358" lon="6.70493">
        <ele>412</ele>
        <time>2016-08-24T16:01:05.000Z</time>
      </trkpt>
      <trkpt lat="47.53355" lon="6.70491">
        <ele>412</ele>
        <time>2016-08-24T16:01:06.000Z</time>
      </trkpt>
      <trkpt lat="47.53352" lon="6.7049">
        <ele>411</ele>
        <time>2016-08-24T16:01:07.000Z</time>
      </trkpt>
      <trkpt lat="47.53348" lon="6.70489">
        <ele>411</ele>
        <time>2016-08-24T16:01:08.000Z</time>
      </trkpt>
      <trkpt lat="47.53345" lon="6.70487">
        <ele>411</ele>
        <time>2016-08-24T16:01:09.000Z</time>
      </trkpt>
      <trkpt lat="47.53342" lon="6.70485">
        <ele>411</ele>
        <time>2016-08-24T16:01:10.000Z</time>
      </trkpt>
      <trkpt lat="47.53339" lon="6.70482">
        <ele>411</ele>
        <time>2016-08-24T16:01:11.000Z</time>
      </trkpt>
      <trkpt lat="47.53337" lon="6.70478">
        <ele>411</ele>
        <time>2016-08-24T16:01:12.000Z</time>
      </trkpt>
      <trkpt lat="47.53334" lon="6.70474">
        <ele>411</ele>
        <time>2016-08-24T16:01:13.000Z</time>
      </trkpt>
      <trkpt lat="47.53332" lon="6.70471">
        <ele>410</ele>
        <time>2016-08-24T16:01:13.998Z</time>
      </trkpt>
      <trkpt lat="47.53329" lon="6.70467">
        <ele>410</ele>
        <time>2016-08-24T16:01:15.000Z</time>
      </trkpt>
      <trkpt lat="47.53327" lon="6.70463">
        <ele>410</ele>
        <time>2016-08-24T16:01:16.000Z</time>
      </trkpt>
      <trkpt lat="47.53325" lon="6.70459">
        <ele>410</ele>
        <time>2016-08-24T16:01:17.000Z</time>
      </trkpt>
      <trkpt lat="47.53323" lon="6.70454">
        <ele>409</ele>
        <time>2016-08-24T16:01:18.000Z</time>
      </trkpt>
      <trkpt lat="47.5332" lon="6.70449">
        <ele>409</ele>
        <time>2016-08-24T16:01:19.000Z</time>
      </trkpt>
      <trkpt lat="47.53317" lon="6.70444">
        <ele>409</ele>
        <time>2016-08-24T16:01:20.000Z</time>
      </trkpt>
      <trkpt lat="47.53315" lon="6.70439">
        <ele>409</ele>
        <time>2016-08-24T16:01:21.000Z</time>
      </trkpt>
      <trkpt lat="47.53313" lon="6.70434">
        <ele>409</ele>
        <time>2016-08-24T16:01:22.000Z</time>
      </trkpt>
      <trkpt lat="47.53307" lon="6.70422">
        <ele>409</ele>
        <time>2016-08-24T16:01:23.000Z</time>
      </trkpt>
      <trkpt lat="47.53303" lon="6.70415">
        <ele>405</ele>
        <time>2016-08-24T16:01:24.000Z</time>
      </trkpt>
      <trkpt lat="47.53296" lon="6.70407">
        <ele>405</ele>
        <time>2016-08-24T16:01:25.000Z</time>
      </trkpt>
      <trkpt lat="47.53291" lon="6.70399">
        <ele>404</ele>
        <time>2016-08-24T16:01:26.000Z</time>
      </trkpt>
      <trkpt lat="47.53287" lon="6.70392">
        <ele>404</ele>
        <time>2016-08-24T16:01:27.000Z</time>
      </trkpt>
      <trkpt lat="47.53282" lon="6.70386">
        <ele>404</ele>
        <time>2016-08-24T16:01:28.000Z</time>
      </trkpt>
      <trkpt lat="47.53278" lon="6.70378">
        <ele>403</ele>
        <time>2016-08-24T16:01:29.000Z</time>
      </trkpt>
      <trkpt lat="47.53278" lon="6.70372">
        <ele>403</ele>
        <time>2016-08-24T16:01:30.000Z</time>
      </trkpt>
      <trkpt lat="47.53273" lon="6.70369">
        <ele>402</ele>
        <time>2016-08-24T16:01:31.000Z</time>
      </trkpt>
      <trkpt lat="47.53266" lon="6.70368">
        <ele>402</ele>
        <time>2016-08-24T16:01:32.000Z</time>
      </trkpt>
      <trkpt lat="47.5326" lon="6.70367">
        <ele>402</ele>
        <time>2016-08-24T16:01:33.000Z</time>
      </trkpt>
      <trkpt lat="47.53254" lon="6.70365">
        <ele>401</ele>
        <time>2016-08-24T16:01:34.000Z</time>
      </trkpt>
      <trkpt lat="47.53248" lon="6.70365">
        <ele>397</ele>
        <time>2016-08-24T16:01:35.000Z</time>
      </trkpt>
      <trkpt lat="47.53238" lon="6.70368">
        <ele>397</ele>
        <time>2016-08-24T16:01:36.000Z</time>
      </trkpt>
      <trkpt lat="47.53228" lon="6.70371">
        <ele>397</ele>
        <time>2016-08-24T16:01:37.000Z</time>
      </trkpt>
      <trkpt lat="47.53217" lon="6.70378">
        <ele>396</ele>
        <time>2016-08-24T16:01:38.000Z</time>
      </trkpt>
      <trkpt lat="47.53207" lon="6.70379">
        <ele>396</ele>
        <time>2016-08-24T16:01:39.000Z</time>
      </trkpt>
      <trkpt lat="47.53198" lon="6.70382">
        <ele>396</ele>
        <time>2016-08-24T16:01:40.000Z</time>
      </trkpt>
      <trkpt lat="47.53187" lon="6.70387">
        <ele>395</ele>
        <time>2016-08-24T16:01:41.000Z</time>
      </trkpt>
      <trkpt lat="47.53178" lon="6.70391">
        <ele>395</ele>
        <time>2016-08-24T16:01:42.000Z</time>
      </trkpt>
      <trkpt lat="47.5317" lon="6.70394">
        <ele>395</ele>
        <time>2016-08-24T16:01:43.000Z</time>
      </trkpt>
      <trkpt lat="47.53165" lon="6.70396">
        <ele>389</ele>
        <time>2016-08-24T16:01:44.000Z</time>
      </trkpt>
      <trkpt lat="47.53161" lon="6.70398">
        <ele>390</ele>
        <time>2016-08-24T16:01:45.000Z</time>
      </trkpt>
      <trkpt lat="47.53158" lon="6.70411">
        <ele>392</ele>
        <time>2016-08-24T16:01:46.000Z</time>
      </trkpt>
      <trkpt lat="47.53155" lon="6.70416">
        <ele>392</ele>
        <time>2016-08-24T16:01:47.000Z</time>
      </trkpt>
      <trkpt lat="47.53151" lon="6.70419">
        <ele>394</ele>
        <time>2016-08-24T16:01:48.000Z</time>
      </trkpt>
      <trkpt lat="47.53148" lon="6.70423">
        <ele>394</ele>
        <time>2016-08-24T16:01:49.000Z</time>
      </trkpt>
      <trkpt lat="47.53145" lon="6.70425">
        <ele>393</ele>
        <time>2016-08-24T16:01:50.000Z</time>
      </trkpt>
      <trkpt lat="47.5314" lon="6.70428">
        <ele>393</ele>
        <time>2016-08-24T16:01:51.000Z</time>
      </trkpt>
      <trkpt lat="47.53136" lon="6.70429">
        <ele>392</ele>
        <time>2016-08-24T16:01:52.000Z</time>
      </trkpt>
      <trkpt lat="47.53131" lon="6.70434">
        <ele>392</ele>
        <time>2016-08-24T16:01:53.000Z</time>
      </trkpt>
      <trkpt lat="47.53124" lon="6.70436">
        <ele>391</ele>
        <time>2016-08-24T16:01:54.000Z</time>
      </trkpt>
      <trkpt lat="47.53116" lon="6.70442">
        <ele>391</ele>
        <time>2016-08-24T16:01:55.000Z</time>
      </trkpt>
      <trkpt lat="47.53106" lon="6.70447">
        <ele>390</ele>
        <time>2016-08-24T16:01:56.000Z</time>
      </trkpt>
      <trkpt lat="47.53098" lon="6.70454">
        <ele>390</ele>
        <time>2016-08-24T16:01:57.000Z</time>
      </trkpt>
      <trkpt lat="47.53092" lon="6.7046">
        <ele>390</ele>
        <time>2016-08-24T16:01:58.000Z</time>
      </trkpt>
      <trkpt lat="47.53084" lon="6.70464">
        <ele>390</ele>
        <time>2016-08-24T16:01:59.000Z</time>
      </trkpt>
      <trkpt lat="47.53078" lon="6.70467">
        <ele>381</ele>
        <time>2016-08-24T16:02:00.000Z</time>
      </trkpt>
      <trkpt lat="47.53074" lon="6.70465">
        <ele>381</ele>
        <time>2016-08-24T16:02:01.000Z</time>
      </trkpt>
      <trkpt lat="47.53072" lon="6.70462">
        <ele>380</ele>
        <time>2016-08-24T16:02:02.000Z</time>
      </trkpt>
      <trkpt lat="47.53065" lon="6.70461">
        <ele>380</ele>
        <time>2016-08-24T16:02:03.000Z</time>
      </trkpt>
      <trkpt lat="47.53055" lon="6.70464">
        <ele>379</ele>
        <time>2016-08-24T16:02:04.000Z</time>
      </trkpt>
      <trkpt lat="47.53049" lon="6.70462">
        <ele>378</ele>
        <time>2016-08-24T16:02:05.000Z</time>
      </trkpt>
      <trkpt lat="47.53042" lon="6.70461">
        <ele>377</ele>
        <time>2016-08-24T16:02:06.000Z</time>
      </trkpt>
      <trkpt lat="47.53036" lon="6.70458">
        <ele>377</ele>
        <time>2016-08-24T16:02:07.000Z</time>
      </trkpt>
      <trkpt lat="47.53029" lon="6.70456">
        <ele>376</ele>
        <time>2016-08-24T16:02:08.000Z</time>
      </trkpt>
      <trkpt lat="47.53023" lon="6.70454">
        <ele>375</ele>
        <time>2016-08-24T16:02:09.000Z</time>
      </trkpt>
      <trkpt lat="47.53016" lon="6.70453">
        <ele>375</ele>
        <time>2016-08-24T16:02:10.000Z</time>
      </trkpt>
      <trkpt lat="47.53007" lon="6.70449">
        <ele>374</ele>
        <time>2016-08-24T16:02:11.000Z</time>
      </trkpt>
      <trkpt lat="47.52995" lon="6.70445">
        <ele>364</ele>
        <time>2016-08-24T16:02:12.000Z</time>
      </trkpt>
      <trkpt lat="47.52985" lon="6.70439">
        <ele>364</ele>
        <time>2016-08-24T16:02:13.000Z</time>
      </trkpt>
      <trkpt lat="47.52976" lon="6.70441">
        <ele>363</ele>
        <time>2016-08-24T16:02:14.000Z</time>
      </trkpt>
      <trkpt lat="47.52964" lon="6.7044">
        <ele>363</ele>
        <time>2016-08-24T16:02:15.000Z</time>
      </trkpt>
      <trkpt lat="47.52957" lon="6.70438">
        <ele>362</ele>
        <time>2016-08-24T16:02:16.000Z</time>
      </trkpt>
      <trkpt lat="47.52949" lon="6.70435">
        <ele>361</ele>
        <time>2016-08-24T16:02:17.000Z</time>
      </trkpt>
      <trkpt lat="47.52939" lon="6.70432">
        <ele>359</ele>
        <time>2016-08-24T16:02:18.000Z</time>
      </trkpt>
      <trkpt lat="47.5293" lon="6.70433">
        <ele>358</ele>
        <time>2016-08-24T16:02:19.000Z</time>
      </trkpt>
      <trkpt lat="47.52923" lon="6.70436">
        <ele>358</ele>
        <time>2016-08-24T16:02:20.000Z</time>
      </trkpt>
      <trkpt lat="47.52915" lon="6.70435">
        <ele>353</ele>
        <time>2016-08-24T16:02:21.000Z</time>
      </trkpt>
      <trkpt lat="47.52907" lon="6.70434">
        <ele>352</ele>
        <time>2016-08-24T16:02:22.000Z</time>
      </trkpt>
      <trkpt lat="47.52897" lon="6.70434">
        <ele>352</ele>
        <time>2016-08-24T16:02:23.000Z</time>
      </trkpt>
      <trkpt lat="47.52887" lon="6.70434">
        <ele>352</ele>
        <time>2016-08-24T16:02:24.000Z</time>
      </trkpt>
      <trkpt lat="47.52877" lon="6.70432">
        <ele>351</ele>
        <time>2016-08-24T16:02:25.000Z</time>
      </trkpt>
      <trkpt lat="47.52868" lon="6.70429">
        <ele>351</ele>
        <time>2016-08-24T16:02:26.000Z</time>
      </trkpt>
      <trkpt lat="47.5286" lon="6.70429">
        <ele>350</ele>
        <time>2016-08-24T16:02:27.000Z</time>
      </trkpt>
      <trkpt lat="47.5285" lon="6.70426">
        <ele>349</ele>
        <time>2016-08-24T16:02:28.000Z</time>
      </trkpt>
      <trkpt lat="47.52842" lon="6.70424">
        <ele>348</ele>
        <time>2016-08-24T16:02:29.000Z</time>
      </trkpt>
      <trkpt lat="47.52836" lon="6.70424">
        <ele>348</ele>
        <time>2016-08-24T16:02:30.000Z</time>
      </trkpt>
      <trkpt lat="47.52832" lon="6.7042">
        <ele>346</ele>
        <time>2016-08-24T16:02:31.000Z</time>
      </trkpt>
      <trkpt lat="47.52826" lon="6.70425">
        <ele>346</ele>
        <time>2016-08-24T16:02:32.000Z</time>
      </trkpt>
      <trkpt lat="47.52831" lon="6.70419">
        <ele>346</ele>
        <time>2016-08-24T16:02:33.000Z</time>
      </trkpt>
      <trkpt lat="47.52827" lon="6.7042">
        <ele>346</ele>
        <time>2016-08-24T16:02:47.000Z</time>
      </trkpt>
      <trkpt lat="47.52827" lon="6.7042">
        <ele>346</ele>
        <time>2016-08-24T16:02:48.000Z</time>
      </trkpt>
      <trkpt lat="47.52826" lon="6.70426">
        <ele>346</ele>
        <time>2016-08-24T16:02:49.000Z</time>
      </trkpt>
      <trkpt lat="47.52825" lon="6.70428">
        <ele>346</ele>
        <time>2016-08-24T16:02:50.000Z</time>
      </trkpt>
      <trkpt lat="47.52825" lon="6.70432">
        <ele>346</ele>
        <time>2016-08-24T16:02:51.000Z</time>
      </trkpt>
      <trkpt lat="47.52826" lon="6.70437">
        <ele>346</ele>
        <time>2016-08-24T16:02:52.000Z</time>
      </trkpt>
      <trkpt lat="47.52827" lon="6.70441">
        <ele>346</ele>
        <time>2016-08-24T16:02:53.000Z</time>
      </trkpt>
      <trkpt lat="47.52827" lon="6.70445">
        <ele>346</ele>
        <time>2016-08-24T16:02:54.000Z</time>
      </trkpt>
      <trkpt lat="47.52828" lon="6.70449">
        <ele>346</ele>
        <time>2016-08-24T16:02:55.000Z</time>
      </trkpt>
      <trkpt lat="47.52829" lon="6.70453">
        <ele>346</ele>
        <time>2016-08-24T16:02:56.000Z</time>
      </trkpt>
      <trkpt lat="47.5283" lon="6.70458">
        <ele>346</ele>
        <time>2016-08-24T16:02:57.000Z</time>
      </trkpt>
      <trkpt lat="47.52831" lon="6.70463">
        <ele>347</ele>
        <time>2016-08-24T16:02:58.000Z</time>
      </trkpt>
      <trkpt lat="47.52833" lon="6.70469">
        <ele>347</ele>
        <time>2016-08-24T16:02:59.000Z</time>
      </trkpt>
      <trkpt lat="47.52835" lon="6.70474">
        <ele>351</ele>
        <time>2016-08-24T16:03:00.000Z</time>
      </trkpt>
      <trkpt lat="47.52836" lon="6.7048">
        <ele>351</ele>
        <time>2016-08-24T16:03:01.000Z</time>
      </trkpt>
      <trkpt lat="47.52837" lon="6.70486">
        <ele>350</ele>
        <time>2016-08-24T16:03:02.000Z</time>
      </trkpt>
      <trkpt lat="47.52838" lon="6.70491">
        <ele>350</ele>
        <time>2016-08-24T16:03:03.000Z</time>
      </trkpt>
      <trkpt lat="47.52838" lon="6.70496">
        <ele>350</ele>
        <time>2016-08-24T16:03:04.000Z</time>
      </trkpt>
      <trkpt lat="47.52838" lon="6.70501">
        <ele>350</ele>
        <time>2016-08-24T16:03:05.000Z</time>
      </trkpt>
      <trkpt lat="47.52839" lon="6.70505">
        <ele>351</ele>
        <time>2016-08-24T16:03:06.000Z</time>
      </trkpt>
      <trkpt lat="47.5284" lon="6.70509">
        <ele>352</ele>
        <time>2016-08-24T16:03:07.000Z</time>
      </trkpt>
      <trkpt lat="47.52841" lon="6.70513">
        <ele>352</ele>
        <time>2016-08-24T16:03:08.000Z</time>
      </trkpt>
      <trkpt lat="47.52841" lon="6.70518">
        <ele>353</ele>
        <time>2016-08-24T16:03:09.000Z</time>
      </trkpt>
      <trkpt lat="47.52842" lon="6.70523">
        <ele>354</ele>
        <time>2016-08-24T16:03:10.000Z</time>
      </trkpt>
      <trkpt lat="47.52841" lon="6.70528">
        <ele>354</ele>
        <time>2016-08-24T16:03:11.000Z</time>
      </trkpt>
      <trkpt lat="47.52841" lon="6.70534">
        <ele>354</ele>
        <time>2016-08-24T16:03:12.000Z</time>
      </trkpt>
      <trkpt lat="47.5284" lon="6.70539">
        <ele>354</ele>
        <time>2016-08-24T16:03:13.000Z</time>
      </trkpt>
      <trkpt lat="47.5284" lon="6.70544">
        <ele>354</ele>
        <time>2016-08-24T16:03:14.000Z</time>
      </trkpt>
      <trkpt lat="47.52839" lon="6.7055">
        <ele>354</ele>
        <time>2016-08-24T16:03:15.000Z</time>
      </trkpt>
      <trkpt lat="47.52838" lon="6.70555">
        <ele>354</ele>
        <time>2016-08-24T16:03:16.000Z</time>
      </trkpt>
      <trkpt lat="47.52837" lon="6.70558">
        <ele>354</ele>
        <time>2016-08-24T16:03:17.000Z</time>
      </trkpt>
      <trkpt lat="47.52836" lon="6.70561">
        <ele>354</ele>
        <time>2016-08-24T16:03:18.000Z</time>
      </trkpt>
      <trkpt lat="47.52833" lon="6.70564">
        <ele>349</ele>
        <time>2016-08-24T16:03:20.000Z</time>
      </trkpt>
      <trkpt lat="47.52831" lon="6.70565">
        <ele>349</ele>
        <time>2016-08-24T16:03:21.000Z</time>
      </trkpt>
      <trkpt lat="47.52829" lon="6.70564">
        <ele>349</ele>
        <time>2016-08-24T16:03:22.000Z</time>
      </trkpt>
      <trkpt lat="47.52826" lon="6.70563">
        <ele>349</ele>
        <time>2016-08-24T16:03:23.000Z</time>
      </trkpt>
      <trkpt lat="47.52824" lon="6.70562">
        <ele>349</ele>
        <time>2016-08-24T16:03:24.000Z</time>
      </trkpt>
      <trkpt lat="47.52821" lon="6.70561">
        <ele>349</ele>
        <time>2016-08-24T16:03:25.000Z</time>
      </trkpt>
      <trkpt lat="47.52815" lon="6.70558">
        <ele>349</ele>
        <time>2016-08-24T16:03:26.000Z</time>
      </trkpt>
      <trkpt lat="47.5281" lon="6.70556">
        <ele>348</ele>
        <time>2016-08-24T16:03:27.000Z</time>
      </trkpt>
      <trkpt lat="47.52809" lon="6.70552">
        <ele>348</ele>
        <time>2016-08-24T16:03:28.000Z</time>
      </trkpt>
      <trkpt lat="47.52806" lon="6.70551">
        <ele>348</ele>
        <time>2016-08-24T16:03:29.000Z</time>
      </trkpt>
      <trkpt lat="47.52803" lon="6.70548">
        <ele>348</ele>
        <time>2016-08-24T16:03:32.000Z</time>
      </trkpt>
      <trkpt lat="47.52802" lon="6.70546">
        <ele>348</ele>
        <time>2016-08-24T16:03:33.000Z</time>
      </trkpt>
      <trkpt lat="47.52798" lon="6.70545">
        <ele>348</ele>
        <time>2016-08-24T16:03:35.000Z</time>
      </trkpt>
      <trkpt lat="47.52795" lon="6.70545">
        <ele>348</ele>
        <time>2016-08-24T16:03:36.000Z</time>
      </trkpt>
      <trkpt lat="47.52793" lon="6.70545">
        <ele>348</ele>
        <time>2016-08-24T16:03:37.000Z</time>
      </trkpt>
      <trkpt lat="47.5279" lon="6.70545">
        <ele>348</ele>
        <time>2016-08-24T16:03:38.000Z</time>
      </trkpt>
      <trkpt lat="47.52788" lon="6.7055">
        <ele>348</ele>
        <time>2016-08-24T16:03:40.000Z</time>
      </trkpt>
      <trkpt lat="47.52788" lon="6.70554">
        <ele>348</ele>
        <time>2016-08-24T16:03:41.000Z</time>
      </trkpt>
      <trkpt lat="47.52789" lon="6.70559">
        <ele>348</ele>
        <time>2016-08-24T16:03:42.000Z</time>
      </trkpt>
      <trkpt lat="47.52789" lon="6.70565">
        <ele>348</ele>
        <time>2016-08-24T16:03:43.000Z</time>
      </trkpt>
      <trkpt lat="47.5279" lon="6.7057">
        <ele>348</ele>
        <time>2016-08-24T16:03:44.000Z</time>
      </trkpt>
      <trkpt lat="47.52789" lon="6.70574">
        <ele>348</ele>
        <time>2016-08-24T16:03:45.000Z</time>
      </trkpt>
      <trkpt lat="47.52789" lon="6.70578">
        <ele>348</ele>
        <time>2016-08-24T16:03:46.000Z</time>
      </trkpt>
      <trkpt lat="47.52788" lon="6.70581">
        <ele>348</ele>
        <time>2016-08-24T16:03:47.000Z</time>
      </trkpt>
      <trkpt lat="47.52784" lon="6.70585">
        <ele>350</ele>
        <time>2016-08-24T16:03:49.000Z</time>
      </trkpt>
      <trkpt lat="47.52782" lon="6.70586">
        <ele>350</ele>
        <time>2016-08-24T16:03:50.000Z</time>
      </trkpt>
      <trkpt lat="47.52779" lon="6.70587">
        <ele>350</ele>
        <time>2016-08-24T16:03:51.000Z</time>
      </trkpt>
      <trkpt lat="47.52776" lon="6.70588">
        <ele>350</ele>
        <time>2016-08-24T16:03:52.000Z</time>
      </trkpt>
      <trkpt lat="47.52773" lon="6.70587">
        <ele>350</ele>
        <time>2016-08-24T16:03:53.000Z</time>
      </trkpt>
      <trkpt lat="47.52769" lon="6.70587">
        <ele>350</ele>
        <time>2016-08-24T16:03:54.000Z</time>
      </trkpt>
      <trkpt lat="47.52765" lon="6.70586">
        <ele>349</ele>
        <time>2016-08-24T16:03:55.000Z</time>
      </trkpt>
      <trkpt lat="47.52761" lon="6.70585">
        <ele>349</ele>
        <time>2016-08-24T16:03:56.000Z</time>
      </trkpt>
      <trkpt lat="47.52757" lon="6.70585">
        <ele>349</ele>
        <time>2016-08-24T16:03:57.000Z</time>
      </trkpt>
      <trkpt lat="47.52754" lon="6.70586">
        <ele>348</ele>
        <time>2016-08-24T16:03:58.000Z</time>
      </trkpt>
      <trkpt lat="47.5275" lon="6.70586">
        <ele>348</ele>
        <time>2016-08-24T16:03:59.000Z</time>
      </trkpt>
      <trkpt lat="47.52747" lon="6.70587">
        <ele>350</ele>
        <time>2016-08-24T16:04:00.000Z</time>
      </trkpt>
      <trkpt lat="47.52743" lon="6.7059">
        <ele>352</ele>
        <time>2016-08-24T16:04:02.000Z</time>
      </trkpt>
      <trkpt lat="47.52743" lon="6.70592">
        <ele>353</ele>
        <time>2016-08-24T16:04:03.000Z</time>
      </trkpt>
      <trkpt lat="47.52743" lon="6.70595">
        <ele>353</ele>
        <time>2016-08-24T16:04:04.000Z</time>
      </trkpt>
      <trkpt lat="47.52744" lon="6.70599">
        <ele>354</ele>
        <time>2016-08-24T16:04:05.000Z</time>
      </trkpt>
      <trkpt lat="47.52745" lon="6.70603">
        <ele>355</ele>
        <time>2016-08-24T16:04:06.000Z</time>
      </trkpt>
      <trkpt lat="47.52745" lon="6.70608">
        <ele>356</ele>
        <time>2016-08-24T16:04:07.000Z</time>
      </trkpt>
      <trkpt lat="47.52746" lon="6.70612">
        <ele>356</ele>
        <time>2016-08-24T16:04:08.000Z</time>
      </trkpt>
      <trkpt lat="47.52746" lon="6.70617">
        <ele>357</ele>
        <time>2016-08-24T16:04:09.000Z</time>
      </trkpt>
      <trkpt lat="47.52746" lon="6.70621">
        <ele>357</ele>
        <time>2016-08-24T16:04:10.000Z</time>
      </trkpt>
      <trkpt lat="47.52746" lon="6.70627">
        <ele>357</ele>
        <time>2016-08-24T16:04:11.000Z</time>
      </trkpt>
      <trkpt lat="47.52746" lon="6.70632">
        <ele>358</ele>
        <time>2016-08-24T16:04:12.000Z</time>
      </trkpt>
      <trkpt lat="47.52746" lon="6.70638">
        <ele>358</ele>
        <time>2016-08-24T16:04:13.000Z</time>
      </trkpt>
      <trkpt lat="47.52746" lon="6.70644">
        <ele>357</ele>
        <time>2016-08-24T16:04:14.000Z</time>
      </trkpt>
      <trkpt lat="47.52746" lon="6.70651">
        <ele>357</ele>
        <time>2016-08-24T16:04:15.000Z</time>
      </trkpt>
      <trkpt lat="47.52746" lon="6.70659">
        <ele>356</ele>
        <time>2016-08-24T16:04:16.000Z</time>
      </trkpt>
      <trkpt lat="47.52747" lon="6.70667">
        <ele>356</ele>
        <time>2016-08-24T16:04:17.000Z</time>
      </trkpt>
      <trkpt lat="47.52747" lon="6.70676">
        <ele>358</ele>
        <time>2016-08-24T16:04:18.000Z</time>
      </trkpt>
      <trkpt lat="47.52746" lon="6.70684">
        <ele>360</ele>
        <time>2016-08-24T16:04:19.000Z</time>
      </trkpt>
      <trkpt lat="47.52746" lon="6.70692">
        <ele>361</ele>
        <time>2016-08-24T16:04:20.000Z</time>
      </trkpt>
      <trkpt lat="47.52745" lon="6.70699">
        <ele>362</ele>
        <time>2016-08-24T16:04:21.000Z</time>
      </trkpt>
      <trkpt lat="47.52744" lon="6.70705">
        <ele>362</ele>
        <time>2016-08-24T16:04:22.000Z</time>
      </trkpt>
      <trkpt lat="47.52743" lon="6.70711">
        <ele>362</ele>
        <time>2016-08-24T16:04:23.000Z</time>
      </trkpt>
      <trkpt lat="47.52742" lon="6.70719">
        <ele>362</ele>
        <time>2016-08-24T16:04:24.000Z</time>
      </trkpt>
      <trkpt lat="47.5274" lon="6.70726">
        <ele>362</ele>
        <time>2016-08-24T16:04:25.000Z</time>
      </trkpt>
      <trkpt lat="47.52739" lon="6.70733">
        <ele>362</ele>
        <time>2016-08-24T16:04:26.000Z</time>
      </trkpt>
      <trkpt lat="47.52737" lon="6.70739">
        <ele>361</ele>
        <time>2016-08-24T16:04:27.000Z</time>
      </trkpt>
      <trkpt lat="47.52736" lon="6.70746">
        <ele>361</ele>
        <time>2016-08-24T16:04:28.000Z</time>
      </trkpt>
      <trkpt lat="47.52735" lon="6.70752">
        <ele>361</ele>
        <time>2016-08-24T16:04:29.000Z</time>
      </trkpt>
      <trkpt lat="47.52735" lon="6.70759">
        <ele>361</ele>
        <time>2016-08-24T16:04:30.000Z</time>
      </trkpt>
      <trkpt lat="47.52734" lon="6.70767">
        <ele>362</ele>
        <time>2016-08-24T16:04:31.000Z</time>
      </trkpt>
      <trkpt lat="47.52734" lon="6.70775">
        <ele>363</ele>
        <time>2016-08-24T16:04:32.000Z</time>
      </trkpt>
      <trkpt lat="47.52733" lon="6.70782">
        <ele>363</ele>
        <time>2016-08-24T16:04:33.000Z</time>
      </trkpt>
      <trkpt lat="47.52733" lon="6.70789">
        <ele>363</ele>
        <time>2016-08-24T16:04:34.000Z</time>
      </trkpt>
      <trkpt lat="47.52733" lon="6.70797">
        <ele>363</ele>
        <time>2016-08-24T16:04:35.000Z</time>
      </trkpt>
      <trkpt lat="47.52732" lon="6.70803">
        <ele>362</ele>
        <time>2016-08-24T16:04:36.000Z</time>
      </trkpt>
      <trkpt lat="47.52732" lon="6.7081">
        <ele>362</ele>
        <time>2016-08-24T16:04:37.000Z</time>
      </trkpt>
      <trkpt lat="47.52732" lon="6.70816">
        <ele>361</ele>
        <time>2016-08-24T16:04:38.000Z</time>
      </trkpt>
      <trkpt lat="47.52731" lon="6.70823">
        <ele>361</ele>
        <time>2016-08-24T16:04:39.000Z</time>
      </trkpt>
      <trkpt lat="47.52731" lon="6.7083">
        <ele>360</ele>
        <time>2016-08-24T16:04:40.000Z</time>
      </trkpt>
      <trkpt lat="47.5273" lon="6.70837">
        <ele>359</ele>
        <time>2016-08-24T16:04:41.000Z</time>
      </trkpt>
      <trkpt lat="47.5273" lon="6.70844">
        <ele>360</ele>
        <time>2016-08-24T16:04:42.000Z</time>
      </trkpt>
      <trkpt lat="47.52731" lon="6.70862">
        <ele>360</ele>
        <time>2016-08-24T16:04:43.000Z</time>
      </trkpt>
      <trkpt lat="47.5273" lon="6.70869">
        <ele>361</ele>
        <time>2016-08-24T16:04:44.000Z</time>
      </trkpt>
      <trkpt lat="47.52729" lon="6.70876">
        <ele>361</ele>
        <time>2016-08-24T16:04:45.000Z</time>
      </trkpt>
      <trkpt lat="47.52729" lon="6.7088">
        <ele>361</ele>
        <time>2016-08-24T16:04:46.000Z</time>
      </trkpt>
      <trkpt lat="47.52728" lon="6.70885">
        <ele>361</ele>
        <time>2016-08-24T16:04:47.000Z</time>
      </trkpt>
      <trkpt lat="47.52727" lon="6.70891">
        <ele>360</ele>
        <time>2016-08-24T16:04:48.000Z</time>
      </trkpt>
      <trkpt lat="47.52726" lon="6.70897">
        <ele>360</ele>
        <time>2016-08-24T16:04:49.000Z</time>
      </trkpt>
      <trkpt lat="47.52726" lon="6.70902">
        <ele>360</ele>
        <time>2016-08-24T16:04:50.000Z</time>
      </trkpt>
      <trkpt lat="47.52725" lon="6.70907">
        <ele>360</ele>
        <time>2016-08-24T16:04:51.000Z</time>
      </trkpt>
      <trkpt lat="47.52724" lon="6.70911">
        <ele>360</ele>
        <time>2016-08-24T16:04:52.000Z</time>
      </trkpt>
      <trkpt lat="47.52724" lon="6.70917">
        <ele>360</ele>
        <time>2016-08-24T16:04:53.000Z</time>
      </trkpt>
      <trkpt lat="47.52723" lon="6.70924">
        <ele>360</ele>
        <time>2016-08-24T16:04:54.000Z</time>
      </trkpt>
      <trkpt lat="47.52723" lon="6.70935">
        <ele>360</ele>
        <time>2016-08-24T16:04:55.000Z</time>
      </trkpt>
      <trkpt lat="47.52723" lon="6.70944">
        <ele>361</ele>
        <time>2016-08-24T16:04:56.000Z</time>
      </trkpt>
      <trkpt lat="47.52723" lon="6.70951">
        <ele>361</ele>
        <time>2016-08-24T16:04:57.000Z</time>
      </trkpt>
      <trkpt lat="47.52723" lon="6.70958">
        <ele>361</ele>
        <time>2016-08-24T16:04:58.000Z</time>
      </trkpt>
      <trkpt lat="47.52724" lon="6.70965">
        <ele>361</ele>
        <time>2016-08-24T16:04:59.000Z</time>
      </trkpt>
      <trkpt lat="47.52727" lon="6.70975">
        <ele>360</ele>
        <time>2016-08-24T16:05:00.000Z</time>
      </trkpt>
      <trkpt lat="47.52729" lon="6.70983">
        <ele>359</ele>
        <time>2016-08-24T16:05:01.000Z</time>
      </trkpt>
      <trkpt lat="47.52732" lon="6.70992">
        <ele>358</ele>
        <time>2016-08-24T16:05:02.000Z</time>
      </trkpt>
      <trkpt lat="47.52734" lon="6.70999">
        <ele>357</ele>
        <time>2016-08-24T16:05:03.000Z</time>
      </trkpt>
      <trkpt lat="47.52736" lon="6.71006">
        <ele>357</ele>
        <time>2016-08-24T16:05:04.000Z</time>
      </trkpt>
      <trkpt lat="47.52739" lon="6.71014">
        <ele>357</ele>
        <time>2016-08-24T16:05:05.000Z</time>
      </trkpt>
      <trkpt lat="47.5274" lon="6.71019">
        <ele>358</ele>
        <time>2016-08-24T16:05:06.000Z</time>
      </trkpt>
      <trkpt lat="47.52742" lon="6.71028">
        <ele>358</ele>
        <time>2016-08-24T16:05:07.000Z</time>
      </trkpt>
      <trkpt lat="47.52744" lon="6.71034">
        <ele>359</ele>
        <time>2016-08-24T16:05:08.000Z</time>
      </trkpt>
      <trkpt lat="47.52745" lon="6.7104">
        <ele>359</ele>
        <time>2016-08-24T16:05:09.000Z</time>
      </trkpt>
      <trkpt lat="47.52746" lon="6.71045">
        <ele>359</ele>
        <time>2016-08-24T16:05:10.000Z</time>
      </trkpt>
      <trkpt lat="47.52742" lon="6.7105">
        <ele>359</ele>
        <time>2016-08-24T16:05:11.000Z</time>
      </trkpt>
      <trkpt lat="47.52742" lon="6.71055">
        <ele>359</ele>
        <time>2016-08-24T16:05:12.000Z</time>
      </trkpt>
      <trkpt lat="47.5274" lon="6.7106">
        <ele>359</ele>
        <time>2016-08-24T16:05:13.000Z</time>
      </trkpt>
      <trkpt lat="47.52739" lon="6.71065">
        <ele>358</ele>
        <time>2016-08-24T16:05:14.000Z</time>
      </trkpt>
      <trkpt lat="47.52738" lon="6.71071">
        <ele>358</ele>
        <time>2016-08-24T16:05:15.000Z</time>
      </trkpt>
      <trkpt lat="47.52738" lon="6.71076">
        <ele>357</ele>
        <time>2016-08-24T16:05:16.000Z</time>
      </trkpt>
      <trkpt lat="47.52738" lon="6.7108">
        <ele>357</ele>
        <time>2016-08-24T16:05:17.000Z</time>
      </trkpt>
      <trkpt lat="47.52739" lon="6.71086">
        <ele>357</ele>
        <time>2016-08-24T16:05:19.000Z</time>
      </trkpt>
      <trkpt lat="47.5274" lon="6.71089">
        <ele>357</ele>
        <time>2016-08-24T16:05:20.000Z</time>
      </trkpt>
      <trkpt lat="47.52742" lon="6.71095">
        <ele>357</ele>
        <time>2016-08-24T16:05:23.000Z</time>
      </trkpt>
      <trkpt lat="47.52743" lon="6.71097">
        <ele>358</ele>
        <time>2016-08-24T16:05:24.000Z</time>
      </trkpt>
      <trkpt lat="47.52743" lon="6.71103">
        <ele>358</ele>
        <time>2016-08-24T16:05:26.000Z</time>
      </trkpt>
      <trkpt lat="47.52743" lon="6.71106">
        <ele>359</ele>
        <time>2016-08-24T16:05:27.000Z</time>
      </trkpt>
      <trkpt lat="47.52744" lon="6.71112">
        <ele>359</ele>
        <time>2016-08-24T16:05:29.000Z</time>
      </trkpt>
      <trkpt lat="47.52744" lon="6.71114">
        <ele>359</ele>
        <time>2016-08-24T16:05:30.000Z</time>
      </trkpt>
      <trkpt lat="47.52743" lon="6.7112">
        <ele>360</ele>
        <time>2016-08-24T16:05:33.000Z</time>
      </trkpt>
      <trkpt lat="47.52742" lon="6.71122">
        <ele>360</ele>
        <time>2016-08-24T16:05:34.000Z</time>
      </trkpt>
      <trkpt lat="47.52741" lon="6.71127">
        <ele>360</ele>
        <time>2016-08-24T16:05:36.000Z</time>
      </trkpt>
      <trkpt lat="47.52741" lon="6.71129">
        <ele>360</ele>
        <time>2016-08-24T16:05:37.000Z</time>
      </trkpt>
      <trkpt lat="47.5274" lon="6.71134">
        <ele>360</ele>
        <time>2016-08-24T16:05:40.000Z</time>
      </trkpt>
      <trkpt lat="47.52739" lon="6.71136">
        <ele>360</ele>
        <time>2016-08-24T16:05:41.000Z</time>
      </trkpt>
      <trkpt lat="47.52737" lon="6.71141">
        <ele>360</ele>
        <time>2016-08-24T16:05:43.000Z</time>
      </trkpt>
      <trkpt lat="47.52737" lon="6.71144">
        <ele>360</ele>
        <time>2016-08-24T16:05:44.000Z</time>
      </trkpt>
      <trkpt lat="47.52736" lon="6.7115">
        <ele>360</ele>
        <time>2016-08-24T16:05:47.000Z</time>
      </trkpt>
      <trkpt lat="47.52736" lon="6.71151">
        <ele>360</ele>
        <time>2016-08-24T16:05:48.000Z</time>
      </trkpt>
      <trkpt lat="47.52732" lon="6.71154">
        <ele>360</ele>
        <time>2016-08-24T16:05:52.000Z</time>
      </trkpt>
      <trkpt lat="47.52731" lon="6.71155">
        <ele>360</ele>
        <time>2016-08-24T16:05:53.000Z</time>
      </trkpt>
      <trkpt lat="47.52728" lon="6.71157">
        <ele>361</ele>
        <time>2016-08-24T16:05:55.000Z</time>
      </trkpt>
      <trkpt lat="47.52727" lon="6.71158">
        <ele>361</ele>
        <time>2016-08-24T16:05:56.000Z</time>
      </trkpt>
      <trkpt lat="47.52723" lon="6.71161">
        <ele>361</ele>
        <time>2016-08-24T16:05:58.000Z</time>
      </trkpt>
      <trkpt lat="47.52722" lon="6.71164">
        <ele>361</ele>
        <time>2016-08-24T16:05:59.000Z</time>
      </trkpt>
      <trkpt lat="47.5272" lon="6.71166">
        <ele>361</ele>
        <time>2016-08-24T16:06:00.000Z</time>
      </trkpt>
      <trkpt lat="47.52718" lon="6.71169">
        <ele>361</ele>
        <time>2016-08-24T16:06:01.000Z</time>
      </trkpt>
      <trkpt lat="47.52716" lon="6.71171">
        <ele>361</ele>
        <time>2016-08-24T16:06:02.000Z</time>
      </trkpt>
      <trkpt lat="47.52714" lon="6.71174">
        <ele>361</ele>
        <time>2016-08-24T16:06:03.000Z</time>
      </trkpt>
      <trkpt lat="47.52713" lon="6.71177">
        <ele>361</ele>
        <time>2016-08-24T16:06:04.000Z</time>
      </trkpt>
      <trkpt lat="47.52711" lon="6.71179">
        <ele>361</ele>
        <time>2016-08-24T16:06:05.000Z</time>
      </trkpt>
      <trkpt lat="47.5271" lon="6.71181">
        <ele>361</ele>
        <time>2016-08-24T16:06:06.000Z</time>
      </trkpt>
      <trkpt lat="47.52708" lon="6.71184">
        <ele>361</ele>
        <time>2016-08-24T16:06:07.000Z</time>
      </trkpt>
      <trkpt lat="47.52706" lon="6.71187">
        <ele>362</ele>
        <time>2016-08-24T16:06:08.000Z</time>
      </trkpt>
      <trkpt lat="47.52705" lon="6.71191">
        <ele>362</ele>
        <time>2016-08-24T16:06:09.000Z</time>
      </trkpt>
      <trkpt lat="47.52704" lon="6.71196">
        <ele>361</ele>
        <time>2016-08-24T16:06:10.000Z</time>
      </trkpt>
      <trkpt lat="47.52704" lon="6.71203">
        <ele>361</ele>
        <time>2016-08-24T16:06:11.000Z</time>
      </trkpt>
      <trkpt lat="47.52705" lon="6.71209">
        <ele>361</ele>
        <time>2016-08-24T16:06:12.000Z</time>
      </trkpt>
      <trkpt lat="47.52706" lon="6.71216">
        <ele>361</ele>
        <time>2016-08-24T16:06:13.000Z</time>
      </trkpt>
      <trkpt lat="47.52706" lon="6.71223">
        <ele>361</ele>
        <time>2016-08-24T16:06:14.000Z</time>
      </trkpt>
      <trkpt lat="47.52707" lon="6.71231">
        <ele>361</ele>
        <time>2016-08-24T16:06:15.000Z</time>
      </trkpt>
      <trkpt lat="47.52707" lon="6.71238">
        <ele>361</ele>
        <time>2016-08-24T16:06:16.000Z</time>
      </trkpt>
      <trkpt lat="47.52708" lon="6.71244">
        <ele>361</ele>
        <time>2016-08-24T16:06:17.000Z</time>
      </trkpt>
      <trkpt lat="47.52709" lon="6.71251">
        <ele>364</ele>
        <time>2016-08-24T16:06:18.000Z</time>
      </trkpt>
      <trkpt lat="47.52709" lon="6.71258">
        <ele>364</ele>
        <time>2016-08-24T16:06:19.000Z</time>
      </trkpt>
      <trkpt lat="47.52709" lon="6.71264">
        <ele>364</ele>
        <time>2016-08-24T16:06:20.000Z</time>
      </trkpt>
      <trkpt lat="47.52708" lon="6.7127">
        <ele>364</ele>
        <time>2016-08-24T16:06:21.000Z</time>
      </trkpt>
      <trkpt lat="47.52707" lon="6.71274">
        <ele>364</ele>
        <time>2016-08-24T16:06:22.000Z</time>
      </trkpt>
      <trkpt lat="47.52705" lon="6.71277">
        <ele>365</ele>
        <time>2016-08-24T16:06:23.000Z</time>
      </trkpt>
      <trkpt lat="47.52702" lon="6.71279">
        <ele>365</ele>
        <time>2016-08-24T16:06:24.000Z</time>
      </trkpt>
      <trkpt lat="47.527" lon="6.71279">
        <ele>365</ele>
        <time>2016-08-24T16:06:25.000Z</time>
      </trkpt>
      <trkpt lat="47.52697" lon="6.71279">
        <ele>365</ele>
        <time>2016-08-24T16:06:26.000Z</time>
      </trkpt>
      <trkpt lat="47.52694" lon="6.71279">
        <ele>365</ele>
        <time>2016-08-24T16:06:27.000Z</time>
      </trkpt>
      <trkpt lat="47.52692" lon="6.71278">
        <ele>364</ele>
        <time>2016-08-24T16:06:28.000Z</time>
      </trkpt>
      <trkpt lat="47.52689" lon="6.71278">
        <ele>364</ele>
        <time>2016-08-24T16:06:29.000Z</time>
      </trkpt>
      <trkpt lat="47.52685" lon="6.71278">
        <ele>364</ele>
        <time>2016-08-24T16:06:31.000Z</time>
      </trkpt>
      <trkpt lat="47.52683" lon="6.71277">
        <ele>364</ele>
        <time>2016-08-24T16:06:32.000Z</time>
      </trkpt>
      <trkpt lat="47.52679" lon="6.71275">
        <ele>364</ele>
        <time>2016-08-24T16:06:34.000Z</time>
      </trkpt>
      <trkpt lat="47.52677" lon="6.71274">
        <ele>364</ele>
        <time>2016-08-24T16:06:35.000Z</time>
      </trkpt>
      <trkpt lat="47.52673" lon="6.71272">
        <ele>363</ele>
        <time>2016-08-24T16:06:37.000Z</time>
      </trkpt>
      <trkpt lat="47.52671" lon="6.71271">
        <ele>363</ele>
        <time>2016-08-24T16:06:38.000Z</time>
      </trkpt>
      <trkpt lat="47.52667" lon="6.71269">
        <ele>363</ele>
        <time>2016-08-24T16:06:40.000Z</time>
      </trkpt>
      <trkpt lat="47.52664" lon="6.71267">
        <ele>363</ele>
        <time>2016-08-24T16:06:41.000Z</time>
      </trkpt>
      <trkpt lat="47.52661" lon="6.71266">
        <ele>363</ele>
        <time>2016-08-24T16:06:42.000Z</time>
      </trkpt>
      <trkpt lat="47.52658" lon="6.71265">
        <ele>363</ele>
        <time>2016-08-24T16:06:43.000Z</time>
      </trkpt>
      <trkpt lat="47.52655" lon="6.71265">
        <ele>363</ele>
        <time>2016-08-24T16:06:44.000Z</time>
      </trkpt>
      <trkpt lat="47.52653" lon="6.71264">
        <ele>363</ele>
        <time>2016-08-24T16:06:45.000Z</time>
      </trkpt>
      <trkpt lat="47.52648" lon="6.71264">
        <ele>363</ele>
        <time>2016-08-24T16:06:47.000Z</time>
      </trkpt>
      <trkpt lat="47.52647" lon="6.71264">
        <ele>363</ele>
        <time>2016-08-24T16:06:48.000Z</time>
      </trkpt>
      <trkpt lat="47.52643" lon="6.71264">
        <ele>363</ele>
        <time>2016-08-24T16:06:50.000Z</time>
      </trkpt>
      <trkpt lat="47.5264" lon="6.71264">
        <ele>364</ele>
        <time>2016-08-24T16:06:51.000Z</time>
      </trkpt>
      <trkpt lat="47.52638" lon="6.71264">
        <ele>364</ele>
        <time>2016-08-24T16:06:52.000Z</time>
      </trkpt>
      <trkpt lat="47.52635" lon="6.71263">
        <ele>364</ele>
        <time>2016-08-24T16:06:53.000Z</time>
      </trkpt>
      <trkpt lat="47.52632" lon="6.71262">
        <ele>364</ele>
        <time>2016-08-24T16:06:54.000Z</time>
      </trkpt>
      <trkpt lat="47.52629" lon="6.7126">
        <ele>364</ele>
        <time>2016-08-24T16:06:55.000Z</time>
      </trkpt>
      <trkpt lat="47.52627" lon="6.71259">
        <ele>364</ele>
        <time>2016-08-24T16:06:56.000Z</time>
      </trkpt>
      <trkpt lat="47.52624" lon="6.71257">
        <ele>364</ele>
        <time>2016-08-24T16:06:57.000Z</time>
      </trkpt>
      <trkpt lat="47.52622" lon="6.71256">
        <ele>364</ele>
        <time>2016-08-24T16:06:58.000Z</time>
      </trkpt>
      <trkpt lat="47.52619" lon="6.71255">
        <ele>364</ele>
        <time>2016-08-24T16:06:59.000Z</time>
      </trkpt>
      <trkpt lat="47.52617" lon="6.71254">
        <ele>364</ele>
        <time>2016-08-24T16:07:00.000Z</time>
      </trkpt>
      <trkpt lat="47.52614" lon="6.71254">
        <ele>364</ele>
        <time>2016-08-24T16:07:01.000Z</time>
      </trkpt>
      <trkpt lat="47.52612" lon="6.71254">
        <ele>364</ele>
        <time>2016-08-24T16:07:02.000Z</time>
      </trkpt>
      <trkpt lat="47.52609" lon="6.71254">
        <ele>364</ele>
        <time>2016-08-24T16:07:03.000Z</time>
      </trkpt>
      <trkpt lat="47.52606" lon="6.71253">
        <ele>364</ele>
        <time>2016-08-24T16:07:04.000Z</time>
      </trkpt>
      <trkpt lat="47.52602" lon="6.71252">
        <ele>363</ele>
        <time>2016-08-24T16:07:05.000Z</time>
      </trkpt>
      <trkpt lat="47.52599" lon="6.71251">
        <ele>363</ele>
        <time>2016-08-24T16:07:06.000Z</time>
      </trkpt>
      <trkpt lat="47.52595" lon="6.7125">
        <ele>362</ele>
        <time>2016-08-24T16:07:07.000Z</time>
      </trkpt>
      <trkpt lat="47.52591" lon="6.71249">
        <ele>362</ele>
        <time>2016-08-24T16:07:08.000Z</time>
      </trkpt>
      <trkpt lat="47.52586" lon="6.71248">
        <ele>362</ele>
        <time>2016-08-24T16:07:09.000Z</time>
      </trkpt>
      <trkpt lat="47.52582" lon="6.71247">
        <ele>362</ele>
        <time>2016-08-24T16:07:10.000Z</time>
      </trkpt>
      <trkpt lat="47.52577" lon="6.71246">
        <ele>362</ele>
        <time>2016-08-24T16:07:11.000Z</time>
      </trkpt>
      <trkpt lat="47.52572" lon="6.71245">
        <ele>362</ele>
        <time>2016-08-24T16:07:12.000Z</time>
      </trkpt>
      <trkpt lat="47.52568" lon="6.71244">
        <ele>361</ele>
        <time>2016-08-24T16:07:13.000Z</time>
      </trkpt>
      <trkpt lat="47.52564" lon="6.71243">
        <ele>361</ele>
        <time>2016-08-24T16:07:14.000Z</time>
      </trkpt>
      <trkpt lat="47.5256" lon="6.7124">
        <ele>361</ele>
        <time>2016-08-24T16:07:15.000Z</time>
      </trkpt>
      <trkpt lat="47.52556" lon="6.71238">
        <ele>361</ele>
        <time>2016-08-24T16:07:16.000Z</time>
      </trkpt>
      <trkpt lat="47.52552" lon="6.71235">
        <ele>361</ele>
        <time>2016-08-24T16:07:17.000Z</time>
      </trkpt>
      <trkpt lat="47.52549" lon="6.71232">
        <ele>361</ele>
        <time>2016-08-24T16:07:18.000Z</time>
      </trkpt>
      <trkpt lat="47.52545" lon="6.7123">
        <ele>361</ele>
        <time>2016-08-24T16:07:19.000Z</time>
      </trkpt>
      <trkpt lat="47.52541" lon="6.71227">
        <ele>361</ele>
        <time>2016-08-24T16:07:20.000Z</time>
      </trkpt>
      <trkpt lat="47.52537" lon="6.71225">
        <ele>361</ele>
        <time>2016-08-24T16:07:21.000Z</time>
      </trkpt>
      <trkpt lat="47.52533" lon="6.71223">
        <ele>360</ele>
        <time>2016-08-24T16:07:22.000Z</time>
      </trkpt>
      <trkpt lat="47.5253" lon="6.71221">
        <ele>360</ele>
        <time>2016-08-24T16:07:23.000Z</time>
      </trkpt>
      <trkpt lat="47.52527" lon="6.71219">
        <ele>360</ele>
        <time>2016-08-24T16:07:24.000Z</time>
      </trkpt>
      <trkpt lat="47.52523" lon="6.71216">
        <ele>360</ele>
        <time>2016-08-24T16:07:25.000Z</time>
      </trkpt>
      <trkpt lat="47.5252" lon="6.71212">
        <ele>360</ele>
        <time>2016-08-24T16:07:26.000Z</time>
      </trkpt>
      <trkpt lat="47.52517" lon="6.71208">
        <ele>360</ele>
        <time>2016-08-24T16:07:27.000Z</time>
      </trkpt>
      <trkpt lat="47.52514" lon="6.71204">
        <ele>361</ele>
        <time>2016-08-24T16:07:28.000Z</time>
      </trkpt>
      <trkpt lat="47.52511" lon="6.712">
        <ele>361</ele>
        <time>2016-08-24T16:07:29.000Z</time>
      </trkpt>
      <trkpt lat="47.52509" lon="6.71196">
        <ele>361</ele>
        <time>2016-08-24T16:07:30.000Z</time>
      </trkpt>
      <trkpt lat="47.52506" lon="6.71192">
        <ele>361</ele>
        <time>2016-08-24T16:07:31.000Z</time>
      </trkpt>
      <trkpt lat="47.52503" lon="6.71188">
        <ele>361</ele>
        <time>2016-08-24T16:07:32.000Z</time>
      </trkpt>
      <trkpt lat="47.52501" lon="6.71184">
        <ele>361</ele>
        <time>2016-08-24T16:07:33.000Z</time>
      </trkpt>
      <trkpt lat="47.52498" lon="6.7118">
        <ele>361</ele>
        <time>2016-08-24T16:07:34.000Z</time>
      </trkpt>
      <trkpt lat="47.52495" lon="6.71176">
        <ele>361</ele>
        <time>2016-08-24T16:07:35.000Z</time>
      </trkpt>
      <trkpt lat="47.52492" lon="6.71172">
        <ele>361</ele>
        <time>2016-08-24T16:07:36.000Z</time>
      </trkpt>
      <trkpt lat="47.52488" lon="6.7117">
        <ele>361</ele>
        <time>2016-08-24T16:07:37.000Z</time>
      </trkpt>
      <trkpt lat="47.52485" lon="6.71169">
        <ele>361</ele>
        <time>2016-08-24T16:07:38.000Z</time>
      </trkpt>
      <trkpt lat="47.52481" lon="6.71168">
        <ele>361</ele>
        <time>2016-08-24T16:07:39.000Z</time>
      </trkpt>
      <trkpt lat="47.52477" lon="6.71168">
        <ele>361</ele>
        <time>2016-08-24T16:07:40.000Z</time>
      </trkpt>
      <trkpt lat="47.52474" lon="6.71169">
        <ele>361</ele>
        <time>2016-08-24T16:07:41.000Z</time>
      </trkpt>
      <trkpt lat="47.5247" lon="6.71169">
        <ele>361</ele>
        <time>2016-08-24T16:07:42.000Z</time>
      </trkpt>
      <trkpt lat="47.52466" lon="6.71169">
        <ele>361</ele>
        <time>2016-08-24T16:07:43.000Z</time>
      </trkpt>
      <trkpt lat="47.52463" lon="6.7117">
        <ele>361</ele>
        <time>2016-08-24T16:07:44.000Z</time>
      </trkpt>
      <trkpt lat="47.5246" lon="6.7117">
        <ele>361</ele>
        <time>2016-08-24T16:07:45.000Z</time>
      </trkpt>
      <trkpt lat="47.52457" lon="6.71171">
        <ele>361</ele>
        <time>2016-08-24T16:07:46.000Z</time>
      </trkpt>
      <trkpt lat="47.52454" lon="6.71172">
        <ele>361</ele>
        <time>2016-08-24T16:07:47.000Z</time>
      </trkpt>
      <trkpt lat="47.52451" lon="6.71172">
        <ele>361</ele>
        <time>2016-08-24T16:07:48.000Z</time>
      </trkpt>
      <trkpt lat="47.52449" lon="6.71173">
        <ele>361</ele>
        <time>2016-08-24T16:07:49.000Z</time>
      </trkpt>
      <trkpt lat="47.52446" lon="6.71174">
        <ele>361</ele>
        <time>2016-08-24T16:07:50.000Z</time>
      </trkpt>
      <trkpt lat="47.52443" lon="6.71174">
        <ele>361</ele>
        <time>2016-08-24T16:07:51.000Z</time>
      </trkpt>
      <trkpt lat="47.52439" lon="6.71175">
        <ele>361</ele>
        <time>2016-08-24T16:07:52.000Z</time>
      </trkpt>
      <trkpt lat="47.52436" lon="6.71176">
        <ele>361</ele>
        <time>2016-08-24T16:07:53.000Z</time>
      </trkpt>
      <trkpt lat="47.52433" lon="6.71177">
        <ele>362</ele>
        <time>2016-08-24T16:07:54.000Z</time>
      </trkpt>
      <trkpt lat="47.5243" lon="6.71178">
        <ele>362</ele>
        <time>2016-08-24T16:07:55.000Z</time>
      </trkpt>
      <trkpt lat="47.52427" lon="6.71179">
        <ele>362</ele>
        <time>2016-08-24T16:07:56.000Z</time>
      </trkpt>
      <trkpt lat="47.52425" lon="6.71179">
        <ele>362</ele>
        <time>2016-08-24T16:07:57.000Z</time>
      </trkpt>
      <trkpt lat="47.52422" lon="6.7118">
        <ele>362</ele>
        <time>2016-08-24T16:07:58.000Z</time>
      </trkpt>
      <trkpt lat="47.52419" lon="6.7118">
        <ele>362</ele>
        <time>2016-08-24T16:07:59.000Z</time>
      </trkpt>
      <trkpt lat="47.52416" lon="6.7118">
        <ele>363</ele>
        <time>2016-08-24T16:08:00.000Z</time>
      </trkpt>
      <trkpt lat="47.52413" lon="6.71181">
        <ele>363</ele>
        <time>2016-08-24T16:08:01.000Z</time>
      </trkpt>
      <trkpt lat="47.5241" lon="6.7118">
        <ele>363</ele>
        <time>2016-08-24T16:08:02.000Z</time>
      </trkpt>
      <trkpt lat="47.52406" lon="6.7118">
        <ele>363</ele>
        <time>2016-08-24T16:08:03.000Z</time>
      </trkpt>
      <trkpt lat="47.52403" lon="6.71179">
        <ele>363</ele>
        <time>2016-08-24T16:08:04.000Z</time>
      </trkpt>
      <trkpt lat="47.52399" lon="6.71179">
        <ele>364</ele>
        <time>2016-08-24T16:08:05.000Z</time>
      </trkpt>
      <trkpt lat="47.52395" lon="6.71179">
        <ele>364</ele>
        <time>2016-08-24T16:08:06.000Z</time>
      </trkpt>
      <trkpt lat="47.52391" lon="6.71179">
        <ele>364</ele>
        <time>2016-08-24T16:08:07.000Z</time>
      </trkpt>
      <trkpt lat="47.52387" lon="6.71178">
        <ele>364</ele>
        <time>2016-08-24T16:08:08.000Z</time>
      </trkpt>
      <trkpt lat="47.52383" lon="6.71178">
        <ele>364</ele>
        <time>2016-08-24T16:08:09.000Z</time>
      </trkpt>
      <trkpt lat="47.52379" lon="6.71178">
        <ele>364</ele>
        <time>2016-08-24T16:08:10.000Z</time>
      </trkpt>
      <trkpt lat="47.52376" lon="6.71177">
        <ele>364</ele>
        <time>2016-08-24T16:08:11.000Z</time>
      </trkpt>
      <trkpt lat="47.52372" lon="6.71176">
        <ele>364</ele>
        <time>2016-08-24T16:08:12.000Z</time>
      </trkpt>
      <trkpt lat="47.52369" lon="6.71175">
        <ele>365</ele>
        <time>2016-08-24T16:08:13.000Z</time>
      </trkpt>
      <trkpt lat="47.52366" lon="6.71173">
        <ele>365</ele>
        <time>2016-08-24T16:08:14.000Z</time>
      </trkpt>
      <trkpt lat="47.52364" lon="6.7117">
        <ele>365</ele>
        <time>2016-08-24T16:08:15.000Z</time>
      </trkpt>
      <trkpt lat="47.52363" lon="6.71167">
        <ele>365</ele>
        <time>2016-08-24T16:08:16.000Z</time>
      </trkpt>
      <trkpt lat="47.52361" lon="6.71164">
        <ele>366</ele>
        <time>2016-08-24T16:08:17.000Z</time>
      </trkpt>
      <trkpt lat="47.52359" lon="6.71161">
        <ele>366</ele>
        <time>2016-08-24T16:08:18.000Z</time>
      </trkpt>
      <trkpt lat="47.52356" lon="6.71157">
        <ele>366</ele>
        <time>2016-08-24T16:08:19.000Z</time>
      </trkpt>
      <trkpt lat="47.52352" lon="6.71154">
        <ele>366</ele>
        <time>2016-08-24T16:08:20.000Z</time>
      </trkpt>
      <trkpt lat="47.52349" lon="6.71151">
        <ele>366</ele>
        <time>2016-08-24T16:08:21.000Z</time>
      </trkpt>
      <trkpt lat="47.52346" lon="6.71148">
        <ele>366</ele>
        <time>2016-08-24T16:08:22.000Z</time>
      </trkpt>
      <trkpt lat="47.52342" lon="6.71146">
        <ele>366</ele>
        <time>2016-08-24T16:08:23.000Z</time>
      </trkpt>
      <trkpt lat="47.52338" lon="6.71145">
        <ele>366</ele>
        <time>2016-08-24T16:08:24.000Z</time>
      </trkpt>
      <trkpt lat="47.52334" lon="6.71145">
        <ele>366</ele>
        <time>2016-08-24T16:08:25.000Z</time>
      </trkpt>
      <trkpt lat="47.5233" lon="6.71147">
        <ele>366</ele>
        <time>2016-08-24T16:08:26.000Z</time>
      </trkpt>
      <trkpt lat="47.52326" lon="6.71149">
        <ele>366</ele>
        <time>2016-08-24T16:08:27.000Z</time>
      </trkpt>
      <trkpt lat="47.52323" lon="6.71153">
        <ele>366</ele>
        <time>2016-08-24T16:08:28.000Z</time>
      </trkpt>
      <trkpt lat="47.5232" lon="6.71156">
        <ele>366</ele>
        <time>2016-08-24T16:08:29.000Z</time>
      </trkpt>
      <trkpt lat="47.52317" lon="6.71159">
        <ele>366</ele>
        <time>2016-08-24T16:08:30.000Z</time>
      </trkpt>
      <trkpt lat="47.52313" lon="6.71163">
        <ele>366</ele>
        <time>2016-08-24T16:08:31.000Z</time>
      </trkpt>
      <trkpt lat="47.5231" lon="6.71166">
        <ele>366</ele>
        <time>2016-08-24T16:08:32.000Z</time>
      </trkpt>
      <trkpt lat="47.52307" lon="6.7117">
        <ele>367</ele>
        <time>2016-08-24T16:08:33.000Z</time>
      </trkpt>
      <trkpt lat="47.52304" lon="6.71174">
        <ele>367</ele>
        <time>2016-08-24T16:08:34.000Z</time>
      </trkpt>
      <trkpt lat="47.52301" lon="6.7118">
        <ele>367</ele>
        <time>2016-08-24T16:08:35.000Z</time>
      </trkpt>
      <trkpt lat="47.52298" lon="6.71184">
        <ele>367</ele>
        <time>2016-08-24T16:08:36.000Z</time>
      </trkpt>
      <trkpt lat="47.52295" lon="6.71189">
        <ele>367</ele>
        <time>2016-08-24T16:08:37.000Z</time>
      </trkpt>
      <trkpt lat="47.52293" lon="6.71193">
        <ele>367</ele>
        <time>2016-08-24T16:08:38.000Z</time>
      </trkpt>
      <trkpt lat="47.5229" lon="6.71198">
        <ele>367</ele>
        <time>2016-08-24T16:08:39.000Z</time>
      </trkpt>
      <trkpt lat="47.52287" lon="6.71201">
        <ele>367</ele>
        <time>2016-08-24T16:08:40.000Z</time>
      </trkpt>
      <trkpt lat="47.52285" lon="6.71204">
        <ele>368</ele>
        <time>2016-08-24T16:08:41.000Z</time>
      </trkpt>
      <trkpt lat="47.52282" lon="6.71207">
        <ele>368</ele>
        <time>2016-08-24T16:08:42.000Z</time>
      </trkpt>
      <trkpt lat="47.52279" lon="6.71209">
        <ele>368</ele>
        <time>2016-08-24T16:08:43.000Z</time>
      </trkpt>
      <trkpt lat="47.52276" lon="6.71211">
        <ele>368</ele>
        <time>2016-08-24T16:08:44.000Z</time>
      </trkpt>
      <trkpt lat="47.52273" lon="6.71213">
        <ele>368</ele>
        <time>2016-08-24T16:08:45.000Z</time>
      </trkpt>
      <trkpt lat="47.52271" lon="6.71214">
        <ele>368</ele>
        <time>2016-08-24T16:08:46.000Z</time>
      </trkpt>
      <trkpt lat="47.52268" lon="6.71215">
        <ele>368</ele>
        <time>2016-08-24T16:08:47.000Z</time>
      </trkpt>
      <trkpt lat="47.52265" lon="6.71217">
        <ele>368</ele>
        <time>2016-08-24T16:08:48.000Z</time>
      </trkpt>
      <trkpt lat="47.52262" lon="6.7122">
        <ele>368</ele>
        <time>2016-08-24T16:08:49.000Z</time>
      </trkpt>
      <trkpt lat="47.5226" lon="6.71222">
        <ele>368</ele>
        <time>2016-08-24T16:08:50.000Z</time>
      </trkpt>
      <trkpt lat="47.52258" lon="6.71225">
        <ele>369</ele>
        <time>2016-08-24T16:08:51.000Z</time>
      </trkpt>
      <trkpt lat="47.52256" lon="6.71228">
        <ele>369</ele>
        <time>2016-08-24T16:08:52.000Z</time>
      </trkpt>
      <trkpt lat="47.52255" lon="6.71231">
        <ele>369</ele>
        <time>2016-08-24T16:08:53.000Z</time>
      </trkpt>
      <trkpt lat="47.52252" lon="6.71234">
        <ele>369</ele>
        <time>2016-08-24T16:08:55.000Z</time>
      </trkpt>
      <trkpt lat="47.52251" lon="6.71235">
        <ele>369</ele>
        <time>2016-08-24T16:08:56.000Z</time>
      </trkpt>
      <trkpt lat="47.52248" lon="6.71237">
        <ele>371</ele>
        <time>2016-08-24T16:08:58.000Z</time>
      </trkpt>
      <trkpt lat="47.52246" lon="6.71239">
        <ele>371</ele>
        <time>2016-08-24T16:08:59.000Z</time>
      </trkpt>
      <trkpt lat="47.52244" lon="6.7124">
        <ele>371</ele>
        <time>2016-08-24T16:09:00.000Z</time>
      </trkpt>
      <trkpt lat="47.52242" lon="6.71242">
        <ele>371</ele>
        <time>2016-08-24T16:09:01.000Z</time>
      </trkpt>
      <trkpt lat="47.52239" lon="6.71243">
        <ele>371</ele>
        <time>2016-08-24T16:09:02.000Z</time>
      </trkpt>
      <trkpt lat="47.52237" lon="6.71244">
        <ele>371</ele>
        <time>2016-08-24T16:09:03.000Z</time>
      </trkpt>
      <trkpt lat="47.52235" lon="6.71245">
        <ele>371</ele>
        <time>2016-08-24T16:09:04.000Z</time>
      </trkpt>
      <trkpt lat="47.52233" lon="6.71247">
        <ele>371</ele>
        <time>2016-08-24T16:09:05.000Z</time>
      </trkpt>
      <trkpt lat="47.52231" lon="6.7125">
        <ele>371</ele>
        <time>2016-08-24T16:09:06.000Z</time>
      </trkpt>
      <trkpt lat="47.52229" lon="6.71252">
        <ele>374</ele>
        <time>2016-08-24T16:09:07.000Z</time>
      </trkpt>
      <trkpt lat="47.52227" lon="6.71253">
        <ele>374</ele>
        <time>2016-08-24T16:09:08.000Z</time>
      </trkpt>
      <trkpt lat="47.52224" lon="6.71255">
        <ele>374</ele>
        <time>2016-08-24T16:09:09.000Z</time>
      </trkpt>
      <trkpt lat="47.52222" lon="6.71258">
        <ele>375</ele>
        <time>2016-08-24T16:09:10.000Z</time>
      </trkpt>
      <trkpt lat="47.52219" lon="6.7126">
        <ele>375</ele>
        <time>2016-08-24T16:09:11.000Z</time>
      </trkpt>
      <trkpt lat="47.52216" lon="6.71262">
        <ele>375</ele>
        <time>2016-08-24T16:09:12.000Z</time>
      </trkpt>
      <trkpt lat="47.52214" lon="6.71264">
        <ele>375</ele>
        <time>2016-08-24T16:09:12.998Z</time>
      </trkpt>
      <trkpt lat="47.5221" lon="6.71266">
        <ele>376</ele>
        <time>2016-08-24T16:09:15.000Z</time>
      </trkpt>
      <trkpt lat="47.52209" lon="6.71267">
        <ele>376</ele>
        <time>2016-08-24T16:09:16.000Z</time>
      </trkpt>
      <trkpt lat="47.52206" lon="6.7127">
        <ele>376</ele>
        <time>2016-08-24T16:09:18.000Z</time>
      </trkpt>
      <trkpt lat="47.52204" lon="6.71273">
        <ele>376</ele>
        <time>2016-08-24T16:09:19.000Z</time>
      </trkpt>
      <trkpt lat="47.52202" lon="6.71276">
        <ele>376</ele>
        <time>2016-08-24T16:09:20.000Z</time>
      </trkpt>
      <trkpt lat="47.522" lon="6.71278">
        <ele>376</ele>
        <time>2016-08-24T16:09:21.000Z</time>
      </trkpt>
      <trkpt lat="47.52198" lon="6.71279">
        <ele>376</ele>
        <time>2016-08-24T16:09:22.000Z</time>
      </trkpt>
      <trkpt lat="47.52196" lon="6.71282">
        <ele>376</ele>
        <time>2016-08-24T16:09:23.000Z</time>
      </trkpt>
      <trkpt lat="47.52193" lon="6.71284">
        <ele>377</ele>
        <time>2016-08-24T16:09:24.000Z</time>
      </trkpt>
      <trkpt lat="47.52192" lon="6.71286">
        <ele>377</ele>
        <time>2016-08-24T16:09:25.000Z</time>
      </trkpt>
      <trkpt lat="47.52189" lon="6.7129">
        <ele>377</ele>
        <time>2016-08-24T16:09:27.000Z</time>
      </trkpt>
      <trkpt lat="47.52188" lon="6.71292">
        <ele>377</ele>
        <time>2016-08-24T16:09:28.000Z</time>
      </trkpt>
      <trkpt lat="47.52186" lon="6.71295">
        <ele>377</ele>
        <time>2016-08-24T16:09:30.000Z</time>
      </trkpt>
      <trkpt lat="47.52185" lon="6.71296">
        <ele>377</ele>
        <time>2016-08-24T16:09:31.000Z</time>
      </trkpt>
      <trkpt lat="47.52182" lon="6.713">
        <ele>378</ele>
        <time>2016-08-24T16:09:33.000Z</time>
      </trkpt>
      <trkpt lat="47.52181" lon="6.71301">
        <ele>378</ele>
        <time>2016-08-24T16:09:34.000Z</time>
      </trkpt>
      <trkpt lat="47.52177" lon="6.71303">
        <ele>378</ele>
        <time>2016-08-24T16:09:37.000Z</time>
      </trkpt>
      <trkpt lat="47.52176" lon="6.71304">
        <ele>378</ele>
        <time>2016-08-24T16:09:38.000Z</time>
      </trkpt>
      <trkpt lat="47.52173" lon="6.71307">
        <ele>378</ele>
        <time>2016-08-24T16:09:40.000Z</time>
      </trkpt>
      <trkpt lat="47.52171" lon="6.71308">
        <ele>378</ele>
        <time>2016-08-24T16:09:41.000Z</time>
      </trkpt>
      <trkpt lat="47.52168" lon="6.71312">
        <ele>379</ele>
        <time>2016-08-24T16:09:43.000Z</time>
      </trkpt>
      <trkpt lat="47.52167" lon="6.71314">
        <ele>383</ele>
        <time>2016-08-24T16:09:44.000Z</time>
      </trkpt>
      <trkpt lat="47.52165" lon="6.71317">
        <ele>383</ele>
        <time>2016-08-24T16:09:45.000Z</time>
      </trkpt>
      <trkpt lat="47.52164" lon="6.7132">
        <ele>383</ele>
        <time>2016-08-24T16:09:46.000Z</time>
      </trkpt>
      <trkpt lat="47.52162" lon="6.71323">
        <ele>383</ele>
        <time>2016-08-24T16:09:47.000Z</time>
      </trkpt>
      <trkpt lat="47.5216" lon="6.71326">
        <ele>383</ele>
        <time>2016-08-24T16:09:48.000Z</time>
      </trkpt>
      <trkpt lat="47.52159" lon="6.71328">
        <ele>383</ele>
        <time>2016-08-24T16:09:49.000Z</time>
      </trkpt>
      <trkpt lat="47.52157" lon="6.71331">
        <ele>383</ele>
        <time>2016-08-24T16:09:50.000Z</time>
      </trkpt>
      <trkpt lat="47.52155" lon="6.71333">
        <ele>385</ele>
        <time>2016-08-24T16:09:51.000Z</time>
      </trkpt>
      <trkpt lat="47.52154" lon="6.71336">
        <ele>385</ele>
        <time>2016-08-24T16:09:52.000Z</time>
      </trkpt>
      <trkpt lat="47.52152" lon="6.71339">
        <ele>386</ele>
        <time>2016-08-24T16:09:53.000Z</time>
      </trkpt>
      <trkpt lat="47.52151" lon="6.71343">
        <ele>386</ele>
        <time>2016-08-24T16:09:54.000Z</time>
      </trkpt>
      <trkpt lat="47.5215" lon="6.71346">
        <ele>386</ele>
        <time>2016-08-24T16:09:55.000Z</time>
      </trkpt>
      <trkpt lat="47.52149" lon="6.7135">
        <ele>387</ele>
        <time>2016-08-24T16:09:56.000Z</time>
      </trkpt>
      <trkpt lat="47.52148" lon="6.71353">
        <ele>387</ele>
        <time>2016-08-24T16:09:57.000Z</time>
      </trkpt>
      <trkpt lat="47.52148" lon="6.71357">
        <ele>387</ele>
        <time>2016-08-24T16:09:58.000Z</time>
      </trkpt>
      <trkpt lat="47.52148" lon="6.7136">
        <ele>388</ele>
        <time>2016-08-24T16:09:59.000Z</time>
      </trkpt>
      <trkpt lat="47.52147" lon="6.71364">
        <ele>388</ele>
        <time>2016-08-24T16:10:00.000Z</time>
      </trkpt>
      <trkpt lat="47.52147" lon="6.7137">
        <ele>388</ele>
        <time>2016-08-24T16:10:02.000Z</time>
      </trkpt>
      <trkpt lat="47.52148" lon="6.71374">
        <ele>388</ele>
        <time>2016-08-24T16:10:03.000Z</time>
      </trkpt>
      <trkpt lat="47.52149" lon="6.71378">
        <ele>388</ele>
        <time>2016-08-24T16:10:04.000Z</time>
      </trkpt>
      <trkpt lat="47.5215" lon="6.71381">
        <ele>388</ele>
        <time>2016-08-24T16:10:05.000Z</time>
      </trkpt>
      <trkpt lat="47.52152" lon="6.71385">
        <ele>388</ele>
        <time>2016-08-24T16:10:06.000Z</time>
      </trkpt>
      <trkpt lat="47.52153" lon="6.71389">
        <ele>388</ele>
        <time>2016-08-24T16:10:07.000Z</time>
      </trkpt>
      <trkpt lat="47.52154" lon="6.71393">
        <ele>388</ele>
        <time>2016-08-24T16:10:08.000Z</time>
      </trkpt>
      <trkpt lat="47.52155" lon="6.71396">
        <ele>388</ele>
        <time>2016-08-24T16:10:09.000Z</time>
      </trkpt>
      <trkpt lat="47.52156" lon="6.714">
        <ele>388</ele>
        <time>2016-08-24T16:10:10.000Z</time>
      </trkpt>
      <trkpt lat="47.52157" lon="6.71404">
        <ele>388</ele>
        <time>2016-08-24T16:10:11.000Z</time>
      </trkpt>
      <trkpt lat="47.52158" lon="6.71408">
        <ele>388</ele>
        <time>2016-08-24T16:10:12.000Z</time>
      </trkpt>
      <trkpt lat="47.52159" lon="6.71411">
        <ele>388</ele>
        <time>2016-08-24T16:10:13.000Z</time>
      </trkpt>
      <trkpt lat="47.5216" lon="6.71415">
        <ele>388</ele>
        <time>2016-08-24T16:10:14.000Z</time>
      </trkpt>
      <trkpt lat="47.5216" lon="6.71419">
        <ele>389</ele>
        <time>2016-08-24T16:10:15.000Z</time>
      </trkpt>
      <trkpt lat="47.5216" lon="6.71423">
        <ele>389</ele>
        <time>2016-08-24T16:10:16.000Z</time>
      </trkpt>
      <trkpt lat="47.52161" lon="6.71427">
        <ele>390</ele>
        <time>2016-08-24T16:10:17.000Z</time>
      </trkpt>
      <trkpt lat="47.52161" lon="6.7143">
        <ele>391</ele>
        <time>2016-08-24T16:10:18.000Z</time>
      </trkpt>
      <trkpt lat="47.52162" lon="6.71435">
        <ele>391</ele>
        <time>2016-08-24T16:10:19.000Z</time>
      </trkpt>
      <trkpt lat="47.52162" lon="6.71439">
        <ele>392</ele>
        <time>2016-08-24T16:10:20.000Z</time>
      </trkpt>
      <trkpt lat="47.52163" lon="6.71443">
        <ele>392</ele>
        <time>2016-08-24T16:10:21.000Z</time>
      </trkpt>
      <trkpt lat="47.52164" lon="6.71446">
        <ele>393</ele>
        <time>2016-08-24T16:10:22.000Z</time>
      </trkpt>
      <trkpt lat="47.52165" lon="6.7145">
        <ele>393</ele>
        <time>2016-08-24T16:10:23.000Z</time>
      </trkpt>
      <trkpt lat="47.52166" lon="6.71453">
        <ele>393</ele>
        <time>2016-08-24T16:10:24.000Z</time>
      </trkpt>
      <trkpt lat="47.52168" lon="6.71457">
        <ele>388</ele>
        <time>2016-08-24T16:10:25.000Z</time>
      </trkpt>
      <trkpt lat="47.52169" lon="6.7146">
        <ele>388</ele>
        <time>2016-08-24T16:10:26.000Z</time>
      </trkpt>
      <trkpt lat="47.52169" lon="6.71464">
        <ele>388</ele>
        <time>2016-08-24T16:10:27.000Z</time>
      </trkpt>
      <trkpt lat="47.52169" lon="6.71468">
        <ele>388</ele>
        <time>2016-08-24T16:10:28.000Z</time>
      </trkpt>
      <trkpt lat="47.52169" lon="6.71472">
        <ele>389</ele>
        <time>2016-08-24T16:10:29.000Z</time>
      </trkpt>
      <trkpt lat="47.52169" lon="6.71475">
        <ele>389</ele>
        <time>2016-08-24T16:10:30.000Z</time>
      </trkpt>
      <trkpt lat="47.52168" lon="6.71479">
        <ele>390</ele>
        <time>2016-08-24T16:10:31.000Z</time>
      </trkpt>
      <trkpt lat="47.52168" lon="6.71483">
        <ele>390</ele>
        <time>2016-08-24T16:10:32.000Z</time>
      </trkpt>
      <trkpt lat="47.52168" lon="6.71487">
        <ele>391</ele>
        <time>2016-08-24T16:10:33.000Z</time>
      </trkpt>
      <trkpt lat="47.52168" lon="6.71491">
        <ele>392</ele>
        <time>2016-08-24T16:10:34.000Z</time>
      </trkpt>
      <trkpt lat="47.52168" lon="6.71495">
        <ele>393</ele>
        <time>2016-08-24T16:10:35.000Z</time>
      </trkpt>
      <trkpt lat="47.52168" lon="6.715">
        <ele>394</ele>
        <time>2016-08-24T16:10:36.000Z</time>
      </trkpt>
      <trkpt lat="47.52167" lon="6.71504">
        <ele>393</ele>
        <time>2016-08-24T16:10:37.000Z</time>
      </trkpt>
      <trkpt lat="47.52167" lon="6.71509">
        <ele>393</ele>
        <time>2016-08-24T16:10:38.000Z</time>
      </trkpt>
      <trkpt lat="47.52167" lon="6.71514">
        <ele>392</ele>
        <time>2016-08-24T16:10:39.000Z</time>
      </trkpt>
      <trkpt lat="47.52167" lon="6.71518">
        <ele>392</ele>
        <time>2016-08-24T16:10:40.000Z</time>
      </trkpt>
      <trkpt lat="47.52167" lon="6.71522">
        <ele>392</ele>
        <time>2016-08-24T16:10:41.000Z</time>
      </trkpt>
      <trkpt lat="47.52167" lon="6.71526">
        <ele>398</ele>
        <time>2016-08-24T16:10:42.000Z</time>
      </trkpt>
      <trkpt lat="47.52166" lon="6.71529">
        <ele>398</ele>
        <time>2016-08-24T16:10:43.000Z</time>
      </trkpt>
      <trkpt lat="47.52166" lon="6.71533">
        <ele>398</ele>
        <time>2016-08-24T16:10:44.000Z</time>
      </trkpt>
      <trkpt lat="47.52166" lon="6.71537">
        <ele>399</ele>
        <time>2016-08-24T16:10:45.000Z</time>
      </trkpt>
      <trkpt lat="47.52166" lon="6.71541">
        <ele>399</ele>
        <time>2016-08-24T16:10:46.000Z</time>
      </trkpt>
      <trkpt lat="47.52166" lon="6.71546">
        <ele>399</ele>
        <time>2016-08-24T16:10:47.000Z</time>
      </trkpt>
      <trkpt lat="47.52166" lon="6.7155">
        <ele>399</ele>
        <time>2016-08-24T16:10:48.000Z</time>
      </trkpt>
      <trkpt lat="47.52166" lon="6.71555">
        <ele>399</ele>
        <time>2016-08-24T16:10:49.000Z</time>
      </trkpt>
      <trkpt lat="47.52166" lon="6.7156">
        <ele>398</ele>
        <time>2016-08-24T16:10:50.000Z</time>
      </trkpt>
      <trkpt lat="47.52166" lon="6.71564">
        <ele>398</ele>
        <time>2016-08-24T16:10:51.000Z</time>
      </trkpt>
      <trkpt lat="47.52166" lon="6.71569">
        <ele>398</ele>
        <time>2016-08-24T16:10:52.000Z</time>
      </trkpt>
      <trkpt lat="47.52166" lon="6.71573">
        <ele>397</ele>
        <time>2016-08-24T16:10:53.000Z</time>
      </trkpt>
      <trkpt lat="47.52165" lon="6.71576">
        <ele>397</ele>
        <time>2016-08-24T16:10:54.000Z</time>
      </trkpt>
      <trkpt lat="47.52165" lon="6.7158">
        <ele>396</ele>
        <time>2016-08-24T16:10:55.000Z</time>
      </trkpt>
      <trkpt lat="47.52164" lon="6.71583">
        <ele>396</ele>
        <time>2016-08-24T16:10:56.000Z</time>
      </trkpt>
      <trkpt lat="47.52162" lon="6.71586">
        <ele>396</ele>
        <time>2016-08-24T16:10:57.000Z</time>
      </trkpt>
      <trkpt lat="47.5216" lon="6.71588">
        <ele>397</ele>
        <time>2016-08-24T16:10:58.000Z</time>
      </trkpt>
      <trkpt lat="47.52158" lon="6.7159">
        <ele>398</ele>
        <time>2016-08-24T16:10:59.000Z</time>
      </trkpt>
      <trkpt lat="47.52154" lon="6.71593">
        <ele>398</ele>
        <time>2016-08-24T16:11:01.000Z</time>
      </trkpt>
      <trkpt lat="47.52152" lon="6.71593">
        <ele>399</ele>
        <time>2016-08-24T16:11:02.000Z</time>
      </trkpt>
      <trkpt lat="47.52148" lon="6.71594">
        <ele>399</ele>
        <time>2016-08-24T16:11:04.000Z</time>
      </trkpt>
      <trkpt lat="47.52146" lon="6.71595">
        <ele>400</ele>
        <time>2016-08-24T16:11:05.000Z</time>
      </trkpt>
      <trkpt lat="47.52143" lon="6.71595">
        <ele>400</ele>
        <time>2016-08-24T16:11:06.000Z</time>
      </trkpt>
      <trkpt lat="47.52141" lon="6.71595">
        <ele>400</ele>
        <time>2016-08-24T16:11:07.000Z</time>
      </trkpt>
      <trkpt lat="47.52138" lon="6.71596">
        <ele>401</ele>
        <time>2016-08-24T16:11:08.000Z</time>
      </trkpt>
      <trkpt lat="47.52136" lon="6.71596">
        <ele>401</ele>
        <time>2016-08-24T16:11:09.000Z</time>
      </trkpt>
      <trkpt lat="47.52132" lon="6.71597">
        <ele>402</ele>
        <time>2016-08-24T16:11:11.000Z</time>
      </trkpt>
      <trkpt lat="47.5213" lon="6.71598">
        <ele>402</ele>
        <time>2016-08-24T16:11:12.000Z</time>
      </trkpt>
      <trkpt lat="47.52128" lon="6.716">
        <ele>402</ele>
        <time>2016-08-24T16:11:13.000Z</time>
      </trkpt>
      <trkpt lat="47.52125" lon="6.71601">
        <ele>403</ele>
        <time>2016-08-24T16:11:14.000Z</time>
      </trkpt>
      <trkpt lat="47.52121" lon="6.71602">
        <ele>403</ele>
        <time>2016-08-24T16:11:16.000Z</time>
      </trkpt>
      <trkpt lat="47.52119" lon="6.71603">
        <ele>403</ele>
        <time>2016-08-24T16:11:17.000Z</time>
      </trkpt>
      <trkpt lat="47.52116" lon="6.71606">
        <ele>404</ele>
        <time>2016-08-24T16:11:19.000Z</time>
      </trkpt>
      <trkpt lat="47.52114" lon="6.71609">
        <ele>404</ele>
        <time>2016-08-24T16:11:20.000Z</time>
      </trkpt>
      <trkpt lat="47.52112" lon="6.71612">
        <ele>404</ele>
        <time>2016-08-24T16:11:21.000Z</time>
      </trkpt>
      <trkpt lat="47.52109" lon="6.71615">
        <ele>404</ele>
        <time>2016-08-24T16:11:22.000Z</time>
      </trkpt>
      <trkpt lat="47.52107" lon="6.71619">
        <ele>404</ele>
        <time>2016-08-24T16:11:23.000Z</time>
      </trkpt>
      <trkpt lat="47.52105" lon="6.71622">
        <ele>404</ele>
        <time>2016-08-24T16:11:24.000Z</time>
      </trkpt>
      <trkpt lat="47.52102" lon="6.71625">
        <ele>405</ele>
        <time>2016-08-24T16:11:25.000Z</time>
      </trkpt>
      <trkpt lat="47.521" lon="6.71628">
        <ele>405</ele>
        <time>2016-08-24T16:11:26.000Z</time>
      </trkpt>
      <trkpt lat="47.52098" lon="6.7163">
        <ele>405</ele>
        <time>2016-08-24T16:11:26.998Z</time>
      </trkpt>
      <trkpt lat="47.52095" lon="6.71633">
        <ele>405</ele>
        <time>2016-08-24T16:11:28.000Z</time>
      </trkpt>
      <trkpt lat="47.52092" lon="6.71636">
        <ele>405</ele>
        <time>2016-08-24T16:11:29.000Z</time>
      </trkpt>
      <trkpt lat="47.52089" lon="6.7164">
        <ele>406</ele>
        <time>2016-08-24T16:11:30.000Z</time>
      </trkpt>
      <trkpt lat="47.52087" lon="6.71643">
        <ele>406</ele>
        <time>2016-08-24T16:11:31.000Z</time>
      </trkpt>
      <trkpt lat="47.52084" lon="6.71646">
        <ele>407</ele>
        <time>2016-08-24T16:11:32.000Z</time>
      </trkpt>
      <trkpt lat="47.52082" lon="6.71648">
        <ele>412</ele>
        <time>2016-08-24T16:11:32.998Z</time>
      </trkpt>
      <trkpt lat="47.5208" lon="6.71652">
        <ele>412</ele>
        <time>2016-08-24T16:11:34.000Z</time>
      </trkpt>
      <trkpt lat="47.52078" lon="6.71654">
        <ele>412</ele>
        <time>2016-08-24T16:11:35.000Z</time>
      </trkpt>
      <trkpt lat="47.52077" lon="6.71657">
        <ele>412</ele>
        <time>2016-08-24T16:11:36.000Z</time>
      </trkpt>
      <trkpt lat="47.52074" lon="6.71662">
        <ele>412</ele>
        <time>2016-08-24T16:11:38.000Z</time>
      </trkpt>
      <trkpt lat="47.52072" lon="6.71665">
        <ele>412</ele>
        <time>2016-08-24T16:11:39.000Z</time>
      </trkpt>
      <trkpt lat="47.52071" lon="6.71668">
        <ele>411</ele>
        <time>2016-08-24T16:11:40.000Z</time>
      </trkpt>
      <trkpt lat="47.52069" lon="6.7167">
        <ele>411</ele>
        <time>2016-08-24T16:11:41.000Z</time>
      </trkpt>
      <trkpt lat="47.52068" lon="6.71673">
        <ele>411</ele>
        <time>2016-08-24T16:11:42.000Z</time>
      </trkpt>
      <trkpt lat="47.52066" lon="6.71676">
        <ele>411</ele>
        <time>2016-08-24T16:11:43.000Z</time>
      </trkpt>
      <trkpt lat="47.52065" lon="6.71678">
        <ele>410</ele>
        <time>2016-08-24T16:11:44.000Z</time>
      </trkpt>
      <trkpt lat="47.52063" lon="6.71681">
        <ele>410</ele>
        <time>2016-08-24T16:11:45.000Z</time>
      </trkpt>
      <trkpt lat="47.52061" lon="6.71685">
        <ele>410</ele>
        <time>2016-08-24T16:11:46.000Z</time>
      </trkpt>
      <trkpt lat="47.5206" lon="6.71688">
        <ele>410</ele>
        <time>2016-08-24T16:11:47.000Z</time>
      </trkpt>
      <trkpt lat="47.52058" lon="6.71692">
        <ele>410</ele>
        <time>2016-08-24T16:11:48.000Z</time>
      </trkpt>
      <trkpt lat="47.52057" lon="6.71696">
        <ele>410</ele>
        <time>2016-08-24T16:11:49.000Z</time>
      </trkpt>
      <trkpt lat="47.52056" lon="6.71699">
        <ele>410</ele>
        <time>2016-08-24T16:11:50.000Z</time>
      </trkpt>
      <trkpt lat="47.52055" lon="6.71703">
        <ele>410</ele>
        <time>2016-08-24T16:11:51.000Z</time>
      </trkpt>
      <trkpt lat="47.52053" lon="6.71707">
        <ele>410</ele>
        <time>2016-08-24T16:11:52.000Z</time>
      </trkpt>
      <trkpt lat="47.52052" lon="6.7171">
        <ele>410</ele>
        <time>2016-08-24T16:11:53.000Z</time>
      </trkpt>
      <trkpt lat="47.5205" lon="6.71713">
        <ele>409</ele>
        <time>2016-08-24T16:11:54.000Z</time>
      </trkpt>
      <trkpt lat="47.52048" lon="6.71717">
        <ele>409</ele>
        <time>2016-08-24T16:11:55.000Z</time>
      </trkpt>
      <trkpt lat="47.52046" lon="6.71721">
        <ele>409</ele>
        <time>2016-08-24T16:11:56.000Z</time>
      </trkpt>
      <trkpt lat="47.52044" lon="6.71725">
        <ele>409</ele>
        <time>2016-08-24T16:11:57.000Z</time>
      </trkpt>
      <trkpt lat="47.52042" lon="6.7173">
        <ele>409</ele>
        <time>2016-08-24T16:11:58.000Z</time>
      </trkpt>
      <trkpt lat="47.5204" lon="6.71735">
        <ele>409</ele>
        <time>2016-08-24T16:11:59.000Z</time>
      </trkpt>
      <trkpt lat="47.52038" lon="6.7174">
        <ele>409</ele>
        <time>2016-08-24T16:12:00.000Z</time>
      </trkpt>
      <trkpt lat="47.52036" lon="6.71745">
        <ele>409</ele>
        <time>2016-08-24T16:12:01.000Z</time>
      </trkpt>
      <trkpt lat="47.52035" lon="6.7175">
        <ele>405</ele>
        <time>2016-08-24T16:12:02.000Z</time>
      </trkpt>
      <trkpt lat="47.52033" lon="6.71755">
        <ele>405</ele>
        <time>2016-08-24T16:12:03.000Z</time>
      </trkpt>
      <trkpt lat="47.52032" lon="6.71761">
        <ele>405</ele>
        <time>2016-08-24T16:12:04.000Z</time>
      </trkpt>
      <trkpt lat="47.5203" lon="6.71776">
        <ele>405</ele>
        <time>2016-08-24T16:12:05.000Z</time>
      </trkpt>
      <trkpt lat="47.52028" lon="6.71785">
        <ele>404</ele>
        <time>2016-08-24T16:12:06.000Z</time>
      </trkpt>
      <trkpt lat="47.52029" lon="6.71796">
        <ele>404</ele>
        <time>2016-08-24T16:12:07.000Z</time>
      </trkpt>
      <trkpt lat="47.5203" lon="6.71806">
        <ele>403</ele>
        <time>2016-08-24T16:12:08.000Z</time>
      </trkpt>
      <trkpt lat="47.5203" lon="6.71814">
        <ele>403</ele>
        <time>2016-08-24T16:12:09.000Z</time>
      </trkpt>
      <trkpt lat="47.5203" lon="6.71825">
        <ele>403</ele>
        <time>2016-08-24T16:12:10.000Z</time>
      </trkpt>
      <trkpt lat="47.5203" lon="6.71836">
        <ele>400</ele>
        <time>2016-08-24T16:12:11.000Z</time>
      </trkpt>
      <trkpt lat="47.52028" lon="6.71842">
        <ele>400</ele>
        <time>2016-08-24T16:12:12.000Z</time>
      </trkpt>
      <trkpt lat="47.52028" lon="6.71851">
        <ele>400</ele>
        <time>2016-08-24T16:12:13.000Z</time>
      </trkpt>
      <trkpt lat="47.52028" lon="6.71861">
        <ele>400</ele>
        <time>2016-08-24T16:12:14.000Z</time>
      </trkpt>
      <trkpt lat="47.52028" lon="6.71872">
        <ele>400</ele>
        <time>2016-08-24T16:12:15.000Z</time>
      </trkpt>
      <trkpt lat="47.52026" lon="6.71882">
        <ele>400</ele>
        <time>2016-08-24T16:12:16.000Z</time>
      </trkpt>
      <trkpt lat="47.52026" lon="6.71892">
        <ele>399</ele>
        <time>2016-08-24T16:12:17.000Z</time>
      </trkpt>
      <trkpt lat="47.52025" lon="6.71903">
        <ele>399</ele>
        <time>2016-08-24T16:12:18.000Z</time>
      </trkpt>
      <trkpt lat="47.52023" lon="6.71918">
        <ele>398</ele>
        <time>2016-08-24T16:12:19.000Z</time>
      </trkpt>
      <trkpt lat="47.52025" lon="6.7194">
        <ele>398</ele>
        <time>2016-08-24T16:12:20.000Z</time>
      </trkpt>
      <trkpt lat="47.52026" lon="6.71952">
        <ele>398</ele>
        <time>2016-08-24T16:12:21.000Z</time>
      </trkpt>
      <trkpt lat="47.52024" lon="6.71965">
        <ele>397</ele>
        <time>2016-08-24T16:12:22.000Z</time>
      </trkpt>
      <trkpt lat="47.52025" lon="6.71981">
        <ele>397</ele>
        <time>2016-08-24T16:12:23.000Z</time>
      </trkpt>
      <trkpt lat="47.52027" lon="6.7199">
        <ele>397</ele>
        <time>2016-08-24T16:12:24.000Z</time>
      </trkpt>
      <trkpt lat="47.52028" lon="6.72001">
        <ele>395</ele>
        <time>2016-08-24T16:12:25.000Z</time>
      </trkpt>
      <trkpt lat="47.52028" lon="6.72015">
        <ele>395</ele>
        <time>2016-08-24T16:12:26.000Z</time>
      </trkpt>
      <trkpt lat="47.52028" lon="6.72026">
        <ele>395</ele>
        <time>2016-08-24T16:12:27.000Z</time>
      </trkpt>
      <trkpt lat="47.52026" lon="6.72036">
        <ele>395</ele>
        <time>2016-08-24T16:12:28.000Z</time>
      </trkpt>
      <trkpt lat="47.52025" lon="6.7205">
        <ele>394</ele>
        <time>2016-08-24T16:12:29.000Z</time>
      </trkpt>
      <trkpt lat="47.52024" lon="6.72066">
        <ele>394</ele>
        <time>2016-08-24T16:12:30.000Z</time>
      </trkpt>
      <trkpt lat="47.52023" lon="6.72081">
        <ele>393</ele>
        <time>2016-08-24T16:12:31.000Z</time>
      </trkpt>
      <trkpt lat="47.52021" lon="6.72093">
        <ele>391</ele>
        <time>2016-08-24T16:12:32.000Z</time>
      </trkpt>
      <trkpt lat="47.5202" lon="6.72106">
        <ele>391</ele>
        <time>2016-08-24T16:12:33.000Z</time>
      </trkpt>
      <trkpt lat="47.52017" lon="6.7212">
        <ele>390</ele>
        <time>2016-08-24T16:12:34.000Z</time>
      </trkpt>
      <trkpt lat="47.52012" lon="6.72132">
        <ele>390</ele>
        <time>2016-08-24T16:12:35.000Z</time>
      </trkpt>
      <trkpt lat="47.52006" lon="6.72143">
        <ele>389</ele>
        <time>2016-08-24T16:12:36.000Z</time>
      </trkpt>
      <trkpt lat="47.52002" lon="6.72155">
        <ele>388</ele>
        <time>2016-08-24T16:12:37.000Z</time>
      </trkpt>
      <trkpt lat="47.51999" lon="6.72163">
        <ele>387</ele>
        <time>2016-08-24T16:12:38.000Z</time>
      </trkpt>
      <trkpt lat="47.51996" lon="6.72175">
        <ele>386</ele>
        <time>2016-08-24T16:12:39.000Z</time>
      </trkpt>
      <trkpt lat="47.51992" lon="6.72183">
        <ele>384</ele>
        <time>2016-08-24T16:12:40.000Z</time>
      </trkpt>
      <trkpt lat="47.51987" lon="6.72193">
        <ele>384</ele>
        <time>2016-08-24T16:12:41.000Z</time>
      </trkpt>
      <trkpt lat="47.51983" lon="6.72198">
        <ele>383</ele>
        <time>2016-08-24T16:12:42.000Z</time>
      </trkpt>
      <trkpt lat="47.51974" lon="6.722">
        <ele>383</ele>
        <time>2016-08-24T16:12:43.000Z</time>
      </trkpt>
      <trkpt lat="47.51969" lon="6.72202">
        <ele>383</ele>
        <time>2016-08-24T16:12:44.000Z</time>
      </trkpt>
      <trkpt lat="47.51963" lon="6.722">
        <ele>383</ele>
        <time>2016-08-24T16:12:45.000Z</time>
      </trkpt>
      <trkpt lat="47.51958" lon="6.72199">
        <ele>383</ele>
        <time>2016-08-24T16:12:46.000Z</time>
      </trkpt>
      <trkpt lat="47.51953" lon="6.72196">
        <ele>382</ele>
        <time>2016-08-24T16:12:47.000Z</time>
      </trkpt>
      <trkpt lat="47.51947" lon="6.72195">
        <ele>382</ele>
        <time>2016-08-24T16:12:48.000Z</time>
      </trkpt>
      <trkpt lat="47.51939" lon="6.72193">
        <ele>382</ele>
        <time>2016-08-24T16:12:49.000Z</time>
      </trkpt>
      <trkpt lat="47.51933" lon="6.72193">
        <ele>382</ele>
        <time>2016-08-24T16:12:50.000Z</time>
      </trkpt>
      <trkpt lat="47.51927" lon="6.72195">
        <ele>382</ele>
        <time>2016-08-24T16:12:51.000Z</time>
      </trkpt>
      <trkpt lat="47.5192" lon="6.72201">
        <ele>382</ele>
        <time>2016-08-24T16:12:52.000Z</time>
      </trkpt>
      <trkpt lat="47.51916" lon="6.72205">
        <ele>382</ele>
        <time>2016-08-24T16:12:53.000Z</time>
      </trkpt>
      <trkpt lat="47.51916" lon="6.72213">
        <ele>382</ele>
        <time>2016-08-24T16:12:54.000Z</time>
      </trkpt>
      <trkpt lat="47.51912" lon="6.72213">
        <ele>383</ele>
        <time>2016-08-24T16:12:56.000Z</time>
      </trkpt>
      <trkpt lat="47.5191" lon="6.72214">
        <ele>383</ele>
        <time>2016-08-24T16:12:57.000Z</time>
      </trkpt>
      <trkpt lat="47.51907" lon="6.72213">
        <ele>383</ele>
        <time>2016-08-24T16:12:58.000Z</time>
      </trkpt>
      <trkpt lat="47.51905" lon="6.72212">
        <ele>383</ele>
        <time>2016-08-24T16:12:59.000Z</time>
      </trkpt>
      <trkpt lat="47.51903" lon="6.72211">
        <ele>383</ele>
        <time>2016-08-24T16:13:00.000Z</time>
      </trkpt>
      <trkpt lat="47.519" lon="6.72212">
        <ele>383</ele>
        <time>2016-08-24T16:13:01.000Z</time>
      </trkpt>
      <trkpt lat="47.51896" lon="6.72212">
        <ele>383</ele>
        <time>2016-08-24T16:13:03.000Z</time>
      </trkpt>
      <trkpt lat="47.51894" lon="6.72212">
        <ele>383</ele>
        <time>2016-08-24T16:13:04.000Z</time>
      </trkpt>
      <trkpt lat="47.5189" lon="6.72211">
        <ele>383</ele>
        <time>2016-08-24T16:13:06.000Z</time>
      </trkpt>
      <trkpt lat="47.51888" lon="6.72211">
        <ele>383</ele>
        <time>2016-08-24T16:13:07.000Z</time>
      </trkpt>
      <trkpt lat="47.51885" lon="6.72211">
        <ele>383</ele>
        <time>2016-08-24T16:13:08.000Z</time>
      </trkpt>
      <trkpt lat="47.51883" lon="6.72211">
        <ele>383</ele>
        <time>2016-08-24T16:13:09.000Z</time>
      </trkpt>
      <trkpt lat="47.51879" lon="6.72211">
        <ele>383</ele>
        <time>2016-08-24T16:13:11.000Z</time>
      </trkpt>
      <trkpt lat="47.51877" lon="6.72213">
        <ele>383</ele>
        <time>2016-08-24T16:13:12.000Z</time>
      </trkpt>
      <trkpt lat="47.51873" lon="6.7221">
        <ele>383</ele>
        <time>2016-08-24T16:13:27.000Z</time>
      </trkpt>
      <trkpt lat="47.51872" lon="6.7221">
        <ele>383</ele>
        <time>2016-08-24T16:13:28.000Z</time>
      </trkpt>
      <trkpt lat="47.51869" lon="6.7221">
        <ele>383</ele>
        <time>2016-08-24T16:13:30.000Z</time>
      </trkpt>
      <trkpt lat="47.51867" lon="6.72211">
        <ele>383</ele>
        <time>2016-08-24T16:13:31.000Z</time>
      </trkpt>
      <trkpt lat="47.51863" lon="6.72212">
        <ele>384</ele>
        <time>2016-08-24T16:13:34.000Z</time>
      </trkpt>
      <trkpt lat="47.51861" lon="6.72213">
        <ele>384</ele>
        <time>2016-08-24T16:13:35.000Z</time>
      </trkpt>
      <trkpt lat="47.51857" lon="6.72212">
        <ele>384</ele>
        <time>2016-08-24T16:13:38.000Z</time>
      </trkpt>
      <trkpt lat="47.51856" lon="6.72212">
        <ele>384</ele>
        <time>2016-08-24T16:13:39.000Z</time>
      </trkpt>
      <trkpt lat="47.51852" lon="6.72212">
        <ele>384</ele>
        <time>2016-08-24T16:13:41.000Z</time>
      </trkpt>
      <trkpt lat="47.51851" lon="6.72211">
        <ele>384</ele>
        <time>2016-08-24T16:13:42.000Z</time>
      </trkpt>
      <trkpt lat="47.51847" lon="6.72208">
        <ele>384</ele>
        <time>2016-08-24T16:13:45.000Z</time>
      </trkpt>
      <trkpt lat="47.51845" lon="6.72207">
        <ele>384</ele>
        <time>2016-08-24T16:13:46.000Z</time>
      </trkpt>
      <trkpt lat="47.5184" lon="6.72206">
        <ele>384</ele>
        <time>2016-08-24T16:13:48.000Z</time>
      </trkpt>
      <trkpt lat="47.51839" lon="6.72205">
        <ele>384</ele>
        <time>2016-08-24T16:13:49.000Z</time>
      </trkpt>
      <trkpt lat="47.51836" lon="6.72203">
        <ele>384</ele>
        <time>2016-08-24T16:13:51.000Z</time>
      </trkpt>
      <trkpt lat="47.51835" lon="6.72202">
        <ele>384</ele>
        <time>2016-08-24T16:13:52.000Z</time>
      </trkpt>
      <trkpt lat="47.51831" lon="6.722">
        <ele>387</ele>
        <time>2016-08-24T16:13:54.000Z</time>
      </trkpt>
      <trkpt lat="47.51828" lon="6.72199">
        <ele>387</ele>
        <time>2016-08-24T16:13:55.000Z</time>
      </trkpt>
      <trkpt lat="47.51825" lon="6.72199">
        <ele>387</ele>
        <time>2016-08-24T16:13:56.000Z</time>
      </trkpt>
      <trkpt lat="47.51822" lon="6.72199">
        <ele>388</ele>
        <time>2016-08-24T16:13:57.000Z</time>
      </trkpt>
      <trkpt lat="47.51818" lon="6.72198">
        <ele>388</ele>
        <time>2016-08-24T16:13:59.000Z</time>
      </trkpt>
      <trkpt lat="47.51817" lon="6.72198">
        <ele>388</ele>
        <time>2016-08-24T16:14:00.000Z</time>
      </trkpt>
      <trkpt lat="47.51813" lon="6.722">
        <ele>388</ele>
        <time>2016-08-24T16:14:02.000Z</time>
      </trkpt>
      <trkpt lat="47.51811" lon="6.72202">
        <ele>388</ele>
        <time>2016-08-24T16:14:03.000Z</time>
      </trkpt>
      <trkpt lat="47.51808" lon="6.72206">
        <ele>388</ele>
        <time>2016-08-24T16:14:05.000Z</time>
      </trkpt>
      <trkpt lat="47.51806" lon="6.72206">
        <ele>388</ele>
        <time>2016-08-24T16:14:06.000Z</time>
      </trkpt>
      <trkpt lat="47.51803" lon="6.72208">
        <ele>388</ele>
        <time>2016-08-24T16:14:08.000Z</time>
      </trkpt>
      <trkpt lat="47.51802" lon="6.72208">
        <ele>388</ele>
        <time>2016-08-24T16:14:09.000Z</time>
      </trkpt>
      <trkpt lat="47.51798" lon="6.7221">
        <ele>388</ele>
        <time>2016-08-24T16:14:12.000Z</time>
      </trkpt>
      <trkpt lat="47.51796" lon="6.7221">
        <ele>388</ele>
        <time>2016-08-24T16:14:13.000Z</time>
      </trkpt>
      <trkpt lat="47.51793" lon="6.72209">
        <ele>388</ele>
        <time>2016-08-24T16:14:15.000Z</time>
      </trkpt>
      <trkpt lat="47.51791" lon="6.72209">
        <ele>389</ele>
        <time>2016-08-24T16:14:16.000Z</time>
      </trkpt>
      <trkpt lat="47.51787" lon="6.7221">
        <ele>389</ele>
        <time>2016-08-24T16:14:19.000Z</time>
      </trkpt>
      <trkpt lat="47.51786" lon="6.72211">
        <ele>389</ele>
        <time>2016-08-24T16:14:20.000Z</time>
      </trkpt>
      <trkpt lat="47.51783" lon="6.72214">
        <ele>389</ele>
        <time>2016-08-24T16:14:23.000Z</time>
      </trkpt>
      <trkpt lat="47.51781" lon="6.72215">
        <ele>389</ele>
        <time>2016-08-24T16:14:24.000Z</time>
      </trkpt>
      <trkpt lat="47.51778" lon="6.72217">
        <ele>389</ele>
        <time>2016-08-24T16:14:26.000Z</time>
      </trkpt>
      <trkpt lat="47.51776" lon="6.72217">
        <ele>389</ele>
        <time>2016-08-24T16:14:27.000Z</time>
      </trkpt>
      <trkpt lat="47.51772" lon="6.72218">
        <ele>389</ele>
        <time>2016-08-24T16:14:30.000Z</time>
      </trkpt>
      <trkpt lat="47.51769" lon="6.72218">
        <ele>389</ele>
        <time>2016-08-24T16:14:31.000Z</time>
      </trkpt>
      <trkpt lat="47.51765" lon="6.72219">
        <ele>389</ele>
        <time>2016-08-24T16:14:33.000Z</time>
      </trkpt>
      <trkpt lat="47.51764" lon="6.7222">
        <ele>389</ele>
        <time>2016-08-24T16:14:34.000Z</time>
      </trkpt>
      <trkpt lat="47.51761" lon="6.72224">
        <ele>389</ele>
        <time>2016-08-24T16:14:36.000Z</time>
      </trkpt>
      <trkpt lat="47.5176" lon="6.72225">
        <ele>390</ele>
        <time>2016-08-24T16:14:37.000Z</time>
      </trkpt>
      <trkpt lat="47.51756" lon="6.72229">
        <ele>390</ele>
        <time>2016-08-24T16:14:40.000Z</time>
      </trkpt>
      <trkpt lat="47.51754" lon="6.7223">
        <ele>390</ele>
        <time>2016-08-24T16:14:41.000Z</time>
      </trkpt>
      <trkpt lat="47.51751" lon="6.72232">
        <ele>390</ele>
        <time>2016-08-24T16:14:43.000Z</time>
      </trkpt>
      <trkpt lat="47.5175" lon="6.72233">
        <ele>391</ele>
        <time>2016-08-24T16:14:44.000Z</time>
      </trkpt>
      <trkpt lat="47.51747" lon="6.72236">
        <ele>391</ele>
        <time>2016-08-24T16:14:46.000Z</time>
      </trkpt>
      <trkpt lat="47.51746" lon="6.72238">
        <ele>391</ele>
        <time>2016-08-24T16:14:47.000Z</time>
      </trkpt>
      <trkpt lat="47.51743" lon="6.72243">
        <ele>391</ele>
        <time>2016-08-24T16:14:50.000Z</time>
      </trkpt>
      <trkpt lat="47.51742" lon="6.72243">
        <ele>391</ele>
        <time>2016-08-24T16:14:51.000Z</time>
      </trkpt>
      <trkpt lat="47.51739" lon="6.72245">
        <ele>391</ele>
        <time>2016-08-24T16:14:54.000Z</time>
      </trkpt>
      <trkpt lat="47.51738" lon="6.72246">
        <ele>391</ele>
        <time>2016-08-24T16:14:55.000Z</time>
      </trkpt>
      <trkpt lat="47.51735" lon="6.72249">
        <ele>391</ele>
        <time>2016-08-24T16:14:57.000Z</time>
      </trkpt>
      <trkpt lat="47.51733" lon="6.7225">
        <ele>392</ele>
        <time>2016-08-24T16:14:58.000Z</time>
      </trkpt>
      <trkpt lat="47.51731" lon="6.72255">
        <ele>393</ele>
        <time>2016-08-24T16:15:01.000Z</time>
      </trkpt>
      <trkpt lat="47.5173" lon="6.72257">
        <ele>393</ele>
        <time>2016-08-24T16:15:02.000Z</time>
      </trkpt>
      <trkpt lat="47.51726" lon="6.72256">
        <ele>393</ele>
        <time>2016-08-24T16:15:06.000Z</time>
      </trkpt>
      <trkpt lat="47.51725" lon="6.72255">
        <ele>393</ele>
        <time>2016-08-24T16:15:07.000Z</time>
      </trkpt>
      <trkpt lat="47.51722" lon="6.72258">
        <ele>393</ele>
        <time>2016-08-24T16:15:10.000Z</time>
      </trkpt>
      <trkpt lat="47.51721" lon="6.7226">
        <ele>393</ele>
        <time>2016-08-24T16:15:11.000Z</time>
      </trkpt>
      <trkpt lat="47.51718" lon="6.72264">
        <ele>393</ele>
        <time>2016-08-24T16:15:14.000Z</time>
      </trkpt>
      <trkpt lat="47.51717" lon="6.72266">
        <ele>393</ele>
        <time>2016-08-24T16:15:15.000Z</time>
      </trkpt>
      <trkpt lat="47.51714" lon="6.72269">
        <ele>393</ele>
        <time>2016-08-24T16:15:18.000Z</time>
      </trkpt>
      <trkpt lat="47.51713" lon="6.7227">
        <ele>393</ele>
        <time>2016-08-24T16:15:19.000Z</time>
      </trkpt>
      <trkpt lat="47.51711" lon="6.72272">
        <ele>393</ele>
        <time>2016-08-24T16:15:21.000Z</time>
      </trkpt>
      <trkpt lat="47.51709" lon="6.72273">
        <ele>393</ele>
        <time>2016-08-24T16:15:22.000Z</time>
      </trkpt>
      <trkpt lat="47.51705" lon="6.72276">
        <ele>394</ele>
        <time>2016-08-24T16:15:24.000Z</time>
      </trkpt>
      <trkpt lat="47.51704" lon="6.72276">
        <ele>394</ele>
        <time>2016-08-24T16:15:25.000Z</time>
      </trkpt>
      <trkpt lat="47.51701" lon="6.72278">
        <ele>394</ele>
        <time>2016-08-24T16:15:27.000Z</time>
      </trkpt>
      <trkpt lat="47.51699" lon="6.72279">
        <ele>394</ele>
        <time>2016-08-24T16:15:28.000Z</time>
      </trkpt>
      <trkpt lat="47.51696" lon="6.72282">
        <ele>394</ele>
        <time>2016-08-24T16:15:30.000Z</time>
      </trkpt>
      <trkpt lat="47.51695" lon="6.72283">
        <ele>394</ele>
        <time>2016-08-24T16:15:31.000Z</time>
      </trkpt>
      <trkpt lat="47.51692" lon="6.72286">
        <ele>394</ele>
        <time>2016-08-24T16:15:34.000Z</time>
      </trkpt>
      <trkpt lat="47.5169" lon="6.72287">
        <ele>394</ele>
        <time>2016-08-24T16:15:35.000Z</time>
      </trkpt>
      <trkpt lat="47.51687" lon="6.72291">
        <ele>394</ele>
        <time>2016-08-24T16:15:38.000Z</time>
      </trkpt>
      <trkpt lat="47.51685" lon="6.72292">
        <ele>394</ele>
        <time>2016-08-24T16:15:39.000Z</time>
      </trkpt>
      <trkpt lat="47.51682" lon="6.72296">
        <ele>394</ele>
        <time>2016-08-24T16:15:42.000Z</time>
      </trkpt>
      <trkpt lat="47.51681" lon="6.72297">
        <ele>394</ele>
        <time>2016-08-24T16:15:43.000Z</time>
      </trkpt>
      <trkpt lat="47.51678" lon="6.723">
        <ele>394</ele>
        <time>2016-08-24T16:15:45.000Z</time>
      </trkpt>
      <trkpt lat="47.51677" lon="6.72302">
        <ele>394</ele>
        <time>2016-08-24T16:15:46.000Z</time>
      </trkpt>
      <trkpt lat="47.51674" lon="6.72306">
        <ele>395</ele>
        <time>2016-08-24T16:15:48.000Z</time>
      </trkpt>
      <trkpt lat="47.51673" lon="6.72308">
        <ele>395</ele>
        <time>2016-08-24T16:15:49.000Z</time>
      </trkpt>
      <trkpt lat="47.51671" lon="6.72313">
        <ele>395</ele>
        <time>2016-08-24T16:15:51.000Z</time>
      </trkpt>
      <trkpt lat="47.51669" lon="6.72315">
        <ele>395</ele>
        <time>2016-08-24T16:15:52.000Z</time>
      </trkpt>
      <trkpt lat="47.51666" lon="6.72319">
        <ele>395</ele>
        <time>2016-08-24T16:15:54.000Z</time>
      </trkpt>
      <trkpt lat="47.51664" lon="6.72321">
        <ele>395</ele>
        <time>2016-08-24T16:15:55.000Z</time>
      </trkpt>
      <trkpt lat="47.5166" lon="6.72324">
        <ele>395</ele>
        <time>2016-08-24T16:15:58.000Z</time>
      </trkpt>
      <trkpt lat="47.51658" lon="6.72324">
        <ele>395</ele>
        <time>2016-08-24T16:15:59.000Z</time>
      </trkpt>
      <trkpt lat="47.51655" lon="6.72326">
        <ele>395</ele>
        <time>2016-08-24T16:16:01.000Z</time>
      </trkpt>
      <trkpt lat="47.51653" lon="6.72328">
        <ele>395</ele>
        <time>2016-08-24T16:16:02.000Z</time>
      </trkpt>
      <trkpt lat="47.51651" lon="6.72329">
        <ele>395</ele>
        <time>2016-08-24T16:16:03.000Z</time>
      </trkpt>
      <trkpt lat="47.51648" lon="6.7233">
        <ele>395</ele>
        <time>2016-08-24T16:16:04.000Z</time>
      </trkpt>
      <trkpt lat="47.51646" lon="6.72331">
        <ele>395</ele>
        <time>2016-08-24T16:16:05.000Z</time>
      </trkpt>
      <trkpt lat="47.51643" lon="6.72332">
        <ele>395</ele>
        <time>2016-08-24T16:16:06.000Z</time>
      </trkpt>
      <trkpt lat="47.51639" lon="6.72332">
        <ele>395</ele>
        <time>2016-08-24T16:16:08.000Z</time>
      </trkpt>
      <trkpt lat="47.51637" lon="6.72333">
        <ele>395</ele>
        <time>2016-08-24T16:16:09.000Z</time>
      </trkpt>
      <trkpt lat="47.51633" lon="6.72333">
        <ele>396</ele>
        <time>2016-08-24T16:16:12.000Z</time>
      </trkpt>
      <trkpt lat="47.51632" lon="6.72334">
        <ele>396</ele>
        <time>2016-08-24T16:16:13.000Z</time>
      </trkpt>
      <trkpt lat="47.51629" lon="6.72336">
        <ele>396</ele>
        <time>2016-08-24T16:16:17.000Z</time>
      </trkpt>
      <trkpt lat="47.51627" lon="6.72337">
        <ele>396</ele>
        <time>2016-08-24T16:16:18.000Z</time>
      </trkpt>
      <trkpt lat="47.51624" lon="6.72337">
        <ele>396</ele>
        <time>2016-08-24T16:16:20.000Z</time>
      </trkpt>
      <trkpt lat="47.51622" lon="6.72337">
        <ele>396</ele>
        <time>2016-08-24T16:16:21.000Z</time>
      </trkpt>
      <trkpt lat="47.51618" lon="6.72338">
        <ele>396</ele>
        <time>2016-08-24T16:16:25.000Z</time>
      </trkpt>
      <trkpt lat="47.51617" lon="6.72337">
        <ele>396</ele>
        <time>2016-08-24T16:16:26.000Z</time>
      </trkpt>
      <trkpt lat="47.51612" lon="6.72337">
        <ele>396</ele>
        <time>2016-08-24T16:16:29.000Z</time>
      </trkpt>
      <trkpt lat="47.51611" lon="6.72337">
        <ele>396</ele>
        <time>2016-08-24T16:16:30.000Z</time>
      </trkpt>
      <trkpt lat="47.51608" lon="6.72339">
        <ele>396</ele>
        <time>2016-08-24T16:16:32.000Z</time>
      </trkpt>
      <trkpt lat="47.51606" lon="6.7234">
        <ele>396</ele>
        <time>2016-08-24T16:16:33.000Z</time>
      </trkpt>
      <trkpt lat="47.51602" lon="6.72343">
        <ele>396</ele>
        <time>2016-08-24T16:16:35.000Z</time>
      </trkpt>
      <trkpt lat="47.516" lon="6.72344">
        <ele>396</ele>
        <time>2016-08-24T16:16:36.000Z</time>
      </trkpt>
      <trkpt lat="47.51597" lon="6.72347">
        <ele>397</ele>
        <time>2016-08-24T16:16:39.000Z</time>
      </trkpt>
      <trkpt lat="47.51596" lon="6.72347">
        <ele>396</ele>
        <time>2016-08-24T16:16:40.000Z</time>
      </trkpt>
      <trkpt lat="47.51592" lon="6.72347">
        <ele>396</ele>
        <time>2016-08-24T16:16:43.000Z</time>
      </trkpt>
      <trkpt lat="47.51591" lon="6.72347">
        <ele>396</ele>
        <time>2016-08-24T16:16:44.000Z</time>
      </trkpt>
      <trkpt lat="47.51588" lon="6.72348">
        <ele>396</ele>
        <time>2016-08-24T16:16:46.000Z</time>
      </trkpt>
      <trkpt lat="47.51585" lon="6.72349">
        <ele>397</ele>
        <time>2016-08-24T16:16:47.000Z</time>
      </trkpt>
      <trkpt lat="47.51583" lon="6.7235">
        <ele>400</ele>
        <time>2016-08-24T16:16:48.000Z</time>
      </trkpt>
      <trkpt lat="47.51581" lon="6.72351">
        <ele>400</ele>
        <time>2016-08-24T16:16:49.000Z</time>
      </trkpt>
      <trkpt lat="47.51577" lon="6.72353">
        <ele>400</ele>
        <time>2016-08-24T16:16:51.000Z</time>
      </trkpt>
      <trkpt lat="47.51575" lon="6.72353">
        <ele>401</ele>
        <time>2016-08-24T16:16:52.000Z</time>
      </trkpt>
      <trkpt lat="47.51572" lon="6.72353">
        <ele>401</ele>
        <time>2016-08-24T16:16:55.000Z</time>
      </trkpt>
      <trkpt lat="47.5157" lon="6.72354">
        <ele>401</ele>
        <time>2016-08-24T16:16:56.000Z</time>
      </trkpt>
      <trkpt lat="47.51567" lon="6.72356">
        <ele>402</ele>
        <time>2016-08-24T16:16:57.000Z</time>
      </trkpt>
      <trkpt lat="47.51565" lon="6.72357">
        <ele>402</ele>
        <time>2016-08-24T16:16:58.000Z</time>
      </trkpt>
      <trkpt lat="47.51561" lon="6.72359">
        <ele>402</ele>
        <time>2016-08-24T16:17:00.000Z</time>
      </trkpt>
      <trkpt lat="47.5156" lon="6.72359">
        <ele>402</ele>
        <time>2016-08-24T16:17:01.000Z</time>
      </trkpt>
      <trkpt lat="47.51557" lon="6.72361">
        <ele>403</ele>
        <time>2016-08-24T16:17:03.000Z</time>
      </trkpt>
      <trkpt lat="47.51555" lon="6.72361">
        <ele>403</ele>
        <time>2016-08-24T16:17:04.000Z</time>
      </trkpt>
      <trkpt lat="47.51551" lon="6.72362">
        <ele>403</ele>
        <time>2016-08-24T16:17:07.000Z</time>
      </trkpt>
      <trkpt lat="47.5155" lon="6.72363">
        <ele>403</ele>
        <time>2016-08-24T16:17:08.000Z</time>
      </trkpt>
      <trkpt lat="47.51547" lon="6.72364">
        <ele>404</ele>
        <time>2016-08-24T16:17:10.000Z</time>
      </trkpt>
      <trkpt lat="47.51545" lon="6.72364">
        <ele>404</ele>
        <time>2016-08-24T16:17:11.000Z</time>
      </trkpt>
      <trkpt lat="47.51541" lon="6.72363">
        <ele>404</ele>
        <time>2016-08-24T16:17:15.000Z</time>
      </trkpt>
      <trkpt lat="47.5154" lon="6.72363">
        <ele>404</ele>
        <time>2016-08-24T16:17:16.000Z</time>
      </trkpt>
      <trkpt lat="47.51536" lon="6.72365">
        <ele>405</ele>
        <time>2016-08-24T16:17:28.000Z</time>
      </trkpt>
      <trkpt lat="47.51536" lon="6.72365">
        <ele>405</ele>
        <time>2016-08-24T16:17:29.000Z</time>
      </trkpt>
      <trkpt lat="47.51532" lon="6.72366">
        <ele>405</ele>
        <time>2016-08-24T16:17:34.000Z</time>
      </trkpt>
      <trkpt lat="47.51531" lon="6.72367">
        <ele>405</ele>
        <time>2016-08-24T16:17:35.000Z</time>
      </trkpt>
      <trkpt lat="47.51528" lon="6.72367">
        <ele>405</ele>
        <time>2016-08-24T16:17:37.000Z</time>
      </trkpt>
      <trkpt lat="47.51526" lon="6.72367">
        <ele>405</ele>
        <time>2016-08-24T16:17:38.000Z</time>
      </trkpt>
      <trkpt lat="47.51522" lon="6.72368">
        <ele>406</ele>
        <time>2016-08-24T16:17:40.000Z</time>
      </trkpt>
      <trkpt lat="47.5152" lon="6.72368">
        <ele>406</ele>
        <time>2016-08-24T16:17:41.000Z</time>
      </trkpt>
      <trkpt lat="47.51516" lon="6.72369">
        <ele>406</ele>
        <time>2016-08-24T16:17:43.000Z</time>
      </trkpt>
      <trkpt lat="47.51514" lon="6.7237">
        <ele>406</ele>
        <time>2016-08-24T16:17:44.000Z</time>
      </trkpt>
      <trkpt lat="47.51512" lon="6.72371">
        <ele>406</ele>
        <time>2016-08-24T16:17:45.000Z</time>
      </trkpt>
      <trkpt lat="47.5151" lon="6.72372">
        <ele>406</ele>
        <time>2016-08-24T16:17:46.000Z</time>
      </trkpt>
      <trkpt lat="47.51506" lon="6.72373">
        <ele>407</ele>
        <time>2016-08-24T16:17:48.000Z</time>
      </trkpt>
      <trkpt lat="47.51505" lon="6.72374">
        <ele>407</ele>
        <time>2016-08-24T16:17:49.000Z</time>
      </trkpt>
      <trkpt lat="47.51501" lon="6.72376">
        <ele>407</ele>
        <time>2016-08-24T16:17:51.000Z</time>
      </trkpt>
      <trkpt lat="47.515" lon="6.72377">
        <ele>413</ele>
        <time>2016-08-24T16:17:52.000Z</time>
      </trkpt>
      <trkpt lat="47.51497" lon="6.72379">
        <ele>413</ele>
        <time>2016-08-24T16:17:57.000Z</time>
      </trkpt>
      <trkpt lat="47.51496" lon="6.7238">
        <ele>413</ele>
        <time>2016-08-24T16:17:58.000Z</time>
      </trkpt>
      <trkpt lat="47.51492" lon="6.72381">
        <ele>414</ele>
        <time>2016-08-24T16:18:02.000Z</time>
      </trkpt>
      <trkpt lat="47.5149" lon="6.72382">
        <ele>414</ele>
        <time>2016-08-24T16:18:03.000Z</time>
      </trkpt>
      <trkpt lat="47.51487" lon="6.72382">
        <ele>414</ele>
        <time>2016-08-24T16:18:06.000Z</time>
      </trkpt>
      <trkpt lat="47.51485" lon="6.72383">
        <ele>414</ele>
        <time>2016-08-24T16:18:07.000Z</time>
      </trkpt>
      <trkpt lat="47.51482" lon="6.72385">
        <ele>414</ele>
        <time>2016-08-24T16:18:09.000Z</time>
      </trkpt>
      <trkpt lat="47.51481" lon="6.72386">
        <ele>414</ele>
        <time>2016-08-24T16:18:10.000Z</time>
      </trkpt>
      <trkpt lat="47.51477" lon="6.72388">
        <ele>414</ele>
        <time>2016-08-24T16:18:13.000Z</time>
      </trkpt>
      <trkpt lat="47.51476" lon="6.72389">
        <ele>414</ele>
        <time>2016-08-24T16:18:14.000Z</time>
      </trkpt>
      <trkpt lat="47.51471" lon="6.72391">
        <ele>414</ele>
        <time>2016-08-24T16:18:17.000Z</time>
      </trkpt>
      <trkpt lat="47.5147" lon="6.72392">
        <ele>415</ele>
        <time>2016-08-24T16:18:18.000Z</time>
      </trkpt>
      <trkpt lat="47.51466" lon="6.72394">
        <ele>415</ele>
        <time>2016-08-24T16:18:20.000Z</time>
      </trkpt>
      <trkpt lat="47.51465" lon="6.72394">
        <ele>415</ele>
        <time>2016-08-24T16:18:21.000Z</time>
      </trkpt>
      <trkpt lat="47.51462" lon="6.72394">
        <ele>415</ele>
        <time>2016-08-24T16:18:23.000Z</time>
      </trkpt>
      <trkpt lat="47.5146" lon="6.72394">
        <ele>415</ele>
        <time>2016-08-24T16:18:24.000Z</time>
      </trkpt>
      <trkpt lat="47.51458" lon="6.72395">
        <ele>415</ele>
        <time>2016-08-24T16:18:25.000Z</time>
      </trkpt>
      <trkpt lat="47.51455" lon="6.72396">
        <ele>415</ele>
        <time>2016-08-24T16:18:26.000Z</time>
      </trkpt>
      <trkpt lat="47.51453" lon="6.72398">
        <ele>415</ele>
        <time>2016-08-24T16:18:27.000Z</time>
      </trkpt>
      <trkpt lat="47.51451" lon="6.72399">
        <ele>416</ele>
        <time>2016-08-24T16:18:28.000Z</time>
      </trkpt>
      <trkpt lat="47.51448" lon="6.72401">
        <ele>416</ele>
        <time>2016-08-24T16:18:29.000Z</time>
      </trkpt>
      <trkpt lat="47.51445" lon="6.72402">
        <ele>416</ele>
        <time>2016-08-24T16:18:30.000Z</time>
      </trkpt>
      <trkpt lat="47.51441" lon="6.72404">
        <ele>416</ele>
        <time>2016-08-24T16:18:31.000Z</time>
      </trkpt>
      <trkpt lat="47.51438" lon="6.72405">
        <ele>417</ele>
        <time>2016-08-24T16:18:32.000Z</time>
      </trkpt>
      <trkpt lat="47.51436" lon="6.72405">
        <ele>417</ele>
        <time>2016-08-24T16:18:33.000Z</time>
      </trkpt>
      <trkpt lat="47.51434" lon="6.72406">
        <ele>417</ele>
        <time>2016-08-24T16:18:34.000Z</time>
      </trkpt>
      <trkpt lat="47.5143" lon="6.72408">
        <ele>418</ele>
        <time>2016-08-24T16:18:36.000Z</time>
      </trkpt>
      <trkpt lat="47.51429" lon="6.72408">
        <ele>418</ele>
        <time>2016-08-24T16:18:37.000Z</time>
      </trkpt>
      <trkpt lat="47.51425" lon="6.72406">
        <ele>418</ele>
        <time>2016-08-24T16:18:41.000Z</time>
      </trkpt>
      <trkpt lat="47.51424" lon="6.72406">
        <ele>418</ele>
        <time>2016-08-24T16:18:42.000Z</time>
      </trkpt>
      <trkpt lat="47.5142" lon="6.72407">
        <ele>419</ele>
        <time>2016-08-24T16:18:45.000Z</time>
      </trkpt>
      <trkpt lat="47.51419" lon="6.72408">
        <ele>419</ele>
        <time>2016-08-24T16:18:46.000Z</time>
      </trkpt>
      <trkpt lat="47.51415" lon="6.7241">
        <ele>422</ele>
        <time>2016-08-24T16:18:49.000Z</time>
      </trkpt>
      <trkpt lat="47.51414" lon="6.72411">
        <ele>422</ele>
        <time>2016-08-24T16:18:50.000Z</time>
      </trkpt>
      <trkpt lat="47.51411" lon="6.72411">
        <ele>422</ele>
        <time>2016-08-24T16:18:54.000Z</time>
      </trkpt>
      <trkpt lat="47.5141" lon="6.72412">
        <ele>422</ele>
        <time>2016-08-24T16:18:55.000Z</time>
      </trkpt>
      <trkpt lat="47.51407" lon="6.72413">
        <ele>423</ele>
        <time>2016-08-24T16:18:57.000Z</time>
      </trkpt>
      <trkpt lat="47.51405" lon="6.72413">
        <ele>423</ele>
        <time>2016-08-24T16:18:58.000Z</time>
      </trkpt>
      <trkpt lat="47.51401" lon="6.72415">
        <ele>423</ele>
        <time>2016-08-24T16:19:02.000Z</time>
      </trkpt>
      <trkpt lat="47.514" lon="6.72416">
        <ele>423</ele>
        <time>2016-08-24T16:19:03.000Z</time>
      </trkpt>
      <trkpt lat="47.51397" lon="6.72412">
        <ele>424</ele>
        <time>2016-08-24T16:19:10.000Z</time>
      </trkpt>
      <trkpt lat="47.51396" lon="6.72411">
        <ele>424</ele>
        <time>2016-08-24T16:19:11.000Z</time>
      </trkpt>
      <trkpt lat="47.51393" lon="6.72406">
        <ele>424</ele>
        <time>2016-08-24T16:19:14.000Z</time>
      </trkpt>
      <trkpt lat="47.51392" lon="6.72404">
        <ele>425</ele>
        <time>2016-08-24T16:19:15.000Z</time>
      </trkpt>
      <trkpt lat="47.51389" lon="6.72399">
        <ele>425</ele>
        <time>2016-08-24T16:19:17.000Z</time>
      </trkpt>
      <trkpt lat="47.51388" lon="6.72397">
        <ele>425</ele>
        <time>2016-08-24T16:19:18.000Z</time>
      </trkpt>
      <trkpt lat="47.51386" lon="6.72394">
        <ele>425</ele>
        <time>2016-08-24T16:19:20.000Z</time>
      </trkpt>
      <trkpt lat="47.51385" lon="6.72392">
        <ele>425</ele>
        <time>2016-08-24T16:19:21.000Z</time>
      </trkpt>
      <trkpt lat="47.51383" lon="6.72387">
        <ele>425</ele>
        <time>2016-08-24T16:19:23.000Z</time>
      </trkpt>
      <trkpt lat="47.51383" lon="6.72385">
        <ele>425</ele>
        <time>2016-08-24T16:19:24.000Z</time>
      </trkpt>
      <trkpt lat="47.51382" lon="6.72379">
        <ele>425</ele>
        <time>2016-08-24T16:19:26.000Z</time>
      </trkpt>
      <trkpt lat="47.51381" lon="6.72376">
        <ele>425</ele>
        <time>2016-08-24T16:19:27.000Z</time>
      </trkpt>
      <trkpt lat="47.5138" lon="6.7237">
        <ele>425</ele>
        <time>2016-08-24T16:19:29.000Z</time>
      </trkpt>
      <trkpt lat="47.5138" lon="6.72367">
        <ele>425</ele>
        <time>2016-08-24T16:19:30.000Z</time>
      </trkpt>
      <trkpt lat="47.5138" lon="6.72363">
        <ele>425</ele>
        <time>2016-08-24T16:19:31.000Z</time>
      </trkpt>
      <trkpt lat="47.51379" lon="6.72359">
        <ele>425</ele>
        <time>2016-08-24T16:19:32.000Z</time>
      </trkpt>
      <trkpt lat="47.51379" lon="6.72355">
        <ele>425</ele>
        <time>2016-08-24T16:19:33.000Z</time>
      </trkpt>
      <trkpt lat="47.51378" lon="6.72352">
        <ele>425</ele>
        <time>2016-08-24T16:19:34.000Z</time>
      </trkpt>
      <trkpt lat="47.51377" lon="6.72348">
        <ele>425</ele>
        <time>2016-08-24T16:19:35.000Z</time>
      </trkpt>
      <trkpt lat="47.51377" lon="6.72344">
        <ele>425</ele>
        <time>2016-08-24T16:19:36.000Z</time>
      </trkpt>
      <trkpt lat="47.51376" lon="6.72341">
        <ele>425</ele>
        <time>2016-08-24T16:19:37.000Z</time>
      </trkpt>
      <trkpt lat="47.51376" lon="6.72338">
        <ele>425</ele>
        <time>2016-08-24T16:19:38.000Z</time>
      </trkpt>
      <trkpt lat="47.51377" lon="6.72334">
        <ele>425</ele>
        <time>2016-08-24T16:19:39.000Z</time>
      </trkpt>
      <trkpt lat="47.51377" lon="6.7233">
        <ele>422</ele>
        <time>2016-08-24T16:19:40.000Z</time>
      </trkpt>
      <trkpt lat="47.51378" lon="6.72327">
        <ele>422</ele>
        <time>2016-08-24T16:19:41.000Z</time>
      </trkpt>
      <trkpt lat="47.51378" lon="6.72323">
        <ele>422</ele>
        <time>2016-08-24T16:19:42.000Z</time>
      </trkpt>
      <trkpt lat="47.51378" lon="6.72317">
        <ele>421</ele>
        <time>2016-08-24T16:19:44.000Z</time>
      </trkpt>
      <trkpt lat="47.51378" lon="6.72315">
        <ele>421</ele>
        <time>2016-08-24T16:19:45.000Z</time>
      </trkpt>
      <trkpt lat="47.51376" lon="6.72309">
        <ele>422</ele>
        <time>2016-08-24T16:19:47.000Z</time>
      </trkpt>
      <trkpt lat="47.51374" lon="6.72307">
        <ele>422</ele>
        <time>2016-08-24T16:19:48.000Z</time>
      </trkpt>
      <trkpt lat="47.51372" lon="6.72304">
        <ele>422</ele>
        <time>2016-08-24T16:19:49.000Z</time>
      </trkpt>
      <trkpt lat="47.5137" lon="6.72301">
        <ele>422</ele>
        <time>2016-08-24T16:19:50.000Z</time>
      </trkpt>
      <trkpt lat="47.51369" lon="6.72299">
        <ele>422</ele>
        <time>2016-08-24T16:19:51.000Z</time>
      </trkpt>
      <trkpt lat="47.51367" lon="6.72296">
        <ele>422</ele>
        <time>2016-08-24T16:19:52.000Z</time>
      </trkpt>
      <trkpt lat="47.51365" lon="6.7229">
        <ele>422</ele>
        <time>2016-08-24T16:19:54.000Z</time>
      </trkpt>
      <trkpt lat="47.51365" lon="6.72287">
        <ele>422</ele>
        <time>2016-08-24T16:19:55.000Z</time>
      </trkpt>
      <trkpt lat="47.51364" lon="6.72284">
        <ele>422</ele>
        <time>2016-08-24T16:19:56.000Z</time>
      </trkpt>
      <trkpt lat="47.51363" lon="6.72281">
        <ele>422</ele>
        <time>2016-08-24T16:19:57.000Z</time>
      </trkpt>
      <trkpt lat="47.51362" lon="6.72278">
        <ele>422</ele>
        <time>2016-08-24T16:19:58.000Z</time>
      </trkpt>
      <trkpt lat="47.51361" lon="6.72274">
        <ele>422</ele>
        <time>2016-08-24T16:19:59.000Z</time>
      </trkpt>
      <trkpt lat="47.5136" lon="6.72271">
        <ele>422</ele>
        <time>2016-08-24T16:20:00.000Z</time>
      </trkpt>
      <trkpt lat="47.51359" lon="6.72268">
        <ele>423</ele>
        <time>2016-08-24T16:20:01.000Z</time>
      </trkpt>
      <trkpt lat="47.51358" lon="6.72264">
        <ele>423</ele>
        <time>2016-08-24T16:20:02.000Z</time>
      </trkpt>
      <trkpt lat="47.51358" lon="6.7226">
        <ele>423</ele>
        <time>2016-08-24T16:20:03.000Z</time>
      </trkpt>
      <trkpt lat="47.51357" lon="6.72256">
        <ele>423</ele>
        <time>2016-08-24T16:20:04.000Z</time>
      </trkpt>
      <trkpt lat="47.51357" lon="6.72253">
        <ele>423</ele>
        <time>2016-08-24T16:20:05.000Z</time>
      </trkpt>
      <trkpt lat="47.51358" lon="6.72246">
        <ele>422</ele>
        <time>2016-08-24T16:20:07.000Z</time>
      </trkpt>
      <trkpt lat="47.51358" lon="6.72243">
        <ele>422</ele>
        <time>2016-08-24T16:20:08.000Z</time>
      </trkpt>
      <trkpt lat="47.51359" lon="6.72239">
        <ele>422</ele>
        <time>2016-08-24T16:20:09.000Z</time>
      </trkpt>
      <trkpt lat="47.51359" lon="6.72234">
        <ele>421</ele>
        <time>2016-08-24T16:20:10.000Z</time>
      </trkpt>
      <trkpt lat="47.51359" lon="6.7223">
        <ele>421</ele>
        <time>2016-08-24T16:20:11.000Z</time>
      </trkpt>
      <trkpt lat="47.5136" lon="6.72226">
        <ele>421</ele>
        <time>2016-08-24T16:20:12.000Z</time>
      </trkpt>
      <trkpt lat="47.51361" lon="6.7222">
        <ele>421</ele>
        <time>2016-08-24T16:20:14.000Z</time>
      </trkpt>
      <trkpt lat="47.51361" lon="6.72217">
        <ele>421</ele>
        <time>2016-08-24T16:20:15.000Z</time>
      </trkpt>
      <trkpt lat="47.51361" lon="6.72212">
        <ele>421</ele>
        <time>2016-08-24T16:20:16.000Z</time>
      </trkpt>
      <trkpt lat="47.5136" lon="6.72208">
        <ele>421</ele>
        <time>2016-08-24T16:20:17.000Z</time>
      </trkpt>
      <trkpt lat="47.51358" lon="6.72202">
        <ele>421</ele>
        <time>2016-08-24T16:20:18.000Z</time>
      </trkpt>
      <trkpt lat="47.51357" lon="6.72197">
        <ele>422</ele>
        <time>2016-08-24T16:20:19.000Z</time>
      </trkpt>
      <trkpt lat="47.51356" lon="6.72192">
        <ele>422</ele>
        <time>2016-08-24T16:20:20.000Z</time>
      </trkpt>
      <trkpt lat="47.51356" lon="6.72189">
        <ele>423</ele>
        <time>2016-08-24T16:20:21.000Z</time>
      </trkpt>
      <trkpt lat="47.51356" lon="6.72184">
        <ele>423</ele>
        <time>2016-08-24T16:20:23.000Z</time>
      </trkpt>
      <trkpt lat="47.51356" lon="6.72181">
        <ele>423</ele>
        <time>2016-08-24T16:20:24.000Z</time>
      </trkpt>
      <trkpt lat="47.51357" lon="6.72178">
        <ele>423</ele>
        <time>2016-08-24T16:20:25.000Z</time>
      </trkpt>
      <trkpt lat="47.51357" lon="6.72174">
        <ele>424</ele>
        <time>2016-08-24T16:20:26.000Z</time>
      </trkpt>
      <trkpt lat="47.51357" lon="6.7217">
        <ele>424</ele>
        <time>2016-08-24T16:20:27.000Z</time>
      </trkpt>
      <trkpt lat="47.51357" lon="6.72166">
        <ele>428</ele>
        <time>2016-08-24T16:20:28.000Z</time>
      </trkpt>
      <trkpt lat="47.51357" lon="6.72161">
        <ele>428</ele>
        <time>2016-08-24T16:20:29.000Z</time>
      </trkpt>
      <trkpt lat="47.51356" lon="6.72157">
        <ele>428</ele>
        <time>2016-08-24T16:20:30.000Z</time>
      </trkpt>
      <trkpt lat="47.51355" lon="6.72153">
        <ele>428</ele>
        <time>2016-08-24T16:20:31.000Z</time>
      </trkpt>
      <trkpt lat="47.51354" lon="6.7215">
        <ele>428</ele>
        <time>2016-08-24T16:20:32.000Z</time>
      </trkpt>
      <trkpt lat="47.51351" lon="6.72146">
        <ele>428</ele>
        <time>2016-08-24T16:20:35.000Z</time>
      </trkpt>
      <trkpt lat="47.5135" lon="6.72144">
        <ele>429</ele>
        <time>2016-08-24T16:20:36.000Z</time>
      </trkpt>
      <trkpt lat="47.51347" lon="6.72139">
        <ele>429</ele>
        <time>2016-08-24T16:20:41.000Z</time>
      </trkpt>
      <trkpt lat="47.51347" lon="6.72138">
        <ele>429</ele>
        <time>2016-08-24T16:20:42.000Z</time>
      </trkpt>
      <trkpt lat="47.51344" lon="6.72134">
        <ele>429</ele>
        <time>2016-08-24T16:20:53.000Z</time>
      </trkpt>
      <trkpt lat="47.51343" lon="6.72133">
        <ele>429</ele>
        <time>2016-08-24T16:20:54.000Z</time>
      </trkpt>
      <trkpt lat="47.5134" lon="6.72133">
        <ele>430</ele>
        <time>2016-08-24T16:20:57.000Z</time>
      </trkpt>
      <trkpt lat="47.51339" lon="6.72134">
        <ele>430</ele>
        <time>2016-08-24T16:20:58.000Z</time>
      </trkpt>
      <trkpt lat="47.51335" lon="6.72136">
        <ele>430</ele>
        <time>2016-08-24T16:21:00.000Z</time>
      </trkpt>
      <trkpt lat="47.51334" lon="6.72136">
        <ele>430</ele>
        <time>2016-08-24T16:21:01.000Z</time>
      </trkpt>
      <trkpt lat="47.5133" lon="6.72137">
        <ele>440</ele>
        <time>2016-08-24T16:21:03.000Z</time>
      </trkpt>
      <trkpt lat="47.51328" lon="6.72136">
        <ele>440</ele>
        <time>2016-08-24T16:21:04.000Z</time>
      </trkpt>
      <trkpt lat="47.51324" lon="6.72135">
        <ele>440</ele>
        <time>2016-08-24T16:21:06.000Z</time>
      </trkpt>
      <trkpt lat="47.51322" lon="6.72135">
        <ele>441</ele>
        <time>2016-08-24T16:21:07.000Z</time>
      </trkpt>
      <trkpt lat="47.51319" lon="6.72134">
        <ele>441</ele>
        <time>2016-08-24T16:21:09.000Z</time>
      </trkpt>
      <trkpt lat="47.51317" lon="6.72134">
        <ele>441</ele>
        <time>2016-08-24T16:21:10.000Z</time>
      </trkpt>
      <trkpt lat="47.51313" lon="6.72135">
        <ele>441</ele>
        <time>2016-08-24T16:21:13.000Z</time>
      </trkpt>
      <trkpt lat="47.51312" lon="6.72135">
        <ele>441</ele>
        <time>2016-08-24T16:21:14.000Z</time>
      </trkpt>
      <trkpt lat="47.51308" lon="6.72134">
        <ele>442</ele>
        <time>2016-08-24T16:21:17.000Z</time>
      </trkpt>
      <trkpt lat="47.51307" lon="6.72133">
        <ele>442</ele>
        <time>2016-08-24T16:21:18.000Z</time>
      </trkpt>
      <trkpt lat="47.51303" lon="6.72134">
        <ele>442</ele>
        <time>2016-08-24T16:21:21.000Z</time>
      </trkpt>
      <trkpt lat="47.51301" lon="6.72135">
        <ele>442</ele>
        <time>2016-08-24T16:21:22.000Z</time>
      </trkpt>
      <trkpt lat="47.51296" lon="6.72135">
        <ele>442</ele>
        <time>2016-08-24T16:21:25.000Z</time>
      </trkpt>
      <trkpt lat="47.51295" lon="6.72135">
        <ele>442</ele>
        <time>2016-08-24T16:21:26.000Z</time>
      </trkpt>
      <trkpt lat="47.51292" lon="6.72135">
        <ele>443</ele>
        <time>2016-08-24T16:21:28.000Z</time>
      </trkpt>
      <trkpt lat="47.5129" lon="6.72136">
        <ele>443</ele>
        <time>2016-08-24T16:21:29.000Z</time>
      </trkpt>
      <trkpt lat="47.51287" lon="6.72136">
        <ele>443</ele>
        <time>2016-08-24T16:21:31.000Z</time>
      </trkpt>
      <trkpt lat="47.51286" lon="6.72137">
        <ele>443</ele>
        <time>2016-08-24T16:21:32.000Z</time>
      </trkpt>
      <trkpt lat="47.51282" lon="6.72136">
        <ele>443</ele>
        <time>2016-08-24T16:21:35.000Z</time>
      </trkpt>
      <trkpt lat="47.5128" lon="6.72136">
        <ele>443</ele>
        <time>2016-08-24T16:21:36.000Z</time>
      </trkpt>
      <trkpt lat="47.51277" lon="6.72138">
        <ele>443</ele>
        <time>2016-08-24T16:21:38.000Z</time>
      </trkpt>
      <trkpt lat="47.51276" lon="6.7214">
        <ele>444</ele>
        <time>2016-08-24T16:21:39.000Z</time>
      </trkpt>
      <trkpt lat="47.51272" lon="6.72141">
        <ele>444</ele>
        <time>2016-08-24T16:21:41.000Z</time>
      </trkpt>
      <trkpt lat="47.5127" lon="6.7214">
        <ele>444</ele>
        <time>2016-08-24T16:21:42.000Z</time>
      </trkpt>
      <trkpt lat="47.51267" lon="6.72141">
        <ele>444</ele>
        <time>2016-08-24T16:21:44.000Z</time>
      </trkpt>
      <trkpt lat="47.51264" lon="6.72142">
        <ele>444</ele>
        <time>2016-08-24T16:21:45.000Z</time>
      </trkpt>
      <trkpt lat="47.51261" lon="6.72143">
        <ele>444</ele>
        <time>2016-08-24T16:21:46.000Z</time>
      </trkpt>
      <trkpt lat="47.51258" lon="6.72144">
        <ele>444</ele>
        <time>2016-08-24T16:21:47.000Z</time>
      </trkpt>
      <trkpt lat="47.51256" lon="6.72145">
        <ele>444</ele>
        <time>2016-08-24T16:21:48.000Z</time>
      </trkpt>
      <trkpt lat="47.51251" lon="6.72148">
        <ele>445</ele>
        <time>2016-08-24T16:21:49.000Z</time>
      </trkpt>
      <trkpt lat="47.51247" lon="6.7215">
        <ele>445</ele>
        <time>2016-08-24T16:21:51.000Z</time>
      </trkpt>
      <trkpt lat="47.51246" lon="6.72151">
        <ele>445</ele>
        <time>2016-08-24T16:21:52.000Z</time>
      </trkpt>
      <trkpt lat="47.51243" lon="6.72153">
        <ele>445</ele>
        <time>2016-08-24T16:21:57.000Z</time>
      </trkpt>
      <trkpt lat="47.51243" lon="6.72155">
        <ele>445</ele>
        <time>2016-08-24T16:21:58.000Z</time>
      </trkpt>
      <trkpt lat="47.51243" lon="6.7216">
        <ele>446</ele>
        <time>2016-08-24T16:22:01.000Z</time>
      </trkpt>
      <trkpt lat="47.51242" lon="6.72162">
        <ele>446</ele>
        <time>2016-08-24T16:22:02.000Z</time>
      </trkpt>
      <trkpt lat="47.51241" lon="6.72167">
        <ele>444</ele>
        <time>2016-08-24T16:22:05.000Z</time>
      </trkpt>
      <trkpt lat="47.5124" lon="6.72169">
        <ele>444</ele>
        <time>2016-08-24T16:22:06.000Z</time>
      </trkpt>
      <trkpt lat="47.51237" lon="6.72173">
        <ele>444</ele>
        <time>2016-08-24T16:22:08.000Z</time>
      </trkpt>
      <trkpt lat="47.51236" lon="6.72174">
        <ele>444</ele>
        <time>2016-08-24T16:22:09.000Z</time>
      </trkpt>
      <trkpt lat="47.51234" lon="6.72177">
        <ele>443</ele>
        <time>2016-08-24T16:22:11.000Z</time>
      </trkpt>
      <trkpt lat="47.51233" lon="6.7218">
        <ele>443</ele>
        <time>2016-08-24T16:22:12.000Z</time>
      </trkpt>
      <trkpt lat="47.51233" lon="6.72183">
        <ele>443</ele>
        <time>2016-08-24T16:22:13.000Z</time>
      </trkpt>
      <trkpt lat="47.51232" lon="6.72187">
        <ele>443</ele>
        <time>2016-08-24T16:22:14.000Z</time>
      </trkpt>
      <trkpt lat="47.51232" lon="6.72191">
        <ele>442</ele>
        <time>2016-08-24T16:22:15.000Z</time>
      </trkpt>
      <trkpt lat="47.51231" lon="6.72195">
        <ele>442</ele>
        <time>2016-08-24T16:22:16.000Z</time>
      </trkpt>
      <trkpt lat="47.5123" lon="6.72199">
        <ele>442</ele>
        <time>2016-08-24T16:22:17.000Z</time>
      </trkpt>
      <trkpt lat="47.51229" lon="6.72202">
        <ele>442</ele>
        <time>2016-08-24T16:22:18.000Z</time>
      </trkpt>
      <trkpt lat="47.51227" lon="6.72207">
        <ele>442</ele>
        <time>2016-08-24T16:22:19.000Z</time>
      </trkpt>
      <trkpt lat="47.51225" lon="6.72213">
        <ele>442</ele>
        <time>2016-08-24T16:22:20.000Z</time>
      </trkpt>
      <trkpt lat="47.51223" lon="6.7222">
        <ele>441</ele>
        <time>2016-08-24T16:22:21.000Z</time>
      </trkpt>
      <trkpt lat="47.5122" lon="6.72242">
        <ele>441</ele>
        <time>2016-08-24T16:22:22.000Z</time>
      </trkpt>
      <trkpt lat="47.51222" lon="6.72253">
        <ele>441</ele>
        <time>2016-08-24T16:22:23.000Z</time>
      </trkpt>
      <trkpt lat="47.51222" lon="6.7226">
        <ele>441</ele>
        <time>2016-08-24T16:22:24.000Z</time>
      </trkpt>
      <trkpt lat="47.51221" lon="6.72266">
        <ele>441</ele>
        <time>2016-08-24T16:22:25.000Z</time>
      </trkpt>
      <trkpt lat="47.51221" lon="6.72273">
        <ele>441</ele>
        <time>2016-08-24T16:22:26.000Z</time>
      </trkpt>
      <trkpt lat="47.5122" lon="6.72279">
        <ele>441</ele>
        <time>2016-08-24T16:22:27.000Z</time>
      </trkpt>
      <trkpt lat="47.51218" lon="6.72284">
        <ele>441</ele>
        <time>2016-08-24T16:22:28.000Z</time>
      </trkpt>
      <trkpt lat="47.51218" lon="6.72291">
        <ele>441</ele>
        <time>2016-08-24T16:22:29.000Z</time>
      </trkpt>
      <trkpt lat="47.51218" lon="6.72297">
        <ele>441</ele>
        <time>2016-08-24T16:22:30.000Z</time>
      </trkpt>
      <trkpt lat="47.51218" lon="6.72304">
        <ele>441</ele>
        <time>2016-08-24T16:22:31.000Z</time>
      </trkpt>
      <trkpt lat="47.51217" lon="6.72309">
        <ele>442</ele>
        <time>2016-08-24T16:22:32.000Z</time>
      </trkpt>
      <trkpt lat="47.51218" lon="6.72315">
        <ele>442</ele>
        <time>2016-08-24T16:22:33.000Z</time>
      </trkpt>
      <trkpt lat="47.51218" lon="6.7232">
        <ele>442</ele>
        <time>2016-08-24T16:22:34.000Z</time>
      </trkpt>
      <trkpt lat="47.51217" lon="6.72326">
        <ele>442</ele>
        <time>2016-08-24T16:22:35.000Z</time>
      </trkpt>
      <trkpt lat="47.51216" lon="6.72331">
        <ele>442</ele>
        <time>2016-08-24T16:22:36.000Z</time>
      </trkpt>
      <trkpt lat="47.51215" lon="6.72338">
        <ele>442</ele>
        <time>2016-08-24T16:22:37.000Z</time>
      </trkpt>
      <trkpt lat="47.51213" lon="6.72344">
        <ele>442</ele>
        <time>2016-08-24T16:22:38.000Z</time>
      </trkpt>
      <trkpt lat="47.51211" lon="6.72351">
        <ele>442</ele>
        <time>2016-08-24T16:22:39.000Z</time>
      </trkpt>
      <trkpt lat="47.51208" lon="6.72358">
        <ele>442</ele>
        <time>2016-08-24T16:22:40.000Z</time>
      </trkpt>
      <trkpt lat="47.51206" lon="6.72365">
        <ele>442</ele>
        <time>2016-08-24T16:22:41.000Z</time>
      </trkpt>
      <trkpt lat="47.51203" lon="6.72372">
        <ele>442</ele>
        <time>2016-08-24T16:22:42.000Z</time>
      </trkpt>
      <trkpt lat="47.51201" lon="6.7238">
        <ele>441</ele>
        <time>2016-08-24T16:22:43.000Z</time>
      </trkpt>
      <trkpt lat="47.51198" lon="6.72388">
        <ele>441</ele>
        <time>2016-08-24T16:22:44.000Z</time>
      </trkpt>
      <trkpt lat="47.51195" lon="6.72396">
        <ele>441</ele>
        <time>2016-08-24T16:22:45.000Z</time>
      </trkpt>
      <trkpt lat="47.51193" lon="6.72404">
        <ele>441</ele>
        <time>2016-08-24T16:22:46.000Z</time>
      </trkpt>
      <trkpt lat="47.51191" lon="6.72413">
        <ele>441</ele>
        <time>2016-08-24T16:22:47.000Z</time>
      </trkpt>
      <trkpt lat="47.51188" lon="6.72441">
        <ele>438</ele>
        <time>2016-08-24T16:22:48.000Z</time>
      </trkpt>
      <trkpt lat="47.51185" lon="6.72454">
        <ele>438</ele>
        <time>2016-08-24T16:22:49.000Z</time>
      </trkpt>
      <trkpt lat="47.51182" lon="6.72461">
        <ele>437</ele>
        <time>2016-08-24T16:22:50.000Z</time>
      </trkpt>
      <trkpt lat="47.5118" lon="6.72468">
        <ele>437</ele>
        <time>2016-08-24T16:22:51.000Z</time>
      </trkpt>
      <trkpt lat="47.51176" lon="6.72474">
        <ele>437</ele>
        <time>2016-08-24T16:22:52.000Z</time>
      </trkpt>
      <trkpt lat="47.51171" lon="6.72483">
        <ele>436</ele>
        <time>2016-08-24T16:22:53.000Z</time>
      </trkpt>
      <trkpt lat="47.51167" lon="6.72491">
        <ele>435</ele>
        <time>2016-08-24T16:22:54.000Z</time>
      </trkpt>
      <trkpt lat="47.51161" lon="6.725">
        <ele>434</ele>
        <time>2016-08-24T16:22:55.000Z</time>
      </trkpt>
      <trkpt lat="47.51162" lon="6.72506">
        <ele>433</ele>
        <time>2016-08-24T16:22:58.000Z</time>
      </trkpt>
      <trkpt lat="47.51161" lon="6.72508">
        <ele>433</ele>
        <time>2016-08-24T16:22:59.000Z</time>
      </trkpt>
      <trkpt lat="47.51161" lon="6.72513">
        <ele>432</ele>
        <time>2016-08-24T16:23:02.000Z</time>
      </trkpt>
      <trkpt lat="47.51159" lon="6.72516">
        <ele>432</ele>
        <time>2016-08-24T16:23:03.000Z</time>
      </trkpt>
      <trkpt lat="47.51159" lon="6.72521">
        <ele>432</ele>
        <time>2016-08-24T16:23:04.000Z</time>
      </trkpt>
      <trkpt lat="47.51157" lon="6.72527">
        <ele>431</ele>
        <time>2016-08-24T16:23:05.000Z</time>
      </trkpt>
      <trkpt lat="47.51152" lon="6.72542">
        <ele>431</ele>
        <time>2016-08-24T16:23:06.000Z</time>
      </trkpt>
      <trkpt lat="47.51149" lon="6.72551">
        <ele>430</ele>
        <time>2016-08-24T16:23:07.000Z</time>
      </trkpt>
      <trkpt lat="47.51144" lon="6.72562">
        <ele>430</ele>
        <time>2016-08-24T16:23:08.000Z</time>
      </trkpt>
      <trkpt lat="47.51141" lon="6.72569">
        <ele>430</ele>
        <time>2016-08-24T16:23:09.000Z</time>
      </trkpt>
      <trkpt lat="47.51136" lon="6.72575">
        <ele>430</ele>
        <time>2016-08-24T16:23:10.000Z</time>
      </trkpt>
      <trkpt lat="47.51129" lon="6.72581">
        <ele>430</ele>
        <time>2016-08-24T16:23:11.000Z</time>
      </trkpt>
      <trkpt lat="47.51121" lon="6.72585">
        <ele>426</ele>
        <time>2016-08-24T16:23:12.000Z</time>
      </trkpt>
      <trkpt lat="47.51116" lon="6.72589">
        <ele>426</ele>
        <time>2016-08-24T16:23:13.000Z</time>
      </trkpt>
      <trkpt lat="47.51109" lon="6.72593">
        <ele>426</ele>
        <time>2016-08-24T16:23:14.000Z</time>
      </trkpt>
      <trkpt lat="47.511" lon="6.72601">
        <ele>426</ele>
        <time>2016-08-24T16:23:15.000Z</time>
      </trkpt>
      <trkpt lat="47.51093" lon="6.72606">
        <ele>426</ele>
        <time>2016-08-24T16:23:16.000Z</time>
      </trkpt>
      <trkpt lat="47.51089" lon="6.72608">
        <ele>426</ele>
        <time>2016-08-24T16:23:17.000Z</time>
      </trkpt>
      <trkpt lat="47.51083" lon="6.72612">
        <ele>426</ele>
        <time>2016-08-24T16:23:18.000Z</time>
      </trkpt>
      <trkpt lat="47.51078" lon="6.72615">
        <ele>426</ele>
        <time>2016-08-24T16:23:19.000Z</time>
      </trkpt>
      <trkpt lat="47.51073" lon="6.72618">
        <ele>426</ele>
        <time>2016-08-24T16:23:20.000Z</time>
      </trkpt>
      <trkpt lat="47.51068" lon="6.7262">
        <ele>426</ele>
        <time>2016-08-24T16:23:21.000Z</time>
      </trkpt>
      <trkpt lat="47.51062" lon="6.72624">
        <ele>426</ele>
        <time>2016-08-24T16:23:22.000Z</time>
      </trkpt>
      <trkpt lat="47.51054" lon="6.7263">
        <ele>425</ele>
        <time>2016-08-24T16:23:23.000Z</time>
      </trkpt>
      <trkpt lat="47.51049" lon="6.72637">
        <ele>425</ele>
        <time>2016-08-24T16:23:24.000Z</time>
      </trkpt>
      <trkpt lat="47.51044" lon="6.7264">
        <ele>425</ele>
        <time>2016-08-24T16:23:25.000Z</time>
      </trkpt>
      <trkpt lat="47.5104" lon="6.72643">
        <ele>426</ele>
        <time>2016-08-24T16:23:26.000Z</time>
      </trkpt>
      <trkpt lat="47.51037" lon="6.72646">
        <ele>426</ele>
        <time>2016-08-24T16:23:27.000Z</time>
      </trkpt>
      <trkpt lat="47.51034" lon="6.72648">
        <ele>426</ele>
        <time>2016-08-24T16:23:28.000Z</time>
      </trkpt>
      <trkpt lat="47.5103" lon="6.72653">
        <ele>426</ele>
        <time>2016-08-24T16:23:29.000Z</time>
      </trkpt>
      <trkpt lat="47.51026" lon="6.72656">
        <ele>426</ele>
        <time>2016-08-24T16:23:30.000Z</time>
      </trkpt>
      <trkpt lat="47.5102" lon="6.72662">
        <ele>426</ele>
        <time>2016-08-24T16:23:31.000Z</time>
      </trkpt>
      <trkpt lat="47.51015" lon="6.72669">
        <ele>426</ele>
        <time>2016-08-24T16:23:32.000Z</time>
      </trkpt>
      <trkpt lat="47.51012" lon="6.72672">
        <ele>426</ele>
        <time>2016-08-24T16:23:33.000Z</time>
      </trkpt>
      <trkpt lat="47.51009" lon="6.72677">
        <ele>426</ele>
        <time>2016-08-24T16:23:34.000Z</time>
      </trkpt>
      <trkpt lat="47.51007" lon="6.72679">
        <ele>426</ele>
        <time>2016-08-24T16:23:35.000Z</time>
      </trkpt>
      <trkpt lat="47.51004" lon="6.72683">
        <ele>425</ele>
        <time>2016-08-24T16:23:36.000Z</time>
      </trkpt>
      <trkpt lat="47.51001" lon="6.72686">
        <ele>425</ele>
        <time>2016-08-24T16:23:37.000Z</time>
      </trkpt>
      <trkpt lat="47.50998" lon="6.72689">
        <ele>428</ele>
        <time>2016-08-24T16:23:38.000Z</time>
      </trkpt>
      <trkpt lat="47.50995" lon="6.72693">
        <ele>428</ele>
        <time>2016-08-24T16:23:39.000Z</time>
      </trkpt>
      <trkpt lat="47.5099" lon="6.72698">
        <ele>428</ele>
        <time>2016-08-24T16:23:40.000Z</time>
      </trkpt>
      <trkpt lat="47.50986" lon="6.72702">
        <ele>428</ele>
        <time>2016-08-24T16:23:41.000Z</time>
      </trkpt>
      <trkpt lat="47.50982" lon="6.72708">
        <ele>428</ele>
        <time>2016-08-24T16:23:42.000Z</time>
      </trkpt>
      <trkpt lat="47.50977" lon="6.72714">
        <ele>428</ele>
        <time>2016-08-24T16:23:43.000Z</time>
      </trkpt>
      <trkpt lat="47.50973" lon="6.7272">
        <ele>428</ele>
        <time>2016-08-24T16:23:44.000Z</time>
      </trkpt>
      <trkpt lat="47.5097" lon="6.72726">
        <ele>428</ele>
        <time>2016-08-24T16:23:45.000Z</time>
      </trkpt>
      <trkpt lat="47.50966" lon="6.72732">
        <ele>428</ele>
        <time>2016-08-24T16:23:46.000Z</time>
      </trkpt>
      <trkpt lat="47.50962" lon="6.72739">
        <ele>428</ele>
        <time>2016-08-24T16:23:47.000Z</time>
      </trkpt>
      <trkpt lat="47.50959" lon="6.72746">
        <ele>428</ele>
        <time>2016-08-24T16:23:48.000Z</time>
      </trkpt>
      <trkpt lat="47.50956" lon="6.72754">
        <ele>427</ele>
        <time>2016-08-24T16:23:49.000Z</time>
      </trkpt>
      <trkpt lat="47.50953" lon="6.72761">
        <ele>428</ele>
        <time>2016-08-24T16:23:50.000Z</time>
      </trkpt>
      <trkpt lat="47.5095" lon="6.72768">
        <ele>428</ele>
        <time>2016-08-24T16:23:51.000Z</time>
      </trkpt>
      <trkpt lat="47.50947" lon="6.72774">
        <ele>428</ele>
        <time>2016-08-24T16:23:52.000Z</time>
      </trkpt>
      <trkpt lat="47.50944" lon="6.7278">
        <ele>428</ele>
        <time>2016-08-24T16:23:53.000Z</time>
      </trkpt>
      <trkpt lat="47.5094" lon="6.72785">
        <ele>428</ele>
        <time>2016-08-24T16:23:54.000Z</time>
      </trkpt>
      <trkpt lat="47.50936" lon="6.72791">
        <ele>428</ele>
        <time>2016-08-24T16:23:55.000Z</time>
      </trkpt>
      <trkpt lat="47.50932" lon="6.72797">
        <ele>428</ele>
        <time>2016-08-24T16:23:56.000Z</time>
      </trkpt>
      <trkpt lat="47.50927" lon="6.72803">
        <ele>428</ele>
        <time>2016-08-24T16:23:57.000Z</time>
      </trkpt>
      <trkpt lat="47.50923" lon="6.7281">
        <ele>429</ele>
        <time>2016-08-24T16:23:58.000Z</time>
      </trkpt>
      <trkpt lat="47.5092" lon="6.72818">
        <ele>429</ele>
        <time>2016-08-24T16:23:59.000Z</time>
      </trkpt>
      <trkpt lat="47.50916" lon="6.72825">
        <ele>431</ele>
        <time>2016-08-24T16:24:00.000Z</time>
      </trkpt>
      <trkpt lat="47.50912" lon="6.72833">
        <ele>431</ele>
        <time>2016-08-24T16:24:01.000Z</time>
      </trkpt>
      <trkpt lat="47.50908" lon="6.72841">
        <ele>431</ele>
        <time>2016-08-24T16:24:02.000Z</time>
      </trkpt>
      <trkpt lat="47.50904" lon="6.72848">
        <ele>431</ele>
        <time>2016-08-24T16:24:03.000Z</time>
      </trkpt>
      <trkpt lat="47.50901" lon="6.72856">
        <ele>431</ele>
        <time>2016-08-24T16:24:04.000Z</time>
      </trkpt>
      <trkpt lat="47.50899" lon="6.7288">
        <ele>431</ele>
        <time>2016-08-24T16:24:05.000Z</time>
      </trkpt>
      <trkpt lat="47.50896" lon="6.72888">
        <ele>431</ele>
        <time>2016-08-24T16:24:06.000Z</time>
      </trkpt>
      <trkpt lat="47.50894" lon="6.72895">
        <ele>431</ele>
        <time>2016-08-24T16:24:07.000Z</time>
      </trkpt>
      <trkpt lat="47.50888" lon="6.72908">
        <ele>431</ele>
        <time>2016-08-24T16:24:08.000Z</time>
      </trkpt>
      <trkpt lat="47.50884" lon="6.72922">
        <ele>431</ele>
        <time>2016-08-24T16:24:09.000Z</time>
      </trkpt>
      <trkpt lat="47.50881" lon="6.7293">
        <ele>431</ele>
        <time>2016-08-24T16:24:10.000Z</time>
      </trkpt>
      <trkpt lat="47.50878" lon="6.7294">
        <ele>431</ele>
        <time>2016-08-24T16:24:11.000Z</time>
      </trkpt>
      <trkpt lat="47.50876" lon="6.7295">
        <ele>431</ele>
        <time>2016-08-24T16:24:12.000Z</time>
      </trkpt>
      <trkpt lat="47.50875" lon="6.72963">
        <ele>431</ele>
        <time>2016-08-24T16:24:13.000Z</time>
      </trkpt>
      <trkpt lat="47.50872" lon="6.72969">
        <ele>431</ele>
        <time>2016-08-24T16:24:14.000Z</time>
      </trkpt>
      <trkpt lat="47.50869" lon="6.72985">
        <ele>431</ele>
        <time>2016-08-24T16:24:15.000Z</time>
      </trkpt>
      <trkpt lat="47.50868" lon="6.72999">
        <ele>432</ele>
        <time>2016-08-24T16:24:16.000Z</time>
      </trkpt>
      <trkpt lat="47.50867" lon="6.73016">
        <ele>431</ele>
        <time>2016-08-24T16:24:17.000Z</time>
      </trkpt>
      <trkpt lat="47.50865" lon="6.73026">
        <ele>431</ele>
        <time>2016-08-24T16:24:18.000Z</time>
      </trkpt>
      <trkpt lat="47.50862" lon="6.7304">
        <ele>431</ele>
        <time>2016-08-24T16:24:19.000Z</time>
      </trkpt>
      <trkpt lat="47.50859" lon="6.73053">
        <ele>431</ele>
        <time>2016-08-24T16:24:20.000Z</time>
      </trkpt>
      <trkpt lat="47.50856" lon="6.73066">
        <ele>432</ele>
        <time>2016-08-24T16:24:21.000Z</time>
      </trkpt>
      <trkpt lat="47.5085" lon="6.73077">
        <ele>432</ele>
        <time>2016-08-24T16:24:22.000Z</time>
      </trkpt>
      <trkpt lat="47.50849" lon="6.73084">
        <ele>431</ele>
        <time>2016-08-24T16:24:23.000Z</time>
      </trkpt>
      <trkpt lat="47.50845" lon="6.73095">
        <ele>431</ele>
        <time>2016-08-24T16:24:24.000Z</time>
      </trkpt>
      <trkpt lat="47.50842" lon="6.73106">
        <ele>430</ele>
        <time>2016-08-24T16:24:25.000Z</time>
      </trkpt>
      <trkpt lat="47.50839" lon="6.73116">
        <ele>429</ele>
        <time>2016-08-24T16:24:26.000Z</time>
      </trkpt>
      <trkpt lat="47.50833" lon="6.73122">
        <ele>428</ele>
        <time>2016-08-24T16:24:27.000Z</time>
      </trkpt>
      <trkpt lat="47.50827" lon="6.73127">
        <ele>428</ele>
        <time>2016-08-24T16:24:28.000Z</time>
      </trkpt>
      <trkpt lat="47.50821" lon="6.73134">
        <ele>427</ele>
        <time>2016-08-24T16:24:29.000Z</time>
      </trkpt>
      <trkpt lat="47.50815" lon="6.73145">
        <ele>427</ele>
        <time>2016-08-24T16:24:30.000Z</time>
      </trkpt>
      <trkpt lat="47.50808" lon="6.73155">
        <ele>426</ele>
        <time>2016-08-24T16:24:31.000Z</time>
      </trkpt>
      <trkpt lat="47.50803" lon="6.73165">
        <ele>426</ele>
        <time>2016-08-24T16:24:32.000Z</time>
      </trkpt>
      <trkpt lat="47.50798" lon="6.73178">
        <ele>421</ele>
        <time>2016-08-24T16:24:33.000Z</time>
      </trkpt>
      <trkpt lat="47.50797" lon="6.73193">
        <ele>421</ele>
        <time>2016-08-24T16:24:34.000Z</time>
      </trkpt>
      <trkpt lat="47.50791" lon="6.73206">
        <ele>420</ele>
        <time>2016-08-24T16:24:35.000Z</time>
      </trkpt>
      <trkpt lat="47.50786" lon="6.73217">
        <ele>419</ele>
        <time>2016-08-24T16:24:36.000Z</time>
      </trkpt>
      <trkpt lat="47.5078" lon="6.73227">
        <ele>419</ele>
        <time>2016-08-24T16:24:37.000Z</time>
      </trkpt>
      <trkpt lat="47.50777" lon="6.73237">
        <ele>418</ele>
        <time>2016-08-24T16:24:38.000Z</time>
      </trkpt>
      <trkpt lat="47.50771" lon="6.73244">
        <ele>418</ele>
        <time>2016-08-24T16:24:39.000Z</time>
      </trkpt>
      <trkpt lat="47.50765" lon="6.73251">
        <ele>413</ele>
        <time>2016-08-24T16:24:40.000Z</time>
      </trkpt>
      <trkpt lat="47.50761" lon="6.73259">
        <ele>413</ele>
        <time>2016-08-24T16:24:41.000Z</time>
      </trkpt>
      <trkpt lat="47.50756" lon="6.73276">
        <ele>411</ele>
        <time>2016-08-24T16:24:42.000Z</time>
      </trkpt>
      <trkpt lat="47.5075" lon="6.73287">
        <ele>410</ele>
        <time>2016-08-24T16:24:43.000Z</time>
      </trkpt>
      <trkpt lat="47.50744" lon="6.73292">
        <ele>407</ele>
        <time>2016-08-24T16:24:44.000Z</time>
      </trkpt>
      <trkpt lat="47.50738" lon="6.73298">
        <ele>407</ele>
        <time>2016-08-24T16:24:45.000Z</time>
      </trkpt>
      <trkpt lat="47.50732" lon="6.73311">
        <ele>406</ele>
        <time>2016-08-24T16:24:46.000Z</time>
      </trkpt>
      <trkpt lat="47.50728" lon="6.7332">
        <ele>406</ele>
        <time>2016-08-24T16:24:47.000Z</time>
      </trkpt>
      <trkpt lat="47.50724" lon="6.73328">
        <ele>405</ele>
        <time>2016-08-24T16:24:48.000Z</time>
      </trkpt>
      <trkpt lat="47.50717" lon="6.73335">
        <ele>400</ele>
        <time>2016-08-24T16:24:49.000Z</time>
      </trkpt>
      <trkpt lat="47.50711" lon="6.73343">
        <ele>399</ele>
        <time>2016-08-24T16:24:50.000Z</time>
      </trkpt>
      <trkpt lat="47.50706" lon="6.73356">
        <ele>398</ele>
        <time>2016-08-24T16:24:51.000Z</time>
      </trkpt>
      <trkpt lat="47.50701" lon="6.73364">
        <ele>398</ele>
        <time>2016-08-24T16:24:52.000Z</time>
      </trkpt>
      <trkpt lat="47.50696" lon="6.73375">
        <ele>397</ele>
        <time>2016-08-24T16:24:53.000Z</time>
      </trkpt>
      <trkpt lat="47.50693" lon="6.73385">
        <ele>397</ele>
        <time>2016-08-24T16:24:54.000Z</time>
      </trkpt>
      <trkpt lat="47.50692" lon="6.73395">
        <ele>397</ele>
        <time>2016-08-24T16:24:55.000Z</time>
      </trkpt>
      <trkpt lat="47.50689" lon="6.73404">
        <ele>397</ele>
        <time>2016-08-24T16:24:56.000Z</time>
      </trkpt>
      <trkpt lat="47.50682" lon="6.7341">
        <ele>397</ele>
        <time>2016-08-24T16:24:57.000Z</time>
      </trkpt>
      <trkpt lat="47.50678" lon="6.73419">
        <ele>393</ele>
        <time>2016-08-24T16:24:58.000Z</time>
      </trkpt>
      <trkpt lat="47.50674" lon="6.7343">
        <ele>392</ele>
        <time>2016-08-24T16:24:59.000Z</time>
      </trkpt>
      <trkpt lat="47.50669" lon="6.73439">
        <ele>390</ele>
        <time>2016-08-24T16:25:00.000Z</time>
      </trkpt>
      <trkpt lat="47.50664" lon="6.73445">
        <ele>388</ele>
        <time>2016-08-24T16:25:01.000Z</time>
      </trkpt>
      <trkpt lat="47.50661" lon="6.73454">
        <ele>387</ele>
        <time>2016-08-24T16:25:02.000Z</time>
      </trkpt>
      <trkpt lat="47.50658" lon="6.73461">
        <ele>386</ele>
        <time>2016-08-24T16:25:03.000Z</time>
      </trkpt>
      <trkpt lat="47.50653" lon="6.73464">
        <ele>386</ele>
        <time>2016-08-24T16:25:04.000Z</time>
      </trkpt>
      <trkpt lat="47.50651" lon="6.7347">
        <ele>386</ele>
        <time>2016-08-24T16:25:05.000Z</time>
      </trkpt>
      <trkpt lat="47.50649" lon="6.73474">
        <ele>385</ele>
        <time>2016-08-24T16:25:06.000Z</time>
      </trkpt>
      <trkpt lat="47.50647" lon="6.73479">
        <ele>385</ele>
        <time>2016-08-24T16:25:07.000Z</time>
      </trkpt>
      <trkpt lat="47.50645" lon="6.73485">
        <ele>385</ele>
        <time>2016-08-24T16:25:08.000Z</time>
      </trkpt>
      <trkpt lat="47.50644" lon="6.73491">
        <ele>385</ele>
        <time>2016-08-24T16:25:09.000Z</time>
      </trkpt>
      <trkpt lat="47.50641" lon="6.73496">
        <ele>384</ele>
        <time>2016-08-24T16:25:10.000Z</time>
      </trkpt>
      <trkpt lat="47.50639" lon="6.73501">
        <ele>381</ele>
        <time>2016-08-24T16:25:11.000Z</time>
      </trkpt>
      <trkpt lat="47.50633" lon="6.73502">
        <ele>380</ele>
        <time>2016-08-24T16:25:12.000Z</time>
      </trkpt>
      <trkpt lat="47.50631" lon="6.73506">
        <ele>380</ele>
        <time>2016-08-24T16:25:13.000Z</time>
      </trkpt>
      <trkpt lat="47.50627" lon="6.73513">
        <ele>380</ele>
        <time>2016-08-24T16:25:14.000Z</time>
      </trkpt>
      <trkpt lat="47.50623" lon="6.7352">
        <ele>379</ele>
        <time>2016-08-24T16:25:15.000Z</time>
      </trkpt>
      <trkpt lat="47.5062" lon="6.73525">
        <ele>379</ele>
        <time>2016-08-24T16:25:16.000Z</time>
      </trkpt>
      <trkpt lat="47.50618" lon="6.73528">
        <ele>379</ele>
        <time>2016-08-24T16:25:17.000Z</time>
      </trkpt>
      <trkpt lat="47.50617" lon="6.73531">
        <ele>379</ele>
        <time>2016-08-24T16:25:18.000Z</time>
      </trkpt>
      <trkpt lat="47.50619" lon="6.73536">
        <ele>379</ele>
        <time>2016-08-24T16:25:20.000Z</time>
      </trkpt>
      <trkpt lat="47.5062" lon="6.73543">
        <ele>379</ele>
        <time>2016-08-24T16:25:21.000Z</time>
      </trkpt>
      <trkpt lat="47.50622" lon="6.73548">
        <ele>379</ele>
        <time>2016-08-24T16:25:23.000Z</time>
      </trkpt>
      <trkpt lat="47.50623" lon="6.73549">
        <ele>379</ele>
        <time>2016-08-24T16:25:24.000Z</time>
      </trkpt>
      <trkpt lat="47.50625" lon="6.73554">
        <ele>378</ele>
        <time>2016-08-24T16:25:55.000Z</time>
      </trkpt>
      <trkpt lat="47.50626" lon="6.73556">
        <ele>378</ele>
        <time>2016-08-24T16:25:56.000Z</time>
      </trkpt>
      <trkpt lat="47.50626" lon="6.7356">
        <ele>378</ele>
        <time>2016-08-24T16:25:58.000Z</time>
      </trkpt>
      <trkpt lat="47.50627" lon="6.73563">
        <ele>378</ele>
        <time>2016-08-24T16:25:59.000Z</time>
      </trkpt>
      <trkpt lat="47.50627" lon="6.73567">
        <ele>378</ele>
        <time>2016-08-24T16:26:00.000Z</time>
      </trkpt>
      <trkpt lat="47.50627" lon="6.73572">
        <ele>378</ele>
        <time>2016-08-24T16:26:01.000Z</time>
      </trkpt>
      <trkpt lat="47.50627" lon="6.73576">
        <ele>378</ele>
        <time>2016-08-24T16:26:02.000Z</time>
      </trkpt>
      <trkpt lat="47.50628" lon="6.7358">
        <ele>378</ele>
        <time>2016-08-24T16:26:03.000Z</time>
      </trkpt>
      <trkpt lat="47.50629" lon="6.73584">
        <ele>375</ele>
        <time>2016-08-24T16:26:04.000Z</time>
      </trkpt>
      <trkpt lat="47.50631" lon="6.73588">
        <ele>374</ele>
        <time>2016-08-24T16:26:05.000Z</time>
      </trkpt>
      <trkpt lat="47.50633" lon="6.73592">
        <ele>374</ele>
        <time>2016-08-24T16:26:06.000Z</time>
      </trkpt>
      <trkpt lat="47.50641" lon="6.73602">
        <ele>373</ele>
        <time>2016-08-24T16:26:07.000Z</time>
      </trkpt>
      <trkpt lat="47.50646" lon="6.73609">
        <ele>373</ele>
        <time>2016-08-24T16:26:08.000Z</time>
      </trkpt>
      <trkpt lat="47.50649" lon="6.73615">
        <ele>373</ele>
        <time>2016-08-24T16:26:09.000Z</time>
      </trkpt>
      <trkpt lat="47.50652" lon="6.73622">
        <ele>372</ele>
        <time>2016-08-24T16:26:10.000Z</time>
      </trkpt>
      <trkpt lat="47.50653" lon="6.73629">
        <ele>372</ele>
        <time>2016-08-24T16:26:11.000Z</time>
      </trkpt>
      <trkpt lat="47.50654" lon="6.73636">
        <ele>371</ele>
        <time>2016-08-24T16:26:12.000Z</time>
      </trkpt>
      <trkpt lat="47.50655" lon="6.73642">
        <ele>370</ele>
        <time>2016-08-24T16:26:13.000Z</time>
      </trkpt>
      <trkpt lat="47.50654" lon="6.73649">
        <ele>369</ele>
        <time>2016-08-24T16:26:14.000Z</time>
      </trkpt>
      <trkpt lat="47.50654" lon="6.73656">
        <ele>368</ele>
        <time>2016-08-24T16:26:15.000Z</time>
      </trkpt>
      <trkpt lat="47.50654" lon="6.73662">
        <ele>367</ele>
        <time>2016-08-24T16:26:16.000Z</time>
      </trkpt>
      <trkpt lat="47.50655" lon="6.73672">
        <ele>366</ele>
        <time>2016-08-24T16:26:17.000Z</time>
      </trkpt>
      <trkpt lat="47.50656" lon="6.73679">
        <ele>367</ele>
        <time>2016-08-24T16:26:18.000Z</time>
      </trkpt>
      <trkpt lat="47.50656" lon="6.73686">
        <ele>368</ele>
        <time>2016-08-24T16:26:19.000Z</time>
      </trkpt>
      <trkpt lat="47.50657" lon="6.73693">
        <ele>368</ele>
        <time>2016-08-24T16:26:20.000Z</time>
      </trkpt>
      <trkpt lat="47.50657" lon="6.73701">
        <ele>368</ele>
        <time>2016-08-24T16:26:21.000Z</time>
      </trkpt>
      <trkpt lat="47.50658" lon="6.73708">
        <ele>369</ele>
        <time>2016-08-24T16:26:22.000Z</time>
      </trkpt>
      <trkpt lat="47.50658" lon="6.73715">
        <ele>368</ele>
        <time>2016-08-24T16:26:23.000Z</time>
      </trkpt>
      <trkpt lat="47.50657" lon="6.73724">
        <ele>368</ele>
        <time>2016-08-24T16:26:24.000Z</time>
      </trkpt>
      <trkpt lat="47.50658" lon="6.73732">
        <ele>367</ele>
        <time>2016-08-24T16:26:25.000Z</time>
      </trkpt>
      <trkpt lat="47.50658" lon="6.73742">
        <ele>366</ele>
        <time>2016-08-24T16:26:26.000Z</time>
      </trkpt>
      <trkpt lat="47.50658" lon="6.7375">
        <ele>365</ele>
        <time>2016-08-24T16:26:27.000Z</time>
      </trkpt>
      <trkpt lat="47.50658" lon="6.73757">
        <ele>365</ele>
        <time>2016-08-24T16:26:28.000Z</time>
      </trkpt>
      <trkpt lat="47.50659" lon="6.73765">
        <ele>366</ele>
        <time>2016-08-24T16:26:29.000Z</time>
      </trkpt>
      <trkpt lat="47.50659" lon="6.73771">
        <ele>367</ele>
        <time>2016-08-24T16:26:30.000Z</time>
      </trkpt>
      <trkpt lat="47.5066" lon="6.7378">
        <ele>367</ele>
        <time>2016-08-24T16:26:31.000Z</time>
      </trkpt>
      <trkpt lat="47.50659" lon="6.73789">
        <ele>368</ele>
        <time>2016-08-24T16:26:32.000Z</time>
      </trkpt>
      <trkpt lat="47.50658" lon="6.73796">
        <ele>368</ele>
        <time>2016-08-24T16:26:33.000Z</time>
      </trkpt>
      <trkpt lat="47.50658" lon="6.73805">
        <ele>367</ele>
        <time>2016-08-24T16:26:34.000Z</time>
      </trkpt>
      <trkpt lat="47.50658" lon="6.73814">
        <ele>366</ele>
        <time>2016-08-24T16:26:35.000Z</time>
      </trkpt>
      <trkpt lat="47.50657" lon="6.73822">
        <ele>365</ele>
        <time>2016-08-24T16:26:36.000Z</time>
      </trkpt>
      <trkpt lat="47.50656" lon="6.7383">
        <ele>364</ele>
        <time>2016-08-24T16:26:37.000Z</time>
      </trkpt>
      <trkpt lat="47.50655" lon="6.73837">
        <ele>363</ele>
        <time>2016-08-24T16:26:38.000Z</time>
      </trkpt>
      <trkpt lat="47.50654" lon="6.73845">
        <ele>364</ele>
        <time>2016-08-24T16:26:39.000Z</time>
      </trkpt>
      <trkpt lat="47.50653" lon="6.73852">
        <ele>364</ele>
        <time>2016-08-24T16:26:40.000Z</time>
      </trkpt>
      <trkpt lat="47.5065" lon="6.7386">
        <ele>365</ele>
        <time>2016-08-24T16:26:41.000Z</time>
      </trkpt>
      <trkpt lat="47.5065" lon="6.73867">
        <ele>365</ele>
        <time>2016-08-24T16:26:42.000Z</time>
      </trkpt>
      <trkpt lat="47.50646" lon="6.73875">
        <ele>365</ele>
        <time>2016-08-24T16:26:43.000Z</time>
      </trkpt>
      <trkpt lat="47.50644" lon="6.73882">
        <ele>365</ele>
        <time>2016-08-24T16:26:44.000Z</time>
      </trkpt>
      <trkpt lat="47.5064" lon="6.73889">
        <ele>365</ele>
        <time>2016-08-24T16:26:45.000Z</time>
      </trkpt>
      <trkpt lat="47.50639" lon="6.73894">
        <ele>365</ele>
        <time>2016-08-24T16:26:46.000Z</time>
      </trkpt>
      <trkpt lat="47.50637" lon="6.73902">
        <ele>365</ele>
        <time>2016-08-24T16:26:47.000Z</time>
      </trkpt>
      <trkpt lat="47.50634" lon="6.73907">
        <ele>365</ele>
        <time>2016-08-24T16:26:48.000Z</time>
      </trkpt>
      <trkpt lat="47.5063" lon="6.73913">
        <ele>366</ele>
        <time>2016-08-24T16:26:49.000Z</time>
      </trkpt>
      <trkpt lat="47.50627" lon="6.7392">
        <ele>361</ele>
        <time>2016-08-24T16:26:50.000Z</time>
      </trkpt>
      <trkpt lat="47.50624" lon="6.73927">
        <ele>362</ele>
        <time>2016-08-24T16:26:51.000Z</time>
      </trkpt>
      <trkpt lat="47.50621" lon="6.73934">
        <ele>362</ele>
        <time>2016-08-24T16:26:52.000Z</time>
      </trkpt>
      <trkpt lat="47.50618" lon="6.73939">
        <ele>362</ele>
        <time>2016-08-24T16:26:53.000Z</time>
      </trkpt>
      <trkpt lat="47.50613" lon="6.73945">
        <ele>362</ele>
        <time>2016-08-24T16:26:54.000Z</time>
      </trkpt>
      <trkpt lat="47.50609" lon="6.73954">
        <ele>362</ele>
        <time>2016-08-24T16:26:55.000Z</time>
      </trkpt>
      <trkpt lat="47.50605" lon="6.73961">
        <ele>362</ele>
        <time>2016-08-24T16:26:56.000Z</time>
      </trkpt>
      <trkpt lat="47.50601" lon="6.73968">
        <ele>361</ele>
        <time>2016-08-24T16:26:57.000Z</time>
      </trkpt>
      <trkpt lat="47.50598" lon="6.73976">
        <ele>361</ele>
        <time>2016-08-24T16:26:58.000Z</time>
      </trkpt>
      <trkpt lat="47.50594" lon="6.73982">
        <ele>362</ele>
        <time>2016-08-24T16:26:59.000Z</time>
      </trkpt>
      <trkpt lat="47.5059" lon="6.73989">
        <ele>362</ele>
        <time>2016-08-24T16:27:00.000Z</time>
      </trkpt>
      <trkpt lat="47.50587" lon="6.73999">
        <ele>363</ele>
        <time>2016-08-24T16:27:01.000Z</time>
      </trkpt>
      <trkpt lat="47.50583" lon="6.74007">
        <ele>364</ele>
        <time>2016-08-24T16:27:02.000Z</time>
      </trkpt>
      <trkpt lat="47.50578" lon="6.74013">
        <ele>365</ele>
        <time>2016-08-24T16:27:03.000Z</time>
      </trkpt>
      <trkpt lat="47.50575" lon="6.74019">
        <ele>366</ele>
        <time>2016-08-24T16:27:04.000Z</time>
      </trkpt>
      <trkpt lat="47.50572" lon="6.74026">
        <ele>366</ele>
        <time>2016-08-24T16:27:05.000Z</time>
      </trkpt>
      <trkpt lat="47.50572" lon="6.74036">
        <ele>366</ele>
        <time>2016-08-24T16:27:06.000Z</time>
      </trkpt>
      <trkpt lat="47.50569" lon="6.74043">
        <ele>366</ele>
        <time>2016-08-24T16:27:07.000Z</time>
      </trkpt>
      <trkpt lat="47.50567" lon="6.74049">
        <ele>366</ele>
        <time>2016-08-24T16:27:08.000Z</time>
      </trkpt>
      <trkpt lat="47.50563" lon="6.74054">
        <ele>365</ele>
        <time>2016-08-24T16:27:09.000Z</time>
      </trkpt>
      <trkpt lat="47.5056" lon="6.74062">
        <ele>365</ele>
        <time>2016-08-24T16:27:10.000Z</time>
      </trkpt>
      <trkpt lat="47.50557" lon="6.74068">
        <ele>365</ele>
        <time>2016-08-24T16:27:11.000Z</time>
      </trkpt>
      <trkpt lat="47.50554" lon="6.74073">
        <ele>365</ele>
        <time>2016-08-24T16:27:12.000Z</time>
      </trkpt>
      <trkpt lat="47.5055" lon="6.74079">
        <ele>366</ele>
        <time>2016-08-24T16:27:13.000Z</time>
      </trkpt>
      <trkpt lat="47.50548" lon="6.74088">
        <ele>362</ele>
        <time>2016-08-24T16:27:14.000Z</time>
      </trkpt>
      <trkpt lat="47.50544" lon="6.74096">
        <ele>363</ele>
        <time>2016-08-24T16:27:15.000Z</time>
      </trkpt>
      <trkpt lat="47.50541" lon="6.74103">
        <ele>363</ele>
        <time>2016-08-24T16:27:16.000Z</time>
      </trkpt>
      <trkpt lat="47.50539" lon="6.74109">
        <ele>363</ele>
        <time>2016-08-24T16:27:17.000Z</time>
      </trkpt>
      <trkpt lat="47.50536" lon="6.74114">
        <ele>363</ele>
        <time>2016-08-24T16:27:18.000Z</time>
      </trkpt>
      <trkpt lat="47.50532" lon="6.7412">
        <ele>364</ele>
        <time>2016-08-24T16:27:19.000Z</time>
      </trkpt>
      <trkpt lat="47.50528" lon="6.74125">
        <ele>364</ele>
        <time>2016-08-24T16:27:20.000Z</time>
      </trkpt>
      <trkpt lat="47.50524" lon="6.74129">
        <ele>364</ele>
        <time>2016-08-24T16:27:21.000Z</time>
      </trkpt>
      <trkpt lat="47.50522" lon="6.74134">
        <ele>364</ele>
        <time>2016-08-24T16:27:22.000Z</time>
      </trkpt>
      <trkpt lat="47.50519" lon="6.74138">
        <ele>365</ele>
        <time>2016-08-24T16:27:23.000Z</time>
      </trkpt>
      <trkpt lat="47.50517" lon="6.74142">
        <ele>365</ele>
        <time>2016-08-24T16:27:24.000Z</time>
      </trkpt>
      <trkpt lat="47.50512" lon="6.74148">
        <ele>366</ele>
        <time>2016-08-24T16:27:25.000Z</time>
      </trkpt>
      <trkpt lat="47.5051" lon="6.74153">
        <ele>367</ele>
        <time>2016-08-24T16:27:26.000Z</time>
      </trkpt>
      <trkpt lat="47.50508" lon="6.74158">
        <ele>368</ele>
        <time>2016-08-24T16:27:27.000Z</time>
      </trkpt>
      <trkpt lat="47.50507" lon="6.7416">
        <ele>368</ele>
        <time>2016-08-24T16:27:28.000Z</time>
      </trkpt>
      <trkpt lat="47.50504" lon="6.74165">
        <ele>369</ele>
        <time>2016-08-24T16:27:29.000Z</time>
      </trkpt>
      <trkpt lat="47.50503" lon="6.74169">
        <ele>370</ele>
        <time>2016-08-24T16:27:30.000Z</time>
      </trkpt>
      <trkpt lat="47.50501" lon="6.74172">
        <ele>369</ele>
        <time>2016-08-24T16:27:31.000Z</time>
      </trkpt>
      <trkpt lat="47.50499" lon="6.74175">
        <ele>372</ele>
        <time>2016-08-24T16:27:32.000Z</time>
      </trkpt>
      <trkpt lat="47.50497" lon="6.74178">
        <ele>372</ele>
        <time>2016-08-24T16:27:33.000Z</time>
      </trkpt>
      <trkpt lat="47.50495" lon="6.74183">
        <ele>373</ele>
        <time>2016-08-24T16:27:34.000Z</time>
      </trkpt>
      <trkpt lat="47.50493" lon="6.74187">
        <ele>373</ele>
        <time>2016-08-24T16:27:35.000Z</time>
      </trkpt>
      <trkpt lat="47.50486" lon="6.74207">
        <ele>373</ele>
        <time>2016-08-24T16:27:36.000Z</time>
      </trkpt>
      <trkpt lat="47.50482" lon="6.74214">
        <ele>373</ele>
        <time>2016-08-24T16:27:37.000Z</time>
      </trkpt>
      <trkpt lat="47.50479" lon="6.74219">
        <ele>373</ele>
        <time>2016-08-24T16:27:38.000Z</time>
      </trkpt>
      <trkpt lat="47.50473" lon="6.74224">
        <ele>374</ele>
        <time>2016-08-24T16:27:39.000Z</time>
      </trkpt>
      <trkpt lat="47.50468" lon="6.74231">
        <ele>374</ele>
        <time>2016-08-24T16:27:40.000Z</time>
      </trkpt>
      <trkpt lat="47.50465" lon="6.74238">
        <ele>374</ele>
        <time>2016-08-24T16:27:41.000Z</time>
      </trkpt>
      <trkpt lat="47.50461" lon="6.74244">
        <ele>374</ele>
        <time>2016-08-24T16:27:42.000Z</time>
      </trkpt>
      <trkpt lat="47.50458" lon="6.74252">
        <ele>371</ele>
        <time>2016-08-24T16:27:43.000Z</time>
      </trkpt>
      <trkpt lat="47.50453" lon="6.7426">
        <ele>371</ele>
        <time>2016-08-24T16:27:44.000Z</time>
      </trkpt>
      <trkpt lat="47.5045" lon="6.74267">
        <ele>372</ele>
        <time>2016-08-24T16:27:45.000Z</time>
      </trkpt>
      <trkpt lat="47.50447" lon="6.74276">
        <ele>371</ele>
        <time>2016-08-24T16:27:46.000Z</time>
      </trkpt>
      <trkpt lat="47.50444" lon="6.74285">
        <ele>371</ele>
        <time>2016-08-24T16:27:47.000Z</time>
      </trkpt>
      <trkpt lat="47.5044" lon="6.74291">
        <ele>371</ele>
        <time>2016-08-24T16:27:48.000Z</time>
      </trkpt>
      <trkpt lat="47.50438" lon="6.743">
        <ele>370</ele>
        <time>2016-08-24T16:27:49.000Z</time>
      </trkpt>
      <trkpt lat="47.50434" lon="6.74308">
        <ele>370</ele>
        <time>2016-08-24T16:27:50.000Z</time>
      </trkpt>
      <trkpt lat="47.50432" lon="6.74315">
        <ele>370</ele>
        <time>2016-08-24T16:27:51.000Z</time>
      </trkpt>
      <trkpt lat="47.50429" lon="6.7432">
        <ele>370</ele>
        <time>2016-08-24T16:27:52.000Z</time>
      </trkpt>
      <trkpt lat="47.50426" lon="6.74327">
        <ele>370</ele>
        <time>2016-08-24T16:27:53.000Z</time>
      </trkpt>
      <trkpt lat="47.50423" lon="6.74333">
        <ele>370</ele>
        <time>2016-08-24T16:27:54.000Z</time>
      </trkpt>
      <trkpt lat="47.50421" lon="6.74341">
        <ele>368</ele>
        <time>2016-08-24T16:27:55.000Z</time>
      </trkpt>
      <trkpt lat="47.50419" lon="6.7435">
        <ele>366</ele>
        <time>2016-08-24T16:27:56.000Z</time>
      </trkpt>
      <trkpt lat="47.50416" lon="6.74356">
        <ele>366</ele>
        <time>2016-08-24T16:27:57.000Z</time>
      </trkpt>
      <trkpt lat="47.50414" lon="6.74362">
        <ele>365</ele>
        <time>2016-08-24T16:27:58.000Z</time>
      </trkpt>
      <trkpt lat="47.50409" lon="6.74366">
        <ele>365</ele>
        <time>2016-08-24T16:27:59.000Z</time>
      </trkpt>
      <trkpt lat="47.50406" lon="6.74372">
        <ele>364</ele>
        <time>2016-08-24T16:28:00.000Z</time>
      </trkpt>
      <trkpt lat="47.50404" lon="6.74378">
        <ele>364</ele>
        <time>2016-08-24T16:28:01.000Z</time>
      </trkpt>
      <trkpt lat="47.50402" lon="6.74384">
        <ele>363</ele>
        <time>2016-08-24T16:28:02.000Z</time>
      </trkpt>
      <trkpt lat="47.50399" lon="6.74389">
        <ele>363</ele>
        <time>2016-08-24T16:28:03.000Z</time>
      </trkpt>
      <trkpt lat="47.50395" lon="6.74395">
        <ele>362</ele>
        <time>2016-08-24T16:28:04.000Z</time>
      </trkpt>
      <trkpt lat="47.50392" lon="6.74401">
        <ele>362</ele>
        <time>2016-08-24T16:28:05.000Z</time>
      </trkpt>
      <trkpt lat="47.50389" lon="6.74407">
        <ele>362</ele>
        <time>2016-08-24T16:28:06.000Z</time>
      </trkpt>
      <trkpt lat="47.50386" lon="6.74415">
        <ele>361</ele>
        <time>2016-08-24T16:28:07.000Z</time>
      </trkpt>
      <trkpt lat="47.50382" lon="6.74421">
        <ele>356</ele>
        <time>2016-08-24T16:28:08.000Z</time>
      </trkpt>
      <trkpt lat="47.50378" lon="6.7443">
        <ele>356</ele>
        <time>2016-08-24T16:28:09.000Z</time>
      </trkpt>
      <trkpt lat="47.50375" lon="6.74437">
        <ele>356</ele>
        <time>2016-08-24T16:28:10.000Z</time>
      </trkpt>
      <trkpt lat="47.50373" lon="6.74446">
        <ele>355</ele>
        <time>2016-08-24T16:28:11.000Z</time>
      </trkpt>
      <trkpt lat="47.50371" lon="6.74456">
        <ele>355</ele>
        <time>2016-08-24T16:28:12.000Z</time>
      </trkpt>
      <trkpt lat="47.50369" lon="6.74463">
        <ele>355</ele>
        <time>2016-08-24T16:28:13.000Z</time>
      </trkpt>
      <trkpt lat="47.50369" lon="6.74472">
        <ele>355</ele>
        <time>2016-08-24T16:28:14.000Z</time>
      </trkpt>
      <trkpt lat="47.50369" lon="6.7448">
        <ele>355</ele>
        <time>2016-08-24T16:28:15.000Z</time>
      </trkpt>
      <trkpt lat="47.50369" lon="6.74487">
        <ele>354</ele>
        <time>2016-08-24T16:28:16.000Z</time>
      </trkpt>
      <trkpt lat="47.50372" lon="6.74498">
        <ele>354</ele>
        <time>2016-08-24T16:28:17.000Z</time>
      </trkpt>
      <trkpt lat="47.50375" lon="6.74507">
        <ele>353</ele>
        <time>2016-08-24T16:28:18.000Z</time>
      </trkpt>
      <trkpt lat="47.50377" lon="6.74515">
        <ele>353</ele>
        <time>2016-08-24T16:28:19.000Z</time>
      </trkpt>
      <trkpt lat="47.5038" lon="6.74524">
        <ele>353</ele>
        <time>2016-08-24T16:28:20.000Z</time>
      </trkpt>
      <trkpt lat="47.50382" lon="6.74533">
        <ele>353</ele>
        <time>2016-08-24T16:28:21.000Z</time>
      </trkpt>
      <trkpt lat="47.50385" lon="6.74541">
        <ele>353</ele>
        <time>2016-08-24T16:28:22.000Z</time>
      </trkpt>
      <trkpt lat="47.50386" lon="6.74548">
        <ele>353</ele>
        <time>2016-08-24T16:28:23.000Z</time>
      </trkpt>
      <trkpt lat="47.50386" lon="6.74554">
        <ele>353</ele>
        <time>2016-08-24T16:28:24.000Z</time>
      </trkpt>
      <trkpt lat="47.50388" lon="6.7456">
        <ele>353</ele>
        <time>2016-08-24T16:28:25.000Z</time>
      </trkpt>
      <trkpt lat="47.50389" lon="6.74565">
        <ele>353</ele>
        <time>2016-08-24T16:28:26.000Z</time>
      </trkpt>
      <trkpt lat="47.5039" lon="6.74573">
        <ele>353</ele>
        <time>2016-08-24T16:28:27.000Z</time>
      </trkpt>
      <trkpt lat="47.50392" lon="6.74581">
        <ele>353</ele>
        <time>2016-08-24T16:28:28.000Z</time>
      </trkpt>
      <trkpt lat="47.50392" lon="6.7459">
        <ele>352</ele>
        <time>2016-08-24T16:28:29.000Z</time>
      </trkpt>
      <trkpt lat="47.50393" lon="6.74596">
        <ele>352</ele>
        <time>2016-08-24T16:28:30.000Z</time>
      </trkpt>
      <trkpt lat="47.50394" lon="6.74605">
        <ele>352</ele>
        <time>2016-08-24T16:28:31.000Z</time>
      </trkpt>
      <trkpt lat="47.50395" lon="6.74613">
        <ele>352</ele>
        <time>2016-08-24T16:28:32.000Z</time>
      </trkpt>
      <trkpt lat="47.50396" lon="6.7462">
        <ele>352</ele>
        <time>2016-08-24T16:28:33.000Z</time>
      </trkpt>
      <trkpt lat="47.50398" lon="6.74628">
        <ele>352</ele>
        <time>2016-08-24T16:28:34.000Z</time>
      </trkpt>
      <trkpt lat="47.50398" lon="6.74636">
        <ele>352</ele>
        <time>2016-08-24T16:28:35.000Z</time>
      </trkpt>
      <trkpt lat="47.50401" lon="6.74644">
        <ele>352</ele>
        <time>2016-08-24T16:28:36.000Z</time>
      </trkpt>
      <trkpt lat="47.50402" lon="6.74652">
        <ele>352</ele>
        <time>2016-08-24T16:28:37.000Z</time>
      </trkpt>
      <trkpt lat="47.50403" lon="6.74661">
        <ele>353</ele>
        <time>2016-08-24T16:28:38.000Z</time>
      </trkpt>
      <trkpt lat="47.50404" lon="6.74669">
        <ele>353</ele>
        <time>2016-08-24T16:28:39.000Z</time>
      </trkpt>
      <trkpt lat="47.50404" lon="6.74676">
        <ele>353</ele>
        <time>2016-08-24T16:28:40.000Z</time>
      </trkpt>
      <trkpt lat="47.50404" lon="6.74683">
        <ele>352</ele>
        <time>2016-08-24T16:28:41.000Z</time>
      </trkpt>
      <trkpt lat="47.50401" lon="6.74692">
        <ele>352</ele>
        <time>2016-08-24T16:28:42.000Z</time>
      </trkpt>
      <trkpt lat="47.50398" lon="6.747">
        <ele>352</ele>
        <time>2016-08-24T16:28:43.000Z</time>
      </trkpt>
      <trkpt lat="47.50395" lon="6.74708">
        <ele>351</ele>
        <time>2016-08-24T16:28:44.000Z</time>
      </trkpt>
      <trkpt lat="47.50392" lon="6.74716">
        <ele>351</ele>
        <time>2016-08-24T16:28:45.000Z</time>
      </trkpt>
      <trkpt lat="47.5039" lon="6.74724">
        <ele>351</ele>
        <time>2016-08-24T16:28:46.000Z</time>
      </trkpt>
      <trkpt lat="47.50387" lon="6.74734">
        <ele>351</ele>
        <time>2016-08-24T16:28:47.000Z</time>
      </trkpt>
      <trkpt lat="47.50385" lon="6.74742">
        <ele>351</ele>
        <time>2016-08-24T16:28:48.000Z</time>
      </trkpt>
      <trkpt lat="47.50383" lon="6.74751">
        <ele>351</ele>
        <time>2016-08-24T16:28:49.000Z</time>
      </trkpt>
      <trkpt lat="47.5038" lon="6.74758">
        <ele>350</ele>
        <time>2016-08-24T16:28:50.000Z</time>
      </trkpt>
      <trkpt lat="47.50377" lon="6.74766">
        <ele>350</ele>
        <time>2016-08-24T16:28:51.000Z</time>
      </trkpt>
      <trkpt lat="47.50374" lon="6.74775">
        <ele>350</ele>
        <time>2016-08-24T16:28:52.000Z</time>
      </trkpt>
      <trkpt lat="47.50372" lon="6.74784">
        <ele>350</ele>
        <time>2016-08-24T16:28:53.000Z</time>
      </trkpt>
      <trkpt lat="47.50369" lon="6.74792">
        <ele>350</ele>
        <time>2016-08-24T16:28:54.000Z</time>
      </trkpt>
      <trkpt lat="47.50367" lon="6.748">
        <ele>350</ele>
        <time>2016-08-24T16:28:55.000Z</time>
      </trkpt>
      <trkpt lat="47.50364" lon="6.7481">
        <ele>349</ele>
        <time>2016-08-24T16:28:56.000Z</time>
      </trkpt>
      <trkpt lat="47.50362" lon="6.74819">
        <ele>349</ele>
        <time>2016-08-24T16:28:57.000Z</time>
      </trkpt>
      <trkpt lat="47.5036" lon="6.74828">
        <ele>349</ele>
        <time>2016-08-24T16:28:58.000Z</time>
      </trkpt>
      <trkpt lat="47.50358" lon="6.74838">
        <ele>348</ele>
        <time>2016-08-24T16:28:59.000Z</time>
      </trkpt>
      <trkpt lat="47.50355" lon="6.74847">
        <ele>348</ele>
        <time>2016-08-24T16:29:00.000Z</time>
      </trkpt>
      <trkpt lat="47.50352" lon="6.74857">
        <ele>348</ele>
        <time>2016-08-24T16:29:01.000Z</time>
      </trkpt>
      <trkpt lat="47.50349" lon="6.74867">
        <ele>348</ele>
        <time>2016-08-24T16:29:02.000Z</time>
      </trkpt>
      <trkpt lat="47.50345" lon="6.74877">
        <ele>348</ele>
        <time>2016-08-24T16:29:03.000Z</time>
      </trkpt>
      <trkpt lat="47.50342" lon="6.74887">
        <ele>348</ele>
        <time>2016-08-24T16:29:04.000Z</time>
      </trkpt>
      <trkpt lat="47.50339" lon="6.74899">
        <ele>347</ele>
        <time>2016-08-24T16:29:05.000Z</time>
      </trkpt>
      <trkpt lat="47.50335" lon="6.74908">
        <ele>347</ele>
        <time>2016-08-24T16:29:06.000Z</time>
      </trkpt>
      <trkpt lat="47.50332" lon="6.74918">
        <ele>346</ele>
        <time>2016-08-24T16:29:07.000Z</time>
      </trkpt>
      <trkpt lat="47.50329" lon="6.74928">
        <ele>345</ele>
        <time>2016-08-24T16:29:08.000Z</time>
      </trkpt>
      <trkpt lat="47.50327" lon="6.74938">
        <ele>344</ele>
        <time>2016-08-24T16:29:09.000Z</time>
      </trkpt>
      <trkpt lat="47.50324" lon="6.74946">
        <ele>344</ele>
        <time>2016-08-24T16:29:10.000Z</time>
      </trkpt>
      <trkpt lat="47.50322" lon="6.74956">
        <ele>344</ele>
        <time>2016-08-24T16:29:11.000Z</time>
      </trkpt>
      <trkpt lat="47.50319" lon="6.74965">
        <ele>344</ele>
        <time>2016-08-24T16:29:12.000Z</time>
      </trkpt>
      <trkpt lat="47.50316" lon="6.74973">
        <ele>344</ele>
        <time>2016-08-24T16:29:13.000Z</time>
      </trkpt>
      <trkpt lat="47.50313" lon="6.7498">
        <ele>345</ele>
        <time>2016-08-24T16:29:14.000Z</time>
      </trkpt>
      <trkpt lat="47.50308" lon="6.74988">
        <ele>344</ele>
        <time>2016-08-24T16:29:15.000Z</time>
      </trkpt>
      <trkpt lat="47.50304" lon="6.74994">
        <ele>344</ele>
        <time>2016-08-24T16:29:16.000Z</time>
      </trkpt>
      <trkpt lat="47.50298" lon="6.74998">
        <ele>343</ele>
        <time>2016-08-24T16:29:17.000Z</time>
      </trkpt>
      <trkpt lat="47.50292" lon="6.75002">
        <ele>344</ele>
        <time>2016-08-24T16:29:18.000Z</time>
      </trkpt>
      <trkpt lat="47.50286" lon="6.75006">
        <ele>343</ele>
        <time>2016-08-24T16:29:19.000Z</time>
      </trkpt>
      <trkpt lat="47.5028" lon="6.75011">
        <ele>342</ele>
        <time>2016-08-24T16:29:20.000Z</time>
      </trkpt>
      <trkpt lat="47.50274" lon="6.75014">
        <ele>342</ele>
        <time>2016-08-24T16:29:21.000Z</time>
      </trkpt>
      <trkpt lat="47.50269" lon="6.7502">
        <ele>342</ele>
        <time>2016-08-24T16:29:22.000Z</time>
      </trkpt>
      <trkpt lat="47.50264" lon="6.75024">
        <ele>341</ele>
        <time>2016-08-24T16:29:23.000Z</time>
      </trkpt>
      <trkpt lat="47.50258" lon="6.75022">
        <ele>341</ele>
        <time>2016-08-24T16:29:24.000Z</time>
      </trkpt>
      <trkpt lat="47.50253" lon="6.75016">
        <ele>340</ele>
        <time>2016-08-24T16:29:25.000Z</time>
      </trkpt>
      <trkpt lat="47.50252" lon="6.75006">
        <ele>338</ele>
        <time>2016-08-24T16:29:26.000Z</time>
      </trkpt>
      <trkpt lat="47.50251" lon="6.74996">
        <ele>338</ele>
        <time>2016-08-24T16:29:27.000Z</time>
      </trkpt>
      <trkpt lat="47.50249" lon="6.74987">
        <ele>336</ele>
        <time>2016-08-24T16:29:28.000Z</time>
      </trkpt>
      <trkpt lat="47.50247" lon="6.7498">
        <ele>336</ele>
        <time>2016-08-24T16:29:29.000Z</time>
      </trkpt>
      <trkpt lat="47.50243" lon="6.74973">
        <ele>336</ele>
        <time>2016-08-24T16:29:30.000Z</time>
      </trkpt>
      <trkpt lat="47.50238" lon="6.74969">
        <ele>336</ele>
        <time>2016-08-24T16:29:31.000Z</time>
      </trkpt>
      <trkpt lat="47.50235" lon="6.74965">
        <ele>336</ele>
        <time>2016-08-24T16:29:32.000Z</time>
      </trkpt>
      <trkpt lat="47.50231" lon="6.74962">
        <ele>336</ele>
        <time>2016-08-24T16:29:33.000Z</time>
      </trkpt>
      <trkpt lat="47.50228" lon="6.7496">
        <ele>336</ele>
        <time>2016-08-24T16:29:34.000Z</time>
      </trkpt>
      <trkpt lat="47.50225" lon="6.7496">
        <ele>336</ele>
        <time>2016-08-24T16:29:35.000Z</time>
      </trkpt>
      <trkpt lat="47.5022" lon="6.74963">
        <ele>336</ele>
        <time>2016-08-24T16:29:36.000Z</time>
      </trkpt>
      <trkpt lat="47.50215" lon="6.74967">
        <ele>336</ele>
        <time>2016-08-24T16:29:37.000Z</time>
      </trkpt>
      <trkpt lat="47.5021" lon="6.74972">
        <ele>336</ele>
        <time>2016-08-24T16:29:38.000Z</time>
      </trkpt>
      <trkpt lat="47.50206" lon="6.74978">
        <ele>336</ele>
        <time>2016-08-24T16:29:39.000Z</time>
      </trkpt>
      <trkpt lat="47.50202" lon="6.74984">
        <ele>335</ele>
        <time>2016-08-24T16:29:40.000Z</time>
      </trkpt>
      <trkpt lat="47.502" lon="6.74992">
        <ele>335</ele>
        <time>2016-08-24T16:29:41.000Z</time>
      </trkpt>
      <trkpt lat="47.50198" lon="6.75001">
        <ele>334</ele>
        <time>2016-08-24T16:29:42.000Z</time>
      </trkpt>
      <trkpt lat="47.50196" lon="6.75009">
        <ele>334</ele>
        <time>2016-08-24T16:29:43.000Z</time>
      </trkpt>
      <trkpt lat="47.50195" lon="6.75019">
        <ele>334</ele>
        <time>2016-08-24T16:29:44.000Z</time>
      </trkpt>
      <trkpt lat="47.50194" lon="6.75029">
        <ele>333</ele>
        <time>2016-08-24T16:29:45.000Z</time>
      </trkpt>
      <trkpt lat="47.50193" lon="6.75039">
        <ele>333</ele>
        <time>2016-08-24T16:29:46.000Z</time>
      </trkpt>
      <trkpt lat="47.50192" lon="6.75049">
        <ele>333</ele>
        <time>2016-08-24T16:29:47.000Z</time>
      </trkpt>
      <trkpt lat="47.50191" lon="6.75061">
        <ele>332</ele>
        <time>2016-08-24T16:29:48.000Z</time>
      </trkpt>
      <trkpt lat="47.5019" lon="6.75072">
        <ele>332</ele>
        <time>2016-08-24T16:29:49.000Z</time>
      </trkpt>
      <trkpt lat="47.50188" lon="6.75083">
        <ele>331</ele>
        <time>2016-08-24T16:29:50.000Z</time>
      </trkpt>
      <trkpt lat="47.50186" lon="6.75094">
        <ele>329</ele>
        <time>2016-08-24T16:29:51.000Z</time>
      </trkpt>
      <trkpt lat="47.50185" lon="6.75104">
        <ele>329</ele>
        <time>2016-08-24T16:29:52.000Z</time>
      </trkpt>
      <trkpt lat="47.50182" lon="6.75114">
        <ele>329</ele>
        <time>2016-08-24T16:29:53.000Z</time>
      </trkpt>
      <trkpt lat="47.50175" lon="6.75121">
        <ele>328</ele>
        <time>2016-08-24T16:29:54.000Z</time>
      </trkpt>
      <trkpt lat="47.5017" lon="6.75128">
        <ele>328</ele>
        <time>2016-08-24T16:29:55.000Z</time>
      </trkpt>
      <trkpt lat="47.50162" lon="6.75133">
        <ele>326</ele>
        <time>2016-08-24T16:29:56.000Z</time>
      </trkpt>
      <trkpt lat="47.50157" lon="6.7514">
        <ele>326</ele>
        <time>2016-08-24T16:29:57.000Z</time>
      </trkpt>
      <trkpt lat="47.5015" lon="6.75145">
        <ele>326</ele>
        <time>2016-08-24T16:29:58.000Z</time>
      </trkpt>
      <trkpt lat="47.50143" lon="6.75149">
        <ele>326</ele>
        <time>2016-08-24T16:29:59.000Z</time>
      </trkpt>
      <trkpt lat="47.50135" lon="6.75155">
        <ele>326</ele>
        <time>2016-08-24T16:30:00.000Z</time>
      </trkpt>
      <trkpt lat="47.50128" lon="6.7516">
        <ele>326</ele>
        <time>2016-08-24T16:30:01.000Z</time>
      </trkpt>
      <trkpt lat="47.50123" lon="6.75166">
        <ele>326</ele>
        <time>2016-08-24T16:30:02.000Z</time>
      </trkpt>
      <trkpt lat="47.50116" lon="6.75171">
        <ele>323</ele>
        <time>2016-08-24T16:30:03.000Z</time>
      </trkpt>
      <trkpt lat="47.5011" lon="6.75176">
        <ele>323</ele>
        <time>2016-08-24T16:30:04.000Z</time>
      </trkpt>
      <trkpt lat="47.50103" lon="6.75181">
        <ele>323</ele>
        <time>2016-08-24T16:30:05.000Z</time>
      </trkpt>
      <trkpt lat="47.50097" lon="6.75185">
        <ele>323</ele>
        <time>2016-08-24T16:30:06.000Z</time>
      </trkpt>
      <trkpt lat="47.5009" lon="6.75188">
        <ele>323</ele>
        <time>2016-08-24T16:30:07.000Z</time>
      </trkpt>
      <trkpt lat="47.50083" lon="6.75191">
        <ele>323</ele>
        <time>2016-08-24T16:30:08.000Z</time>
      </trkpt>
      <trkpt lat="47.50076" lon="6.75194">
        <ele>323</ele>
        <time>2016-08-24T16:30:09.000Z</time>
      </trkpt>
      <trkpt lat="47.5007" lon="6.75195">
        <ele>323</ele>
        <time>2016-08-24T16:30:10.000Z</time>
      </trkpt>
      <trkpt lat="47.50062" lon="6.75197">
        <ele>323</ele>
        <time>2016-08-24T16:30:11.000Z</time>
      </trkpt>
      <trkpt lat="47.50055" lon="6.75198">
        <ele>322</ele>
        <time>2016-08-24T16:30:12.000Z</time>
      </trkpt>
      <trkpt lat="47.5005" lon="6.75198">
        <ele>322</ele>
        <time>2016-08-24T16:30:13.000Z</time>
      </trkpt>
      <trkpt lat="47.50044" lon="6.752">
        <ele>322</ele>
        <time>2016-08-24T16:30:14.000Z</time>
      </trkpt>
      <trkpt lat="47.50037" lon="6.75202">
        <ele>322</ele>
        <time>2016-08-24T16:30:15.000Z</time>
      </trkpt>
      <trkpt lat="47.50031" lon="6.75204">
        <ele>322</ele>
        <time>2016-08-24T16:30:16.000Z</time>
      </trkpt>
      <trkpt lat="47.50025" lon="6.75206">
        <ele>322</ele>
        <time>2016-08-24T16:30:17.000Z</time>
      </trkpt>
      <trkpt lat="47.50019" lon="6.75211">
        <ele>322</ele>
        <time>2016-08-24T16:30:18.000Z</time>
      </trkpt>
      <trkpt lat="47.50015" lon="6.7522">
        <ele>322</ele>
        <time>2016-08-24T16:30:19.000Z</time>
      </trkpt>
      <trkpt lat="47.50012" lon="6.75229">
        <ele>322</ele>
        <time>2016-08-24T16:30:20.000Z</time>
      </trkpt>
      <trkpt lat="47.50009" lon="6.75236">
        <ele>322</ele>
        <time>2016-08-24T16:30:21.000Z</time>
      </trkpt>
      <trkpt lat="47.50008" lon="6.75244">
        <ele>321</ele>
        <time>2016-08-24T16:30:22.000Z</time>
      </trkpt>
      <trkpt lat="47.50007" lon="6.75253">
        <ele>321</ele>
        <time>2016-08-24T16:30:23.000Z</time>
      </trkpt>
      <trkpt lat="47.50006" lon="6.7526">
        <ele>321</ele>
        <time>2016-08-24T16:30:24.000Z</time>
      </trkpt>
      <trkpt lat="47.50006" lon="6.75269">
        <ele>322</ele>
        <time>2016-08-24T16:30:25.000Z</time>
      </trkpt>
      <trkpt lat="47.50007" lon="6.75277">
        <ele>322</ele>
        <time>2016-08-24T16:30:26.000Z</time>
      </trkpt>
      <trkpt lat="47.50006" lon="6.75284">
        <ele>322</ele>
        <time>2016-08-24T16:30:27.000Z</time>
      </trkpt>
      <trkpt lat="47.50007" lon="6.75292">
        <ele>322</ele>
        <time>2016-08-24T16:30:28.000Z</time>
      </trkpt>
      <trkpt lat="47.50008" lon="6.753">
        <ele>322</ele>
        <time>2016-08-24T16:30:29.000Z</time>
      </trkpt>
      <trkpt lat="47.50009" lon="6.75308">
        <ele>322</ele>
        <time>2016-08-24T16:30:30.000Z</time>
      </trkpt>
      <trkpt lat="47.50009" lon="6.75316">
        <ele>323</ele>
        <time>2016-08-24T16:30:31.000Z</time>
      </trkpt>
      <trkpt lat="47.5001" lon="6.75324">
        <ele>323</ele>
        <time>2016-08-24T16:30:32.000Z</time>
      </trkpt>
      <trkpt lat="47.5001" lon="6.75331">
        <ele>323</ele>
        <time>2016-08-24T16:30:33.000Z</time>
      </trkpt>
      <trkpt lat="47.5001" lon="6.75338">
        <ele>325</ele>
        <time>2016-08-24T16:30:34.000Z</time>
      </trkpt>
      <trkpt lat="47.5001" lon="6.75346">
        <ele>326</ele>
        <time>2016-08-24T16:30:35.000Z</time>
      </trkpt>
      <trkpt lat="47.50009" lon="6.75353">
        <ele>326</ele>
        <time>2016-08-24T16:30:36.000Z</time>
      </trkpt>
      <trkpt lat="47.50009" lon="6.7536">
        <ele>327</ele>
        <time>2016-08-24T16:30:37.000Z</time>
      </trkpt>
      <trkpt lat="47.50009" lon="6.75365">
        <ele>327</ele>
        <time>2016-08-24T16:30:38.000Z</time>
      </trkpt>
      <trkpt lat="47.50007" lon="6.75372">
        <ele>328</ele>
        <time>2016-08-24T16:30:39.000Z</time>
      </trkpt>
      <trkpt lat="47.50006" lon="6.75378">
        <ele>328</ele>
        <time>2016-08-24T16:30:40.000Z</time>
      </trkpt>
      <trkpt lat="47.50004" lon="6.75381">
        <ele>329</ele>
        <time>2016-08-24T16:30:41.000Z</time>
      </trkpt>
      <trkpt lat="47.5" lon="6.75386">
        <ele>329</ele>
        <time>2016-08-24T16:30:42.000Z</time>
      </trkpt>
      <trkpt lat="47.49997" lon="6.75391">
        <ele>327</ele>
        <time>2016-08-24T16:30:43.000Z</time>
      </trkpt>
      <trkpt lat="47.49994" lon="6.75395">
        <ele>328</ele>
        <time>2016-08-24T16:30:44.000Z</time>
      </trkpt>
      <trkpt lat="47.49991" lon="6.75397">
        <ele>328</ele>
        <time>2016-08-24T16:30:45.000Z</time>
      </trkpt>
      <trkpt lat="47.49989" lon="6.75399">
        <ele>328</ele>
        <time>2016-08-24T16:30:46.000Z</time>
      </trkpt>
      <trkpt lat="47.49987" lon="6.75401">
        <ele>328</ele>
        <time>2016-08-24T16:30:47.000Z</time>
      </trkpt>
      <trkpt lat="47.49985" lon="6.75404">
        <ele>328</ele>
        <time>2016-08-24T16:30:48.000Z</time>
      </trkpt>
      <trkpt lat="47.49984" lon="6.75406">
        <ele>328</ele>
        <time>2016-08-24T16:30:49.000Z</time>
      </trkpt>
      <trkpt lat="47.49982" lon="6.75409">
        <ele>328</ele>
        <time>2016-08-24T16:30:50.000Z</time>
      </trkpt>
      <trkpt lat="47.49983" lon="6.75413">
        <ele>328</ele>
        <time>2016-08-24T16:30:51.000Z</time>
      </trkpt>
      <trkpt lat="47.49983" lon="6.75417">
        <ele>329</ele>
        <time>2016-08-24T16:30:52.000Z</time>
      </trkpt>
      <trkpt lat="47.49984" lon="6.7542">
        <ele>334</ele>
        <time>2016-08-24T16:30:53.000Z</time>
      </trkpt>
      <trkpt lat="47.49985" lon="6.75423">
        <ele>334</ele>
        <time>2016-08-24T16:30:54.000Z</time>
      </trkpt>
      <trkpt lat="47.49987" lon="6.75426">
        <ele>334</ele>
        <time>2016-08-24T16:30:55.000Z</time>
      </trkpt>
      <trkpt lat="47.49988" lon="6.75429">
        <ele>334</ele>
        <time>2016-08-24T16:30:56.000Z</time>
      </trkpt>
      <trkpt lat="47.4999" lon="6.75434">
        <ele>335</ele>
        <time>2016-08-24T16:30:58.000Z</time>
      </trkpt>
      <trkpt lat="47.4999" lon="6.75437">
        <ele>335</ele>
        <time>2016-08-24T16:30:59.000Z</time>
      </trkpt>
      <trkpt lat="47.49992" lon="6.75443">
        <ele>335</ele>
        <time>2016-08-24T16:31:01.000Z</time>
      </trkpt>
      <trkpt lat="47.49993" lon="6.75445">
        <ele>336</ele>
        <time>2016-08-24T16:31:02.000Z</time>
      </trkpt>
      <trkpt lat="47.49995" lon="6.75449">
        <ele>336</ele>
        <time>2016-08-24T16:31:03.000Z</time>
      </trkpt>
      <trkpt lat="47.49996" lon="6.75452">
        <ele>337</ele>
        <time>2016-08-24T16:31:04.000Z</time>
      </trkpt>
      <trkpt lat="47.49997" lon="6.75456">
        <ele>337</ele>
        <time>2016-08-24T16:31:05.000Z</time>
      </trkpt>
      <trkpt lat="47.49998" lon="6.75459">
        <ele>337</ele>
        <time>2016-08-24T16:31:06.000Z</time>
      </trkpt>
      <trkpt lat="47.5" lon="6.75465">
        <ele>339</ele>
        <time>2016-08-24T16:31:08.000Z</time>
      </trkpt>
      <trkpt lat="47.50001" lon="6.75468">
        <ele>339</ele>
        <time>2016-08-24T16:31:09.000Z</time>
      </trkpt>
      <trkpt lat="47.50002" lon="6.75471">
        <ele>339</ele>
        <time>2016-08-24T16:31:10.000Z</time>
      </trkpt>
      <trkpt lat="47.50003" lon="6.75474">
        <ele>340</ele>
        <time>2016-08-24T16:31:11.000Z</time>
      </trkpt>
      <trkpt lat="47.50004" lon="6.75477">
        <ele>340</ele>
        <time>2016-08-24T16:31:12.000Z</time>
      </trkpt>
      <trkpt lat="47.50006" lon="6.7548">
        <ele>340</ele>
        <time>2016-08-24T16:31:13.000Z</time>
      </trkpt>
      <trkpt lat="47.50006" lon="6.75483">
        <ele>341</ele>
        <time>2016-08-24T16:31:14.000Z</time>
      </trkpt>
      <trkpt lat="47.50007" lon="6.75486">
        <ele>341</ele>
        <time>2016-08-24T16:31:15.000Z</time>
      </trkpt>
      <trkpt lat="47.50009" lon="6.75493">
        <ele>342</ele>
        <time>2016-08-24T16:31:17.000Z</time>
      </trkpt>
      <trkpt lat="47.50009" lon="6.75496">
        <ele>342</ele>
        <time>2016-08-24T16:31:18.000Z</time>
      </trkpt>
      <trkpt lat="47.5001" lon="6.75501">
        <ele>344</ele>
        <time>2016-08-24T16:31:20.000Z</time>
      </trkpt>
      <trkpt lat="47.50011" lon="6.75504">
        <ele>344</ele>
        <time>2016-08-24T16:31:21.000Z</time>
      </trkpt>
      <trkpt lat="47.50013" lon="6.75509">
        <ele>345</ele>
        <time>2016-08-24T16:31:24.000Z</time>
      </trkpt>
      <trkpt lat="47.50013" lon="6.75512">
        <ele>345</ele>
        <time>2016-08-24T16:31:25.000Z</time>
      </trkpt>
      <trkpt lat="47.50014" lon="6.75516">
        <ele>345</ele>
        <time>2016-08-24T16:31:27.000Z</time>
      </trkpt>
      <trkpt lat="47.50014" lon="6.75519">
        <ele>345</ele>
        <time>2016-08-24T16:31:28.000Z</time>
      </trkpt>
      <trkpt lat="47.50014" lon="6.75525">
        <ele>345</ele>
        <time>2016-08-24T16:31:30.000Z</time>
      </trkpt>
      <trkpt lat="47.50015" lon="6.75529">
        <ele>345</ele>
        <time>2016-08-24T16:31:31.000Z</time>
      </trkpt>
      <trkpt lat="47.50016" lon="6.75533">
        <ele>346</ele>
        <time>2016-08-24T16:31:32.000Z</time>
      </trkpt>
      <trkpt lat="47.50016" lon="6.75537">
        <ele>346</ele>
        <time>2016-08-24T16:31:33.000Z</time>
      </trkpt>
      <trkpt lat="47.50017" lon="6.75541">
        <ele>346</ele>
        <time>2016-08-24T16:31:34.000Z</time>
      </trkpt>
      <trkpt lat="47.50018" lon="6.75545">
        <ele>346</ele>
        <time>2016-08-24T16:31:35.000Z</time>
      </trkpt>
      <trkpt lat="47.50019" lon="6.75551">
        <ele>347</ele>
        <time>2016-08-24T16:31:37.000Z</time>
      </trkpt>
      <trkpt lat="47.50019" lon="6.75553">
        <ele>347</ele>
        <time>2016-08-24T16:31:38.000Z</time>
      </trkpt>
      <trkpt lat="47.50021" lon="6.75559">
        <ele>347</ele>
        <time>2016-08-24T16:31:40.000Z</time>
      </trkpt>
      <trkpt lat="47.50022" lon="6.75561">
        <ele>347</ele>
        <time>2016-08-24T16:31:41.000Z</time>
      </trkpt>
      <trkpt lat="47.50024" lon="6.75566">
        <ele>347</ele>
        <time>2016-08-24T16:31:43.000Z</time>
      </trkpt>
      <trkpt lat="47.50024" lon="6.75568">
        <ele>347</ele>
        <time>2016-08-24T16:31:44.000Z</time>
      </trkpt>
      <trkpt lat="47.50026" lon="6.75573">
        <ele>348</ele>
        <time>2016-08-24T16:31:46.000Z</time>
      </trkpt>
      <trkpt lat="47.50027" lon="6.75576">
        <ele>348</ele>
        <time>2016-08-24T16:31:47.000Z</time>
      </trkpt>
      <trkpt lat="47.50029" lon="6.75581">
        <ele>348</ele>
        <time>2016-08-24T16:31:49.000Z</time>
      </trkpt>
      <trkpt lat="47.5003" lon="6.75584">
        <ele>353</ele>
        <time>2016-08-24T16:31:50.000Z</time>
      </trkpt>
      <trkpt lat="47.50032" lon="6.7559">
        <ele>353</ele>
        <time>2016-08-24T16:31:52.000Z</time>
      </trkpt>
      <trkpt lat="47.50033" lon="6.75592">
        <ele>353</ele>
        <time>2016-08-24T16:31:53.000Z</time>
      </trkpt>
      <trkpt lat="47.50035" lon="6.75597">
        <ele>353</ele>
        <time>2016-08-24T16:31:55.000Z</time>
      </trkpt>
      <trkpt lat="47.50036" lon="6.75599">
        <ele>353</ele>
        <time>2016-08-24T16:31:56.000Z</time>
      </trkpt>
      <trkpt lat="47.50038" lon="6.75604">
        <ele>353</ele>
        <time>2016-08-24T16:31:58.000Z</time>
      </trkpt>
      <trkpt lat="47.50039" lon="6.75606">
        <ele>353</ele>
        <time>2016-08-24T16:31:59.000Z</time>
      </trkpt>
      <trkpt lat="47.50041" lon="6.75611">
        <ele>353</ele>
        <time>2016-08-24T16:32:01.000Z</time>
      </trkpt>
      <trkpt lat="47.50042" lon="6.75613">
        <ele>353</ele>
        <time>2016-08-24T16:32:02.000Z</time>
      </trkpt>
      <trkpt lat="47.50043" lon="6.75616">
        <ele>353</ele>
        <time>2016-08-24T16:32:03.000Z</time>
      </trkpt>
      <trkpt lat="47.50044" lon="6.75619">
        <ele>353</ele>
        <time>2016-08-24T16:32:04.000Z</time>
      </trkpt>
      <trkpt lat="47.50045" lon="6.75622">
        <ele>354</ele>
        <time>2016-08-24T16:32:05.000Z</time>
      </trkpt>
      <trkpt lat="47.50045" lon="6.75626">
        <ele>354</ele>
        <time>2016-08-24T16:32:06.000Z</time>
      </trkpt>
      <trkpt lat="47.50046" lon="6.7563">
        <ele>354</ele>
        <time>2016-08-24T16:32:08.000Z</time>
      </trkpt>
      <trkpt lat="47.50047" lon="6.75632">
        <ele>354</ele>
        <time>2016-08-24T16:32:09.000Z</time>
      </trkpt>
      <trkpt lat="47.50049" lon="6.75636">
        <ele>354</ele>
        <time>2016-08-24T16:32:11.000Z</time>
      </trkpt>
      <trkpt lat="47.5005" lon="6.75638">
        <ele>354</ele>
        <time>2016-08-24T16:32:12.000Z</time>
      </trkpt>
      <trkpt lat="47.50052" lon="6.75643">
        <ele>354</ele>
        <time>2016-08-24T16:32:14.000Z</time>
      </trkpt>
      <trkpt lat="47.50053" lon="6.75646">
        <ele>354</ele>
        <time>2016-08-24T16:32:15.000Z</time>
      </trkpt>
      <trkpt lat="47.50054" lon="6.75652">
        <ele>355</ele>
        <time>2016-08-24T16:32:17.000Z</time>
      </trkpt>
      <trkpt lat="47.50054" lon="6.75655">
        <ele>355</ele>
        <time>2016-08-24T16:32:18.000Z</time>
      </trkpt>
      <trkpt lat="47.50056" lon="6.7566">
        <ele>355</ele>
        <time>2016-08-24T16:32:20.000Z</time>
      </trkpt>
      <trkpt lat="47.50057" lon="6.75663">
        <ele>355</ele>
        <time>2016-08-24T16:32:21.000Z</time>
      </trkpt>
      <trkpt lat="47.50059" lon="6.75668">
        <ele>361</ele>
        <time>2016-08-24T16:32:23.000Z</time>
      </trkpt>
      <trkpt lat="47.5006" lon="6.7567">
        <ele>361</ele>
        <time>2016-08-24T16:32:24.000Z</time>
      </trkpt>
      <trkpt lat="47.50062" lon="6.75675">
        <ele>361</ele>
        <time>2016-08-24T16:32:26.000Z</time>
      </trkpt>
      <trkpt lat="47.50063" lon="6.75678">
        <ele>361</ele>
        <time>2016-08-24T16:32:27.000Z</time>
      </trkpt>
      <trkpt lat="47.50065" lon="6.75681">
        <ele>361</ele>
        <time>2016-08-24T16:32:28.000Z</time>
      </trkpt>
      <trkpt lat="47.50067" lon="6.75683">
        <ele>361</ele>
        <time>2016-08-24T16:32:29.000Z</time>
      </trkpt>
      <trkpt lat="47.50069" lon="6.75686">
        <ele>361</ele>
        <time>2016-08-24T16:32:30.000Z</time>
      </trkpt>
      <trkpt lat="47.50071" lon="6.75687">
        <ele>361</ele>
        <time>2016-08-24T16:32:31.000Z</time>
      </trkpt>
      <trkpt lat="47.50073" lon="6.75689">
        <ele>361</ele>
        <time>2016-08-24T16:32:32.000Z</time>
      </trkpt>
      <trkpt lat="47.50075" lon="6.75691">
        <ele>361</ele>
        <time>2016-08-24T16:32:33.000Z</time>
      </trkpt>
      <trkpt lat="47.50078" lon="6.75695">
        <ele>362</ele>
        <time>2016-08-24T16:32:35.000Z</time>
      </trkpt>
      <trkpt lat="47.50079" lon="6.75697">
        <ele>362</ele>
        <time>2016-08-24T16:32:36.000Z</time>
      </trkpt>
      <trkpt lat="47.50081" lon="6.75701">
        <ele>363</ele>
        <time>2016-08-24T16:32:38.000Z</time>
      </trkpt>
      <trkpt lat="47.50083" lon="6.75703">
        <ele>363</ele>
        <time>2016-08-24T16:32:39.000Z</time>
      </trkpt>
      <trkpt lat="47.50086" lon="6.75704">
        <ele>359</ele>
        <time>2016-08-24T16:32:41.000Z</time>
      </trkpt>
      <trkpt lat="47.50088" lon="6.75706">
        <ele>359</ele>
        <time>2016-08-24T16:32:42.000Z</time>
      </trkpt>
      <trkpt lat="47.50089" lon="6.75708">
        <ele>359</ele>
        <time>2016-08-24T16:32:43.000Z</time>
      </trkpt>
      <trkpt lat="47.50091" lon="6.75711">
        <ele>360</ele>
        <time>2016-08-24T16:32:44.000Z</time>
      </trkpt>
      <trkpt lat="47.50094" lon="6.75714">
        <ele>360</ele>
        <time>2016-08-24T16:32:45.000Z</time>
      </trkpt>
      <trkpt lat="47.50096" lon="6.75717">
        <ele>360</ele>
        <time>2016-08-24T16:32:46.000Z</time>
      </trkpt>
      <trkpt lat="47.50099" lon="6.7572">
        <ele>361</ele>
        <time>2016-08-24T16:32:47.000Z</time>
      </trkpt>
      <trkpt lat="47.50101" lon="6.75724">
        <ele>361</ele>
        <time>2016-08-24T16:32:48.000Z</time>
      </trkpt>
      <trkpt lat="47.50103" lon="6.75726">
        <ele>361</ele>
        <time>2016-08-24T16:32:49.000Z</time>
      </trkpt>
      <trkpt lat="47.50106" lon="6.75729">
        <ele>361</ele>
        <time>2016-08-24T16:32:50.000Z</time>
      </trkpt>
      <trkpt lat="47.50108" lon="6.75731">
        <ele>361</ele>
        <time>2016-08-24T16:32:51.000Z</time>
      </trkpt>
      <trkpt lat="47.5011" lon="6.75733">
        <ele>361</ele>
        <time>2016-08-24T16:32:52.000Z</time>
      </trkpt>
      <trkpt lat="47.50112" lon="6.75735">
        <ele>361</ele>
        <time>2016-08-24T16:32:53.000Z</time>
      </trkpt>
      <trkpt lat="47.50114" lon="6.75737">
        <ele>361</ele>
        <time>2016-08-24T16:32:54.000Z</time>
      </trkpt>
      <trkpt lat="47.50116" lon="6.7574">
        <ele>361</ele>
        <time>2016-08-24T16:32:55.000Z</time>
      </trkpt>
      <trkpt lat="47.50118" lon="6.75743">
        <ele>361</ele>
        <time>2016-08-24T16:32:56.000Z</time>
      </trkpt>
      <trkpt lat="47.50119" lon="6.75746">
        <ele>361</ele>
        <time>2016-08-24T16:32:57.000Z</time>
      </trkpt>
      <trkpt lat="47.50121" lon="6.75749">
        <ele>361</ele>
        <time>2016-08-24T16:32:58.000Z</time>
      </trkpt>
      <trkpt lat="47.50122" lon="6.75753">
        <ele>364</ele>
        <time>2016-08-24T16:32:59.000Z</time>
      </trkpt>
      <trkpt lat="47.50122" lon="6.75756">
        <ele>364</ele>
        <time>2016-08-24T16:33:00.000Z</time>
      </trkpt>
      <trkpt lat="47.50122" lon="6.75761">
        <ele>364</ele>
        <time>2016-08-24T16:33:02.000Z</time>
      </trkpt>
      <trkpt lat="47.50122" lon="6.75763">
        <ele>364</ele>
        <time>2016-08-24T16:33:03.000Z</time>
      </trkpt>
      <trkpt lat="47.50124" lon="6.75767">
        <ele>364</ele>
        <time>2016-08-24T16:33:05.000Z</time>
      </trkpt>
      <trkpt lat="47.50126" lon="6.75769">
        <ele>364</ele>
        <time>2016-08-24T16:33:06.000Z</time>
      </trkpt>
      <trkpt lat="47.50128" lon="6.75772">
        <ele>364</ele>
        <time>2016-08-24T16:33:07.000Z</time>
      </trkpt>
      <trkpt lat="47.50131" lon="6.75775">
        <ele>364</ele>
        <time>2016-08-24T16:33:08.000Z</time>
      </trkpt>
      <trkpt lat="47.50133" lon="6.75778">
        <ele>363</ele>
        <time>2016-08-24T16:33:09.000Z</time>
      </trkpt>
      <trkpt lat="47.50135" lon="6.75781">
        <ele>363</ele>
        <time>2016-08-24T16:33:10.000Z</time>
      </trkpt>
      <trkpt lat="47.50136" lon="6.75784">
        <ele>363</ele>
        <time>2016-08-24T16:33:11.000Z</time>
      </trkpt>
      <trkpt lat="47.50138" lon="6.75787">
        <ele>363</ele>
        <time>2016-08-24T16:33:12.000Z</time>
      </trkpt>
      <trkpt lat="47.5014" lon="6.7579">
        <ele>363</ele>
        <time>2016-08-24T16:33:13.000Z</time>
      </trkpt>
      <trkpt lat="47.50142" lon="6.75793">
        <ele>363</ele>
        <time>2016-08-24T16:33:14.000Z</time>
      </trkpt>
      <trkpt lat="47.50144" lon="6.75797">
        <ele>363</ele>
        <time>2016-08-24T16:33:15.000Z</time>
      </trkpt>
      <trkpt lat="47.50146" lon="6.758">
        <ele>363</ele>
        <time>2016-08-24T16:33:16.000Z</time>
      </trkpt>
      <trkpt lat="47.50147" lon="6.75803">
        <ele>363</ele>
        <time>2016-08-24T16:33:17.000Z</time>
      </trkpt>
      <trkpt lat="47.50149" lon="6.75806">
        <ele>363</ele>
        <time>2016-08-24T16:33:18.000Z</time>
      </trkpt>
      <trkpt lat="47.50151" lon="6.75812">
        <ele>362</ele>
        <time>2016-08-24T16:33:20.000Z</time>
      </trkpt>
      <trkpt lat="47.50152" lon="6.75814">
        <ele>362</ele>
        <time>2016-08-24T16:33:21.000Z</time>
      </trkpt>
      <trkpt lat="47.50153" lon="6.7582">
        <ele>362</ele>
        <time>2016-08-24T16:33:23.000Z</time>
      </trkpt>
      <trkpt lat="47.50154" lon="6.75823">
        <ele>362</ele>
        <time>2016-08-24T16:33:24.000Z</time>
      </trkpt>
      <trkpt lat="47.50156" lon="6.75828">
        <ele>361</ele>
        <time>2016-08-24T16:33:26.000Z</time>
      </trkpt>
      <trkpt lat="47.50157" lon="6.75831">
        <ele>361</ele>
        <time>2016-08-24T16:33:27.000Z</time>
      </trkpt>
      <trkpt lat="47.50159" lon="6.75836">
        <ele>361</ele>
        <time>2016-08-24T16:33:29.000Z</time>
      </trkpt>
      <trkpt lat="47.5016" lon="6.75839">
        <ele>362</ele>
        <time>2016-08-24T16:33:30.000Z</time>
      </trkpt>
      <trkpt lat="47.50162" lon="6.75844">
        <ele>362</ele>
        <time>2016-08-24T16:33:32.000Z</time>
      </trkpt>
      <trkpt lat="47.50162" lon="6.75847">
        <ele>363</ele>
        <time>2016-08-24T16:33:33.000Z</time>
      </trkpt>
      <trkpt lat="47.50164" lon="6.75852">
        <ele>363</ele>
        <time>2016-08-24T16:33:35.000Z</time>
      </trkpt>
      <trkpt lat="47.50165" lon="6.75854">
        <ele>363</ele>
        <time>2016-08-24T16:33:36.000Z</time>
      </trkpt>
      <trkpt lat="47.50168" lon="6.75857">
        <ele>363</ele>
        <time>2016-08-24T16:33:38.000Z</time>
      </trkpt>
      <trkpt lat="47.50169" lon="6.7586">
        <ele>363</ele>
        <time>2016-08-24T16:33:39.000Z</time>
      </trkpt>
      <trkpt lat="47.50171" lon="6.75865">
        <ele>363</ele>
        <time>2016-08-24T16:33:41.000Z</time>
      </trkpt>
      <trkpt lat="47.50172" lon="6.75868">
        <ele>363</ele>
        <time>2016-08-24T16:33:42.000Z</time>
      </trkpt>
      <trkpt lat="47.50175" lon="6.75872">
        <ele>364</ele>
        <time>2016-08-24T16:33:44.000Z</time>
      </trkpt>
      <trkpt lat="47.50177" lon="6.75874">
        <ele>364</ele>
        <time>2016-08-24T16:33:45.000Z</time>
      </trkpt>
      <trkpt lat="47.50179" lon="6.75877">
        <ele>364</ele>
        <time>2016-08-24T16:33:47.000Z</time>
      </trkpt>
      <trkpt lat="47.50179" lon="6.75879">
        <ele>364</ele>
        <time>2016-08-24T16:33:48.000Z</time>
      </trkpt>
      <trkpt lat="47.50182" lon="6.75884">
        <ele>364</ele>
        <time>2016-08-24T16:33:50.000Z</time>
      </trkpt>
      <trkpt lat="47.50183" lon="6.75886">
        <ele>364</ele>
        <time>2016-08-24T16:33:51.000Z</time>
      </trkpt>
      <trkpt lat="47.50185" lon="6.75891">
        <ele>364</ele>
        <time>2016-08-24T16:33:53.000Z</time>
      </trkpt>
      <trkpt lat="47.50186" lon="6.75893">
        <ele>364</ele>
        <time>2016-08-24T16:33:54.000Z</time>
      </trkpt>
      <trkpt lat="47.50188" lon="6.75899">
        <ele>364</ele>
        <time>2016-08-24T16:33:56.000Z</time>
      </trkpt>
      <trkpt lat="47.50189" lon="6.75902">
        <ele>364</ele>
        <time>2016-08-24T16:33:57.000Z</time>
      </trkpt>
      <trkpt lat="47.50191" lon="6.75908">
        <ele>364</ele>
        <time>2016-08-24T16:33:59.000Z</time>
      </trkpt>
      <trkpt lat="47.50192" lon="6.75911">
        <ele>365</ele>
        <time>2016-08-24T16:34:00.000Z</time>
      </trkpt>
      <trkpt lat="47.50193" lon="6.75917">
        <ele>365</ele>
        <time>2016-08-24T16:34:02.000Z</time>
      </trkpt>
      <trkpt lat="47.50194" lon="6.75919">
        <ele>366</ele>
        <time>2016-08-24T16:34:03.000Z</time>
      </trkpt>
      <trkpt lat="47.50196" lon="6.75924">
        <ele>366</ele>
        <time>2016-08-24T16:34:05.000Z</time>
      </trkpt>
      <trkpt lat="47.50197" lon="6.75926">
        <ele>367</ele>
        <time>2016-08-24T16:34:06.000Z</time>
      </trkpt>
      <trkpt lat="47.502" lon="6.7593">
        <ele>367</ele>
        <time>2016-08-24T16:34:08.000Z</time>
      </trkpt>
      <trkpt lat="47.50201" lon="6.75932">
        <ele>367</ele>
        <time>2016-08-24T16:34:09.000Z</time>
      </trkpt>
      <trkpt lat="47.50202" lon="6.75934">
        <ele>367</ele>
        <time>2016-08-24T16:34:10.000Z</time>
      </trkpt>
      <trkpt lat="47.50204" lon="6.75937">
        <ele>367</ele>
        <time>2016-08-24T16:34:11.000Z</time>
      </trkpt>
      <trkpt lat="47.50205" lon="6.7594">
        <ele>367</ele>
        <time>2016-08-24T16:34:12.000Z</time>
      </trkpt>
      <trkpt lat="47.50207" lon="6.75943">
        <ele>367</ele>
        <time>2016-08-24T16:34:13.000Z</time>
      </trkpt>
      <trkpt lat="47.50209" lon="6.75948">
        <ele>367</ele>
        <time>2016-08-24T16:34:15.000Z</time>
      </trkpt>
      <trkpt lat="47.5021" lon="6.75951">
        <ele>368</ele>
        <time>2016-08-24T16:34:16.000Z</time>
      </trkpt>
      <trkpt lat="47.50213" lon="6.75955">
        <ele>368</ele>
        <time>2016-08-24T16:34:18.000Z</time>
      </trkpt>
      <trkpt lat="47.50214" lon="6.75958">
        <ele>368</ele>
        <time>2016-08-24T16:34:19.000Z</time>
      </trkpt>
      <trkpt lat="47.50216" lon="6.75962">
        <ele>368</ele>
        <time>2016-08-24T16:34:21.000Z</time>
      </trkpt>
      <trkpt lat="47.50217" lon="6.75964">
        <ele>368</ele>
        <time>2016-08-24T16:34:22.000Z</time>
      </trkpt>
      <trkpt lat="47.50218" lon="6.75969">
        <ele>368</ele>
        <time>2016-08-24T16:34:24.000Z</time>
      </trkpt>
      <trkpt lat="47.50219" lon="6.75972">
        <ele>368</ele>
        <time>2016-08-24T16:34:25.000Z</time>
      </trkpt>
      <trkpt lat="47.50221" lon="6.75977">
        <ele>368</ele>
        <time>2016-08-24T16:34:27.000Z</time>
      </trkpt>
      <trkpt lat="47.50222" lon="6.75978">
        <ele>368</ele>
        <time>2016-08-24T16:34:28.000Z</time>
      </trkpt>
      <trkpt lat="47.50224" lon="6.75982">
        <ele>368</ele>
        <time>2016-08-24T16:34:30.000Z</time>
      </trkpt>
      <trkpt lat="47.50225" lon="6.75984">
        <ele>368</ele>
        <time>2016-08-24T16:34:31.000Z</time>
      </trkpt>
      <trkpt lat="47.50223" lon="6.75989">
        <ele>368</ele>
        <time>2016-08-24T16:34:34.000Z</time>
      </trkpt>
      <trkpt lat="47.50221" lon="6.7599">
        <ele>368</ele>
        <time>2016-08-24T16:34:35.000Z</time>
      </trkpt>
      <trkpt lat="47.50217" lon="6.75991">
        <ele>368</ele>
        <time>2016-08-24T16:34:39.000Z</time>
      </trkpt>
      <trkpt lat="47.50216" lon="6.75991">
        <ele>368</ele>
        <time>2016-08-24T16:34:40.000Z</time>
      </trkpt>
      <trkpt lat="47.50213" lon="6.75993">
        <ele>368</ele>
        <time>2016-08-24T16:34:44.000Z</time>
      </trkpt>
      <trkpt lat="47.50212" lon="6.75993">
        <ele>368</ele>
        <time>2016-08-24T16:34:45.000Z</time>
      </trkpt>
      <trkpt lat="47.50208" lon="6.75994">
        <ele>369</ele>
        <time>2016-08-24T16:34:52.000Z</time>
      </trkpt>
      <trkpt lat="47.50207" lon="6.75994">
        <ele>369</ele>
        <time>2016-08-24T16:34:53.000Z</time>
      </trkpt>
      <trkpt lat="47.50203" lon="6.75991">
        <ele>369</ele>
        <time>2016-08-24T16:34:58.000Z</time>
      </trkpt>
      <trkpt lat="47.50203" lon="6.75991">
        <ele>369</ele>
        <time>2016-08-24T16:34:59.000Z</time>
      </trkpt>
      <trkpt lat="47.50199" lon="6.75991">
        <ele>369</ele>
        <time>2016-08-24T16:35:04.000Z</time>
      </trkpt>
      <trkpt lat="47.50198" lon="6.75992">
        <ele>369</ele>
        <time>2016-08-24T16:35:05.000Z</time>
      </trkpt>
      <trkpt lat="47.50194" lon="6.75993">
        <ele>369</ele>
        <time>2016-08-24T16:35:08.000Z</time>
      </trkpt>
      <trkpt lat="47.50193" lon="6.75993">
        <ele>369</ele>
        <time>2016-08-24T16:35:09.000Z</time>
      </trkpt>
      <trkpt lat="47.50188" lon="6.75993">
        <ele>369</ele>
        <time>2016-08-24T16:35:12.000Z</time>
      </trkpt>
      <trkpt lat="47.50187" lon="6.75993">
        <ele>369</ele>
        <time>2016-08-24T16:35:13.000Z</time>
      </trkpt>
      <trkpt lat="47.50183" lon="6.75993">
        <ele>369</ele>
        <time>2016-08-24T16:35:17.000Z</time>
      </trkpt>
      <trkpt lat="47.50183" lon="6.75993">
        <ele>369</ele>
        <time>2016-08-24T16:35:18.000Z</time>
      </trkpt>
      <trkpt lat="47.50179" lon="6.75993">
        <ele>370</ele>
        <time>2016-08-24T16:35:22.000Z</time>
      </trkpt>
      <trkpt lat="47.50178" lon="6.75994">
        <ele>370</ele>
        <time>2016-08-24T16:35:23.000Z</time>
      </trkpt>
      <trkpt lat="47.50174" lon="6.75994">
        <ele>370</ele>
        <time>2016-08-24T16:35:26.000Z</time>
      </trkpt>
      <trkpt lat="47.50173" lon="6.75994">
        <ele>370</ele>
        <time>2016-08-24T16:35:27.000Z</time>
      </trkpt>
      <trkpt lat="47.50169" lon="6.75996">
        <ele>370</ele>
        <time>2016-08-24T16:35:31.000Z</time>
      </trkpt>
      <trkpt lat="47.50168" lon="6.75997">
        <ele>371</ele>
        <time>2016-08-24T16:35:32.000Z</time>
      </trkpt>
      <trkpt lat="47.50164" lon="6.75997">
        <ele>371</ele>
        <time>2016-08-24T16:35:36.000Z</time>
      </trkpt>
      <trkpt lat="47.50163" lon="6.75997">
        <ele>371</ele>
        <time>2016-08-24T16:35:37.000Z</time>
      </trkpt>
      <trkpt lat="47.50159" lon="6.75998">
        <ele>371</ele>
        <time>2016-08-24T16:35:40.000Z</time>
      </trkpt>
      <trkpt lat="47.50158" lon="6.75999">
        <ele>371</ele>
        <time>2016-08-24T16:35:41.000Z</time>
      </trkpt>
      <trkpt lat="47.50154" lon="6.76001">
        <ele>374</ele>
        <time>2016-08-24T16:35:44.000Z</time>
      </trkpt>
      <trkpt lat="47.50153" lon="6.76001">
        <ele>374</ele>
        <time>2016-08-24T16:35:45.000Z</time>
      </trkpt>
      <trkpt lat="47.5015" lon="6.76002">
        <ele>375</ele>
        <time>2016-08-24T16:35:48.000Z</time>
      </trkpt>
      <trkpt lat="47.50148" lon="6.76002">
        <ele>375</ele>
        <time>2016-08-24T16:35:49.000Z</time>
      </trkpt>
      <trkpt lat="47.50145" lon="6.76004">
        <ele>375</ele>
        <time>2016-08-24T16:35:51.000Z</time>
      </trkpt>
      <trkpt lat="47.50144" lon="6.76005">
        <ele>375</ele>
        <time>2016-08-24T16:35:52.000Z</time>
      </trkpt>
      <trkpt lat="47.5014" lon="6.76005">
        <ele>376</ele>
        <time>2016-08-24T16:35:55.000Z</time>
      </trkpt>
      <trkpt lat="47.50139" lon="6.76005">
        <ele>376</ele>
        <time>2016-08-24T16:35:56.000Z</time>
      </trkpt>
      <trkpt lat="47.50136" lon="6.76009">
        <ele>376</ele>
        <time>2016-08-24T16:36:03.000Z</time>
      </trkpt>
      <trkpt lat="47.50135" lon="6.76009">
        <ele>377</ele>
        <time>2016-08-24T16:36:04.000Z</time>
      </trkpt>
      <trkpt lat="47.50132" lon="6.7601">
        <ele>377</ele>
        <time>2016-08-24T16:36:06.000Z</time>
      </trkpt>
      <trkpt lat="47.50131" lon="6.7601">
        <ele>377</ele>
        <time>2016-08-24T16:36:07.000Z</time>
      </trkpt>
      <trkpt lat="47.50127" lon="6.76012">
        <ele>377</ele>
        <time>2016-08-24T16:36:11.000Z</time>
      </trkpt>
      <trkpt lat="47.50126" lon="6.76012">
        <ele>377</ele>
        <time>2016-08-24T16:36:12.000Z</time>
      </trkpt>
      <trkpt lat="47.50122" lon="6.76013">
        <ele>378</ele>
        <time>2016-08-24T16:36:16.000Z</time>
      </trkpt>
      <trkpt lat="47.5012" lon="6.76015">
        <ele>378</ele>
        <time>2016-08-24T16:36:17.000Z</time>
      </trkpt>
      <trkpt lat="47.50118" lon="6.76018">
        <ele>378</ele>
        <time>2016-08-24T16:36:18.000Z</time>
      </trkpt>
      <trkpt lat="47.50117" lon="6.76021">
        <ele>378</ele>
        <time>2016-08-24T16:36:19.000Z</time>
      </trkpt>
      <trkpt lat="47.50117" lon="6.76026">
        <ele>379</ele>
        <time>2016-08-24T16:36:21.000Z</time>
      </trkpt>
      <trkpt lat="47.50116" lon="6.76029">
        <ele>379</ele>
        <time>2016-08-24T16:36:22.000Z</time>
      </trkpt>
      <trkpt lat="47.50115" lon="6.76033">
        <ele>379</ele>
        <time>2016-08-24T16:36:24.000Z</time>
      </trkpt>
      <trkpt lat="47.50114" lon="6.76035">
        <ele>379</ele>
        <time>2016-08-24T16:36:25.000Z</time>
      </trkpt>
      <trkpt lat="47.50112" lon="6.7604">
        <ele>379</ele>
        <time>2016-08-24T16:36:27.000Z</time>
      </trkpt>
      <trkpt lat="47.50111" lon="6.76043">
        <ele>380</ele>
        <time>2016-08-24T16:36:28.000Z</time>
      </trkpt>
      <trkpt lat="47.5011" lon="6.76048">
        <ele>380</ele>
        <time>2016-08-24T16:36:30.000Z</time>
      </trkpt>
      <trkpt lat="47.5011" lon="6.76052">
        <ele>380</ele>
        <time>2016-08-24T16:36:31.000Z</time>
      </trkpt>
      <trkpt lat="47.50109" lon="6.76055">
        <ele>380</ele>
        <time>2016-08-24T16:36:32.000Z</time>
      </trkpt>
      <trkpt lat="47.50109" lon="6.76058">
        <ele>381</ele>
        <time>2016-08-24T16:36:33.000Z</time>
      </trkpt>
      <trkpt lat="47.50109" lon="6.76062">
        <ele>381</ele>
        <time>2016-08-24T16:36:34.000Z</time>
      </trkpt>
      <trkpt lat="47.50109" lon="6.76065">
        <ele>381</ele>
        <time>2016-08-24T16:36:35.000Z</time>
      </trkpt>
      <trkpt lat="47.50109" lon="6.76069">
        <ele>381</ele>
        <time>2016-08-24T16:36:36.000Z</time>
      </trkpt>
      <trkpt lat="47.50108" lon="6.76073">
        <ele>382</ele>
        <time>2016-08-24T16:36:37.000Z</time>
      </trkpt>
      <trkpt lat="47.50108" lon="6.76077">
        <ele>382</ele>
        <time>2016-08-24T16:36:38.000Z</time>
      </trkpt>
      <trkpt lat="47.50107" lon="6.76082">
        <ele>382</ele>
        <time>2016-08-24T16:36:39.000Z</time>
      </trkpt>
      <trkpt lat="47.50107" lon="6.76086">
        <ele>385</ele>
        <time>2016-08-24T16:36:40.000Z</time>
      </trkpt>
      <trkpt lat="47.50107" lon="6.7609">
        <ele>385</ele>
        <time>2016-08-24T16:36:41.000Z</time>
      </trkpt>
      <trkpt lat="47.50107" lon="6.76096">
        <ele>385</ele>
        <time>2016-08-24T16:36:43.000Z</time>
      </trkpt>
      <trkpt lat="47.50108" lon="6.76099">
        <ele>385</ele>
        <time>2016-08-24T16:36:44.000Z</time>
      </trkpt>
      <trkpt lat="47.50108" lon="6.76104">
        <ele>385</ele>
        <time>2016-08-24T16:36:46.000Z</time>
      </trkpt>
      <trkpt lat="47.50107" lon="6.76107">
        <ele>385</ele>
        <time>2016-08-24T16:36:47.000Z</time>
      </trkpt>
      <trkpt lat="47.50108" lon="6.76112">
        <ele>385</ele>
        <time>2016-08-24T16:36:49.000Z</time>
      </trkpt>
      <trkpt lat="47.50108" lon="6.76115">
        <ele>385</ele>
        <time>2016-08-24T16:36:50.000Z</time>
      </trkpt>
      <trkpt lat="47.50109" lon="6.76118">
        <ele>385</ele>
        <time>2016-08-24T16:36:51.000Z</time>
      </trkpt>
      <trkpt lat="47.5011" lon="6.76122">
        <ele>385</ele>
        <time>2016-08-24T16:36:52.000Z</time>
      </trkpt>
      <trkpt lat="47.5011" lon="6.76126">
        <ele>386</ele>
        <time>2016-08-24T16:36:53.000Z</time>
      </trkpt>
      <trkpt lat="47.5011" lon="6.7613">
        <ele>386</ele>
        <time>2016-08-24T16:36:54.000Z</time>
      </trkpt>
      <trkpt lat="47.50111" lon="6.76134">
        <ele>386</ele>
        <time>2016-08-24T16:36:55.000Z</time>
      </trkpt>
      <trkpt lat="47.50111" lon="6.76139">
        <ele>386</ele>
        <time>2016-08-24T16:36:56.000Z</time>
      </trkpt>
      <trkpt lat="47.50112" lon="6.76143">
        <ele>386</ele>
        <time>2016-08-24T16:36:57.000Z</time>
      </trkpt>
      <trkpt lat="47.50112" lon="6.76146">
        <ele>386</ele>
        <time>2016-08-24T16:36:58.000Z</time>
      </trkpt>
      <trkpt lat="47.50113" lon="6.76149">
        <ele>386</ele>
        <time>2016-08-24T16:36:59.000Z</time>
      </trkpt>
      <trkpt lat="47.50114" lon="6.76153">
        <ele>387</ele>
        <time>2016-08-24T16:37:00.000Z</time>
      </trkpt>
      <trkpt lat="47.50114" lon="6.76157">
        <ele>387</ele>
        <time>2016-08-24T16:37:01.000Z</time>
      </trkpt>
      <trkpt lat="47.50115" lon="6.76161">
        <ele>387</ele>
        <time>2016-08-24T16:37:02.000Z</time>
      </trkpt>
      <trkpt lat="47.50115" lon="6.76165">
        <ele>387</ele>
        <time>2016-08-24T16:37:03.000Z</time>
      </trkpt>
      <trkpt lat="47.50116" lon="6.76169">
        <ele>391</ele>
        <time>2016-08-24T16:37:04.000Z</time>
      </trkpt>
      <trkpt lat="47.50116" lon="6.76173">
        <ele>391</ele>
        <time>2016-08-24T16:37:05.000Z</time>
      </trkpt>
      <trkpt lat="47.50116" lon="6.76176">
        <ele>391</ele>
        <time>2016-08-24T16:37:06.000Z</time>
      </trkpt>
      <trkpt lat="47.50117" lon="6.76181">
        <ele>391</ele>
        <time>2016-08-24T16:37:08.000Z</time>
      </trkpt>
      <trkpt lat="47.50118" lon="6.76183">
        <ele>390</ele>
        <time>2016-08-24T16:37:09.000Z</time>
      </trkpt>
      <trkpt lat="47.50118" lon="6.76188">
        <ele>390</ele>
        <time>2016-08-24T16:37:13.000Z</time>
      </trkpt>
      <trkpt lat="47.50119" lon="6.7619">
        <ele>390</ele>
        <time>2016-08-24T16:37:14.000Z</time>
      </trkpt>
      <trkpt lat="47.5012" lon="6.76195">
        <ele>390</ele>
        <time>2016-08-24T16:37:21.000Z</time>
      </trkpt>
      <trkpt lat="47.5012" lon="6.76197">
        <ele>391</ele>
        <time>2016-08-24T16:37:22.000Z</time>
      </trkpt>
      <trkpt lat="47.5012" lon="6.76203">
        <ele>391</ele>
        <time>2016-08-24T16:37:24.000Z</time>
      </trkpt>
      <trkpt lat="47.5012" lon="6.76206">
        <ele>391</ele>
        <time>2016-08-24T16:37:25.000Z</time>
      </trkpt>
      <trkpt lat="47.5012" lon="6.76211">
        <ele>391</ele>
        <time>2016-08-24T16:37:28.000Z</time>
      </trkpt>
      <trkpt lat="47.5012" lon="6.76213">
        <ele>391</ele>
        <time>2016-08-24T16:37:29.000Z</time>
      </trkpt>
      <trkpt lat="47.5012" lon="6.76218">
        <ele>392</ele>
        <time>2016-08-24T16:37:31.000Z</time>
      </trkpt>
      <trkpt lat="47.50118" lon="6.76221">
        <ele>392</ele>
        <time>2016-08-24T16:37:32.000Z</time>
      </trkpt>
      <trkpt lat="47.50117" lon="6.76225">
        <ele>392</ele>
        <time>2016-08-24T16:37:33.000Z</time>
      </trkpt>
      <trkpt lat="47.50115" lon="6.76229">
        <ele>393</ele>
        <time>2016-08-24T16:37:34.000Z</time>
      </trkpt>
      <trkpt lat="47.50114" lon="6.76234">
        <ele>393</ele>
        <time>2016-08-24T16:37:35.000Z</time>
      </trkpt>
      <trkpt lat="47.50114" lon="6.76238">
        <ele>393</ele>
        <time>2016-08-24T16:37:36.000Z</time>
      </trkpt>
      <trkpt lat="47.50115" lon="6.76243">
        <ele>394</ele>
        <time>2016-08-24T16:37:37.000Z</time>
      </trkpt>
      <trkpt lat="47.50116" lon="6.76246">
        <ele>393</ele>
        <time>2016-08-24T16:37:38.000Z</time>
      </trkpt>
      <trkpt lat="47.50117" lon="6.7625">
        <ele>393</ele>
        <time>2016-08-24T16:37:39.000Z</time>
      </trkpt>
      <trkpt lat="47.50118" lon="6.76253">
        <ele>397</ele>
        <time>2016-08-24T16:37:40.000Z</time>
      </trkpt>
      <trkpt lat="47.50119" lon="6.76256">
        <ele>397</ele>
        <time>2016-08-24T16:37:41.000Z</time>
      </trkpt>
      <trkpt lat="47.5012" lon="6.76259">
        <ele>397</ele>
        <time>2016-08-24T16:37:42.000Z</time>
      </trkpt>
      <trkpt lat="47.50121" lon="6.76264">
        <ele>397</ele>
        <time>2016-08-24T16:37:43.000Z</time>
      </trkpt>
      <trkpt lat="47.50123" lon="6.76269">
        <ele>397</ele>
        <time>2016-08-24T16:37:44.000Z</time>
      </trkpt>
      <trkpt lat="47.50124" lon="6.76273">
        <ele>397</ele>
        <time>2016-08-24T16:37:45.000Z</time>
      </trkpt>
      <trkpt lat="47.50125" lon="6.76277">
        <ele>397</ele>
        <time>2016-08-24T16:37:46.000Z</time>
      </trkpt>
      <trkpt lat="47.50127" lon="6.76283">
        <ele>397</ele>
        <time>2016-08-24T16:37:48.000Z</time>
      </trkpt>
      <trkpt lat="47.50127" lon="6.76284">
        <ele>397</ele>
        <time>2016-08-24T16:37:49.000Z</time>
      </trkpt>
      <trkpt lat="47.5013" lon="6.76288">
        <ele>397</ele>
        <time>2016-08-24T16:37:54.000Z</time>
      </trkpt>
      <trkpt lat="47.50131" lon="6.76288">
        <ele>397</ele>
        <time>2016-08-24T16:37:55.000Z</time>
      </trkpt>
      <trkpt lat="47.50133" lon="6.76294">
        <ele>396</ele>
        <time>2016-08-24T16:38:04.000Z</time>
      </trkpt>
      <trkpt lat="47.50134" lon="6.76295">
        <ele>396</ele>
        <time>2016-08-24T16:38:05.000Z</time>
      </trkpt>
      <trkpt lat="47.50135" lon="6.76299">
        <ele>396</ele>
        <time>2016-08-24T16:38:08.000Z</time>
      </trkpt>
      <trkpt lat="47.50135" lon="6.76302">
        <ele>396</ele>
        <time>2016-08-24T16:38:09.000Z</time>
      </trkpt>
      <trkpt lat="47.50136" lon="6.76306">
        <ele>396</ele>
        <time>2016-08-24T16:38:10.000Z</time>
      </trkpt>
      <trkpt lat="47.50137" lon="6.7631">
        <ele>396</ele>
        <time>2016-08-24T16:38:11.000Z</time>
      </trkpt>
      <trkpt lat="47.50138" lon="6.76313">
        <ele>396</ele>
        <time>2016-08-24T16:38:12.000Z</time>
      </trkpt>
      <trkpt lat="47.50139" lon="6.76316">
        <ele>396</ele>
        <time>2016-08-24T16:38:13.000Z</time>
      </trkpt>
      <trkpt lat="47.5014" lon="6.76319">
        <ele>396</ele>
        <time>2016-08-24T16:38:14.000Z</time>
      </trkpt>
      <trkpt lat="47.50142" lon="6.76323">
        <ele>396</ele>
        <time>2016-08-24T16:38:15.000Z</time>
      </trkpt>
      <trkpt lat="47.50144" lon="6.76327">
        <ele>395</ele>
        <time>2016-08-24T16:38:16.000Z</time>
      </trkpt>
      <trkpt lat="47.50145" lon="6.76331">
        <ele>395</ele>
        <time>2016-08-24T16:38:17.000Z</time>
      </trkpt>
      <trkpt lat="47.50147" lon="6.76336">
        <ele>398</ele>
        <time>2016-08-24T16:38:18.000Z</time>
      </trkpt>
      <trkpt lat="47.50147" lon="6.76341">
        <ele>398</ele>
        <time>2016-08-24T16:38:19.000Z</time>
      </trkpt>
      <trkpt lat="47.50148" lon="6.76346">
        <ele>398</ele>
        <time>2016-08-24T16:38:20.000Z</time>
      </trkpt>
      <trkpt lat="47.50148" lon="6.76349">
        <ele>399</ele>
        <time>2016-08-24T16:38:20.999Z</time>
      </trkpt>
      <trkpt lat="47.5015" lon="6.76356">
        <ele>399</ele>
        <time>2016-08-24T16:38:22.000Z</time>
      </trkpt>
      <trkpt lat="47.50151" lon="6.7636">
        <ele>399</ele>
        <time>2016-08-24T16:38:23.000Z</time>
      </trkpt>
      <trkpt lat="47.50153" lon="6.76365">
        <ele>400</ele>
        <time>2016-08-24T16:38:24.000Z</time>
      </trkpt>
      <trkpt lat="47.50154" lon="6.76369">
        <ele>400</ele>
        <time>2016-08-24T16:38:25.000Z</time>
      </trkpt>
      <trkpt lat="47.50155" lon="6.76374">
        <ele>400</ele>
        <time>2016-08-24T16:38:26.000Z</time>
      </trkpt>
      <trkpt lat="47.50156" lon="6.76378">
        <ele>400</ele>
        <time>2016-08-24T16:38:27.000Z</time>
      </trkpt>
      <trkpt lat="47.50157" lon="6.7638">
        <ele>401</ele>
        <time>2016-08-24T16:38:28.000Z</time>
      </trkpt>
      <trkpt lat="47.50158" lon="6.76385">
        <ele>401</ele>
        <time>2016-08-24T16:38:30.000Z</time>
      </trkpt>
      <trkpt lat="47.50159" lon="6.76389">
        <ele>401</ele>
        <time>2016-08-24T16:38:31.000Z</time>
      </trkpt>
      <trkpt lat="47.5016" lon="6.76394">
        <ele>401</ele>
        <time>2016-08-24T16:38:32.000Z</time>
      </trkpt>
      <trkpt lat="47.50161" lon="6.76399">
        <ele>401</ele>
        <time>2016-08-24T16:38:33.000Z</time>
      </trkpt>
      <trkpt lat="47.50162" lon="6.76403">
        <ele>400</ele>
        <time>2016-08-24T16:38:34.000Z</time>
      </trkpt>
      <trkpt lat="47.50163" lon="6.76407">
        <ele>400</ele>
        <time>2016-08-24T16:38:35.000Z</time>
      </trkpt>
      <trkpt lat="47.50163" lon="6.7641">
        <ele>400</ele>
        <time>2016-08-24T16:38:36.000Z</time>
      </trkpt>
      <trkpt lat="47.50164" lon="6.76414">
        <ele>400</ele>
        <time>2016-08-24T16:38:37.000Z</time>
      </trkpt>
      <trkpt lat="47.50166" lon="6.76418">
        <ele>399</ele>
        <time>2016-08-24T16:38:38.000Z</time>
      </trkpt>
      <trkpt lat="47.50168" lon="6.76423">
        <ele>398</ele>
        <time>2016-08-24T16:38:39.000Z</time>
      </trkpt>
      <trkpt lat="47.5017" lon="6.76427">
        <ele>398</ele>
        <time>2016-08-24T16:38:40.000Z</time>
      </trkpt>
      <trkpt lat="47.50172" lon="6.76431">
        <ele>397</ele>
        <time>2016-08-24T16:38:41.000Z</time>
      </trkpt>
      <trkpt lat="47.50173" lon="6.76435">
        <ele>397</ele>
        <time>2016-08-24T16:38:42.000Z</time>
      </trkpt>
      <trkpt lat="47.50175" lon="6.76438">
        <ele>397</ele>
        <time>2016-08-24T16:38:43.000Z</time>
      </trkpt>
      <trkpt lat="47.50176" lon="6.76444">
        <ele>397</ele>
        <time>2016-08-24T16:38:45.000Z</time>
      </trkpt>
      <trkpt lat="47.50177" lon="6.76448">
        <ele>397</ele>
        <time>2016-08-24T16:38:46.000Z</time>
      </trkpt>
      <trkpt lat="47.50179" lon="6.76453">
        <ele>397</ele>
        <time>2016-08-24T16:38:47.000Z</time>
      </trkpt>
      <trkpt lat="47.5018" lon="6.76458">
        <ele>397</ele>
        <time>2016-08-24T16:38:48.000Z</time>
      </trkpt>
      <trkpt lat="47.50182" lon="6.76461">
        <ele>398</ele>
        <time>2016-08-24T16:38:49.000Z</time>
      </trkpt>
      <trkpt lat="47.50183" lon="6.76464">
        <ele>398</ele>
        <time>2016-08-24T16:38:50.000Z</time>
      </trkpt>
      <trkpt lat="47.50185" lon="6.76469">
        <ele>398</ele>
        <time>2016-08-24T16:38:52.000Z</time>
      </trkpt>
      <trkpt lat="47.50186" lon="6.76472">
        <ele>398</ele>
        <time>2016-08-24T16:38:53.000Z</time>
      </trkpt>
      <trkpt lat="47.5019" lon="6.76476">
        <ele>398</ele>
        <time>2016-08-24T16:38:55.000Z</time>
      </trkpt>
      <trkpt lat="47.50192" lon="6.76478">
        <ele>398</ele>
        <time>2016-08-24T16:38:56.000Z</time>
      </trkpt>
      <trkpt lat="47.50194" lon="6.7648">
        <ele>398</ele>
        <time>2016-08-24T16:38:57.000Z</time>
      </trkpt>
      <trkpt lat="47.50195" lon="6.76482">
        <ele>398</ele>
        <time>2016-08-24T16:38:58.000Z</time>
      </trkpt>
      <trkpt lat="47.50196" lon="6.76488">
        <ele>398</ele>
        <time>2016-08-24T16:39:00.000Z</time>
      </trkpt>
      <trkpt lat="47.50196" lon="6.7649">
        <ele>398</ele>
        <time>2016-08-24T16:39:01.000Z</time>
      </trkpt>
      <trkpt lat="47.50195" lon="6.76494">
        <ele>398</ele>
        <time>2016-08-24T16:39:03.000Z</time>
      </trkpt>
      <trkpt lat="47.50195" lon="6.76497">
        <ele>399</ele>
        <time>2016-08-24T16:39:04.000Z</time>
      </trkpt>
      <trkpt lat="47.50196" lon="6.76502">
        <ele>402</ele>
        <time>2016-08-24T16:39:06.000Z</time>
      </trkpt>
      <trkpt lat="47.50196" lon="6.76505">
        <ele>402</ele>
        <time>2016-08-24T16:39:07.000Z</time>
      </trkpt>
      <trkpt lat="47.50197" lon="6.76509">
        <ele>401</ele>
        <time>2016-08-24T16:39:08.000Z</time>
      </trkpt>
      <trkpt lat="47.50198" lon="6.76512">
        <ele>401</ele>
        <time>2016-08-24T16:39:09.000Z</time>
      </trkpt>
      <trkpt lat="47.50199" lon="6.76515">
        <ele>401</ele>
        <time>2016-08-24T16:39:10.000Z</time>
      </trkpt>
      <trkpt lat="47.502" lon="6.76518">
        <ele>401</ele>
        <time>2016-08-24T16:39:11.000Z</time>
      </trkpt>
      <trkpt lat="47.50201" lon="6.7652">
        <ele>401</ele>
        <time>2016-08-24T16:39:12.000Z</time>
      </trkpt>
      <trkpt lat="47.50202" lon="6.76523">
        <ele>401</ele>
        <time>2016-08-24T16:39:13.000Z</time>
      </trkpt>
      <trkpt lat="47.50203" lon="6.76527">
        <ele>401</ele>
        <time>2016-08-24T16:39:14.000Z</time>
      </trkpt>
      <trkpt lat="47.50204" lon="6.7653">
        <ele>401</ele>
        <time>2016-08-24T16:39:15.000Z</time>
      </trkpt>
      <trkpt lat="47.50204" lon="6.76535">
        <ele>401</ele>
        <time>2016-08-24T16:39:17.000Z</time>
      </trkpt>
      <trkpt lat="47.50203" lon="6.76537">
        <ele>401</ele>
        <time>2016-08-24T16:39:18.000Z</time>
      </trkpt>
      <trkpt lat="47.502" lon="6.7654">
        <ele>401</ele>
        <time>2016-08-24T16:39:20.000Z</time>
      </trkpt>
      <trkpt lat="47.50198" lon="6.76542">
        <ele>401</ele>
        <time>2016-08-24T16:39:21.000Z</time>
      </trkpt>
      <trkpt lat="47.50195" lon="6.76544">
        <ele>402</ele>
        <time>2016-08-24T16:39:22.000Z</time>
      </trkpt>
      <trkpt lat="47.50193" lon="6.76546">
        <ele>402</ele>
        <time>2016-08-24T16:39:23.000Z</time>
      </trkpt>
      <trkpt lat="47.5019" lon="6.76548">
        <ele>402</ele>
        <time>2016-08-24T16:39:25.000Z</time>
      </trkpt>
      <trkpt lat="47.50189" lon="6.76549">
        <ele>402</ele>
        <time>2016-08-24T16:39:26.000Z</time>
      </trkpt>
      <trkpt lat="47.50185" lon="6.76553">
        <ele>403</ele>
        <time>2016-08-24T16:39:32.000Z</time>
      </trkpt>
      <trkpt lat="47.50186" lon="6.76556">
        <ele>403</ele>
        <time>2016-08-24T16:39:33.000Z</time>
      </trkpt>
      <trkpt lat="47.50186" lon="6.76561">
        <ele>403</ele>
        <time>2016-08-24T16:39:35.000Z</time>
      </trkpt>
      <trkpt lat="47.50187" lon="6.76563">
        <ele>403</ele>
        <time>2016-08-24T16:39:36.000Z</time>
      </trkpt>
      <trkpt lat="47.50188" lon="6.76566">
        <ele>403</ele>
        <time>2016-08-24T16:39:38.000Z</time>
      </trkpt>
      <trkpt lat="47.50188" lon="6.76569">
        <ele>403</ele>
        <time>2016-08-24T16:39:39.000Z</time>
      </trkpt>
      <trkpt lat="47.50189" lon="6.76573">
        <ele>403</ele>
        <time>2016-08-24T16:39:40.000Z</time>
      </trkpt>
      <trkpt lat="47.5019" lon="6.76578">
        <ele>403</ele>
        <time>2016-08-24T16:39:41.000Z</time>
      </trkpt>
      <trkpt lat="47.50191" lon="6.76583">
        <ele>403</ele>
        <time>2016-08-24T16:39:42.000Z</time>
      </trkpt>
      <trkpt lat="47.50193" lon="6.76588">
        <ele>403</ele>
        <time>2016-08-24T16:39:43.000Z</time>
      </trkpt>
      <trkpt lat="47.50194" lon="6.76594">
        <ele>403</ele>
        <time>2016-08-24T16:39:44.000Z</time>
      </trkpt>
      <trkpt lat="47.50196" lon="6.76599">
        <ele>403</ele>
        <time>2016-08-24T16:39:45.000Z</time>
      </trkpt>
      <trkpt lat="47.50197" lon="6.76604">
        <ele>403</ele>
        <time>2016-08-24T16:39:46.000Z</time>
      </trkpt>
      <trkpt lat="47.50198" lon="6.76609">
        <ele>403</ele>
        <time>2016-08-24T16:39:47.000Z</time>
      </trkpt>
      <trkpt lat="47.50199" lon="6.76613">
        <ele>403</ele>
        <time>2016-08-24T16:39:48.000Z</time>
      </trkpt>
      <trkpt lat="47.502" lon="6.76617">
        <ele>402</ele>
        <time>2016-08-24T16:39:49.000Z</time>
      </trkpt>
      <trkpt lat="47.50201" lon="6.76622">
        <ele>402</ele>
        <time>2016-08-24T16:39:50.000Z</time>
      </trkpt>
      <trkpt lat="47.50202" lon="6.76627">
        <ele>402</ele>
        <time>2016-08-24T16:39:51.000Z</time>
      </trkpt>
      <trkpt lat="47.50203" lon="6.76631">
        <ele>402</ele>
        <time>2016-08-24T16:39:52.000Z</time>
      </trkpt>
      <trkpt lat="47.50204" lon="6.76636">
        <ele>402</ele>
        <time>2016-08-24T16:39:53.000Z</time>
      </trkpt>
      <trkpt lat="47.50206" lon="6.7664">
        <ele>402</ele>
        <time>2016-08-24T16:39:54.000Z</time>
      </trkpt>
      <trkpt lat="47.50207" lon="6.76644">
        <ele>402</ele>
        <time>2016-08-24T16:39:55.000Z</time>
      </trkpt>
      <trkpt lat="47.50208" lon="6.76648">
        <ele>402</ele>
        <time>2016-08-24T16:39:56.000Z</time>
      </trkpt>
      <trkpt lat="47.50209" lon="6.76653">
        <ele>402</ele>
        <time>2016-08-24T16:39:57.000Z</time>
      </trkpt>
      <trkpt lat="47.5021" lon="6.76657">
        <ele>402</ele>
        <time>2016-08-24T16:39:58.000Z</time>
      </trkpt>
      <trkpt lat="47.50211" lon="6.76661">
        <ele>402</ele>
        <time>2016-08-24T16:39:59.000Z</time>
      </trkpt>
      <trkpt lat="47.50213" lon="6.76666">
        <ele>402</ele>
        <time>2016-08-24T16:40:00.000Z</time>
      </trkpt>
      <trkpt lat="47.50215" lon="6.7667">
        <ele>402</ele>
        <time>2016-08-24T16:40:01.000Z</time>
      </trkpt>
      <trkpt lat="47.50216" lon="6.76675">
        <ele>402</ele>
        <time>2016-08-24T16:40:02.000Z</time>
      </trkpt>
      <trkpt lat="47.50218" lon="6.76679">
        <ele>402</ele>
        <time>2016-08-24T16:40:03.000Z</time>
      </trkpt>
      <trkpt lat="47.50219" lon="6.76684">
        <ele>402</ele>
        <time>2016-08-24T16:40:04.000Z</time>
      </trkpt>
      <trkpt lat="47.5022" lon="6.76688">
        <ele>402</ele>
        <time>2016-08-24T16:40:05.000Z</time>
      </trkpt>
      <trkpt lat="47.50222" lon="6.76693">
        <ele>402</ele>
        <time>2016-08-24T16:40:06.000Z</time>
      </trkpt>
      <trkpt lat="47.50223" lon="6.76697">
        <ele>402</ele>
        <time>2016-08-24T16:40:07.000Z</time>
      </trkpt>
      <trkpt lat="47.50224" lon="6.76702">
        <ele>402</ele>
        <time>2016-08-24T16:40:08.000Z</time>
      </trkpt>
      <trkpt lat="47.50226" lon="6.76706">
        <ele>402</ele>
        <time>2016-08-24T16:40:09.000Z</time>
      </trkpt>
      <trkpt lat="47.50227" lon="6.76711">
        <ele>402</ele>
        <time>2016-08-24T16:40:10.000Z</time>
      </trkpt>
      <trkpt lat="47.50229" lon="6.76715">
        <ele>402</ele>
        <time>2016-08-24T16:40:11.000Z</time>
      </trkpt>
      <trkpt lat="47.50232" lon="6.7672">
        <ele>402</ele>
        <time>2016-08-24T16:40:12.000Z</time>
      </trkpt>
      <trkpt lat="47.50234" lon="6.76725">
        <ele>402</ele>
        <time>2016-08-24T16:40:13.000Z</time>
      </trkpt>
      <trkpt lat="47.50236" lon="6.76729">
        <ele>401</ele>
        <time>2016-08-24T16:40:14.000Z</time>
      </trkpt>
      <trkpt lat="47.50238" lon="6.76733">
        <ele>401</ele>
        <time>2016-08-24T16:40:15.000Z</time>
      </trkpt>
      <trkpt lat="47.5024" lon="6.76737">
        <ele>401</ele>
        <time>2016-08-24T16:40:16.000Z</time>
      </trkpt>
      <trkpt lat="47.50243" lon="6.76741">
        <ele>401</ele>
        <time>2016-08-24T16:40:17.000Z</time>
      </trkpt>
      <trkpt lat="47.50247" lon="6.76744">
        <ele>401</ele>
        <time>2016-08-24T16:40:18.000Z</time>
      </trkpt>
      <trkpt lat="47.50251" lon="6.76747">
        <ele>400</ele>
        <time>2016-08-24T16:40:19.000Z</time>
      </trkpt>
      <trkpt lat="47.50255" lon="6.76748">
        <ele>400</ele>
        <time>2016-08-24T16:40:20.000Z</time>
      </trkpt>
      <trkpt lat="47.50259" lon="6.76748">
        <ele>400</ele>
        <time>2016-08-24T16:40:21.000Z</time>
      </trkpt>
      <trkpt lat="47.50262" lon="6.76746">
        <ele>399</ele>
        <time>2016-08-24T16:40:22.000Z</time>
      </trkpt>
      <trkpt lat="47.50266" lon="6.76744">
        <ele>399</ele>
        <time>2016-08-24T16:40:23.000Z</time>
      </trkpt>
      <trkpt lat="47.5027" lon="6.76742">
        <ele>399</ele>
        <time>2016-08-24T16:40:24.000Z</time>
      </trkpt>
      <trkpt lat="47.50274" lon="6.76741">
        <ele>399</ele>
        <time>2016-08-24T16:40:25.000Z</time>
      </trkpt>
      <trkpt lat="47.50278" lon="6.7674">
        <ele>399</ele>
        <time>2016-08-24T16:40:26.000Z</time>
      </trkpt>
      <trkpt lat="47.50282" lon="6.76739">
        <ele>399</ele>
        <time>2016-08-24T16:40:27.000Z</time>
      </trkpt>
      <trkpt lat="47.50286" lon="6.76738">
        <ele>399</ele>
        <time>2016-08-24T16:40:28.000Z</time>
      </trkpt>
      <trkpt lat="47.5029" lon="6.76736">
        <ele>399</ele>
        <time>2016-08-24T16:40:29.000Z</time>
      </trkpt>
      <trkpt lat="47.50294" lon="6.76735">
        <ele>399</ele>
        <time>2016-08-24T16:40:30.000Z</time>
      </trkpt>
      <trkpt lat="47.50298" lon="6.76733">
        <ele>399</ele>
        <time>2016-08-24T16:40:31.000Z</time>
      </trkpt>
      <trkpt lat="47.50302" lon="6.76732">
        <ele>398</ele>
        <time>2016-08-24T16:40:32.000Z</time>
      </trkpt>
      <trkpt lat="47.50306" lon="6.76731">
        <ele>398</ele>
        <time>2016-08-24T16:40:33.000Z</time>
      </trkpt>
      <trkpt lat="47.5031" lon="6.7673">
        <ele>398</ele>
        <time>2016-08-24T16:40:34.000Z</time>
      </trkpt>
      <trkpt lat="47.50314" lon="6.76729">
        <ele>398</ele>
        <time>2016-08-24T16:40:35.000Z</time>
      </trkpt>
      <trkpt lat="47.50318" lon="6.76728">
        <ele>398</ele>
        <time>2016-08-24T16:40:36.000Z</time>
      </trkpt>
      <trkpt lat="47.50322" lon="6.76726">
        <ele>398</ele>
        <time>2016-08-24T16:40:37.000Z</time>
      </trkpt>
      <trkpt lat="47.50325" lon="6.76725">
        <ele>398</ele>
        <time>2016-08-24T16:40:38.000Z</time>
      </trkpt>
      <trkpt lat="47.50329" lon="6.76723">
        <ele>398</ele>
        <time>2016-08-24T16:40:39.000Z</time>
      </trkpt>
      <trkpt lat="47.50332" lon="6.76722">
        <ele>398</ele>
        <time>2016-08-24T16:40:40.000Z</time>
      </trkpt>
      <trkpt lat="47.50336" lon="6.76721">
        <ele>398</ele>
        <time>2016-08-24T16:40:41.000Z</time>
      </trkpt>
      <trkpt lat="47.50339" lon="6.7672">
        <ele>398</ele>
        <time>2016-08-24T16:40:42.000Z</time>
      </trkpt>
      <trkpt lat="47.50343" lon="6.76719">
        <ele>398</ele>
        <time>2016-08-24T16:40:43.000Z</time>
      </trkpt>
      <trkpt lat="47.50347" lon="6.76717">
        <ele>398</ele>
        <time>2016-08-24T16:40:44.000Z</time>
      </trkpt>
      <trkpt lat="47.50351" lon="6.76716">
        <ele>398</ele>
        <time>2016-08-24T16:40:45.000Z</time>
      </trkpt>
      <trkpt lat="47.50355" lon="6.76714">
        <ele>398</ele>
        <time>2016-08-24T16:40:46.000Z</time>
      </trkpt>
      <trkpt lat="47.5036" lon="6.76712">
        <ele>398</ele>
        <time>2016-08-24T16:40:47.000Z</time>
      </trkpt>
      <trkpt lat="47.50364" lon="6.76711">
        <ele>398</ele>
        <time>2016-08-24T16:40:48.000Z</time>
      </trkpt>
      <trkpt lat="47.50368" lon="6.76709">
        <ele>398</ele>
        <time>2016-08-24T16:40:49.000Z</time>
      </trkpt>
      <trkpt lat="47.50372" lon="6.76707">
        <ele>397</ele>
        <time>2016-08-24T16:40:50.000Z</time>
      </trkpt>
      <trkpt lat="47.50376" lon="6.76705">
        <ele>397</ele>
        <time>2016-08-24T16:40:51.000Z</time>
      </trkpt>
      <trkpt lat="47.5038" lon="6.76703">
        <ele>397</ele>
        <time>2016-08-24T16:40:52.000Z</time>
      </trkpt>
      <trkpt lat="47.50384" lon="6.76701">
        <ele>397</ele>
        <time>2016-08-24T16:40:53.000Z</time>
      </trkpt>
      <trkpt lat="47.50388" lon="6.767">
        <ele>397</ele>
        <time>2016-08-24T16:40:54.000Z</time>
      </trkpt>
      <trkpt lat="47.50393" lon="6.76698">
        <ele>397</ele>
        <time>2016-08-24T16:40:55.000Z</time>
      </trkpt>
      <trkpt lat="47.50396" lon="6.76696">
        <ele>397</ele>
        <time>2016-08-24T16:40:56.000Z</time>
      </trkpt>
      <trkpt lat="47.504" lon="6.76695">
        <ele>397</ele>
        <time>2016-08-24T16:40:57.000Z</time>
      </trkpt>
      <trkpt lat="47.50404" lon="6.76694">
        <ele>397</ele>
        <time>2016-08-24T16:40:58.000Z</time>
      </trkpt>
      <trkpt lat="47.50408" lon="6.76693">
        <ele>397</ele>
        <time>2016-08-24T16:40:59.000Z</time>
      </trkpt>
      <trkpt lat="47.50411" lon="6.76691">
        <ele>397</ele>
        <time>2016-08-24T16:41:00.000Z</time>
      </trkpt>
      <trkpt lat="47.50415" lon="6.7669">
        <ele>397</ele>
        <time>2016-08-24T16:41:01.000Z</time>
      </trkpt>
      <trkpt lat="47.50419" lon="6.76689">
        <ele>397</ele>
        <time>2016-08-24T16:41:02.000Z</time>
      </trkpt>
      <trkpt lat="47.50423" lon="6.76687">
        <ele>397</ele>
        <time>2016-08-24T16:41:03.000Z</time>
      </trkpt>
      <trkpt lat="47.50427" lon="6.76684">
        <ele>397</ele>
        <time>2016-08-24T16:41:04.000Z</time>
      </trkpt>
      <trkpt lat="47.50432" lon="6.76682">
        <ele>397</ele>
        <time>2016-08-24T16:41:05.000Z</time>
      </trkpt>
      <trkpt lat="47.50436" lon="6.76681">
        <ele>397</ele>
        <time>2016-08-24T16:41:06.000Z</time>
      </trkpt>
      <trkpt lat="47.5044" lon="6.76679">
        <ele>397</ele>
        <time>2016-08-24T16:41:07.000Z</time>
      </trkpt>
      <trkpt lat="47.50444" lon="6.76677">
        <ele>397</ele>
        <time>2016-08-24T16:41:08.000Z</time>
      </trkpt>
      <trkpt lat="47.50448" lon="6.76675">
        <ele>397</ele>
        <time>2016-08-24T16:41:09.000Z</time>
      </trkpt>
      <trkpt lat="47.50452" lon="6.76674">
        <ele>397</ele>
        <time>2016-08-24T16:41:10.000Z</time>
      </trkpt>
      <trkpt lat="47.50455" lon="6.76673">
        <ele>397</ele>
        <time>2016-08-24T16:41:11.000Z</time>
      </trkpt>
      <trkpt lat="47.50459" lon="6.76671">
        <ele>397</ele>
        <time>2016-08-24T16:41:12.000Z</time>
      </trkpt>
      <trkpt lat="47.50463" lon="6.7667">
        <ele>397</ele>
        <time>2016-08-24T16:41:13.000Z</time>
      </trkpt>
      <trkpt lat="47.50466" lon="6.76668">
        <ele>397</ele>
        <time>2016-08-24T16:41:14.000Z</time>
      </trkpt>
      <trkpt lat="47.5047" lon="6.76666">
        <ele>398</ele>
        <time>2016-08-24T16:41:15.000Z</time>
      </trkpt>
      <trkpt lat="47.50474" lon="6.76665">
        <ele>398</ele>
        <time>2016-08-24T16:41:16.000Z</time>
      </trkpt>
      <trkpt lat="47.50478" lon="6.76663">
        <ele>399</ele>
        <time>2016-08-24T16:41:17.000Z</time>
      </trkpt>
      <trkpt lat="47.50481" lon="6.76662">
        <ele>399</ele>
        <time>2016-08-24T16:41:18.000Z</time>
      </trkpt>
      <trkpt lat="47.50485" lon="6.7666">
        <ele>399</ele>
        <time>2016-08-24T16:41:19.000Z</time>
      </trkpt>
      <trkpt lat="47.50488" lon="6.76659">
        <ele>399</ele>
        <time>2016-08-24T16:41:20.000Z</time>
      </trkpt>
      <trkpt lat="47.50492" lon="6.76658">
        <ele>399</ele>
        <time>2016-08-24T16:41:21.000Z</time>
      </trkpt>
      <trkpt lat="47.50495" lon="6.76657">
        <ele>399</ele>
        <time>2016-08-24T16:41:22.000Z</time>
      </trkpt>
      <trkpt lat="47.50498" lon="6.76655">
        <ele>399</ele>
        <time>2016-08-24T16:41:23.000Z</time>
      </trkpt>
      <trkpt lat="47.50502" lon="6.76654">
        <ele>399</ele>
        <time>2016-08-24T16:41:24.000Z</time>
      </trkpt>
      <trkpt lat="47.50505" lon="6.76653">
        <ele>399</ele>
        <time>2016-08-24T16:41:25.000Z</time>
      </trkpt>
      <trkpt lat="47.50508" lon="6.76652">
        <ele>399</ele>
        <time>2016-08-24T16:41:26.000Z</time>
      </trkpt>
      <trkpt lat="47.50512" lon="6.76651">
        <ele>399</ele>
        <time>2016-08-24T16:41:27.000Z</time>
      </trkpt>
      <trkpt lat="47.50515" lon="6.76649">
        <ele>399</ele>
        <time>2016-08-24T16:41:28.000Z</time>
      </trkpt>
      <trkpt lat="47.50518" lon="6.76649">
        <ele>399</ele>
        <time>2016-08-24T16:41:29.000Z</time>
      </trkpt>
      <trkpt lat="47.50522" lon="6.76648">
        <ele>399</ele>
        <time>2016-08-24T16:41:30.000Z</time>
      </trkpt>
      <trkpt lat="47.50525" lon="6.76647">
        <ele>399</ele>
        <time>2016-08-24T16:41:31.000Z</time>
      </trkpt>
      <trkpt lat="47.50528" lon="6.76646">
        <ele>399</ele>
        <time>2016-08-24T16:41:32.000Z</time>
      </trkpt>
      <trkpt lat="47.50531" lon="6.76644">
        <ele>399</ele>
        <time>2016-08-24T16:41:33.000Z</time>
      </trkpt>
      <trkpt lat="47.50535" lon="6.76643">
        <ele>399</ele>
        <time>2016-08-24T16:41:34.000Z</time>
      </trkpt>
      <trkpt lat="47.50538" lon="6.76642">
        <ele>399</ele>
        <time>2016-08-24T16:41:35.000Z</time>
      </trkpt>
      <trkpt lat="47.50541" lon="6.7664">
        <ele>399</ele>
        <time>2016-08-24T16:41:36.000Z</time>
      </trkpt>
      <trkpt lat="47.50544" lon="6.7664">
        <ele>399</ele>
        <time>2016-08-24T16:41:37.000Z</time>
      </trkpt>
      <trkpt lat="47.50547" lon="6.76638">
        <ele>399</ele>
        <time>2016-08-24T16:41:38.000Z</time>
      </trkpt>
      <trkpt lat="47.5055" lon="6.76637">
        <ele>399</ele>
        <time>2016-08-24T16:41:39.000Z</time>
      </trkpt>
      <trkpt lat="47.50554" lon="6.76636">
        <ele>399</ele>
        <time>2016-08-24T16:41:40.000Z</time>
      </trkpt>
      <trkpt lat="47.50558" lon="6.76635">
        <ele>399</ele>
        <time>2016-08-24T16:41:41.000Z</time>
      </trkpt>
      <trkpt lat="47.50561" lon="6.76634">
        <ele>399</ele>
        <time>2016-08-24T16:41:42.000Z</time>
      </trkpt>
      <trkpt lat="47.50565" lon="6.76632">
        <ele>399</ele>
        <time>2016-08-24T16:41:43.000Z</time>
      </trkpt>
      <trkpt lat="47.50569" lon="6.76631">
        <ele>399</ele>
        <time>2016-08-24T16:41:44.000Z</time>
      </trkpt>
      <trkpt lat="47.50573" lon="6.7663">
        <ele>399</ele>
        <time>2016-08-24T16:41:45.000Z</time>
      </trkpt>
      <trkpt lat="47.50577" lon="6.76629">
        <ele>399</ele>
        <time>2016-08-24T16:41:46.000Z</time>
      </trkpt>
      <trkpt lat="47.50581" lon="6.76627">
        <ele>399</ele>
        <time>2016-08-24T16:41:47.000Z</time>
      </trkpt>
      <trkpt lat="47.50586" lon="6.76626">
        <ele>398</ele>
        <time>2016-08-24T16:41:48.000Z</time>
      </trkpt>
      <trkpt lat="47.5059" lon="6.76624">
        <ele>398</ele>
        <time>2016-08-24T16:41:49.000Z</time>
      </trkpt>
      <trkpt lat="47.50595" lon="6.76623">
        <ele>398</ele>
        <time>2016-08-24T16:41:50.000Z</time>
      </trkpt>
      <trkpt lat="47.50599" lon="6.76621">
        <ele>398</ele>
        <time>2016-08-24T16:41:51.000Z</time>
      </trkpt>
      <trkpt lat="47.50603" lon="6.7662">
        <ele>398</ele>
        <time>2016-08-24T16:41:52.000Z</time>
      </trkpt>
      <trkpt lat="47.50607" lon="6.76618">
        <ele>398</ele>
        <time>2016-08-24T16:41:53.000Z</time>
      </trkpt>
      <trkpt lat="47.50612" lon="6.76615">
        <ele>398</ele>
        <time>2016-08-24T16:41:54.000Z</time>
      </trkpt>
      <trkpt lat="47.50616" lon="6.76613">
        <ele>397</ele>
        <time>2016-08-24T16:41:55.000Z</time>
      </trkpt>
      <trkpt lat="47.50621" lon="6.76611">
        <ele>397</ele>
        <time>2016-08-24T16:41:56.000Z</time>
      </trkpt>
      <trkpt lat="47.50625" lon="6.76608">
        <ele>397</ele>
        <time>2016-08-24T16:41:57.000Z</time>
      </trkpt>
      <trkpt lat="47.50629" lon="6.76607">
        <ele>397</ele>
        <time>2016-08-24T16:41:58.000Z</time>
      </trkpt>
      <trkpt lat="47.50634" lon="6.76604">
        <ele>397</ele>
        <time>2016-08-24T16:41:59.000Z</time>
      </trkpt>
      <trkpt lat="47.50638" lon="6.76601">
        <ele>397</ele>
        <time>2016-08-24T16:42:00.000Z</time>
      </trkpt>
      <trkpt lat="47.50643" lon="6.76599">
        <ele>397</ele>
        <time>2016-08-24T16:42:01.000Z</time>
      </trkpt>
      <trkpt lat="47.50647" lon="6.76596">
        <ele>397</ele>
        <time>2016-08-24T16:42:02.000Z</time>
      </trkpt>
      <trkpt lat="47.50651" lon="6.76594">
        <ele>397</ele>
        <time>2016-08-24T16:42:03.000Z</time>
      </trkpt>
      <trkpt lat="47.50656" lon="6.76592">
        <ele>397</ele>
        <time>2016-08-24T16:42:04.000Z</time>
      </trkpt>
      <trkpt lat="47.50661" lon="6.76591">
        <ele>397</ele>
        <time>2016-08-24T16:42:05.000Z</time>
      </trkpt>
      <trkpt lat="47.50665" lon="6.7659">
        <ele>397</ele>
        <time>2016-08-24T16:42:06.000Z</time>
      </trkpt>
      <trkpt lat="47.5067" lon="6.76588">
        <ele>396</ele>
        <time>2016-08-24T16:42:07.000Z</time>
      </trkpt>
      <trkpt lat="47.50675" lon="6.76587">
        <ele>396</ele>
        <time>2016-08-24T16:42:08.000Z</time>
      </trkpt>
      <trkpt lat="47.5068" lon="6.76586">
        <ele>396</ele>
        <time>2016-08-24T16:42:09.000Z</time>
      </trkpt>
      <trkpt lat="47.50685" lon="6.76586">
        <ele>396</ele>
        <time>2016-08-24T16:42:10.000Z</time>
      </trkpt>
      <trkpt lat="47.50689" lon="6.76585">
        <ele>395</ele>
        <time>2016-08-24T16:42:11.000Z</time>
      </trkpt>
      <trkpt lat="47.50694" lon="6.76586">
        <ele>395</ele>
        <time>2016-08-24T16:42:12.000Z</time>
      </trkpt>
      <trkpt lat="47.50699" lon="6.76586">
        <ele>395</ele>
        <time>2016-08-24T16:42:13.000Z</time>
      </trkpt>
      <trkpt lat="47.50704" lon="6.76586">
        <ele>395</ele>
        <time>2016-08-24T16:42:14.000Z</time>
      </trkpt>
      <trkpt lat="47.50709" lon="6.76586">
        <ele>395</ele>
        <time>2016-08-24T16:42:15.000Z</time>
      </trkpt>
      <trkpt lat="47.50714" lon="6.76587">
        <ele>395</ele>
        <time>2016-08-24T16:42:16.000Z</time>
      </trkpt>
      <trkpt lat="47.50719" lon="6.76588">
        <ele>394</ele>
        <time>2016-08-24T16:42:17.000Z</time>
      </trkpt>
      <trkpt lat="47.50724" lon="6.76589">
        <ele>394</ele>
        <time>2016-08-24T16:42:18.000Z</time>
      </trkpt>
      <trkpt lat="47.5073" lon="6.76589">
        <ele>394</ele>
        <time>2016-08-24T16:42:19.000Z</time>
      </trkpt>
      <trkpt lat="47.50734" lon="6.7659">
        <ele>394</ele>
        <time>2016-08-24T16:42:20.000Z</time>
      </trkpt>
      <trkpt lat="47.5074" lon="6.76592">
        <ele>394</ele>
        <time>2016-08-24T16:42:21.000Z</time>
      </trkpt>
      <trkpt lat="47.50745" lon="6.76592">
        <ele>394</ele>
        <time>2016-08-24T16:42:22.000Z</time>
      </trkpt>
      <trkpt lat="47.5075" lon="6.76592">
        <ele>393</ele>
        <time>2016-08-24T16:42:23.000Z</time>
      </trkpt>
      <trkpt lat="47.50755" lon="6.76593">
        <ele>393</ele>
        <time>2016-08-24T16:42:24.000Z</time>
      </trkpt>
      <trkpt lat="47.5076" lon="6.76593">
        <ele>393</ele>
        <time>2016-08-24T16:42:25.000Z</time>
      </trkpt>
      <trkpt lat="47.50765" lon="6.76593">
        <ele>392</ele>
        <time>2016-08-24T16:42:26.000Z</time>
      </trkpt>
      <trkpt lat="47.50769" lon="6.76593">
        <ele>392</ele>
        <time>2016-08-24T16:42:27.000Z</time>
      </trkpt>
      <trkpt lat="47.50774" lon="6.76592">
        <ele>392</ele>
        <time>2016-08-24T16:42:28.000Z</time>
      </trkpt>
      <trkpt lat="47.50777" lon="6.76591">
        <ele>392</ele>
        <time>2016-08-24T16:42:29.000Z</time>
      </trkpt>
      <trkpt lat="47.5078" lon="6.7659">
        <ele>392</ele>
        <time>2016-08-24T16:42:30.000Z</time>
      </trkpt>
      <trkpt lat="47.50782" lon="6.76592">
        <ele>391</ele>
        <time>2016-08-24T16:42:32.000Z</time>
      </trkpt>
      <trkpt lat="47.50783" lon="6.76595">
        <ele>391</ele>
        <time>2016-08-24T16:42:33.000Z</time>
      </trkpt>
      <trkpt lat="47.50784" lon="6.76598">
        <ele>391</ele>
        <time>2016-08-24T16:42:34.000Z</time>
      </trkpt>
      <trkpt lat="47.50785" lon="6.76608">
        <ele>391</ele>
        <time>2016-08-24T16:42:35.000Z</time>
      </trkpt>
      <trkpt lat="47.50785" lon="6.76612">
        <ele>391</ele>
        <time>2016-08-24T16:42:36.000Z</time>
      </trkpt>
      <trkpt lat="47.50786" lon="6.76618">
        <ele>391</ele>
        <time>2016-08-24T16:42:37.000Z</time>
      </trkpt>
      <trkpt lat="47.50787" lon="6.76624">
        <ele>391</ele>
        <time>2016-08-24T16:42:38.000Z</time>
      </trkpt>
      <trkpt lat="47.50787" lon="6.76631">
        <ele>391</ele>
        <time>2016-08-24T16:42:39.000Z</time>
      </trkpt>
      <trkpt lat="47.50786" lon="6.76637">
        <ele>391</ele>
        <time>2016-08-24T16:42:40.000Z</time>
      </trkpt>
      <trkpt lat="47.50784" lon="6.76643">
        <ele>391</ele>
        <time>2016-08-24T16:42:41.000Z</time>
      </trkpt>
      <trkpt lat="47.50782" lon="6.76649">
        <ele>391</ele>
        <time>2016-08-24T16:42:42.000Z</time>
      </trkpt>
      <trkpt lat="47.5078" lon="6.76653">
        <ele>391</ele>
        <time>2016-08-24T16:42:43.000Z</time>
      </trkpt>
      <trkpt lat="47.50776" lon="6.76658">
        <ele>391</ele>
        <time>2016-08-24T16:42:44.000Z</time>
      </trkpt>
      <trkpt lat="47.50773" lon="6.76661">
        <ele>391</ele>
        <time>2016-08-24T16:42:45.000Z</time>
      </trkpt>
      <trkpt lat="47.50769" lon="6.76665">
        <ele>391</ele>
        <time>2016-08-24T16:42:46.000Z</time>
      </trkpt>
      <trkpt lat="47.50767" lon="6.76669">
        <ele>390</ele>
        <time>2016-08-24T16:42:47.000Z</time>
      </trkpt>
      <trkpt lat="47.50764" lon="6.76673">
        <ele>390</ele>
        <time>2016-08-24T16:42:48.000Z</time>
      </trkpt>
      <trkpt lat="47.50765" lon="6.7668">
        <ele>389</ele>
        <time>2016-08-24T16:42:49.000Z</time>
      </trkpt>
      <trkpt lat="47.50765" lon="6.76687">
        <ele>389</ele>
        <time>2016-08-24T16:42:50.000Z</time>
      </trkpt>
      <trkpt lat="47.50769" lon="6.76695">
        <ele>389</ele>
        <time>2016-08-24T16:42:51.000Z</time>
      </trkpt>
      <trkpt lat="47.50771" lon="6.767">
        <ele>388</ele>
        <time>2016-08-24T16:42:52.000Z</time>
      </trkpt>
      <trkpt lat="47.50774" lon="6.76705">
        <ele>388</ele>
        <time>2016-08-24T16:42:53.000Z</time>
      </trkpt>
      <trkpt lat="47.50777" lon="6.7671">
        <ele>388</ele>
        <time>2016-08-24T16:42:54.000Z</time>
      </trkpt>
      <trkpt lat="47.50779" lon="6.76716">
        <ele>388</ele>
        <time>2016-08-24T16:42:55.000Z</time>
      </trkpt>
      <trkpt lat="47.50782" lon="6.7672">
        <ele>388</ele>
        <time>2016-08-24T16:42:56.000Z</time>
      </trkpt>
      <trkpt lat="47.50785" lon="6.76724">
        <ele>388</ele>
        <time>2016-08-24T16:42:57.000Z</time>
      </trkpt>
      <trkpt lat="47.50785" lon="6.76725">
        <ele>388</ele>
        <time>2016-08-24T16:42:58.000Z</time>
      </trkpt>
      <trkpt lat="47.50786" lon="6.76731">
        <ele>387</ele>
        <time>2016-08-24T16:43:01.000Z</time>
      </trkpt>
      <trkpt lat="47.50785" lon="6.76733">
        <ele>387</ele>
        <time>2016-08-24T16:43:02.000Z</time>
      </trkpt>
      <trkpt lat="47.50784" lon="6.76738">
        <ele>387</ele>
        <time>2016-08-24T16:43:04.000Z</time>
      </trkpt>
      <trkpt lat="47.50784" lon="6.76741">
        <ele>387</ele>
        <time>2016-08-24T16:43:05.000Z</time>
      </trkpt>
      <trkpt lat="47.50784" lon="6.76745">
        <ele>387</ele>
        <time>2016-08-24T16:43:06.000Z</time>
      </trkpt>
      <trkpt lat="47.50784" lon="6.76749">
        <ele>387</ele>
        <time>2016-08-24T16:43:07.000Z</time>
      </trkpt>
      <trkpt lat="47.50785" lon="6.76753">
        <ele>384</ele>
        <time>2016-08-24T16:43:08.000Z</time>
      </trkpt>
      <trkpt lat="47.50787" lon="6.76757">
        <ele>384</ele>
        <time>2016-08-24T16:43:09.000Z</time>
      </trkpt>
      <trkpt lat="47.50789" lon="6.76761">
        <ele>384</ele>
        <time>2016-08-24T16:43:10.000Z</time>
      </trkpt>
      <trkpt lat="47.50793" lon="6.76765">
        <ele>384</ele>
        <time>2016-08-24T16:43:11.000Z</time>
      </trkpt>
      <trkpt lat="47.50801" lon="6.76772">
        <ele>384</ele>
        <time>2016-08-24T16:43:12.000Z</time>
      </trkpt>
      <trkpt lat="47.50803" lon="6.76778">
        <ele>384</ele>
        <time>2016-08-24T16:43:13.000Z</time>
      </trkpt>
      <trkpt lat="47.50806" lon="6.76784">
        <ele>384</ele>
        <time>2016-08-24T16:43:14.000Z</time>
      </trkpt>
      <trkpt lat="47.5081" lon="6.76792">
        <ele>384</ele>
        <time>2016-08-24T16:43:15.000Z</time>
      </trkpt>
      <trkpt lat="47.50814" lon="6.768">
        <ele>383</ele>
        <time>2016-08-24T16:43:16.000Z</time>
      </trkpt>
      <trkpt lat="47.50816" lon="6.76806">
        <ele>383</ele>
        <time>2016-08-24T16:43:17.000Z</time>
      </trkpt>
      <trkpt lat="47.50819" lon="6.76815">
        <ele>383</ele>
        <time>2016-08-24T16:43:18.000Z</time>
      </trkpt>
      <trkpt lat="47.50822" lon="6.76822">
        <ele>383</ele>
        <time>2016-08-24T16:43:19.000Z</time>
      </trkpt>
      <trkpt lat="47.50827" lon="6.76828">
        <ele>383</ele>
        <time>2016-08-24T16:43:20.000Z</time>
      </trkpt>
      <trkpt lat="47.50832" lon="6.76836">
        <ele>382</ele>
        <time>2016-08-24T16:43:21.000Z</time>
      </trkpt>
      <trkpt lat="47.50836" lon="6.76843">
        <ele>382</ele>
        <time>2016-08-24T16:43:22.000Z</time>
      </trkpt>
      <trkpt lat="47.50841" lon="6.76852">
        <ele>381</ele>
        <time>2016-08-24T16:43:23.000Z</time>
      </trkpt>
      <trkpt lat="47.50845" lon="6.7686">
        <ele>380</ele>
        <time>2016-08-24T16:43:24.000Z</time>
      </trkpt>
      <trkpt lat="47.50851" lon="6.76866">
        <ele>380</ele>
        <time>2016-08-24T16:43:25.000Z</time>
      </trkpt>
      <trkpt lat="47.50857" lon="6.76874">
        <ele>379</ele>
        <time>2016-08-24T16:43:26.000Z</time>
      </trkpt>
      <trkpt lat="47.50863" lon="6.7688">
        <ele>379</ele>
        <time>2016-08-24T16:43:27.000Z</time>
      </trkpt>
      <trkpt lat="47.50868" lon="6.76887">
        <ele>379</ele>
        <time>2016-08-24T16:43:28.000Z</time>
      </trkpt>
      <trkpt lat="47.50873" lon="6.76894">
        <ele>379</ele>
        <time>2016-08-24T16:43:29.000Z</time>
      </trkpt>
      <trkpt lat="47.5088" lon="6.76901">
        <ele>379</ele>
        <time>2016-08-24T16:43:30.000Z</time>
      </trkpt>
      <trkpt lat="47.50885" lon="6.76908">
        <ele>379</ele>
        <time>2016-08-24T16:43:31.000Z</time>
      </trkpt>
      <trkpt lat="47.50891" lon="6.76914">
        <ele>379</ele>
        <time>2016-08-24T16:43:32.000Z</time>
      </trkpt>
      <trkpt lat="47.50896" lon="6.76918">
        <ele>372</ele>
        <time>2016-08-24T16:43:33.000Z</time>
      </trkpt>
      <trkpt lat="47.50903" lon="6.76922">
        <ele>373</ele>
        <time>2016-08-24T16:43:34.000Z</time>
      </trkpt>
      <trkpt lat="47.50907" lon="6.76927">
        <ele>373</ele>
        <time>2016-08-24T16:43:35.000Z</time>
      </trkpt>
      <trkpt lat="47.50913" lon="6.76931">
        <ele>373</ele>
        <time>2016-08-24T16:43:36.000Z</time>
      </trkpt>
      <trkpt lat="47.50917" lon="6.76935">
        <ele>375</ele>
        <time>2016-08-24T16:43:37.000Z</time>
      </trkpt>
      <trkpt lat="47.50922" lon="6.76936">
        <ele>375</ele>
        <time>2016-08-24T16:43:38.000Z</time>
      </trkpt>
      <trkpt lat="47.50926" lon="6.76939">
        <ele>374</ele>
        <time>2016-08-24T16:43:39.000Z</time>
      </trkpt>
      <trkpt lat="47.5093" lon="6.76942">
        <ele>374</ele>
        <time>2016-08-24T16:43:40.000Z</time>
      </trkpt>
      <trkpt lat="47.50936" lon="6.76944">
        <ele>374</ele>
        <time>2016-08-24T16:43:41.000Z</time>
      </trkpt>
      <trkpt lat="47.5094" lon="6.76948">
        <ele>373</ele>
        <time>2016-08-24T16:43:42.000Z</time>
      </trkpt>
      <trkpt lat="47.50944" lon="6.76951">
        <ele>373</ele>
        <time>2016-08-24T16:43:43.000Z</time>
      </trkpt>
      <trkpt lat="47.5095" lon="6.76954">
        <ele>373</ele>
        <time>2016-08-24T16:43:44.000Z</time>
      </trkpt>
      <trkpt lat="47.50956" lon="6.76956">
        <ele>373</ele>
        <time>2016-08-24T16:43:45.000Z</time>
      </trkpt>
      <trkpt lat="47.5096" lon="6.7696">
        <ele>373</ele>
        <time>2016-08-24T16:43:46.000Z</time>
      </trkpt>
      <trkpt lat="47.50966" lon="6.76962">
        <ele>373</ele>
        <time>2016-08-24T16:43:47.000Z</time>
      </trkpt>
      <trkpt lat="47.50972" lon="6.76964">
        <ele>373</ele>
        <time>2016-08-24T16:43:48.000Z</time>
      </trkpt>
      <trkpt lat="47.50977" lon="6.76967">
        <ele>373</ele>
        <time>2016-08-24T16:43:49.000Z</time>
      </trkpt>
      <trkpt lat="47.50982" lon="6.76962">
        <ele>373</ele>
        <time>2016-08-24T16:43:50.000Z</time>
      </trkpt>
      <trkpt lat="47.50986" lon="6.76957">
        <ele>373</ele>
        <time>2016-08-24T16:43:51.000Z</time>
      </trkpt>
      <trkpt lat="47.5099" lon="6.76954">
        <ele>374</ele>
        <time>2016-08-24T16:43:52.000Z</time>
      </trkpt>
      <trkpt lat="47.50995" lon="6.76954">
        <ele>374</ele>
        <time>2016-08-24T16:43:53.000Z</time>
      </trkpt>
      <trkpt lat="47.51" lon="6.76956">
        <ele>375</ele>
        <time>2016-08-24T16:43:54.000Z</time>
      </trkpt>
      <trkpt lat="47.51006" lon="6.76956">
        <ele>375</ele>
        <time>2016-08-24T16:43:55.000Z</time>
      </trkpt>
      <trkpt lat="47.51011" lon="6.76958">
        <ele>375</ele>
        <time>2016-08-24T16:43:56.000Z</time>
      </trkpt>
      <trkpt lat="47.51015" lon="6.76961">
        <ele>375</ele>
        <time>2016-08-24T16:43:57.000Z</time>
      </trkpt>
      <trkpt lat="47.51019" lon="6.76964">
        <ele>375</ele>
        <time>2016-08-24T16:43:58.000Z</time>
      </trkpt>
      <trkpt lat="47.51023" lon="6.76965">
        <ele>375</ele>
        <time>2016-08-24T16:43:59.000Z</time>
      </trkpt>
      <trkpt lat="47.51028" lon="6.76969">
        <ele>375</ele>
        <time>2016-08-24T16:44:00.000Z</time>
      </trkpt>
      <trkpt lat="47.51033" lon="6.76971">
        <ele>375</ele>
        <time>2016-08-24T16:44:01.000Z</time>
      </trkpt>
      <trkpt lat="47.51037" lon="6.76975">
        <ele>375</ele>
        <time>2016-08-24T16:44:02.000Z</time>
      </trkpt>
      <trkpt lat="47.51042" lon="6.76979">
        <ele>375</ele>
        <time>2016-08-24T16:44:03.000Z</time>
      </trkpt>
      <trkpt lat="47.51046" lon="6.76982">
        <ele>375</ele>
        <time>2016-08-24T16:44:04.000Z</time>
      </trkpt>
      <trkpt lat="47.5105" lon="6.76987">
        <ele>375</ele>
        <time>2016-08-24T16:44:05.000Z</time>
      </trkpt>
      <trkpt lat="47.51054" lon="6.76992">
        <ele>375</ele>
        <time>2016-08-24T16:44:06.000Z</time>
      </trkpt>
      <trkpt lat="47.51058" lon="6.76996">
        <ele>375</ele>
        <time>2016-08-24T16:44:07.000Z</time>
      </trkpt>
      <trkpt lat="47.51061" lon="6.77002">
        <ele>373</ele>
        <time>2016-08-24T16:44:08.000Z</time>
      </trkpt>
      <trkpt lat="47.51065" lon="6.77008">
        <ele>373</ele>
        <time>2016-08-24T16:44:09.000Z</time>
      </trkpt>
      <trkpt lat="47.51072" lon="6.77011">
        <ele>373</ele>
        <time>2016-08-24T16:44:10.000Z</time>
      </trkpt>
      <trkpt lat="47.51078" lon="6.77012">
        <ele>373</ele>
        <time>2016-08-24T16:44:11.000Z</time>
      </trkpt>
      <trkpt lat="47.51085" lon="6.77018">
        <ele>375</ele>
        <time>2016-08-24T16:44:12.000Z</time>
      </trkpt>
      <trkpt lat="47.5109" lon="6.77024">
        <ele>375</ele>
        <time>2016-08-24T16:44:13.000Z</time>
      </trkpt>
      <trkpt lat="47.51096" lon="6.77029">
        <ele>375</ele>
        <time>2016-08-24T16:44:14.000Z</time>
      </trkpt>
      <trkpt lat="47.51101" lon="6.77033">
        <ele>375</ele>
        <time>2016-08-24T16:44:15.000Z</time>
      </trkpt>
      <trkpt lat="47.51105" lon="6.77036">
        <ele>375</ele>
        <time>2016-08-24T16:44:16.000Z</time>
      </trkpt>
      <trkpt lat="47.5111" lon="6.77039">
        <ele>375</ele>
        <time>2016-08-24T16:44:17.000Z</time>
      </trkpt>
      <trkpt lat="47.51114" lon="6.77039">
        <ele>375</ele>
        <time>2016-08-24T16:44:18.000Z</time>
      </trkpt>
      <trkpt lat="47.5112" lon="6.77041">
        <ele>375</ele>
        <time>2016-08-24T16:44:19.000Z</time>
      </trkpt>
      <trkpt lat="47.51125" lon="6.77043">
        <ele>375</ele>
        <time>2016-08-24T16:44:20.000Z</time>
      </trkpt>
      <trkpt lat="47.51128" lon="6.77046">
        <ele>375</ele>
        <time>2016-08-24T16:44:21.000Z</time>
      </trkpt>
      <trkpt lat="47.51132" lon="6.77049">
        <ele>375</ele>
        <time>2016-08-24T16:44:22.000Z</time>
      </trkpt>
      <trkpt lat="47.51137" lon="6.77053">
        <ele>376</ele>
        <time>2016-08-24T16:44:23.000Z</time>
      </trkpt>
      <trkpt lat="47.51142" lon="6.77058">
        <ele>376</ele>
        <time>2016-08-24T16:44:24.000Z</time>
      </trkpt>
      <trkpt lat="47.51146" lon="6.77061">
        <ele>376</ele>
        <time>2016-08-24T16:44:25.000Z</time>
      </trkpt>
      <trkpt lat="47.5115" lon="6.77066">
        <ele>376</ele>
        <time>2016-08-24T16:44:26.000Z</time>
      </trkpt>
      <trkpt lat="47.51155" lon="6.77071">
        <ele>377</ele>
        <time>2016-08-24T16:44:27.000Z</time>
      </trkpt>
      <trkpt lat="47.51158" lon="6.77077">
        <ele>377</ele>
        <time>2016-08-24T16:44:28.000Z</time>
      </trkpt>
      <trkpt lat="47.51164" lon="6.77082">
        <ele>378</ele>
        <time>2016-08-24T16:44:29.000Z</time>
      </trkpt>
      <trkpt lat="47.51167" lon="6.77088">
        <ele>378</ele>
        <time>2016-08-24T16:44:30.000Z</time>
      </trkpt>
      <trkpt lat="47.51171" lon="6.77094">
        <ele>378</ele>
        <time>2016-08-24T16:44:31.000Z</time>
      </trkpt>
      <trkpt lat="47.51173" lon="6.77099">
        <ele>378</ele>
        <time>2016-08-24T16:44:32.000Z</time>
      </trkpt>
      <trkpt lat="47.51176" lon="6.77104">
        <ele>378</ele>
        <time>2016-08-24T16:44:33.000Z</time>
      </trkpt>
      <trkpt lat="47.5118" lon="6.7711">
        <ele>378</ele>
        <time>2016-08-24T16:44:34.000Z</time>
      </trkpt>
      <trkpt lat="47.51182" lon="6.77115">
        <ele>378</ele>
        <time>2016-08-24T16:44:35.000Z</time>
      </trkpt>
      <trkpt lat="47.51184" lon="6.77119">
        <ele>378</ele>
        <time>2016-08-24T16:44:36.000Z</time>
      </trkpt>
      <trkpt lat="47.51187" lon="6.77124">
        <ele>378</ele>
        <time>2016-08-24T16:44:37.000Z</time>
      </trkpt>
      <trkpt lat="47.51189" lon="6.77128">
        <ele>378</ele>
        <time>2016-08-24T16:44:38.000Z</time>
      </trkpt>
      <trkpt lat="47.51191" lon="6.77132">
        <ele>378</ele>
        <time>2016-08-24T16:44:39.000Z</time>
      </trkpt>
      <trkpt lat="47.51194" lon="6.77136">
        <ele>378</ele>
        <time>2016-08-24T16:44:40.000Z</time>
      </trkpt>
      <trkpt lat="47.51196" lon="6.77141">
        <ele>378</ele>
        <time>2016-08-24T16:44:41.000Z</time>
      </trkpt>
      <trkpt lat="47.51198" lon="6.77144">
        <ele>378</ele>
        <time>2016-08-24T16:44:42.000Z</time>
      </trkpt>
      <trkpt lat="47.512" lon="6.77148">
        <ele>378</ele>
        <time>2016-08-24T16:44:43.000Z</time>
      </trkpt>
      <trkpt lat="47.51202" lon="6.77152">
        <ele>378</ele>
        <time>2016-08-24T16:44:44.000Z</time>
      </trkpt>
      <trkpt lat="47.51204" lon="6.77157">
        <ele>378</ele>
        <time>2016-08-24T16:44:45.000Z</time>
      </trkpt>
      <trkpt lat="47.51207" lon="6.77161">
        <ele>378</ele>
        <time>2016-08-24T16:44:46.000Z</time>
      </trkpt>
      <trkpt lat="47.51209" lon="6.77165">
        <ele>378</ele>
        <time>2016-08-24T16:44:47.000Z</time>
      </trkpt>
      <trkpt lat="47.51211" lon="6.77169">
        <ele>376</ele>
        <time>2016-08-24T16:44:48.000Z</time>
      </trkpt>
      <trkpt lat="47.51213" lon="6.77174">
        <ele>376</ele>
        <time>2016-08-24T16:44:49.000Z</time>
      </trkpt>
      <trkpt lat="47.51215" lon="6.77178">
        <ele>376</ele>
        <time>2016-08-24T16:44:50.000Z</time>
      </trkpt>
      <trkpt lat="47.51217" lon="6.77183">
        <ele>376</ele>
        <time>2016-08-24T16:44:51.000Z</time>
      </trkpt>
      <trkpt lat="47.51219" lon="6.77187">
        <ele>376</ele>
        <time>2016-08-24T16:44:52.000Z</time>
      </trkpt>
      <trkpt lat="47.51221" lon="6.77192">
        <ele>376</ele>
        <time>2016-08-24T16:44:53.000Z</time>
      </trkpt>
      <trkpt lat="47.51223" lon="6.77196">
        <ele>376</ele>
        <time>2016-08-24T16:44:54.000Z</time>
      </trkpt>
      <trkpt lat="47.51225" lon="6.772">
        <ele>376</ele>
        <time>2016-08-24T16:44:55.000Z</time>
      </trkpt>
      <trkpt lat="47.51227" lon="6.77205">
        <ele>376</ele>
        <time>2016-08-24T16:44:56.000Z</time>
      </trkpt>
      <trkpt lat="47.51229" lon="6.77209">
        <ele>376</ele>
        <time>2016-08-24T16:44:57.000Z</time>
      </trkpt>
      <trkpt lat="47.51231" lon="6.77214">
        <ele>376</ele>
        <time>2016-08-24T16:44:58.000Z</time>
      </trkpt>
      <trkpt lat="47.51234" lon="6.77219">
        <ele>376</ele>
        <time>2016-08-24T16:44:59.000Z</time>
      </trkpt>
      <trkpt lat="47.51236" lon="6.77224">
        <ele>376</ele>
        <time>2016-08-24T16:45:00.000Z</time>
      </trkpt>
      <trkpt lat="47.51239" lon="6.7723">
        <ele>376</ele>
        <time>2016-08-24T16:45:01.000Z</time>
      </trkpt>
      <trkpt lat="47.51241" lon="6.77235">
        <ele>377</ele>
        <time>2016-08-24T16:45:02.000Z</time>
      </trkpt>
      <trkpt lat="47.51244" lon="6.7724">
        <ele>377</ele>
        <time>2016-08-24T16:45:03.000Z</time>
      </trkpt>
      <trkpt lat="47.51246" lon="6.77244">
        <ele>378</ele>
        <time>2016-08-24T16:45:04.000Z</time>
      </trkpt>
      <trkpt lat="47.51249" lon="6.77248">
        <ele>379</ele>
        <time>2016-08-24T16:45:05.000Z</time>
      </trkpt>
      <trkpt lat="47.51251" lon="6.77252">
        <ele>379</ele>
        <time>2016-08-24T16:45:06.000Z</time>
      </trkpt>
      <trkpt lat="47.51254" lon="6.77255">
        <ele>378</ele>
        <time>2016-08-24T16:45:07.000Z</time>
      </trkpt>
      <trkpt lat="47.51256" lon="6.77259">
        <ele>378</ele>
        <time>2016-08-24T16:45:08.000Z</time>
      </trkpt>
      <trkpt lat="47.51259" lon="6.7726">
        <ele>378</ele>
        <time>2016-08-24T16:45:09.000Z</time>
      </trkpt>
      <trkpt lat="47.51263" lon="6.77262">
        <ele>378</ele>
        <time>2016-08-24T16:45:10.000Z</time>
      </trkpt>
      <trkpt lat="47.51267" lon="6.77265">
        <ele>377</ele>
        <time>2016-08-24T16:45:11.000Z</time>
      </trkpt>
      <trkpt lat="47.51272" lon="6.77267">
        <ele>377</ele>
        <time>2016-08-24T16:45:12.000Z</time>
      </trkpt>
      <trkpt lat="47.51276" lon="6.77269">
        <ele>377</ele>
        <time>2016-08-24T16:45:13.000Z</time>
      </trkpt>
      <trkpt lat="47.51286" lon="6.77272">
        <ele>377</ele>
        <time>2016-08-24T16:45:14.000Z</time>
      </trkpt>
      <trkpt lat="47.51292" lon="6.77274">
        <ele>377</ele>
        <time>2016-08-24T16:45:15.000Z</time>
      </trkpt>
      <trkpt lat="47.51297" lon="6.77278">
        <ele>377</ele>
        <time>2016-08-24T16:45:16.000Z</time>
      </trkpt>
      <trkpt lat="47.51302" lon="6.77281">
        <ele>377</ele>
        <time>2016-08-24T16:45:17.000Z</time>
      </trkpt>
      <trkpt lat="47.51308" lon="6.77283">
        <ele>377</ele>
        <time>2016-08-24T16:45:18.000Z</time>
      </trkpt>
      <trkpt lat="47.51314" lon="6.77285">
        <ele>377</ele>
        <time>2016-08-24T16:45:19.000Z</time>
      </trkpt>
      <trkpt lat="47.5132" lon="6.77286">
        <ele>377</ele>
        <time>2016-08-24T16:45:20.000Z</time>
      </trkpt>
      <trkpt lat="47.51325" lon="6.77286">
        <ele>378</ele>
        <time>2016-08-24T16:45:21.000Z</time>
      </trkpt>
      <trkpt lat="47.51331" lon="6.77285">
        <ele>378</ele>
        <time>2016-08-24T16:45:22.000Z</time>
      </trkpt>
      <trkpt lat="47.51336" lon="6.77281">
        <ele>378</ele>
        <time>2016-08-24T16:45:23.000Z</time>
      </trkpt>
      <trkpt lat="47.51342" lon="6.77277">
        <ele>378</ele>
        <time>2016-08-24T16:45:24.000Z</time>
      </trkpt>
      <trkpt lat="47.51348" lon="6.77272">
        <ele>378</ele>
        <time>2016-08-24T16:45:25.000Z</time>
      </trkpt>
      <trkpt lat="47.51354" lon="6.77267">
        <ele>378</ele>
        <time>2016-08-24T16:45:26.000Z</time>
      </trkpt>
      <trkpt lat="47.5136" lon="6.77261">
        <ele>378</ele>
        <time>2016-08-24T16:45:27.000Z</time>
      </trkpt>
      <trkpt lat="47.51367" lon="6.77256">
        <ele>378</ele>
        <time>2016-08-24T16:45:28.000Z</time>
      </trkpt>
      <trkpt lat="47.51374" lon="6.77251">
        <ele>377</ele>
        <time>2016-08-24T16:45:29.000Z</time>
      </trkpt>
      <trkpt lat="47.51382" lon="6.77247">
        <ele>376</ele>
        <time>2016-08-24T16:45:30.000Z</time>
      </trkpt>
      <trkpt lat="47.5139" lon="6.77242">
        <ele>376</ele>
        <time>2016-08-24T16:45:31.000Z</time>
      </trkpt>
      <trkpt lat="47.51398" lon="6.77237">
        <ele>376</ele>
        <time>2016-08-24T16:45:32.000Z</time>
      </trkpt>
      <trkpt lat="47.51405" lon="6.77233">
        <ele>376</ele>
        <time>2016-08-24T16:45:33.000Z</time>
      </trkpt>
      <trkpt lat="47.51413" lon="6.77228">
        <ele>376</ele>
        <time>2016-08-24T16:45:34.000Z</time>
      </trkpt>
      <trkpt lat="47.51421" lon="6.77224">
        <ele>375</ele>
        <time>2016-08-24T16:45:35.000Z</time>
      </trkpt>
      <trkpt lat="47.51428" lon="6.77221">
        <ele>375</ele>
        <time>2016-08-24T16:45:36.000Z</time>
      </trkpt>
      <trkpt lat="47.51435" lon="6.77217">
        <ele>375</ele>
        <time>2016-08-24T16:45:37.000Z</time>
      </trkpt>
      <trkpt lat="47.51442" lon="6.77214">
        <ele>375</ele>
        <time>2016-08-24T16:45:38.000Z</time>
      </trkpt>
      <trkpt lat="47.51449" lon="6.77211">
        <ele>375</ele>
        <time>2016-08-24T16:45:39.000Z</time>
      </trkpt>
      <trkpt lat="47.51456" lon="6.77208">
        <ele>375</ele>
        <time>2016-08-24T16:45:40.000Z</time>
      </trkpt>
      <trkpt lat="47.51462" lon="6.77205">
        <ele>375</ele>
        <time>2016-08-24T16:45:41.000Z</time>
      </trkpt>
      <trkpt lat="47.51466" lon="6.77203">
        <ele>375</ele>
        <time>2016-08-24T16:45:42.000Z</time>
      </trkpt>
      <trkpt lat="47.51471" lon="6.77202">
        <ele>375</ele>
        <time>2016-08-24T16:45:43.000Z</time>
      </trkpt>
      <trkpt lat="47.51475" lon="6.77202">
        <ele>375</ele>
        <time>2016-08-24T16:45:44.000Z</time>
      </trkpt>
      <trkpt lat="47.51478" lon="6.77204">
        <ele>375</ele>
        <time>2016-08-24T16:45:45.000Z</time>
      </trkpt>
      <trkpt lat="47.5148" lon="6.77208">
        <ele>375</ele>
        <time>2016-08-24T16:45:46.000Z</time>
      </trkpt>
      <trkpt lat="47.51481" lon="6.77213">
        <ele>375</ele>
        <time>2016-08-24T16:45:47.000Z</time>
      </trkpt>
      <trkpt lat="47.51481" lon="6.77219">
        <ele>375</ele>
        <time>2016-08-24T16:45:48.000Z</time>
      </trkpt>
      <trkpt lat="47.51481" lon="6.77224">
        <ele>375</ele>
        <time>2016-08-24T16:45:49.000Z</time>
      </trkpt>
      <trkpt lat="47.51481" lon="6.7723">
        <ele>375</ele>
        <time>2016-08-24T16:45:50.000Z</time>
      </trkpt>
      <trkpt lat="47.51482" lon="6.77235">
        <ele>375</ele>
        <time>2016-08-24T16:45:51.000Z</time>
      </trkpt>
      <trkpt lat="47.51482" lon="6.77241">
        <ele>375</ele>
        <time>2016-08-24T16:45:52.000Z</time>
      </trkpt>
      <trkpt lat="47.51483" lon="6.77251">
        <ele>376</ele>
        <time>2016-08-24T16:45:54.000Z</time>
      </trkpt>
      <trkpt lat="47.51483" lon="6.77257">
        <ele>376</ele>
        <time>2016-08-24T16:45:55.000Z</time>
      </trkpt>
      <trkpt lat="47.51483" lon="6.77262">
        <ele>376</ele>
        <time>2016-08-24T16:45:56.000Z</time>
      </trkpt>
      <trkpt lat="47.51484" lon="6.77267">
        <ele>376</ele>
        <time>2016-08-24T16:45:57.000Z</time>
      </trkpt>
      <trkpt lat="47.51484" lon="6.77272">
        <ele>377</ele>
        <time>2016-08-24T16:45:58.000Z</time>
      </trkpt>
      <trkpt lat="47.51484" lon="6.77277">
        <ele>377</ele>
        <time>2016-08-24T16:45:59.000Z</time>
      </trkpt>
      <trkpt lat="47.51484" lon="6.77282">
        <ele>377</ele>
        <time>2016-08-24T16:46:00.000Z</time>
      </trkpt>
      <trkpt lat="47.51484" lon="6.77287">
        <ele>377</ele>
        <time>2016-08-24T16:46:01.000Z</time>
      </trkpt>
      <trkpt lat="47.51485" lon="6.77292">
        <ele>377</ele>
        <time>2016-08-24T16:46:02.000Z</time>
      </trkpt>
      <trkpt lat="47.51485" lon="6.77297">
        <ele>377</ele>
        <time>2016-08-24T16:46:03.000Z</time>
      </trkpt>
      <trkpt lat="47.51485" lon="6.77303">
        <ele>377</ele>
        <time>2016-08-24T16:46:04.000Z</time>
      </trkpt>
      <trkpt lat="47.51487" lon="6.77308">
        <ele>377</ele>
        <time>2016-08-24T16:46:05.000Z</time>
      </trkpt>
      <trkpt lat="47.51489" lon="6.77312">
        <ele>377</ele>
        <time>2016-08-24T16:46:06.000Z</time>
      </trkpt>
      <trkpt lat="47.51492" lon="6.77316">
        <ele>377</ele>
        <time>2016-08-24T16:46:07.000Z</time>
      </trkpt>
      <trkpt lat="47.51495" lon="6.77319">
        <ele>377</ele>
        <time>2016-08-24T16:46:08.000Z</time>
      </trkpt>
      <trkpt lat="47.51498" lon="6.77321">
        <ele>377</ele>
        <time>2016-08-24T16:46:09.000Z</time>
      </trkpt>
      <trkpt lat="47.51501" lon="6.77323">
        <ele>378</ele>
        <time>2016-08-24T16:46:10.000Z</time>
      </trkpt>
      <trkpt lat="47.51503" lon="6.77324">
        <ele>378</ele>
        <time>2016-08-24T16:46:11.000Z</time>
      </trkpt>
      <trkpt lat="47.51506" lon="6.77325">
        <ele>378</ele>
        <time>2016-08-24T16:46:12.000Z</time>
      </trkpt>
      <trkpt lat="47.51509" lon="6.77327">
        <ele>378</ele>
        <time>2016-08-24T16:46:13.000Z</time>
      </trkpt>
      <trkpt lat="47.51512" lon="6.7733">
        <ele>378</ele>
        <time>2016-08-24T16:46:14.000Z</time>
      </trkpt>
      <trkpt lat="47.51516" lon="6.77334">
        <ele>379</ele>
        <time>2016-08-24T16:46:15.000Z</time>
      </trkpt>
      <trkpt lat="47.5152" lon="6.77338">
        <ele>379</ele>
        <time>2016-08-24T16:46:16.000Z</time>
      </trkpt>
      <trkpt lat="47.51523" lon="6.77343">
        <ele>380</ele>
        <time>2016-08-24T16:46:17.000Z</time>
      </trkpt>
      <trkpt lat="47.51526" lon="6.77347">
        <ele>380</ele>
        <time>2016-08-24T16:46:18.000Z</time>
      </trkpt>
      <trkpt lat="47.51529" lon="6.77352">
        <ele>380</ele>
        <time>2016-08-24T16:46:19.000Z</time>
      </trkpt>
      <trkpt lat="47.51533" lon="6.77356">
        <ele>380</ele>
        <time>2016-08-24T16:46:20.000Z</time>
      </trkpt>
      <trkpt lat="47.51536" lon="6.7736">
        <ele>380</ele>
        <time>2016-08-24T16:46:21.000Z</time>
      </trkpt>
      <trkpt lat="47.51539" lon="6.77364">
        <ele>380</ele>
        <time>2016-08-24T16:46:22.000Z</time>
      </trkpt>
      <trkpt lat="47.51543" lon="6.77368">
        <ele>380</ele>
        <time>2016-08-24T16:46:23.000Z</time>
      </trkpt>
      <trkpt lat="47.51546" lon="6.77371">
        <ele>381</ele>
        <time>2016-08-24T16:46:24.000Z</time>
      </trkpt>
      <trkpt lat="47.51549" lon="6.77375">
        <ele>381</ele>
        <time>2016-08-24T16:46:25.000Z</time>
      </trkpt>
      <trkpt lat="47.51553" lon="6.77379">
        <ele>381</ele>
        <time>2016-08-24T16:46:26.000Z</time>
      </trkpt>
      <trkpt lat="47.51556" lon="6.77383">
        <ele>381</ele>
        <time>2016-08-24T16:46:27.000Z</time>
      </trkpt>
      <trkpt lat="47.51559" lon="6.77388">
        <ele>381</ele>
        <time>2016-08-24T16:46:28.000Z</time>
      </trkpt>
      <trkpt lat="47.51562" lon="6.77391">
        <ele>381</ele>
        <time>2016-08-24T16:46:29.000Z</time>
      </trkpt>
      <trkpt lat="47.51565" lon="6.77395">
        <ele>381</ele>
        <time>2016-08-24T16:46:30.000Z</time>
      </trkpt>
      <trkpt lat="47.51567" lon="6.77399">
        <ele>381</ele>
        <time>2016-08-24T16:46:31.000Z</time>
      </trkpt>
      <trkpt lat="47.51569" lon="6.77401">
        <ele>382</ele>
        <time>2016-08-24T16:46:32.000Z</time>
      </trkpt>
      <trkpt lat="47.51571" lon="6.77404">
        <ele>382</ele>
        <time>2016-08-24T16:46:33.000Z</time>
      </trkpt>
      <trkpt lat="47.51573" lon="6.77406">
        <ele>382</ele>
        <time>2016-08-24T16:46:34.000Z</time>
      </trkpt>
      <trkpt lat="47.51576" lon="6.77409">
        <ele>382</ele>
        <time>2016-08-24T16:46:35.000Z</time>
      </trkpt>
      <trkpt lat="47.51578" lon="6.77411">
        <ele>382</ele>
        <time>2016-08-24T16:46:36.000Z</time>
      </trkpt>
      <trkpt lat="47.51581" lon="6.77414">
        <ele>383</ele>
        <time>2016-08-24T16:46:37.000Z</time>
      </trkpt>
      <trkpt lat="47.51583" lon="6.77417">
        <ele>383</ele>
        <time>2016-08-24T16:46:38.000Z</time>
      </trkpt>
      <trkpt lat="47.51586" lon="6.7742">
        <ele>383</ele>
        <time>2016-08-24T16:46:39.000Z</time>
      </trkpt>
      <trkpt lat="47.51588" lon="6.77422">
        <ele>384</ele>
        <time>2016-08-24T16:46:40.000Z</time>
      </trkpt>
      <trkpt lat="47.5159" lon="6.77425">
        <ele>384</ele>
        <time>2016-08-24T16:46:41.000Z</time>
      </trkpt>
      <trkpt lat="47.51592" lon="6.77428">
        <ele>384</ele>
        <time>2016-08-24T16:46:42.000Z</time>
      </trkpt>
      <trkpt lat="47.51594" lon="6.7743">
        <ele>384</ele>
        <time>2016-08-24T16:46:43.000Z</time>
      </trkpt>
      <trkpt lat="47.51596" lon="6.77433">
        <ele>385</ele>
        <time>2016-08-24T16:46:44.000Z</time>
      </trkpt>
      <trkpt lat="47.51598" lon="6.77436">
        <ele>385</ele>
        <time>2016-08-24T16:46:45.000Z</time>
      </trkpt>
      <trkpt lat="47.51599" lon="6.77439">
        <ele>385</ele>
        <time>2016-08-24T16:46:46.000Z</time>
      </trkpt>
      <trkpt lat="47.51601" lon="6.77442">
        <ele>385</ele>
        <time>2016-08-24T16:46:47.000Z</time>
      </trkpt>
      <trkpt lat="47.51603" lon="6.77445">
        <ele>385</ele>
        <time>2016-08-24T16:46:48.000Z</time>
      </trkpt>
      <trkpt lat="47.51605" lon="6.77448">
        <ele>385</ele>
        <time>2016-08-24T16:46:49.000Z</time>
      </trkpt>
      <trkpt lat="47.51608" lon="6.77451">
        <ele>385</ele>
        <time>2016-08-24T16:46:50.000Z</time>
      </trkpt>
      <trkpt lat="47.5161" lon="6.77454">
        <ele>385</ele>
        <time>2016-08-24T16:46:51.000Z</time>
      </trkpt>
      <trkpt lat="47.51613" lon="6.77456">
        <ele>385</ele>
        <time>2016-08-24T16:46:52.000Z</time>
      </trkpt>
      <trkpt lat="47.51615" lon="6.77458">
        <ele>386</ele>
        <time>2016-08-24T16:46:53.000Z</time>
      </trkpt>
      <trkpt lat="47.51617" lon="6.77461">
        <ele>386</ele>
        <time>2016-08-24T16:46:54.000Z</time>
      </trkpt>
      <trkpt lat="47.51619" lon="6.77465">
        <ele>386</ele>
        <time>2016-08-24T16:46:55.000Z</time>
      </trkpt>
      <trkpt lat="47.51621" lon="6.77468">
        <ele>386</ele>
        <time>2016-08-24T16:46:56.000Z</time>
      </trkpt>
      <trkpt lat="47.51622" lon="6.77472">
        <ele>386</ele>
        <time>2016-08-24T16:46:57.000Z</time>
      </trkpt>
      <trkpt lat="47.51624" lon="6.77476">
        <ele>386</ele>
        <time>2016-08-24T16:46:58.000Z</time>
      </trkpt>
      <trkpt lat="47.51626" lon="6.7748">
        <ele>386</ele>
        <time>2016-08-24T16:46:59.000Z</time>
      </trkpt>
      <trkpt lat="47.51628" lon="6.77483">
        <ele>386</ele>
        <time>2016-08-24T16:47:00.000Z</time>
      </trkpt>
      <trkpt lat="47.5163" lon="6.77486">
        <ele>386</ele>
        <time>2016-08-24T16:47:01.000Z</time>
      </trkpt>
      <trkpt lat="47.51632" lon="6.77489">
        <ele>386</ele>
        <time>2016-08-24T16:47:02.000Z</time>
      </trkpt>
      <trkpt lat="47.51634" lon="6.77491">
        <ele>386</ele>
        <time>2016-08-24T16:47:03.000Z</time>
      </trkpt>
      <trkpt lat="47.51636" lon="6.77494">
        <ele>387</ele>
        <time>2016-08-24T16:47:04.000Z</time>
      </trkpt>
      <trkpt lat="47.51639" lon="6.77497">
        <ele>387</ele>
        <time>2016-08-24T16:47:05.000Z</time>
      </trkpt>
      <trkpt lat="47.51641" lon="6.775">
        <ele>387</ele>
        <time>2016-08-24T16:47:06.000Z</time>
      </trkpt>
      <trkpt lat="47.51643" lon="6.77502">
        <ele>388</ele>
        <time>2016-08-24T16:47:07.000Z</time>
      </trkpt>
      <trkpt lat="47.51646" lon="6.77504">
        <ele>388</ele>
        <time>2016-08-24T16:47:08.000Z</time>
      </trkpt>
      <trkpt lat="47.51649" lon="6.77506">
        <ele>388</ele>
        <time>2016-08-24T16:47:09.000Z</time>
      </trkpt>
      <trkpt lat="47.51652" lon="6.77509">
        <ele>388</ele>
        <time>2016-08-24T16:47:10.000Z</time>
      </trkpt>
      <trkpt lat="47.51655" lon="6.77512">
        <ele>388</ele>
        <time>2016-08-24T16:47:11.000Z</time>
      </trkpt>
      <trkpt lat="47.51658" lon="6.77515">
        <ele>388</ele>
        <time>2016-08-24T16:47:12.000Z</time>
      </trkpt>
      <trkpt lat="47.5166" lon="6.77519">
        <ele>388</ele>
        <time>2016-08-24T16:47:13.000Z</time>
      </trkpt>
      <trkpt lat="47.51663" lon="6.77522">
        <ele>388</ele>
        <time>2016-08-24T16:47:14.000Z</time>
      </trkpt>
      <trkpt lat="47.51666" lon="6.77526">
        <ele>388</ele>
        <time>2016-08-24T16:47:15.000Z</time>
      </trkpt>
      <trkpt lat="47.51669" lon="6.77529">
        <ele>390</ele>
        <time>2016-08-24T16:47:16.000Z</time>
      </trkpt>
      <trkpt lat="47.51671" lon="6.77532">
        <ele>390</ele>
        <time>2016-08-24T16:47:17.000Z</time>
      </trkpt>
      <trkpt lat="47.51674" lon="6.77535">
        <ele>390</ele>
        <time>2016-08-24T16:47:18.000Z</time>
      </trkpt>
      <trkpt lat="47.51676" lon="6.77538">
        <ele>390</ele>
        <time>2016-08-24T16:47:19.000Z</time>
      </trkpt>
      <trkpt lat="47.51678" lon="6.7754">
        <ele>390</ele>
        <time>2016-08-24T16:47:20.000Z</time>
      </trkpt>
      <trkpt lat="47.5168" lon="6.77542">
        <ele>390</ele>
        <time>2016-08-24T16:47:21.000Z</time>
      </trkpt>
      <trkpt lat="47.51682" lon="6.77545">
        <ele>390</ele>
        <time>2016-08-24T16:47:22.000Z</time>
      </trkpt>
      <trkpt lat="47.51684" lon="6.77547">
        <ele>390</ele>
        <time>2016-08-24T16:47:23.000Z</time>
      </trkpt>
      <trkpt lat="47.51687" lon="6.77551">
        <ele>390</ele>
        <time>2016-08-24T16:47:24.000Z</time>
      </trkpt>
      <trkpt lat="47.51691" lon="6.77553">
        <ele>390</ele>
        <time>2016-08-24T16:47:25.000Z</time>
      </trkpt>
      <trkpt lat="47.51694" lon="6.77553">
        <ele>390</ele>
        <time>2016-08-24T16:47:26.000Z</time>
      </trkpt>
      <trkpt lat="47.51697" lon="6.77551">
        <ele>390</ele>
        <time>2016-08-24T16:47:27.000Z</time>
      </trkpt>
      <trkpt lat="47.51699" lon="6.77549">
        <ele>390</ele>
        <time>2016-08-24T16:47:28.000Z</time>
      </trkpt>
      <trkpt lat="47.51702" lon="6.77546">
        <ele>390</ele>
        <time>2016-08-24T16:47:29.000Z</time>
      </trkpt>
      <trkpt lat="47.51705" lon="6.77545">
        <ele>390</ele>
        <time>2016-08-24T16:47:30.000Z</time>
      </trkpt>
      <trkpt lat="47.51708" lon="6.77542">
        <ele>390</ele>
        <time>2016-08-24T16:47:31.000Z</time>
      </trkpt>
      <trkpt lat="47.5171" lon="6.77538">
        <ele>390</ele>
        <time>2016-08-24T16:47:32.000Z</time>
      </trkpt>
      <trkpt lat="47.51712" lon="6.77533">
        <ele>390</ele>
        <time>2016-08-24T16:47:33.000Z</time>
      </trkpt>
      <trkpt lat="47.51716" lon="6.77524">
        <ele>390</ele>
        <time>2016-08-24T16:47:34.000Z</time>
      </trkpt>
      <trkpt lat="47.51718" lon="6.77519">
        <ele>390</ele>
        <time>2016-08-24T16:47:35.000Z</time>
      </trkpt>
      <trkpt lat="47.51721" lon="6.77513">
        <ele>390</ele>
        <time>2016-08-24T16:47:36.000Z</time>
      </trkpt>
      <trkpt lat="47.51723" lon="6.77507">
        <ele>390</ele>
        <time>2016-08-24T16:47:37.000Z</time>
      </trkpt>
      <trkpt lat="47.51726" lon="6.775">
        <ele>389</ele>
        <time>2016-08-24T16:47:38.000Z</time>
      </trkpt>
      <trkpt lat="47.51728" lon="6.77493">
        <ele>389</ele>
        <time>2016-08-24T16:47:39.000Z</time>
      </trkpt>
      <trkpt lat="47.51729" lon="6.77486">
        <ele>389</ele>
        <time>2016-08-24T16:47:40.000Z</time>
      </trkpt>
      <trkpt lat="47.51734" lon="6.77482">
        <ele>389</ele>
        <time>2016-08-24T16:47:41.000Z</time>
      </trkpt>
      <trkpt lat="47.51737" lon="6.7748">
        <ele>389</ele>
        <time>2016-08-24T16:47:42.000Z</time>
      </trkpt>
      <trkpt lat="47.51742" lon="6.77482">
        <ele>389</ele>
        <time>2016-08-24T16:47:43.000Z</time>
      </trkpt>
      <trkpt lat="47.51746" lon="6.77482">
        <ele>389</ele>
        <time>2016-08-24T16:47:44.000Z</time>
      </trkpt>
      <trkpt lat="47.5175" lon="6.77484">
        <ele>389</ele>
        <time>2016-08-24T16:47:45.000Z</time>
      </trkpt>
      <trkpt lat="47.51755" lon="6.77483">
        <ele>389</ele>
        <time>2016-08-24T16:47:46.000Z</time>
      </trkpt>
      <trkpt lat="47.5176" lon="6.77484">
        <ele>389</ele>
        <time>2016-08-24T16:47:47.000Z</time>
      </trkpt>
      <trkpt lat="47.51765" lon="6.77485">
        <ele>389</ele>
        <time>2016-08-24T16:47:48.000Z</time>
      </trkpt>
      <trkpt lat="47.5177" lon="6.77485">
        <ele>389</ele>
        <time>2016-08-24T16:47:49.000Z</time>
      </trkpt>
      <trkpt lat="47.51775" lon="6.77487">
        <ele>388</ele>
        <time>2016-08-24T16:47:50.000Z</time>
      </trkpt>
      <trkpt lat="47.51779" lon="6.77488">
        <ele>388</ele>
        <time>2016-08-24T16:47:51.000Z</time>
      </trkpt>
      <trkpt lat="47.51784" lon="6.77489">
        <ele>388</ele>
        <time>2016-08-24T16:47:52.000Z</time>
      </trkpt>
      <trkpt lat="47.5179" lon="6.77492">
        <ele>388</ele>
        <time>2016-08-24T16:47:53.000Z</time>
      </trkpt>
      <trkpt lat="47.51794" lon="6.77493">
        <ele>388</ele>
        <time>2016-08-24T16:47:54.000Z</time>
      </trkpt>
      <trkpt lat="47.518" lon="6.77494">
        <ele>388</ele>
        <time>2016-08-24T16:47:55.000Z</time>
      </trkpt>
      <trkpt lat="47.51804" lon="6.77494">
        <ele>388</ele>
        <time>2016-08-24T16:47:56.000Z</time>
      </trkpt>
      <trkpt lat="47.51808" lon="6.77495">
        <ele>388</ele>
        <time>2016-08-24T16:47:57.000Z</time>
      </trkpt>
      <trkpt lat="47.51808" lon="6.77489">
        <ele>388</ele>
        <time>2016-08-24T16:47:59.000Z</time>
      </trkpt>
      <trkpt lat="47.51808" lon="6.77487">
        <ele>388</ele>
        <time>2016-08-24T16:48:00.000Z</time>
      </trkpt>
      <trkpt lat="47.51806" lon="6.77483">
        <ele>388</ele>
        <time>2016-08-24T16:48:04.000Z</time>
      </trkpt>
      <trkpt lat="47.51805" lon="6.77481">
        <ele>388</ele>
        <time>2016-08-24T16:48:05.000Z</time>
      </trkpt>
      <trkpt lat="47.51802" lon="6.77477">
        <ele>388</ele>
        <time>2016-08-24T16:48:11.000Z</time>
      </trkpt>
      <trkpt lat="47.51801" lon="6.77474">
        <ele>388</ele>
        <time>2016-08-24T16:48:12.000Z</time>
      </trkpt>
      <trkpt lat="47.51804" lon="6.77479">
        <ele>388</ele>
        <time>2016-08-24T16:49:43.000Z</time>
      </trkpt>
      <trkpt lat="47.51805" lon="6.77478">
        <ele>388</ele>
        <time>2016-08-24T16:49:44.000Z</time>
      </trkpt>
      <trkpt lat="47.51805" lon="6.77472">
        <ele>388</ele>
        <time>2016-08-24T16:49:51.000Z</time>
      </trkpt>
      <trkpt lat="47.51805" lon="6.77471">
        <ele>388</ele>
        <time>2016-08-24T16:49:52.000Z</time>
      </trkpt>
      <trkpt lat="47.51806" lon="6.77465">
        <ele>388</ele>
        <time>2016-08-24T16:57:37.000Z</time>
      </trkpt>
    </trkseg>
  </trk>
</gpx>